<?xml version='1.0' encoding='UTF-8'?><gpx version="1.1" creator="JPX - https://github.com/jenetics/jpx" xmlns="http://www.topografix.com/GPX/1/1"><trk><trkseg><trkpt lat="40.78124394421015" lon="8.590816763942504"><ele>305.0</ele><time>2026-04-11T07:55:13Z</time></trkpt><trkpt lat="40.78118965444375" lon="8.590861044428129"><ele>305.0</ele><time>2026-04-11T07:55:14Z</time></trkpt><trkpt lat="40.781126813589346" lon="8.590919149210455"><ele>305.0</ele><time>2026-04-11T07:55:15Z</time></trkpt><trkpt lat="40.78101893764021" lon="8.590923681511487"><ele>305.0</ele><time>2026-04-11T07:55:16Z</time></trkpt><trkpt lat="40.780935748706405" lon="8.590996793603628"><ele>305.0</ele><time>2026-04-11T07:55:17Z</time></trkpt><trkpt lat="40.78084729927044" lon="8.591074894673282"><ele>305.25</ele><time>2026-04-11T07:55:18Z</time></trkpt><trkpt lat="40.78075467104056" lon="8.591156685629018"><ele>305.5</ele><time>2026-04-11T07:55:19Z</time></trkpt><trkpt lat="40.780659809568974" lon="8.591240448545044"><ele>305.75</ele><time>2026-04-11T07:55:20Z</time></trkpt><trkpt lat="40.78056376087074" lon="8.591325405841689"><ele>306.0</ele><time>2026-04-11T07:55:21Z</time></trkpt><trkpt lat="40.7804647515125" lon="8.591412992226916"><ele>308.0</ele><time>2026-04-11T07:55:22Z</time></trkpt><trkpt lat="40.78037980432901" lon="8.591528597385286"><ele>310.0</ele><time>2026-04-11T07:55:23Z</time></trkpt><trkpt lat="40.780281416897026" lon="8.591620319737638"><ele>312.0</ele><time>2026-04-11T07:55:24Z</time></trkpt><trkpt lat="40.780170612737756" lon="8.59170157766397"><ele>314.0</ele><time>2026-04-11T07:55:25Z</time></trkpt><trkpt lat="40.7800981926504" lon="8.591838102161436"><ele>314.0</ele><time>2026-04-11T07:55:26Z</time></trkpt><trkpt lat="40.78002869830382" lon="8.591967641318433"><ele>314.0</ele><time>2026-04-11T07:55:27Z</time></trkpt><trkpt lat="40.77997212713633" lon="8.592112001793875"><ele>314.0</ele><time>2026-04-11T07:55:28Z</time></trkpt><trkpt lat="40.77992982031655" lon="8.5922635976497"><ele>314.0</ele><time>2026-04-11T07:55:29Z</time></trkpt><trkpt lat="40.77989886833738" lon="8.592416448410084"><ele>315.75</ele><time>2026-04-11T07:55:30Z</time></trkpt><trkpt lat="40.77988001580034" lon="8.592575375341886"><ele>317.5</ele><time>2026-04-11T07:55:31Z</time></trkpt><trkpt lat="40.779876771675454" lon="8.592736266654228"><ele>319.25</ele><time>2026-04-11T07:55:32Z</time></trkpt><trkpt lat="40.77989502415126" lon="8.592900622173456"><ele>321.0</ele><time>2026-04-11T07:55:33Z</time></trkpt><trkpt lat="40.7799331395077" lon="8.59306584469096"><ele>322.5</ele><time>2026-04-11T07:55:34Z</time></trkpt><trkpt lat="40.77998905964836" lon="8.593228451799044"><ele>324.0</ele><time>2026-04-11T07:55:35Z</time></trkpt><trkpt lat="40.78005896342461" lon="8.5933885817011"><ele>325.5</ele><time>2026-04-11T07:55:36Z</time></trkpt><trkpt lat="40.780134068861045" lon="8.593548196020706"><ele>327.0</ele><time>2026-04-11T07:55:37Z</time></trkpt><trkpt lat="40.78021599097403" lon="8.593706150524282"><ele>327.6666666666667</ele><time>2026-04-11T07:55:38Z</time></trkpt><trkpt lat="40.780305973120726" lon="8.593870398543874"><ele>328.33333333333337</ele><time>2026-04-11T07:55:39Z</time></trkpt><trkpt lat="40.78039055859275" lon="8.59404135813327"><ele>329.0</ele><time>2026-04-11T07:55:40Z</time></trkpt><trkpt lat="40.78047588127107" lon="8.594214809905871"><ele>329.0</ele><time>2026-04-11T07:55:41Z</time></trkpt><trkpt lat="40.780560565871404" lon="8.594386417666218"><ele>329.0</ele><time>2026-04-11T07:55:42Z</time></trkpt><trkpt lat="40.780658882710206" lon="8.594553496500119"><ele>329.0</ele><time>2026-04-11T07:55:43Z</time></trkpt><trkpt lat="40.78074154493846" lon="8.59473586983051"><ele>332.0</ele><time>2026-04-11T07:55:44Z</time></trkpt><trkpt lat="40.780830149131354" lon="8.594910582549415"><ele>335.0</ele><time>2026-04-11T07:55:45Z</time></trkpt><trkpt lat="40.780893806719796" lon="8.595092414428203"><ele>338.0</ele><time>2026-04-11T07:55:46Z</time></trkpt><trkpt lat="40.78097451219215" lon="8.595254802187354"><ele>338.5</ele><time>2026-04-11T07:55:47Z</time></trkpt><trkpt lat="40.78104318972848" lon="8.595404744720952"><ele>339.0</ele><time>2026-04-11T07:55:48.001Z</time></trkpt><trkpt lat="40.78110818855867" lon="8.59558315108516"><ele>339.5</ele><time>2026-04-11T07:55:49.001Z</time></trkpt><trkpt lat="40.78117506798425" lon="8.59575991550313"><ele>340.0</ele><time>2026-04-11T07:55:50.001Z</time></trkpt><trkpt lat="40.78123584430541" lon="8.595931198557688"><ele>340.0</ele><time>2026-04-11T07:55:51.001Z</time></trkpt><trkpt lat="40.781291988121176" lon="8.596103138001244"><ele>340.0</ele><time>2026-04-11T07:55:52.001Z</time></trkpt><trkpt lat="40.781348936111115" lon="8.596288055620246"><ele>340.0</ele><time>2026-04-11T07:55:53.001Z</time></trkpt><trkpt lat="40.78140252485485" lon="8.596469750890334"><ele>340.0</ele><time>2026-04-11T07:55:54.001Z</time></trkpt><trkpt lat="40.781454033291745" lon="8.596651346085045"><ele>340.25</ele><time>2026-04-11T07:55:55.001Z</time></trkpt><trkpt lat="40.781506342774726" lon="8.596835765404293"><ele>340.5</ele><time>2026-04-11T07:55:56.001Z</time></trkpt><trkpt lat="40.7815693239079" lon="8.596989596120075"><ele>340.75</ele><time>2026-04-11T07:55:57.001Z</time></trkpt><trkpt lat="40.78161493787644" lon="8.597153666778135"><ele>341.0</ele><time>2026-04-11T07:55:58.001Z</time></trkpt><trkpt lat="40.781669143042144" lon="8.597327295742444"><ele>340.0</ele><time>2026-04-11T07:55:59.001Z</time></trkpt><trkpt lat="40.781737231866" lon="8.59749371114336"><ele>339.0</ele><time>2026-04-11T07:56:00.001Z</time></trkpt><trkpt lat="40.781827347979785" lon="8.597665282406446"><ele>338.0</ele><time>2026-04-11T07:56:01.001Z</time></trkpt><trkpt lat="40.78191431754037" lon="8.597798894732097"><ele>337.0</ele><time>2026-04-11T07:56:02.001Z</time></trkpt><trkpt lat="40.78195107703906" lon="8.597893003942197"><ele>339.6</ele><time>2026-04-11T07:56:03.001Z</time></trkpt><trkpt lat="40.781909379165725" lon="8.597980412090713"><ele>342.20000000000005</ele><time>2026-04-11T07:56:04.001Z</time></trkpt><trkpt lat="40.78193887703942" lon="8.59809116704542"><ele>344.8</ele><time>2026-04-11T07:56:05.001Z</time></trkpt><trkpt lat="40.78199011198817" lon="8.59822896892502"><ele>347.4</ele><time>2026-04-11T07:56:06.001Z</time></trkpt><trkpt lat="40.782033515082645" lon="8.598354407856336"><ele>350.0</ele><time>2026-04-11T07:56:07.001Z</time></trkpt><trkpt lat="40.78208353574036" lon="8.598502174267983"><ele>350.0</ele><time>2026-04-11T07:56:08.001Z</time></trkpt><trkpt lat="40.782135359435614" lon="8.598655267045457"><ele>350.0</ele><time>2026-04-11T07:56:09.001Z</time></trkpt><trkpt lat="40.78218348259582" lon="8.598803649445609"><ele>350.0</ele><time>2026-04-11T07:56:10.001Z</time></trkpt><trkpt lat="40.782238541994126" lon="8.59897498340282"><ele>350.0</ele><time>2026-04-11T07:56:11.001Z</time></trkpt><trkpt lat="40.78228894739995" lon="8.5991318350571"><ele>351.6666666666667</ele><time>2026-04-11T07:56:12.001Z</time></trkpt><trkpt lat="40.782333458269264" lon="8.599268340306041"><ele>353.33333333333337</ele><time>2026-04-11T07:56:13.001Z</time></trkpt><trkpt lat="40.78235512331365" lon="8.599356672318004"><ele>355.0</ele><time>2026-04-11T07:56:14.001Z</time></trkpt><trkpt lat="40.78235841664752" lon="8.59944895199057"><ele>356.6666666666667</ele><time>2026-04-11T07:56:16.001Z</time></trkpt><trkpt lat="40.782281430743204" lon="8.599464317711496"><ele>358.3333333333333</ele><time>2026-04-11T07:56:19.001Z</time></trkpt><trkpt lat="40.78218299674789" lon="8.59947777606398"><ele>360.0</ele><time>2026-04-11T07:56:20.001Z</time></trkpt><trkpt lat="40.782069918919134" lon="8.599520322553273"><ele>362.25</ele><time>2026-04-11T07:56:21.001Z</time></trkpt><trkpt lat="40.781947949587554" lon="8.59956490956249"><ele>364.5</ele><time>2026-04-11T07:56:22.001Z</time></trkpt><trkpt lat="40.7818223617908" lon="8.599631593994296"><ele>366.75</ele><time>2026-04-11T07:56:23.001Z</time></trkpt><trkpt lat="40.781700215405806" lon="8.599655471064917"><ele>369.0</ele><time>2026-04-11T07:56:24.001Z</time></trkpt><trkpt lat="40.781580033038054" lon="8.599699404832469"><ele>370.25</ele><time>2026-04-11T07:56:25.001Z</time></trkpt><trkpt lat="40.781467220613536" lon="8.599740644450238"><ele>371.5</ele><time>2026-04-11T07:56:26.001Z</time></trkpt><trkpt lat="40.7813508825496" lon="8.599783172899414"><ele>372.75</ele><time>2026-04-11T07:56:27.001Z</time></trkpt><trkpt lat="40.781219789027546" lon="8.59983109533861"><ele>374.0</ele><time>2026-04-11T07:56:28.001Z</time></trkpt><trkpt lat="40.7810856659128" lon="8.599880125278327"><ele>375.25</ele><time>2026-04-11T07:56:29.001Z</time></trkpt><trkpt lat="40.78095446026826" lon="8.599926039835267"><ele>376.5</ele><time>2026-04-11T07:56:30.001Z</time></trkpt><trkpt lat="40.78084804591644" lon="8.599966468890834"><ele>377.75</ele><time>2026-04-11T07:56:31.001Z</time></trkpt><trkpt lat="40.78074127546687" lon="8.60001525611089"><ele>379.0</ele><time>2026-04-11T07:56:32.001Z</time></trkpt><trkpt lat="40.780633396350126" lon="8.600063486791402"><ele>379.0</ele><time>2026-04-11T07:56:33.001Z</time></trkpt><trkpt lat="40.78052625164462" lon="8.60010662363141"><ele>379.0</ele><time>2026-04-11T07:56:34.001Z</time></trkpt><trkpt lat="40.78041029428034" lon="8.600153819134459"><ele>379.0</ele><time>2026-04-11T07:56:35.001Z</time></trkpt><trkpt lat="40.7802827634686" lon="8.600205969432231"><ele>379.0</ele><time>2026-04-11T07:56:36.001Z</time></trkpt><trkpt lat="40.780146980722826" lon="8.600260501728213"><ele>382.75</ele><time>2026-04-11T07:56:37.001Z</time></trkpt><trkpt lat="40.77999868483891" lon="8.600337841682444"><ele>386.5</ele><time>2026-04-11T07:56:38.001Z</time></trkpt><trkpt lat="40.77987314210195" lon="8.600383210672618"><ele>390.25</ele><time>2026-04-11T07:56:39.001Z</time></trkpt><trkpt lat="40.779756674651374" lon="8.600432242432031"><ele>394.0</ele><time>2026-04-11T07:56:40.001Z</time></trkpt><trkpt lat="40.77963241576584" lon="8.600457582013695"><ele>394.0</ele><time>2026-04-11T07:56:41.001Z</time></trkpt><trkpt lat="40.779522689111815" lon="8.60049881051787"><ele>394.0</ele><time>2026-04-11T07:56:42.001Z</time></trkpt><trkpt lat="40.779430788076574" lon="8.600533472694682"><ele>394.0</ele><time>2026-04-11T07:56:43.001Z</time></trkpt><trkpt lat="40.77934906858058" lon="8.600564306768463"><ele>394.0</ele><time>2026-04-11T07:56:44.001Z</time></trkpt><trkpt lat="40.77927902602703" lon="8.600578351546439"><ele>394.0</ele><time>2026-04-11T07:56:45.001Z</time></trkpt><trkpt lat="40.779190673403285" lon="8.600615411183744"><ele>394.6666666666667</ele><time>2026-04-11T07:56:47.001Z</time></trkpt><trkpt lat="40.77910759977192" lon="8.60066290662719"><ele>395.33333333333337</ele><time>2026-04-11T07:56:49.001Z</time></trkpt><trkpt lat="40.77904058281542" lon="8.60069020166458"><ele>396.0</ele><time>2026-04-11T07:56:50.001Z</time></trkpt><trkpt lat="40.77895591295495" lon="8.60072356778842"><ele>396.66666666666663</ele><time>2026-04-11T07:56:51.001Z</time></trkpt><trkpt lat="40.77885605690675" lon="8.600762757983448"><ele>397.3333333333333</ele><time>2026-04-11T07:56:52.001Z</time></trkpt><trkpt lat="40.77877558322673" lon="8.600794341241661"><ele>398.0</ele><time>2026-04-11T07:56:53.001Z</time></trkpt><trkpt lat="40.778669757634795" lon="8.60083251558953"><ele>398.0</ele><time>2026-04-11T07:56:54.001Z</time></trkpt><trkpt lat="40.77855502142529" lon="8.600874010442867"><ele>398.0</ele><time>2026-04-11T07:56:55.001Z</time></trkpt><trkpt lat="40.778429963629414" lon="8.600919238142536"><ele>398.0</ele><time>2026-04-11T07:56:56.001Z</time></trkpt><trkpt lat="40.77829840099741" lon="8.600966818343762"><ele>398.0</ele><time>2026-04-11T07:56:57.001Z</time></trkpt><trkpt lat="40.77817485257888" lon="8.60103102148397"><ele>399.0</ele><time>2026-04-11T07:56:58.001Z</time></trkpt><trkpt lat="40.77803923339821" lon="8.601063413599933"><ele>400.0</ele><time>2026-04-11T07:56:59.001Z</time></trkpt><trkpt lat="40.777918327354776" lon="8.601127418736523"><ele>401.0</ele><time>2026-04-11T07:57:00.001Z</time></trkpt><trkpt lat="40.777785149505505" lon="8.601154322046323"><ele>402.0</ele><time>2026-04-11T07:57:01.001Z</time></trkpt><trkpt lat="40.777660794192215" lon="8.601198093268534"><ele>403.75</ele><time>2026-04-11T07:57:02.001Z</time></trkpt><trkpt lat="40.77753813357038" lon="8.601241267985017"><ele>405.5</ele><time>2026-04-11T07:57:03.001Z</time></trkpt><trkpt lat="40.777424217473474" lon="8.601303272802959"><ele>407.25</ele><time>2026-04-11T07:57:04.001Z</time></trkpt><trkpt lat="40.777297855275926" lon="8.601328192819683"><ele>409.0</ele><time>2026-04-11T07:57:05.001Z</time></trkpt><trkpt lat="40.77717444651467" lon="8.601374818536422"><ele>409.0</ele><time>2026-04-11T07:57:06.001Z</time></trkpt><trkpt lat="40.77705762364771" lon="8.601419935557265"><ele>409.0</ele><time>2026-04-11T07:57:07.001Z</time></trkpt><trkpt lat="40.77693584388791" lon="8.601466966930298"><ele>409.0</ele><time>2026-04-11T07:57:08.001Z</time></trkpt><trkpt lat="40.77682458522996" lon="8.601509935050732"><ele>409.0</ele><time>2026-04-11T07:57:09.001Z</time></trkpt><trkpt lat="40.77672404034269" lon="8.601553131159557"><ele>409.2</ele><time>2026-04-11T07:57:10.001Z</time></trkpt><trkpt lat="40.776637593012936" lon="8.601591186057826"><ele>409.4</ele><time>2026-04-11T07:57:11.001Z</time></trkpt><trkpt lat="40.77657551868339" lon="8.601648750396848"><ele>409.6</ele><time>2026-04-11T07:57:12.001Z</time></trkpt><trkpt lat="40.776550501771844" lon="8.601800375313008"><ele>409.8</ele><time>2026-04-11T07:57:14.001Z</time></trkpt><trkpt lat="40.776531160477504" lon="8.60189797938379"><ele>410.0</ele><time>2026-04-11T07:57:15.001Z</time></trkpt><trkpt lat="40.776524957840714" lon="8.60202758575029"><ele>410.75</ele><time>2026-04-11T07:57:16.001Z</time></trkpt><trkpt lat="40.77651609919868" lon="8.602160393724436"><ele>411.5</ele><time>2026-04-11T07:57:17.001Z</time></trkpt><trkpt lat="40.7764810377504" lon="8.602308779435534"><ele>412.25</ele><time>2026-04-11T07:57:18.001Z</time></trkpt><trkpt lat="40.77645565788261" lon="8.602476914737146"><ele>413.0</ele><time>2026-04-11T07:57:19.001Z</time></trkpt><trkpt lat="40.77642743862805" lon="8.602663859935468"><ele>413.75</ele><time>2026-04-11T07:57:20.001Z</time></trkpt><trkpt lat="40.776398754479644" lon="8.60284396445777"><ele>414.5</ele><time>2026-04-11T07:57:21.001Z</time></trkpt><trkpt lat="40.77636818150928" lon="8.603033487534068"><ele>415.25</ele><time>2026-04-11T07:57:22.001Z</time></trkpt><trkpt lat="40.776343375407194" lon="8.603217486909978"><ele>416.0</ele><time>2026-04-11T07:57:23.001Z</time></trkpt><trkpt lat="40.7763227579246" lon="8.603388232027953"><ele>416.0</ele><time>2026-04-11T07:57:24.001Z</time></trkpt><trkpt lat="40.776300996799485" lon="8.603573913859682"><ele>416.0</ele><time>2026-04-11T07:57:25.001Z</time></trkpt><trkpt lat="40.77628144435775" lon="8.603739354929074"><ele>416.0</ele><time>2026-04-11T07:57:26.001Z</time></trkpt><trkpt lat="40.77625835806833" lon="8.60392122275172"><ele>416.0</ele><time>2026-04-11T07:57:27.001Z</time></trkpt><trkpt lat="40.776241797117784" lon="8.604051685643256"><ele>416.5</ele><time>2026-04-11T07:57:28.001Z</time></trkpt><trkpt lat="40.77622359955812" lon="8.60419622655894"><ele>417.0</ele><time>2026-04-11T07:57:29.001Z</time></trkpt><trkpt lat="40.776204363219016" lon="8.604370084211011"><ele>417.5</ele><time>2026-04-11T07:57:30.001Z</time></trkpt><trkpt lat="40.77618679952393" lon="8.604554949120404"><ele>418.0</ele><time>2026-04-11T07:57:31.001Z</time></trkpt><trkpt lat="40.77616926261076" lon="8.604746759572665"><ele>418.25</ele><time>2026-04-11T07:57:32.001Z</time></trkpt><trkpt lat="40.77615817515761" lon="8.604929843023346"><ele>418.5</ele><time>2026-04-11T07:57:33.001Z</time></trkpt><trkpt lat="40.776159227302806" lon="8.605104144100157"><ele>418.75</ele><time>2026-04-11T07:57:34.001Z</time></trkpt><trkpt lat="40.77618291120126" lon="8.605254695162342"><ele>419.0</ele><time>2026-04-11T07:57:35.001Z</time></trkpt><trkpt lat="40.77618791954114" lon="8.605393633940924"><ele>419.0</ele><time>2026-04-11T07:57:36.001Z</time></trkpt><trkpt lat="40.776197521339114" lon="8.605524227130003"><ele>419.0</ele><time>2026-04-11T07:57:37.001Z</time></trkpt><trkpt lat="40.77621805834977" lon="8.605647476149773"><ele>419.0</ele><time>2026-04-11T07:57:38.001Z</time></trkpt><trkpt lat="40.77620202383568" lon="8.605782193802803"><ele>419.0</ele><time>2026-04-11T07:57:39.001Z</time></trkpt><trkpt lat="40.776189678995976" lon="8.605946609056794"><ele>419.0</ele><time>2026-04-11T07:57:40.001Z</time></trkpt><trkpt lat="40.77615891732672" lon="8.606104415499392"><ele>418.75</ele><time>2026-04-11T07:57:41.001Z</time></trkpt><trkpt lat="40.77611184562411" lon="8.606261435387253"><ele>418.5</ele><time>2026-04-11T07:57:42.001Z</time></trkpt><trkpt lat="40.77606773541805" lon="8.606381565207924"><ele>418.25</ele><time>2026-04-11T07:57:43.001Z</time></trkpt><trkpt lat="40.775994674185746" lon="8.606524645230978"><ele>418.0</ele><time>2026-04-11T07:57:44.001Z</time></trkpt><trkpt lat="40.77591452216522" lon="8.60667348774644"><ele>417.0</ele><time>2026-04-11T07:57:45.001Z</time></trkpt><trkpt lat="40.77583272996764" lon="8.606834338502724"><ele>416.0</ele><time>2026-04-11T07:57:46.001Z</time></trkpt><trkpt lat="40.77577224695387" lon="8.60698767328098"><ele>415.0</ele><time>2026-04-11T07:57:47.001Z</time></trkpt><trkpt lat="40.775730040606625" lon="8.607147775547089"><ele>414.0</ele><time>2026-04-11T07:57:48.001Z</time></trkpt><trkpt lat="40.775723794872015" lon="8.607318397099096"><ele>414.0</ele><time>2026-04-11T07:57:49.001Z</time></trkpt><trkpt lat="40.77570817652758" lon="8.60749712382709"><ele>414.0</ele><time>2026-04-11T07:57:50.001Z</time></trkpt><trkpt lat="40.775688341960844" lon="8.607652508930292"><ele>414.0</ele><time>2026-04-11T07:57:51.001Z</time></trkpt><trkpt lat="40.77564676291248" lon="8.60779092472936"><ele>414.0</ele><time>2026-04-11T07:57:52.001Z</time></trkpt><trkpt lat="40.775585502421656" lon="8.60792031481878"><ele>413.75</ele><time>2026-04-11T07:57:53.001Z</time></trkpt><trkpt lat="40.775512626160726" lon="8.608050067527358"><ele>413.5</ele><time>2026-04-11T07:57:54.001Z</time></trkpt><trkpt lat="40.775442357025334" lon="8.608186886682475"><ele>413.25</ele><time>2026-04-11T07:57:55.001Z</time></trkpt><trkpt lat="40.775387795995194" lon="8.608327303876147"><ele>413.0</ele><time>2026-04-11T07:57:56.001Z</time></trkpt><trkpt lat="40.77535367579585" lon="8.608487173013618"><ele>413.0</ele><time>2026-04-11T07:57:57.001Z</time></trkpt><trkpt lat="40.77534630693671" lon="8.608651790458783"><ele>413.0</ele><time>2026-04-11T07:57:58.001Z</time></trkpt><trkpt lat="40.77534742477538" lon="8.60881775809701"><ele>413.0</ele><time>2026-04-11T07:57:59.001Z</time></trkpt><trkpt lat="40.775352250632004" lon="8.608978578879665"><ele>413.0</ele><time>2026-04-11T07:58:00.001Z</time></trkpt><trkpt lat="40.77536086616365" lon="8.609136401595093"><ele>411.75</ele><time>2026-04-11T07:58:01.001Z</time></trkpt><trkpt lat="40.77531817627301" lon="8.609273590868781"><ele>410.5</ele><time>2026-04-11T07:58:02.001Z</time></trkpt><trkpt lat="40.77526861350305" lon="8.609412191188001"><ele>409.25</ele><time>2026-04-11T07:58:03.001Z</time></trkpt><trkpt lat="40.775203881413795" lon="8.609561697467528"><ele>408.0</ele><time>2026-04-11T07:58:04.001Z</time></trkpt><trkpt lat="40.77513513919298" lon="8.60970593049462"><ele>407.25</ele><time>2026-04-11T07:58:05.001Z</time></trkpt><trkpt lat="40.77506395885737" lon="8.60985406921215"><ele>406.5</ele><time>2026-04-11T07:58:06.001Z</time></trkpt><trkpt lat="40.77501529998604" lon="8.610020266073843"><ele>405.75</ele><time>2026-04-11T07:58:07.001Z</time></trkpt><trkpt lat="40.775000855827095" lon="8.610190143261434"><ele>405.0</ele><time>2026-04-11T07:58:08.001Z</time></trkpt><trkpt lat="40.77499087334091" lon="8.610353988069168"><ele>405.0</ele><time>2026-04-11T07:58:09.001Z</time></trkpt><trkpt lat="40.77498165293175" lon="8.610518301840154"><ele>405.0</ele><time>2026-04-11T07:58:10.001Z</time></trkpt><trkpt lat="40.774957815099036" lon="8.610688334563466"><ele>405.0</ele><time>2026-04-11T07:58:11.001Z</time></trkpt><trkpt lat="40.774921712926854" lon="8.610859067676627"><ele>405.0</ele><time>2026-04-11T07:58:12.001Z</time></trkpt><trkpt lat="40.774889472571665" lon="8.611030836176704"><ele>404.75</ele><time>2026-04-11T07:58:13.001Z</time></trkpt><trkpt lat="40.7749125161629" lon="8.61119552042979"><ele>404.5</ele><time>2026-04-11T07:58:14.001Z</time></trkpt><trkpt lat="40.7749271741798" lon="8.611359901617268"><ele>404.25</ele><time>2026-04-11T07:58:15.001Z</time></trkpt><trkpt lat="40.77494593811758" lon="8.611509335241102"><ele>404.0</ele><time>2026-04-11T07:58:16.001Z</time></trkpt><trkpt lat="40.77497357680331" lon="8.61164223649314"><ele>404.0</ele><time>2026-04-11T07:58:17.001Z</time></trkpt><trkpt lat="40.77500710209355" lon="8.611756468715644"><ele>404.0</ele><time>2026-04-11T07:58:18.001Z</time></trkpt><trkpt lat="40.7750546245143" lon="8.611872259217051"><ele>404.0</ele><time>2026-04-11T07:58:19.001Z</time></trkpt><trkpt lat="40.77507400373159" lon="8.61200548397212"><ele>404.0</ele><time>2026-04-11T07:58:20.001Z</time></trkpt><trkpt lat="40.77504714457473" lon="8.61214316218865"><ele>404.0</ele><time>2026-04-11T07:58:21.001Z</time></trkpt><trkpt lat="40.77503152414003" lon="8.612287845197711"><ele>404.0</ele><time>2026-04-11T07:58:22.001Z</time></trkpt><trkpt lat="40.77501077166671" lon="8.612434281124916"><ele>404.0</ele><time>2026-04-11T07:58:23.001Z</time></trkpt><trkpt lat="40.774995896060766" lon="8.612585447278628"><ele>404.0</ele><time>2026-04-11T07:58:24.001Z</time></trkpt><trkpt lat="40.774978060274684" lon="8.612739166982177"><ele>404.0</ele><time>2026-04-11T07:58:25.001Z</time></trkpt><trkpt lat="40.7749609772116" lon="8.612885577258261"><ele>402.6</ele><time>2026-04-11T07:58:26.001Z</time></trkpt><trkpt lat="40.774942403682154" lon="8.61302542250846"><ele>401.2</ele><time>2026-04-11T07:58:27.001Z</time></trkpt><trkpt lat="40.774933131134404" lon="8.613159484907078"><ele>399.8</ele><time>2026-04-11T07:58:28.001Z</time></trkpt><trkpt lat="40.77492013743683" lon="8.613288617047685"><ele>398.40000000000003</ele><time>2026-04-11T07:58:29.001Z</time></trkpt><trkpt lat="40.77490463999282" lon="8.613420085431999"><ele>397.0</ele><time>2026-04-11T07:58:30.001Z</time></trkpt><trkpt lat="40.77489048836103" lon="8.613553204279796"><ele>396.0</ele><time>2026-04-11T07:58:31.001Z</time></trkpt><trkpt lat="40.77487242388581" lon="8.613678218079766"><ele>395.0</ele><time>2026-04-11T07:58:32.001Z</time></trkpt><trkpt lat="40.774864008101886" lon="8.613797856752946"><ele>394.0</ele><time>2026-04-11T07:58:33.001Z</time></trkpt><trkpt lat="40.774868402454636" lon="8.613921570733398"><ele>393.0</ele><time>2026-04-11T07:58:34.001Z</time></trkpt><trkpt lat="40.77488526641347" lon="8.61405138177652"><ele>392.0</ele><time>2026-04-11T07:58:35.001Z</time></trkpt><trkpt lat="40.77490447997413" lon="8.614169624915348"><ele>391.99999999999994</ele><time>2026-04-11T07:58:36.001Z</time></trkpt><trkpt lat="40.774940986927305" lon="8.614259255058498"><ele>392.0</ele><time>2026-04-11T07:58:37.001Z</time></trkpt><trkpt lat="40.77499352554955" lon="8.614336118125053"><ele>392.0</ele><time>2026-04-11T07:58:38.001Z</time></trkpt><trkpt lat="40.775060545114684" lon="8.614399292134342"><ele>392.0</ele><time>2026-04-11T07:58:39.001Z</time></trkpt><trkpt lat="40.77513070704508" lon="8.614457017483623"><ele>391.99999999999994</ele><time>2026-04-11T07:58:40.001Z</time></trkpt><trkpt lat="40.775202522687806" lon="8.614514982623417"><ele>392.0</ele><time>2026-04-11T07:58:41.001Z</time></trkpt><trkpt lat="40.775269754082345" lon="8.614590471359831"><ele>392.3333333333333</ele><time>2026-04-11T07:58:42.001Z</time></trkpt><trkpt lat="40.77534340946133" lon="8.61463711163252"><ele>392.66666666666663</ele><time>2026-04-11T07:58:43.001Z</time></trkpt><trkpt lat="40.775412148240086" lon="8.614657519230063"><ele>393.0</ele><time>2026-04-11T07:58:44.001Z</time></trkpt><trkpt lat="40.775511347082436" lon="8.614729498605602"><ele>393.33333333333337</ele><time>2026-04-11T07:58:46.001Z</time></trkpt><trkpt lat="40.77555045205578" lon="8.614812164058412"><ele>393.6666666666667</ele><time>2026-04-11T07:58:48.001Z</time></trkpt><trkpt lat="40.775548348029744" lon="8.614897185649765"><ele>394.0</ele><time>2026-04-11T07:59:10.001Z</time></trkpt><trkpt lat="40.77546262836785" lon="8.614918860684067"><ele>394.00000000000006</ele><time>2026-04-11T07:59:14.001Z</time></trkpt><trkpt lat="40.77534494863533" lon="8.6149599673796"><ele>394.0</ele><time>2026-04-11T07:59:16.001Z</time></trkpt><trkpt lat="40.7752779069597" lon="8.614967119076251"><ele>394.0</ele><time>2026-04-11T07:59:17.001Z</time></trkpt><trkpt lat="40.775210365565336" lon="8.614959762989562"><ele>394.0</ele><time>2026-04-11T07:59:18.001Z</time></trkpt><trkpt lat="40.77514499058966" lon="8.614983600998347"><ele>394.00000000000006</ele><time>2026-04-11T07:59:19.001Z</time></trkpt><trkpt lat="40.775076437594855" lon="8.61500588576972"><ele>394.0</ele><time>2026-04-11T07:59:20.001Z</time></trkpt><trkpt lat="40.774999959546584" lon="8.614990063457036"><ele>394.33333333333337</ele><time>2026-04-11T07:59:21.001Z</time></trkpt><trkpt lat="40.774917177233654" lon="8.614983990377947"><ele>394.6666666666667</ele><time>2026-04-11T07:59:22.001Z</time></trkpt><trkpt lat="40.774833888207475" lon="8.614988386190438"><ele>395.0</ele><time>2026-04-11T07:59:23.001Z</time></trkpt><trkpt lat="40.7747483585357" lon="8.614973795222431"><ele>395.33333333333337</ele><time>2026-04-11T07:59:24.001Z</time></trkpt><trkpt lat="40.77465514356389" lon="8.614970517304597"><ele>395.6666666666667</ele><time>2026-04-11T07:59:25.001Z</time></trkpt><trkpt lat="40.77455921913439" lon="8.6149779296887"><ele>396.0</ele><time>2026-04-11T07:59:26.001Z</time></trkpt><trkpt lat="40.77447281283084" lon="8.614953750896055"><ele>396.0</ele><time>2026-04-11T07:59:27.001Z</time></trkpt><trkpt lat="40.774386916637766" lon="8.614922582667733"><ele>396.0</ele><time>2026-04-11T07:59:28.001Z</time></trkpt><trkpt lat="40.774302553881334" lon="8.614884911870089"><ele>396.0</ele><time>2026-04-11T07:59:29.001Z</time></trkpt><trkpt lat="40.774222493219845" lon="8.614870254274306"><ele>396.0</ele><time>2026-04-11T07:59:30.001Z</time></trkpt><trkpt lat="40.77414808945388" lon="8.614892697376508"><ele>396.0</ele><time>2026-04-11T07:59:31.001Z</time></trkpt><trkpt lat="40.774068198734696" lon="8.614917819412778"><ele>396.0</ele><time>2026-04-11T07:59:32.001Z</time></trkpt><trkpt lat="40.773993399355234" lon="8.614975093559622"><ele>395.3333333333333</ele><time>2026-04-11T07:59:33.001Z</time></trkpt><trkpt lat="40.77391789643192" lon="8.615043030961061"><ele>394.66666666666663</ele><time>2026-04-11T07:59:34.001Z</time></trkpt><trkpt lat="40.773849379274736" lon="8.615122302786185"><ele>394.0</ele><time>2026-04-11T07:59:35.001Z</time></trkpt><trkpt lat="40.773796270657904" lon="8.615221798320803"><ele>393.3333333333333</ele><time>2026-04-11T07:59:36.001Z</time></trkpt><trkpt lat="40.77373668099745" lon="8.61530879241355"><ele>392.66666666666663</ele><time>2026-04-11T07:59:37.001Z</time></trkpt><trkpt lat="40.77368075646642" lon="8.615390811732206"><ele>392.0</ele><time>2026-04-11T07:59:38.001Z</time></trkpt><trkpt lat="40.77362918047104" lon="8.615473130045048"><ele>391.99999999999994</ele><time>2026-04-11T07:59:39.001Z</time></trkpt><trkpt lat="40.77356975571714" lon="8.615534225969672"><ele>392.0</ele><time>2026-04-11T07:59:40.001Z</time></trkpt><trkpt lat="40.773513542739025" lon="8.615599028760725"><ele>392.0</ele><time>2026-04-11T07:59:41.001Z</time></trkpt><trkpt lat="40.77347373036171" lon="8.615685513655475"><ele>392.0</ele><time>2026-04-11T07:59:42.001Z</time></trkpt><trkpt lat="40.773443651466636" lon="8.615786708143132"><ele>391.99999999999994</ele><time>2026-04-11T07:59:43.001Z</time></trkpt><trkpt lat="40.77341449206908" lon="8.615893680303301"><ele>392.0</ele><time>2026-04-11T07:59:44.001Z</time></trkpt><trkpt lat="40.77340196162259" lon="8.616002688681169"><ele>392.8333333333333</ele><time>2026-04-11T07:59:45.001Z</time></trkpt><trkpt lat="40.77339910487865" lon="8.616121783229236"><ele>393.66666666666663</ele><time>2026-04-11T07:59:46.001Z</time></trkpt><trkpt lat="40.77340408087141" lon="8.61624218347738"><ele>394.5</ele><time>2026-04-11T07:59:47.001Z</time></trkpt><trkpt lat="40.77340483123328" lon="8.616344621152075"><ele>395.33333333333337</ele><time>2026-04-11T07:59:48.001Z</time></trkpt><trkpt lat="40.77339351223545" lon="8.616446797312591"><ele>396.1666666666667</ele><time>2026-04-11T07:59:49.001Z</time></trkpt><trkpt lat="40.773351641326485" lon="8.616555239378355"><ele>397.0</ele><time>2026-04-11T07:59:50.001Z</time></trkpt><trkpt lat="40.77330121847416" lon="8.616664170146132"><ele>397.0</ele><time>2026-04-11T07:59:51.001Z</time></trkpt><trkpt lat="40.77325448801127" lon="8.616776944510036"><ele>397.0</ele><time>2026-04-11T07:59:52.001Z</time></trkpt><trkpt lat="40.77320613276564" lon="8.61688220865148"><ele>397.0</ele><time>2026-04-11T07:59:53.001Z</time></trkpt><trkpt lat="40.77316141242272" lon="8.616992983253905"><ele>397.0</ele><time>2026-04-11T07:59:54.001Z</time></trkpt><trkpt lat="40.77312287213079" lon="8.617103335759023"><ele>397.0</ele><time>2026-04-11T07:59:55.001Z</time></trkpt><trkpt lat="40.7730899653874" lon="8.617218837376958"><ele>396.50000000000006</ele><time>2026-04-11T07:59:56.001Z</time></trkpt><trkpt lat="40.77307293136667" lon="8.617327060150036"><ele>396.0</ele><time>2026-04-11T07:59:57.001Z</time></trkpt><trkpt lat="40.77308990664984" lon="8.617434529650192"><ele>395.5</ele><time>2026-04-11T07:59:58.001Z</time></trkpt><trkpt lat="40.77311793319806" lon="8.61754420199327"><ele>395.0</ele><time>2026-04-11T07:59:59.001Z</time></trkpt><trkpt lat="40.7731407096066" lon="8.617664933349458"><ele>394.50000000000006</ele><time>2026-04-11T08:00:00.001Z</time></trkpt><trkpt lat="40.773193282906675" lon="8.617764954133552"><ele>394.0</ele><time>2026-04-11T08:00:01.001Z</time></trkpt><trkpt lat="40.77325116805191" lon="8.617858062766468"><ele>396.0</ele><time>2026-04-11T08:00:02.001Z</time></trkpt><trkpt lat="40.773325852454896" lon="8.617938904194293"><ele>398.0</ele><time>2026-04-11T08:00:03.001Z</time></trkpt><trkpt lat="40.77341218539521" lon="8.61799347105463"><ele>400.0</ele><time>2026-04-11T08:00:04.001Z</time></trkpt><trkpt lat="40.773489123048584" lon="8.618044401989488"><ele>402.0</ele><time>2026-04-11T08:00:05.001Z</time></trkpt><trkpt lat="40.7735642178652" lon="8.618121448266502"><ele>404.0</ele><time>2026-04-11T08:00:06.001Z</time></trkpt><trkpt lat="40.77364023940341" lon="8.618228744508935"><ele>401.0</ele><time>2026-04-11T08:00:07.001Z</time></trkpt><trkpt lat="40.77371841386971" lon="8.618337629438425"><ele>398.0</ele><time>2026-04-11T08:00:08.001Z</time></trkpt><trkpt lat="40.77378756497249" lon="8.618436558771176"><ele>395.0</ele><time>2026-04-11T08:00:09.001Z</time></trkpt><trkpt lat="40.773855788696544" lon="8.618516452280225"><ele>392.0</ele><time>2026-04-11T08:00:10.001Z</time></trkpt><trkpt lat="40.77391853137708" lon="8.618598579384289"><ele>389.0</ele><time>2026-04-11T08:00:11.001Z</time></trkpt><trkpt lat="40.77396461317148" lon="8.618704155804064"><ele>389.0</ele><time>2026-04-11T08:00:12.001Z</time></trkpt><trkpt lat="40.77398894218732" lon="8.618835693620099"><ele>389.0</ele><time>2026-04-11T08:00:13.001Z</time></trkpt><trkpt lat="40.774002852973595" lon="8.618977063434908"><ele>389.0</ele><time>2026-04-11T08:00:14.001Z</time></trkpt><trkpt lat="40.7740130818934" lon="8.619114307448996"><ele>389.0</ele><time>2026-04-11T08:00:15.001Z</time></trkpt><trkpt lat="40.77402835758648" lon="8.619236931668281"><ele>389.0</ele><time>2026-04-11T08:00:16.001Z</time></trkpt><trkpt lat="40.774038960513515" lon="8.619349839993228"><ele>388.99999999999994</ele><time>2026-04-11T08:00:17.001Z</time></trkpt><trkpt lat="40.7740471375383" lon="8.619454212021676"><ele>389.0</ele><time>2026-04-11T08:00:18.001Z</time></trkpt><trkpt lat="40.77404079949319" lon="8.6195518031702"><ele>389.0</ele><time>2026-04-11T08:00:19.001Z</time></trkpt><trkpt lat="40.773994157658024" lon="8.619614133332872"><ele>389.0</ele><time>2026-04-11T08:00:20.001Z</time></trkpt><trkpt lat="40.77394135380615" lon="8.619678308362184"><ele>388.99999999999994</ele><time>2026-04-11T08:00:21.001Z</time></trkpt><trkpt lat="40.77385098877093" lon="8.619744318975005"><ele>389.0</ele><time>2026-04-11T08:00:22.001Z</time></trkpt><trkpt lat="40.77375074470739" lon="8.619815365848046"><ele>389.75</ele><time>2026-04-11T08:00:23.001Z</time></trkpt><trkpt lat="40.77364439214194" lon="8.619886547912094"><ele>390.5</ele><time>2026-04-11T08:00:24.001Z</time></trkpt><trkpt lat="40.7735373577752" lon="8.61995423055716"><ele>391.25</ele><time>2026-04-11T08:00:25.001Z</time></trkpt><trkpt lat="40.77343314879465" lon="8.620018037781637"><ele>392.0</ele><time>2026-04-11T08:00:26.001Z</time></trkpt><trkpt lat="40.773327624010115" lon="8.62007891075685"><ele>392.0</ele><time>2026-04-11T08:00:27.001Z</time></trkpt><trkpt lat="40.773225300428024" lon="8.620134321329852"><ele>392.0</ele><time>2026-04-11T08:00:28.001Z</time></trkpt><trkpt lat="40.773119275600045" lon="8.620188518497816"><ele>392.0</ele><time>2026-04-11T08:00:29.001Z</time></trkpt><trkpt lat="40.77300931818752" lon="8.620239886641253"><ele>392.0</ele><time>2026-04-11T08:00:30.001Z</time></trkpt><trkpt lat="40.772897739433624" lon="8.620284088991271"><ele>392.25</ele><time>2026-04-11T08:00:31.001Z</time></trkpt><trkpt lat="40.772779571022966" lon="8.620317401845282"><ele>392.5</ele><time>2026-04-11T08:00:32.001Z</time></trkpt><trkpt lat="40.77267183036076" lon="8.620375820258811"><ele>392.75</ele><time>2026-04-11T08:00:33.002Z</time></trkpt><trkpt lat="40.772559071899835" lon="8.620407315241607"><ele>393.0</ele><time>2026-04-11T08:00:34.002Z</time></trkpt><trkpt lat="40.77245976482519" lon="8.620471191804103"><ele>393.0</ele><time>2026-04-11T08:00:35.002Z</time></trkpt><trkpt lat="40.77236292998569" lon="8.62053929824942"><ele>393.0</ele><time>2026-04-11T08:00:36.002Z</time></trkpt><trkpt lat="40.77227382696367" lon="8.620618379410237"><ele>393.0</ele><time>2026-04-11T08:00:37.002Z</time></trkpt><trkpt lat="40.77218969655126" lon="8.620697357387318"><ele>393.0</ele><time>2026-04-11T08:00:38.002Z</time></trkpt><trkpt lat="40.772113943137015" lon="8.620766002405048"><ele>393.0</ele><time>2026-04-11T08:00:39.002Z</time></trkpt><trkpt lat="40.77205036334754" lon="8.620832025453414"><ele>393.0</ele><time>2026-04-11T08:00:40.002Z</time></trkpt><trkpt lat="40.77198556929121" lon="8.620894767824524"><ele>393.0</ele><time>2026-04-11T08:00:41.002Z</time></trkpt><trkpt lat="40.77192566722158" lon="8.620971788376345"><ele>393.0</ele><time>2026-04-11T08:00:42.002Z</time></trkpt><trkpt lat="40.771867548952464" lon="8.621055964526445"><ele>393.0</ele><time>2026-04-11T08:00:43.002Z</time></trkpt><trkpt lat="40.77181158992019" lon="8.621152689376428"><ele>393.0</ele><time>2026-04-11T08:00:44.002Z</time></trkpt><trkpt lat="40.77177815848365" lon="8.62128125806424"><ele>393.0</ele><time>2026-04-11T08:00:45.002Z</time></trkpt><trkpt lat="40.77175474665083" lon="8.621433052401635"><ele>391.75</ele><time>2026-04-11T08:00:46.002Z</time></trkpt><trkpt lat="40.77174607629872" lon="8.621596352348158"><ele>390.5</ele><time>2026-04-11T08:00:47.002Z</time></trkpt><trkpt lat="40.7717338512578" lon="8.621761701794611"><ele>389.25</ele><time>2026-04-11T08:00:48.002Z</time></trkpt><trkpt lat="40.77171697306359" lon="8.621924500125095"><ele>388.0</ele><time>2026-04-11T08:00:49.002Z</time></trkpt><trkpt lat="40.771694907788834" lon="8.622081372098494"><ele>387.5</ele><time>2026-04-11T08:00:50.002Z</time></trkpt><trkpt lat="40.77166966409504" lon="8.622237554146256"><ele>387.0</ele><time>2026-04-11T08:00:51.002Z</time></trkpt><trkpt lat="40.77165361373114" lon="8.622390460753"><ele>386.5</ele><time>2026-04-11T08:00:52.002Z</time></trkpt><trkpt lat="40.77163364529896" lon="8.622531358112909"><ele>386.0</ele><time>2026-04-11T08:00:53.002Z</time></trkpt><trkpt lat="40.77162811380805" lon="8.622670712802325"><ele>386.0</ele><time>2026-04-11T08:00:54.002Z</time></trkpt><trkpt lat="40.77161559379742" lon="8.62280130375912"><ele>386.0</ele><time>2026-04-11T08:00:55.002Z</time></trkpt><trkpt lat="40.771606770508676" lon="8.62292900574546"><ele>386.0</ele><time>2026-04-11T08:00:56.002Z</time></trkpt><trkpt lat="40.771595697225415" lon="8.623047646679558"><ele>386.0</ele><time>2026-04-11T08:00:57.002Z</time></trkpt><trkpt lat="40.7715340812477" lon="8.623124920363487"><ele>386.0</ele><time>2026-04-11T08:00:58.002Z</time></trkpt><trkpt lat="40.77147196283437" lon="8.623217463940744"><ele>387.6</ele><time>2026-04-11T08:00:59.002Z</time></trkpt><trkpt lat="40.771423956859195" lon="8.6233281297699"><ele>389.20000000000005</ele><time>2026-04-11T08:01:00.002Z</time></trkpt><trkpt lat="40.77136775774043" lon="8.623434347960135"><ele>390.79999999999995</ele><time>2026-04-11T08:01:01.002Z</time></trkpt><trkpt lat="40.77135719230055" lon="8.623556337849148"><ele>392.4</ele><time>2026-04-11T08:01:02.002Z</time></trkpt><trkpt lat="40.77135001703784" lon="8.623679756529372"><ele>394.0</ele><time>2026-04-11T08:01:03.002Z</time></trkpt><trkpt lat="40.77134358397565" lon="8.6238090279713"><ele>395.5</ele><time>2026-04-11T08:01:04.002Z</time></trkpt><trkpt lat="40.771350931784845" lon="8.623948861646365"><ele>397.0</ele><time>2026-04-11T08:01:05.002Z</time></trkpt><trkpt lat="40.77135641155663" lon="8.624094351912621"><ele>398.5</ele><time>2026-04-11T08:01:06.002Z</time></trkpt><trkpt lat="40.77136275562432" lon="8.62424644841315"><ele>400.0</ele><time>2026-04-11T08:01:07.002Z</time></trkpt><trkpt lat="40.77134105073925" lon="8.624402988012207"><ele>401.5</ele><time>2026-04-11T08:01:08.002Z</time></trkpt><trkpt lat="40.77133609111468" lon="8.624560733119813"><ele>403.0</ele><time>2026-04-11T08:01:09.002Z</time></trkpt><trkpt lat="40.771334116463194" lon="8.624715816404974"><ele>404.5</ele><time>2026-04-11T08:01:10.002Z</time></trkpt><trkpt lat="40.77135449324125" lon="8.624873755304222"><ele>406.0</ele><time>2026-04-11T08:01:11.002Z</time></trkpt><trkpt lat="40.77140388464246" lon="8.625007954183154"><ele>406.0</ele><time>2026-04-11T08:01:12.002Z</time></trkpt><trkpt lat="40.77141094739103" lon="8.625150255037628"><ele>406.0</ele><time>2026-04-11T08:01:13.002Z</time></trkpt><trkpt lat="40.771445700419335" lon="8.6252772018277"><ele>406.0</ele><time>2026-04-11T08:01:14.002Z</time></trkpt><trkpt lat="40.7714950252037" lon="8.625393133529345"><ele>406.0</ele><time>2026-04-11T08:01:15.002Z</time></trkpt><trkpt lat="40.77155820809455" lon="8.625488043510403"><ele>406.0</ele><time>2026-04-11T08:01:16.002Z</time></trkpt><trkpt lat="40.77159827434396" lon="8.625604152514594"><ele>406.4</ele><time>2026-04-11T08:01:17.002Z</time></trkpt><trkpt lat="40.77163040177354" lon="8.625731889048726"><ele>406.8</ele><time>2026-04-11T08:01:18.002Z</time></trkpt><trkpt lat="40.771657644763714" lon="8.625868130381756"><ele>407.2</ele><time>2026-04-11T08:01:19.007Z</time></trkpt><trkpt lat="40.77167325701375" lon="8.626019773673072"><ele>407.59999999999997</ele><time>2026-04-11T08:01:20.007Z</time></trkpt><trkpt lat="40.7716895586727" lon="8.626182747250898"><ele>408.0</ele><time>2026-04-11T08:01:21.007Z</time></trkpt><trkpt lat="40.771719259245536" lon="8.626352059943523"><ele>408.75</ele><time>2026-04-11T08:01:22.007Z</time></trkpt><trkpt lat="40.77177940853186" lon="8.626508444412464"><ele>409.5</ele><time>2026-04-11T08:01:23.006Z</time></trkpt><trkpt lat="40.77184753229373" lon="8.626650552592368"><ele>410.25</ele><time>2026-04-11T08:01:24.006Z</time></trkpt><trkpt lat="40.77189782423405" lon="8.626787598121146"><ele>411.0</ele><time>2026-04-11T08:01:25.006Z</time></trkpt><trkpt lat="40.77193521243211" lon="8.626935547298656"><ele>410.6</ele><time>2026-04-11T08:01:26.005Z</time></trkpt><trkpt lat="40.77197182406193" lon="8.627085464839535"><ele>410.20000000000005</ele><time>2026-04-11T08:01:27.005Z</time></trkpt><trkpt lat="40.772008025727125" lon="8.627228239716143"><ele>409.79999999999995</ele><time>2026-04-11T08:01:28.005Z</time></trkpt><trkpt lat="40.77204264808275" lon="8.627359905692582"><ele>409.4</ele><time>2026-04-11T08:01:29.004Z</time></trkpt><trkpt lat="40.77207654679782" lon="8.627479789299231"><ele>409.0</ele><time>2026-04-11T08:01:30.004Z</time></trkpt><trkpt lat="40.772135643737265" lon="8.627572694793058"><ele>409.0</ele><time>2026-04-11T08:01:31.004Z</time></trkpt><trkpt lat="40.77220526442388" lon="8.627646260357034"><ele>409.0</ele><time>2026-04-11T08:01:32.003Z</time></trkpt><trkpt lat="40.7722753591071" lon="8.627727802219201"><ele>409.0</ele><time>2026-04-11T08:01:33.003Z</time></trkpt><trkpt lat="40.772306340630564" lon="8.627820917954342"><ele>409.0</ele><time>2026-04-11T08:01:34.003Z</time></trkpt><trkpt lat="40.77230640343188" lon="8.627989012470104"><ele>409.0</ele><time>2026-04-11T08:01:36.003Z</time></trkpt><trkpt lat="40.772275455818736" lon="8.628088744908661"><ele>409.0</ele><time>2026-04-11T08:01:37.002Z</time></trkpt><trkpt lat="40.77223992022911" lon="8.628188609678636"><ele>409.0</ele><time>2026-04-11T08:01:38.002Z</time></trkpt><trkpt lat="40.77219621701407" lon="8.628305093803927"><ele>409.0</ele><time>2026-04-11T08:01:39.002Z</time></trkpt><trkpt lat="40.77221177920968" lon="8.628422516876016"><ele>409.0</ele><time>2026-04-11T08:01:40.002Z</time></trkpt><trkpt lat="40.77225752991991" lon="8.628532608085226"><ele>409.0</ele><time>2026-04-11T08:01:41.002Z</time></trkpt><trkpt lat="40.772301060405105" lon="8.628659701953563"><ele>408.5</ele><time>2026-04-11T08:01:42.002Z</time></trkpt><trkpt lat="40.77234070435862" lon="8.62880834151178"><ele>408.0</ele><time>2026-04-11T08:01:43.001Z</time></trkpt><trkpt lat="40.77234548745775" lon="8.628975015012752"><ele>407.5</ele><time>2026-04-11T08:01:44.001Z</time></trkpt><trkpt lat="40.77235400168736" lon="8.629151323191593"><ele>407.0</ele><time>2026-04-11T08:01:45.001Z</time></trkpt><trkpt lat="40.77236269680541" lon="8.629331377027867"><ele>407.25</ele><time>2026-04-11T08:01:46.001Z</time></trkpt><trkpt lat="40.77236845681783" lon="8.62950369563197"><ele>407.5</ele><time>2026-04-11T08:01:47.001Z</time></trkpt><trkpt lat="40.77237353166664" lon="8.629662250103161"><ele>407.75</ele><time>2026-04-11T08:01:48.001Z</time></trkpt><trkpt lat="40.77237959901384" lon="8.629810906667295"><ele>408.0</ele><time>2026-04-11T08:01:49.001Z</time></trkpt><trkpt lat="40.77238551291277" lon="8.62994406896931"><ele>408.0</ele><time>2026-04-11T08:01:50.001Z</time></trkpt><trkpt lat="40.77238703975485" lon="8.63004905101271"><ele>408.0</ele><time>2026-04-11T08:01:51.001Z</time></trkpt><trkpt lat="40.77238159719827" lon="8.630154515231391"><ele>408.0</ele><time>2026-04-11T08:01:53Z</time></trkpt><trkpt lat="40.772313451266" lon="8.630201976165177"><ele>408.0</ele><time>2026-04-11T08:01:56Z</time></trkpt><trkpt lat="40.77224502615645" lon="8.630199739032635"><ele>408.0</ele><time>2026-04-11T08:01:57Z</time></trkpt><trkpt lat="40.77216008542492" lon="8.630197367422713"><ele>408.0</ele><time>2026-04-11T08:01:58Z</time></trkpt><trkpt lat="40.77206681009517" lon="8.630182820833403"><ele>408.0</ele><time>2026-04-11T08:01:59Z</time></trkpt><trkpt lat="40.77197548813075" lon="8.630173097372609"><ele>408.0</ele><time>2026-04-11T08:02:00Z</time></trkpt><trkpt lat="40.771884707113365" lon="8.630171011015483"><ele>408.0</ele><time>2026-04-11T08:02:01Z</time></trkpt><trkpt lat="40.77178777521452" lon="8.630167078115402"><ele>408.0</ele><time>2026-04-11T08:02:02Z</time></trkpt><trkpt lat="40.77168767545435" lon="8.630159082331325"><ele>408.0</ele><time>2026-04-11T08:02:03Z</time></trkpt><trkpt lat="40.77159051741785" lon="8.630153167986569"><ele>408.0</ele><time>2026-04-11T08:02:04Z</time></trkpt><trkpt lat="40.77149449380922" lon="8.630125785129291"><ele>408.0</ele><time>2026-04-11T08:02:05Z</time></trkpt><trkpt lat="40.77140011375757" lon="8.630137055813467"><ele>408.0</ele><time>2026-04-11T08:02:06Z</time></trkpt><trkpt lat="40.77131429629918" lon="8.630121638265512"><ele>408.0</ele><time>2026-04-11T08:02:07Z</time></trkpt><trkpt lat="40.771232795188695" lon="8.63010867043087"><ele>408.0</ele><time>2026-04-11T08:02:08Z</time></trkpt><trkpt lat="40.771153002026104" lon="8.630100041910465"><ele>408.0</ele><time>2026-04-11T08:02:09Z</time></trkpt><trkpt lat="40.77107570503345" lon="8.630108613663891"><ele>407.4</ele><time>2026-04-11T08:02:10Z</time></trkpt><trkpt lat="40.771003016179414" lon="8.630150105761764"><ele>406.79999999999995</ele><time>2026-04-11T08:02:11Z</time></trkpt><trkpt lat="40.77092238452281" lon="8.63020692014438"><ele>406.2</ele><time>2026-04-11T08:02:12Z</time></trkpt><trkpt lat="40.7708473635999" lon="8.630291177217476"><ele>405.6</ele><time>2026-04-11T08:02:13Z</time></trkpt><trkpt lat="40.77076396110901" lon="8.630374770220662"><ele>405.0</ele><time>2026-04-11T08:02:14Z</time></trkpt><trkpt lat="40.77069039059871" lon="8.630478167595582"><ele>407.5</ele><time>2026-04-11T08:02:15Z</time></trkpt><trkpt lat="40.77062778538313" lon="8.63059764668438"><ele>410.0</ele><time>2026-04-11T08:02:16Z</time></trkpt><trkpt lat="40.77053610389649" lon="8.630687502949884"><ele>412.5</ele><time>2026-04-11T08:02:16.999Z</time></trkpt><trkpt lat="40.77046150411792" lon="8.630799862368683"><ele>415.0</ele><time>2026-04-11T08:02:17.999Z</time></trkpt><trkpt lat="40.770370780361596" lon="8.630895340396243"><ele>415.0</ele><time>2026-04-11T08:02:18.999Z</time></trkpt><trkpt lat="40.77027942640906" lon="8.630985026245563"><ele>415.0</ele><time>2026-04-11T08:02:19.999Z</time></trkpt><trkpt lat="40.77019674897099" lon="8.631089270373877"><ele>415.0</ele><time>2026-04-11T08:02:20.999Z</time></trkpt><trkpt lat="40.77011952651865" lon="8.631204281544282"><ele>415.0</ele><time>2026-04-11T08:02:21.999Z</time></trkpt><trkpt lat="40.770044731362596" lon="8.631321887260649"><ele>416.0</ele><time>2026-04-11T08:02:22.999Z</time></trkpt><trkpt lat="40.769960033723144" lon="8.631444723949603"><ele>417.0</ele><time>2026-04-11T08:02:23.999Z</time></trkpt><trkpt lat="40.76986845797806" lon="8.631572825393881"><ele>418.0</ele><time>2026-04-11T08:02:24.999Z</time></trkpt><trkpt lat="40.76977053449534" lon="8.63169175758191"><ele>419.0</ele><time>2026-04-11T08:02:25.999Z</time></trkpt><trkpt lat="40.769673197178214" lon="8.631806987149485"><ele>419.0</ele><time>2026-04-11T08:02:26.999Z</time></trkpt><trkpt lat="40.76957790961277" lon="8.631919790190386"><ele>419.0</ele><time>2026-04-11T08:02:27.999Z</time></trkpt><trkpt lat="40.76948844298607" lon="8.632028741145534"><ele>419.0</ele><time>2026-04-11T08:02:28.999Z</time></trkpt><trkpt lat="40.76941924353618" lon="8.632141721283402"><ele>419.0</ele><time>2026-04-11T08:02:29.999Z</time></trkpt><trkpt lat="40.76933902218381" lon="8.632215064146537"><ele>419.16666666666663</ele><time>2026-04-11T08:02:30.999Z</time></trkpt><trkpt lat="40.76928091711891" lon="8.632288925722587"><ele>419.3333333333333</ele><time>2026-04-11T08:02:31.999Z</time></trkpt><trkpt lat="40.76923388277094" lon="8.632365124626574"><ele>419.5</ele><time>2026-04-11T08:02:32.999Z</time></trkpt><trkpt lat="40.769208376097524" lon="8.632461437339044"><ele>419.66666666666663</ele><time>2026-04-11T08:02:33.999Z</time></trkpt><trkpt lat="40.769228762449806" lon="8.632550788651061"><ele>419.8333333333333</ele><time>2026-04-11T08:02:34.999Z</time></trkpt><trkpt lat="40.76925800565126" lon="8.632636496658971"><ele>420.0</ele><time>2026-04-11T08:02:35.999Z</time></trkpt><trkpt lat="40.7693179307135" lon="8.632709965043118"><ele>419.8333333333333</ele><time>2026-04-11T08:02:36.999Z</time></trkpt><trkpt lat="40.7693952605713" lon="8.632777745184953"><ele>419.66666666666663</ele><time>2026-04-11T08:02:37.999Z</time></trkpt><trkpt lat="40.7694465630164" lon="8.632872412455207"><ele>419.5</ele><time>2026-04-11T08:02:38.999Z</time></trkpt><trkpt lat="40.76949905581192" lon="8.632955657627765"><ele>419.3333333333333</ele><time>2026-04-11T08:02:39.999Z</time></trkpt><trkpt lat="40.76954442620545" lon="8.63304253545524"><ele>419.16666666666663</ele><time>2026-04-11T08:02:40.999Z</time></trkpt><trkpt lat="40.769588454936674" lon="8.633130967319989"><ele>419.0</ele><time>2026-04-11T08:02:41.999Z</time></trkpt><trkpt lat="40.76963043952709" lon="8.633221538398816"><ele>417.66666666666663</ele><time>2026-04-11T08:02:42.999Z</time></trkpt><trkpt lat="40.769675138219874" lon="8.633299963136222"><ele>416.3333333333333</ele><time>2026-04-11T08:02:43.999Z</time></trkpt><trkpt lat="40.76971314404734" lon="8.633368023733189"><ele>415.0</ele><time>2026-04-11T08:02:44.999Z</time></trkpt><trkpt lat="40.769776298596625" lon="8.633497288088392"><ele>413.66666666666663</ele><time>2026-04-11T08:02:46.999Z</time></trkpt><trkpt lat="40.76975766561529" lon="8.633587808387409"><ele>412.3333333333333</ele><time>2026-04-11T08:02:47.999Z</time></trkpt><trkpt lat="40.769711107904875" lon="8.633657893798333"><ele>411.0</ele><time>2026-04-11T08:02:48.999Z</time></trkpt><trkpt lat="40.76964008492476" lon="8.63370084577768"><ele>410.0</ele><time>2026-04-11T08:02:49.999Z</time></trkpt><trkpt lat="40.76956120809306" lon="8.633731529235494"><ele>409.0</ele><time>2026-04-11T08:02:50.999Z</time></trkpt><trkpt lat="40.769479427973536" lon="8.633756317285114"><ele>408.0</ele><time>2026-04-11T08:02:51.999Z</time></trkpt><trkpt lat="40.76939346477357" lon="8.633799038766531"><ele>407.0</ele><time>2026-04-11T08:02:52.999Z</time></trkpt><trkpt lat="40.76931483297638" lon="8.633876406005795"><ele>406.0</ele><time>2026-04-11T08:02:53.999Z</time></trkpt><trkpt lat="40.769238508463594" lon="8.633972685489935"><ele>406.0</ele><time>2026-04-11T08:02:54.999Z</time></trkpt><trkpt lat="40.76916307227063" lon="8.634076103511097"><ele>406.0</ele><time>2026-04-11T08:02:55.999Z</time></trkpt><trkpt lat="40.769092183028675" lon="8.634179793865682"><ele>406.0</ele><time>2026-04-11T08:02:56.999Z</time></trkpt><trkpt lat="40.7690241664589" lon="8.634282562742424"><ele>406.0</ele><time>2026-04-11T08:02:57.999Z</time></trkpt><trkpt lat="40.768935279090755" lon="8.63435920031439"><ele>406.0</ele><time>2026-04-11T08:02:58.999Z</time></trkpt><trkpt lat="40.768880243188654" lon="8.634479598955217"><ele>405.33333333333337</ele><time>2026-04-11T08:02:59.999Z</time></trkpt><trkpt lat="40.768820339056866" lon="8.63458410609479"><ele>404.6666666666667</ele><time>2026-04-11T08:03:00.999Z</time></trkpt><trkpt lat="40.76877427473254" lon="8.634686980234498"><ele>404.0</ele><time>2026-04-11T08:03:01.999Z</time></trkpt><trkpt lat="40.76872975075696" lon="8.634786982543625"><ele>403.33333333333337</ele><time>2026-04-11T08:03:02.999Z</time></trkpt><trkpt lat="40.76869095524084" lon="8.634881995147078"><ele>402.6666666666667</ele><time>2026-04-11T08:03:03.999Z</time></trkpt><trkpt lat="40.768660549291155" lon="8.634977360855459"><ele>402.0</ele><time>2026-04-11T08:03:04.999Z</time></trkpt><trkpt lat="40.768665696322984" lon="8.635079039886772"><ele>402.0</ele><time>2026-04-11T08:03:05.999Z</time></trkpt><trkpt lat="40.768698963885065" lon="8.635170675407608"><ele>402.0</ele><time>2026-04-11T08:03:06.999Z</time></trkpt><trkpt lat="40.76874311495481" lon="8.63526449266131"><ele>402.0</ele><time>2026-04-11T08:03:07.999Z</time></trkpt><trkpt lat="40.76880078730522" lon="8.63536652014086"><ele>402.0</ele><time>2026-04-11T08:03:08.999Z</time></trkpt><trkpt lat="40.768855634021925" lon="8.635469316978305"><ele>402.0</ele><time>2026-04-11T08:03:09.999Z</time></trkpt><trkpt lat="40.76890809929278" lon="8.635559509057886"><ele>402.0</ele><time>2026-04-11T08:03:10.999Z</time></trkpt><trkpt lat="40.76897388173355" lon="8.635629022642906"><ele>402.0</ele><time>2026-04-11T08:03:11.999Z</time></trkpt><trkpt lat="40.76901596266377" lon="8.635721325388054"><ele>402.0</ele><time>2026-04-11T08:03:12.999Z</time></trkpt><trkpt lat="40.7690055436538" lon="8.635824880211182"><ele>402.0</ele><time>2026-04-11T08:03:13.999Z</time></trkpt><trkpt lat="40.76896235150861" lon="8.635890419916802"><ele>402.0</ele><time>2026-04-11T08:03:14.999Z</time></trkpt><trkpt lat="40.7689259885919" lon="8.635966861948297"><ele>402.0</ele><time>2026-04-11T08:03:15.999Z</time></trkpt><trkpt lat="40.7688668660984" lon="8.636019608337854"><ele>402.0</ele><time>2026-04-11T08:03:16.999Z</time></trkpt><trkpt lat="40.768804451171604" lon="8.636081896500276"><ele>402.0</ele><time>2026-04-11T08:03:17.999Z</time></trkpt><trkpt lat="40.768744155854634" lon="8.636172357271477"><ele>402.0</ele><time>2026-04-11T08:03:18.999Z</time></trkpt><trkpt lat="40.76866626616495" lon="8.636249087659008"><ele>402.0</ele><time>2026-04-11T08:03:19.999Z</time></trkpt><trkpt lat="40.76858448500165" lon="8.636333080387253"><ele>402.0</ele><time>2026-04-11T08:03:20.999Z</time></trkpt><trkpt lat="40.7684975899927" lon="8.636408982660479"><ele>402.0</ele><time>2026-04-11T08:03:21.999Z</time></trkpt><trkpt lat="40.76841200315978" lon="8.636497373634953"><ele>402.0</ele><time>2026-04-11T08:03:22.999Z</time></trkpt><trkpt lat="40.76832027360502" lon="8.636580880366015"><ele>405.0</ele><time>2026-04-11T08:03:23.999Z</time></trkpt><trkpt lat="40.76823366279559" lon="8.636677303879052"><ele>408.0</ele><time>2026-04-11T08:03:24.999Z</time></trkpt><trkpt lat="40.76814476797892" lon="8.636777140736594"><ele>411.0</ele><time>2026-04-11T08:03:25.999Z</time></trkpt><trkpt lat="40.76805807092537" lon="8.636879701129628"><ele>414.0</ele><time>2026-04-11T08:03:26.999Z</time></trkpt><trkpt lat="40.76798174278084" lon="8.636994578510974"><ele>414.4</ele><time>2026-04-11T08:03:27.999Z</time></trkpt><trkpt lat="40.76792451147229" lon="8.637123976420781"><ele>414.79999999999995</ele><time>2026-04-11T08:03:28.999Z</time></trkpt><trkpt lat="40.76787295655305" lon="8.637243834361565"><ele>415.20000000000005</ele><time>2026-04-11T08:03:29.999Z</time></trkpt><trkpt lat="40.767831074200735" lon="8.637370870969745"><ele>415.6</ele><time>2026-04-11T08:03:30.999Z</time></trkpt><trkpt lat="40.76779321775546" lon="8.637505555508916"><ele>416.0</ele><time>2026-04-11T08:03:31.999Z</time></trkpt><trkpt lat="40.767757483211675" lon="8.637644005935375"><ele>417.75</ele><time>2026-04-11T08:03:32.999Z</time></trkpt><trkpt lat="40.767730276981915" lon="8.637805603457048"><ele>419.5</ele><time>2026-04-11T08:03:33.999Z</time></trkpt><trkpt lat="40.767719536861335" lon="8.637985462506277"><ele>421.25</ele><time>2026-04-11T08:03:34.999Z</time></trkpt><trkpt lat="40.76772043917916" lon="8.63816513850902"><ele>423.0</ele><time>2026-04-11T08:03:35.999Z</time></trkpt><trkpt lat="40.76771028785502" lon="8.638326570255282"><ele>423.0</ele><time>2026-04-11T08:03:36.999Z</time></trkpt><trkpt lat="40.767708649252555" lon="8.638473877021346"><ele>423.0</ele><time>2026-04-11T08:03:37.999Z</time></trkpt><trkpt lat="40.7676866394978" lon="8.63861436433149"><ele>423.0</ele><time>2026-04-11T08:03:38.999Z</time></trkpt><trkpt lat="40.76767474780345" lon="8.638757445126384"><ele>423.0</ele><time>2026-04-11T08:03:39.998Z</time></trkpt><trkpt lat="40.76765222809623" lon="8.638911818134435"><ele>423.0</ele><time>2026-04-11T08:03:40.998Z</time></trkpt><trkpt lat="40.767624173010276" lon="8.639067970266812"><ele>423.5</ele><time>2026-04-11T08:03:41.998Z</time></trkpt><trkpt lat="40.76758793865662" lon="8.63922411691315"><ele>424.0</ele><time>2026-04-11T08:03:42.998Z</time></trkpt><trkpt lat="40.76753949062655" lon="8.639368447918596"><ele>424.5</ele><time>2026-04-11T08:03:43.998Z</time></trkpt><trkpt lat="40.767492128204736" lon="8.63950701292101"><ele>425.0</ele><time>2026-04-11T08:03:44.998Z</time></trkpt><trkpt lat="40.76745372977579" lon="8.639633588576737"><ele>425.0</ele><time>2026-04-11T08:03:45.998Z</time></trkpt><trkpt lat="40.76742260377973" lon="8.639754684590335"><ele>425.0</ele><time>2026-04-11T08:03:46.998Z</time></trkpt><trkpt lat="40.767397775399836" lon="8.6398672493944"><ele>425.0</ele><time>2026-04-11T08:03:47.998Z</time></trkpt><trkpt lat="40.76737974409533" lon="8.639958863226253"><ele>425.0</ele><time>2026-04-11T08:03:48.998Z</time></trkpt><trkpt lat="40.767350648781154" lon="8.640096833693192"><ele>425.0</ele><time>2026-04-11T08:03:50.998Z</time></trkpt><trkpt lat="40.76730644123153" lon="8.640193600539892"><ele>424.99999999999994</ele><time>2026-04-11T08:03:52.998Z</time></trkpt><trkpt lat="40.76722063818674" lon="8.640267395796702"><ele>425.0</ele><time>2026-04-11T08:03:54.998Z</time></trkpt><trkpt lat="40.76716320910612" lon="8.640315039242985"><ele>425.0</ele><time>2026-04-11T08:03:55.998Z</time></trkpt><trkpt lat="40.76710073538076" lon="8.640366867825437"><ele>425.0</ele><time>2026-04-11T08:03:56.999Z</time></trkpt><trkpt lat="40.76703754857164" lon="8.640419688614397"><ele>424.99999999999994</ele><time>2026-04-11T08:03:57.999Z</time></trkpt><trkpt lat="40.76697286852341" lon="8.640474295636844"><ele>425.0</ele><time>2026-04-11T08:03:58.999Z</time></trkpt><trkpt lat="40.76691273108949" lon="8.640525067864104"><ele>423.99999999999994</ele><time>2026-04-11T08:03:59.999Z</time></trkpt><trkpt lat="40.76681897717581" lon="8.640600900943955"><ele>423.0</ele><time>2026-04-11T08:04:01.999Z</time></trkpt><trkpt lat="40.76674949363768" lon="8.640652953612229"><ele>422.0</ele><time>2026-04-11T08:04:03.999Z</time></trkpt><trkpt lat="40.76669730323263" lon="8.64070409715501"><ele>421.0</ele><time>2026-04-11T08:04:05.999Z</time></trkpt><trkpt lat="40.76664835657821" lon="8.640764640661484"><ele>419.99999999999994</ele><time>2026-04-11T08:04:07.999Z</time></trkpt><trkpt lat="40.76665202128401" lon="8.640893952630593"><ele>419.0</ele><time>2026-04-11T08:04:09.999Z</time></trkpt><trkpt lat="40.76665926882976" lon="8.64102249743575"><ele>418.99999999999994</ele><time>2026-04-11T08:04:11.999Z</time></trkpt><trkpt lat="40.766584259269116" lon="8.641113990182806"><ele>419.0</ele><time>2026-04-11T08:04:13.999Z</time></trkpt><trkpt lat="40.76650846076195" lon="8.641129051318828"><ele>419.0</ele><time>2026-04-11T08:04:14.999Z</time></trkpt><trkpt lat="40.76643830244175" lon="8.641131022467079"><ele>419.0</ele><time>2026-04-11T08:04:15.999Z</time></trkpt><trkpt lat="40.76631593505726" lon="8.641108702228564"><ele>418.99999999999994</ele><time>2026-04-11T08:04:17.999Z</time></trkpt><trkpt lat="40.76626490440203" lon="8.641176222955172"><ele>419.0</ele><time>2026-04-11T08:04:18.999Z</time></trkpt><trkpt lat="40.76622972832186" lon="8.64126428367961"><ele>419.0</ele><time>2026-04-11T08:04:19.999Z</time></trkpt><trkpt lat="40.76610926100393" lon="8.641322323859303"><ele>419.0</ele><time>2026-04-11T08:04:21.999Z</time></trkpt><trkpt lat="40.766028348446206" lon="8.641338211450723"><ele>419.0</ele><time>2026-04-11T08:04:22.999Z</time></trkpt><trkpt lat="40.76593515651363" lon="8.641354289790828"><ele>419.0</ele><time>2026-04-11T08:04:23.999Z</time></trkpt><trkpt lat="40.765826619858565" lon="8.641363125758975"><ele>419.0</ele><time>2026-04-11T08:04:24.999Z</time></trkpt><trkpt lat="40.76571905333593" lon="8.641367447468578"><ele>416.0</ele><time>2026-04-11T08:04:25.999Z</time></trkpt><trkpt lat="40.76560038941284" lon="8.6413457939238"><ele>413.0</ele><time>2026-04-11T08:04:26.999Z</time></trkpt><trkpt lat="40.765486809569445" lon="8.641368551472548"><ele>410.0</ele><time>2026-04-11T08:04:27.999Z</time></trkpt><trkpt lat="40.76538364129165" lon="8.641437751314273"><ele>407.0</ele><time>2026-04-11T08:04:28.999Z</time></trkpt><trkpt lat="40.765269062216724" lon="8.641458214372301"><ele>403.25</ele><time>2026-04-11T08:04:29.999Z</time></trkpt><trkpt lat="40.76513450800469" lon="8.641457405150947"><ele>399.5</ele><time>2026-04-11T08:04:30.999Z</time></trkpt><trkpt lat="40.76501406437596" lon="8.641515145540787"><ele>395.75</ele><time>2026-04-11T08:04:31.999Z</time></trkpt><trkpt lat="40.76489265773931" lon="8.641575256501982"><ele>392.0</ele><time>2026-04-11T08:04:32.999Z</time></trkpt><trkpt lat="40.76477722770963" lon="8.641622061426522"><ele>392.0</ele><time>2026-04-11T08:04:33.999Z</time></trkpt><trkpt lat="40.76465521829686" lon="8.641651488445756"><ele>392.0</ele><time>2026-04-11T08:04:34.999Z</time></trkpt><trkpt lat="40.76454030876512" lon="8.641676915916099"><ele>392.0</ele><time>2026-04-11T08:04:35.999Z</time></trkpt><trkpt lat="40.76443723361134" lon="8.641693741794583"><ele>392.0</ele><time>2026-04-11T08:04:36.999Z</time></trkpt><trkpt lat="40.76430882235761" lon="8.641715784308019"><ele>392.75</ele><time>2026-04-11T08:04:37.999Z</time></trkpt><trkpt lat="40.764195021384026" lon="8.641772527677205"><ele>393.5</ele><time>2026-04-11T08:04:38.999Z</time></trkpt><trkpt lat="40.764074877663" lon="8.641843808998916"><ele>394.25</ele><time>2026-04-11T08:04:39.999Z</time></trkpt><trkpt lat="40.76397481134628" lon="8.64192323658879"><ele>395.0</ele><time>2026-04-11T08:04:40.999Z</time></trkpt><trkpt lat="40.763878362065" lon="8.642000195246576"><ele>395.0</ele><time>2026-04-11T08:04:41.999Z</time></trkpt><trkpt lat="40.76377931971169" lon="8.642087990726669"><ele>395.0</ele><time>2026-04-11T08:04:42.999Z</time></trkpt><trkpt lat="40.76369038192908" lon="8.642192134582308"><ele>395.0</ele><time>2026-04-11T08:04:43.999Z</time></trkpt><trkpt lat="40.76362666575736" lon="8.642288034952017"><ele>395.0</ele><time>2026-04-11T08:04:44.999Z</time></trkpt><trkpt lat="40.76357173370508" lon="8.64237349190292"><ele>395.0</ele><time>2026-04-11T08:04:45.999Z</time></trkpt><trkpt lat="40.763521805576396" lon="8.642450878475996"><ele>390.2</ele><time>2026-04-11T08:04:46.999Z</time></trkpt><trkpt lat="40.763425294005714" lon="8.642554528718813"><ele>385.4</ele><time>2026-04-11T08:04:48.999Z</time></trkpt><trkpt lat="40.76336609008402" lon="8.642607084117671"><ele>380.6</ele><time>2026-04-11T08:04:49.999Z</time></trkpt><trkpt lat="40.76328350890085" lon="8.64263186303365"><ele>375.8</ele><time>2026-04-11T08:04:50.999Z</time></trkpt><trkpt lat="40.76317854811885" lon="8.642648020254823"><ele>371.0</ele><time>2026-04-11T08:04:51.999Z</time></trkpt><trkpt lat="40.76306701435073" lon="8.642665154010958"><ele>371.0</ele><time>2026-04-11T08:04:52.999Z</time></trkpt><trkpt lat="40.76294124768492" lon="8.642698925457292"><ele>371.0</ele><time>2026-04-11T08:04:53.999Z</time></trkpt><trkpt lat="40.76283211579757" lon="8.642743521589741"><ele>371.0</ele><time>2026-04-11T08:04:54.999Z</time></trkpt><trkpt lat="40.76271907361459" lon="8.642795887624661"><ele>371.0</ele><time>2026-04-11T08:04:55.999Z</time></trkpt><trkpt lat="40.762620809033514" lon="8.642853153746637"><ele>370.6</ele><time>2026-04-11T08:04:56.999Z</time></trkpt><trkpt lat="40.762517159583474" lon="8.64289304908038"><ele>370.20000000000005</ele><time>2026-04-11T08:04:57.999Z</time></trkpt><trkpt lat="40.762419941833855" lon="8.6429511684081"><ele>369.79999999999995</ele><time>2026-04-11T08:04:58.999Z</time></trkpt><trkpt lat="40.762315317835366" lon="8.642972988925944"><ele>369.4</ele><time>2026-04-11T08:04:59.999Z</time></trkpt><trkpt lat="40.76221627224977" lon="8.643028090546023"><ele>369.0</ele><time>2026-04-11T08:05:00.999Z</time></trkpt><trkpt lat="40.762110149027166" lon="8.643054809670355"><ele>369.0</ele><time>2026-04-11T08:05:01.999Z</time></trkpt><trkpt lat="40.76200995711876" lon="8.643100420827556"><ele>369.0</ele><time>2026-04-11T08:05:02.999Z</time></trkpt><trkpt lat="40.76190500927315" lon="8.643157005571235"><ele>369.0</ele><time>2026-04-11T08:05:03.999Z</time></trkpt><trkpt lat="40.76179863632514" lon="8.64316897137678"><ele>369.0</ele><time>2026-04-11T08:05:04.999Z</time></trkpt><trkpt lat="40.761708017558774" lon="8.643189845711241"><ele>369.0</ele><time>2026-04-11T08:05:05.999Z</time></trkpt><trkpt lat="40.76161318258313" lon="8.643215225794599"><ele>366.79999999999995</ele><time>2026-04-11T08:05:06.999Z</time></trkpt><trkpt lat="40.76151593365428" lon="8.643245469095396"><ele>364.59999999999997</ele><time>2026-04-11T08:05:07.999Z</time></trkpt><trkpt lat="40.76140966707645" lon="8.643246166486945"><ele>362.4</ele><time>2026-04-11T08:05:08.999Z</time></trkpt><trkpt lat="40.761319466370104" lon="8.643211063999182"><ele>360.2</ele><time>2026-04-11T08:05:09.999Z</time></trkpt><trkpt lat="40.761210735811446" lon="8.643218229615162"><ele>358.0</ele><time>2026-04-11T08:05:10.999Z</time></trkpt><trkpt lat="40.76110728722486" lon="8.643254946671409"><ele>355.5</ele><time>2026-04-11T08:05:11.999Z</time></trkpt><trkpt lat="40.76098068269924" lon="8.643312341854946"><ele>353.0</ele><time>2026-04-11T08:05:12.999Z</time></trkpt><trkpt lat="40.760844589599145" lon="8.643411664574792"><ele>350.5</ele><time>2026-04-11T08:05:13.999Z</time></trkpt><trkpt lat="40.76070942805915" lon="8.643495300565885"><ele>348.0</ele><time>2026-04-11T08:05:14.999Z</time></trkpt><trkpt lat="40.76058371225059" lon="8.643584614146196"><ele>351.25</ele><time>2026-04-11T08:05:15.999Z</time></trkpt><trkpt lat="40.7604736302195" lon="8.643681227980073"><ele>354.5</ele><time>2026-04-11T08:05:16.999Z</time></trkpt><trkpt lat="40.76038466906391" lon="8.64377473278769"><ele>357.75</ele><time>2026-04-11T08:05:17.999Z</time></trkpt><trkpt lat="40.76028997996325" lon="8.643867032345659"><ele>361.0</ele><time>2026-04-11T08:05:18.999Z</time></trkpt><trkpt lat="40.76021030383376" lon="8.64397392198513"><ele>362.0</ele><time>2026-04-11T08:05:19.999Z</time></trkpt><trkpt lat="40.76014012023868" lon="8.6441034047495"><ele>363.0</ele><time>2026-04-11T08:05:20.999Z</time></trkpt><trkpt lat="40.760086706836006" lon="8.64424494718322"><ele>364.0</ele><time>2026-04-11T08:05:21.999Z</time></trkpt><trkpt lat="40.76005316416339" lon="8.644398396540426"><ele>365.0</ele><time>2026-04-11T08:05:22.999Z</time></trkpt><trkpt lat="40.760033082579966" lon="8.644552570809978"><ele>365.0</ele><time>2026-04-11T08:05:23.999Z</time></trkpt><trkpt lat="40.76003503214704" lon="8.644701570779958"><ele>365.0</ele><time>2026-04-11T08:05:24.999Z</time></trkpt><trkpt lat="40.760008053944034" lon="8.644868188389442"><ele>365.0</ele><time>2026-04-11T08:05:25.998Z</time></trkpt><trkpt lat="40.7599795876259" lon="8.645036804484729"><ele>365.0</ele><time>2026-04-11T08:05:26.998Z</time></trkpt><trkpt lat="40.75995219277402" lon="8.645197184165186"><ele>366.4</ele><time>2026-04-11T08:05:27.998Z</time></trkpt><trkpt lat="40.75992815803466" lon="8.645336987193147"><ele>367.8</ele><time>2026-04-11T08:05:28.998Z</time></trkpt><trkpt lat="40.7599058662224" lon="8.645455739004644"><ele>369.20000000000005</ele><time>2026-04-11T08:05:29.998Z</time></trkpt><trkpt lat="40.75988356486859" lon="8.645586521172943"><ele>370.6</ele><time>2026-04-11T08:05:30.998Z</time></trkpt><trkpt lat="40.75985290756282" lon="8.645723244597807"><ele>372.0</ele><time>2026-04-11T08:05:31.998Z</time></trkpt><trkpt lat="40.759792804645386" lon="8.645840744386941"><ele>372.0</ele><time>2026-04-11T08:05:32.998Z</time></trkpt><trkpt lat="40.75974675545666" lon="8.645948593690534"><ele>372.0</ele><time>2026-04-11T08:05:33.998Z</time></trkpt><trkpt lat="40.75970073382802" lon="8.646043365762539"><ele>372.0</ele><time>2026-04-11T08:05:34.998Z</time></trkpt><trkpt lat="40.75963350948836" lon="8.646122871038841"><ele>372.0</ele><time>2026-04-11T08:05:35.998Z</time></trkpt><trkpt lat="40.759549337567925" lon="8.646178706094698"><ele>372.0</ele><time>2026-04-11T08:05:36.998Z</time></trkpt><trkpt lat="40.75945107624556" lon="8.646226731073648"><ele>369.75</ele><time>2026-04-11T08:05:37.998Z</time></trkpt><trkpt lat="40.75933591432376" lon="8.646272762992647"><ele>367.5</ele><time>2026-04-11T08:05:38.998Z</time></trkpt><trkpt lat="40.75923193875797" lon="8.646346300457596"><ele>365.25</ele><time>2026-04-11T08:05:39.998Z</time></trkpt><trkpt lat="40.7591360003416" lon="8.646429335957658"><ele>363.0</ele><time>2026-04-11T08:05:40.998Z</time></trkpt><trkpt lat="40.75905565860819" lon="8.64651472249184"><ele>363.0</ele><time>2026-04-11T08:05:41.998Z</time></trkpt><trkpt lat="40.758958029864445" lon="8.6465658038289"><ele>363.0</ele><time>2026-04-11T08:05:42.998Z</time></trkpt><trkpt lat="40.75884815297133" lon="8.64661036589976"><ele>363.0</ele><time>2026-04-11T08:05:43.998Z</time></trkpt><trkpt lat="40.7587332175866" lon="8.646655002444598"><ele>363.0</ele><time>2026-04-11T08:05:44.998Z</time></trkpt><trkpt lat="40.7586166086327" lon="8.646707985008057"><ele>363.4</ele><time>2026-04-11T08:05:45.998Z</time></trkpt><trkpt lat="40.75850549099419" lon="8.646774831052555"><ele>363.79999999999995</ele><time>2026-04-11T08:05:46.998Z</time></trkpt><trkpt lat="40.75840273241725" lon="8.646836551041025"><ele>364.2</ele><time>2026-04-11T08:05:47.998Z</time></trkpt><trkpt lat="40.75831763276283" lon="8.6469002745555"><ele>364.6</ele><time>2026-04-11T08:05:48.998Z</time></trkpt><trkpt lat="40.75823501573381" lon="8.646955815258003"><ele>365.0</ele><time>2026-04-11T08:05:49.998Z</time></trkpt><trkpt lat="40.758155595189066" lon="8.647015886157265"><ele>365.0</ele><time>2026-04-11T08:05:50.998Z</time></trkpt><trkpt lat="40.7580811921675" lon="8.647074563375662"><ele>365.0</ele><time>2026-04-11T08:05:51.998Z</time></trkpt><trkpt lat="40.75801032080109" lon="8.647135344841818"><ele>365.0</ele><time>2026-04-11T08:05:52.998Z</time></trkpt><trkpt lat="40.75793694776917" lon="8.647198720135842"><ele>365.0</ele><time>2026-04-11T08:05:53.998Z</time></trkpt><trkpt lat="40.7578572027378" lon="8.647254503349075"><ele>365.0</ele><time>2026-04-11T08:05:54.998Z</time></trkpt><trkpt lat="40.75777647469806" lon="8.64731555108427"><ele>365.0</ele><time>2026-04-11T08:05:55.998Z</time></trkpt><trkpt lat="40.75769125866979" lon="8.647353358116762"><ele>362.6666666666667</ele><time>2026-04-11T08:05:56.998Z</time></trkpt><trkpt lat="40.75761132855175" lon="8.647385873329773"><ele>360.33333333333337</ele><time>2026-04-11T08:05:57.998Z</time></trkpt><trkpt lat="40.75752965466985" lon="8.647414483319395"><ele>358.0</ele><time>2026-04-11T08:05:58.998Z</time></trkpt><trkpt lat="40.757442711003044" lon="8.647436385762438"><ele>355.6666666666667</ele><time>2026-04-11T08:05:59.998Z</time></trkpt><trkpt lat="40.757357187289124" lon="8.647423495934056"><ele>353.3333333333333</ele><time>2026-04-11T08:06:00.998Z</time></trkpt><trkpt lat="40.75727720497078" lon="8.647407132688567"><ele>351.0</ele><time>2026-04-11T08:06:01.998Z</time></trkpt><trkpt lat="40.75718429843497" lon="8.647386357150936"><ele>351.0</ele><time>2026-04-11T08:06:02.998Z</time></trkpt><trkpt lat="40.75709006694158" lon="8.647334462372301"><ele>351.0</ele><time>2026-04-11T08:06:03.998Z</time></trkpt><trkpt lat="40.75699218959946" lon="8.64730225736737"><ele>351.0</ele><time>2026-04-11T08:06:04.998Z</time></trkpt><trkpt lat="40.756886991929484" lon="8.647315854280766"><ele>351.0</ele><time>2026-04-11T08:06:05.998Z</time></trkpt><trkpt lat="40.75677558767751" lon="8.647375290771402"><ele>351.0</ele><time>2026-04-11T08:06:06.998Z</time></trkpt><trkpt lat="40.75666333506972" lon="8.64743766213831"><ele>351.20000000000005</ele><time>2026-04-11T08:06:07.998Z</time></trkpt><trkpt lat="40.75656807237201" lon="8.647517508577005"><ele>351.40000000000003</ele><time>2026-04-11T08:06:08.998Z</time></trkpt><trkpt lat="40.7564911305552" lon="8.647608380290894"><ele>351.6</ele><time>2026-04-11T08:06:09.998Z</time></trkpt><trkpt lat="40.75644096605671" lon="8.647718073830587"><ele>351.8</ele><time>2026-04-11T08:06:10.998Z</time></trkpt><trkpt lat="40.75641015360842" lon="8.647848332341901"><ele>352.0</ele><time>2026-04-11T08:06:11.998Z</time></trkpt><trkpt lat="40.75637922715933" lon="8.647991410662929"><ele>352.0</ele><time>2026-04-11T08:06:12.998Z</time></trkpt><trkpt lat="40.756310675307375" lon="8.6481131456525"><ele>352.0</ele><time>2026-04-11T08:06:13.998Z</time></trkpt><trkpt lat="40.75623387628952" lon="8.648245614576691"><ele>352.0</ele><time>2026-04-11T08:06:14.998Z</time></trkpt><trkpt lat="40.756149395052255" lon="8.64838592291361"><ele>352.0</ele><time>2026-04-11T08:06:15.998Z</time></trkpt><trkpt lat="40.75606214924414" lon="8.648530822580238"><ele>354.66666666666663</ele><time>2026-04-11T08:06:16.998Z</time></trkpt><trkpt lat="40.75597096074878" lon="8.648681801013913"><ele>357.3333333333333</ele><time>2026-04-11T08:06:17.998Z</time></trkpt><trkpt lat="40.75587442008433" lon="8.648831983470737"><ele>360.0</ele><time>2026-04-11T08:06:18.998Z</time></trkpt><trkpt lat="40.755779556446925" lon="8.648995126726815"><ele>360.0</ele><time>2026-04-11T08:06:19.998Z</time></trkpt><trkpt lat="40.75569479470711" lon="8.649162993847495"><ele>360.0</ele><time>2026-04-11T08:06:20.998Z</time></trkpt><trkpt lat="40.75561756760232" lon="8.649329390730028"><ele>360.0</ele><time>2026-04-11T08:06:21.998Z</time></trkpt><trkpt lat="40.75554171820055" lon="8.64948596662372"><ele>360.0</ele><time>2026-04-11T08:06:22.998Z</time></trkpt><trkpt lat="40.755460406441976" lon="8.649637133360077"><ele>362.25</ele><time>2026-04-11T08:06:23.998Z</time></trkpt><trkpt lat="40.75537939180615" lon="8.649783546876293"><ele>364.5</ele><time>2026-04-11T08:06:24.998Z</time></trkpt><trkpt lat="40.75529763292686" lon="8.649928212074785"><ele>366.75</ele><time>2026-04-11T08:06:25.998Z</time></trkpt><trkpt lat="40.755217537517574" lon="8.65006993382252"><ele>369.0</ele><time>2026-04-11T08:06:26.998Z</time></trkpt><trkpt lat="40.755138551659776" lon="8.650210921600834"><ele>372.0</ele><time>2026-04-11T08:06:27.998Z</time></trkpt><trkpt lat="40.755072713308785" lon="8.650345373753165"><ele>375.0</ele><time>2026-04-11T08:06:28.998Z</time></trkpt><trkpt lat="40.75502395768858" lon="8.650462867764373"><ele>378.0</ele><time>2026-04-11T08:06:29.998Z</time></trkpt><trkpt lat="40.754991963153905" lon="8.650577971076437"><ele>381.0</ele><time>2026-04-11T08:06:30.998Z</time></trkpt><trkpt lat="40.75497142884938" lon="8.650693646863894"><ele>384.0</ele><time>2026-04-11T08:06:31.998Z</time></trkpt><trkpt lat="40.75497924421022" lon="8.650822787404339"><ele>384.0</ele><time>2026-04-11T08:06:32.998Z</time></trkpt><trkpt lat="40.754991136799475" lon="8.650949917605127"><ele>384.0</ele><time>2026-04-11T08:06:33.998Z</time></trkpt><trkpt lat="40.75499318765953" lon="8.65106252280519"><ele>384.0</ele><time>2026-04-11T08:06:34.998Z</time></trkpt><trkpt lat="40.75495416668685" lon="8.651221634142216"><ele>384.0</ele><time>2026-04-11T08:06:36.998Z</time></trkpt><trkpt lat="40.7549052265038" lon="8.651305199474214"><ele>384.0</ele><time>2026-04-11T08:06:37.998Z</time></trkpt><trkpt lat="40.75484397398104" lon="8.65139095299545"><ele>386.79999999999995</ele><time>2026-04-11T08:06:38.998Z</time></trkpt><trkpt lat="40.75478154236093" lon="8.651509284827744"><ele>389.59999999999997</ele><time>2026-04-11T08:06:39.998Z</time></trkpt><trkpt lat="40.75473912465778" lon="8.651647710655753"><ele>392.4</ele><time>2026-04-11T08:06:40.998Z</time></trkpt><trkpt lat="40.75470612958245" lon="8.651791020405613"><ele>395.2</ele><time>2026-04-11T08:06:41.998Z</time></trkpt><trkpt lat="40.75467605979603" lon="8.651934198681648"><ele>398.0</ele><time>2026-04-11T08:06:42.998Z</time></trkpt><trkpt lat="40.754651670786046" lon="8.652084956474962"><ele>401.25</ele><time>2026-04-11T08:06:43.998Z</time></trkpt><trkpt lat="40.75462915202149" lon="8.652239720728613"><ele>404.5</ele><time>2026-04-11T08:06:44.998Z</time></trkpt><trkpt lat="40.75460045590621" lon="8.652391834255626"><ele>407.75</ele><time>2026-04-11T08:06:45.998Z</time></trkpt><trkpt lat="40.75457170494057" lon="8.652549063960207"><ele>411.0</ele><time>2026-04-11T08:06:46.998Z</time></trkpt><trkpt lat="40.75454112086988" lon="8.652694290352896"><ele>412.0</ele><time>2026-04-11T08:06:47.998Z</time></trkpt><trkpt lat="40.75449648972105" lon="8.652841804790462"><ele>413.0</ele><time>2026-04-11T08:06:48.998Z</time></trkpt><trkpt lat="40.75444538656188" lon="8.652984920738344"><ele>414.0</ele><time>2026-04-11T08:06:49.998Z</time></trkpt><trkpt lat="40.754385515793125" lon="8.653130760250887"><ele>415.0</ele><time>2026-04-11T08:06:50.998Z</time></trkpt><trkpt lat="40.754326100206335" lon="8.653266518324426"><ele>411.5</ele><time>2026-04-11T08:06:51.998Z</time></trkpt><trkpt lat="40.75426013117149" lon="8.65341482484484"><ele>408.0</ele><time>2026-04-11T08:06:52.998Z</time></trkpt><trkpt lat="40.75420693832718" lon="8.65354705770424"><ele>404.5</ele><time>2026-04-11T08:06:53.998Z</time></trkpt><trkpt lat="40.7541594740092" lon="8.653670377047689"><ele>401.0</ele><time>2026-04-11T08:06:54.998Z</time></trkpt><trkpt lat="40.75411981360125" lon="8.653795747968799"><ele>401.0</ele><time>2026-04-11T08:06:55.998Z</time></trkpt><trkpt lat="40.7540861684199" lon="8.653934017022355"><ele>401.0</ele><time>2026-04-11T08:06:56.998Z</time></trkpt><trkpt lat="40.75405813432103" lon="8.65408533979774"><ele>401.0</ele><time>2026-04-11T08:06:57.998Z</time></trkpt><trkpt lat="40.75403142659261" lon="8.654233195787652"><ele>401.0</ele><time>2026-04-11T08:06:58.998Z</time></trkpt><trkpt lat="40.753996761578485" lon="8.65437494341321"><ele>401.5</ele><time>2026-04-11T08:06:59.998Z</time></trkpt><trkpt lat="40.75395458204073" lon="8.654508523861743"><ele>402.0</ele><time>2026-04-11T08:07:00.998Z</time></trkpt><trkpt lat="40.753896536924486" lon="8.654639580132558"><ele>402.5</ele><time>2026-04-11T08:07:01.998Z</time></trkpt><trkpt lat="40.75381969143596" lon="8.654761977029525"><ele>403.0</ele><time>2026-04-11T08:07:02.998Z</time></trkpt><trkpt lat="40.75372922396843" lon="8.654875788608457"><ele>403.0</ele><time>2026-04-11T08:07:03.998Z</time></trkpt><trkpt lat="40.753639049076966" lon="8.654978726931603"><ele>403.0</ele><time>2026-04-11T08:07:04.998Z</time></trkpt><trkpt lat="40.75354788788237" lon="8.655075736900036"><ele>403.0</ele><time>2026-04-11T08:07:05.998Z</time></trkpt><trkpt lat="40.753456438492506" lon="8.65517074130781"><ele>403.0</ele><time>2026-04-11T08:07:06.998Z</time></trkpt><trkpt lat="40.75338001602071" lon="8.655277802082802"><ele>405.4</ele><time>2026-04-11T08:07:07.998Z</time></trkpt><trkpt lat="40.75330912871912" lon="8.65539879499408"><ele>407.79999999999995</ele><time>2026-04-11T08:07:08.998Z</time></trkpt><trkpt lat="40.7532544064707" lon="8.655511888196646"><ele>410.2</ele><time>2026-04-11T08:07:09.998Z</time></trkpt><trkpt lat="40.75320743574301" lon="8.655623534874787"><ele>412.6</ele><time>2026-04-11T08:07:10.997Z</time></trkpt><trkpt lat="40.753176753653136" lon="8.655756223461188"><ele>415.0</ele><time>2026-04-11T08:07:11.997Z</time></trkpt><trkpt lat="40.75315720379469" lon="8.655862826055834"><ele>415.0</ele><time>2026-04-11T08:07:12.997Z</time></trkpt><trkpt lat="40.7531434342543" lon="8.65597768064615"><ele>415.0</ele><time>2026-04-11T08:07:13.997Z</time></trkpt><trkpt lat="40.75313312930374" lon="8.656099294892952"><ele>415.0</ele><time>2026-04-11T08:07:14.997Z</time></trkpt><trkpt lat="40.75312253685856" lon="8.656237126009522"><ele>415.0</ele><time>2026-04-11T08:07:15.997Z</time></trkpt><trkpt lat="40.75311172770713" lon="8.656377776964694"><ele>415.0</ele><time>2026-04-11T08:07:16.997Z</time></trkpt><trkpt lat="40.75309932237542" lon="8.656516641698879"><ele>415.4</ele><time>2026-04-11T08:07:17.997Z</time></trkpt><trkpt lat="40.75310405381153" lon="8.656650137405164"><ele>415.8</ele><time>2026-04-11T08:07:18.997Z</time></trkpt><trkpt lat="40.75309169377656" lon="8.656761561506189"><ele>416.20000000000005</ele><time>2026-04-11T08:07:19.997Z</time></trkpt><trkpt lat="40.75306680941892" lon="8.656852514697821"><ele>416.6</ele><time>2026-04-11T08:07:20.997Z</time></trkpt><trkpt lat="40.753051227402395" lon="8.657007828283945"><ele>417.0</ele><time>2026-04-11T08:07:22.997Z</time></trkpt><trkpt lat="40.75293657128162" lon="8.657055402848059"><ele>417.0</ele><time>2026-04-11T08:07:24.997Z</time></trkpt><trkpt lat="40.75287487117493" lon="8.656996531425117"><ele>417.0</ele><time>2026-04-11T08:07:25.997Z</time></trkpt><trkpt lat="40.75279636890362" lon="8.656952397000223"><ele>417.0</ele><time>2026-04-11T08:07:26.997Z</time></trkpt><trkpt lat="40.75271677826035" lon="8.656874512550152"><ele>417.0</ele><time>2026-04-11T08:07:27.997Z</time></trkpt><trkpt lat="40.752638352912676" lon="8.656789654383061"><ele>417.0</ele><time>2026-04-11T08:07:28.997Z</time></trkpt><trkpt lat="40.7525701315956" lon="8.656727549240037"><ele>417.0</ele><time>2026-04-11T08:07:29.997Z</time></trkpt><trkpt lat="40.752520946188085" lon="8.656673392666265"><ele>416.1666666666667</ele><time>2026-04-11T08:07:30.997Z</time></trkpt><trkpt lat="40.75242851490005" lon="8.656617543084586"><ele>415.33333333333337</ele><time>2026-04-11T08:07:32.997Z</time></trkpt><trkpt lat="40.752361609079266" lon="8.656691322511916"><ele>414.5</ele><time>2026-04-11T08:07:35.997Z</time></trkpt><trkpt lat="40.75234233520744" lon="8.656787714460883"><ele>413.6666666666667</ele><time>2026-04-11T08:07:36.997Z</time></trkpt><trkpt lat="40.752396515225676" lon="8.656856146068145"><ele>412.83333333333337</ele><time>2026-04-11T08:07:37.997Z</time></trkpt><trkpt lat="40.75246002208175" lon="8.656898062315769"><ele>412.0</ele><time>2026-04-11T08:07:38.997Z</time></trkpt><trkpt lat="40.75255862548707" lon="8.656878598896933"><ele>412.00000000000006</ele><time>2026-04-11T08:07:39.997Z</time></trkpt><trkpt lat="40.75263856063015" lon="8.656945282084298"><ele>412.0</ele><time>2026-04-11T08:07:40.997Z</time></trkpt><trkpt lat="40.75272678106732" lon="8.657008686312725"><ele>412.0</ele><time>2026-04-11T08:07:41.997Z</time></trkpt><trkpt lat="40.75280679163307" lon="8.657069744954775"><ele>412.0</ele><time>2026-04-11T08:07:42.997Z</time></trkpt><trkpt lat="40.75287292782403" lon="8.65714016521338"><ele>412.00000000000006</ele><time>2026-04-11T08:07:43.997Z</time></trkpt><trkpt lat="40.75288468694043" lon="8.657234310348283"><ele>412.0</ele><time>2026-04-11T08:07:44.997Z</time></trkpt><trkpt lat="40.75292005844137" lon="8.657310534557997"><ele>412.20000000000005</ele><time>2026-04-11T08:07:45.997Z</time></trkpt><trkpt lat="40.75292446487324" lon="8.657426671885293"><ele>412.4</ele><time>2026-04-11T08:07:46.997Z</time></trkpt><trkpt lat="40.75291110923047" lon="8.657558092569198"><ele>412.6</ele><time>2026-04-11T08:07:47.997Z</time></trkpt><trkpt lat="40.75290416179165" lon="8.65771089682813"><ele>412.79999999999995</ele><time>2026-04-11T08:07:48.997Z</time></trkpt><trkpt lat="40.7529006107293" lon="8.657851206903993"><ele>413.0</ele><time>2026-04-11T08:07:49.997Z</time></trkpt><trkpt lat="40.75289607832023" lon="8.657983377615992"><ele>411.8333333333333</ele><time>2026-04-11T08:07:50.997Z</time></trkpt><trkpt lat="40.752891971838785" lon="8.65810312838452"><ele>410.66666666666663</ele><time>2026-04-11T08:07:51.997Z</time></trkpt><trkpt lat="40.7528854745568" lon="8.65820099173145"><ele>409.5</ele><time>2026-04-11T08:07:52.997Z</time></trkpt><trkpt lat="40.75287086399604" lon="8.658343475081452"><ele>408.33333333333337</ele><time>2026-04-11T08:07:54.997Z</time></trkpt><trkpt lat="40.752852050046606" lon="8.658441089116764"><ele>407.1666666666667</ele><time>2026-04-11T08:07:56.997Z</time></trkpt><trkpt lat="40.752828950477856" lon="8.65854019848233"><ele>406.0</ele><time>2026-04-11T08:07:58.997Z</time></trkpt><trkpt lat="40.75282190324954" lon="8.658638965787183"><ele>405.20000000000005</ele><time>2026-04-11T08:07:59.997Z</time></trkpt><trkpt lat="40.75290833313878" lon="8.658785756961192"><ele>404.40000000000003</ele><time>2026-04-11T08:08:01.997Z</time></trkpt><trkpt lat="40.75295116993523" lon="8.658897030347374"><ele>403.6</ele><time>2026-04-11T08:08:02.997Z</time></trkpt><trkpt lat="40.752988507172454" lon="8.659024167627976"><ele>402.8</ele><time>2026-04-11T08:08:03.997Z</time></trkpt><trkpt lat="40.75302121164955" lon="8.659163207490263"><ele>402.0</ele><time>2026-04-11T08:08:04.997Z</time></trkpt><trkpt lat="40.75303649316602" lon="8.659325413526776"><ele>400.75</ele><time>2026-04-11T08:08:05.997Z</time></trkpt><trkpt lat="40.753069373307" lon="8.659495602148944"><ele>399.5</ele><time>2026-04-11T08:08:06.997Z</time></trkpt><trkpt lat="40.75309907563471" lon="8.659667701671555"><ele>398.25</ele><time>2026-04-11T08:08:07.997Z</time></trkpt><trkpt lat="40.75314374614784" lon="8.65983871655277"><ele>397.0</ele><time>2026-04-11T08:08:08.997Z</time></trkpt><trkpt lat="40.75317840424333" lon="8.660013835503323"><ele>397.0</ele><time>2026-04-11T08:08:09.997Z</time></trkpt><trkpt lat="40.75320800368424" lon="8.660187456229"><ele>397.0</ele><time>2026-04-11T08:08:10.997Z</time></trkpt><trkpt lat="40.75323510226476" lon="8.660357018427492"><ele>397.0</ele><time>2026-04-11T08:08:11.997Z</time></trkpt><trkpt lat="40.75324952984909" lon="8.660515887377832"><ele>397.0</ele><time>2026-04-11T08:08:12.997Z</time></trkpt><trkpt lat="40.75325823233103" lon="8.660686986485315"><ele>397.0</ele><time>2026-04-11T08:08:13.997Z</time></trkpt><trkpt lat="40.75328383837545" lon="8.660856122652373"><ele>397.0</ele><time>2026-04-11T08:08:14.997Z</time></trkpt><trkpt lat="40.753308337023135" lon="8.661022298896256"><ele>397.0</ele><time>2026-04-11T08:08:15.997Z</time></trkpt><trkpt lat="40.753343304679284" lon="8.661179282760818"><ele>397.0</ele><time>2026-04-11T08:08:16.997Z</time></trkpt><trkpt lat="40.75340127636456" lon="8.661324007802518"><ele>396.5</ele><time>2026-04-11T08:08:17.997Z</time></trkpt><trkpt lat="40.75346003905285" lon="8.661480018123598"><ele>396.0</ele><time>2026-04-11T08:08:18.997Z</time></trkpt><trkpt lat="40.75353420460741" lon="8.66162718208272"><ele>395.5</ele><time>2026-04-11T08:08:19.997Z</time></trkpt><trkpt lat="40.753622991143544" lon="8.661774299030869"><ele>395.0</ele><time>2026-04-11T08:08:20.997Z</time></trkpt><trkpt lat="40.75370411729473" lon="8.661937002111216"><ele>395.5</ele><time>2026-04-11T08:08:21.997Z</time></trkpt><trkpt lat="40.753789396437654" lon="8.662101706142618"><ele>396.0</ele><time>2026-04-11T08:08:22.997Z</time></trkpt><trkpt lat="40.75387270213232" lon="8.662265977799951"><ele>396.5</ele><time>2026-04-11T08:08:24.002Z</time></trkpt><trkpt lat="40.753949488127425" lon="8.662430394753343"><ele>397.0</ele><time>2026-04-11T08:08:25.002Z</time></trkpt><trkpt lat="40.75402216219015" lon="8.66259332155451"><ele>397.0</ele><time>2026-04-11T08:08:26.002Z</time></trkpt><trkpt lat="40.754102992276536" lon="8.662749316839701"><ele>397.0</ele><time>2026-04-11T08:08:27.002Z</time></trkpt><trkpt lat="40.75417074233336" lon="8.662905439482849"><ele>397.0</ele><time>2026-04-11T08:08:28.002Z</time></trkpt><trkpt lat="40.75423649485479" lon="8.663055751477057"><ele>397.0</ele><time>2026-04-11T08:08:29.002Z</time></trkpt><trkpt lat="40.75429960107811" lon="8.66320298116226"><ele>396.75</ele><time>2026-04-11T08:08:30.002Z</time></trkpt><trkpt lat="40.75435536001266" lon="8.663357376031705"><ele>396.5</ele><time>2026-04-11T08:08:31.002Z</time></trkpt><trkpt lat="40.75442697099029" lon="8.663512476388597"><ele>396.25</ele><time>2026-04-11T08:08:32.002Z</time></trkpt><trkpt lat="40.75447348154472" lon="8.663687074186967"><ele>396.0</ele><time>2026-04-11T08:08:33.001Z</time></trkpt><trkpt lat="40.754522733548164" lon="8.663869863134414"><ele>397.25</ele><time>2026-04-11T08:08:34.001Z</time></trkpt><trkpt lat="40.75457450746678" lon="8.664056310853011"><ele>398.5</ele><time>2026-04-11T08:08:35.001Z</time></trkpt><trkpt lat="40.75462167180037" lon="8.664245171187403"><ele>399.75</ele><time>2026-04-11T08:08:36.001Z</time></trkpt><trkpt lat="40.75466819164071" lon="8.664421170284843"><ele>401.0</ele><time>2026-04-11T08:08:37.001Z</time></trkpt><trkpt lat="40.75469011558576" lon="8.664581859143327"><ele>401.20000000000005</ele><time>2026-04-11T08:08:38.001Z</time></trkpt><trkpt lat="40.754714630852426" lon="8.664714112382965"><ele>401.40000000000003</ele><time>2026-04-11T08:08:39.001Z</time></trkpt><trkpt lat="40.75473519908175" lon="8.66482555033933"><ele>401.6</ele><time>2026-04-11T08:08:40.001Z</time></trkpt><trkpt lat="40.754752100724644" lon="8.664917124129568"><ele>401.8</ele><time>2026-04-11T08:08:41.001Z</time></trkpt><trkpt lat="40.75476177021502" lon="8.66505050506358"><ele>402.0</ele><time>2026-04-11T08:08:43.001Z</time></trkpt><trkpt lat="40.75477373990925" lon="8.665166694641925"><ele>402.0</ele><time>2026-04-11T08:08:45.001Z</time></trkpt><trkpt lat="40.75478614194042" lon="8.665253730393863"><ele>402.0</ele><time>2026-04-11T08:08:47.001Z</time></trkpt><trkpt lat="40.75481153852407" lon="8.665347842773985"><ele>402.0</ele><time>2026-04-11T08:08:55Z</time></trkpt><trkpt lat="40.754839108700864" lon="8.665428807526588"><ele>402.0</ele><time>2026-04-11T08:09:02Z</time></trkpt><trkpt lat="40.75488522351821" lon="8.665548143189977"><ele>402.0</ele><time>2026-04-11T08:09:04Z</time></trkpt><trkpt lat="40.75494647087276" lon="8.665678000660678"><ele>402.0</ele><time>2026-04-11T08:09:06Z</time></trkpt><trkpt lat="40.7550000996393" lon="8.66578287976201"><ele>402.0</ele><time>2026-04-11T08:09:08Z</time></trkpt><trkpt lat="40.755045584464334" lon="8.665857242889896"><ele>402.0</ele><time>2026-04-11T08:09:10Z</time></trkpt><trkpt lat="40.755099179190914" lon="8.665928795769082"><ele>402.0</ele><time>2026-04-11T08:09:12Z</time></trkpt><trkpt lat="40.75518259923737" lon="8.666059720684201"><ele>402.0</ele><time>2026-04-11T08:09:14Z</time></trkpt><trkpt lat="40.75524344771501" lon="8.666102051411846"><ele>402.0</ele><time>2026-04-11T08:09:15Z</time></trkpt><trkpt lat="40.75529609869859" lon="8.666160933073122"><ele>402.0</ele><time>2026-04-11T08:09:16Z</time></trkpt><trkpt lat="40.75535298288246" lon="8.666224078799038"><ele>403.6666666666667</ele><time>2026-04-11T08:09:17Z</time></trkpt><trkpt lat="40.75541038055398" lon="8.666291951179007"><ele>405.33333333333337</ele><time>2026-04-11T08:09:18Z</time></trkpt><trkpt lat="40.75546638643539" lon="8.666355835740703"><ele>407.0</ele><time>2026-04-11T08:09:19Z</time></trkpt><trkpt lat="40.75554299408979" lon="8.666427978205354"><ele>408.6666666666667</ele><time>2026-04-11T08:09:21Z</time></trkpt><trkpt lat="40.75556266920288" lon="8.666513271901"><ele>410.33333333333337</ele><time>2026-04-11T08:09:31Z</time></trkpt><trkpt lat="40.75561517034048" lon="8.666588835968987"><ele>412.0</ele><time>2026-04-11T08:09:42Z</time></trkpt><trkpt lat="40.75566148921858" lon="8.666661685779212"><ele>412.00000000000006</ele><time>2026-04-11T08:09:43.999Z</time></trkpt><trkpt lat="40.75570392967462" lon="8.666740183822062"><ele>412.0</ele><time>2026-04-11T08:09:45.999Z</time></trkpt><trkpt lat="40.75573237245738" lon="8.666827067165626"><ele>412.0</ele><time>2026-04-11T08:09:47.999Z</time></trkpt><trkpt lat="40.75576952027697" lon="8.666926941537932"><ele>412.0</ele><time>2026-04-11T08:09:52.999Z</time></trkpt><trkpt lat="40.75582377602198" lon="8.666990375372157"><ele>412.00000000000006</ele><time>2026-04-11T08:09:54.999Z</time></trkpt><trkpt lat="40.75585832305751" lon="8.667121795552264"><ele>412.0</ele><time>2026-04-11T08:09:56.999Z</time></trkpt><trkpt lat="40.75590987963876" lon="8.667284165698648"><ele>412.6666666666667</ele><time>2026-04-11T08:09:58.999Z</time></trkpt><trkpt lat="40.75594635386704" lon="8.667385695958806"><ele>413.33333333333337</ele><time>2026-04-11T08:09:59.999Z</time></trkpt><trkpt lat="40.75597771038443" lon="8.667488851403665"><ele>414.0</ele><time>2026-04-11T08:10:00.999Z</time></trkpt><trkpt lat="40.75600430025442" lon="8.667598990113456"><ele>414.66666666666663</ele><time>2026-04-11T08:10:01.999Z</time></trkpt><trkpt lat="40.756038299990394" lon="8.667713612848251"><ele>415.3333333333333</ele><time>2026-04-11T08:10:02.999Z</time></trkpt><trkpt lat="40.75604935746082" lon="8.667841035675055"><ele>416.0</ele><time>2026-04-11T08:10:03.999Z</time></trkpt><trkpt lat="40.75608351004531" lon="8.66797412255979"><ele>419.25</ele><time>2026-04-11T08:10:04.999Z</time></trkpt><trkpt lat="40.75609941358591" lon="8.66812646915851"><ele>422.5</ele><time>2026-04-11T08:10:05.999Z</time></trkpt><trkpt lat="40.75610289844316" lon="8.668275920688462"><ele>425.75</ele><time>2026-04-11T08:10:06.999Z</time></trkpt><trkpt lat="40.75612070547484" lon="8.668427204580196"><ele>429.0</ele><time>2026-04-11T08:10:07.999Z</time></trkpt><trkpt lat="40.756129627709356" lon="8.66857317386745"><ele>428.6</ele><time>2026-04-11T08:10:08.999Z</time></trkpt><trkpt lat="40.75613931658554" lon="8.668714635919892"><ele>428.2</ele><time>2026-04-11T08:10:09.999Z</time></trkpt><trkpt lat="40.75612793857375" lon="8.668847597601546"><ele>427.80000000000007</ele><time>2026-04-11T08:10:10.999Z</time></trkpt><trkpt lat="40.75613207259636" lon="8.668956974658965"><ele>427.40000000000003</ele><time>2026-04-11T08:10:11.999Z</time></trkpt><trkpt lat="40.75613597716998" lon="8.66904238547016"><ele>427.0</ele><time>2026-04-11T08:10:12.999Z</time></trkpt><trkpt lat="40.756144629603895" lon="8.669171284707035"><ele>427.00000000000006</ele><time>2026-04-11T08:10:14.999Z</time></trkpt><trkpt lat="40.756161674411565" lon="8.669269318469029"><ele>427.0</ele><time>2026-04-11T08:10:16.999Z</time></trkpt><trkpt lat="40.75625068847721" lon="8.669300917750089"><ele>427.0</ele><time>2026-04-11T08:10:18.999Z</time></trkpt><trkpt lat="40.75632978682625" lon="8.669368992017667"><ele>427.0</ele><time>2026-04-11T08:10:20.999Z</time></trkpt><trkpt lat="40.75638200195473" lon="8.669422316727411"><ele>427.00000000000006</ele><time>2026-04-11T08:10:21.999Z</time></trkpt><trkpt lat="40.75641836100539" lon="8.66950870904416"><ele>427.0</ele><time>2026-04-11T08:10:22.999Z</time></trkpt><trkpt lat="40.75640318116926" lon="8.669632571351277"><ele>426.8</ele><time>2026-04-11T08:10:23.999Z</time></trkpt><trkpt lat="40.75644109197693" lon="8.669745751827135"><ele>426.6</ele><time>2026-04-11T08:10:24.999Z</time></trkpt><trkpt lat="40.75648673915229" lon="8.669859957454747"><ele>426.40000000000003</ele><time>2026-04-11T08:10:25.999Z</time></trkpt><trkpt lat="40.756534549238914" lon="8.669967047503214"><ele>426.20000000000005</ele><time>2026-04-11T08:10:26.999Z</time></trkpt><trkpt lat="40.756581534334146" lon="8.67006342916574"><ele>426.0</ele><time>2026-04-11T08:10:27.999Z</time></trkpt><trkpt lat="40.756625100715205" lon="8.670156142214836"><ele>426.0</ele><time>2026-04-11T08:10:28.999Z</time></trkpt><trkpt lat="40.75666058959207" lon="8.670230716540804"><ele>426.0</ele><time>2026-04-11T08:10:29.999Z</time></trkpt><trkpt lat="40.756685512601045" lon="8.670323033810924"><ele>426.0</ele><time>2026-04-11T08:10:30.999Z</time></trkpt><trkpt lat="40.75669236800764" lon="8.670421870794108"><ele>426.0</ele><time>2026-04-11T08:10:31.999Z</time></trkpt><trkpt lat="40.75668310051841" lon="8.670521826623995"><ele>426.0</ele><time>2026-04-11T08:10:32.999Z</time></trkpt><trkpt lat="40.75666188304755" lon="8.670633245449482"><ele>426.0</ele><time>2026-04-11T08:10:33.999Z</time></trkpt><trkpt lat="40.75663454065709" lon="8.670747745579357"><ele>426.25</ele><time>2026-04-11T08:10:34.999Z</time></trkpt><trkpt lat="40.756602012771125" lon="8.670873176514874"><ele>426.5</ele><time>2026-04-11T08:10:35.999Z</time></trkpt><trkpt lat="40.756560070372956" lon="8.67100773231561"><ele>426.75</ele><time>2026-04-11T08:10:36.999Z</time></trkpt><trkpt lat="40.75651079030096" lon="8.671162274919814"><ele>427.0</ele><time>2026-04-11T08:10:37.999Z</time></trkpt><trkpt lat="40.7564582806596" lon="8.67132101043385"><ele>427.75</ele><time>2026-04-11T08:10:38.999Z</time></trkpt><trkpt lat="40.75640583648355" lon="8.67147661589659"><ele>428.5</ele><time>2026-04-11T08:10:39.999Z</time></trkpt><trkpt lat="40.75635322887082" lon="8.671629598162557"><ele>429.25</ele><time>2026-04-11T08:10:40.999Z</time></trkpt><trkpt lat="40.756298617047555" lon="8.67178580558285"><ele>430.0</ele><time>2026-04-11T08:10:41.999Z</time></trkpt><trkpt lat="40.75624290447227" lon="8.67194754160821"><ele>430.0</ele><time>2026-04-11T08:10:42.999Z</time></trkpt><trkpt lat="40.75618661519509" lon="8.67211727037593"><ele>430.0</ele><time>2026-04-11T08:10:43.999Z</time></trkpt><trkpt lat="40.756122472797905" lon="8.672295744054377"><ele>430.0</ele><time>2026-04-11T08:10:44.999Z</time></trkpt><trkpt lat="40.75604986791708" lon="8.672486149538528"><ele>429.0</ele><time>2026-04-11T08:10:45.999Z</time></trkpt><trkpt lat="40.75597245812938" lon="8.672684026198633"><ele>428.0</ele><time>2026-04-11T08:10:46.999Z</time></trkpt><trkpt lat="40.75589101256213" lon="8.672887558692835"><ele>427.0</ele><time>2026-04-11T08:10:47.999Z</time></trkpt><trkpt lat="40.755809245272545" lon="8.673087787276023"><ele>427.0</ele><time>2026-04-11T08:10:48.999Z</time></trkpt><trkpt lat="40.75572367897216" lon="8.673295034840123"><ele>427.0</ele><time>2026-04-11T08:10:49.999Z</time></trkpt><trkpt lat="40.755636708746415" lon="8.673506895759083"><ele>427.0</ele><time>2026-04-11T08:10:50.999Z</time></trkpt><trkpt lat="40.755551184951706" lon="8.673715886038455"><ele>427.33333333333337</ele><time>2026-04-11T08:10:51.999Z</time></trkpt><trkpt lat="40.75547328729276" lon="8.673909642045633"><ele>427.66666666666663</ele><time>2026-04-11T08:10:52.999Z</time></trkpt><trkpt lat="40.755391885470935" lon="8.674111839802189"><ele>428.0</ele><time>2026-04-11T08:10:53.999Z</time></trkpt><trkpt lat="40.75531734501344" lon="8.674294067073513"><ele>429.0</ele><time>2026-04-11T08:10:54.999Z</time></trkpt><trkpt lat="40.755238384220725" lon="8.674487521775637"><ele>430.0</ele><time>2026-04-11T08:10:55.999Z</time></trkpt><trkpt lat="40.755154314197526" lon="8.674693750457745"><ele>431.0</ele><time>2026-04-11T08:10:56.999Z</time></trkpt><trkpt lat="40.755084529650595" lon="8.674869961464887"><ele>428.3333333333333</ele><time>2026-04-11T08:10:57.998Z</time></trkpt><trkpt lat="40.75501004125272" lon="8.675065320443448"><ele>425.66666666666663</ele><time>2026-04-11T08:10:58.998Z</time></trkpt><trkpt lat="40.75494530563118" lon="8.675233668054075"><ele>423.0</ele><time>2026-04-11T08:10:59.998Z</time></trkpt><trkpt lat="40.754873827130474" lon="8.67541383869422"><ele>423.0</ele><time>2026-04-11T08:11:00.998Z</time></trkpt><trkpt lat="40.754809410061185" lon="8.675573852990423"><ele>423.0</ele><time>2026-04-11T08:11:01.998Z</time></trkpt><trkpt lat="40.7547392370171" lon="8.675748165267962"><ele>423.0</ele><time>2026-04-11T08:11:02.998Z</time></trkpt><trkpt lat="40.75467992936726" lon="8.675895487535465"><ele>423.0</ele><time>2026-04-11T08:11:03.998Z</time></trkpt><trkpt lat="40.754601493092544" lon="8.676097491762741"><ele>422.66666666666663</ele><time>2026-04-11T08:11:04.998Z</time></trkpt><trkpt lat="40.75453567351798" lon="8.676287894023027"><ele>422.3333333333333</ele><time>2026-04-11T08:11:05.998Z</time></trkpt><trkpt lat="40.75448272981769" lon="8.676454749875546"><ele>422.0</ele><time>2026-04-11T08:11:06.998Z</time></trkpt><trkpt lat="40.75442082223055" lon="8.676665076358065"><ele>420.5</ele><time>2026-04-11T08:11:07.998Z</time></trkpt><trkpt lat="40.75436777960003" lon="8.67683939385007"><ele>419.0</ele><time>2026-04-11T08:11:08.998Z</time></trkpt><trkpt lat="40.754313877185645" lon="8.67701653733794"><ele>417.5</ele><time>2026-04-11T08:11:09.998Z</time></trkpt><trkpt lat="40.754263569643015" lon="8.677181866257332"><ele>416.0</ele><time>2026-04-11T08:11:10.998Z</time></trkpt><trkpt lat="40.754203384462706" lon="8.67738336562642"><ele>416.0</ele><time>2026-04-11T08:11:11.998Z</time></trkpt><trkpt lat="40.75415488597102" lon="8.677547909790777"><ele>416.0</ele><time>2026-04-11T08:11:12.998Z</time></trkpt><trkpt lat="40.75411140410681" lon="8.677692522699436"><ele>416.0</ele><time>2026-04-11T08:11:13.998Z</time></trkpt><trkpt lat="40.754070957800664" lon="8.677823252130755"><ele>416.0</ele><time>2026-04-11T08:11:14.998Z</time></trkpt><trkpt lat="40.75403091298647" lon="8.678005266739074"><ele>416.20000000000005</ele><time>2026-04-11T08:11:15.998Z</time></trkpt><trkpt lat="40.75397151196929" lon="8.678177280681538"><ele>416.40000000000003</ele><time>2026-04-11T08:11:16.998Z</time></trkpt><trkpt lat="40.753936706911304" lon="8.678305823511685"><ele>416.6</ele><time>2026-04-11T08:11:17.998Z</time></trkpt><trkpt lat="40.75389174192562" lon="8.678403899644762"><ele>416.8</ele><time>2026-04-11T08:11:18.998Z</time></trkpt><trkpt lat="40.75386272692299" lon="8.67850127978161"><ele>417.0</ele><time>2026-04-11T08:11:19.998Z</time></trkpt><trkpt lat="40.75383562279496" lon="8.678592245978212"><ele>417.0</ele><time>2026-04-11T08:11:20.998Z</time></trkpt><trkpt lat="40.75380138173516" lon="8.678707165296451"><ele>417.0</ele><time>2026-04-11T08:11:22.998Z</time></trkpt><trkpt lat="40.7538244938044" lon="8.67862959606861"><ele>417.0</ele><time>2026-04-11T08:11:33.998Z</time></trkpt><trkpt lat="40.753839703932506" lon="8.678523626111566"><ele>417.0</ele><time>2026-04-11T08:11:59.998Z</time></trkpt><trkpt lat="40.75373081994724" lon="8.678714679477693"><ele>417.0</ele><time>2026-04-11T08:12:01.998Z</time></trkpt><trkpt lat="40.75364034105097" lon="8.678735835012908"><ele>416.5</ele><time>2026-04-11T08:12:02.998Z</time></trkpt><trkpt lat="40.753539145937644" lon="8.678759496103588"><ele>416.0</ele><time>2026-04-11T08:12:03.998Z</time></trkpt><trkpt lat="40.75344154279113" lon="8.678784589320944"><ele>415.5</ele><time>2026-04-11T08:12:04.998Z</time></trkpt><trkpt lat="40.75333210678434" lon="8.678814487663212"><ele>415.0</ele><time>2026-04-11T08:12:05.998Z</time></trkpt><trkpt lat="40.75319995877792" lon="8.678854822982139"><ele>415.0</ele><time>2026-04-11T08:12:06.998Z</time></trkpt><trkpt lat="40.75308458689462" lon="8.678893557302832"><ele>415.0</ele><time>2026-04-11T08:12:07.998Z</time></trkpt><trkpt lat="40.752949589497476" lon="8.678954929855653"><ele>415.0</ele><time>2026-04-11T08:12:08.998Z</time></trkpt><trkpt lat="40.75286262633276" lon="8.6790035378078"><ele>415.0</ele><time>2026-04-11T08:12:09.998Z</time></trkpt><trkpt lat="40.752741720124284" lon="8.67907479728034"><ele>416.0</ele><time>2026-04-11T08:12:10.998Z</time></trkpt><trkpt lat="40.752606720915864" lon="8.679154944336547"><ele>417.0</ele><time>2026-04-11T08:12:11.998Z</time></trkpt><trkpt lat="40.75248851635242" lon="8.679225219387238"><ele>418.0</ele><time>2026-04-11T08:12:12.997Z</time></trkpt><trkpt lat="40.75236094560983" lon="8.679301068049794"><ele>419.0</ele><time>2026-04-11T08:12:13.997Z</time></trkpt><trkpt lat="40.752257142504284" lon="8.679362781308988"><ele>418.5</ele><time>2026-04-11T08:12:14.997Z</time></trkpt><trkpt lat="40.752108434668976" lon="8.679451191305573"><ele>418.0</ele><time>2026-04-11T08:12:15.997Z</time></trkpt><trkpt lat="40.75198489616077" lon="8.679524637734032"><ele>417.5</ele><time>2026-04-11T08:12:16.997Z</time></trkpt><trkpt lat="40.751866197774554" lon="8.679595206516744"><ele>417.0</ele><time>2026-04-11T08:12:17.997Z</time></trkpt><trkpt lat="40.75173932638651" lon="8.67967063436637"><ele>418.20000000000005</ele><time>2026-04-11T08:12:18.997Z</time></trkpt><trkpt lat="40.751633440073846" lon="8.679733586095228"><ele>419.4</ele><time>2026-04-11T08:12:19.997Z</time></trkpt><trkpt lat="40.75154022321776" lon="8.67978747540044"><ele>420.6</ele><time>2026-04-11T08:12:20.997Z</time></trkpt><trkpt lat="40.75146090895155" lon="8.679824511727182"><ele>421.79999999999995</ele><time>2026-04-11T08:12:21.997Z</time></trkpt><trkpt lat="40.751371684814245" lon="8.679860471744123"><ele>423.0</ele><time>2026-04-11T08:12:22.997Z</time></trkpt><trkpt lat="40.75133722211739" lon="8.679994269966711"><ele>423.0</ele><time>2026-04-11T08:12:24.997Z</time></trkpt><trkpt lat="40.751313328269326" lon="8.680094937283123"><ele>423.0</ele><time>2026-04-11T08:12:25.997Z</time></trkpt><trkpt lat="40.75132091652058" lon="8.680221523630262"><ele>423.0</ele><time>2026-04-11T08:12:26.997Z</time></trkpt><trkpt lat="40.75131245948761" lon="8.680342179842928"><ele>423.0</ele><time>2026-04-11T08:12:27.997Z</time></trkpt><trkpt lat="40.75128611531782" lon="8.680473193639513"><ele>423.0</ele><time>2026-04-11T08:12:28.997Z</time></trkpt><trkpt lat="40.751252358328166" lon="8.680619260077696"><ele>423.2</ele><time>2026-04-11T08:12:29.997Z</time></trkpt><trkpt lat="40.751219722373285" lon="8.68075598463442"><ele>423.4</ele><time>2026-04-11T08:12:30.997Z</time></trkpt><trkpt lat="40.75118414944042" lon="8.680891268810212"><ele>423.59999999999997</ele><time>2026-04-11T08:12:31.997Z</time></trkpt><trkpt lat="40.751142867421144" lon="8.68103620602692"><ele>423.79999999999995</ele><time>2026-04-11T08:12:32.997Z</time></trkpt><trkpt lat="40.751095558901085" lon="8.68116006973928"><ele>424.0</ele><time>2026-04-11T08:12:33.997Z</time></trkpt><trkpt lat="40.75104563021196" lon="8.681236842716551"><ele>425.0</ele><time>2026-04-11T08:12:34.997Z</time></trkpt><trkpt lat="40.75097719117722" lon="8.681325175307302"><ele>426.0</ele><time>2026-04-11T08:12:35.997Z</time></trkpt><trkpt lat="40.75087423745749" lon="8.68143913974214"><ele>427.0</ele><time>2026-04-11T08:12:36.997Z</time></trkpt><trkpt lat="40.75076014102064" lon="8.681564162466945"><ele>428.0</ele><time>2026-04-11T08:12:37.997Z</time></trkpt><trkpt lat="40.750645129031305" lon="8.681713323970332"><ele>428.0</ele><time>2026-04-11T08:12:38.997Z</time></trkpt><trkpt lat="40.75055477156997" lon="8.681847296430663"><ele>428.0</ele><time>2026-04-11T08:12:39.997Z</time></trkpt><trkpt lat="40.750475911075775" lon="8.682000134283436"><ele>428.0</ele><time>2026-04-11T08:12:40.997Z</time></trkpt><trkpt lat="40.75038927897893" lon="8.682125614162956"><ele>428.0</ele><time>2026-04-11T08:12:41.997Z</time></trkpt><trkpt lat="40.75030187849281" lon="8.682239186180464"><ele>429.0</ele><time>2026-04-11T08:12:42.997Z</time></trkpt><trkpt lat="40.75018824315654" lon="8.682359374988904"><ele>430.0</ele><time>2026-04-11T08:12:43.997Z</time></trkpt><trkpt lat="40.75006776167327" lon="8.682476560640426"><ele>431.0</ele><time>2026-04-11T08:12:44.997Z</time></trkpt><trkpt lat="40.749948793275635" lon="8.682599479668262"><ele>432.0</ele><time>2026-04-11T08:12:45.997Z</time></trkpt><trkpt lat="40.74981669206586" lon="8.68272903348916"><ele>432.25</ele><time>2026-04-11T08:12:46.997Z</time></trkpt><trkpt lat="40.74969889526598" lon="8.682837277331346"><ele>432.5</ele><time>2026-04-11T08:12:47.997Z</time></trkpt><trkpt lat="40.74956884129833" lon="8.682949623645271"><ele>432.75</ele><time>2026-04-11T08:12:48.997Z</time></trkpt><trkpt lat="40.749446029479124" lon="8.683046982902477"><ele>433.0</ele><time>2026-04-11T08:12:49.997Z</time></trkpt><trkpt lat="40.74932334161554" lon="8.683153754203682"><ele>433.79999999999995</ele><time>2026-04-11T08:12:50.997Z</time></trkpt><trkpt lat="40.74919317014609" lon="8.683242146002994"><ele>434.59999999999997</ele><time>2026-04-11T08:12:51.997Z</time></trkpt><trkpt lat="40.74908842109769" lon="8.683301086268873"><ele>435.40000000000003</ele><time>2026-04-11T08:12:52.997Z</time></trkpt><trkpt lat="40.74899779981469" lon="8.683366929947972"><ele>436.20000000000005</ele><time>2026-04-11T08:12:53.997Z</time></trkpt><trkpt lat="40.74892291955778" lon="8.683421693656241"><ele>437.0</ele><time>2026-04-11T08:12:54.997Z</time></trkpt><trkpt lat="40.74885380657136" lon="8.683488065427882"><ele>437.0</ele><time>2026-04-11T08:12:55.997Z</time></trkpt><trkpt lat="40.74878310944284" lon="8.683546407751182"><ele>437.00000000000006</ele><time>2026-04-11T08:12:56.997Z</time></trkpt><trkpt lat="40.74870859268849" lon="8.683597875171552"><ele>437.00000000000006</ele><time>2026-04-11T08:12:57.997Z</time></trkpt><trkpt lat="40.74861917961292" lon="8.683647119753466"><ele>437.0</ele><time>2026-04-11T08:12:58.997Z</time></trkpt><trkpt lat="40.748554021050396" lon="8.683720071218799"><ele>437.0</ele><time>2026-04-11T08:12:59.997Z</time></trkpt><trkpt lat="40.748461073000335" lon="8.683781643388738"><ele>435.99999999999994</ele><time>2026-04-11T08:13:00.997Z</time></trkpt><trkpt lat="40.74837867999468" lon="8.683835553931106"><ele>435.0</ele><time>2026-04-11T08:13:01.997Z</time></trkpt><trkpt lat="40.74830348055903" lon="8.683879895941361"><ele>434.0</ele><time>2026-04-11T08:13:02.997Z</time></trkpt><trkpt lat="40.74822284660492" lon="8.683935057909464"><ele>433.0</ele><time>2026-04-11T08:13:03.997Z</time></trkpt><trkpt lat="40.74814002806439" lon="8.684015158386682"><ele>431.99999999999994</ele><time>2026-04-11T08:13:04.997Z</time></trkpt><trkpt lat="40.748063091345045" lon="8.68404775423726"><ele>431.0</ele><time>2026-04-11T08:13:05.997Z</time></trkpt><trkpt lat="40.74795791999241" lon="8.684118042012344"><ele>431.0</ele><time>2026-04-11T08:13:06.997Z</time></trkpt><trkpt lat="40.74787680791262" lon="8.684167165891187"><ele>431.0</ele><time>2026-04-11T08:13:07.997Z</time></trkpt><trkpt lat="40.74777983090886" lon="8.684212771497101"><ele>431.0</ele><time>2026-04-11T08:13:08.997Z</time></trkpt><trkpt lat="40.74767991300968" lon="8.684303838549011"><ele>431.0</ele><time>2026-04-11T08:13:09.997Z</time></trkpt><trkpt lat="40.747609706859784" lon="8.684453731633306"><ele>431.0</ele><time>2026-04-11T08:13:10.997Z</time></trkpt><trkpt lat="40.747514430089154" lon="8.684652171933507"><ele>432.0</ele><time>2026-04-11T08:13:11.997Z</time></trkpt><trkpt lat="40.74745503522794" lon="8.684814566615358"><ele>433.0</ele><time>2026-04-11T08:13:12.997Z</time></trkpt><trkpt lat="40.747388185344654" lon="8.684971685690016"><ele>434.0</ele><time>2026-04-11T08:13:13.997Z</time></trkpt><trkpt lat="40.747316408124114" lon="8.685122580560039"><ele>435.0</ele><time>2026-04-11T08:13:14.997Z</time></trkpt><trkpt lat="40.747240816484364" lon="8.685275533215114"><ele>435.25</ele><time>2026-04-11T08:13:15.997Z</time></trkpt><trkpt lat="40.747162312334176" lon="8.685428189624607"><ele>435.5</ele><time>2026-04-11T08:13:16.997Z</time></trkpt><trkpt lat="40.74707460897643" lon="8.685596375479964"><ele>435.75</ele><time>2026-04-11T08:13:17.997Z</time></trkpt><trkpt lat="40.74699398220564" lon="8.685755408957764"><ele>436.0</ele><time>2026-04-11T08:13:18.997Z</time></trkpt><trkpt lat="40.74690868544547" lon="8.685923435784185"><ele>436.25</ele><time>2026-04-11T08:13:19.997Z</time></trkpt><trkpt lat="40.746829495215586" lon="8.686079433333207"><ele>436.5</ele><time>2026-04-11T08:13:20.997Z</time></trkpt><trkpt lat="40.74674687063639" lon="8.68624219616394"><ele>436.75</ele><time>2026-04-11T08:13:21.997Z</time></trkpt><trkpt lat="40.74667063768279" lon="8.686408135732218"><ele>437.0</ele><time>2026-04-11T08:13:22.997Z</time></trkpt><trkpt lat="40.746598529897994" lon="8.686580416878696"><ele>436.25</ele><time>2026-04-11T08:13:23.997Z</time></trkpt><trkpt lat="40.746533055622194" lon="8.686748207308284"><ele>435.5</ele><time>2026-04-11T08:13:24.997Z</time></trkpt><trkpt lat="40.74647080817819" lon="8.686915694198007"><ele>434.75</ele><time>2026-04-11T08:13:25.997Z</time></trkpt><trkpt lat="40.74641386925139" lon="8.687068897912486"><ele>434.0</ele><time>2026-04-11T08:13:26.997Z</time></trkpt><trkpt lat="40.746361887016576" lon="8.687212506146144"><ele>433.75</ele><time>2026-04-11T08:13:27.997Z</time></trkpt><trkpt lat="40.746301478209794" lon="8.687354252780894"><ele>433.5</ele><time>2026-04-11T08:13:28.996Z</time></trkpt><trkpt lat="40.74622468767362" lon="8.687489434446677"><ele>433.25</ele><time>2026-04-11T08:13:29.996Z</time></trkpt><trkpt lat="40.7461327016516" lon="8.687618167920716"><ele>433.0</ele><time>2026-04-11T08:13:30.996Z</time></trkpt><trkpt lat="40.7460317764215" lon="8.68774443333584"><ele>433.75</ele><time>2026-04-11T08:13:31.996Z</time></trkpt><trkpt lat="40.74592504392026" lon="8.68787250843554"><ele>434.5</ele><time>2026-04-11T08:13:32.996Z</time></trkpt><trkpt lat="40.7458238342807" lon="8.688011765576608"><ele>435.25</ele><time>2026-04-11T08:13:33.996Z</time></trkpt><trkpt lat="40.745730723055665" lon="8.688144288446454"><ele>436.0</ele><time>2026-04-11T08:13:34.996Z</time></trkpt><trkpt lat="40.74564539135982" lon="8.688272667514559"><ele>436.0</ele><time>2026-04-11T08:13:35.996Z</time></trkpt><trkpt lat="40.745572945310066" lon="8.688380441127567"><ele>436.0</ele><time>2026-04-11T08:13:36.996Z</time></trkpt><trkpt lat="40.74550406213965" lon="8.688474897873578"><ele>436.0</ele><time>2026-04-11T08:13:37.996Z</time></trkpt><trkpt lat="40.745429133986356" lon="8.688556932660264"><ele>436.0</ele><time>2026-04-11T08:13:38.996Z</time></trkpt><trkpt lat="40.74534260697069" lon="8.688629021698835"><ele>436.0</ele><time>2026-04-11T08:13:39.996Z</time></trkpt><trkpt lat="40.74524677271308" lon="8.688690711966782"><ele>435.5</ele><time>2026-04-11T08:13:40.996Z</time></trkpt><trkpt lat="40.745132783639995" lon="8.688765271604293"><ele>435.0</ele><time>2026-04-11T08:13:41.996Z</time></trkpt><trkpt lat="40.74502467605559" lon="8.688855274692639"><ele>434.5</ele><time>2026-04-11T08:13:42.996Z</time></trkpt><trkpt lat="40.74490138162331" lon="8.688933614819167"><ele>434.0</ele><time>2026-04-11T08:13:43.996Z</time></trkpt><trkpt lat="40.74476501931675" lon="8.689018953362424"><ele>434.0</ele><time>2026-04-11T08:13:44.996Z</time></trkpt><trkpt lat="40.74463350573977" lon="8.68911403324284"><ele>434.0</ele><time>2026-04-11T08:13:45.996Z</time></trkpt><trkpt lat="40.74449892839078" lon="8.689208907560927"><ele>434.0</ele><time>2026-04-11T08:13:46.996Z</time></trkpt><trkpt lat="40.74436252754079" lon="8.68930347949811"><ele>434.66666666666663</ele><time>2026-04-11T08:13:47.996Z</time></trkpt><trkpt lat="40.744214643422616" lon="8.689410859368511"><ele>435.33333333333337</ele><time>2026-04-11T08:13:48.996Z</time></trkpt><trkpt lat="40.744073902358636" lon="8.68952507440632"><ele>436.0</ele><time>2026-04-11T08:13:49.996Z</time></trkpt><trkpt lat="40.743954987035366" lon="8.689658747604906"><ele>434.0</ele><time>2026-04-11T08:13:50.996Z</time></trkpt><trkpt lat="40.74382033890365" lon="8.689789463824392"><ele>432.0</ele><time>2026-04-11T08:13:51.996Z</time></trkpt><trkpt lat="40.74369499898945" lon="8.689912746621596"><ele>430.0</ele><time>2026-04-11T08:13:52.996Z</time></trkpt><trkpt lat="40.74357602162433" lon="8.690069103868055"><ele>429.33333333333337</ele><time>2026-04-11T08:13:53.996Z</time></trkpt><trkpt lat="40.74344397637596" lon="8.690192962882135"><ele>428.66666666666663</ele><time>2026-04-11T08:13:54.996Z</time></trkpt><trkpt lat="40.743312706391016" lon="8.690312320054085"><ele>428.0</ele><time>2026-04-11T08:13:55.996Z</time></trkpt><trkpt lat="40.74319060269483" lon="8.690424970211417"><ele>428.0</ele><time>2026-04-11T08:13:56.996Z</time></trkpt><trkpt lat="40.74308269688103" lon="8.690541788885664"><ele>428.0</ele><time>2026-04-11T08:13:57.996Z</time></trkpt><trkpt lat="40.74297898709622" lon="8.690619545499274"><ele>428.0</ele><time>2026-04-11T08:13:58.996Z</time></trkpt><trkpt lat="40.74288616469712" lon="8.690702463763518"><ele>428.0</ele><time>2026-04-11T08:13:59.996Z</time></trkpt><trkpt lat="40.74279867377903" lon="8.690786085397638"><ele>428.0</ele><time>2026-04-11T08:14:00.996Z</time></trkpt><trkpt lat="40.742720945081054" lon="8.69088339738504"><ele>427.99999999999994</ele><time>2026-04-11T08:14:01.996Z</time></trkpt><trkpt lat="40.742626760517744" lon="8.690945135888747"><ele>427.99999999999994</ele><time>2026-04-11T08:14:02.996Z</time></trkpt><trkpt lat="40.74256309085835" lon="8.691042658766655"><ele>428.0</ele><time>2026-04-11T08:14:03.996Z</time></trkpt><trkpt lat="40.742445813667594" lon="8.691054149730592"><ele>428.0</ele><time>2026-04-11T08:14:04.996Z</time></trkpt><trkpt lat="40.74237635126889" lon="8.691146637096136"><ele>430.4</ele><time>2026-04-11T08:14:05.996Z</time></trkpt><trkpt lat="40.74232799567672" lon="8.691251074480542"><ele>432.79999999999995</ele><time>2026-04-11T08:14:06.996Z</time></trkpt><trkpt lat="40.74227402549797" lon="8.691356828891914"><ele>435.2</ele><time>2026-04-11T08:14:07.996Z</time></trkpt><trkpt lat="40.74221044473199" lon="8.691470851472259"><ele>437.6</ele><time>2026-04-11T08:14:08.996Z</time></trkpt><trkpt lat="40.74213202383166" lon="8.691572827614651"><ele>440.0</ele><time>2026-04-11T08:14:09.996Z</time></trkpt><trkpt lat="40.74203958156104" lon="8.691682046810511"><ele>440.0</ele><time>2026-04-11T08:14:10.996Z</time></trkpt><trkpt lat="40.74193860710757" lon="8.69181000243937"><ele>440.0</ele><time>2026-04-11T08:14:11.996Z</time></trkpt><trkpt lat="40.74184416237638" lon="8.691940750257226"><ele>440.0</ele><time>2026-04-11T08:14:12.996Z</time></trkpt><trkpt lat="40.74175551504577" lon="8.69207135588526"><ele>440.0</ele><time>2026-04-11T08:14:13.996Z</time></trkpt><trkpt lat="40.7416806229359" lon="8.692191101204978"><ele>440.0</ele><time>2026-04-11T08:14:14.996Z</time></trkpt><trkpt lat="40.74160712077601" lon="8.692316002111363"><ele>440.0</ele><time>2026-04-11T08:14:15.996Z</time></trkpt><trkpt lat="40.74154707091133" lon="8.692427839135147"><ele>440.0</ele><time>2026-04-11T08:14:16.996Z</time></trkpt><trkpt lat="40.74148858412034" lon="8.69256051512375"><ele>440.0</ele><time>2026-04-11T08:14:17.996Z</time></trkpt><trkpt lat="40.74144322299354" lon="8.692672863698993"><ele>440.0</ele><time>2026-04-11T08:14:18.996Z</time></trkpt><trkpt lat="40.741399728460664" lon="8.69277351193138"><ele>439.99999999999994</ele><time>2026-04-11T08:14:19.996Z</time></trkpt><trkpt lat="40.74135447377465" lon="8.692872378797283"><ele>440.0</ele><time>2026-04-11T08:14:20.996Z</time></trkpt><trkpt lat="40.74130840915668" lon="8.692963576728411"><ele>440.0</ele><time>2026-04-11T08:14:21.996Z</time></trkpt><trkpt lat="40.74125610796664" lon="8.693063569900797"><ele>440.0</ele><time>2026-04-11T08:14:22.996Z</time></trkpt><trkpt lat="40.74120611992387" lon="8.693154224224358"><ele>439.99999999999994</ele><time>2026-04-11T08:14:23.996Z</time></trkpt><trkpt lat="40.74115101456926" lon="8.693249114942105"><ele>440.0</ele><time>2026-04-11T08:14:24.996Z</time></trkpt><trkpt lat="40.74109562874893" lon="8.69333777729918"><ele>439.99999999999994</ele><time>2026-04-11T08:14:25.996Z</time></trkpt><trkpt lat="40.74105143937281" lon="8.693405569612061"><ele>440.0</ele><time>2026-04-11T08:14:26.996Z</time></trkpt><trkpt lat="40.7410073329372" lon="8.6934732346373"><ele>440.0</ele><time>2026-04-11T08:14:27.996Z</time></trkpt><trkpt lat="40.74095982308804" lon="8.693546120988643"><ele>440.0</ele><time>2026-04-11T08:14:28.996Z</time></trkpt><trkpt lat="40.74088365668746" lon="8.693662970198291"><ele>439.99999999999994</ele><time>2026-04-11T08:14:30.996Z</time></trkpt><trkpt lat="40.740826472638126" lon="8.693750007558773"><ele>440.0</ele><time>2026-04-11T08:14:31.996Z</time></trkpt><trkpt lat="40.74076932299784" lon="8.693831954346617"><ele>435.8</ele><time>2026-04-11T08:14:32.996Z</time></trkpt><trkpt lat="40.74066853043264" lon="8.693925210839136"><ele>431.6</ele><time>2026-04-11T08:14:34.996Z</time></trkpt><trkpt lat="40.740600503511224" lon="8.69392539228254"><ele>427.4</ele><time>2026-04-11T08:14:35.996Z</time></trkpt><trkpt lat="40.740496159761896" lon="8.693936462491225"><ele>423.2</ele><time>2026-04-11T08:14:36.996Z</time></trkpt><trkpt lat="40.74042389337156" lon="8.693990124213888"><ele>419.0</ele><time>2026-04-11T08:14:37.996Z</time></trkpt><trkpt lat="40.74036491345027" lon="8.69407835848352"><ele>418.99999999999994</ele><time>2026-04-11T08:14:38.996Z</time></trkpt><trkpt lat="40.74032182651306" lon="8.694186209139882"><ele>419.0</ele><time>2026-04-11T08:14:39.996Z</time></trkpt><trkpt lat="40.74027937098581" lon="8.694278453196105"><ele>419.0</ele><time>2026-04-11T08:14:40.996Z</time></trkpt><trkpt lat="40.74022238094078" lon="8.694354351899584"><ele>419.0</ele><time>2026-04-11T08:14:41.996Z</time></trkpt><trkpt lat="40.7401673725344" lon="8.69440276920966"><ele>418.99999999999994</ele><time>2026-04-11T08:14:42.996Z</time></trkpt><trkpt lat="40.740087360919546" lon="8.6944573534891"><ele>419.0</ele><time>2026-04-11T08:14:43.996Z</time></trkpt><trkpt lat="40.740023046230725" lon="8.694496489410188"><ele>418.0</ele><time>2026-04-11T08:14:44.995Z</time></trkpt><trkpt lat="40.73994990074147" lon="8.694532130614895"><ele>417.0</ele><time>2026-04-11T08:14:45.995Z</time></trkpt><trkpt lat="40.7398652248077" lon="8.69457695507514"><ele>416.0</ele><time>2026-04-11T08:14:46.995Z</time></trkpt><trkpt lat="40.73978073896211" lon="8.694654182911997"><ele>415.0</ele><time>2026-04-11T08:14:47.995Z</time></trkpt><trkpt lat="40.73971927253104" lon="8.694779085105644"><ele>414.0</ele><time>2026-04-11T08:14:48.995Z</time></trkpt><trkpt lat="40.73968418750098" lon="8.694876761356438"><ele>414.0</ele><time>2026-04-11T08:14:49.995Z</time></trkpt><trkpt lat="40.73964298991454" lon="8.694986836472806"><ele>414.0</ele><time>2026-04-11T08:14:50.995Z</time></trkpt><trkpt lat="40.73959642270689" lon="8.695100128509393"><ele>414.0</ele><time>2026-04-11T08:14:51.995Z</time></trkpt><trkpt lat="40.73954150415011" lon="8.69522607939572"><ele>414.0</ele><time>2026-04-11T08:14:52.995Z</time></trkpt><trkpt lat="40.73948628359186" lon="8.695346052738529"><ele>414.0</ele><time>2026-04-11T08:14:53.995Z</time></trkpt><trkpt lat="40.73942723058723" lon="8.695459634001585"><ele>417.4</ele><time>2026-04-11T08:14:54.995Z</time></trkpt><trkpt lat="40.73936861757045" lon="8.695573860156754"><ele>420.79999999999995</ele><time>2026-04-11T08:14:55.995Z</time></trkpt><trkpt lat="40.7393202738144" lon="8.695675594636452"><ele>424.20000000000005</ele><time>2026-04-11T08:14:56.995Z</time></trkpt><trkpt lat="40.73927929201306" lon="8.695784316427716"><ele>427.6</ele><time>2026-04-11T08:14:57.995Z</time></trkpt><trkpt lat="40.73924535541844" lon="8.69593138293881"><ele>431.0</ele><time>2026-04-11T08:14:58.995Z</time></trkpt><trkpt lat="40.739219632356345" lon="8.696060788338857"><ele>429.75</ele><time>2026-04-11T08:14:59.995Z</time></trkpt><trkpt lat="40.739182301572896" lon="8.696201629896843"><ele>428.5</ele><time>2026-04-11T08:15:00.995Z</time></trkpt><trkpt lat="40.739119105450925" lon="8.696366365437424"><ele>427.25</ele><time>2026-04-11T08:15:01.995Z</time></trkpt><trkpt lat="40.73907997610179" lon="8.696526908575237"><ele>426.0</ele><time>2026-04-11T08:15:02.995Z</time></trkpt><trkpt lat="40.73905247432814" lon="8.696698988524494"><ele>426.0</ele><time>2026-04-11T08:15:03.995Z</time></trkpt><trkpt lat="40.739034759123186" lon="8.696858272516618"><ele>426.0</ele><time>2026-04-11T08:15:04.995Z</time></trkpt><trkpt lat="40.73901008420571" lon="8.696959622163863"><ele>426.0</ele><time>2026-04-11T08:15:05.995Z</time></trkpt><trkpt lat="40.7389827654703" lon="8.697071018863541"><ele>426.0</ele><time>2026-04-11T08:15:06.995Z</time></trkpt><trkpt lat="40.73895607504451" lon="8.697174935628976"><ele>426.0</ele><time>2026-04-11T08:15:07.995Z</time></trkpt><trkpt lat="40.73893357011794" lon="8.697263515564773"><ele>426.0</ele><time>2026-04-11T08:15:08.995Z</time></trkpt><trkpt lat="40.73890863656548" lon="8.697352023317336"><ele>424.6</ele><time>2026-04-11T08:15:09.995Z</time></trkpt><trkpt lat="40.73886621997235" lon="8.697443370121295"><ele>423.20000000000005</ele><time>2026-04-11T08:15:10.995Z</time></trkpt><trkpt lat="40.73879799712641" lon="8.697533160757947"><ele>421.79999999999995</ele><time>2026-04-11T08:15:11.995Z</time></trkpt><trkpt lat="40.73873150776901" lon="8.697635101197822"><ele>420.4</ele><time>2026-04-11T08:15:12.995Z</time></trkpt><trkpt lat="40.73867124694982" lon="8.69773303451561"><ele>419.0</ele><time>2026-04-11T08:15:13.995Z</time></trkpt><trkpt lat="40.738604416406524" lon="8.697845103269009"><ele>418.8333333333333</ele><time>2026-04-11T08:15:14.995Z</time></trkpt><trkpt lat="40.73855194106317" lon="8.697940098212474"><ele>418.66666666666663</ele><time>2026-04-11T08:15:15.995Z</time></trkpt><trkpt lat="40.73850421084613" lon="8.698030414766412"><ele>418.5</ele><time>2026-04-11T08:15:16.995Z</time></trkpt><trkpt lat="40.7384500752009" lon="8.698126876087983"><ele>418.33333333333337</ele><time>2026-04-11T08:15:17.995Z</time></trkpt><trkpt lat="40.738390683444514" lon="8.698199681107303"><ele>418.1666666666667</ele><time>2026-04-11T08:15:18.995Z</time></trkpt><trkpt lat="40.73833163586745" lon="8.698250219433655"><ele>418.0</ele><time>2026-04-11T08:15:19.995Z</time></trkpt><trkpt lat="40.73822746643109" lon="8.698334253506852"><ele>421.2</ele><time>2026-04-11T08:15:20.995Z</time></trkpt><trkpt lat="40.73814406426073" lon="8.698424190812029"><ele>424.4</ele><time>2026-04-11T08:15:21.995Z</time></trkpt><trkpt lat="40.73807175792747" lon="8.698516077289849"><ele>427.59999999999997</ele><time>2026-04-11T08:15:22.995Z</time></trkpt><trkpt lat="40.738018295228386" lon="8.698597615604955"><ele>430.79999999999995</ele><time>2026-04-11T08:15:23.995Z</time></trkpt><trkpt lat="40.73794981681236" lon="8.698718022316198"><ele>434.0</ele><time>2026-04-11T08:15:24.995Z</time></trkpt><trkpt lat="40.73789830166838" lon="8.69883816817599"><ele>434.0</ele><time>2026-04-11T08:15:25.995Z</time></trkpt><trkpt lat="40.73784920729153" lon="8.698935816868921"><ele>434.0</ele><time>2026-04-11T08:15:26.995Z</time></trkpt><trkpt lat="40.737789323505204" lon="8.699040931050973"><ele>434.0</ele><time>2026-04-11T08:15:27.995Z</time></trkpt><trkpt lat="40.737725241088796" lon="8.699153415235093"><ele>434.0</ele><time>2026-04-11T08:15:28.995Z</time></trkpt><trkpt lat="40.73767073386582" lon="8.69924909186434"><ele>434.0</ele><time>2026-04-11T08:15:29.999Z</time></trkpt><trkpt lat="40.73761450608878" lon="8.699353050530975"><ele>435.5</ele><time>2026-04-11T08:15:30.999Z</time></trkpt><trkpt lat="40.737545791996546" lon="8.699492872058348"><ele>437.0</ele><time>2026-04-11T08:15:31.999Z</time></trkpt><trkpt lat="40.73748388637883" lon="8.69962785715981"><ele>438.5</ele><time>2026-04-11T08:15:32.999Z</time></trkpt><trkpt lat="40.737414254259406" lon="8.699771497661416"><ele>440.0</ele><time>2026-04-11T08:15:33.999Z</time></trkpt><trkpt lat="40.737342562813765" lon="8.699893583492704"><ele>440.0</ele><time>2026-04-11T08:15:34.999Z</time></trkpt><trkpt lat="40.73725764269186" lon="8.700013852192411"><ele>440.0</ele><time>2026-04-11T08:15:36.999Z</time></trkpt><trkpt lat="40.737183575123375" lon="8.700104588026086"><ele>440.0</ele><time>2026-04-11T08:15:37.999Z</time></trkpt><trkpt lat="40.73710461042861" lon="8.700178182862874"><ele>440.0</ele><time>2026-04-11T08:15:38.999Z</time></trkpt><trkpt lat="40.73704815291605" lon="8.70026762776083"><ele>440.0</ele><time>2026-04-11T08:15:39.999Z</time></trkpt><trkpt lat="40.73698271186211" lon="8.700339306875362"><ele>439.4</ele><time>2026-04-11T08:15:40.999Z</time></trkpt><trkpt lat="40.73692833326464" lon="8.70041328691553"><ele>438.8</ele><time>2026-04-11T08:15:41.999Z</time></trkpt><trkpt lat="40.73682990198065" lon="8.70050202565358"><ele>438.20000000000005</ele><time>2026-04-11T08:15:42.999Z</time></trkpt><trkpt lat="40.73673540601892" lon="8.700547094723085"><ele>437.6</ele><time>2026-04-11T08:15:43.999Z</time></trkpt><trkpt lat="40.73662931368525" lon="8.700579778584496"><ele>437.0</ele><time>2026-04-11T08:15:44.999Z</time></trkpt><trkpt lat="40.73652865549822" lon="8.700600449691725"><ele>437.0</ele><time>2026-04-11T08:15:45.999Z</time></trkpt><trkpt lat="40.73643339404218" lon="8.700607640391345"><ele>437.00000000000006</ele><time>2026-04-11T08:15:46.999Z</time></trkpt><trkpt lat="40.73631733963942" lon="8.700602564201793"><ele>437.00000000000006</ele><time>2026-04-11T08:15:47.999Z</time></trkpt><trkpt lat="40.736217188660724" lon="8.700579345874162"><ele>437.0</ele><time>2026-04-11T08:15:48.999Z</time></trkpt><trkpt lat="40.736112801679035" lon="8.700560988247572"><ele>437.0</ele><time>2026-04-11T08:15:49.999Z</time></trkpt><trkpt lat="40.7360424944604" lon="8.700556269787256"><ele>437.40000000000003</ele><time>2026-04-11T08:15:50.999Z</time></trkpt><trkpt lat="40.73595099134991" lon="8.700551655163968"><ele>437.80000000000007</ele><time>2026-04-11T08:15:52.999Z</time></trkpt><trkpt lat="40.73582765138265" lon="8.700525335857902"><ele>438.2</ele><time>2026-04-11T08:15:54.999Z</time></trkpt><trkpt lat="40.735731031483006" lon="8.700564034322426"><ele>438.6</ele><time>2026-04-11T08:15:55.999Z</time></trkpt><trkpt lat="40.735613668915434" lon="8.700621257263949"><ele>439.0</ele><time>2026-04-11T08:15:56.999Z</time></trkpt><trkpt lat="40.73547465677309" lon="8.700644848996953"><ele>439.0</ele><time>2026-04-11T08:15:57.999Z</time></trkpt><trkpt lat="40.735377947615696" lon="8.700661189654292"><ele>439.0</ele><time>2026-04-11T08:15:58.999Z</time></trkpt><trkpt lat="40.73527870752796" lon="8.700689753338798"><ele>439.0</ele><time>2026-04-11T08:15:59.999Z</time></trkpt><trkpt lat="40.735184164827466" lon="8.700714559161792"><ele>439.0</ele><time>2026-04-11T08:16:00.999Z</time></trkpt><trkpt lat="40.73509347457278" lon="8.7007563892872"><ele>439.0</ele><time>2026-04-11T08:16:01.999Z</time></trkpt><trkpt lat="40.73501284916946" lon="8.700808586853631"><ele>439.2</ele><time>2026-04-11T08:16:02.999Z</time></trkpt><trkpt lat="40.734941440687074" lon="8.700875550427188"><ele>439.4</ele><time>2026-04-11T08:16:03.999Z</time></trkpt><trkpt lat="40.73486822645707" lon="8.700975132507597"><ele>439.6</ele><time>2026-04-11T08:16:04.999Z</time></trkpt><trkpt lat="40.73478935304563" lon="8.701082131731685"><ele>439.8</ele><time>2026-04-11T08:16:05.999Z</time></trkpt><trkpt lat="40.73473439986555" lon="8.70120586626929"><ele>440.0</ele><time>2026-04-11T08:16:06.999Z</time></trkpt><trkpt lat="40.734670792000784" lon="8.70131283582862"><ele>440.0</ele><time>2026-04-11T08:16:07.999Z</time></trkpt><trkpt lat="40.73459308256801" lon="8.701400724767055"><ele>440.0</ele><time>2026-04-11T08:16:08.999Z</time></trkpt><trkpt lat="40.734517031121214" lon="8.701489487904812"><ele>440.0</ele><time>2026-04-11T08:16:09.999Z</time></trkpt><trkpt lat="40.73442330380535" lon="8.701565813368058"><ele>440.0</ele><time>2026-04-11T08:16:10.999Z</time></trkpt><trkpt lat="40.734337031278905" lon="8.701668120561356"><ele>440.0</ele><time>2026-04-11T08:16:11.999Z</time></trkpt><trkpt lat="40.73424408804023" lon="8.701750048158871"><ele>440.0</ele><time>2026-04-11T08:16:12.999Z</time></trkpt><trkpt lat="40.73414427069942" lon="8.701827938200998"><ele>440.0</ele><time>2026-04-11T08:16:13.999Z</time></trkpt><trkpt lat="40.734070893057876" lon="8.701947220885595"><ele>440.0</ele><time>2026-04-11T08:16:14.999Z</time></trkpt><trkpt lat="40.73399832081429" lon="8.702079860985725"><ele>440.0</ele><time>2026-04-11T08:16:15.999Z</time></trkpt><trkpt lat="40.733918565251905" lon="8.702210085207506"><ele>438.4</ele><time>2026-04-11T08:16:16.999Z</time></trkpt><trkpt lat="40.733849933420615" lon="8.702344086418655"><ele>436.8</ele><time>2026-04-11T08:16:17.999Z</time></trkpt><trkpt lat="40.73379224386766" lon="8.702465519791508"><ele>435.20000000000005</ele><time>2026-04-11T08:16:18.999Z</time></trkpt><trkpt lat="40.73374475697661" lon="8.702565030926841"><ele>433.6</ele><time>2026-04-11T08:16:19.999Z</time></trkpt><trkpt lat="40.73369019432156" lon="8.702646880618616"><ele>432.0</ele><time>2026-04-11T08:16:20.999Z</time></trkpt><trkpt lat="40.733619591672145" lon="8.70274140057705"><ele>433.5</ele><time>2026-04-11T08:16:21.999Z</time></trkpt><trkpt lat="40.73351169919946" lon="8.702808131012285"><ele>435.0</ele><time>2026-04-11T08:16:22.999Z</time></trkpt><trkpt lat="40.73340897106583" lon="8.702916616818765"><ele>436.5</ele><time>2026-04-11T08:16:23.999Z</time></trkpt><trkpt lat="40.73331822254265" lon="8.703040578585407"><ele>438.0</ele><time>2026-04-11T08:16:24.999Z</time></trkpt><trkpt lat="40.73322173057886" lon="8.703139162389075"><ele>438.0</ele><time>2026-04-11T08:16:25.999Z</time></trkpt><trkpt lat="40.73313766315123" lon="8.703231454368305"><ele>438.0</ele><time>2026-04-11T08:16:26.999Z</time></trkpt><trkpt lat="40.733067753857796" lon="8.703317429315682"><ele>438.0</ele><time>2026-04-11T08:16:27.999Z</time></trkpt><trkpt lat="40.7330192109506" lon="8.703407572364464"><ele>438.0</ele><time>2026-04-11T08:16:28.999Z</time></trkpt><trkpt lat="40.73297737377561" lon="8.70351629362796"><ele>438.0</ele><time>2026-04-11T08:16:30.999Z</time></trkpt><trkpt lat="40.732938092464764" lon="8.703581299311777"><ele>438.0</ele><time>2026-04-11T08:16:35.999Z</time></trkpt><trkpt lat="40.73296692086563" lon="8.703503481779565"><ele>438.0</ele><time>2026-04-11T08:17:37.998Z</time></trkpt><trkpt lat="40.732981144673154" lon="8.703372304366829"><ele>437.99999999999994</ele><time>2026-04-11T08:17:56.998Z</time></trkpt><trkpt lat="40.733020238298515" lon="8.703296370017279"><ele>437.99999999999994</ele><time>2026-04-11T08:17:58.998Z</time></trkpt><trkpt lat="40.73309459447573" lon="8.703162193736443"><ele>438.0</ele><time>2026-04-11T08:18:00.998Z</time></trkpt><trkpt lat="40.73313849876639" lon="8.703085612861102"><ele>438.0</ele><time>2026-04-11T08:18:01.998Z</time></trkpt><trkpt lat="40.733179700773995" lon="8.702986759586908"><ele>438.0</ele><time>2026-04-11T08:18:02.998Z</time></trkpt><trkpt lat="40.73317516227075" lon="8.702791672509159"><ele>437.99999999999994</ele><time>2026-04-11T08:18:04.998Z</time></trkpt><trkpt lat="40.733118673537966" lon="8.702743682717553"><ele>437.99999999999994</ele><time>2026-04-11T08:18:05.998Z</time></trkpt><trkpt lat="40.733042406729545" lon="8.70276233815249"><ele>438.0</ele><time>2026-04-11T08:18:08.998Z</time></trkpt><trkpt lat="40.73305713802662" lon="8.702965214344967"><ele>438.0</ele><time>2026-04-11T08:18:09.998Z</time></trkpt><trkpt lat="40.73292858179108" lon="8.702930861014188"><ele>438.0</ele><time>2026-04-11T08:18:10.998Z</time></trkpt><trkpt lat="40.73287979610397" lon="8.702994870323877"><ele>438.0</ele><time>2026-04-11T08:18:11.998Z</time></trkpt><trkpt lat="40.732781394390976" lon="8.70304875249953"><ele>438.0</ele><time>2026-04-11T08:18:13.998Z</time></trkpt><trkpt lat="40.7327143991726" lon="8.703071709668915"><ele>438.0</ele><time>2026-04-11T08:18:14.998Z</time></trkpt><trkpt lat="40.73266616258829" lon="8.703012163354506"><ele>438.0</ele><time>2026-04-11T08:18:15.998Z</time></trkpt><trkpt lat="40.732604145824645" lon="8.702886177807267"><ele>438.0</ele><time>2026-04-11T08:18:17.998Z</time></trkpt><trkpt lat="40.73260135470545" lon="8.70275546317389"><ele>440.79999999999995</ele><time>2026-04-11T08:18:19.998Z</time></trkpt><trkpt lat="40.73264679501667" lon="8.702664983510683"><ele>443.59999999999997</ele><time>2026-04-11T08:18:21.998Z</time></trkpt><trkpt lat="40.732482695302195" lon="8.702716850840574"><ele>446.40000000000003</ele><time>2026-04-11T08:18:28.998Z</time></trkpt><trkpt lat="40.73241930803824" lon="8.702781524359821"><ele>449.20000000000005</ele><time>2026-04-11T08:18:29.998Z</time></trkpt><trkpt lat="40.73235231483654" lon="8.702850555386494"><ele>452.0</ele><time>2026-04-11T08:18:30.998Z</time></trkpt><trkpt lat="40.73228644232114" lon="8.702924562825894"><ele>452.0</ele><time>2026-04-11T08:18:31.998Z</time></trkpt><trkpt lat="40.73221572908575" lon="8.703008543198342"><ele>452.00000000000006</ele><time>2026-04-11T08:18:32.998Z</time></trkpt><trkpt lat="40.732142432140364" lon="8.703102615158818"><ele>452.00000000000006</ele><time>2026-04-11T08:18:33.998Z</time></trkpt><trkpt lat="40.73206338333562" lon="8.703204069124592"><ele>452.0</ele><time>2026-04-11T08:18:34.998Z</time></trkpt><trkpt lat="40.73198059375686" lon="8.703310324589658"><ele>452.0</ele><time>2026-04-11T08:18:35.998Z</time></trkpt><trkpt lat="40.7318954777977" lon="8.703418375777108"><ele>452.6</ele><time>2026-04-11T08:18:36.998Z</time></trkpt><trkpt lat="40.73181129527331" lon="8.70352493360876"><ele>453.20000000000005</ele><time>2026-04-11T08:18:37.998Z</time></trkpt><trkpt lat="40.73173247020089" lon="8.703624709872644"><ele>453.8</ele><time>2026-04-11T08:18:38.998Z</time></trkpt><trkpt lat="40.7316603715327" lon="8.703715249142483"><ele>454.4</ele><time>2026-04-11T08:18:39.998Z</time></trkpt><trkpt lat="40.731593971606245" lon="8.703802764718915"><ele>455.0</ele><time>2026-04-11T08:18:40.998Z</time></trkpt><trkpt lat="40.73150466415486" lon="8.703835100164035"><ele>455.0</ele><time>2026-04-11T08:18:41.998Z</time></trkpt><trkpt lat="40.73141176181439" lon="8.703816187122841"><ele>455.0</ele><time>2026-04-11T08:18:42.998Z</time></trkpt><trkpt lat="40.731321132928485" lon="8.703755376332552"><ele>455.0</ele><time>2026-04-11T08:18:43.998Z</time></trkpt><trkpt lat="40.73122624076092" lon="8.703685093124298"><ele>455.0</ele><time>2026-04-11T08:18:44.999Z</time></trkpt><trkpt lat="40.73112740499299" lon="8.70361897526479"><ele>455.0</ele><time>2026-04-11T08:18:45.999Z</time></trkpt><trkpt lat="40.73102378193313" lon="8.703568626226211"><ele>455.0</ele><time>2026-04-11T08:18:46.999Z</time></trkpt><trkpt lat="40.73090788263783" lon="8.703535810934802"><ele>455.0</ele><time>2026-04-11T08:18:47.999Z</time></trkpt><trkpt lat="40.73077662916012" lon="8.703510058181488"><ele>455.0</ele><time>2026-04-11T08:18:48.999Z</time></trkpt><trkpt lat="40.73064386681744" lon="8.703542114513228"><ele>455.0</ele><time>2026-04-11T08:18:49.999Z</time></trkpt><trkpt lat="40.73051298053297" lon="8.703603075467809"><ele>455.0</ele><time>2026-04-11T08:18:50.998Z</time></trkpt><trkpt lat="40.730376839855275" lon="8.703644204307432"><ele>455.0</ele><time>2026-04-11T08:18:51.998Z</time></trkpt><trkpt lat="40.73023394018417" lon="8.703667091285599"><ele>455.0</ele><time>2026-04-11T08:18:52.998Z</time></trkpt><trkpt lat="40.730090569572276" lon="8.703709201557004"><ele>455.0</ele><time>2026-04-11T08:18:53.998Z</time></trkpt><trkpt lat="40.72994447535808" lon="8.703752111780961"><ele>455.66666666666663</ele><time>2026-04-11T08:18:54.998Z</time></trkpt><trkpt lat="40.72979524572132" lon="8.703795924022517"><ele>456.33333333333337</ele><time>2026-04-11T08:18:55.998Z</time></trkpt><trkpt lat="40.72964268461939" lon="8.703839317090752"><ele>457.0</ele><time>2026-04-11T08:18:56.998Z</time></trkpt><trkpt lat="40.72948598271966" lon="8.70389500024444"><ele>458.6666666666667</ele><time>2026-04-11T08:18:57.998Z</time></trkpt><trkpt lat="40.72932205057802" lon="8.703998304637858"><ele>460.33333333333337</ele><time>2026-04-11T08:18:58.998Z</time></trkpt><trkpt lat="40.729157034820034" lon="8.704094258139843"><ele>462.0</ele><time>2026-04-11T08:18:59.998Z</time></trkpt><trkpt lat="40.72900688251083" lon="8.70419887862631"><ele>462.0</ele><time>2026-04-11T08:19:00.998Z</time></trkpt><trkpt lat="40.72887520464876" lon="8.704299153866948"><ele>462.0</ele><time>2026-04-11T08:19:01.998Z</time></trkpt><trkpt lat="40.72874982155765" lon="8.704404829944748"><ele>462.0</ele><time>2026-04-11T08:19:02.998Z</time></trkpt><trkpt lat="40.72863284203921" lon="8.704478483533348"><ele>462.0</ele><time>2026-04-11T08:19:03.998Z</time></trkpt><trkpt lat="40.72851974175858" lon="8.704555757584487"><ele>460.5</ele><time>2026-04-11T08:19:04.998Z</time></trkpt><trkpt lat="40.72840006678137" lon="8.70464587322478"><ele>459.0</ele><time>2026-04-11T08:19:05.998Z</time></trkpt><trkpt lat="40.7282609489507" lon="8.704686381247175"><ele>457.5</ele><time>2026-04-11T08:19:06.998Z</time></trkpt><trkpt lat="40.728128373118814" lon="8.704713881439465"><ele>456.0</ele><time>2026-04-11T08:19:07.998Z</time></trkpt><trkpt lat="40.72796533885708" lon="8.704748934847203"><ele>456.0</ele><time>2026-04-11T08:19:08.998Z</time></trkpt><trkpt lat="40.7277877711768" lon="8.7047849229833"><ele>456.0</ele><time>2026-04-11T08:19:09.998Z</time></trkpt><trkpt lat="40.727614358653746" lon="8.704820068906347"><ele>456.0</ele><time>2026-04-11T08:19:10.998Z</time></trkpt><trkpt lat="40.727459565858496" lon="8.704851441254766"><ele>455.5</ele><time>2026-04-11T08:19:11.998Z</time></trkpt><trkpt lat="40.7272870460525" lon="8.704886518461207"><ele>455.0</ele><time>2026-04-11T08:19:12.998Z</time></trkpt><trkpt lat="40.72716163605922" lon="8.704886869977884"><ele>454.5</ele><time>2026-04-11T08:19:13.998Z</time></trkpt><trkpt lat="40.72704227516366" lon="8.704878619192506"><ele>454.0</ele><time>2026-04-11T08:19:14.998Z</time></trkpt><trkpt lat="40.726960323874806" lon="8.7049491533723"><ele>454.0</ele><time>2026-04-11T08:19:15.998Z</time></trkpt><trkpt lat="40.726910981962874" lon="8.705032916292607"><ele>454.0</ele><time>2026-04-11T08:19:16.998Z</time></trkpt><trkpt lat="40.726883178231695" lon="8.705154563052446"><ele>454.0</ele><time>2026-04-11T08:19:17.998Z</time></trkpt><trkpt lat="40.72687690952136" lon="8.705289494024056"><ele>454.0</ele><time>2026-04-11T08:19:18.998Z</time></trkpt><trkpt lat="40.72687713028158" lon="8.705434534991126"><ele>454.0</ele><time>2026-04-11T08:19:19.998Z</time></trkpt><trkpt lat="40.72687744617031" lon="8.705592922954184"><ele>454.75</ele><time>2026-04-11T08:19:20.998Z</time></trkpt><trkpt lat="40.72687744617121" lon="8.705751866556417"><ele>455.5</ele><time>2026-04-11T08:19:21.998Z</time></trkpt><trkpt lat="40.72687744616966" lon="8.70592040662649"><ele>456.25</ele><time>2026-04-11T08:19:22.998Z</time></trkpt><trkpt lat="40.726876718536765" lon="8.70608055792346"><ele>457.0</ele><time>2026-04-11T08:19:23.998Z</time></trkpt><trkpt lat="40.72686114016865" lon="8.706244018869944"><ele>456.00000000000006</ele><time>2026-04-11T08:19:24.998Z</time></trkpt><trkpt lat="40.72687754163164" lon="8.706375661721301"><ele>455.0</ele><time>2026-04-11T08:19:25.998Z</time></trkpt><trkpt lat="40.726865745756925" lon="8.706485070415397"><ele>454.0</ele><time>2026-04-11T08:19:26.998Z</time></trkpt><trkpt lat="40.72683117287482" lon="8.706566218476116"><ele>453.0</ele><time>2026-04-11T08:19:27.998Z</time></trkpt><trkpt lat="40.72677192276021" lon="8.706642010748382"><ele>452.00000000000006</ele><time>2026-04-11T08:19:28.998Z</time></trkpt><trkpt lat="40.72668888729153" lon="8.706691262284368"><ele>451.0</ele><time>2026-04-11T08:19:29.998Z</time></trkpt><trkpt lat="40.72657457004023" lon="8.706698803770383"><ele>451.0</ele><time>2026-04-11T08:19:30.998Z</time></trkpt><trkpt lat="40.72644830150084" lon="8.706684757866567"><ele>451.0</ele><time>2026-04-11T08:19:31.998Z</time></trkpt><trkpt lat="40.726311635137016" lon="8.706678880984695"><ele>451.0</ele><time>2026-04-11T08:19:32.998Z</time></trkpt><trkpt lat="40.72616065933018" lon="8.706656279243418"><ele>451.0</ele><time>2026-04-11T08:19:33.998Z</time></trkpt><trkpt lat="40.72601391540863" lon="8.706662885193563"><ele>451.0</ele><time>2026-04-11T08:19:34.998Z</time></trkpt><trkpt lat="40.725869143243344" lon="8.706664857825862"><ele>451.0</ele><time>2026-04-11T08:19:35.998Z</time></trkpt><trkpt lat="40.725738702378166" lon="8.706648304629582"><ele>451.0</ele><time>2026-04-11T08:19:36.998Z</time></trkpt><trkpt lat="40.72560978369216" lon="8.706619839616154"><ele>451.0</ele><time>2026-04-11T08:19:37.998Z</time></trkpt><trkpt lat="40.72548221995275" lon="8.706613593014582"><ele>451.0</ele><time>2026-04-11T08:19:38.998Z</time></trkpt><trkpt lat="40.72538295062131" lon="8.706667089649343"><ele>451.0</ele><time>2026-04-11T08:19:39.998Z</time></trkpt><trkpt lat="40.725311857600836" lon="8.706774161197902"><ele>451.0</ele><time>2026-04-11T08:19:40.998Z</time></trkpt><trkpt lat="40.725249938485376" lon="8.706909090618964"><ele>451.0</ele><time>2026-04-11T08:19:41.998Z</time></trkpt><trkpt lat="40.72520669720492" lon="8.707076833219743"><ele>450.33333333333337</ele><time>2026-04-11T08:19:42.998Z</time></trkpt><trkpt lat="40.72516862001205" lon="8.707248823193611"><ele>449.66666666666663</ele><time>2026-04-11T08:19:43.998Z</time></trkpt><trkpt lat="40.72512473467161" lon="8.70744799037047"><ele>449.0</ele><time>2026-04-11T08:19:44.998Z</time></trkpt><trkpt lat="40.72508007363037" lon="8.707648699113639"><ele>448.0</ele><time>2026-04-11T08:19:45.998Z</time></trkpt><trkpt lat="40.72503016327218" lon="8.707871365883646"><ele>447.0</ele><time>2026-04-11T08:19:46.998Z</time></trkpt><trkpt lat="40.724981783373565" lon="8.7080872046709"><ele>446.0</ele><time>2026-04-11T08:19:47.998Z</time></trkpt><trkpt lat="40.724937375114955" lon="8.708285324798874"><ele>446.0</ele><time>2026-04-11T08:19:48.998Z</time></trkpt><trkpt lat="40.72488812975671" lon="8.708505024809968"><ele>446.0</ele><time>2026-04-11T08:19:49.998Z</time></trkpt><trkpt lat="40.724841598549276" lon="8.708712616027368"><ele>446.0</ele><time>2026-04-11T08:19:50.998Z</time></trkpt><trkpt lat="40.72478895109985" lon="8.708947493763212"><ele>445.0</ele><time>2026-04-11T08:19:51.998Z</time></trkpt><trkpt lat="40.72474205504585" lon="8.709156712769305"><ele>444.0</ele><time>2026-04-11T08:19:52.998Z</time></trkpt><trkpt lat="40.72469248118323" lon="8.709377878324998"><ele>443.0</ele><time>2026-04-11T08:19:53.998Z</time></trkpt><trkpt lat="40.72464316212072" lon="8.709597907196624"><ele>443.0</ele><time>2026-04-11T08:19:54.998Z</time></trkpt><trkpt lat="40.72459562752138" lon="8.709809974845845"><ele>443.0</ele><time>2026-04-11T08:19:55.998Z</time></trkpt><trkpt lat="40.724552160325445" lon="8.710003896412845"><ele>443.0</ele><time>2026-04-11T08:19:56.998Z</time></trkpt><trkpt lat="40.7245160826332" lon="8.710164851168697"><ele>443.0</ele><time>2026-04-11T08:19:57.998Z</time></trkpt><trkpt lat="40.7244793146945" lon="8.71032888511341"><ele>443.75</ele><time>2026-04-11T08:19:58.998Z</time></trkpt><trkpt lat="40.72443656768275" lon="8.71051746980318"><ele>444.5</ele><time>2026-04-11T08:19:59.998Z</time></trkpt><trkpt lat="40.72440298781377" lon="8.71066535139701"><ele>445.25</ele><time>2026-04-11T08:20:00.998Z</time></trkpt><trkpt lat="40.72437027172382" lon="8.710832595103737"><ele>446.0</ele><time>2026-04-11T08:20:01.998Z</time></trkpt><trkpt lat="40.72437122521196" lon="8.711013231626904"><ele>447.4</ele><time>2026-04-11T08:20:02.998Z</time></trkpt><trkpt lat="40.724434370225126" lon="8.711164097743543"><ele>448.8</ele><time>2026-04-11T08:20:03.998Z</time></trkpt><trkpt lat="40.72453253123614" lon="8.71121363542935"><ele>450.19999999999993</ele><time>2026-04-11T08:20:04.998Z</time></trkpt><trkpt lat="40.72460271104297" lon="8.711262219553992"><ele>451.59999999999997</ele><time>2026-04-11T08:20:05.998Z</time></trkpt><trkpt lat="40.72468413142563" lon="8.71128399014922"><ele>453.0</ele><time>2026-04-11T08:20:06.998Z</time></trkpt><trkpt lat="40.72477915199294" lon="8.711239225514683"><ele>453.0</ele><time>2026-04-11T08:20:07.998Z</time></trkpt><trkpt lat="40.72487134305904" lon="8.711178477103038"><ele>452.99999999999994</ele><time>2026-04-11T08:20:08.998Z</time></trkpt><trkpt lat="40.72498470543799" lon="8.71114922066863"><ele>452.99999999999994</ele><time>2026-04-11T08:20:09.998Z</time></trkpt><trkpt lat="40.72509532526596" lon="8.711129302879877"><ele>453.0</ele><time>2026-04-11T08:20:10.998Z</time></trkpt><trkpt lat="40.72520111082036" lon="8.71110283676298"><ele>453.0</ele><time>2026-04-11T08:20:11.998Z</time></trkpt><trkpt lat="40.72530596926946" lon="8.711093903075222"><ele>453.0</ele><time>2026-04-11T08:20:12.998Z</time></trkpt><trkpt lat="40.72539403245847" lon="8.71114422827375"><ele>453.0</ele><time>2026-04-11T08:20:13.998Z</time></trkpt><trkpt lat="40.725480541641524" lon="8.711250995955709"><ele>453.0</ele><time>2026-04-11T08:20:15.998Z</time></trkpt><trkpt lat="40.725525810088705" lon="8.71132167453539"><ele>453.0</ele><time>2026-04-11T08:20:16.997Z</time></trkpt><trkpt lat="40.72557089469543" lon="8.711398720065205"><ele>453.0</ele><time>2026-04-11T08:20:17.997Z</time></trkpt><trkpt lat="40.72561496003794" lon="8.71146677364639"><ele>453.0</ele><time>2026-04-11T08:20:18.997Z</time></trkpt><trkpt lat="40.725696111677294" lon="8.71157234871747"><ele>453.0</ele><time>2026-04-11T08:20:19.997Z</time></trkpt><trkpt lat="40.72579335012716" lon="8.711621436906547"><ele>453.0</ele><time>2026-04-11T08:20:20.997Z</time></trkpt><trkpt lat="40.725870379442476" lon="8.711662617007516"><ele>453.0</ele><time>2026-04-11T08:20:21.997Z</time></trkpt><trkpt lat="40.72595462370573" lon="8.71166921704649"><ele>453.0</ele><time>2026-04-11T08:20:22.997Z</time></trkpt><trkpt lat="40.72603784031899" lon="8.711660342683693"><ele>453.0</ele><time>2026-04-11T08:20:23.997Z</time></trkpt><trkpt lat="40.72611101330094" lon="8.711646836234072"><ele>453.0</ele><time>2026-04-11T08:20:24.997Z</time></trkpt><trkpt lat="40.72617380501493" lon="8.711623976991934"><ele>453.8333333333333</ele><time>2026-04-11T08:20:25.997Z</time></trkpt><trkpt lat="40.72624555406254" lon="8.711622769333683"><ele>454.66666666666663</ele><time>2026-04-11T08:20:26.997Z</time></trkpt><trkpt lat="40.72631459086448" lon="8.71161291559743"><ele>455.5</ele><time>2026-04-11T08:20:27.997Z</time></trkpt><trkpt lat="40.726393894374716" lon="8.711601596434157"><ele>456.3333333333333</ele><time>2026-04-11T08:20:28.997Z</time></trkpt><trkpt lat="40.726484924447334" lon="8.711587843933167"><ele>457.16666666666663</ele><time>2026-04-11T08:20:29.997Z</time></trkpt><trkpt lat="40.72658928657" lon="8.711570174317572"><ele>458.0</ele><time>2026-04-11T08:20:30.997Z</time></trkpt><trkpt lat="40.72669049097042" lon="8.711542915886117"><ele>458.0</ele><time>2026-04-11T08:20:31.997Z</time></trkpt><trkpt lat="40.72679317414514" lon="8.711513749078946"><ele>457.99999999999994</ele><time>2026-04-11T08:20:32.997Z</time></trkpt><trkpt lat="40.72687801807008" lon="8.711494011926664"><ele>457.99999999999994</ele><time>2026-04-11T08:20:33.997Z</time></trkpt><trkpt lat="40.72695455883402" lon="8.711500581739562"><ele>458.0</ele><time>2026-04-11T08:20:34.997Z</time></trkpt><trkpt lat="40.72706161803045" lon="8.71163051395696"><ele>458.0</ele><time>2026-04-11T08:20:36.997Z</time></trkpt><trkpt lat="40.72714339231386" lon="8.711739957119923"><ele>459.0</ele><time>2026-04-11T08:20:37.997Z</time></trkpt><trkpt lat="40.72722546426774" lon="8.711851991171669"><ele>460.0</ele><time>2026-04-11T08:20:38.997Z</time></trkpt><trkpt lat="40.72730878448461" lon="8.71196581812019"><ele>461.0</ele><time>2026-04-11T08:20:39.997Z</time></trkpt><trkpt lat="40.727388950110516" lon="8.712076253621031"><ele>462.0</ele><time>2026-04-11T08:20:40.997Z</time></trkpt><trkpt lat="40.7274641178483" lon="8.712184260942392"><ele>462.0</ele><time>2026-04-11T08:20:41.997Z</time></trkpt><trkpt lat="40.72752758799027" lon="8.712300193473471"><ele>462.00000000000006</ele><time>2026-04-11T08:20:42.997Z</time></trkpt><trkpt lat="40.72758141959282" lon="8.71242643849467"><ele>462.00000000000006</ele><time>2026-04-11T08:20:43.997Z</time></trkpt><trkpt lat="40.7276243770005" lon="8.712564515477556"><ele>462.0</ele><time>2026-04-11T08:20:44.997Z</time></trkpt><trkpt lat="40.72765062443291" lon="8.712701737027382"><ele>462.0</ele><time>2026-04-11T08:20:45.997Z</time></trkpt><trkpt lat="40.72767193062736" lon="8.712855536606023"><ele>461.25</ele><time>2026-04-11T08:20:46.997Z</time></trkpt><trkpt lat="40.72769311986251" lon="8.713031844969835"><ele>460.5</ele><time>2026-04-11T08:20:47.997Z</time></trkpt><trkpt lat="40.727713127769874" lon="8.713206007131186"><ele>459.75</ele><time>2026-04-11T08:20:48.997Z</time></trkpt><trkpt lat="40.72773186358924" lon="8.71338048305609"><ele>459.0</ele><time>2026-04-11T08:20:49.997Z</time></trkpt><trkpt lat="40.72774917663073" lon="8.713564293388963"><ele>459.79999999999995</ele><time>2026-04-11T08:20:50.997Z</time></trkpt><trkpt lat="40.72775478083293" lon="8.71372633942463"><ele>460.59999999999997</ele><time>2026-04-11T08:20:51.997Z</time></trkpt><trkpt lat="40.7277453207607" lon="8.713887137303546"><ele>461.4</ele><time>2026-04-11T08:20:52.997Z</time></trkpt><trkpt lat="40.72773022559096" lon="8.714034041453935"><ele>462.2</ele><time>2026-04-11T08:20:53.997Z</time></trkpt><trkpt lat="40.72771828072064" lon="8.71415028682021"><ele>463.0</ele><time>2026-04-11T08:20:54.997Z</time></trkpt><trkpt lat="40.72771432673681" lon="8.714270208018748"><ele>463.0</ele><time>2026-04-11T08:20:56.997Z</time></trkpt><trkpt lat="40.72771934660092" lon="8.714367838859966"><ele>462.99999999999994</ele><time>2026-04-11T08:20:59.997Z</time></trkpt><trkpt lat="40.72780139467954" lon="8.71430099846577"><ele>462.99999999999994</ele><time>2026-04-11T08:21:00.997Z</time></trkpt><trkpt lat="40.72778852841175" lon="8.714176233924052"><ele>463.0</ele><time>2026-04-11T08:21:05.997Z</time></trkpt><trkpt lat="40.7277643351896" lon="8.714009385384836"><ele>463.0</ele><time>2026-04-11T08:21:07.997Z</time></trkpt><trkpt lat="40.72777319917599" lon="8.713918785550447"><ele>463.0</ele><time>2026-04-11T08:21:08.997Z</time></trkpt><trkpt lat="40.72778048852723" lon="8.713807943705064"><ele>462.99999999999994</ele><time>2026-04-11T08:21:09.997Z</time></trkpt><trkpt lat="40.72778637897207" lon="8.713678171431171"><ele>462.99999999999994</ele><time>2026-04-11T08:21:10.997Z</time></trkpt><trkpt lat="40.727792898349435" lon="8.713537889371144"><ele>463.0</ele><time>2026-04-11T08:21:11.997Z</time></trkpt><trkpt lat="40.72778835446003" lon="8.713392453762163"><ele>463.0</ele><time>2026-04-11T08:21:12.997Z</time></trkpt><trkpt lat="40.727762679045824" lon="8.713232010817315"><ele>462.75</ele><time>2026-04-11T08:21:13.997Z</time></trkpt><trkpt lat="40.72774899553814" lon="8.71306479401835"><ele>462.5</ele><time>2026-04-11T08:21:14.997Z</time></trkpt><trkpt lat="40.72772838950176" lon="8.712894586052915"><ele>462.25</ele><time>2026-04-11T08:21:15.997Z</time></trkpt><trkpt lat="40.72772367564215" lon="8.712724750423103"><ele>462.0</ele><time>2026-04-11T08:21:16.997Z</time></trkpt><trkpt lat="40.72769604157546" lon="8.712545778142985"><ele>462.0</ele><time>2026-04-11T08:21:17.997Z</time></trkpt><trkpt lat="40.72767076147036" lon="8.712363772832836"><ele>462.0</ele><time>2026-04-11T08:21:18.997Z</time></trkpt><trkpt lat="40.727595471389236" lon="8.712217164861098"><ele>462.0</ele><time>2026-04-11T08:21:19.997Z</time></trkpt><trkpt lat="40.72752506129461" lon="8.71206972788172"><ele>462.0</ele><time>2026-04-11T08:21:20.997Z</time></trkpt><trkpt lat="40.72742795697568" lon="8.711954195487253"><ele>459.5</ele><time>2026-04-11T08:21:21.997Z</time></trkpt><trkpt lat="40.727329404124156" lon="8.711825051722286"><ele>457.0</ele><time>2026-04-11T08:21:22.997Z</time></trkpt><trkpt lat="40.72722158034391" lon="8.711700283196528"><ele>454.5</ele><time>2026-04-11T08:21:23.997Z</time></trkpt><trkpt lat="40.72712694102976" lon="8.711587813752878"><ele>452.0</ele><time>2026-04-11T08:21:24.997Z</time></trkpt><trkpt lat="40.727030789408" lon="8.711494430204523"><ele>452.0</ele><time>2026-04-11T08:21:25.997Z</time></trkpt><trkpt lat="40.726967078038555" lon="8.711432041894831"><ele>452.00000000000006</ele><time>2026-04-11T08:21:26.997Z</time></trkpt><trkpt lat="40.726886045972705" lon="8.711406133694974"><ele>452.00000000000006</ele><time>2026-04-11T08:21:27.997Z</time></trkpt><trkpt lat="40.726784272634916" lon="8.711447982023348"><ele>452.0</ele><time>2026-04-11T08:21:28.997Z</time></trkpt><trkpt lat="40.72666216605529" lon="8.711483185853401"><ele>452.0</ele><time>2026-04-11T08:21:29.997Z</time></trkpt><trkpt lat="40.726535783281136" lon="8.711541690579498"><ele>452.25</ele><time>2026-04-11T08:21:30.997Z</time></trkpt><trkpt lat="40.72641278183173" lon="8.711572172855643"><ele>452.5</ele><time>2026-04-11T08:21:31.997Z</time></trkpt><trkpt lat="40.72628356419919" lon="8.711573293862333"><ele>452.75</ele><time>2026-04-11T08:21:32.997Z</time></trkpt><trkpt lat="40.7261662623509" lon="8.711590036589506"><ele>453.0</ele><time>2026-04-11T08:21:33.997Z</time></trkpt><trkpt lat="40.72604727852432" lon="8.711607019379091"><ele>453.0</ele><time>2026-04-11T08:21:34.997Z</time></trkpt><trkpt lat="40.72594874180965" lon="8.711619445048408"><ele>452.99999999999994</ele><time>2026-04-11T08:21:35.997Z</time></trkpt><trkpt lat="40.725859506218804" lon="8.711616358500832"><ele>452.99999999999994</ele><time>2026-04-11T08:21:36.997Z</time></trkpt><trkpt lat="40.72578114765618" lon="8.711588190013403"><ele>453.0</ele><time>2026-04-11T08:21:37.997Z</time></trkpt><trkpt lat="40.72570232835906" lon="8.71152259521482"><ele>453.0</ele><time>2026-04-11T08:21:38.997Z</time></trkpt><trkpt lat="40.72562800196778" lon="8.71144958043132"><ele>453.0</ele><time>2026-04-11T08:21:39.997Z</time></trkpt><trkpt lat="40.725570847045" lon="8.711334977431722"><ele>452.99999999999994</ele><time>2026-04-11T08:21:40.997Z</time></trkpt><trkpt lat="40.7255032563518" lon="8.711207418618635"><ele>452.99999999999994</ele><time>2026-04-11T08:21:41.997Z</time></trkpt><trkpt lat="40.725461862499586" lon="8.711100645918375"><ele>453.0</ele><time>2026-04-11T08:21:42.996Z</time></trkpt><trkpt lat="40.725354411386945" lon="8.711033739444098"><ele>453.0</ele><time>2026-04-11T08:21:43.996Z</time></trkpt><trkpt lat="40.725255019935034" lon="8.71100277652204"><ele>453.0</ele><time>2026-04-11T08:21:44.996Z</time></trkpt><trkpt lat="40.725139040612014" lon="8.711015638392018"><ele>453.0</ele><time>2026-04-11T08:21:45.996Z</time></trkpt><trkpt lat="40.72502680095423" lon="8.711085672707306"><ele>453.0</ele><time>2026-04-11T08:21:46.996Z</time></trkpt><trkpt lat="40.724874212348595" lon="8.711119871846723"><ele>453.0</ele><time>2026-04-11T08:21:47.996Z</time></trkpt><trkpt lat="40.72475404474383" lon="8.71116312334935"><ele>453.0</ele><time>2026-04-11T08:21:48.996Z</time></trkpt><trkpt lat="40.72464156483154" lon="8.7111923700249"><ele>453.0</ele><time>2026-04-11T08:21:49.996Z</time></trkpt><trkpt lat="40.72454490710313" lon="8.711205129249665"><ele>453.0</ele><time>2026-04-11T08:21:50.996Z</time></trkpt><trkpt lat="40.7244809881049" lon="8.711183133817626"><ele>453.0</ele><time>2026-04-11T08:21:51.996Z</time></trkpt><trkpt lat="40.72442426106533" lon="8.711128331277497"><ele>453.0</ele><time>2026-04-11T08:22:05.996Z</time></trkpt><trkpt lat="40.724343692218675" lon="8.711107788813386"><ele>453.0</ele><time>2026-04-11T08:22:07.996Z</time></trkpt><trkpt lat="40.72428069575883" lon="8.711127306294927"><ele>452.4</ele><time>2026-04-11T08:22:08.996Z</time></trkpt><trkpt lat="40.72421534846927" lon="8.711348277324987"><ele>451.79999999999995</ele><time>2026-04-11T08:22:09.996Z</time></trkpt><trkpt lat="40.72416745152476" lon="8.711420065908438"><ele>451.2</ele><time>2026-04-11T08:22:10.996Z</time></trkpt><trkpt lat="40.7241127167426" lon="8.711484865176738"><ele>450.6</ele><time>2026-04-11T08:22:11.996Z</time></trkpt><trkpt lat="40.72405781812523" lon="8.71154525682283"><ele>450.0</ele><time>2026-04-11T08:22:12.996Z</time></trkpt><trkpt lat="40.724000277680894" lon="8.711605130463102"><ele>450.0</ele><time>2026-04-11T08:22:13.996Z</time></trkpt><trkpt lat="40.723948494240155" lon="8.711681977196221"><ele>450.0</ele><time>2026-04-11T08:22:14.996Z</time></trkpt><trkpt lat="40.723904558550615" lon="8.711761199836177"><ele>450.0</ele><time>2026-04-11T08:22:15.996Z</time></trkpt><trkpt lat="40.72387830083385" lon="8.711853285763496"><ele>450.0</ele><time>2026-04-11T08:22:16.996Z</time></trkpt><trkpt lat="40.72383933334915" lon="8.711944218211066"><ele>450.0</ele><time>2026-04-11T08:22:17.996Z</time></trkpt><trkpt lat="40.72381507965871" lon="8.712043913563246"><ele>450.0</ele><time>2026-04-11T08:22:18.996Z</time></trkpt><trkpt lat="40.723783325318244" lon="8.712149849098209"><ele>450.6666666666667</ele><time>2026-04-11T08:22:19.996Z</time></trkpt><trkpt lat="40.72375555113283" lon="8.712257888551564"><ele>451.33333333333337</ele><time>2026-04-11T08:22:20.996Z</time></trkpt><trkpt lat="40.72372682850791" lon="8.712368856424927"><ele>452.0</ele><time>2026-04-11T08:22:21.996Z</time></trkpt><trkpt lat="40.72370356338011" lon="8.712474176439594"><ele>452.6666666666667</ele><time>2026-04-11T08:22:22.996Z</time></trkpt><trkpt lat="40.72367766830318" lon="8.712576073677619"><ele>453.33333333333337</ele><time>2026-04-11T08:22:23.996Z</time></trkpt><trkpt lat="40.72365423809936" lon="8.71268495632834"><ele>454.0</ele><time>2026-04-11T08:22:24.996Z</time></trkpt><trkpt lat="40.723634827844464" lon="8.712798575896832"><ele>454.33333333333337</ele><time>2026-04-11T08:22:25.996Z</time></trkpt><trkpt lat="40.72360984583242" lon="8.712908785049144"><ele>454.6666666666667</ele><time>2026-04-11T08:22:26.996Z</time></trkpt><trkpt lat="40.723586988255654" lon="8.713016346132779"><ele>455.0</ele><time>2026-04-11T08:22:27.996Z</time></trkpt><trkpt lat="40.72356259636538" lon="8.713121547267491"><ele>455.33333333333337</ele><time>2026-04-11T08:22:28.996Z</time></trkpt><trkpt lat="40.72354871426967" lon="8.713228252720231"><ele>455.6666666666667</ele><time>2026-04-11T08:22:29.996Z</time></trkpt><trkpt lat="40.7235321320218" lon="8.713338352644511"><ele>456.0</ele><time>2026-04-11T08:22:30.996Z</time></trkpt><trkpt lat="40.72351106547211" lon="8.713447351017159"><ele>456.6666666666667</ele><time>2026-04-11T08:22:31.996Z</time></trkpt><trkpt lat="40.72348451677136" lon="8.713551802981675"><ele>457.33333333333337</ele><time>2026-04-11T08:22:32.996Z</time></trkpt><trkpt lat="40.72345767618648" lon="8.71364911532126"><ele>458.0</ele><time>2026-04-11T08:22:33.996Z</time></trkpt><trkpt lat="40.72342504690961" lon="8.713737263429426"><ele>458.6666666666667</ele><time>2026-04-11T08:22:35Z</time></trkpt><trkpt lat="40.72339402780625" lon="8.713819729108891"><ele>459.33333333333337</ele><time>2026-04-11T08:22:36Z</time></trkpt><trkpt lat="40.723341062110535" lon="8.713929271142645"><ele>460.0</ele><time>2026-04-11T08:22:38Z</time></trkpt><trkpt lat="40.723289811679074" lon="8.714028971819458"><ele>460.6666666666667</ele><time>2026-04-11T08:22:41Z</time></trkpt><trkpt lat="40.72321219449393" lon="8.713983395906656"><ele>461.33333333333337</ele><time>2026-04-11T08:22:44Z</time></trkpt><trkpt lat="40.72315560436819" lon="8.713929663529596"><ele>462.0</ele><time>2026-04-11T08:22:46Z</time></trkpt><trkpt lat="40.72310268649721" lon="8.713866520512179"><ele>462.66666666666663</ele><time>2026-04-11T08:22:48Z</time></trkpt><trkpt lat="40.723039454825" lon="8.71381068391655"><ele>463.3333333333333</ele><time>2026-04-11T08:22:50Z</time></trkpt><trkpt lat="40.722967984907854" lon="8.713747578208862"><ele>464.0</ele><time>2026-04-11T08:22:53Z</time></trkpt><trkpt lat="40.722918196805026" lon="8.713677760864307"><ele>463.99999999999994</ele><time>2026-04-11T08:22:56Z</time></trkpt><trkpt lat="40.72286658325744" lon="8.713620582323484"><ele>464.0</ele><time>2026-04-11T08:22:58Z</time></trkpt><trkpt lat="40.72279353917177" lon="8.713556350100164"><ele>464.0</ele><time>2026-04-11T08:23:01Z</time></trkpt><trkpt lat="40.722722710818175" lon="8.71354806881337"><ele>464.0</ele><time>2026-04-11T08:23:03Z</time></trkpt><trkpt lat="40.722630731556734" lon="8.713553287946329"><ele>463.99999999999994</ele><time>2026-04-11T08:23:05Z</time></trkpt><trkpt lat="40.72253311336546" lon="8.713535920687491"><ele>464.0</ele><time>2026-04-11T08:23:07Z</time></trkpt><trkpt lat="40.72242772973887" lon="8.713523931113825"><ele>465.79999999999995</ele><time>2026-04-11T08:23:09Z</time></trkpt><trkpt lat="40.72231583673687" lon="8.713502604981471"><ele>467.59999999999997</ele><time>2026-04-11T08:23:11Z</time></trkpt><trkpt lat="40.72220479931249" lon="8.713485329926527"><ele>469.4</ele><time>2026-04-11T08:23:13Z</time></trkpt><trkpt lat="40.72210786116674" lon="8.7134695516801"><ele>471.2</ele><time>2026-04-11T08:23:15Z</time></trkpt><trkpt lat="40.722020571955476" lon="8.713439924109217"><ele>473.0</ele><time>2026-04-11T08:23:17Z</time></trkpt><trkpt lat="40.72191961752268" lon="8.713456357640998"><ele>475.49999999999994</ele><time>2026-04-11T08:23:19Z</time></trkpt><trkpt lat="40.72185051629112" lon="8.713461718994857"><ele>478.0</ele><time>2026-04-11T08:23:21Z</time></trkpt><trkpt lat="40.72180194977735" lon="8.713392759770773"><ele>480.5</ele><time>2026-04-11T08:23:25Z</time></trkpt><trkpt lat="40.72172474633677" lon="8.713373952156376"><ele>483.0</ele><time>2026-04-11T08:23:33Z</time></trkpt><trkpt lat="40.72163216567176" lon="8.713325197199044"><ele>485.49999999999994</ele><time>2026-04-11T08:23:35Z</time></trkpt><trkpt lat="40.72153359412078" lon="8.71327770428852"><ele>488.0</ele><time>2026-04-11T08:23:37Z</time></trkpt><trkpt lat="40.72143493293864" lon="8.713249607837964"><ele>488.0</ele><time>2026-04-11T08:23:39Z</time></trkpt><trkpt lat="40.721330322328484" lon="8.713252714660893"><ele>487.99999999999994</ele><time>2026-04-11T08:23:41Z</time></trkpt><trkpt lat="40.72118309440742" lon="8.713339899168597"><ele>487.99999999999994</ele><time>2026-04-11T08:23:43Z</time></trkpt><trkpt lat="40.72111490495332" lon="8.713312634858417"><ele>488.0</ele><time>2026-04-11T08:23:44Z</time></trkpt><trkpt lat="40.72104292257952" lon="8.71328385403365"><ele>488.0</ele><time>2026-04-11T08:23:45Z</time></trkpt><trkpt lat="40.72097575071986" lon="8.713251339009835"><ele>487.49999999999994</ele><time>2026-04-11T08:23:46Z</time></trkpt><trkpt lat="40.72090946006867" lon="8.713227847623317"><ele>487.0</ele><time>2026-04-11T08:23:47Z</time></trkpt><trkpt lat="40.720830773789544" lon="8.713211296274606"><ele>486.5</ele><time>2026-04-11T08:23:48Z</time></trkpt><trkpt lat="40.720742808642555" lon="8.713199842474786"><ele>486.0</ele><time>2026-04-11T08:23:49Z</time></trkpt><trkpt lat="40.72066019494866" lon="8.713185237983856"><ele>485.49999999999994</ele><time>2026-04-11T08:23:50Z</time></trkpt><trkpt lat="40.72057121696844" lon="8.71315965069507"><ele>485.0</ele><time>2026-04-11T08:23:51Z</time></trkpt><trkpt lat="40.72047735745273" lon="8.713150175469373"><ele>485.0</ele><time>2026-04-11T08:23:52Z</time></trkpt><trkpt lat="40.72038936297564" lon="8.713090216940286"><ele>485.0</ele><time>2026-04-11T08:23:53Z</time></trkpt><trkpt lat="40.72028826377383" lon="8.713047155125043"><ele>485.0</ele><time>2026-04-11T08:23:53.999Z</time></trkpt><trkpt lat="40.72018353607593" lon="8.713007479200558"><ele>485.0</ele><time>2026-04-11T08:23:54.999Z</time></trkpt><trkpt lat="40.72007760713655" lon="8.712968314084323"><ele>485.0</ele><time>2026-04-11T08:23:55.999Z</time></trkpt><trkpt lat="40.71996728872839" lon="8.71293237938094"><ele>484.25</ele><time>2026-04-11T08:23:56.999Z</time></trkpt><trkpt lat="40.719854737194794" lon="8.7129030356621"><ele>483.5</ele><time>2026-04-11T08:23:57.999Z</time></trkpt><trkpt lat="40.71975016443817" lon="8.712860785219041"><ele>482.75</ele><time>2026-04-11T08:23:58.999Z</time></trkpt><trkpt lat="40.719654986264715" lon="8.712805508823285"><ele>482.0</ele><time>2026-04-11T08:23:59.999Z</time></trkpt><trkpt lat="40.719525584930444" lon="8.712752250959372"><ele>481.75</ele><time>2026-04-11T08:24:00.999Z</time></trkpt><trkpt lat="40.71939999923351" lon="8.712684680826206"><ele>481.5</ele><time>2026-04-11T08:24:01.999Z</time></trkpt><trkpt lat="40.7192751116505" lon="8.712645326731296"><ele>481.25</ele><time>2026-04-11T08:24:02.999Z</time></trkpt><trkpt lat="40.71915704304415" lon="8.712633928196427"><ele>481.0</ele><time>2026-04-11T08:24:03.999Z</time></trkpt><trkpt lat="40.71904973034427" lon="8.712633095324412"><ele>481.0</ele><time>2026-04-11T08:24:04.999Z</time></trkpt><trkpt lat="40.71894802930063" lon="8.712633950326673"><ele>481.0</ele><time>2026-04-11T08:24:05.999Z</time></trkpt><trkpt lat="40.718848831048746" lon="8.712638991304667"><ele>481.0</ele><time>2026-04-11T08:24:06.999Z</time></trkpt><trkpt lat="40.71873757995777" lon="8.712657520032266"><ele>481.0</ele><time>2026-04-11T08:24:07.999Z</time></trkpt><trkpt lat="40.718627125415146" lon="8.712672675623775"><ele>481.0</ele><time>2026-04-11T08:24:08.999Z</time></trkpt><trkpt lat="40.718510955372935" lon="8.712676037489148"><ele>480.8</ele><time>2026-04-11T08:24:09.999Z</time></trkpt><trkpt lat="40.71839858325607" lon="8.712682211772757"><ele>480.6</ele><time>2026-04-11T08:24:10.999Z</time></trkpt><trkpt lat="40.71828992658201" lon="8.712688172774667"><ele>480.4</ele><time>2026-04-11T08:24:11.999Z</time></trkpt><trkpt lat="40.7181856944513" lon="8.712687111790899"><ele>480.2</ele><time>2026-04-11T08:24:12.999Z</time></trkpt><trkpt lat="40.71808618963748" lon="8.712683397213617"><ele>480.0</ele><time>2026-04-11T08:24:13.999Z</time></trkpt><trkpt lat="40.71798599780604" lon="8.712686884774369"><ele>480.0</ele><time>2026-04-11T08:24:14.999Z</time></trkpt><trkpt lat="40.71789344857081" lon="8.712677316563509"><ele>480.0</ele><time>2026-04-11T08:24:15.999Z</time></trkpt><trkpt lat="40.71780532040947" lon="8.712664356787753"><ele>480.0</ele><time>2026-04-11T08:24:16.999Z</time></trkpt><trkpt lat="40.71772511011659" lon="8.712655215391079"><ele>480.0</ele><time>2026-04-11T08:24:17.999Z</time></trkpt><trkpt lat="40.71765078032073" lon="8.71264659915695"><ele>480.0</ele><time>2026-04-11T08:24:18.999Z</time></trkpt><trkpt lat="40.7175645811669" lon="8.712586939226851"><ele>480.0</ele><time>2026-04-11T08:24:19.999Z</time></trkpt><trkpt lat="40.717476241483446" lon="8.712616934538376"><ele>480.0</ele><time>2026-04-11T08:24:20.999Z</time></trkpt><trkpt lat="40.71741294535388" lon="8.712723540100205"><ele>480.0</ele><time>2026-04-11T08:24:21.999Z</time></trkpt><trkpt lat="40.717395256422904" lon="8.712831222054737"><ele>480.0</ele><time>2026-04-11T08:24:22.999Z</time></trkpt><trkpt lat="40.7174014620526" lon="8.712953796488778"><ele>480.0</ele><time>2026-04-11T08:24:23.999Z</time></trkpt><trkpt lat="40.717406246755196" lon="8.713062915941954"><ele>480.0</ele><time>2026-04-11T08:24:24.999Z</time></trkpt><trkpt lat="40.71741112441266" lon="8.713174155311435"><ele>480.0</ele><time>2026-04-11T08:24:25.999Z</time></trkpt><trkpt lat="40.71742707592292" lon="8.713291923850665"><ele>480.0</ele><time>2026-04-11T08:24:26.999Z</time></trkpt><trkpt lat="40.71742284991013" lon="8.713426435469636"><ele>480.0</ele><time>2026-04-11T08:24:27.999Z</time></trkpt><trkpt lat="40.71740914156257" lon="8.713566883184615"><ele>480.0</ele><time>2026-04-11T08:24:28.999Z</time></trkpt><trkpt lat="40.71739956642411" lon="8.713712404429932"><ele>480.0</ele><time>2026-04-11T08:24:29.999Z</time></trkpt><trkpt lat="40.71740039450945" lon="8.71386250354099"><ele>480.0</ele><time>2026-04-11T08:24:30.999Z</time></trkpt><trkpt lat="40.71740369810658" lon="8.71400954505472"><ele>480.3333333333333</ele><time>2026-04-11T08:24:31.999Z</time></trkpt><trkpt lat="40.71740716553426" lon="8.71414069603726"><ele>480.66666666666663</ele><time>2026-04-11T08:24:32.999Z</time></trkpt><trkpt lat="40.71740788220896" lon="8.714253048641378"><ele>481.0</ele><time>2026-04-11T08:24:33.999Z</time></trkpt><trkpt lat="40.71740624688027" lon="8.714358687036325"><ele>481.3333333333333</ele><time>2026-04-11T08:24:34.999Z</time></trkpt><trkpt lat="40.71740204644439" lon="8.714451542284612"><ele>481.66666666666663</ele><time>2026-04-11T08:24:35.999Z</time></trkpt><trkpt lat="40.717396878207204" lon="8.714585125932281"><ele>482.0</ele><time>2026-04-11T08:24:37.999Z</time></trkpt><trkpt lat="40.71735314796594" lon="8.714708613982717"><ele>482.8</ele><time>2026-04-11T08:24:39.999Z</time></trkpt><trkpt lat="40.71727002235793" lon="8.714719042423466"><ele>483.6</ele><time>2026-04-11T08:24:40.999Z</time></trkpt><trkpt lat="40.71716703209031" lon="8.71471697410732"><ele>484.40000000000003</ele><time>2026-04-11T08:24:41.999Z</time></trkpt><trkpt lat="40.71705555356065" lon="8.714725980997095"><ele>485.20000000000005</ele><time>2026-04-11T08:24:42.999Z</time></trkpt><trkpt lat="40.716937520419336" lon="8.714738846657124"><ele>486.0</ele><time>2026-04-11T08:24:43.999Z</time></trkpt><trkpt lat="40.71681737026845" lon="8.714779155888587"><ele>484.0</ele><time>2026-04-11T08:24:44.999Z</time></trkpt><trkpt lat="40.716697156699254" lon="8.714814786996174"><ele>482.0</ele><time>2026-04-11T08:24:45.999Z</time></trkpt><trkpt lat="40.71657145575389" lon="8.714848199199835"><ele>480.0</ele><time>2026-04-11T08:24:46.999Z</time></trkpt><trkpt lat="40.71644337310895" lon="8.71486436651091"><ele>478.0</ele><time>2026-04-11T08:24:47.999Z</time></trkpt><trkpt lat="40.716322349708385" lon="8.714916596675314"><ele>478.0</ele><time>2026-04-11T08:24:48.999Z</time></trkpt><trkpt lat="40.71620180968638" lon="8.714928519877436"><ele>477.99999999999994</ele><time>2026-04-11T08:24:49.999Z</time></trkpt><trkpt lat="40.71609628881641" lon="8.714954100148347"><ele>477.99999999999994</ele><time>2026-04-11T08:24:50.999Z</time></trkpt><trkpt lat="40.71599682703825" lon="8.714975005247071"><ele>478.0</ele><time>2026-04-11T08:24:51.999Z</time></trkpt><trkpt lat="40.71590659999251" lon="8.714931149725409"><ele>478.0</ele><time>2026-04-11T08:24:52.999Z</time></trkpt><trkpt lat="40.71581164292214" lon="8.71490351358359"><ele>477.2</ele><time>2026-04-11T08:24:53.999Z</time></trkpt><trkpt lat="40.71572086307048" lon="8.714853269334412"><ele>476.4</ele><time>2026-04-11T08:24:54.999Z</time></trkpt><trkpt lat="40.71562863632527" lon="8.714810411539196"><ele>475.59999999999997</ele><time>2026-04-11T08:24:55.999Z</time></trkpt><trkpt lat="40.715524764829176" lon="8.714794663997743"><ele>474.79999999999995</ele><time>2026-04-11T08:24:56.999Z</time></trkpt><trkpt lat="40.71541282270421" lon="8.714804587177126"><ele>474.0</ele><time>2026-04-11T08:24:57.999Z</time></trkpt><trkpt lat="40.715299983404854" lon="8.714809594851715"><ele>474.0</ele><time>2026-04-11T08:24:58.999Z</time></trkpt><trkpt lat="40.71518243646611" lon="8.714796675225625"><ele>474.0</ele><time>2026-04-11T08:24:59.999Z</time></trkpt><trkpt lat="40.715060669408395" lon="8.714818653339618"><ele>474.0</ele><time>2026-04-11T08:25:00.999Z</time></trkpt><trkpt lat="40.7149371283255" lon="8.714847366957525"><ele>474.0</ele><time>2026-04-11T08:25:01.999Z</time></trkpt><trkpt lat="40.714816323857896" lon="8.714896920416125"><ele>474.0</ele><time>2026-04-11T08:25:02.999Z</time></trkpt><trkpt lat="40.71470491664577" lon="8.714970122220999"><ele>474.0</ele><time>2026-04-11T08:25:03.999Z</time></trkpt><trkpt lat="40.71458774368028" lon="8.715022040286165"><ele>474.0</ele><time>2026-04-11T08:25:04.999Z</time></trkpt><trkpt lat="40.71447103332729" lon="8.715061948414775"><ele>474.0</ele><time>2026-04-11T08:25:05.999Z</time></trkpt><trkpt lat="40.714356955745274" lon="8.715110825741373"><ele>474.0</ele><time>2026-04-11T08:25:06.999Z</time></trkpt><trkpt lat="40.71424832472876" lon="8.715160928927023"><ele>474.0</ele><time>2026-04-11T08:25:07.999Z</time></trkpt><trkpt lat="40.71415178398622" lon="8.715229123768"><ele>474.0</ele><time>2026-04-11T08:25:08.999Z</time></trkpt><trkpt lat="40.71406138208967" lon="8.715302778490617"><ele>474.0</ele><time>2026-04-11T08:25:09.999Z</time></trkpt><trkpt lat="40.71398207391959" lon="8.71537752638928"><ele>474.0</ele><time>2026-04-11T08:25:10.999Z</time></trkpt><trkpt lat="40.713924695779184" lon="8.71547051008692"><ele>474.0</ele><time>2026-04-11T08:25:11.999Z</time></trkpt><trkpt lat="40.71386871996183" lon="8.715557420933505"><ele>474.0</ele><time>2026-04-11T08:25:12.999Z</time></trkpt><trkpt lat="40.713804493035454" lon="8.715631259081695"><ele>474.0</ele><time>2026-04-11T08:25:13.999Z</time></trkpt><trkpt lat="40.71372365715496" lon="8.71566596245887"><ele>474.0</ele><time>2026-04-11T08:25:14.999Z</time></trkpt><trkpt lat="40.71364451566899" lon="8.715706308295262"><ele>474.0</ele><time>2026-04-11T08:25:15.999Z</time></trkpt><trkpt lat="40.71354995714646" lon="8.715717088112564"><ele>474.0</ele><time>2026-04-11T08:25:16.999Z</time></trkpt><trkpt lat="40.71345329037272" lon="8.715772418006093"><ele>473.2</ele><time>2026-04-11T08:25:17.999Z</time></trkpt><trkpt lat="40.71334393332876" lon="8.715802858015419"><ele>472.4</ele><time>2026-04-11T08:25:18.999Z</time></trkpt><trkpt lat="40.713235252812545" lon="8.715828818398483"><ele>471.6</ele><time>2026-04-11T08:25:19.999Z</time></trkpt><trkpt lat="40.71312370992236" lon="8.715850279721256"><ele>470.8</ele><time>2026-04-11T08:25:20.999Z</time></trkpt><trkpt lat="40.7130159520802" lon="8.715874104975297"><ele>470.0</ele><time>2026-04-11T08:25:21.999Z</time></trkpt><trkpt lat="40.712909167789995" lon="8.71590842163"><ele>470.0</ele><time>2026-04-11T08:25:22.999Z</time></trkpt><trkpt lat="40.71280783271979" lon="8.715972475859068"><ele>470.0</ele><time>2026-04-11T08:25:23.999Z</time></trkpt><trkpt lat="40.712708654679275" lon="8.716041984175499"><ele>470.0</ele><time>2026-04-11T08:25:24.999Z</time></trkpt><trkpt lat="40.71261205192314" lon="8.7161030975196"><ele>470.0</ele><time>2026-04-11T08:25:25.999Z</time></trkpt><trkpt lat="40.71251508474752" lon="8.716152846835303"><ele>470.0</ele><time>2026-04-11T08:25:26.999Z</time></trkpt><trkpt lat="40.71241936765309" lon="8.716213401374477"><ele>470.25</ele><time>2026-04-11T08:25:27.999Z</time></trkpt><trkpt lat="40.71230415624354" lon="8.716222935634569"><ele>470.5</ele><time>2026-04-11T08:25:28.998Z</time></trkpt><trkpt lat="40.71218541802207" lon="8.71623822423831"><ele>470.75</ele><time>2026-04-11T08:25:29.998Z</time></trkpt><trkpt lat="40.71205690202696" lon="8.716260614184412"><ele>471.0</ele><time>2026-04-11T08:25:30.998Z</time></trkpt><trkpt lat="40.711925067528526" lon="8.716307210361006"><ele>471.25</ele><time>2026-04-11T08:25:31.998Z</time></trkpt><trkpt lat="40.71179761299457" lon="8.716347346151935"><ele>471.5</ele><time>2026-04-11T08:25:32.998Z</time></trkpt><trkpt lat="40.711682881059815" lon="8.716386360058168"><ele>471.75</ele><time>2026-04-11T08:25:33.998Z</time></trkpt><trkpt lat="40.71157050175308" lon="8.716418044720044"><ele>472.0</ele><time>2026-04-11T08:25:34.998Z</time></trkpt><trkpt lat="40.71145672443615" lon="8.716458461205361"><ele>472.0</ele><time>2026-04-11T08:25:35.998Z</time></trkpt><trkpt lat="40.711340446502525" lon="8.716508991676177"><ele>472.0</ele><time>2026-04-11T08:25:36.998Z</time></trkpt><trkpt lat="40.71122100463271" lon="8.716566180016256"><ele>472.0</ele><time>2026-04-11T08:25:37.998Z</time></trkpt><trkpt lat="40.71110072905233" lon="8.716638310092058"><ele>472.0</ele><time>2026-04-11T08:25:38.998Z</time></trkpt><trkpt lat="40.71097725545689" lon="8.716707668754974"><ele>472.25</ele><time>2026-04-11T08:25:39.998Z</time></trkpt><trkpt lat="40.71085265601232" lon="8.71677227364775"><ele>472.5</ele><time>2026-04-11T08:25:40.998Z</time></trkpt><trkpt lat="40.71073907139792" lon="8.716855921260676"><ele>472.75</ele><time>2026-04-11T08:25:41.998Z</time></trkpt><trkpt lat="40.71063013969336" lon="8.71694383428381"><ele>473.0</ele><time>2026-04-11T08:25:42.998Z</time></trkpt><trkpt lat="40.71052021168537" lon="8.717016953894163"><ele>473.5</ele><time>2026-04-11T08:25:43.998Z</time></trkpt><trkpt lat="40.71041512399242" lon="8.717085558304078"><ele>474.0</ele><time>2026-04-11T08:25:44.998Z</time></trkpt><trkpt lat="40.710311837435945" lon="8.717153743801656"><ele>474.5</ele><time>2026-04-11T08:25:45.998Z</time></trkpt><trkpt lat="40.710208566185635" lon="8.717214952448137"><ele>475.0</ele><time>2026-04-11T08:25:46.998Z</time></trkpt><trkpt lat="40.71009831058321" lon="8.717239727721674"><ele>475.25</ele><time>2026-04-11T08:25:47.998Z</time></trkpt><trkpt lat="40.70998377317334" lon="8.717302029267639"><ele>475.5</ele><time>2026-04-11T08:25:48.998Z</time></trkpt><trkpt lat="40.709901677426814" lon="8.717424552700992"><ele>475.75</ele><time>2026-04-11T08:25:49.998Z</time></trkpt><trkpt lat="40.70979269021259" lon="8.71747334143531"><ele>476.0</ele><time>2026-04-11T08:25:50.998Z</time></trkpt><trkpt lat="40.70967575036942" lon="8.717528969784565"><ele>476.0</ele><time>2026-04-11T08:25:51.998Z</time></trkpt><trkpt lat="40.70956685861953" lon="8.717614467107813"><ele>476.0</ele><time>2026-04-11T08:25:52.998Z</time></trkpt><trkpt lat="40.70945014634901" lon="8.717675101977633"><ele>476.0</ele><time>2026-04-11T08:25:53.998Z</time></trkpt><trkpt lat="40.709344863503055" lon="8.717756654571803"><ele>476.0</ele><time>2026-04-11T08:25:54.998Z</time></trkpt><trkpt lat="40.70924503228002" lon="8.71784167541137"><ele>476.75</ele><time>2026-04-11T08:25:55.998Z</time></trkpt><trkpt lat="40.70914959021328" lon="8.717938692865447"><ele>477.5</ele><time>2026-04-11T08:25:56.998Z</time></trkpt><trkpt lat="40.709053699599636" lon="8.718027920882292"><ele>478.25</ele><time>2026-04-11T08:25:57.998Z</time></trkpt><trkpt lat="40.708953127581886" lon="8.71811291605069"><ele>479.0</ele><time>2026-04-11T08:25:58.998Z</time></trkpt><trkpt lat="40.708855383307395" lon="8.71819486141437"><ele>479.0</ele><time>2026-04-11T08:25:59.998Z</time></trkpt><trkpt lat="40.708762515017256" lon="8.718270931118973"><ele>479.0</ele><time>2026-04-11T08:26:00.998Z</time></trkpt><trkpt lat="40.70867666579981" lon="8.718344287395213"><ele>479.0</ele><time>2026-04-11T08:26:01.998Z</time></trkpt><trkpt lat="40.7085990954363" lon="8.718433611225983"><ele>479.0</ele><time>2026-04-11T08:26:02.998Z</time></trkpt><trkpt lat="40.70852924306572" lon="8.718529204926513"><ele>479.0</ele><time>2026-04-11T08:26:03.998Z</time></trkpt><trkpt lat="40.70845881183701" lon="8.718623083020043"><ele>480.0</ele><time>2026-04-11T08:26:04.998Z</time></trkpt><trkpt lat="40.70838828884633" lon="8.718714178474888"><ele>481.0</ele><time>2026-04-11T08:26:05.998Z</time></trkpt><trkpt lat="40.708317714460335" lon="8.718791750833718"><ele>482.0</ele><time>2026-04-11T08:26:06.998Z</time></trkpt><trkpt lat="40.70824797317421" lon="8.718853025577696"><ele>483.0</ele><time>2026-04-11T08:26:07.998Z</time></trkpt><trkpt lat="40.70817754653034" lon="8.71889676340167"><ele>484.0</ele><time>2026-04-11T08:26:08.998Z</time></trkpt><trkpt lat="40.70806427496711" lon="8.718928375221859"><ele>484.00000000000006</ele><time>2026-04-11T08:26:10.998Z</time></trkpt><trkpt lat="40.707989448253855" lon="8.718901553230952"><ele>484.0</ele><time>2026-04-11T08:26:11.998Z</time></trkpt><trkpt lat="40.7078971678972" lon="8.71886841629609"><ele>484.0</ele><time>2026-04-11T08:26:12.998Z</time></trkpt><trkpt lat="40.70780961631045" lon="8.718803631595494"><ele>484.0</ele><time>2026-04-11T08:26:13.998Z</time></trkpt><trkpt lat="40.707726213782585" lon="8.718749534306088"><ele>484.00000000000006</ele><time>2026-04-11T08:26:14.998Z</time></trkpt><trkpt lat="40.70765314763488" lon="8.718709409297166"><ele>484.0</ele><time>2026-04-11T08:26:15.998Z</time></trkpt><trkpt lat="40.70759066746321" lon="8.718644144897164"><ele>484.33333333333337</ele><time>2026-04-11T08:26:16.998Z</time></trkpt><trkpt lat="40.70750743430142" lon="8.718629083869489"><ele>484.6666666666667</ele><time>2026-04-11T08:26:17.998Z</time></trkpt><trkpt lat="40.70744828326824" lon="8.718677803535414"><ele>485.0</ele><time>2026-04-11T08:26:18.998Z</time></trkpt><trkpt lat="40.707438486975015" lon="8.718778796445577"><ele>485.33333333333337</ele><time>2026-04-11T08:26:19.998Z</time></trkpt><trkpt lat="40.70741236164634" lon="8.718880188590933"><ele>485.6666666666667</ele><time>2026-04-11T08:26:20.998Z</time></trkpt><trkpt lat="40.707389043400674" lon="8.719000568310822"><ele>486.0</ele><time>2026-04-11T08:26:21.998Z</time></trkpt><trkpt lat="40.70736680804254" lon="8.719123596941678"><ele>486.0</ele><time>2026-04-11T08:26:22.998Z</time></trkpt><trkpt lat="40.70729745765354" lon="8.71921380874275"><ele>486.0</ele><time>2026-04-11T08:26:23.998Z</time></trkpt><trkpt lat="40.70727266285107" lon="8.719305461130647"><ele>486.0</ele><time>2026-04-11T08:26:24.998Z</time></trkpt><trkpt lat="40.70724536963999" lon="8.719390027674555"><ele>486.0</ele><time>2026-04-11T08:26:25.998Z</time></trkpt><trkpt lat="40.707201900976116" lon="8.719463556116027"><ele>486.0</ele><time>2026-04-11T08:26:26.998Z</time></trkpt><trkpt lat="40.707147211227664" lon="8.719512321787237"><ele>486.0</ele><time>2026-04-11T08:26:27.998Z</time></trkpt><trkpt lat="40.70707442392726" lon="8.719546928159174"><ele>486.4</ele><time>2026-04-11T08:26:28.998Z</time></trkpt><trkpt lat="40.70699019938254" lon="8.719598333163324"><ele>486.8</ele><time>2026-04-11T08:26:29.998Z</time></trkpt><trkpt lat="40.7068799090775" lon="8.719636792404405"><ele>487.19999999999993</ele><time>2026-04-11T08:26:30.998Z</time></trkpt><trkpt lat="40.70676020166693" lon="8.719676540697353"><ele>487.59999999999997</ele><time>2026-04-11T08:26:31.998Z</time></trkpt><trkpt lat="40.70664766128774" lon="8.719714562289223"><ele>488.0</ele><time>2026-04-11T08:26:32.998Z</time></trkpt><trkpt lat="40.706544604919756" lon="8.71974356922493"><ele>489.0</ele><time>2026-04-11T08:26:33.998Z</time></trkpt><trkpt lat="40.70644375533899" lon="8.719778371659002"><ele>489.99999999999994</ele><time>2026-04-11T08:26:34.998Z</time></trkpt><trkpt lat="40.706348402271665" lon="8.719845064052478"><ele>490.99999999999994</ele><time>2026-04-11T08:26:35.998Z</time></trkpt><trkpt lat="40.70624925923271" lon="8.71991350211666"><ele>492.0</ele><time>2026-04-11T08:26:36.998Z</time></trkpt><trkpt lat="40.706138635186946" lon="8.71996378728731"><ele>493.0</ele><time>2026-04-11T08:26:37.998Z</time></trkpt><trkpt lat="40.706033253836" lon="8.720036486382538"><ele>494.75</ele><time>2026-04-11T08:26:38.998Z</time></trkpt><trkpt lat="40.705928530317195" lon="8.720107973727048"><ele>496.5</ele><time>2026-04-11T08:26:39.998Z</time></trkpt><trkpt lat="40.70583273356077" lon="8.720201876819095"><ele>498.25</ele><time>2026-04-11T08:26:40.998Z</time></trkpt><trkpt lat="40.705739367722025" lon="8.720307191086416"><ele>500.0</ele><time>2026-04-11T08:26:41.998Z</time></trkpt><trkpt lat="40.7056474665806" lon="8.720409547623747"><ele>500.75</ele><time>2026-04-11T08:26:42.998Z</time></trkpt><trkpt lat="40.7055597745423" lon="8.720508171478293"><ele>501.5</ele><time>2026-04-11T08:26:43.998Z</time></trkpt><trkpt lat="40.70547286323586" lon="8.720597560793477"><ele>502.25</ele><time>2026-04-11T08:26:44.998Z</time></trkpt><trkpt lat="40.70536801772415" lon="8.720661539675412"><ele>503.0</ele><time>2026-04-11T08:26:45.998Z</time></trkpt><trkpt lat="40.70527930910479" lon="8.720762105396934"><ele>504.0</ele><time>2026-04-11T08:26:46.998Z</time></trkpt><trkpt lat="40.705198045824595" lon="8.720872318520271"><ele>505.0</ele><time>2026-04-11T08:26:47.998Z</time></trkpt><trkpt lat="40.70512299463479" lon="8.720991175586349"><ele>506.0</ele><time>2026-04-11T08:26:48.998Z</time></trkpt><trkpt lat="40.70505080523339" lon="8.721109414163644"><ele>507.0</ele><time>2026-04-11T08:26:49.998Z</time></trkpt><trkpt lat="40.70497552848545" lon="8.721222503969912"><ele>508.40000000000003</ele><time>2026-04-11T08:26:50.998Z</time></trkpt><trkpt lat="40.704900339698455" lon="8.721333867751264"><ele>509.80000000000007</ele><time>2026-04-11T08:26:51.998Z</time></trkpt><trkpt lat="40.7048345688355" lon="8.721455615853362"><ele>511.2</ele><time>2026-04-11T08:26:52.998Z</time></trkpt><trkpt lat="40.70476056612517" lon="8.721556899349977"><ele>512.6</ele><time>2026-04-11T08:26:53.998Z</time></trkpt><trkpt lat="40.70467080284993" lon="8.721628162767287"><ele>514.0</ele><time>2026-04-11T08:26:54.998Z</time></trkpt><trkpt lat="40.70458546661266" lon="8.721711683810843"><ele>514.0</ele><time>2026-04-11T08:26:55.998Z</time></trkpt><trkpt lat="40.70450572914406" lon="8.721800056302122"><ele>514.0</ele><time>2026-04-11T08:26:56.998Z</time></trkpt><trkpt lat="40.70443794010499" lon="8.721883006661246"><ele>514.0</ele><time>2026-04-11T08:26:57.998Z</time></trkpt><trkpt lat="40.704385162599806" lon="8.721949765535566"><ele>514.0</ele><time>2026-04-11T08:26:58.998Z</time></trkpt><trkpt lat="40.70431225888104" lon="8.722055066827515"><ele>514.0</ele><time>2026-04-11T08:27:00.998Z</time></trkpt><trkpt lat="40.704227351565116" lon="8.722100528643804"><ele>515.0</ele><time>2026-04-11T08:27:02.997Z</time></trkpt><trkpt lat="40.70409498372456" lon="8.722068035043192"><ele>516.0</ele><time>2026-04-11T08:27:04.997Z</time></trkpt><trkpt lat="40.70400876547174" lon="8.722022147446838"><ele>517.0</ele><time>2026-04-11T08:27:05.997Z</time></trkpt><trkpt lat="40.70391428477669" lon="8.721967431706547"><ele>518.0</ele><time>2026-04-11T08:27:06.997Z</time></trkpt><trkpt lat="40.70381263199123" lon="8.721911095121072"><ele>519.0</ele><time>2026-04-11T08:27:07.997Z</time></trkpt><trkpt lat="40.70370241856789" lon="8.721859169957325"><ele>519.0</ele><time>2026-04-11T08:27:08.997Z</time></trkpt><trkpt lat="40.70358606631567" lon="8.721811618222722"><ele>519.0</ele><time>2026-04-11T08:27:09.997Z</time></trkpt><trkpt lat="40.70346060312939" lon="8.72176980005631"><ele>519.0</ele><time>2026-04-11T08:27:10.997Z</time></trkpt><trkpt lat="40.703324705169265" lon="8.721734383056214"><ele>519.0</ele><time>2026-04-11T08:27:11.997Z</time></trkpt><trkpt lat="40.703181351154555" lon="8.72173084514962"><ele>519.5</ele><time>2026-04-11T08:27:12.997Z</time></trkpt><trkpt lat="40.7030362483346" lon="8.72174426469049"><ele>520.0</ele><time>2026-04-11T08:27:13.997Z</time></trkpt><trkpt lat="40.70289019548512" lon="8.721760857052564"><ele>520.5</ele><time>2026-04-11T08:27:14.997Z</time></trkpt><trkpt lat="40.70274652814519" lon="8.721780849040824"><ele>521.0</ele><time>2026-04-11T08:27:15.997Z</time></trkpt><trkpt lat="40.70260334700829" lon="8.721822063159442"><ele>521.0</ele><time>2026-04-11T08:27:16.997Z</time></trkpt><trkpt lat="40.70246014122904" lon="8.721886340473015"><ele>521.0</ele><time>2026-04-11T08:27:17.997Z</time></trkpt><trkpt lat="40.702324535499685" lon="8.721969301331365"><ele>521.0</ele><time>2026-04-11T08:27:18.997Z</time></trkpt><trkpt lat="40.70220379724667" lon="8.722074935838517"><ele>521.0</ele><time>2026-04-11T08:27:19.997Z</time></trkpt><trkpt lat="40.70209576020034" lon="8.722186430943312"><ele>521.5</ele><time>2026-04-11T08:27:20.997Z</time></trkpt><trkpt lat="40.701998070527715" lon="8.722296515421174"><ele>522.0</ele><time>2026-04-11T08:27:21.997Z</time></trkpt><trkpt lat="40.701915716698146" lon="8.722413142221306"><ele>522.5</ele><time>2026-04-11T08:27:22.997Z</time></trkpt><trkpt lat="40.7018511050157" lon="8.722531208922463"><ele>523.0</ele><time>2026-04-11T08:27:23.997Z</time></trkpt><trkpt lat="40.70181625541491" lon="8.722673557462546"><ele>520.25</ele><time>2026-04-11T08:27:24.997Z</time></trkpt><trkpt lat="40.70177476269826" lon="8.722820293673694"><ele>517.5</ele><time>2026-04-11T08:27:25.997Z</time></trkpt><trkpt lat="40.70177300331846" lon="8.722980966610766"><ele>514.75</ele><time>2026-04-11T08:27:26.997Z</time></trkpt><trkpt lat="40.70180013951027" lon="8.723146436926827"><ele>512.0</ele><time>2026-04-11T08:27:27.997Z</time></trkpt><trkpt lat="40.701845084573485" lon="8.723310374117869"><ele>512.0</ele><time>2026-04-11T08:27:28.997Z</time></trkpt><trkpt lat="40.701899841046426" lon="8.72348114761481"><ele>512.0</ele><time>2026-04-11T08:27:29.997Z</time></trkpt><trkpt lat="40.7019603695437" lon="8.723658069608543"><ele>512.0</ele><time>2026-04-11T08:27:30.997Z</time></trkpt><trkpt lat="40.70202164678165" lon="8.723836290766009"><ele>512.0</ele><time>2026-04-11T08:27:31.997Z</time></trkpt><trkpt lat="40.702081839158836" lon="8.724013189838077"><ele>513.75</ele><time>2026-04-11T08:27:32.997Z</time></trkpt><trkpt lat="40.702140056829165" lon="8.724185276414143"><ele>515.5</ele><time>2026-04-11T08:27:33.997Z</time></trkpt><trkpt lat="40.70219342903508" lon="8.724354169707377"><ele>517.25</ele><time>2026-04-11T08:27:34.997Z</time></trkpt><trkpt lat="40.70225382710095" lon="8.724521470121282"><ele>519.0</ele><time>2026-04-11T08:27:35.997Z</time></trkpt><trkpt lat="40.70228956647082" lon="8.724708215914442"><ele>519.0</ele><time>2026-04-11T08:27:36.997Z</time></trkpt><trkpt lat="40.70231469730182" lon="8.724907317355203"><ele>519.0</ele><time>2026-04-11T08:27:37.997Z</time></trkpt><trkpt lat="40.70233304305232" lon="8.725111095246838"><ele>519.0</ele><time>2026-04-11T08:27:38.997Z</time></trkpt><trkpt lat="40.70234619770915" lon="8.725316317831494"><ele>517.6666666666666</ele><time>2026-04-11T08:27:39.997Z</time></trkpt><trkpt lat="40.70235109888467" lon="8.725523792471781"><ele>516.3333333333333</ele><time>2026-04-11T08:27:40.997Z</time></trkpt><trkpt lat="40.702369454921254" lon="8.725719267745784"><ele>515.0</ele><time>2026-04-11T08:27:41.997Z</time></trkpt><trkpt lat="40.70239694768272" lon="8.725908349454402"><ele>514.8</ele><time>2026-04-11T08:27:42.997Z</time></trkpt><trkpt lat="40.70238671593824" lon="8.726068450804721"><ele>514.6</ele><time>2026-04-11T08:27:43.997Z</time></trkpt><trkpt lat="40.702377955193285" lon="8.726225633961597"><ele>514.4</ele><time>2026-04-11T08:27:44.997Z</time></trkpt><trkpt lat="40.702362043028884" lon="8.726331324934076"><ele>514.2</ele><time>2026-04-11T08:27:45.997Z</time></trkpt><trkpt lat="40.70231478551079" lon="8.726419511794195"><ele>514.0</ele><time>2026-04-11T08:27:46.997Z</time></trkpt><trkpt lat="40.70225258932002" lon="8.726534172853244"><ele>514.0</ele><time>2026-04-11T08:27:47.997Z</time></trkpt><trkpt lat="40.702167680800066" lon="8.726599357566577"><ele>514.0</ele><time>2026-04-11T08:27:48.997Z</time></trkpt><trkpt lat="40.702046332060085" lon="8.726658756475745"><ele>514.0</ele><time>2026-04-11T08:27:49.997Z</time></trkpt><trkpt lat="40.70191491780728" lon="8.726672554982285"><ele>514.0</ele><time>2026-04-11T08:27:50.997Z</time></trkpt><trkpt lat="40.701773830276096" lon="8.726629353748327"><ele>511.25</ele><time>2026-04-11T08:27:51.997Z</time></trkpt><trkpt lat="40.70165324500585" lon="8.726552215032143"><ele>508.5</ele><time>2026-04-11T08:27:52.997Z</time></trkpt><trkpt lat="40.70153468013013" lon="8.72646253562457"><ele>505.75</ele><time>2026-04-11T08:27:53.997Z</time></trkpt><trkpt lat="40.701418109163185" lon="8.726373193753552"><ele>503.0</ele><time>2026-04-11T08:27:54.997Z</time></trkpt><trkpt lat="40.701305344803394" lon="8.726261437292486"><ele>503.0</ele><time>2026-04-11T08:27:55.997Z</time></trkpt><trkpt lat="40.701182596785344" lon="8.726178614643299"><ele>503.0</ele><time>2026-04-11T08:27:56.997Z</time></trkpt><trkpt lat="40.70104705411911" lon="8.726101392816716"><ele>503.0</ele><time>2026-04-11T08:27:57.997Z</time></trkpt><trkpt lat="40.700919965332034" lon="8.726005519751672"><ele>503.0</ele><time>2026-04-11T08:27:58.997Z</time></trkpt><trkpt lat="40.70078476309539" lon="8.725882929858459"><ele>501.3333333333333</ele><time>2026-04-11T08:27:59.997Z</time></trkpt><trkpt lat="40.7006425729479" lon="8.725757910922745"><ele>499.66666666666663</ele><time>2026-04-11T08:28:00.997Z</time></trkpt><trkpt lat="40.70050336756796" lon="8.725638792056893"><ele>498.0</ele><time>2026-04-11T08:28:01.997Z</time></trkpt><trkpt lat="40.700365844612676" lon="8.725539349903329"><ele>500.33333333333337</ele><time>2026-04-11T08:28:02.997Z</time></trkpt><trkpt lat="40.70022777279163" lon="8.725437463140285"><ele>502.6666666666667</ele><time>2026-04-11T08:28:03.997Z</time></trkpt><trkpt lat="40.70007078680407" lon="8.725381868238037"><ele>505.0</ele><time>2026-04-11T08:28:04.997Z</time></trkpt><trkpt lat="40.69992307254237" lon="8.72533618565663"><ele>505.0</ele><time>2026-04-11T08:28:05.997Z</time></trkpt><trkpt lat="40.69977169938399" lon="8.725297835556967"><ele>505.0</ele><time>2026-04-11T08:28:06.997Z</time></trkpt><trkpt lat="40.69964229263113" lon="8.725273181942761"><ele>505.0</ele><time>2026-04-11T08:28:07.997Z</time></trkpt><trkpt lat="40.69951827741383" lon="8.725262352929862"><ele>505.0</ele><time>2026-04-11T08:28:08.997Z</time></trkpt><trkpt lat="40.69942914141954" lon="8.725270462872649"><ele>504.6</ele><time>2026-04-11T08:28:09.997Z</time></trkpt><trkpt lat="40.69935466713342" lon="8.725312667338233"><ele>504.2</ele><time>2026-04-11T08:28:10.997Z</time></trkpt><trkpt lat="40.69925571290453" lon="8.725324764871424"><ele>503.79999999999995</ele><time>2026-04-11T08:28:12.997Z</time></trkpt><trkpt lat="40.699153834711986" lon="8.725346917772894"><ele>503.4</ele><time>2026-04-11T08:28:14.997Z</time></trkpt><trkpt lat="40.699042211573264" lon="8.725405921391408"><ele>503.0</ele><time>2026-04-11T08:28:16.997Z</time></trkpt><trkpt lat="40.698941927230265" lon="8.725495365867832"><ele>502.99999999999994</ele><time>2026-04-11T08:28:18.997Z</time></trkpt><trkpt lat="40.69885543339136" lon="8.725585908234867"><ele>503.0</ele><time>2026-04-11T08:28:20.997Z</time></trkpt><trkpt lat="40.69878518583162" lon="8.725679207504413"><ele>503.0</ele><time>2026-04-11T08:28:22.997Z</time></trkpt><trkpt lat="40.69872949062984" lon="8.725723366099981"><ele>503.0</ele><time>2026-04-11T08:28:25.997Z</time></trkpt><trkpt lat="40.698681973118234" lon="8.725787679955"><ele>502.99999999999994</ele><time>2026-04-11T08:28:28.997Z</time></trkpt><trkpt lat="40.69864635485647" lon="8.725899296410645"><ele>503.0</ele><time>2026-04-11T08:28:31.997Z</time></trkpt><trkpt lat="40.698582697981564" lon="8.725978612588392"><ele>501.79999999999995</ele><time>2026-04-11T08:28:37.996Z</time></trkpt><trkpt lat="40.69852955014658" lon="8.726069811616634"><ele>500.59999999999997</ele><time>2026-04-11T08:28:40.996Z</time></trkpt><trkpt lat="40.69848948186852" lon="8.726136376771839"><ele>499.40000000000003</ele><time>2026-04-11T08:28:43.996Z</time></trkpt><trkpt lat="40.698450997987166" lon="8.726222763799946"><ele>498.20000000000005</ele><time>2026-04-11T08:28:45.996Z</time></trkpt><trkpt lat="40.69838310089673" lon="8.72631275332756"><ele>497.0</ele><time>2026-04-11T08:28:47.996Z</time></trkpt><trkpt lat="40.698278909830954" lon="8.726486198938163"><ele>497.0</ele><time>2026-04-11T08:28:49.996Z</time></trkpt><trkpt lat="40.69819883026535" lon="8.726617489813027"><ele>497.0</ele><time>2026-04-11T08:28:50.996Z</time></trkpt><trkpt lat="40.698123315527845" lon="8.726739729934874"><ele>497.0</ele><time>2026-04-11T08:28:51.996Z</time></trkpt><trkpt lat="40.698050767457225" lon="8.726857167982693"><ele>497.0</ele><time>2026-04-11T08:28:52.996Z</time></trkpt><trkpt lat="40.69797485984125" lon="8.727011326130743"><ele>495.66666666666663</ele><time>2026-04-11T08:28:53.996Z</time></trkpt><trkpt lat="40.697871535618354" lon="8.727151378692495"><ele>494.33333333333337</ele><time>2026-04-11T08:28:54.996Z</time></trkpt><trkpt lat="40.69778918056006" lon="8.72731942553332"><ele>493.0</ele><time>2026-04-11T08:28:55.996Z</time></trkpt><trkpt lat="40.69769008027643" lon="8.72748706782128"><ele>493.0</ele><time>2026-04-11T08:28:56.996Z</time></trkpt><trkpt lat="40.69762356917676" lon="8.727685421580638"><ele>493.0</ele><time>2026-04-11T08:28:57.996Z</time></trkpt><trkpt lat="40.69754231043015" lon="8.727878288253203"><ele>493.0</ele><time>2026-04-11T08:28:58.996Z</time></trkpt><trkpt lat="40.69748287756354" lon="8.728099158293023"><ele>493.25</ele><time>2026-04-11T08:28:59.996Z</time></trkpt><trkpt lat="40.69742545444129" lon="8.728292044539014"><ele>493.5</ele><time>2026-04-11T08:29:00.996Z</time></trkpt><trkpt lat="40.6973686516525" lon="8.728451451812264"><ele>493.75</ele><time>2026-04-11T08:29:01.996Z</time></trkpt><trkpt lat="40.69733028607245" lon="8.728637427634185"><ele>494.0</ele><time>2026-04-11T08:29:02.996Z</time></trkpt><trkpt lat="40.69730042349438" lon="8.728836899318756"><ele>493.0</ele><time>2026-04-11T08:29:03.996Z</time></trkpt><trkpt lat="40.69727871821098" lon="8.729028436996423"><ele>492.0</ele><time>2026-04-11T08:29:04.996Z</time></trkpt><trkpt lat="40.697262430709365" lon="8.729223671596289"><ele>491.0</ele><time>2026-04-11T08:29:05.996Z</time></trkpt><trkpt lat="40.697248647099144" lon="8.729426919155069"><ele>490.0</ele><time>2026-04-11T08:29:06.996Z</time></trkpt><trkpt lat="40.69723004907788" lon="8.72962187564213"><ele>489.0</ele><time>2026-04-11T08:29:07.996Z</time></trkpt><trkpt lat="40.69719791058292" lon="8.729801848747185"><ele>488.0</ele><time>2026-04-11T08:29:08.996Z</time></trkpt><trkpt lat="40.69716148674053" lon="8.729928561956536"><ele>487.0</ele><time>2026-04-11T08:29:09.996Z</time></trkpt><trkpt lat="40.69710707355866" lon="8.730058201851865"><ele>487.0</ele><time>2026-04-11T08:29:10.996Z</time></trkpt><trkpt lat="40.69701523932434" lon="8.73020161403919"><ele>487.0</ele><time>2026-04-11T08:29:11.996Z</time></trkpt><trkpt lat="40.696847191158945" lon="8.730320426844067"><ele>487.0</ele><time>2026-04-11T08:29:12.996Z</time></trkpt><trkpt lat="40.69667776993359" lon="8.730434912144037"><ele>484.0</ele><time>2026-04-11T08:29:13.996Z</time></trkpt><trkpt lat="40.69647973017513" lon="8.730555699280806"><ele>481.0</ele><time>2026-04-11T08:29:14.996Z</time></trkpt><trkpt lat="40.69628465387328" lon="8.730663491920458"><ele>478.0</ele><time>2026-04-11T08:29:15.996Z</time></trkpt><trkpt lat="40.696097306473476" lon="8.730770758502587"><ele>478.0</ele><time>2026-04-11T08:29:16.996Z</time></trkpt><trkpt lat="40.69590832057748" lon="8.73089331780722"><ele>478.0</ele><time>2026-04-11T08:29:17.996Z</time></trkpt><trkpt lat="40.69572687453059" lon="8.730997387583544"><ele>478.0</ele><time>2026-04-11T08:29:18.996Z</time></trkpt><trkpt lat="40.69554398241901" lon="8.731107369349159"><ele>478.0</ele><time>2026-04-11T08:29:19.996Z</time></trkpt><trkpt lat="40.695365924051245" lon="8.731209849629645"><ele>478.0</ele><time>2026-04-11T08:29:20.996Z</time></trkpt><trkpt lat="40.69520282425657" lon="8.731300458670754"><ele>478.0</ele><time>2026-04-11T08:29:21.996Z</time></trkpt><trkpt lat="40.69503682583777" lon="8.73141273277249"><ele>476.0</ele><time>2026-04-11T08:29:22.996Z</time></trkpt><trkpt lat="40.69486067950928" lon="8.731490534965793"><ele>474.0</ele><time>2026-04-11T08:29:23.996Z</time></trkpt><trkpt lat="40.69471283730784" lon="8.731586467175164"><ele>472.0</ele><time>2026-04-11T08:29:24.996Z</time></trkpt><trkpt lat="40.694552355763506" lon="8.731670193335443"><ele>472.0</ele><time>2026-04-11T08:29:25.996Z</time></trkpt><trkpt lat="40.6944080080368" lon="8.731749457247417"><ele>472.0</ele><time>2026-04-11T08:29:26.996Z</time></trkpt><trkpt lat="40.69430890381652" lon="8.731881845221427"><ele>472.0</ele><time>2026-04-11T08:29:27.996Z</time></trkpt><trkpt lat="40.694203012082234" lon="8.731988118591364"><ele>472.0</ele><time>2026-04-11T08:29:28.996Z</time></trkpt><trkpt lat="40.69409493745272" lon="8.732130893630073"><ele>472.0</ele><time>2026-04-11T08:29:29.996Z</time></trkpt><trkpt lat="40.693987096075155" lon="8.732314216294487"><ele>472.0</ele><time>2026-04-11T08:29:30.996Z</time></trkpt><trkpt lat="40.69387857507676" lon="8.7324960150226"><ele>472.0</ele><time>2026-04-11T08:29:31.996Z</time></trkpt><trkpt lat="40.693771869100985" lon="8.73268585837115"><ele>471.6666666666667</ele><time>2026-04-11T08:29:32.996Z</time></trkpt><trkpt lat="40.693674965397456" lon="8.732849733321167"><ele>471.33333333333337</ele><time>2026-04-11T08:29:33.996Z</time></trkpt><trkpt lat="40.69359666910406" lon="8.733037830778848"><ele>471.0</ele><time>2026-04-11T08:29:34.996Z</time></trkpt><trkpt lat="40.693522839884075" lon="8.733220102933766"><ele>471.0</ele><time>2026-04-11T08:29:35.996Z</time></trkpt><trkpt lat="40.69344546537425" lon="8.73339517968608"><ele>471.0</ele><time>2026-04-11T08:29:36.996Z</time></trkpt><trkpt lat="40.69335721771733" lon="8.73359068202861"><ele>471.0</ele><time>2026-04-11T08:29:37.996Z</time></trkpt><trkpt lat="40.69327013243042" lon="8.733781738040067"><ele>472.33333333333337</ele><time>2026-04-11T08:29:38.996Z</time></trkpt><trkpt lat="40.693189108778185" lon="8.733956949516456"><ele>473.6666666666667</ele><time>2026-04-11T08:29:39.996Z</time></trkpt><trkpt lat="40.69309918171869" lon="8.734153049801455"><ele>475.0</ele><time>2026-04-11T08:29:41Z</time></trkpt><trkpt lat="40.69301049344317" lon="8.73435020770674"><ele>477.0</ele><time>2026-04-11T08:29:42Z</time></trkpt><trkpt lat="40.692930251127436" lon="8.734553442008345"><ele>479.0</ele><time>2026-04-11T08:29:43Z</time></trkpt><trkpt lat="40.69285998214617" lon="8.734783961600472"><ele>481.0</ele><time>2026-04-11T08:29:44Z</time></trkpt><trkpt lat="40.69281309071512" lon="8.735003039653265"><ele>483.33333333333337</ele><time>2026-04-11T08:29:45Z</time></trkpt><trkpt lat="40.69277414825852" lon="8.735234735376327"><ele>485.66666666666663</ele><time>2026-04-11T08:29:46Z</time></trkpt><trkpt lat="40.69274511333618" lon="8.735493195696465"><ele>488.0</ele><time>2026-04-11T08:29:47Z</time></trkpt><trkpt lat="40.69270703473271" lon="8.735735074051552"><ele>484.3333333333333</ele><time>2026-04-11T08:29:48Z</time></trkpt><trkpt lat="40.692651649918126" lon="8.735979528668103"><ele>480.66666666666663</ele><time>2026-04-11T08:29:49Z</time></trkpt><trkpt lat="40.69261208671555" lon="8.73621988703724"><ele>477.0</ele><time>2026-04-11T08:29:50Z</time></trkpt><trkpt lat="40.69257568859695" lon="8.7364378747265"><ele>477.0</ele><time>2026-04-11T08:29:51Z</time></trkpt><trkpt lat="40.69254342558375" lon="8.736626532565115"><ele>477.0</ele><time>2026-04-11T08:29:52Z</time></trkpt><trkpt lat="40.69251011131315" lon="8.736819370365598"><ele>477.0</ele><time>2026-04-11T08:29:53Z</time></trkpt><trkpt lat="40.69248896570722" lon="8.736986709159355"><ele>477.0</ele><time>2026-04-11T08:29:54Z</time></trkpt><trkpt lat="40.69247663832058" lon="8.737204012758541"><ele>477.66666666666663</ele><time>2026-04-11T08:29:55Z</time></trkpt><trkpt lat="40.69248505147782" lon="8.73741014328683"><ele>478.3333333333333</ele><time>2026-04-11T08:29:56Z</time></trkpt><trkpt lat="40.69250303284212" lon="8.737605163752516"><ele>479.0</ele><time>2026-04-11T08:29:57Z</time></trkpt><trkpt lat="40.69252796569386" lon="8.737810414843505"><ele>479.3333333333333</ele><time>2026-04-11T08:29:58Z</time></trkpt><trkpt lat="40.692556294171176" lon="8.738029522376486"><ele>479.66666666666663</ele><time>2026-04-11T08:29:59Z</time></trkpt><trkpt lat="40.69258438096017" lon="8.738228318697958"><ele>480.0</ele><time>2026-04-11T08:30:00Z</time></trkpt><trkpt lat="40.69261725639068" lon="8.738437978786406"><ele>481.0</ele><time>2026-04-11T08:30:01Z</time></trkpt><trkpt lat="40.692654451488714" lon="8.738648443955881"><ele>482.0</ele><time>2026-04-11T08:30:02Z</time></trkpt><trkpt lat="40.692688190282446" lon="8.73883481795915"><ele>483.0</ele><time>2026-04-11T08:30:03Z</time></trkpt><trkpt lat="40.692715235299744" lon="8.73902462247932"><ele>483.0</ele><time>2026-04-11T08:30:04Z</time></trkpt><trkpt lat="40.69271731785753" lon="8.739179017760833"><ele>482.99999999999994</ele><time>2026-04-11T08:30:05Z</time></trkpt><trkpt lat="40.69269264839373" lon="8.739299399286663"><ele>482.99999999999994</ele><time>2026-04-11T08:30:06Z</time></trkpt><trkpt lat="40.692652936858295" lon="8.739400559493937"><ele>483.0</ele><time>2026-04-11T08:30:07Z</time></trkpt><trkpt lat="40.692583799238015" lon="8.739532279228758"><ele>483.0</ele><time>2026-04-11T08:30:08Z</time></trkpt><trkpt lat="40.692493747853575" lon="8.739685526749305"><ele>486.33333333333337</ele><time>2026-04-11T08:30:09Z</time></trkpt><trkpt lat="40.69240529434051" lon="8.73983747450148"><ele>489.6666666666667</ele><time>2026-04-11T08:30:10Z</time></trkpt><trkpt lat="40.692307511736416" lon="8.740009305110593"><ele>493.0</ele><time>2026-04-11T08:30:11Z</time></trkpt><trkpt lat="40.692226862150356" lon="8.740182534872362"><ele>496.6666666666667</ele><time>2026-04-11T08:30:12Z</time></trkpt><trkpt lat="40.69213691967337" lon="8.74033497626929"><ele>500.33333333333337</ele><time>2026-04-11T08:30:13Z</time></trkpt><trkpt lat="40.69204049071257" lon="8.740508369489536"><ele>504.0</ele><time>2026-04-11T08:30:13.999Z</time></trkpt><trkpt lat="40.69193045433476" lon="8.740664303680195"><ele>502.66666666666663</ele><time>2026-04-11T08:30:14.999Z</time></trkpt><trkpt lat="40.691829289777736" lon="8.74082336791011"><ele>501.3333333333333</ele><time>2026-04-11T08:30:15.999Z</time></trkpt><trkpt lat="40.691726084137414" lon="8.740963078965423"><ele>500.0</ele><time>2026-04-11T08:30:16.999Z</time></trkpt><trkpt lat="40.69161368713869" lon="8.741106838699219"><ele>500.0</ele><time>2026-04-11T08:30:17.999Z</time></trkpt><trkpt lat="40.691467581711215" lon="8.7412180452761"><ele>500.0</ele><time>2026-04-11T08:30:18.999Z</time></trkpt><trkpt lat="40.69131826207174" lon="8.741337298930576"><ele>500.0</ele><time>2026-04-11T08:30:19.999Z</time></trkpt><trkpt lat="40.69117814401839" lon="8.741468505840404"><ele>498.3333333333333</ele><time>2026-04-11T08:30:20.999Z</time></trkpt><trkpt lat="40.69101828415699" lon="8.741597688839313"><ele>496.66666666666663</ele><time>2026-04-11T08:30:21.999Z</time></trkpt><trkpt lat="40.690860683434" lon="8.741717815662936"><ele>495.0</ele><time>2026-04-11T08:30:22.999Z</time></trkpt><trkpt lat="40.690706110767664" lon="8.741841240206933"><ele>496.0</ele><time>2026-04-11T08:30:23.999Z</time></trkpt><trkpt lat="40.690553431526745" lon="8.741965753895542"><ele>497.0</ele><time>2026-04-11T08:30:24.999Z</time></trkpt><trkpt lat="40.69040596971608" lon="8.742126544790258"><ele>498.0</ele><time>2026-04-11T08:30:25.999Z</time></trkpt><trkpt lat="40.69025057814617" lon="8.742298851198175"><ele>495.66666666666663</ele><time>2026-04-11T08:30:26.999Z</time></trkpt><trkpt lat="40.69012550814504" lon="8.742487004180042"><ele>493.3333333333333</ele><time>2026-04-11T08:30:27.999Z</time></trkpt><trkpt lat="40.689999870519614" lon="8.74266641516917"><ele>491.0</ele><time>2026-04-11T08:30:28.999Z</time></trkpt><trkpt lat="40.689878799877626" lon="8.742826412037642"><ele>490.3333333333333</ele><time>2026-04-11T08:30:29.999Z</time></trkpt><trkpt lat="40.689761960264114" lon="8.742966751651956"><ele>489.66666666666663</ele><time>2026-04-11T08:30:30.999Z</time></trkpt><trkpt lat="40.68963225753275" lon="8.743131662418538"><ele>489.0</ele><time>2026-04-11T08:30:31.999Z</time></trkpt><trkpt lat="40.68950279993732" lon="8.743295460949405"><ele>488.0</ele><time>2026-04-11T08:30:32.999Z</time></trkpt><trkpt lat="40.68940237808283" lon="8.7434713584106"><ele>487.0</ele><time>2026-04-11T08:30:33.999Z</time></trkpt><trkpt lat="40.68927835306547" lon="8.743626284451967"><ele>486.0</ele><time>2026-04-11T08:30:34.999Z</time></trkpt><trkpt lat="40.68915633164096" lon="8.74378637829001"><ele>486.0</ele><time>2026-04-11T08:30:35.999Z</time></trkpt><trkpt lat="40.689045205650714" lon="8.743935630611455"><ele>486.0</ele><time>2026-04-11T08:30:36.999Z</time></trkpt><trkpt lat="40.6889472264996" lon="8.744098095598964"><ele>486.0</ele><time>2026-04-11T08:30:37.999Z</time></trkpt><trkpt lat="40.68882481040743" lon="8.744231116697925"><ele>486.25</ele><time>2026-04-11T08:30:38.999Z</time></trkpt><trkpt lat="40.688708045343475" lon="8.74438054954445"><ele>486.5</ele><time>2026-04-11T08:30:39.999Z</time></trkpt><trkpt lat="40.68858621049951" lon="8.744515643745373"><ele>486.75</ele><time>2026-04-11T08:30:40.999Z</time></trkpt><trkpt lat="40.68848938293739" lon="8.744584776554715"><ele>487.0</ele><time>2026-04-11T08:30:41.999Z</time></trkpt><trkpt lat="40.688348389919554" lon="8.744647519259106"><ele>487.0</ele><time>2026-04-11T08:30:42.999Z</time></trkpt><trkpt lat="40.68819170719798" lon="8.744687928706396"><ele>487.0</ele><time>2026-04-11T08:30:43.999Z</time></trkpt><trkpt lat="40.68801886274563" lon="8.744732361217467"><ele>487.0</ele><time>2026-04-11T08:30:44.999Z</time></trkpt><trkpt lat="40.68785488143432" lon="8.744757516533346"><ele>486.5</ele><time>2026-04-11T08:30:45.999Z</time></trkpt><trkpt lat="40.68770417540438" lon="8.744760859815996"><ele>486.0</ele><time>2026-04-11T08:30:46.999Z</time></trkpt><trkpt lat="40.68756409280449" lon="8.744784094282812"><ele>485.5</ele><time>2026-04-11T08:30:47.999Z</time></trkpt><trkpt lat="40.687418942002786" lon="8.744811694187103"><ele>485.0</ele><time>2026-04-11T08:30:48.999Z</time></trkpt><trkpt lat="40.68729336140738" lon="8.744815881934695"><ele>485.0</ele><time>2026-04-11T08:30:49.999Z</time></trkpt><trkpt lat="40.68714709877698" lon="8.744845448891299"><ele>485.0</ele><time>2026-04-11T08:30:50.999Z</time></trkpt><trkpt lat="40.686996473617164" lon="8.74491148765748"><ele>485.0</ele><time>2026-04-11T08:30:51.999Z</time></trkpt><trkpt lat="40.686853829848495" lon="8.744974864234075"><ele>486.3333333333333</ele><time>2026-04-11T08:30:52.999Z</time></trkpt><trkpt lat="40.68668994244898" lon="8.74507649708905"><ele>487.66666666666663</ele><time>2026-04-11T08:30:53.999Z</time></trkpt><trkpt lat="40.686546058958996" lon="8.7451631373401"><ele>489.0</ele><time>2026-04-11T08:30:54.999Z</time></trkpt><trkpt lat="40.68639253136583" lon="8.74524273396821"><ele>489.0</ele><time>2026-04-11T08:30:55.999Z</time></trkpt><trkpt lat="40.68622864806919" lon="8.745325180091381"><ele>489.0</ele><time>2026-04-11T08:30:56.999Z</time></trkpt><trkpt lat="40.686073698773804" lon="8.745420398669577"><ele>489.0</ele><time>2026-04-11T08:30:57.999Z</time></trkpt><trkpt lat="40.68590005642401" lon="8.7455358297798"><ele>488.0</ele><time>2026-04-11T08:30:58.999Z</time></trkpt><trkpt lat="40.68573178304052" lon="8.745616769922671"><ele>487.0</ele><time>2026-04-11T08:30:59.999Z</time></trkpt><trkpt lat="40.68556726935806" lon="8.745710821499895"><ele>486.0</ele><time>2026-04-11T08:31:00.999Z</time></trkpt><trkpt lat="40.685395887717256" lon="8.745808799459889"><ele>486.66666666666663</ele><time>2026-04-11T08:31:01.999Z</time></trkpt><trkpt lat="40.685223969861404" lon="8.745907087862895"><ele>487.3333333333333</ele><time>2026-04-11T08:31:02.999Z</time></trkpt><trkpt lat="40.68506382621577" lon="8.74601105210028"><ele>488.0</ele><time>2026-04-11T08:31:03.999Z</time></trkpt><trkpt lat="40.68489307746114" lon="8.746082264744242"><ele>488.0</ele><time>2026-04-11T08:31:04.999Z</time></trkpt><trkpt lat="40.6847391932814" lon="8.746160643069915"><ele>488.0</ele><time>2026-04-11T08:31:05.999Z</time></trkpt><trkpt lat="40.684577847164675" lon="8.746252521295897"><ele>488.0</ele><time>2026-04-11T08:31:06.999Z</time></trkpt><trkpt lat="40.68442534061376" lon="8.746372618307223"><ele>484.3333333333333</ele><time>2026-04-11T08:31:07.999Z</time></trkpt><trkpt lat="40.68423518701492" lon="8.746459299581906"><ele>480.66666666666663</ele><time>2026-04-11T08:31:08.999Z</time></trkpt><trkpt lat="40.68406015665648" lon="8.746557452623161"><ele>477.0</ele><time>2026-04-11T08:31:09.999Z</time></trkpt><trkpt lat="40.68388015489708" lon="8.746658602478949"><ele>477.0</ele><time>2026-04-11T08:31:10.999Z</time></trkpt><trkpt lat="40.68371494025331" lon="8.746751443029742"><ele>477.0</ele><time>2026-04-11T08:31:11.999Z</time></trkpt><trkpt lat="40.68354133425487" lon="8.746849940658352"><ele>477.0</ele><time>2026-04-11T08:31:12.999Z</time></trkpt><trkpt lat="40.68337367093383" lon="8.746946281004508"><ele>479.66666666666663</ele><time>2026-04-11T08:31:13.999Z</time></trkpt><trkpt lat="40.683201064919466" lon="8.747054699017424"><ele>482.3333333333333</ele><time>2026-04-11T08:31:14.999Z</time></trkpt><trkpt lat="40.683026696597054" lon="8.747144628589332"><ele>485.0</ele><time>2026-04-11T08:31:15.999Z</time></trkpt><trkpt lat="40.68285918116917" lon="8.747239371734755"><ele>482.3333333333333</ele><time>2026-04-11T08:31:16.999Z</time></trkpt><trkpt lat="40.682676860373846" lon="8.747334464776497"><ele>479.66666666666663</ele><time>2026-04-11T08:31:17.999Z</time></trkpt><trkpt lat="40.6825153490497" lon="8.74743975164281"><ele>477.0</ele><time>2026-04-11T08:31:18.999Z</time></trkpt><trkpt lat="40.682376480650454" lon="8.747552054579323"><ele>477.0</ele><time>2026-04-11T08:31:19.999Z</time></trkpt><trkpt lat="40.68225460597905" lon="8.74764936338429"><ele>477.0</ele><time>2026-04-11T08:31:20.999Z</time></trkpt><trkpt lat="40.68215208674297" lon="8.747733286570629"><ele>477.0</ele><time>2026-04-11T08:31:21.999Z</time></trkpt><trkpt lat="40.68203911406286" lon="8.747827282121312"><ele>477.0</ele><time>2026-04-11T08:31:22.999Z</time></trkpt><trkpt lat="40.681926915570294" lon="8.74791725494472"><ele>478.0</ele><time>2026-04-11T08:31:23.999Z</time></trkpt><trkpt lat="40.68183238741798" lon="8.748000668729802"><ele>479.00000000000006</ele><time>2026-04-11T08:31:24.999Z</time></trkpt><trkpt lat="40.68173364262391" lon="8.74807686241673"><ele>480.00000000000006</ele><time>2026-04-11T08:31:25.999Z</time></trkpt><trkpt lat="40.68164185573759" lon="8.748121084638663"><ele>481.0</ele><time>2026-04-11T08:31:26.999Z</time></trkpt><trkpt lat="40.68153038185224" lon="8.748134619115495"><ele>482.0</ele><time>2026-04-11T08:31:27.999Z</time></trkpt><trkpt lat="40.68141930565351" lon="8.748121547798167"><ele>482.0</ele><time>2026-04-11T08:31:28.999Z</time></trkpt><trkpt lat="40.681287146046564" lon="8.748110469983176"><ele>482.0</ele><time>2026-04-11T08:31:29.999Z</time></trkpt><trkpt lat="40.68115736142346" lon="8.748051784648306"><ele>482.0</ele><time>2026-04-11T08:31:30.999Z</time></trkpt><trkpt lat="40.68103835682723" lon="8.748037680593125"><ele>482.0</ele><time>2026-04-11T08:31:31.999Z</time></trkpt><trkpt lat="40.68092713492811" lon="8.747991639474195"><ele>482.25</ele><time>2026-04-11T08:31:32.999Z</time></trkpt><trkpt lat="40.680799136921124" lon="8.747977174986952"><ele>482.5</ele><time>2026-04-11T08:31:33.999Z</time></trkpt><trkpt lat="40.68070465541945" lon="8.747951494995549"><ele>482.75</ele><time>2026-04-11T08:31:34.999Z</time></trkpt><trkpt lat="40.68060652250776" lon="8.747906175775288"><ele>483.0</ele><time>2026-04-11T08:31:35.999Z</time></trkpt><trkpt lat="40.68047788136924" lon="8.747892410169458"><ele>483.0</ele><time>2026-04-11T08:31:36.999Z</time></trkpt><trkpt lat="40.680379072070224" lon="8.747864727285585"><ele>482.99999999999994</ele><time>2026-04-11T08:31:37.999Z</time></trkpt><trkpt lat="40.68027501504107" lon="8.747820073656248"><ele>482.99999999999994</ele><time>2026-04-11T08:31:38.999Z</time></trkpt><trkpt lat="40.68017887327506" lon="8.747794844501847"><ele>483.0</ele><time>2026-04-11T08:31:39.999Z</time></trkpt><trkpt lat="40.68009740513365" lon="8.74777346600207"><ele>483.0</ele><time>2026-04-11T08:31:40.999Z</time></trkpt><trkpt lat="40.68003022773073" lon="8.747756451894455"><ele>482.75</ele><time>2026-04-11T08:31:41.999Z</time></trkpt><trkpt lat="40.68010099456867" lon="8.747782147376746"><ele>482.5</ele><time>2026-04-11T08:31:57.998Z</time></trkpt><trkpt lat="40.67993610521706" lon="8.747748801223311"><ele>482.25</ele><time>2026-04-11T08:32:24.998Z</time></trkpt><trkpt lat="40.679831985241265" lon="8.747719778771584"><ele>482.0</ele><time>2026-04-11T08:32:25.998Z</time></trkpt><trkpt lat="40.67970307959158" lon="8.747679445262639"><ele>482.0</ele><time>2026-04-11T08:32:26.998Z</time></trkpt><trkpt lat="40.67956120143323" lon="8.747702144433608"><ele>482.0</ele><time>2026-04-11T08:32:27.998Z</time></trkpt><trkpt lat="40.67941326450283" lon="8.7477262830336"><ele>482.0</ele><time>2026-04-11T08:32:28.998Z</time></trkpt><trkpt lat="40.67926520170028" lon="8.747707237577735"><ele>482.0</ele><time>2026-04-11T08:32:29.998Z</time></trkpt><trkpt lat="40.679112650400974" lon="8.74776587358333"><ele>482.0</ele><time>2026-04-11T08:32:30.998Z</time></trkpt><trkpt lat="40.67894582161486" lon="8.747758512329163"><ele>482.0</ele><time>2026-04-11T08:32:31.998Z</time></trkpt><trkpt lat="40.67876769825788" lon="8.747776778714021"><ele>482.0</ele><time>2026-04-11T08:32:32.998Z</time></trkpt><trkpt lat="40.67858318636015" lon="8.747800982317887"><ele>480.66666666666663</ele><time>2026-04-11T08:32:33.998Z</time></trkpt><trkpt lat="40.67837907560951" lon="8.747819694346344"><ele>479.33333333333337</ele><time>2026-04-11T08:32:34.998Z</time></trkpt><trkpt lat="40.678149551666515" lon="8.747868173465202"><ele>478.0</ele><time>2026-04-11T08:32:35.998Z</time></trkpt><trkpt lat="40.67793982845517" lon="8.747916518591074"><ele>476.33333333333337</ele><time>2026-04-11T08:32:36.998Z</time></trkpt><trkpt lat="40.67775197581222" lon="8.747927880289378"><ele>474.66666666666663</ele><time>2026-04-11T08:32:37.998Z</time></trkpt><trkpt lat="40.6775856570081" lon="8.747955008008915"><ele>473.0</ele><time>2026-04-11T08:32:38.998Z</time></trkpt><trkpt lat="40.67744071598476" lon="8.747974272173245"><ele>473.0</ele><time>2026-04-11T08:32:39.998Z</time></trkpt><trkpt lat="40.67731508900528" lon="8.747996824294507"><ele>473.0</ele><time>2026-04-11T08:32:40.998Z</time></trkpt><trkpt lat="40.67718273240867" lon="8.748030576922885"><ele>473.0</ele><time>2026-04-11T08:32:41.998Z</time></trkpt><trkpt lat="40.67705948253701" lon="8.748075702278088"><ele>473.0</ele><time>2026-04-11T08:32:42.998Z</time></trkpt><trkpt lat="40.676943093361764" lon="8.748140255507193"><ele>473.0</ele><time>2026-04-11T08:32:43.998Z</time></trkpt><trkpt lat="40.676809874574005" lon="8.748214293916257"><ele>473.0</ele><time>2026-04-11T08:32:44.998Z</time></trkpt><trkpt lat="40.67668921529355" lon="8.74833730412755"><ele>473.0</ele><time>2026-04-11T08:32:45.998Z</time></trkpt><trkpt lat="40.67656524398674" lon="8.748451220082067"><ele>473.0</ele><time>2026-04-11T08:32:46.998Z</time></trkpt><trkpt lat="40.67642662388958" lon="8.748572548519766"><ele>473.3333333333333</ele><time>2026-04-11T08:32:47.998Z</time></trkpt><trkpt lat="40.67628264610199" lon="8.748666956469462"><ele>473.66666666666663</ele><time>2026-04-11T08:32:48.998Z</time></trkpt><trkpt lat="40.676138586276224" lon="8.748760326974955"><ele>474.0</ele><time>2026-04-11T08:32:49.998Z</time></trkpt><trkpt lat="40.67601319183362" lon="8.748858631154796"><ele>474.0</ele><time>2026-04-11T08:32:50.998Z</time></trkpt><trkpt lat="40.675867677372175" lon="8.748893814927179"><ele>474.0</ele><time>2026-04-11T08:32:51.998Z</time></trkpt><trkpt lat="40.675731890195316" lon="8.748915517890934"><ele>474.0</ele><time>2026-04-11T08:32:52.998Z</time></trkpt><trkpt lat="40.675571181593554" lon="8.748974670370098"><ele>474.0</ele><time>2026-04-11T08:32:53.998Z</time></trkpt><trkpt lat="40.67537653848315" lon="8.748975681734292"><ele>474.0</ele><time>2026-04-11T08:32:54.998Z</time></trkpt><trkpt lat="40.67518587704656" lon="8.749004673836167"><ele>474.0</ele><time>2026-04-11T08:32:55.998Z</time></trkpt><trkpt lat="40.67500381352839" lon="8.749054277670334"><ele>472.0</ele><time>2026-04-11T08:32:56.998Z</time></trkpt><trkpt lat="40.67482433016444" lon="8.749088714055242"><ele>470.0</ele><time>2026-04-11T08:32:57.998Z</time></trkpt><trkpt lat="40.6746655066078" lon="8.74909984993546"><ele>468.0</ele><time>2026-04-11T08:32:58.998Z</time></trkpt><trkpt lat="40.67451744825093" lon="8.749142765168797"><ele>467.0</ele><time>2026-04-11T08:32:59.998Z</time></trkpt><trkpt lat="40.67438365675911" lon="8.749225185812406"><ele>466.0</ele><time>2026-04-11T08:33:00.998Z</time></trkpt><trkpt lat="40.67422722242813" lon="8.749297461262483"><ele>465.0</ele><time>2026-04-11T08:33:01.998Z</time></trkpt><trkpt lat="40.67405758739459" lon="8.749407400142719"><ele>465.0</ele><time>2026-04-11T08:33:02.998Z</time></trkpt><trkpt lat="40.673888992329054" lon="8.749521079816201"><ele>465.0</ele><time>2026-04-11T08:33:03.998Z</time></trkpt><trkpt lat="40.673726517050746" lon="8.749630633005518"><ele>465.0</ele><time>2026-04-11T08:33:04.998Z</time></trkpt><trkpt lat="40.67357391371444" lon="8.749731876424896"><ele>462.0</ele><time>2026-04-11T08:33:05.998Z</time></trkpt><trkpt lat="40.67342627324344" lon="8.749832979416423"><ele>459.0</ele><time>2026-04-11T08:33:06.998Z</time></trkpt><trkpt lat="40.67328543162003" lon="8.74990219493509"><ele>456.0</ele><time>2026-04-11T08:33:07.998Z</time></trkpt><trkpt lat="40.673156174810885" lon="8.749949996556182"><ele>456.0</ele><time>2026-04-11T08:33:08.998Z</time></trkpt><trkpt lat="40.67301164406505" lon="8.7499765372841"><ele>456.0</ele><time>2026-04-11T08:33:09.998Z</time></trkpt><trkpt lat="40.67286013766685" lon="8.749979308577533"><ele>456.0</ele><time>2026-04-11T08:33:10.998Z</time></trkpt><trkpt lat="40.67270707551318" lon="8.749938744527197"><ele>453.5</ele><time>2026-04-11T08:33:11.998Z</time></trkpt><trkpt lat="40.67255959413059" lon="8.749910542235117"><ele>451.0</ele><time>2026-04-11T08:33:12.998Z</time></trkpt><trkpt lat="40.67241630474896" lon="8.749887335312518"><ele>448.5</ele><time>2026-04-11T08:33:13.998Z</time></trkpt><trkpt lat="40.6722617329872" lon="8.749865004532264"><ele>446.0</ele><time>2026-04-11T08:33:14.998Z</time></trkpt><trkpt lat="40.67211150833283" lon="8.749849196118216"><ele>446.0</ele><time>2026-04-11T08:33:15.998Z</time></trkpt><trkpt lat="40.67197241022495" lon="8.749827738687522"><ele>446.0</ele><time>2026-04-11T08:33:16.998Z</time></trkpt><trkpt lat="40.671838905644634" lon="8.749802842460205"><ele>446.0</ele><time>2026-04-11T08:33:17.998Z</time></trkpt><trkpt lat="40.67170262303148" lon="8.749791838378021"><ele>446.0</ele><time>2026-04-11T08:33:18.998Z</time></trkpt><trkpt lat="40.67158422665813" lon="8.749788443159462"><ele>445.0</ele><time>2026-04-11T08:33:19.998Z</time></trkpt><trkpt lat="40.6714806060591" lon="8.74977905717959"><ele>444.0</ele><time>2026-04-11T08:33:20.998Z</time></trkpt><trkpt lat="40.6713857830824" lon="8.749764890147224"><ele>443.0</ele><time>2026-04-11T08:33:21.997Z</time></trkpt><trkpt lat="40.67130837145568" lon="8.749780263988304"><ele>442.0</ele><time>2026-04-11T08:33:22.997Z</time></trkpt><trkpt lat="40.67121683861924" lon="8.749757097080348"><ele>441.0</ele><time>2026-04-11T08:33:23.997Z</time></trkpt><trkpt lat="40.671129969828044" lon="8.749733458211987"><ele>440.4</ele><time>2026-04-11T08:33:24.997Z</time></trkpt><trkpt lat="40.67104347110531" lon="8.749742514656308"><ele>439.8</ele><time>2026-04-11T08:33:25.997Z</time></trkpt><trkpt lat="40.67095089155089" lon="8.74975809355633"><ele>439.19999999999993</ele><time>2026-04-11T08:33:26.997Z</time></trkpt><trkpt lat="40.67084872725729" lon="8.749745758390773"><ele>438.59999999999997</ele><time>2026-04-11T08:33:27.997Z</time></trkpt><trkpt lat="40.67076239622942" lon="8.749736256951195"><ele>438.0</ele><time>2026-04-11T08:33:28.997Z</time></trkpt><trkpt lat="40.670651858718756" lon="8.749724091388822"><ele>438.0</ele><time>2026-04-11T08:33:29.997Z</time></trkpt><trkpt lat="40.670538513459675" lon="8.749711616810771"><ele>438.0</ele><time>2026-04-11T08:33:30.997Z</time></trkpt><trkpt lat="40.67042665854863" lon="8.749699798420309"><ele>438.0</ele><time>2026-04-11T08:33:31.997Z</time></trkpt><trkpt lat="40.67030838458781" lon="8.749687652607218"><ele>438.0</ele><time>2026-04-11T08:33:32.997Z</time></trkpt><trkpt lat="40.670189580403196" lon="8.749675452344775"><ele>437.59999999999997</ele><time>2026-04-11T08:33:33.997Z</time></trkpt><trkpt lat="40.67008663948419" lon="8.749664881115978"><ele>437.19999999999993</ele><time>2026-04-11T08:33:34.997Z</time></trkpt><trkpt lat="40.66998250173075" lon="8.74965578268077"><ele>436.8</ele><time>2026-04-11T08:33:35.997Z</time></trkpt><trkpt lat="40.669904462755504" lon="8.74964894413253"><ele>436.4</ele><time>2026-04-11T08:33:36.997Z</time></trkpt><trkpt lat="40.66980116038573" lon="8.749656013245115"><ele>436.0</ele><time>2026-04-11T08:33:38.997Z</time></trkpt><trkpt lat="40.669772994233334" lon="8.74955385828145"><ele>436.0</ele><time>2026-04-11T08:33:40.997Z</time></trkpt><trkpt lat="40.66979044084265" lon="8.749453093937055"><ele>436.0</ele><time>2026-04-11T08:33:41.997Z</time></trkpt><trkpt lat="40.669822644064205" lon="8.749330914292628"><ele>436.0</ele><time>2026-04-11T08:33:42.997Z</time></trkpt><trkpt lat="40.6698410681171" lon="8.749199580445396"><ele>436.0</ele><time>2026-04-11T08:33:43.998Z</time></trkpt><trkpt lat="40.66987049482838" lon="8.749065659066506"><ele>436.0</ele><time>2026-04-11T08:33:44.998Z</time></trkpt><trkpt lat="40.669900074059214" lon="8.748941708631662"><ele>436.0</ele><time>2026-04-11T08:33:45.998Z</time></trkpt><trkpt lat="40.66992759691106" lon="8.748810670723579"><ele>436.0</ele><time>2026-04-11T08:33:46.998Z</time></trkpt><trkpt lat="40.66998937146768" lon="8.748677739348071"><ele>436.0</ele><time>2026-04-11T08:33:47.998Z</time></trkpt><trkpt lat="40.670011228639545" lon="8.748536360747371"><ele>436.0</ele><time>2026-04-11T08:33:48.998Z</time></trkpt><trkpt lat="40.670030975360525" lon="8.748424016472343"><ele>436.0</ele><time>2026-04-11T08:33:49.998Z</time></trkpt><trkpt lat="40.670065311411754" lon="8.7483172277599"><ele>436.4</ele><time>2026-04-11T08:33:50.998Z</time></trkpt><trkpt lat="40.67008417548337" lon="8.748189180307836"><ele>436.8</ele><time>2026-04-11T08:33:51.998Z</time></trkpt><trkpt lat="40.670109162441065" lon="8.74807159565757"><ele>437.19999999999993</ele><time>2026-04-11T08:33:52.998Z</time></trkpt><trkpt lat="40.67014727164722" lon="8.747949764665568"><ele>437.59999999999997</ele><time>2026-04-11T08:33:53.998Z</time></trkpt><trkpt lat="40.67018308472716" lon="8.74782263803238"><ele>438.0</ele><time>2026-04-11T08:33:54.998Z</time></trkpt><trkpt lat="40.670195237554175" lon="8.747681191824915"><ele>438.59999999999997</ele><time>2026-04-11T08:33:55.998Z</time></trkpt><trkpt lat="40.67021254040862" lon="8.747560505892523"><ele>439.19999999999993</ele><time>2026-04-11T08:33:56.998Z</time></trkpt><trkpt lat="40.67021325553519" lon="8.747417776297983"><ele>439.8</ele><time>2026-04-11T08:33:57.998Z</time></trkpt><trkpt lat="40.67022400460005" lon="8.747285894045866"><ele>440.4</ele><time>2026-04-11T08:33:58.998Z</time></trkpt><trkpt lat="40.67020114914681" lon="8.747148672542314"><ele>441.0</ele><time>2026-04-11T08:33:59.998Z</time></trkpt><trkpt lat="40.67019993526682" lon="8.746987440098005"><ele>441.75</ele><time>2026-04-11T08:34:00.998Z</time></trkpt><trkpt lat="40.6701913305044" lon="8.746825981551298"><ele>442.5</ele><time>2026-04-11T08:34:01.998Z</time></trkpt><trkpt lat="40.670176782349024" lon="8.746653603749584"><ele>443.25</ele><time>2026-04-11T08:34:02.998Z</time></trkpt><trkpt lat="40.67018651898228" lon="8.74651242085095"><ele>444.0</ele><time>2026-04-11T08:34:03.998Z</time></trkpt><trkpt lat="40.67016297109357" lon="8.746374594606255"><ele>444.0</ele><time>2026-04-11T08:34:04.998Z</time></trkpt><trkpt lat="40.67019179151445" lon="8.746228603540878"><ele>444.0</ele><time>2026-04-11T08:34:05.998Z</time></trkpt><trkpt lat="40.67021512593366" lon="8.74609737972277"><ele>444.0</ele><time>2026-04-11T08:34:06.998Z</time></trkpt><trkpt lat="40.67023593147879" lon="8.745984261456432"><ele>444.0</ele><time>2026-04-11T08:34:07.998Z</time></trkpt><trkpt lat="40.670248922612416" lon="8.74587732402903"><ele>444.0</ele><time>2026-04-11T08:34:08.998Z</time></trkpt><trkpt lat="40.67024774585818" lon="8.745793071452574"><ele>443.79999999999995</ele><time>2026-04-11T08:34:09.998Z</time></trkpt><trkpt lat="40.670259765781886" lon="8.745685481427959"><ele>443.59999999999997</ele><time>2026-04-11T08:34:10.998Z</time></trkpt><trkpt lat="40.670251774692126" lon="8.74557581524648"><ele>443.4</ele><time>2026-04-11T08:34:11.998Z</time></trkpt><trkpt lat="40.67025141290359" lon="8.745447140893827"><ele>443.2</ele><time>2026-04-11T08:34:12.998Z</time></trkpt><trkpt lat="40.67026741059398" lon="8.745303736426816"><ele>443.0</ele><time>2026-04-11T08:34:13.998Z</time></trkpt><trkpt lat="40.670268544229685" lon="8.745188003613592"><ele>443.0</ele><time>2026-04-11T08:34:14.998Z</time></trkpt><trkpt lat="40.670269484742214" lon="8.745091984233325"><ele>442.99999999999994</ele><time>2026-04-11T08:34:15.998Z</time></trkpt><trkpt lat="40.670144819344266" lon="8.745076991553537"><ele>442.99999999999994</ele><time>2026-04-11T08:34:16.998Z</time></trkpt><trkpt lat="40.67002880361824" lon="8.745022562360935"><ele>443.0</ele><time>2026-04-11T08:34:17.998Z</time></trkpt><trkpt lat="40.669942467834765" lon="8.744946676986931"><ele>443.0</ele><time>2026-04-11T08:34:18.998Z</time></trkpt><trkpt lat="40.66986976864647" lon="8.744870103075595"><ele>443.0</ele><time>2026-04-11T08:34:19.998Z</time></trkpt><trkpt lat="40.66978572268047" lon="8.744802556646338"><ele>443.0</ele><time>2026-04-11T08:34:20.998Z</time></trkpt><trkpt lat="40.66970677971112" lon="8.74468944766443"><ele>443.0</ele><time>2026-04-11T08:34:21.998Z</time></trkpt><trkpt lat="40.6696187766581" lon="8.74454824361344"><ele>443.0</ele><time>2026-04-11T08:34:22.998Z</time></trkpt><trkpt lat="40.669553186538444" lon="8.74439750540489"><ele>442.75</ele><time>2026-04-11T08:34:23.998Z</time></trkpt><trkpt lat="40.66948015966282" lon="8.744235013953762"><ele>442.5</ele><time>2026-04-11T08:34:24.998Z</time></trkpt><trkpt lat="40.66940541376102" lon="8.744100590569978"><ele>442.25</ele><time>2026-04-11T08:34:25.998Z</time></trkpt><trkpt lat="40.669332394488514" lon="8.743969432979938"><ele>442.0</ele><time>2026-04-11T08:34:26.998Z</time></trkpt><trkpt lat="40.66924337377308" lon="8.743859374722243"><ele>443.25</ele><time>2026-04-11T08:34:27.998Z</time></trkpt><trkpt lat="40.66915116102957" lon="8.743765771576356"><ele>444.5</ele><time>2026-04-11T08:34:28.998Z</time></trkpt><trkpt lat="40.669050121082044" lon="8.743672849785616"><ele>445.75</ele><time>2026-04-11T08:34:29.998Z</time></trkpt><trkpt lat="40.66895696378967" lon="8.7435736291013"><ele>447.0</ele><time>2026-04-11T08:34:30.998Z</time></trkpt><trkpt lat="40.66885189868954" lon="8.743509154659705"><ele>444.75</ele><time>2026-04-11T08:34:31.998Z</time></trkpt><trkpt lat="40.66874901098172" lon="8.743437378096866"><ele>442.5</ele><time>2026-04-11T08:34:32.998Z</time></trkpt><trkpt lat="40.668656041006315" lon="8.743364728164451"><ele>440.25</ele><time>2026-04-11T08:34:33.998Z</time></trkpt><trkpt lat="40.66857006646428" lon="8.743270296371701"><ele>438.0</ele><time>2026-04-11T08:34:34.998Z</time></trkpt><trkpt lat="40.66845721845977" lon="8.743151854641312"><ele>438.0</ele><time>2026-04-11T08:34:35.998Z</time></trkpt><trkpt lat="40.668336371944676" lon="8.743001686986675"><ele>438.0</ele><time>2026-04-11T08:34:36.998Z</time></trkpt><trkpt lat="40.668207290111916" lon="8.742902546537271"><ele>438.0</ele><time>2026-04-11T08:34:37.998Z</time></trkpt><trkpt lat="40.6680968782206" lon="8.742768668346331"><ele>437.0</ele><time>2026-04-11T08:34:38.998Z</time></trkpt><trkpt lat="40.66797206612043" lon="8.742661284615737"><ele>436.0</ele><time>2026-04-11T08:34:39.998Z</time></trkpt><trkpt lat="40.66786454137719" lon="8.74255427564161"><ele>435.0</ele><time>2026-04-11T08:34:40.998Z</time></trkpt><trkpt lat="40.667770509844004" lon="8.742460695174747"><ele>434.0</ele><time>2026-04-11T08:34:41.998Z</time></trkpt><trkpt lat="40.66768120091695" lon="8.742368097524297"><ele>434.0</ele><time>2026-04-11T08:34:42.998Z</time></trkpt><trkpt lat="40.66759509118471" lon="8.74227145595853"><ele>434.0</ele><time>2026-04-11T08:34:43.998Z</time></trkpt><trkpt lat="40.667514614652234" lon="8.742171958451337"><ele>434.0</ele><time>2026-04-11T08:34:44.998Z</time></trkpt><trkpt lat="40.66744745504344" lon="8.74206017965235"><ele>434.0</ele><time>2026-04-11T08:34:45.998Z</time></trkpt><trkpt lat="40.66736180537385" lon="8.741974600589844"><ele>434.0</ele><time>2026-04-11T08:34:46.998Z</time></trkpt><trkpt lat="40.66726912953108" lon="8.741920911572652"><ele>432.6</ele><time>2026-04-11T08:34:47.998Z</time></trkpt><trkpt lat="40.66716516441613" lon="8.741875134505232"><ele>431.2</ele><time>2026-04-11T08:34:48.998Z</time></trkpt><trkpt lat="40.667074500795266" lon="8.741846787877268"><ele>429.80000000000007</ele><time>2026-04-11T08:34:49.998Z</time></trkpt><trkpt lat="40.66699340324442" lon="8.741794185544247"><ele>428.40000000000003</ele><time>2026-04-11T08:34:50.998Z</time></trkpt><trkpt lat="40.66688839546999" lon="8.741781857418585"><ele>427.0</ele><time>2026-04-11T08:34:51.998Z</time></trkpt><trkpt lat="40.66678427627088" lon="8.741723921619194"><ele>427.0</ele><time>2026-04-11T08:34:52.998Z</time></trkpt><trkpt lat="40.66669651159794" lon="8.74168377876026"><ele>427.00000000000006</ele><time>2026-04-11T08:34:53.998Z</time></trkpt><trkpt lat="40.666589650002265" lon="8.741634254494036"><ele>427.00000000000006</ele><time>2026-04-11T08:34:54.998Z</time></trkpt><trkpt lat="40.66648875331668" lon="8.74158413142303"><ele>427.0</ele><time>2026-04-11T08:34:55.998Z</time></trkpt><trkpt lat="40.666391470116864" lon="8.741535802863666"><ele>427.0</ele><time>2026-04-11T08:34:56.997Z</time></trkpt><trkpt lat="40.66631630825118" lon="8.74151314370519"><ele>427.0</ele><time>2026-04-11T08:34:57.997Z</time></trkpt><trkpt lat="40.66623542386498" lon="8.741496726703327"><ele>427.00000000000006</ele><time>2026-04-11T08:34:58.997Z</time></trkpt><trkpt lat="40.66614604253959" lon="8.741493617193427"><ele>427.00000000000006</ele><time>2026-04-11T08:34:59.997Z</time></trkpt><trkpt lat="40.66606996657684" lon="8.741490110448565"><ele>427.0</ele><time>2026-04-11T08:35:00.997Z</time></trkpt><trkpt lat="40.66597297443265" lon="8.741490734308245"><ele>427.0</ele><time>2026-04-11T08:35:01.997Z</time></trkpt><trkpt lat="40.6658642401287" lon="8.741495834735124"><ele>426.0</ele><time>2026-04-11T08:35:02.997Z</time></trkpt><trkpt lat="40.66575385734831" lon="8.741510349069225"><ele>425.00000000000006</ele><time>2026-04-11T08:35:03.997Z</time></trkpt><trkpt lat="40.6656466211577" lon="8.741524136722932"><ele>424.0</ele><time>2026-04-11T08:35:04.997Z</time></trkpt><trkpt lat="40.66555177780501" lon="8.741536508163602"><ele>423.0</ele><time>2026-04-11T08:35:05.997Z</time></trkpt><trkpt lat="40.665470935593945" lon="8.741504238357114"><ele>422.0</ele><time>2026-04-11T08:35:06.997Z</time></trkpt><trkpt lat="40.66543716611497" lon="8.741399851793995"><ele>422.0</ele><time>2026-04-11T08:35:08.997Z</time></trkpt><trkpt lat="40.665431631814926" lon="8.74129088432739"><ele>422.0</ele><time>2026-04-11T08:35:09.997Z</time></trkpt><trkpt lat="40.665451097609356" lon="8.741138467905547"><ele>422.0</ele><time>2026-04-11T08:35:10.997Z</time></trkpt><trkpt lat="40.66544202471483" lon="8.740996127986975"><ele>422.0</ele><time>2026-04-11T08:35:11.997Z</time></trkpt><trkpt lat="40.66542255516524" lon="8.74085405959763"><ele>422.0</ele><time>2026-04-11T08:35:12.997Z</time></trkpt><trkpt lat="40.66542293674089" lon="8.740731541263592"><ele>420.8</ele><time>2026-04-11T08:35:13.997Z</time></trkpt><trkpt lat="40.66542152638753" lon="8.740630210156976"><ele>419.6</ele><time>2026-04-11T08:35:14.997Z</time></trkpt><trkpt lat="40.66528120223727" lon="8.74053703972713"><ele>418.40000000000003</ele><time>2026-04-11T08:35:17.997Z</time></trkpt><trkpt lat="40.66520478135995" lon="8.740534492410955"><ele>417.20000000000005</ele><time>2026-04-11T08:35:18.997Z</time></trkpt><trkpt lat="40.66511884890878" lon="8.740545295890403"><ele>416.0</ele><time>2026-04-11T08:35:19.997Z</time></trkpt><trkpt lat="40.66504326266596" lon="8.7405704188468"><ele>415.4</ele><time>2026-04-11T08:35:20.997Z</time></trkpt><trkpt lat="40.664974218604826" lon="8.740577190878781"><ele>414.8</ele><time>2026-04-11T08:35:21.997Z</time></trkpt><trkpt lat="40.66483653048484" lon="8.740590406378265"><ele>414.2</ele><time>2026-04-11T08:35:23.997Z</time></trkpt><trkpt lat="40.66475553214174" lon="8.740579303964315"><ele>413.59999999999997</ele><time>2026-04-11T08:35:24.997Z</time></trkpt><trkpt lat="40.66467557490433" lon="8.740599353977272"><ele>413.0</ele><time>2026-04-11T08:35:25.997Z</time></trkpt><trkpt lat="40.664582873198974" lon="8.740600016554838"><ele>412.99999999999994</ele><time>2026-04-11T08:35:26.997Z</time></trkpt><trkpt lat="40.66450087040304" lon="8.74060704494795"><ele>413.0</ele><time>2026-04-11T08:35:27.997Z</time></trkpt><trkpt lat="40.664417319333204" lon="8.740633519520438"><ele>413.0</ele><time>2026-04-11T08:35:28.997Z</time></trkpt><trkpt lat="40.664335212624245" lon="8.740663037199438"><ele>413.0</ele><time>2026-04-11T08:35:29.997Z</time></trkpt><trkpt lat="40.66424761066941" lon="8.740677528357068"><ele>412.99999999999994</ele><time>2026-04-11T08:35:30.997Z</time></trkpt><trkpt lat="40.66415478664812" lon="8.740683711689998"><ele>413.0</ele><time>2026-04-11T08:35:31.997Z</time></trkpt><trkpt lat="40.66405424345671" lon="8.740652801237902"><ele>412.99999999999994</ele><time>2026-04-11T08:35:32.997Z</time></trkpt><trkpt lat="40.663968262320196" lon="8.740680499488125"><ele>413.0</ele><time>2026-04-11T08:35:33.997Z</time></trkpt><trkpt lat="40.663889918019755" lon="8.740687757870697"><ele>413.0</ele><time>2026-04-11T08:35:35.997Z</time></trkpt><trkpt lat="40.66382154780112" lon="8.740709155193645"><ele>413.0</ele><time>2026-04-11T08:35:38.997Z</time></trkpt><trkpt lat="40.66369320135832" lon="8.740708275611539"><ele>412.99999999999994</ele><time>2026-04-11T08:35:40.997Z</time></trkpt><trkpt lat="40.6636099177342" lon="8.740711509003265"><ele>413.0</ele><time>2026-04-11T08:35:41.997Z</time></trkpt><trkpt lat="40.66354839891221" lon="8.740732134478472"><ele>412.59999999999997</ele><time>2026-04-11T08:35:42.997Z</time></trkpt><trkpt lat="40.66347126591547" lon="8.740716450884458"><ele>412.2</ele><time>2026-04-11T08:35:43.997Z</time></trkpt><trkpt lat="40.663392755737206" lon="8.740718325896808"><ele>411.8</ele><time>2026-04-11T08:35:45.997Z</time></trkpt><trkpt lat="40.66329924830069" lon="8.740776906013185"><ele>411.4</ele><time>2026-04-11T08:35:50.997Z</time></trkpt><trkpt lat="40.66316527153124" lon="8.740772344098414"><ele>411.0</ele><time>2026-04-11T08:35:52.997Z</time></trkpt><trkpt lat="40.66308229917705" lon="8.740788080173829"><ele>411.0</ele><time>2026-04-11T08:35:53.997Z</time></trkpt><trkpt lat="40.66299284472574" lon="8.740780732192944"><ele>411.0</ele><time>2026-04-11T08:35:54.997Z</time></trkpt><trkpt lat="40.66290246307319" lon="8.740783228083107"><ele>411.0</ele><time>2026-04-11T08:35:55.997Z</time></trkpt><trkpt lat="40.6628149576203" lon="8.740806134687938"><ele>411.0</ele><time>2026-04-11T08:35:56.997Z</time></trkpt><trkpt lat="40.66273425003787" lon="8.74081379526249"><ele>411.0</ele><time>2026-04-11T08:35:57.997Z</time></trkpt><trkpt lat="40.662669960104765" lon="8.740819897506176"><ele>411.0</ele><time>2026-04-11T08:35:58.997Z</time></trkpt><trkpt lat="40.662604125188224" lon="8.740807891454534"><ele>410.6</ele><time>2026-04-11T08:36:00.997Z</time></trkpt><trkpt lat="40.66257700829807" lon="8.740708872733792"><ele>410.20000000000005</ele><time>2026-04-11T08:36:04.997Z</time></trkpt><trkpt lat="40.66258084093935" lon="8.740577287522557"><ele>409.79999999999995</ele><time>2026-04-11T08:36:06.997Z</time></trkpt><trkpt lat="40.662584720592655" lon="8.740393141086468"><ele>409.4</ele><time>2026-04-11T08:36:08.997Z</time></trkpt><trkpt lat="40.6625882148821" lon="8.740288767288291"><ele>409.0</ele><time>2026-04-11T08:36:09.997Z</time></trkpt><trkpt lat="40.662588486103296" lon="8.740200592424626"><ele>408.33333333333337</ele><time>2026-04-11T08:36:10.997Z</time></trkpt><trkpt lat="40.66258469915993" lon="8.740091292026511"><ele>407.6666666666667</ele><time>2026-04-11T08:36:11.997Z</time></trkpt><trkpt lat="40.66256907990291" lon="8.739959906094585"><ele>407.0</ele><time>2026-04-11T08:36:12.997Z</time></trkpt><trkpt lat="40.662566407435314" lon="8.739837063951304"><ele>406.33333333333337</ele><time>2026-04-11T08:36:13.997Z</time></trkpt><trkpt lat="40.66255051497975" lon="8.739729798765167"><ele>405.6666666666667</ele><time>2026-04-11T08:36:14.997Z</time></trkpt><trkpt lat="40.66255095394771" lon="8.73963390171758"><ele>405.0</ele><time>2026-04-11T08:36:15.997Z</time></trkpt><trkpt lat="40.662531398781525" lon="8.739500068668942"><ele>404.2</ele><time>2026-04-11T08:36:17.997Z</time></trkpt><trkpt lat="40.662515068682666" lon="8.739381105168816"><ele>403.4</ele><time>2026-04-11T08:36:19.997Z</time></trkpt><trkpt lat="40.662507279697714" lon="8.73924704684584"><ele>402.6</ele><time>2026-04-11T08:36:20.997Z</time></trkpt><trkpt lat="40.66249299348939" lon="8.739110220390346"><ele>401.8</ele><time>2026-04-11T08:36:21.997Z</time></trkpt><trkpt lat="40.662479201346066" lon="8.738950932518284"><ele>401.0</ele><time>2026-04-11T08:36:22.997Z</time></trkpt><trkpt lat="40.66248235268774" lon="8.738782234371142"><ele>401.0</ele><time>2026-04-11T08:36:23.997Z</time></trkpt><trkpt lat="40.66247886087202" lon="8.73864586753981"><ele>401.0</ele><time>2026-04-11T08:36:24.997Z</time></trkpt><trkpt lat="40.66246134874016" lon="8.738496688688183"><ele>401.0</ele><time>2026-04-11T08:36:25.997Z</time></trkpt><trkpt lat="40.662454831243764" lon="8.738383809121816"><ele>401.0</ele><time>2026-04-11T08:36:26.997Z</time></trkpt><trkpt lat="40.66244660415386" lon="8.738271507466742"><ele>401.0</ele><time>2026-04-11T08:36:27.997Z</time></trkpt><trkpt lat="40.66245526119735" lon="8.738148595996105"><ele>400.4</ele><time>2026-04-11T08:36:28.997Z</time></trkpt><trkpt lat="40.66243784849171" lon="8.738058660026574"><ele>399.8</ele><time>2026-04-11T08:36:29.997Z</time></trkpt><trkpt lat="40.662438262922684" lon="8.737906441913905"><ele>399.2</ele><time>2026-04-11T08:36:31.996Z</time></trkpt><trkpt lat="40.66241949176883" lon="8.7378263896625"><ele>398.59999999999997</ele><time>2026-04-11T08:37:34Z</time></trkpt><trkpt lat="40.662430748269436" lon="8.7377444931624"><ele>398.0</ele><time>2026-04-11T08:38:46.999Z</time></trkpt><trkpt lat="40.662481316853764" lon="8.737556952093188"><ele>398.0</ele><time>2026-04-11T08:49:25.998Z</time></trkpt><trkpt lat="40.66257063918495" lon="8.737743701008787"><ele>398.0</ele><time>2026-04-11T08:58:46Z</time></trkpt><trkpt lat="40.662596416133375" lon="8.737727336461198"><ele>398.0</ele><time>2026-04-11T09:01:05.229Z</time></trkpt><trkpt lat="40.66229009625316" lon="8.737744527618839"><ele>398.0</ele><time>2026-04-11T09:01:05.738Z</time></trkpt><trkpt lat="40.66237222064844" lon="8.737756939365092"><ele>398.0</ele><time>2026-04-11T09:01:12Z</time></trkpt><trkpt lat="40.662405837741005" lon="8.737858364466822"><ele>398.0</ele><time>2026-04-11T09:01:51Z</time></trkpt><trkpt lat="40.66242431463839" lon="8.737952762757196"><ele>398.0</ele><time>2026-04-11T09:01:53Z</time></trkpt><trkpt lat="40.66244524479952" lon="8.738129841768208"><ele>398.0</ele><time>2026-04-11T09:01:55Z</time></trkpt><trkpt lat="40.66244826411479" lon="8.738238888900343"><ele>397.99999999999994</ele><time>2026-04-11T09:01:56Z</time></trkpt><trkpt lat="40.662433304342" lon="8.738349199799107"><ele>398.0</ele><time>2026-04-11T09:01:57Z</time></trkpt><trkpt lat="40.66243075042012" lon="8.738438275993515"><ele>398.0</ele><time>2026-04-11T09:01:58Z</time></trkpt><trkpt lat="40.66243699251664" lon="8.73859818499045"><ele>398.0</ele><time>2026-04-11T09:02:00Z</time></trkpt><trkpt lat="40.66245005281372" lon="8.738688330419329"><ele>397.99999999999994</ele><time>2026-04-11T09:02:01Z</time></trkpt><trkpt lat="40.662459772209886" lon="8.738784497112386"><ele>398.0</ele><time>2026-04-11T09:02:02Z</time></trkpt><trkpt lat="40.66247469212841" lon="8.738889576578199"><ele>398.59999999999997</ele><time>2026-04-11T09:02:03Z</time></trkpt><trkpt lat="40.66248592069006" lon="8.739004977993435"><ele>399.2</ele><time>2026-04-11T09:02:04Z</time></trkpt><trkpt lat="40.66248061416797" lon="8.739135559563548"><ele>399.8</ele><time>2026-04-11T09:02:05Z</time></trkpt><trkpt lat="40.66247462018757" lon="8.739242126375395"><ele>400.4</ele><time>2026-04-11T09:02:06Z</time></trkpt><trkpt lat="40.66247760597176" lon="8.739378805456925"><ele>401.0</ele><time>2026-04-11T09:02:08Z</time></trkpt><trkpt lat="40.662489727122086" lon="8.739481575633558"><ele>401.66666666666663</ele><time>2026-04-11T09:02:10Z</time></trkpt><trkpt lat="40.662574709006236" lon="8.739525812102663"><ele>402.3333333333333</ele><time>2026-04-11T09:02:12Z</time></trkpt><trkpt lat="40.66264537588242" lon="8.739498380802395"><ele>403.0</ele><time>2026-04-11T09:02:13Z</time></trkpt><trkpt lat="40.66272936731181" lon="8.73946598131599"><ele>403.66666666666663</ele><time>2026-04-11T09:02:14Z</time></trkpt><trkpt lat="40.662801576856914" lon="8.739456145406931"><ele>404.3333333333333</ele><time>2026-04-11T09:02:15Z</time></trkpt><trkpt lat="40.66287860675783" lon="8.73944588347326"><ele>405.0</ele><time>2026-04-11T09:02:16Z</time></trkpt><trkpt lat="40.662952974202206" lon="8.739439258541292"><ele>405.3333333333333</ele><time>2026-04-11T09:02:17Z</time></trkpt><trkpt lat="40.66302629723753" lon="8.739428207392887"><ele>405.66666666666663</ele><time>2026-04-11T09:02:18Z</time></trkpt><trkpt lat="40.663096233399955" lon="8.739416706636678"><ele>406.0</ele><time>2026-04-11T09:02:19Z</time></trkpt><trkpt lat="40.66317268502002" lon="8.739400156219292"><ele>406.3333333333333</ele><time>2026-04-11T09:02:21Z</time></trkpt><trkpt lat="40.66325414648102" lon="8.739428995456247"><ele>406.66666666666663</ele><time>2026-04-11T09:02:23Z</time></trkpt><trkpt lat="40.663337378973175" lon="8.739527330986755"><ele>407.0</ele><time>2026-04-11T09:02:25Z</time></trkpt><trkpt lat="40.66336887940343" lon="8.739624803106095"><ele>407.0</ele><time>2026-04-11T09:02:26Z</time></trkpt><trkpt lat="40.6633828005138" lon="8.739747579856127"><ele>407.0</ele><time>2026-04-11T09:02:27Z</time></trkpt><trkpt lat="40.66338438459907" lon="8.739902648796281"><ele>407.0</ele><time>2026-04-11T09:02:28Z</time></trkpt><trkpt lat="40.66337730585951" lon="8.740048683004815"><ele>407.0</ele><time>2026-04-11T09:02:29Z</time></trkpt><trkpt lat="40.663372913128725" lon="8.740189897135387"><ele>407.0</ele><time>2026-04-11T09:02:30Z</time></trkpt><trkpt lat="40.66336933292161" lon="8.740337494060746"><ele>407.8</ele><time>2026-04-11T09:02:31Z</time></trkpt><trkpt lat="40.663367724396146" lon="8.74047708951325"><ele>408.6</ele><time>2026-04-11T09:02:32Z</time></trkpt><trkpt lat="40.66336587842955" lon="8.740596533592887"><ele>409.40000000000003</ele><time>2026-04-11T09:02:33Z</time></trkpt><trkpt lat="40.66336733514882" lon="8.740713990162034"><ele>410.20000000000005</ele><time>2026-04-11T09:02:34Z</time></trkpt><trkpt lat="40.66336654969092" lon="8.740838823352917"><ele>411.0</ele><time>2026-04-11T09:02:35Z</time></trkpt><trkpt lat="40.66336995726351" lon="8.74096324543775"><ele>411.6</ele><time>2026-04-11T09:02:36Z</time></trkpt><trkpt lat="40.663373526831485" lon="8.74110103431203"><ele>412.20000000000005</ele><time>2026-04-11T09:02:37Z</time></trkpt><trkpt lat="40.663381809948675" lon="8.741241197207295"><ele>412.79999999999995</ele><time>2026-04-11T09:02:38Z</time></trkpt><trkpt lat="40.6633834015385" lon="8.741373578313059"><ele>413.4</ele><time>2026-04-11T09:02:39Z</time></trkpt><trkpt lat="40.66339226715317" lon="8.74150900570916"><ele>414.0</ele><time>2026-04-11T09:02:40Z</time></trkpt><trkpt lat="40.663400590016934" lon="8.741643027454602"><ele>414.0</ele><time>2026-04-11T09:02:41Z</time></trkpt><trkpt lat="40.663412225114136" lon="8.741775167562526"><ele>414.0</ele><time>2026-04-11T09:02:42Z</time></trkpt><trkpt lat="40.66341996185137" lon="8.741905912028917"><ele>414.0</ele><time>2026-04-11T09:02:43Z</time></trkpt><trkpt lat="40.663429954485764" lon="8.742042563811665"><ele>414.0</ele><time>2026-04-11T09:02:44Z</time></trkpt><trkpt lat="40.66344093664319" lon="8.742176293259122"><ele>414.0</ele><time>2026-04-11T09:02:45Z</time></trkpt><trkpt lat="40.66344806136791" lon="8.74230567439325"><ele>414.6</ele><time>2026-04-11T09:02:46Z</time></trkpt><trkpt lat="40.663458422375456" lon="8.742432977341299"><ele>415.2</ele><time>2026-04-11T09:02:47Z</time></trkpt><trkpt lat="40.66347072548561" lon="8.742560201443792"><ele>415.8</ele><time>2026-04-11T09:02:48Z</time></trkpt><trkpt lat="40.663482548653434" lon="8.742685173284315"><ele>416.40000000000003</ele><time>2026-04-11T09:02:49Z</time></trkpt><trkpt lat="40.66348920846439" lon="8.742813100711198"><ele>417.0</ele><time>2026-04-11T09:02:50Z</time></trkpt><trkpt lat="40.663495874150236" lon="8.742940222695756"><ele>417.0</ele><time>2026-04-11T09:02:51Z</time></trkpt><trkpt lat="40.66350792145657" lon="8.74306338834498"><ele>417.0</ele><time>2026-04-11T09:02:52Z</time></trkpt><trkpt lat="40.663515969675096" lon="8.743180384606319"><ele>417.0</ele><time>2026-04-11T09:02:53Z</time></trkpt><trkpt lat="40.6635255521495" lon="8.743294207179506"><ele>417.0</ele><time>2026-04-11T09:02:54Z</time></trkpt><trkpt lat="40.66353849623141" lon="8.743410993800325"><ele>417.0</ele><time>2026-04-11T09:02:55Z</time></trkpt><trkpt lat="40.663551936588675" lon="8.743531970737665"><ele>417.14285714285717</ele><time>2026-04-11T09:02:56Z</time></trkpt><trkpt lat="40.66356119642329" lon="8.743648267147805"><ele>417.2857142857143</ele><time>2026-04-11T09:02:57Z</time></trkpt><trkpt lat="40.6635739799976" lon="8.743752389698342"><ele>417.42857142857144</ele><time>2026-04-11T09:02:58Z</time></trkpt><trkpt lat="40.66358146019341" lon="8.743847510737107"><ele>417.57142857142856</ele><time>2026-04-11T09:02:59Z</time></trkpt><trkpt lat="40.663586572266915" lon="8.743936505301178"><ele>417.71428571428567</ele><time>2026-04-11T09:03:00Z</time></trkpt><trkpt lat="40.663592850046825" lon="8.744027092849354"><ele>417.85714285714283</ele><time>2026-04-11T09:03:01Z</time></trkpt><trkpt lat="40.66359985333354" lon="8.744119831591735"><ele>418.0</ele><time>2026-04-11T09:03:02Z</time></trkpt><trkpt lat="40.66360805643457" lon="8.744211892821228"><ele>419.4</ele><time>2026-04-11T09:03:03Z</time></trkpt><trkpt lat="40.663615044886804" lon="8.744299823562368"><ele>420.79999999999995</ele><time>2026-04-11T09:03:04Z</time></trkpt><trkpt lat="40.66362780808844" lon="8.744457599424729"><ele>422.2</ele><time>2026-04-11T09:03:06Z</time></trkpt><trkpt lat="40.663640606640875" lon="8.744611812120612"><ele>423.6</ele><time>2026-04-11T09:03:08Z</time></trkpt><trkpt lat="40.66365070299819" lon="8.744744589313175"><ele>425.0</ele><time>2026-04-11T09:03:10Z</time></trkpt><trkpt lat="40.66365774410559" lon="8.744857354978745"><ele>425.0</ele><time>2026-04-11T09:03:12Z</time></trkpt><trkpt lat="40.66367317676602" lon="8.744988288298268"><ele>425.0</ele><time>2026-04-11T09:03:14Z</time></trkpt><trkpt lat="40.66368967522948" lon="8.745149547519663"><ele>425.0</ele><time>2026-04-11T09:03:16Z</time></trkpt><trkpt lat="40.663697216439196" lon="8.745289882571093"><ele>425.0</ele><time>2026-04-11T09:03:18Z</time></trkpt><trkpt lat="40.6636288081311" lon="8.745368253430014"><ele>425.0</ele><time>2026-04-11T09:03:21Z</time></trkpt><trkpt lat="40.663542016024486" lon="8.745414760517908"><ele>424.16666666666663</ele><time>2026-04-11T09:03:23Z</time></trkpt><trkpt lat="40.66347469793035" lon="8.745445119455182"><ele>423.3333333333333</ele><time>2026-04-11T09:03:26Z</time></trkpt><trkpt lat="40.66338606044924" lon="8.7454196467583"><ele>422.5</ele><time>2026-04-11T09:03:29Z</time></trkpt><trkpt lat="40.663323026126804" lon="8.7454161724019"><ele>421.66666666666663</ele><time>2026-04-11T09:03:30Z</time></trkpt><trkpt lat="40.66325710175125" lon="8.745400253568478"><ele>420.8333333333333</ele><time>2026-04-11T09:03:31Z</time></trkpt><trkpt lat="40.66317901065281" lon="8.745381396821925"><ele>420.0</ele><time>2026-04-11T09:03:32Z</time></trkpt><trkpt lat="40.663092933664515" lon="8.745360611707477"><ele>420.0</ele><time>2026-04-11T09:03:33Z</time></trkpt><trkpt lat="40.663000342732374" lon="8.745337421892616"><ele>420.0</ele><time>2026-04-11T09:03:34Z</time></trkpt><trkpt lat="40.66290334424451" lon="8.745313422333261"><ele>420.0</ele><time>2026-04-11T09:03:35Z</time></trkpt><trkpt lat="40.66281036814595" lon="8.74529041800171"><ele>420.0</ele><time>2026-04-11T09:03:36Z</time></trkpt><trkpt lat="40.66272019285566" lon="8.745268106640552"><ele>420.0</ele><time>2026-04-11T09:03:37Z</time></trkpt><trkpt lat="40.66263199572528" lon="8.745246405418005"><ele>419.5</ele><time>2026-04-11T09:03:38Z</time></trkpt><trkpt lat="40.66254649728834" lon="8.745225315230977"><ele>419.0</ele><time>2026-04-11T09:03:39Z</time></trkpt><trkpt lat="40.66246650789863" lon="8.745205583979125"><ele>418.5</ele><time>2026-04-11T09:03:40Z</time></trkpt><trkpt lat="40.66239677794224" lon="8.74519107137374"><ele>418.0</ele><time>2026-04-11T09:03:41Z</time></trkpt><trkpt lat="40.66229049496577" lon="8.745169276321997"><ele>417.5</ele><time>2026-04-11T09:03:43Z</time></trkpt><trkpt lat="40.66222520921739" lon="8.74515588841428"><ele>417.0</ele><time>2026-04-11T09:03:46Z</time></trkpt><trkpt lat="40.662129932817486" lon="8.745146161325422"><ele>417.0</ele><time>2026-04-11T09:03:49Z</time></trkpt><trkpt lat="40.662015097446364" lon="8.74500234891594"><ele>417.0</ele><time>2026-04-11T09:03:51Z</time></trkpt><trkpt lat="40.661947826629635" lon="8.745004374428383"><ele>417.0</ele><time>2026-04-11T09:03:52Z</time></trkpt><trkpt lat="40.66184802596344" lon="8.744992676206254"><ele>417.0</ele><time>2026-04-11T09:03:54Z</time></trkpt><trkpt lat="40.66179146669251" lon="8.744930100846839"><ele>417.0</ele><time>2026-04-11T09:03:56Z</time></trkpt><trkpt lat="40.66170795330811" lon="8.745012905448638"><ele>416.6</ele><time>2026-04-11T09:03:57.999Z</time></trkpt><trkpt lat="40.661569691864166" lon="8.745118691414852"><ele>416.20000000000005</ele><time>2026-04-11T09:03:59.999Z</time></trkpt><trkpt lat="40.66154331414006" lon="8.745207143507157"><ele>415.8</ele><time>2026-04-11T09:04:00.999Z</time></trkpt><trkpt lat="40.66151764914002" lon="8.74533271731839"><ele>415.4</ele><time>2026-04-11T09:04:01.999Z</time></trkpt><trkpt lat="40.66152543532261" lon="8.745457414565587"><ele>415.0</ele><time>2026-04-11T09:04:02.999Z</time></trkpt><trkpt lat="40.661534136574794" lon="8.745568848937388"><ele>414.1666666666667</ele><time>2026-04-11T09:04:03.999Z</time></trkpt><trkpt lat="40.66153793192521" lon="8.745661503755374"><ele>413.33333333333337</ele><time>2026-04-11T09:04:04.999Z</time></trkpt><trkpt lat="40.66153264233311" lon="8.745750881724044"><ele>412.5</ele><time>2026-04-11T09:04:05.999Z</time></trkpt><trkpt lat="40.66151627797891" lon="8.745845120456602"><ele>411.66666666666663</ele><time>2026-04-11T09:04:06.999Z</time></trkpt><trkpt lat="40.66148787055518" lon="8.745952559086541"><ele>410.8333333333333</ele><time>2026-04-11T09:04:07.999Z</time></trkpt><trkpt lat="40.661450203829325" lon="8.746068183222745"><ele>410.0</ele><time>2026-04-11T09:04:08.999Z</time></trkpt><trkpt lat="40.66140946896772" lon="8.746175057890714"><ele>407.3333333333333</ele><time>2026-04-11T09:04:09.999Z</time></trkpt><trkpt lat="40.661366800212136" lon="8.74627159838016"><ele>404.66666666666663</ele><time>2026-04-11T09:04:10.999Z</time></trkpt><trkpt lat="40.661326711021935" lon="8.746355417775428"><ele>402.0</ele><time>2026-04-11T09:04:11.999Z</time></trkpt><trkpt lat="40.66127822653311" lon="8.746439723533927"><ele>399.33333333333337</ele><time>2026-04-11T09:04:12.999Z</time></trkpt><trkpt lat="40.66122281202997" lon="8.746524901349572"><ele>396.6666666666667</ele><time>2026-04-11T09:04:13.999Z</time></trkpt><trkpt lat="40.661136986338455" lon="8.746598434379498"><ele>394.0</ele><time>2026-04-11T09:04:14.999Z</time></trkpt><trkpt lat="40.66103616045905" lon="8.746670307172286"><ele>394.0</ele><time>2026-04-11T09:04:15.999Z</time></trkpt><trkpt lat="40.66094600326348" lon="8.746726481742042"><ele>394.0</ele><time>2026-04-11T09:04:16.999Z</time></trkpt><trkpt lat="40.66086453495444" lon="8.746775587976648"><ele>394.0</ele><time>2026-04-11T09:04:17.999Z</time></trkpt><trkpt lat="40.66078615936804" lon="8.74683138238543"><ele>394.0</ele><time>2026-04-11T09:04:18.999Z</time></trkpt><trkpt lat="40.66069092311502" lon="8.746812215088132"><ele>394.0</ele><time>2026-04-11T09:04:19.999Z</time></trkpt><trkpt lat="40.66059038988553" lon="8.746848068084422"><ele>394.0</ele><time>2026-04-11T09:04:20.999Z</time></trkpt><trkpt lat="40.66049431692398" lon="8.746846838498433"><ele>394.0</ele><time>2026-04-11T09:04:21.999Z</time></trkpt><trkpt lat="40.66040012966723" lon="8.746846592385342"><ele>394.0</ele><time>2026-04-11T09:04:22.999Z</time></trkpt><trkpt lat="40.66029783604803" lon="8.746887001623955"><ele>394.0</ele><time>2026-04-11T09:04:23.999Z</time></trkpt><trkpt lat="40.660198919841385" lon="8.746894013591717"><ele>394.0</ele><time>2026-04-11T09:04:24.999Z</time></trkpt><trkpt lat="40.66010260248858" lon="8.746878186820783"><ele>393.6666666666667</ele><time>2026-04-11T09:04:25.999Z</time></trkpt><trkpt lat="40.66000759588566" lon="8.74686365674119"><ele>393.33333333333337</ele><time>2026-04-11T09:04:26.999Z</time></trkpt><trkpt lat="40.65991590835019" lon="8.746839250703978"><ele>393.0</ele><time>2026-04-11T09:04:27.999Z</time></trkpt><trkpt lat="40.65983517684215" lon="8.74685939403536"><ele>392.66666666666663</ele><time>2026-04-11T09:04:28.999Z</time></trkpt><trkpt lat="40.65976473967067" lon="8.746889837415338"><ele>392.3333333333333</ele><time>2026-04-11T09:04:29.999Z</time></trkpt><trkpt lat="40.65970347934311" lon="8.746923781931295"><ele>392.0</ele><time>2026-04-11T09:04:30.999Z</time></trkpt><trkpt lat="40.659615235658514" lon="8.747010478844233"><ele>387.0</ele><time>2026-04-11T09:04:32.999Z</time></trkpt><trkpt lat="40.659492094232164" lon="8.74718605871499"><ele>382.0</ele><time>2026-04-11T09:04:34.999Z</time></trkpt><trkpt lat="40.65953383129125" lon="8.747350111219696"><ele>377.0</ele><time>2026-04-11T09:04:36.999Z</time></trkpt><trkpt lat="40.65956016581218" lon="8.7474426840052"><ele>372.0</ele><time>2026-04-11T09:04:37.999Z</time></trkpt><trkpt lat="40.659592788464664" lon="8.74755218496533"><ele>372.0</ele><time>2026-04-11T09:04:38.999Z</time></trkpt><trkpt lat="40.65966169754694" lon="8.747669474114563"><ele>372.0</ele><time>2026-04-11T09:04:39.999Z</time></trkpt><trkpt lat="40.65971521882916" lon="8.74773633764833"><ele>372.0</ele><time>2026-04-11T09:04:40.999Z</time></trkpt><trkpt lat="40.65976458613221" lon="8.747803046923124"><ele>372.0</ele><time>2026-04-11T09:04:41.999Z</time></trkpt><trkpt lat="40.65982109041445" lon="8.747889435669046"><ele>372.0</ele><time>2026-04-11T09:04:43.999Z</time></trkpt><trkpt lat="40.65985746787651" lon="8.748033706290357"><ele>370.0</ele><time>2026-04-11T09:04:45.999Z</time></trkpt><trkpt lat="40.65987317338307" lon="8.748175232627068"><ele>368.0</ele><time>2026-04-11T09:04:47.999Z</time></trkpt><trkpt lat="40.659867905686944" lon="8.748322138008964"><ele>366.0</ele><time>2026-04-11T09:04:49.999Z</time></trkpt><trkpt lat="40.65984223286069" lon="8.748417180539214"><ele>364.0</ele><time>2026-04-11T09:04:50.999Z</time></trkpt><trkpt lat="40.659811329596835" lon="8.748510551641884"><ele>362.0</ele><time>2026-04-11T09:04:51.999Z</time></trkpt><trkpt lat="40.65979157963288" lon="8.74860604239788"><ele>360.0</ele><time>2026-04-11T09:04:52.999Z</time></trkpt><trkpt lat="40.65972803697238" lon="8.748724983613862"><ele>357.8</ele><time>2026-04-11T09:04:54.999Z</time></trkpt><trkpt lat="40.65969621212646" lon="8.748841366426555"><ele>355.6</ele><time>2026-04-11T09:04:56.999Z</time></trkpt><trkpt lat="40.65963352387894" lon="8.748937157854733"><ele>353.4</ele><time>2026-04-11T09:04:58.999Z</time></trkpt><trkpt lat="40.65956904577702" lon="8.748997773370075"><ele>351.2</ele><time>2026-04-11T09:05:00.999Z</time></trkpt><trkpt lat="40.65949206460916" lon="8.74905708519601"><ele>349.0</ele><time>2026-04-11T09:05:02.999Z</time></trkpt><trkpt lat="40.65940656026752" lon="8.749123878388751"><ele>349.0</ele><time>2026-04-11T09:05:04.999Z</time></trkpt><trkpt lat="40.659270880863254" lon="8.749186822665033"><ele>349.0</ele><time>2026-04-11T09:05:06.999Z</time></trkpt><trkpt lat="40.65918989539004" lon="8.749215953051403"><ele>349.0</ele><time>2026-04-11T09:05:07.999Z</time></trkpt><trkpt lat="40.65908950343642" lon="8.749248397073632"><ele>349.0</ele><time>2026-04-11T09:05:08.999Z</time></trkpt><trkpt lat="40.65900327312836" lon="8.749250358522"><ele>349.0</ele><time>2026-04-11T09:05:09.999Z</time></trkpt><trkpt lat="40.65893025248328" lon="8.749244524782975"><ele>349.0</ele><time>2026-04-11T09:05:10.999Z</time></trkpt><trkpt lat="40.658821478851124" lon="8.749179015374926"><ele>349.0</ele><time>2026-04-11T09:05:12.999Z</time></trkpt><trkpt lat="40.65874492086863" lon="8.749200818790888"><ele>349.0</ele><time>2026-04-11T09:05:13.999Z</time></trkpt><trkpt lat="40.65868365553552" lon="8.74929152755986"><ele>349.0</ele><time>2026-04-11T09:05:14.999Z</time></trkpt><trkpt lat="40.65863125627225" lon="8.749397382007649"><ele>349.0</ele><time>2026-04-11T09:05:15.999Z</time></trkpt><trkpt lat="40.65858595527954" lon="8.749516603922816"><ele>348.0</ele><time>2026-04-11T09:05:16.999Z</time></trkpt><trkpt lat="40.65854799436037" lon="8.749643199464883"><ele>347.0</ele><time>2026-04-11T09:05:17.999Z</time></trkpt><trkpt lat="40.65851655330142" lon="8.749760271926077"><ele>346.0</ele><time>2026-04-11T09:05:18.999Z</time></trkpt><trkpt lat="40.65848550762497" lon="8.749893278879885"><ele>345.0</ele><time>2026-04-11T09:05:19.999Z</time></trkpt><trkpt lat="40.658463129529224" lon="8.749992601953887"><ele>344.0</ele><time>2026-04-11T09:05:20.999Z</time></trkpt><trkpt lat="40.65844097696573" lon="8.750093055220164"><ele>344.0</ele><time>2026-04-11T09:05:21.999Z</time></trkpt><trkpt lat="40.658422664509736" lon="8.750178490846055"><ele>344.0</ele><time>2026-04-11T09:05:22.999Z</time></trkpt><trkpt lat="40.65840509482741" lon="8.7503276658655"><ele>344.0</ele><time>2026-04-11T09:05:23.999Z</time></trkpt><trkpt lat="40.65843824362518" lon="8.750483724690547"><ele>344.0</ele><time>2026-04-11T09:05:25.999Z</time></trkpt><trkpt lat="40.65845594428554" lon="8.750567056065202"><ele>344.0</ele><time>2026-04-11T09:05:26.999Z</time></trkpt><trkpt lat="40.658474441873516" lon="8.750654139255621"><ele>344.0</ele><time>2026-04-11T09:05:27.999Z</time></trkpt><trkpt lat="40.658615907715884" lon="8.750744279610778"><ele>342.5</ele><time>2026-04-11T09:05:28.999Z</time></trkpt><trkpt lat="40.65864809104315" lon="8.750845320816016"><ele>341.0</ele><time>2026-04-11T09:05:29.999Z</time></trkpt><trkpt lat="40.65868957255127" lon="8.750982906918317"><ele>339.5</ele><time>2026-04-11T09:05:30.999Z</time></trkpt><trkpt lat="40.65873775602843" lon="8.751074914488731"><ele>338.0</ele><time>2026-04-11T09:05:31.999Z</time></trkpt><trkpt lat="40.65876336181989" lon="8.751171413128754"><ele>336.5</ele><time>2026-04-11T09:05:32.999Z</time></trkpt><trkpt lat="40.6587923927735" lon="8.751254006972694"><ele>335.0</ele><time>2026-04-11T09:05:33.999Z</time></trkpt><trkpt lat="40.65880941876746" lon="8.751373974965533"><ele>334.0</ele><time>2026-04-11T09:05:37Z</time></trkpt><trkpt lat="40.65878569511269" lon="8.7515895333546"><ele>333.0</ele><time>2026-04-11T09:05:53Z</time></trkpt><trkpt lat="40.658758239391375" lon="8.751693229572428"><ele>332.0</ele><time>2026-04-11T09:05:54Z</time></trkpt><trkpt lat="40.65872545550453" lon="8.751790774718614"><ele>331.0</ele><time>2026-04-11T09:05:55Z</time></trkpt><trkpt lat="40.65867615915567" lon="8.751903424404096"><ele>330.0</ele><time>2026-04-11T09:05:56Z</time></trkpt><trkpt lat="40.658625701971424" lon="8.75201369028467"><ele>330.0</ele><time>2026-04-11T09:05:57Z</time></trkpt><trkpt lat="40.658575639668314" lon="8.752117660178302"><ele>330.0</ele><time>2026-04-11T09:05:58Z</time></trkpt><trkpt lat="40.65852436281889" lon="8.752207785082067"><ele>330.0</ele><time>2026-04-11T09:05:59Z</time></trkpt><trkpt lat="40.6584840705873" lon="8.752282809487028"><ele>330.0</ele><time>2026-04-11T09:06:00Z</time></trkpt><trkpt lat="40.65844870446699" lon="8.752361036272065"><ele>330.0</ele><time>2026-04-11T09:06:01Z</time></trkpt><trkpt lat="40.658434908218794" lon="8.752457724942078"><ele>330.0</ele><time>2026-04-11T09:06:02Z</time></trkpt><trkpt lat="40.65844149064597" lon="8.752549703957508"><ele>330.0</ele><time>2026-04-11T09:06:03Z</time></trkpt><trkpt lat="40.65845116039485" lon="8.752650390807194"><ele>330.0</ele><time>2026-04-11T09:06:04Z</time></trkpt><trkpt lat="40.65844622096762" lon="8.75274006746657"><ele>330.0</ele><time>2026-04-11T09:06:05Z</time></trkpt><trkpt lat="40.65843623351001" lon="8.752822083367873"><ele>330.0</ele><time>2026-04-11T09:06:06Z</time></trkpt><trkpt lat="40.65840510389579" lon="8.75293041155194"><ele>330.0</ele><time>2026-04-11T09:06:07Z</time></trkpt><trkpt lat="40.65836824153225" lon="8.75304960364501"><ele>330.0</ele><time>2026-04-11T09:06:08Z</time></trkpt><trkpt lat="40.65833789303898" lon="8.753172665299253"><ele>329.4</ele><time>2026-04-11T09:06:09Z</time></trkpt><trkpt lat="40.658321299614364" lon="8.753284338323663"><ele>328.8</ele><time>2026-04-11T09:06:10Z</time></trkpt><trkpt lat="40.658295821954034" lon="8.753382642539256"><ele>328.20000000000005</ele><time>2026-04-11T09:06:11Z</time></trkpt><trkpt lat="40.6582671550432" lon="8.753460673314569"><ele>327.6</ele><time>2026-04-11T09:06:12Z</time></trkpt><trkpt lat="40.65819638161015" lon="8.753582018972361"><ele>327.0</ele><time>2026-04-11T09:06:14Z</time></trkpt><trkpt lat="40.658090103451556" lon="8.753602066030714"><ele>326.8333333333333</ele><time>2026-04-11T09:06:16Z</time></trkpt><trkpt lat="40.658005358728516" lon="8.75360344239128"><ele>326.6666666666667</ele><time>2026-04-11T09:06:17Z</time></trkpt><trkpt lat="40.65793724870694" lon="8.753655336625437"><ele>326.5</ele><time>2026-04-11T09:06:18Z</time></trkpt><trkpt lat="40.65788124849072" lon="8.753736817032776"><ele>326.33333333333337</ele><time>2026-04-11T09:06:19Z</time></trkpt><trkpt lat="40.65784394606285" lon="8.753835188988887"><ele>326.1666666666667</ele><time>2026-04-11T09:06:20Z</time></trkpt><trkpt lat="40.657812754875835" lon="8.753937911543504"><ele>326.0</ele><time>2026-04-11T09:06:21Z</time></trkpt><trkpt lat="40.657798760281075" lon="8.754060290611918"><ele>326.0</ele><time>2026-04-11T09:06:22Z</time></trkpt><trkpt lat="40.65781480611753" lon="8.754161585881917"><ele>326.0</ele><time>2026-04-11T09:06:23Z</time></trkpt><trkpt lat="40.65779933130093" lon="8.754317628371277"><ele>326.0</ele><time>2026-04-11T09:06:25Z</time></trkpt><trkpt lat="40.65776897294338" lon="8.754407593608535"><ele>326.0</ele><time>2026-04-11T09:06:26Z</time></trkpt><trkpt lat="40.657722779600434" lon="8.754515474060865"><ele>326.0</ele><time>2026-04-11T09:06:27Z</time></trkpt><trkpt lat="40.65766603321477" lon="8.754633182014235"><ele>325.6</ele><time>2026-04-11T09:06:28Z</time></trkpt><trkpt lat="40.657613580604085" lon="8.754759431072333"><ele>325.20000000000005</ele><time>2026-04-11T09:06:29Z</time></trkpt><trkpt lat="40.657564984205735" lon="8.75488958290658"><ele>324.79999999999995</ele><time>2026-04-11T09:06:30Z</time></trkpt><trkpt lat="40.657518984848544" lon="8.755019062773545"><ele>324.4</ele><time>2026-04-11T09:06:31Z</time></trkpt><trkpt lat="40.6574736560122" lon="8.755148613395328"><ele>324.0</ele><time>2026-04-11T09:06:32Z</time></trkpt><trkpt lat="40.657426723901395" lon="8.755283986095884"><ele>324.0</ele><time>2026-04-11T09:06:33Z</time></trkpt><trkpt lat="40.65738313727483" lon="8.755413025065872"><ele>324.0</ele><time>2026-04-11T09:06:34Z</time></trkpt><trkpt lat="40.65734120288695" lon="8.755544747666335"><ele>324.0</ele><time>2026-04-11T09:06:35Z</time></trkpt><trkpt lat="40.657301095470686" lon="8.755676483861677"><ele>324.0</ele><time>2026-04-11T09:06:36Z</time></trkpt><trkpt lat="40.6572623595314" lon="8.755806152807295"><ele>324.0</ele><time>2026-04-11T09:06:37Z</time></trkpt><trkpt lat="40.65722503592532" lon="8.755934681961353"><ele>323.2</ele><time>2026-04-11T09:06:38Z</time></trkpt><trkpt lat="40.657191096434" lon="8.756053335441614"><ele>322.4</ele><time>2026-04-11T09:06:39Z</time></trkpt><trkpt lat="40.657162007191346" lon="8.756155575086419"><ele>321.6</ele><time>2026-04-11T09:06:40Z</time></trkpt><trkpt lat="40.657136078168875" lon="8.756243172940492"><ele>320.8</ele><time>2026-04-11T09:06:41Z</time></trkpt><trkpt lat="40.657089800361355" lon="8.756385038806876"><ele>320.0</ele><time>2026-04-11T09:06:43Z</time></trkpt><trkpt lat="40.6570562496983" lon="8.756497883256989"><ele>320.0</ele><time>2026-04-11T09:06:45Z</time></trkpt><trkpt lat="40.65712999708015" lon="8.756590670742218"><ele>320.0</ele><time>2026-04-11T09:06:46Z</time></trkpt><trkpt lat="40.65723318597964" lon="8.756696253620259"><ele>320.0</ele><time>2026-04-11T09:06:48Z</time></trkpt><trkpt lat="40.657274894676135" lon="8.756767901431946"><ele>320.0</ele><time>2026-04-11T09:06:49Z</time></trkpt><trkpt lat="40.65735318815019" lon="8.756875538785485"><ele>320.0</ele><time>2026-04-11T09:06:51Z</time></trkpt><trkpt lat="40.65743322086601" lon="8.756979965105549"><ele>319.83333333333337</ele><time>2026-04-11T09:06:53Z</time></trkpt><trkpt lat="40.65754183384696" lon="8.757020368753986"><ele>319.6666666666667</ele><time>2026-04-11T09:06:55Z</time></trkpt><trkpt lat="40.657611969374365" lon="8.757024876402722"><ele>319.5</ele><time>2026-04-11T09:06:56Z</time></trkpt><trkpt lat="40.65768757259264" lon="8.757032611180083"><ele>319.3333333333333</ele><time>2026-04-11T09:06:57Z</time></trkpt><trkpt lat="40.65776546321025" lon="8.757042372055954"><ele>319.16666666666663</ele><time>2026-04-11T09:06:58Z</time></trkpt><trkpt lat="40.65784602841193" lon="8.75705417213281"><ele>319.0</ele><time>2026-04-11T09:06:59Z</time></trkpt><trkpt lat="40.657931599136376" lon="8.75706864672206"><ele>319.0</ele><time>2026-04-11T09:07:00Z</time></trkpt><trkpt lat="40.658026096888996" lon="8.757084075741068"><ele>319.0</ele><time>2026-04-11T09:07:01Z</time></trkpt><trkpt lat="40.658116685729794" lon="8.757093671508507"><ele>319.0</ele><time>2026-04-11T09:07:02Z</time></trkpt><trkpt lat="40.65819990885423" lon="8.757096217796494"><ele>319.0</ele><time>2026-04-11T09:07:03Z</time></trkpt><trkpt lat="40.65826662629046" lon="8.757093000226181"><ele>319.0</ele><time>2026-04-11T09:07:04Z</time></trkpt><trkpt lat="40.65836056530862" lon="8.757049059966272"><ele>319.0</ele><time>2026-04-11T09:07:06Z</time></trkpt><trkpt lat="40.6583910282771" lon="8.757153254216943"><ele>319.0</ele><time>2026-04-11T09:07:08Z</time></trkpt><trkpt lat="40.65837120579601" lon="8.757243169924736"><ele>319.0</ele><time>2026-04-11T09:07:09Z</time></trkpt><trkpt lat="40.65833976728378" lon="8.757336102081272"><ele>319.0</ele><time>2026-04-11T09:07:10Z</time></trkpt><trkpt lat="40.65829539455786" lon="8.757428516496418"><ele>319.0</ele><time>2026-04-11T09:07:11Z</time></trkpt><trkpt lat="40.658292869982745" lon="8.757546162919098"><ele>319.0</ele><time>2026-04-11T09:07:12Z</time></trkpt><trkpt lat="40.65831053294971" lon="8.757656703850971"><ele>319.0</ele><time>2026-04-11T09:07:13Z</time></trkpt><trkpt lat="40.65833659664783" lon="8.75779747209049"><ele>319.0</ele><time>2026-04-11T09:07:15Z</time></trkpt><trkpt lat="40.65832809369879" lon="8.757882337059252"><ele>319.0</ele><time>2026-04-11T09:07:16Z</time></trkpt><trkpt lat="40.65830788781203" lon="8.7579887431242"><ele>319.0</ele><time>2026-04-11T09:07:17Z</time></trkpt><trkpt lat="40.6582902302799" lon="8.758120179468712"><ele>319.0</ele><time>2026-04-11T09:07:18Z</time></trkpt><trkpt lat="40.658281336497296" lon="8.758259624239983"><ele>319.0</ele><time>2026-04-11T09:07:19Z</time></trkpt><trkpt lat="40.65827595152174" lon="8.758393307001839"><ele>319.0</ele><time>2026-04-11T09:07:20Z</time></trkpt><trkpt lat="40.65827358747707" lon="8.758523874251793"><ele>319.0</ele><time>2026-04-11T09:07:21Z</time></trkpt><trkpt lat="40.65828221020678" lon="8.758643748863724"><ele>319.0</ele><time>2026-04-11T09:07:22Z</time></trkpt><trkpt lat="40.658254858965975" lon="8.758760823854075"><ele>319.0</ele><time>2026-04-11T09:07:23Z</time></trkpt><trkpt lat="40.65820000957216" lon="8.758865251683611"><ele>319.0</ele><time>2026-04-11T09:07:24Z</time></trkpt><trkpt lat="40.658137152102334" lon="8.7589581353028"><ele>320.6</ele><time>2026-04-11T09:07:25Z</time></trkpt><trkpt lat="40.65806111163529" lon="8.759046611926653"><ele>322.2</ele><time>2026-04-11T09:07:26Z</time></trkpt><trkpt lat="40.65798008802789" lon="8.759136441390762"><ele>323.8</ele><time>2026-04-11T09:07:27Z</time></trkpt><trkpt lat="40.657894206004" lon="8.759232330451779"><ele>325.40000000000003</ele><time>2026-04-11T09:07:28Z</time></trkpt><trkpt lat="40.657802743167345" lon="8.759337792900974"><ele>327.0</ele><time>2026-04-11T09:07:29Z</time></trkpt><trkpt lat="40.65771023296886" lon="8.759456334790228"><ele>327.0</ele><time>2026-04-11T09:07:30Z</time></trkpt><trkpt lat="40.657619910636335" lon="8.759573935982178"><ele>327.0</ele><time>2026-04-11T09:07:31Z</time></trkpt><trkpt lat="40.657531083645594" lon="8.759681116363776"><ele>327.0</ele><time>2026-04-11T09:07:32Z</time></trkpt><trkpt lat="40.65744735329598" lon="8.759779162744417"><ele>327.0</ele><time>2026-04-11T09:07:33Z</time></trkpt><trkpt lat="40.657369646734026" lon="8.759871026425087"><ele>327.0</ele><time>2026-04-11T09:07:34Z</time></trkpt><trkpt lat="40.657294208982435" lon="8.759972517900954"><ele>327.0</ele><time>2026-04-11T09:07:35Z</time></trkpt><trkpt lat="40.65722896904855" lon="8.760084325883778"><ele>327.0</ele><time>2026-04-11T09:07:36Z</time></trkpt><trkpt lat="40.65716840859927" lon="8.760204762817255"><ele>327.0</ele><time>2026-04-11T09:07:37Z</time></trkpt><trkpt lat="40.65711339675882" lon="8.760344629106115"><ele>327.0</ele><time>2026-04-11T09:07:38Z</time></trkpt><trkpt lat="40.65706292281114" lon="8.760502999240426"><ele>328.6</ele><time>2026-04-11T09:07:39Z</time></trkpt><trkpt lat="40.657017929507305" lon="8.760658359396778"><ele>330.20000000000005</ele><time>2026-04-11T09:07:40Z</time></trkpt><trkpt lat="40.65698363965001" lon="8.760792626946085"><ele>331.8</ele><time>2026-04-11T09:07:41Z</time></trkpt><trkpt lat="40.656959640271204" lon="8.76091787756445"><ele>333.4</ele><time>2026-04-11T09:07:42Z</time></trkpt><trkpt lat="40.65693661827291" lon="8.761054353986836"><ele>335.0</ele><time>2026-04-11T09:07:43Z</time></trkpt><trkpt lat="40.65686545176281" lon="8.76115588159522"><ele>332.33333333333337</ele><time>2026-04-11T09:07:44Z</time></trkpt><trkpt lat="40.656806966451676" lon="8.761266365964573"><ele>329.6666666666667</ele><time>2026-04-11T09:07:45Z</time></trkpt><trkpt lat="40.65675248147812" lon="8.761369293319122"><ele>327.0</ele><time>2026-04-11T09:07:46Z</time></trkpt><trkpt lat="40.65670376637933" lon="8.761458401070014"><ele>324.3333333333333</ele><time>2026-04-11T09:07:47Z</time></trkpt><trkpt lat="40.65665821496783" lon="8.76153562578754"><ele>321.66666666666663</ele><time>2026-04-11T09:07:48Z</time></trkpt><trkpt lat="40.65661340032982" lon="8.761606131539963"><ele>319.0</ele><time>2026-04-11T09:07:49Z</time></trkpt><trkpt lat="40.65654501208415" lon="8.76166363993328"><ele>319.0</ele><time>2026-04-11T09:07:50Z</time></trkpt><trkpt lat="40.65646849241441" lon="8.76171407339911"><ele>319.0</ele><time>2026-04-11T09:07:51Z</time></trkpt><trkpt lat="40.656398803234595" lon="8.761758243986934"><ele>319.0</ele><time>2026-04-11T09:07:52Z</time></trkpt><trkpt lat="40.656336675476624" lon="8.761797117756455"><ele>319.0</ele><time>2026-04-11T09:07:53Z</time></trkpt><trkpt lat="40.65627348288804" lon="8.761838014118435"><ele>319.0</ele><time>2026-04-11T09:07:54Z</time></trkpt><trkpt lat="40.65620643741999" lon="8.761895050878623"><ele>319.0</ele><time>2026-04-11T09:07:55Z</time></trkpt><trkpt lat="40.65615506609435" lon="8.761972741237516"><ele>316.8333333333333</ele><time>2026-04-11T09:07:56Z</time></trkpt><trkpt lat="40.65610904323463" lon="8.7620686885852"><ele>314.66666666666663</ele><time>2026-04-11T09:07:57Z</time></trkpt><trkpt lat="40.6560785069404" lon="8.76216696372704"><ele>312.5</ele><time>2026-04-11T09:07:58Z</time></trkpt><trkpt lat="40.6560586420193" lon="8.762266341437373"><ele>310.3333333333333</ele><time>2026-04-11T09:07:59Z</time></trkpt><trkpt lat="40.65604528406883" lon="8.762378951921988"><ele>308.1666666666667</ele><time>2026-04-11T09:08:00Z</time></trkpt><trkpt lat="40.656048274267384" lon="8.762501963360657"><ele>306.0</ele><time>2026-04-11T09:08:01Z</time></trkpt><trkpt lat="40.65605324612507" lon="8.762626940639361"><ele>305.6</ele><time>2026-04-11T09:08:02Z</time></trkpt><trkpt lat="40.65604779831919" lon="8.762732530390029"><ele>305.20000000000005</ele><time>2026-04-11T09:08:03Z</time></trkpt><trkpt lat="40.65603431880493" lon="8.762819102339673"><ele>304.79999999999995</ele><time>2026-04-11T09:08:04Z</time></trkpt><trkpt lat="40.65598705116315" lon="8.762919957478129"><ele>304.4</ele><time>2026-04-11T09:08:06Z</time></trkpt><trkpt lat="40.65587726603277" lon="8.763020129306033"><ele>304.0</ele><time>2026-04-11T09:08:08Z</time></trkpt><trkpt lat="40.65580673228742" lon="8.763088261296136"><ele>304.0</ele><time>2026-04-11T09:08:09Z</time></trkpt><trkpt lat="40.65575468587883" lon="8.76318284164051"><ele>304.0</ele><time>2026-04-11T09:08:10Z</time></trkpt><trkpt lat="40.65572234459982" lon="8.76330164948965"><ele>304.0</ele><time>2026-04-11T09:08:11Z</time></trkpt><trkpt lat="40.65570608013975" lon="8.763420602764572"><ele>304.0</ele><time>2026-04-11T09:08:12Z</time></trkpt><trkpt lat="40.655689824539365" lon="8.763536635809007"><ele>304.0</ele><time>2026-04-11T09:08:13Z</time></trkpt><trkpt lat="40.65567276564714" lon="8.763653563796227"><ele>303.59999999999997</ele><time>2026-04-11T09:08:14Z</time></trkpt><trkpt lat="40.65565421405533" lon="8.763765717084505"><ele>303.2</ele><time>2026-04-11T09:08:15.004Z</time></trkpt><trkpt lat="40.65562582768547" lon="8.763882629244883"><ele>302.79999999999995</ele><time>2026-04-11T09:08:16.004Z</time></trkpt><trkpt lat="40.65562041089848" lon="8.7640197933956"><ele>302.4</ele><time>2026-04-11T09:08:17.004Z</time></trkpt><trkpt lat="40.65563018591869" lon="8.764145794100276"><ele>302.0</ele><time>2026-04-11T09:08:18.004Z</time></trkpt><trkpt lat="40.655644096114905" lon="8.764285727169913"><ele>301.6</ele><time>2026-04-11T09:08:19.004Z</time></trkpt><trkpt lat="40.655662966490816" lon="8.764420619403985"><ele>301.2</ele><time>2026-04-11T09:08:20.004Z</time></trkpt><trkpt lat="40.655679027156715" lon="8.764551607902208"><ele>300.8</ele><time>2026-04-11T09:08:21.004Z</time></trkpt><trkpt lat="40.65566693764141" lon="8.764685816416897"><ele>300.4</ele><time>2026-04-11T09:08:22.004Z</time></trkpt><trkpt lat="40.655653625086686" lon="8.764845520690692"><ele>300.0</ele><time>2026-04-11T09:08:23.003Z</time></trkpt><trkpt lat="40.65565574184264" lon="8.764989091638613"><ele>300.0</ele><time>2026-04-11T09:08:24.003Z</time></trkpt><trkpt lat="40.65564757127358" lon="8.765133817966504"><ele>300.0</ele><time>2026-04-11T09:08:25.003Z</time></trkpt><trkpt lat="40.655645000870685" lon="8.76527797347716"><ele>300.0</ele><time>2026-04-11T09:08:26.003Z</time></trkpt><trkpt lat="40.65564893356143" lon="8.765426719908124"><ele>300.0</ele><time>2026-04-11T09:08:27.003Z</time></trkpt><trkpt lat="40.65567077968472" lon="8.765564812174382"><ele>300.0</ele><time>2026-04-11T09:08:28.003Z</time></trkpt><trkpt lat="40.65571085717698" lon="8.765707220540241"><ele>300.2</ele><time>2026-04-11T09:08:29.003Z</time></trkpt><trkpt lat="40.655774514833" lon="8.765820168900161"><ele>300.4</ele><time>2026-04-11T09:08:30.002Z</time></trkpt><trkpt lat="40.65584731034653" lon="8.765918314985674"><ele>300.6</ele><time>2026-04-11T09:08:31.002Z</time></trkpt><trkpt lat="40.65592589457198" lon="8.76599033139528"><ele>300.8</ele><time>2026-04-11T09:08:32.002Z</time></trkpt><trkpt lat="40.65598537243966" lon="8.766066893820513"><ele>301.0</ele><time>2026-04-11T09:08:33.002Z</time></trkpt><trkpt lat="40.65605295008081" lon="8.766089058599432"><ele>301.0</ele><time>2026-04-11T09:08:34.002Z</time></trkpt><trkpt lat="40.656113483701006" lon="8.766126956360523"><ele>301.0</ele><time>2026-04-11T09:08:35.002Z</time></trkpt><trkpt lat="40.65619381002732" lon="8.766110182816927"><ele>301.0</ele><time>2026-04-11T09:08:36.002Z</time></trkpt><trkpt lat="40.656278780266035" lon="8.766121376198328"><ele>301.0</ele><time>2026-04-11T09:08:37.002Z</time></trkpt><trkpt lat="40.6563662581257" lon="8.766146254418489"><ele>301.0</ele><time>2026-04-11T09:08:38.002Z</time></trkpt><trkpt lat="40.65645718666498" lon="8.76619090105076"><ele>301.0</ele><time>2026-04-11T09:08:39.002Z</time></trkpt><trkpt lat="40.65654799521175" lon="8.766241511298045"><ele>302.0</ele><time>2026-04-11T09:08:40.002Z</time></trkpt><trkpt lat="40.656645468659065" lon="8.7662989090683"><ele>303.0</ele><time>2026-04-11T09:08:41.001Z</time></trkpt><trkpt lat="40.656750742332775" lon="8.766340620969025"><ele>304.0</ele><time>2026-04-11T09:08:42.001Z</time></trkpt><trkpt lat="40.65684659131992" lon="8.766382406632296"><ele>305.0</ele><time>2026-04-11T09:08:43.001Z</time></trkpt><trkpt lat="40.65692790180569" lon="8.766448646818988"><ele>306.0</ele><time>2026-04-11T09:08:44.001Z</time></trkpt><trkpt lat="40.6570061368001" lon="8.766513032534302"><ele>306.40000000000003</ele><time>2026-04-11T09:08:45.001Z</time></trkpt><trkpt lat="40.657069080597815" lon="8.766612117959905"><ele>306.8</ele><time>2026-04-11T09:08:46.001Z</time></trkpt><trkpt lat="40.65713565332599" lon="8.766720998349001"><ele>307.20000000000005</ele><time>2026-04-11T09:08:47.001Z</time></trkpt><trkpt lat="40.65720430092561" lon="8.766830525359666"><ele>307.6</ele><time>2026-04-11T09:08:48.001Z</time></trkpt><trkpt lat="40.65726826041452" lon="8.76694023731491"><ele>308.0</ele><time>2026-04-11T09:08:49.001Z</time></trkpt><trkpt lat="40.65731707560467" lon="8.76706458913239"><ele>308.0</ele><time>2026-04-11T09:08:50.001Z</time></trkpt><trkpt lat="40.657359262611955" lon="8.767196624669737"><ele>308.0</ele><time>2026-04-11T09:08:51.001Z</time></trkpt><trkpt lat="40.657395770670355" lon="8.767314261773413"><ele>308.0</ele><time>2026-04-11T09:08:52.001Z</time></trkpt><trkpt lat="40.65743481645448" lon="8.767398950905601"><ele>308.0</ele><time>2026-04-11T09:08:53.001Z</time></trkpt><trkpt lat="40.65746674988516" lon="8.767481801283278"><ele>308.0</ele><time>2026-04-11T09:08:55.001Z</time></trkpt><trkpt lat="40.6574242943618" lon="8.767603072758627"><ele>308.0</ele><time>2026-04-11T09:08:58.001Z</time></trkpt><trkpt lat="40.65738140819453" lon="8.76769279817268"><ele>308.0</ele><time>2026-04-11T09:08:59.001Z</time></trkpt><trkpt lat="40.65733462034432" lon="8.767795143961653"><ele>308.0</ele><time>2026-04-11T09:09:00.001Z</time></trkpt><trkpt lat="40.657289817812796" lon="8.76789100065197"><ele>308.0</ele><time>2026-04-11T09:09:01.001Z</time></trkpt><trkpt lat="40.65724194525579" lon="8.767978711564664"><ele>308.0</ele><time>2026-04-11T09:09:02.001Z</time></trkpt><trkpt lat="40.65719385392144" lon="8.768061962705826"><ele>308.0</ele><time>2026-04-11T09:09:03.001Z</time></trkpt><trkpt lat="40.65714778048964" lon="8.768141720649133"><ele>308.0</ele><time>2026-04-11T09:09:04.001Z</time></trkpt><trkpt lat="40.657102739341276" lon="8.768219691587873"><ele>308.0</ele><time>2026-04-11T09:09:05.001Z</time></trkpt><trkpt lat="40.65705931157225" lon="8.768294869600998"><ele>308.0</ele><time>2026-04-11T09:09:06Z</time></trkpt><trkpt lat="40.65701984453609" lon="8.768363191172458"><ele>308.0</ele><time>2026-04-11T09:09:07Z</time></trkpt><trkpt lat="40.6569798239332" lon="8.768429913027433"><ele>308.0</ele><time>2026-04-11T09:09:08Z</time></trkpt><trkpt lat="40.65693766749189" lon="8.768500106221824"><ele>308.0</ele><time>2026-04-11T09:09:09Z</time></trkpt><trkpt lat="40.65689186497596" lon="8.76857637036701"><ele>308.0</ele><time>2026-04-11T09:09:10Z</time></trkpt><trkpt lat="40.65684856695008" lon="8.76864674997752"><ele>307.0</ele><time>2026-04-11T09:09:11Z</time></trkpt><trkpt lat="40.65677300382478" lon="8.768764262028425"><ele>306.0</ele><time>2026-04-11T09:09:13Z</time></trkpt><trkpt lat="40.65669385361088" lon="8.76887797611194"><ele>305.0</ele><time>2026-04-11T09:09:15Z</time></trkpt><trkpt lat="40.65661312493325" lon="8.76898258164975"><ele>304.0</ele><time>2026-04-11T09:09:17Z</time></trkpt><trkpt lat="40.65655983669201" lon="8.769047648696741"><ele>303.0</ele><time>2026-04-11T09:09:19Z</time></trkpt><trkpt lat="40.656611259782636" lon="8.768926776092705"><ele>303.0</ele><time>2026-04-11T09:09:38Z</time></trkpt><trkpt lat="40.656666764266326" lon="8.76885493775029"><ele>303.0</ele><time>2026-04-11T09:09:39Z</time></trkpt><trkpt lat="40.656724398587635" lon="8.768781007531151"><ele>303.0</ele><time>2026-04-11T09:09:40Z</time></trkpt><trkpt lat="40.656779302830465" lon="8.768699617224373"><ele>303.0</ele><time>2026-04-11T09:09:41Z</time></trkpt><trkpt lat="40.65682808184512" lon="8.768614686690174"><ele>303.0</ele><time>2026-04-11T09:09:42Z</time></trkpt><trkpt lat="40.65687646513922" lon="8.768527314771037"><ele>303.0</ele><time>2026-04-11T09:09:43Z</time></trkpt><trkpt lat="40.656935868312495" lon="8.768437932179685"><ele>304.0</ele><time>2026-04-11T09:09:44Z</time></trkpt><trkpt lat="40.65699986210686" lon="8.768348274769219"><ele>305.0</ele><time>2026-04-11T09:09:45Z</time></trkpt><trkpt lat="40.65705726152335" lon="8.768240957705952"><ele>306.0</ele><time>2026-04-11T09:09:46Z</time></trkpt><trkpt lat="40.657119176854366" lon="8.768139081976983"><ele>307.0</ele><time>2026-04-11T09:09:47Z</time></trkpt><trkpt lat="40.657169630199455" lon="8.768041766643831"><ele>308.0</ele><time>2026-04-11T09:09:48Z</time></trkpt><trkpt lat="40.65726758170259" lon="8.768006723612036"><ele>308.0</ele><time>2026-04-11T09:09:49Z</time></trkpt><trkpt lat="40.657319602017196" lon="8.767911155110749"><ele>308.0</ele><time>2026-04-11T09:09:50Z</time></trkpt><trkpt lat="40.657363857811795" lon="8.767816159207339"><ele>308.0</ele><time>2026-04-11T09:09:51Z</time></trkpt><trkpt lat="40.65740135689924" lon="8.76773375069281"><ele>308.0</ele><time>2026-04-11T09:09:52Z</time></trkpt><trkpt lat="40.65745608635914" lon="8.767610359243534"><ele>308.0</ele><time>2026-04-11T09:09:54Z</time></trkpt><trkpt lat="40.65751123266369" lon="8.767533188715605"><ele>308.0</ele><time>2026-04-11T09:09:56Z</time></trkpt><trkpt lat="40.657616812708014" lon="8.767559781907874"><ele>308.0</ele><time>2026-04-11T09:09:58Z</time></trkpt><trkpt lat="40.65770707772025" lon="8.767565066935724"><ele>308.0</ele><time>2026-04-11T09:09:59Z</time></trkpt><trkpt lat="40.65779924097441" lon="8.7675575995617"><ele>308.0</ele><time>2026-04-11T09:10:00Z</time></trkpt><trkpt lat="40.65787449570838" lon="8.767547745847317"><ele>308.0</ele><time>2026-04-11T09:10:01Z</time></trkpt><trkpt lat="40.65796854670023" lon="8.767548821540617"><ele>308.0</ele><time>2026-04-11T09:10:03Z</time></trkpt><trkpt lat="40.65796937965894" lon="8.767766532053534"><ele>308.0</ele><time>2026-04-11T09:10:07Z</time></trkpt><trkpt lat="40.65791254065831" lon="8.767880941179985"><ele>308.0</ele><time>2026-04-11T09:10:08Z</time></trkpt><trkpt lat="40.65785179121986" lon="8.768018896683996"><ele>308.0</ele><time>2026-04-11T09:10:09Z</time></trkpt><trkpt lat="40.65778860961897" lon="8.768168120305305"><ele>308.0</ele><time>2026-04-11T09:10:10Z</time></trkpt><trkpt lat="40.6577248287961" lon="8.768321012173189"><ele>308.0</ele><time>2026-04-11T09:10:11Z</time></trkpt><trkpt lat="40.65765513318189" lon="8.76847093058311"><ele>308.0</ele><time>2026-04-11T09:10:12Z</time></trkpt><trkpt lat="40.65758411859172" lon="8.768621360658809"><ele>308.0</ele><time>2026-04-11T09:10:13Z</time></trkpt><trkpt lat="40.65751003842334" lon="8.768771157606905"><ele>308.0</ele><time>2026-04-11T09:10:14Z</time></trkpt><trkpt lat="40.657438256536075" lon="8.768925992930003"><ele>308.0</ele><time>2026-04-11T09:10:15Z</time></trkpt><trkpt lat="40.6573621697862" lon="8.769084198259437"><ele>308.0</ele><time>2026-04-11T09:10:16Z</time></trkpt><trkpt lat="40.65728622143095" lon="8.769247845166078"><ele>308.0</ele><time>2026-04-11T09:10:17Z</time></trkpt><trkpt lat="40.657205140688305" lon="8.769415754347843"><ele>308.0</ele><time>2026-04-11T09:10:18Z</time></trkpt><trkpt lat="40.6571347531166" lon="8.76959674920439"><ele>308.0</ele><time>2026-04-11T09:10:19Z</time></trkpt><trkpt lat="40.657062409563025" lon="8.769788124388468"><ele>308.0</ele><time>2026-04-11T09:10:20Z</time></trkpt><trkpt lat="40.65699336500032" lon="8.769988449509109"><ele>308.0</ele><time>2026-04-11T09:10:21Z</time></trkpt><trkpt lat="40.656920037589096" lon="8.770192330215586"><ele>305.6666666666667</ele><time>2026-04-11T09:10:22Z</time></trkpt><trkpt lat="40.65684650625496" lon="8.770396777920606"><ele>303.3333333333333</ele><time>2026-04-11T09:10:23Z</time></trkpt><trkpt lat="40.65678224558641" lon="8.7706134182662"><ele>301.0</ele><time>2026-04-11T09:10:24Z</time></trkpt><trkpt lat="40.65668895397735" lon="8.77082904811381"><ele>302.0</ele><time>2026-04-11T09:10:25Z</time></trkpt><trkpt lat="40.656616005115445" lon="8.771058488212601"><ele>303.0</ele><time>2026-04-11T09:10:26Z</time></trkpt><trkpt lat="40.656527352404176" lon="8.771274938394756"><ele>304.0</ele><time>2026-04-11T09:10:27Z</time></trkpt><trkpt lat="40.65644336420464" lon="8.771503128016699"><ele>304.0</ele><time>2026-04-11T09:10:28Z</time></trkpt><trkpt lat="40.65635978354458" lon="8.771746001095512"><ele>304.0</ele><time>2026-04-11T09:10:29Z</time></trkpt><trkpt lat="40.65625964172737" lon="8.771974253419444"><ele>304.0</ele><time>2026-04-11T09:10:30Z</time></trkpt><trkpt lat="40.656164792867365" lon="8.772174230249638"><ele>303.66666666666663</ele><time>2026-04-11T09:10:30.999Z</time></trkpt><trkpt lat="40.65610359244593" lon="8.7723624534186"><ele>303.3333333333333</ele><time>2026-04-11T09:10:31.999Z</time></trkpt><trkpt lat="40.656023404212284" lon="8.772540015649318"><ele>303.0</ele><time>2026-04-11T09:10:32.999Z</time></trkpt><trkpt lat="40.65595566036594" lon="8.77271515698767"><ele>303.6666666666667</ele><time>2026-04-11T09:10:33.999Z</time></trkpt><trkpt lat="40.65589454990351" lon="8.772884271107804"><ele>304.33333333333337</ele><time>2026-04-11T09:10:34.999Z</time></trkpt><trkpt lat="40.65585154587317" lon="8.77308422169946"><ele>305.0</ele><time>2026-04-11T09:10:35.999Z</time></trkpt><trkpt lat="40.6557759027804" lon="8.7732771561796"><ele>305.0</ele><time>2026-04-11T09:10:36.999Z</time></trkpt><trkpt lat="40.6557178734571" lon="8.773468390292994"><ele>305.0</ele><time>2026-04-11T09:10:37.999Z</time></trkpt><trkpt lat="40.65566647570503" lon="8.773676630739782"><ele>305.0</ele><time>2026-04-11T09:10:38.999Z</time></trkpt><trkpt lat="40.65561533605925" lon="8.773938856702122"><ele>305.33333333333337</ele><time>2026-04-11T09:10:39.999Z</time></trkpt><trkpt lat="40.65555085975639" lon="8.774200584006019"><ele>305.6666666666667</ele><time>2026-04-11T09:10:40.999Z</time></trkpt><trkpt lat="40.65547920769523" lon="8.774431319182485"><ele>306.0</ele><time>2026-04-11T09:10:41.999Z</time></trkpt><trkpt lat="40.65545831978152" lon="8.774636223236987"><ele>306.6666666666667</ele><time>2026-04-11T09:10:42.999Z</time></trkpt><trkpt lat="40.655413789645145" lon="8.77486307234787"><ele>307.33333333333337</ele><time>2026-04-11T09:10:43.999Z</time></trkpt><trkpt lat="40.6553483594941" lon="8.775065171743124"><ele>308.0</ele><time>2026-04-11T09:10:44.999Z</time></trkpt><trkpt lat="40.655277655897926" lon="8.775313515357745"><ele>305.6666666666667</ele><time>2026-04-11T09:10:45.999Z</time></trkpt><trkpt lat="40.65521193677882" lon="8.775547899493457"><ele>303.3333333333333</ele><time>2026-04-11T09:10:46.999Z</time></trkpt><trkpt lat="40.65516105759942" lon="8.775754521329945"><ele>301.0</ele><time>2026-04-11T09:10:47.999Z</time></trkpt><trkpt lat="40.65511025989055" lon="8.775970459570113"><ele>301.25</ele><time>2026-04-11T09:10:48.999Z</time></trkpt><trkpt lat="40.65505989137792" lon="8.776171002129402"><ele>301.5</ele><time>2026-04-11T09:10:49.999Z</time></trkpt><trkpt lat="40.65503509696111" lon="8.776331921661907"><ele>301.75</ele><time>2026-04-11T09:10:50.999Z</time></trkpt><trkpt lat="40.65499295943893" lon="8.776507808093136"><ele>302.0</ele><time>2026-04-11T09:10:51.999Z</time></trkpt><trkpt lat="40.65493832035094" lon="8.776664445523776"><ele>302.0</ele><time>2026-04-11T09:10:52.999Z</time></trkpt><trkpt lat="40.65491558755873" lon="8.776822490171703"><ele>302.0</ele><time>2026-04-11T09:10:53.999Z</time></trkpt><trkpt lat="40.65488601169541" lon="8.776970200053137"><ele>302.0</ele><time>2026-04-11T09:10:54.999Z</time></trkpt><trkpt lat="40.65485879785114" lon="8.777127062224679"><ele>302.0</ele><time>2026-04-11T09:10:55.999Z</time></trkpt><trkpt lat="40.65482811225152" lon="8.777295811045981"><ele>302.0</ele><time>2026-04-11T09:10:56.999Z</time></trkpt><trkpt lat="40.65477581752726" lon="8.777463733522879"><ele>302.0</ele><time>2026-04-11T09:10:57.999Z</time></trkpt><trkpt lat="40.65474553559517" lon="8.777643439341034"><ele>302.0</ele><time>2026-04-11T09:10:58.999Z</time></trkpt><trkpt lat="40.65468648067238" lon="8.7777835207795"><ele>302.0</ele><time>2026-04-11T09:10:59.999Z</time></trkpt><trkpt lat="40.65464739986062" lon="8.777923644786219"><ele>302.0</ele><time>2026-04-11T09:11:00.999Z</time></trkpt><trkpt lat="40.65462258437715" lon="8.778045444212474"><ele>302.0</ele><time>2026-04-11T09:11:01.999Z</time></trkpt><trkpt lat="40.65461070853122" lon="8.778180450025276"><ele>302.0</ele><time>2026-04-11T09:11:02.999Z</time></trkpt><trkpt lat="40.65460002395513" lon="8.778310997016487"><ele>302.0</ele><time>2026-04-11T09:11:03.999Z</time></trkpt><trkpt lat="40.65460427683102" lon="8.77847517096972"><ele>302.0</ele><time>2026-04-11T09:11:04.999Z</time></trkpt><trkpt lat="40.6546037441779" lon="8.77867137326565"><ele>301.0</ele><time>2026-04-11T09:11:05.999Z</time></trkpt><trkpt lat="40.65460414266588" lon="8.77885160544216"><ele>300.0</ele><time>2026-04-11T09:11:06.999Z</time></trkpt><trkpt lat="40.654604902761754" lon="8.77904098854229"><ele>299.0</ele><time>2026-04-11T09:11:07.999Z</time></trkpt><trkpt lat="40.654602153229085" lon="8.779220344669351"><ele>298.0</ele><time>2026-04-11T09:11:08.999Z</time></trkpt><trkpt lat="40.654599113920625" lon="8.779421155516333"><ele>297.0</ele><time>2026-04-11T09:11:09.999Z</time></trkpt><trkpt lat="40.65459620358019" lon="8.779613445238622"><ele>296.0</ele><time>2026-04-11T09:11:10.999Z</time></trkpt><trkpt lat="40.65460506924445" lon="8.779761633693528"><ele>295.0</ele><time>2026-04-11T09:11:11.999Z</time></trkpt><trkpt lat="40.65460156183518" lon="8.779933402416713"><ele>294.0</ele><time>2026-04-11T09:11:12.999Z</time></trkpt><trkpt lat="40.6546304166546" lon="8.780117902618077"><ele>293.0</ele><time>2026-04-11T09:11:13.999Z</time></trkpt><trkpt lat="40.654680572904894" lon="8.78026576260564"><ele>292.0</ele><time>2026-04-11T09:11:14.999Z</time></trkpt><trkpt lat="40.65472110390824" lon="8.780420600733718"><ele>291.0</ele><time>2026-04-11T09:11:15.999Z</time></trkpt><trkpt lat="40.654819679885534" lon="8.780575004410837"><ele>290.0</ele><time>2026-04-11T09:11:16.999Z</time></trkpt><trkpt lat="40.654912360107915" lon="8.780765359001355"><ele>290.0</ele><time>2026-04-11T09:11:17.999Z</time></trkpt><trkpt lat="40.65499244588778" lon="8.780959657947472"><ele>290.0</ele><time>2026-04-11T09:11:18.999Z</time></trkpt><trkpt lat="40.65507268062772" lon="8.781102186916524"><ele>290.0</ele><time>2026-04-11T09:11:19.999Z</time></trkpt><trkpt lat="40.655170167173225" lon="8.781253525857904"><ele>290.0</ele><time>2026-04-11T09:11:20.999Z</time></trkpt><trkpt lat="40.655213938574164" lon="8.781374586115858"><ele>290.0</ele><time>2026-04-11T09:11:21.999Z</time></trkpt><trkpt lat="40.655273002691736" lon="8.781496029191544"><ele>290.0</ele><time>2026-04-11T09:11:22.999Z</time></trkpt><trkpt lat="40.65533351245455" lon="8.781606407364942"><ele>290.0</ele><time>2026-04-11T09:11:23.999Z</time></trkpt><trkpt lat="40.65537634089578" lon="8.78172624273057"><ele>290.0</ele><time>2026-04-11T09:11:24.999Z</time></trkpt><trkpt lat="40.65541810933298" lon="8.781864714030807"><ele>288.5</ele><time>2026-04-11T09:11:25.999Z</time></trkpt><trkpt lat="40.655466141487146" lon="8.781991383588352"><ele>287.0</ele><time>2026-04-11T09:11:26.999Z</time></trkpt><trkpt lat="40.6554964912092" lon="8.782168196930174"><ele>285.5</ele><time>2026-04-11T09:11:27.999Z</time></trkpt><trkpt lat="40.65549867117903" lon="8.782298108557669"><ele>284.0</ele><time>2026-04-11T09:11:28.999Z</time></trkpt><trkpt lat="40.655473835053094" lon="8.782463685822458"><ele>284.0</ele><time>2026-04-11T09:11:29.999Z</time></trkpt><trkpt lat="40.655422065952976" lon="8.78262928148179"><ele>284.0</ele><time>2026-04-11T09:11:30.999Z</time></trkpt><trkpt lat="40.655353036128275" lon="8.782817022703142"><ele>284.0</ele><time>2026-04-11T09:11:31.999Z</time></trkpt><trkpt lat="40.655288717857296" lon="8.782991949856976"><ele>284.0</ele><time>2026-04-11T09:11:32.999Z</time></trkpt><trkpt lat="40.6552308382995" lon="8.783176550044129"><ele>284.0</ele><time>2026-04-11T09:11:33.999Z</time></trkpt><trkpt lat="40.65514660154631" lon="8.783345443922542"><ele>284.0</ele><time>2026-04-11T09:11:34.999Z</time></trkpt><trkpt lat="40.65508396383582" lon="8.783547720529349"><ele>284.0</ele><time>2026-04-11T09:11:35.999Z</time></trkpt><trkpt lat="40.65502333327433" lon="8.783704010360095"><ele>284.25</ele><time>2026-04-11T09:11:36.999Z</time></trkpt><trkpt lat="40.65495365496555" lon="8.783874738999026"><ele>284.5</ele><time>2026-04-11T09:11:37.999Z</time></trkpt><trkpt lat="40.65488438831628" lon="8.78404821500407"><ele>284.75</ele><time>2026-04-11T09:11:38.999Z</time></trkpt><trkpt lat="40.65483600846556" lon="8.784210123186941"><ele>285.0</ele><time>2026-04-11T09:11:39.999Z</time></trkpt><trkpt lat="40.654762269344154" lon="8.784380129294728"><ele>285.0</ele><time>2026-04-11T09:11:40.999Z</time></trkpt><trkpt lat="40.65469140126368" lon="8.784535864245944"><ele>285.0</ele><time>2026-04-11T09:11:41.999Z</time></trkpt><trkpt lat="40.65461964404912" lon="8.784709237645504"><ele>285.0</ele><time>2026-04-11T09:11:42.999Z</time></trkpt><trkpt lat="40.6545628376647" lon="8.784890268318241"><ele>285.0</ele><time>2026-04-11T09:11:43.999Z</time></trkpt><trkpt lat="40.65450181678435" lon="8.785062425286647"><ele>283.0</ele><time>2026-04-11T09:11:44.999Z</time></trkpt><trkpt lat="40.65443244796376" lon="8.7852406536779"><ele>281.0</ele><time>2026-04-11T09:11:45.999Z</time></trkpt><trkpt lat="40.654348181817674" lon="8.78539051685925"><ele>279.0</ele><time>2026-04-11T09:11:46.999Z</time></trkpt><trkpt lat="40.65427036885783" lon="8.785566788174213"><ele>277.0</ele><time>2026-04-11T09:11:47.999Z</time></trkpt><trkpt lat="40.6541483692317" lon="8.785732861096388"><ele>277.0</ele><time>2026-04-11T09:11:48.999Z</time></trkpt><trkpt lat="40.654022001162524" lon="8.785900775274673"><ele>277.0</ele><time>2026-04-11T09:11:49.999Z</time></trkpt><trkpt lat="40.6538953905277" lon="8.7860822967329"><ele>277.0</ele><time>2026-04-11T09:11:50.999Z</time></trkpt><trkpt lat="40.65374512697972" lon="8.786246518870282"><ele>276.3333333333333</ele><time>2026-04-11T09:11:51.999Z</time></trkpt><trkpt lat="40.65362512314022" lon="8.78640676797158"><ele>275.6666666666667</ele><time>2026-04-11T09:11:52.999Z</time></trkpt><trkpt lat="40.6535190657103" lon="8.78657180542364"><ele>275.0</ele><time>2026-04-11T09:11:53.999Z</time></trkpt><trkpt lat="40.65340257839935" lon="8.786744691304966"><ele>276.6666666666667</ele><time>2026-04-11T09:11:54.999Z</time></trkpt><trkpt lat="40.65328567551494" lon="8.786866660276583"><ele>278.3333333333333</ele><time>2026-04-11T09:11:55.999Z</time></trkpt><trkpt lat="40.65316231267917" lon="8.787040467820038"><ele>280.0</ele><time>2026-04-11T09:11:56.999Z</time></trkpt><trkpt lat="40.65302783022458" lon="8.78718205687458"><ele>280.0</ele><time>2026-04-11T09:11:57.999Z</time></trkpt><trkpt lat="40.65290673517337" lon="8.78731322581166"><ele>280.0</ele><time>2026-04-11T09:11:58.999Z</time></trkpt><trkpt lat="40.652801520406356" lon="8.787456475509003"><ele>280.0</ele><time>2026-04-11T09:11:59.999Z</time></trkpt><trkpt lat="40.652701745220696" lon="8.787604520758249"><ele>279.25</ele><time>2026-04-11T09:12:00.999Z</time></trkpt><trkpt lat="40.6525865908344" lon="8.787748860862594"><ele>278.5</ele><time>2026-04-11T09:12:01.999Z</time></trkpt><trkpt lat="40.6524926729759" lon="8.787877681711464"><ele>277.75</ele><time>2026-04-11T09:12:02.999Z</time></trkpt><trkpt lat="40.65239898287854" lon="8.78800929154416"><ele>277.0</ele><time>2026-04-11T09:12:03.999Z</time></trkpt><trkpt lat="40.652291748571976" lon="8.788145017637047"><ele>277.0</ele><time>2026-04-11T09:12:04.999Z</time></trkpt><trkpt lat="40.652190804061966" lon="8.788290222432742"><ele>277.0</ele><time>2026-04-11T09:12:05.999Z</time></trkpt><trkpt lat="40.65209019569986" lon="8.788407084270258"><ele>277.0</ele><time>2026-04-11T09:12:06.999Z</time></trkpt><trkpt lat="40.65199577245338" lon="8.788497619848377"><ele>277.0</ele><time>2026-04-11T09:12:07.999Z</time></trkpt><trkpt lat="40.65190753599451" lon="8.78860649870332"><ele>276.0</ele><time>2026-04-11T09:12:08.999Z</time></trkpt><trkpt lat="40.65183918443798" lon="8.788712086500727"><ele>275.0</ele><time>2026-04-11T09:12:09.999Z</time></trkpt><trkpt lat="40.65177050264541" lon="8.788829866079706"><ele>274.0</ele><time>2026-04-11T09:12:10.999Z</time></trkpt><trkpt lat="40.65171494366315" lon="8.78895148986014"><ele>273.0</ele><time>2026-04-11T09:12:11.999Z</time></trkpt><trkpt lat="40.65165434807843" lon="8.789131348995122"><ele>273.0</ele><time>2026-04-11T09:12:12.998Z</time></trkpt><trkpt lat="40.65159967967272" lon="8.789310755061903"><ele>273.0</ele><time>2026-04-11T09:12:13.998Z</time></trkpt><trkpt lat="40.65156178459616" lon="8.789522805833757"><ele>273.0</ele><time>2026-04-11T09:12:14.998Z</time></trkpt><trkpt lat="40.65153515111516" lon="8.789745758432687"><ele>273.0</ele><time>2026-04-11T09:12:15.998Z</time></trkpt><trkpt lat="40.651493278699625" lon="8.789948621792725"><ele>273.0</ele><time>2026-04-11T09:12:16.998Z</time></trkpt><trkpt lat="40.651452114913035" lon="8.790148051599093"><ele>273.0</ele><time>2026-04-11T09:12:17.998Z</time></trkpt><trkpt lat="40.65140810507048" lon="8.790362970896949"><ele>273.0</ele><time>2026-04-11T09:12:18.998Z</time></trkpt><trkpt lat="40.651366387118" lon="8.790582029272747"><ele>273.0</ele><time>2026-04-11T09:12:19.998Z</time></trkpt><trkpt lat="40.65133328774056" lon="8.7907591394223"><ele>273.0</ele><time>2026-04-11T09:12:20.998Z</time></trkpt><trkpt lat="40.65130383583825" lon="8.7909323002444"><ele>273.0</ele><time>2026-04-11T09:12:21.998Z</time></trkpt><trkpt lat="40.651257364048995" lon="8.791121541295674"><ele>274.25</ele><time>2026-04-11T09:12:22.998Z</time></trkpt><trkpt lat="40.6512121519116" lon="8.791264564399581"><ele>275.5</ele><time>2026-04-11T09:12:23.998Z</time></trkpt><trkpt lat="40.65117714439148" lon="8.791420937841272"><ele>276.75</ele><time>2026-04-11T09:12:24.998Z</time></trkpt><trkpt lat="40.65115641043054" lon="8.791594353747337"><ele>278.0</ele><time>2026-04-11T09:12:25.998Z</time></trkpt><trkpt lat="40.65113467967548" lon="8.791765412860023"><ele>277.0</ele><time>2026-04-11T09:12:26.998Z</time></trkpt><trkpt lat="40.65110098223949" lon="8.791924357738399"><ele>276.0</ele><time>2026-04-11T09:12:27.998Z</time></trkpt><trkpt lat="40.65105256028908" lon="8.792107618494983"><ele>275.0</ele><time>2026-04-11T09:12:28.998Z</time></trkpt><trkpt lat="40.6510187456737" lon="8.79229440406444"><ele>274.0</ele><time>2026-04-11T09:12:29.998Z</time></trkpt><trkpt lat="40.65098682066607" lon="8.792472649975503"><ele>274.0</ele><time>2026-04-11T09:12:30.998Z</time></trkpt><trkpt lat="40.650954964529994" lon="8.792644159914643"><ele>274.0</ele><time>2026-04-11T09:12:31.998Z</time></trkpt><trkpt lat="40.65093218832748" lon="8.792824467746192"><ele>274.0</ele><time>2026-04-11T09:12:32.998Z</time></trkpt><trkpt lat="40.65091623190061" lon="8.793015806806132"><ele>274.0</ele><time>2026-04-11T09:12:33.998Z</time></trkpt><trkpt lat="40.650904503394585" lon="8.793184382754342"><ele>274.0</ele><time>2026-04-11T09:12:34.998Z</time></trkpt><trkpt lat="40.650891427490535" lon="8.793386398677683"><ele>274.0</ele><time>2026-04-11T09:12:35.998Z</time></trkpt><trkpt lat="40.650882441784375" lon="8.793542938964917"><ele>274.0</ele><time>2026-04-11T09:12:36.998Z</time></trkpt><trkpt lat="40.65087514891593" lon="8.793690323136437"><ele>274.0</ele><time>2026-04-11T09:12:37.998Z</time></trkpt><trkpt lat="40.6508699981569" lon="8.793834362860503"><ele>274.25</ele><time>2026-04-11T09:12:38.998Z</time></trkpt><trkpt lat="40.65086985115935" lon="8.793993772924875"><ele>274.5</ele><time>2026-04-11T09:12:39.998Z</time></trkpt><trkpt lat="40.65088608535345" lon="8.794177533074976"><ele>274.75</ele><time>2026-04-11T09:12:40.998Z</time></trkpt><trkpt lat="40.65092191803816" lon="8.794385632122319"><ele>275.0</ele><time>2026-04-11T09:12:41.998Z</time></trkpt><trkpt lat="40.65095809603361" lon="8.794593795684856"><ele>273.75</ele><time>2026-04-11T09:12:42.998Z</time></trkpt><trkpt lat="40.650984515107844" lon="8.794783864755793"><ele>272.5</ele><time>2026-04-11T09:12:43.998Z</time></trkpt><trkpt lat="40.651010054537835" lon="8.794962697507328"><ele>271.25</ele><time>2026-04-11T09:12:44.998Z</time></trkpt><trkpt lat="40.65103866300378" lon="8.795139972729876"><ele>270.0</ele><time>2026-04-11T09:12:45.998Z</time></trkpt><trkpt lat="40.65107321228239" lon="8.79533777813398"><ele>269.5</ele><time>2026-04-11T09:12:46.998Z</time></trkpt><trkpt lat="40.651107734316334" lon="8.795545818480829"><ele>269.0</ele><time>2026-04-11T09:12:47.998Z</time></trkpt><trkpt lat="40.6511364207964" lon="8.795732171294485"><ele>268.5</ele><time>2026-04-11T09:12:48.998Z</time></trkpt><trkpt lat="40.65116462260353" lon="8.795915375527807"><ele>268.0</ele><time>2026-04-11T09:12:49.998Z</time></trkpt><trkpt lat="40.651202598380046" lon="8.796091488274298"><ele>270.0</ele><time>2026-04-11T09:12:50.998Z</time></trkpt><trkpt lat="40.65122652996947" lon="8.796231723661814"><ele>272.0</ele><time>2026-04-11T09:12:51.998Z</time></trkpt><trkpt lat="40.65123169014398" lon="8.79637601675899"><ele>274.0</ele><time>2026-04-11T09:12:52.998Z</time></trkpt><trkpt lat="40.65124042033254" lon="8.796552631042657"><ele>276.0</ele><time>2026-04-11T09:12:53.998Z</time></trkpt><trkpt lat="40.65125108786848" lon="8.796726636986364"><ele>275.5</ele><time>2026-04-11T09:12:54.998Z</time></trkpt><trkpt lat="40.65125069498296" lon="8.796896364266292"><ele>275.0</ele><time>2026-04-11T09:12:55.998Z</time></trkpt><trkpt lat="40.65128788883201" lon="8.797097888216221"><ele>274.5</ele><time>2026-04-11T09:12:56.998Z</time></trkpt><trkpt lat="40.65129450217073" lon="8.797311300378384"><ele>274.0</ele><time>2026-04-11T09:12:57.998Z</time></trkpt><trkpt lat="40.651306343728876" lon="8.797497419780061"><ele>273.75</ele><time>2026-04-11T09:12:58.998Z</time></trkpt><trkpt lat="40.65130385106195" lon="8.797674012604743"><ele>273.5</ele><time>2026-04-11T09:12:59.998Z</time></trkpt><trkpt lat="40.651322321461556" lon="8.797822780700699"><ele>273.25</ele><time>2026-04-11T09:13:00.998Z</time></trkpt><trkpt lat="40.65134031887917" lon="8.797958785974648"><ele>273.0</ele><time>2026-04-11T09:13:01.998Z</time></trkpt><trkpt lat="40.65137103686432" lon="8.798113273532907"><ele>273.0</ele><time>2026-04-11T09:13:02.998Z</time></trkpt><trkpt lat="40.65143292523113" lon="8.798258156195239"><ele>273.0</ele><time>2026-04-11T09:13:03.998Z</time></trkpt><trkpt lat="40.65147117163282" lon="8.798435335234087"><ele>273.0</ele><time>2026-04-11T09:13:04.998Z</time></trkpt><trkpt lat="40.65150372540085" lon="8.798610528657244"><ele>273.0</ele><time>2026-04-11T09:13:05.998Z</time></trkpt><trkpt lat="40.651534862731346" lon="8.798794976231711"><ele>271.75</ele><time>2026-04-11T09:13:06.998Z</time></trkpt><trkpt lat="40.65156079576137" lon="8.798969101478628"><ele>270.5</ele><time>2026-04-11T09:13:07.998Z</time></trkpt><trkpt lat="40.65158939595513" lon="8.799162166038657"><ele>269.25</ele><time>2026-04-11T09:13:08.998Z</time></trkpt><trkpt lat="40.651628185808036" lon="8.799321306561898"><ele>268.0</ele><time>2026-04-11T09:13:09.998Z</time></trkpt><trkpt lat="40.65169271899695" lon="8.799439908104652"><ele>267.4</ele><time>2026-04-11T09:13:10.998Z</time></trkpt><trkpt lat="40.651724514137264" lon="8.799545351160187"><ele>266.8</ele><time>2026-04-11T09:13:11.998Z</time></trkpt><trkpt lat="40.6517891398582" lon="8.799631406157086"><ele>266.2</ele><time>2026-04-11T09:13:12.998Z</time></trkpt><trkpt lat="40.65182788337611" lon="8.799739269813442"><ele>265.6</ele><time>2026-04-11T09:13:13.998Z</time></trkpt><trkpt lat="40.651873145826514" lon="8.799855521511613"><ele>265.0</ele><time>2026-04-11T09:13:14.998Z</time></trkpt><trkpt lat="40.65191211443284" lon="8.799959297453963"><ele>265.0</ele><time>2026-04-11T09:13:15.998Z</time></trkpt><trkpt lat="40.65194705530106" lon="8.800052347012333"><ele>265.0</ele><time>2026-04-11T09:13:16.998Z</time></trkpt><trkpt lat="40.65197967342936" lon="8.800145682758465"><ele>265.0</ele><time>2026-04-11T09:13:17.998Z</time></trkpt><trkpt lat="40.65201642986201" lon="8.80027256627806"><ele>265.0</ele><time>2026-04-11T09:13:18.998Z</time></trkpt><trkpt lat="40.65204773920293" lon="8.800399543641335"><ele>265.0</ele><time>2026-04-11T09:13:19.998Z</time></trkpt><trkpt lat="40.652091501863985" lon="8.800565416221492"><ele>266.0</ele><time>2026-04-11T09:13:20.998Z</time></trkpt><trkpt lat="40.652133444257025" lon="8.800708901044514"><ele>267.0</ele><time>2026-04-11T09:13:21.998Z</time></trkpt><trkpt lat="40.652187671784056" lon="8.80084144817635"><ele>268.0</ele><time>2026-04-11T09:13:22.998Z</time></trkpt><trkpt lat="40.65223051939162" lon="8.800980417069816"><ele>269.0</ele><time>2026-04-11T09:13:23.998Z</time></trkpt><trkpt lat="40.65228359592325" lon="8.801115910319012"><ele>269.0</ele><time>2026-04-11T09:13:24.998Z</time></trkpt><trkpt lat="40.6523569818727" lon="8.801249485867793"><ele>269.0</ele><time>2026-04-11T09:13:25.998Z</time></trkpt><trkpt lat="40.652430913615525" lon="8.801380891677677"><ele>269.0</ele><time>2026-04-11T09:13:26.998Z</time></trkpt><trkpt lat="40.65249167801567" lon="8.801475885691659"><ele>269.0</ele><time>2026-04-11T09:13:27.998Z</time></trkpt><trkpt lat="40.65255107577559" lon="8.801610860895979"><ele>269.0</ele><time>2026-04-11T09:13:28.998Z</time></trkpt><trkpt lat="40.65263477689077" lon="8.801735221364064"><ele>269.0</ele><time>2026-04-11T09:13:29.998Z</time></trkpt><trkpt lat="40.65274099622121" lon="8.801863042091899"><ele>269.0</ele><time>2026-04-11T09:13:30.998Z</time></trkpt><trkpt lat="40.65281390247488" lon="8.802007202866722"><ele>269.0</ele><time>2026-04-11T09:13:31.998Z</time></trkpt><trkpt lat="40.65288575013681" lon="8.802133898972134"><ele>269.59999999999997</ele><time>2026-04-11T09:13:32.998Z</time></trkpt><trkpt lat="40.65295651544478" lon="8.80225305039004"><ele>270.2</ele><time>2026-04-11T09:13:33.998Z</time></trkpt><trkpt lat="40.65303448072294" lon="8.80237986129961"><ele>270.79999999999995</ele><time>2026-04-11T09:13:34.998Z</time></trkpt><trkpt lat="40.653088479852734" lon="8.802473775137047"><ele>271.4</ele><time>2026-04-11T09:13:35.998Z</time></trkpt><trkpt lat="40.65314445327521" lon="8.802577928273164"><ele>272.0</ele><time>2026-04-11T09:13:36.998Z</time></trkpt><trkpt lat="40.65318707268995" lon="8.802700677776752"><ele>272.0</ele><time>2026-04-11T09:13:37.998Z</time></trkpt><trkpt lat="40.65322061104215" lon="8.802835339393415"><ele>272.0</ele><time>2026-04-11T09:13:38.998Z</time></trkpt><trkpt lat="40.653254200968505" lon="8.802969448235263"><ele>272.0</ele><time>2026-04-11T09:13:39.998Z</time></trkpt><trkpt lat="40.65328146692168" lon="8.803094134783725"><ele>272.0</ele><time>2026-04-11T09:13:40.998Z</time></trkpt><trkpt lat="40.65330463638312" lon="8.803204733687972"><ele>272.0</ele><time>2026-04-11T09:13:41.998Z</time></trkpt><trkpt lat="40.65331340511584" lon="8.803294865686404"><ele>272.0</ele><time>2026-04-11T09:13:42.998Z</time></trkpt><trkpt lat="40.65330090921456" lon="8.803422211738454"><ele>272.0</ele><time>2026-04-11T09:13:43.998Z</time></trkpt><trkpt lat="40.65328101603578" lon="8.803565819144366"><ele>272.0</ele><time>2026-04-11T09:13:44.998Z</time></trkpt><trkpt lat="40.653256596325114" lon="8.803742103629448"><ele>272.0</ele><time>2026-04-11T09:13:45.998Z</time></trkpt><trkpt lat="40.653232616020766" lon="8.803915215820735"><ele>271.0</ele><time>2026-04-11T09:13:46.998Z</time></trkpt><trkpt lat="40.65321154907255" lon="8.80407850228613"><ele>270.0</ele><time>2026-04-11T09:13:47.998Z</time></trkpt><trkpt lat="40.653196341700344" lon="8.804245202409405"><ele>269.0</ele><time>2026-04-11T09:13:48.998Z</time></trkpt><trkpt lat="40.65319004962564" lon="8.804399123917928"><ele>268.0</ele><time>2026-04-11T09:13:49.998Z</time></trkpt><trkpt lat="40.65319307639235" lon="8.804574749629063"><ele>267.0</ele><time>2026-04-11T09:13:50.998Z</time></trkpt><trkpt lat="40.6532366774685" lon="8.804733810871895"><ele>266.0</ele><time>2026-04-11T09:13:51.998Z</time></trkpt><trkpt lat="40.653241432036296" lon="8.804882021753462"><ele>265.0</ele><time>2026-04-11T09:13:52.998Z</time></trkpt><trkpt lat="40.65329183971574" lon="8.805025361210713"><ele>264.0</ele><time>2026-04-11T09:13:53.998Z</time></trkpt><trkpt lat="40.6533443642636" lon="8.80516250761412"><ele>263.59999999999997</ele><time>2026-04-11T09:13:54.998Z</time></trkpt><trkpt lat="40.65338220717221" lon="8.805264422858139"><ele>263.2</ele><time>2026-04-11T09:13:55.997Z</time></trkpt><trkpt lat="40.65341194929484" lon="8.805388028277292"><ele>262.79999999999995</ele><time>2026-04-11T09:13:56.997Z</time></trkpt><trkpt lat="40.65342632866364" lon="8.80552668519911"><ele>262.4</ele><time>2026-04-11T09:13:57.997Z</time></trkpt><trkpt lat="40.65345463882155" lon="8.805631909563493"><ele>262.0</ele><time>2026-04-11T09:13:58.997Z</time></trkpt><trkpt lat="40.65344486149932" lon="8.805738222073524"><ele>262.0</ele><time>2026-04-11T09:13:59.997Z</time></trkpt><trkpt lat="40.65343444019286" lon="8.805851345290838"><ele>262.0</ele><time>2026-04-11T09:14:00.997Z</time></trkpt><trkpt lat="40.65341421620876" lon="8.805959165887085"><ele>262.0</ele><time>2026-04-11T09:14:01.997Z</time></trkpt><trkpt lat="40.65337879347818" lon="8.806095041990522"><ele>262.0</ele><time>2026-04-11T09:14:02.997Z</time></trkpt><trkpt lat="40.65332703687536" lon="8.806235611602265"><ele>262.0</ele><time>2026-04-11T09:14:03.997Z</time></trkpt><trkpt lat="40.65326486283762" lon="8.806384374746534"><ele>262.0</ele><time>2026-04-11T09:14:04.997Z</time></trkpt><trkpt lat="40.6532119932213" lon="8.80652121265966"><ele>262.0</ele><time>2026-04-11T09:14:05.997Z</time></trkpt><trkpt lat="40.6531989442811" lon="8.806648077307035"><ele>262.0</ele><time>2026-04-11T09:14:06.997Z</time></trkpt><trkpt lat="40.65318996006476" lon="8.806805061534618"><ele>262.0</ele><time>2026-04-11T09:14:07.997Z</time></trkpt><trkpt lat="40.65318926292071" lon="8.8069964129536"><ele>262.0</ele><time>2026-04-11T09:14:08.997Z</time></trkpt><trkpt lat="40.65321144677848" lon="8.80718029674478"><ele>262.0</ele><time>2026-04-11T09:14:09.997Z</time></trkpt><trkpt lat="40.65323532699774" lon="8.807335772061995"><ele>262.0</ele><time>2026-04-11T09:14:10.997Z</time></trkpt><trkpt lat="40.65326298740145" lon="8.807479284795269"><ele>262.0</ele><time>2026-04-11T09:14:11.997Z</time></trkpt><trkpt lat="40.653295931529655" lon="8.80763299538325"><ele>262.0</ele><time>2026-04-11T09:14:12.997Z</time></trkpt><trkpt lat="40.653331928603855" lon="8.807789630699673"><ele>262.0</ele><time>2026-04-11T09:14:13.997Z</time></trkpt><trkpt lat="40.653375951525845" lon="8.807906172311924"><ele>262.0</ele><time>2026-04-11T09:14:14.997Z</time></trkpt><trkpt lat="40.65338034114842" lon="8.808017287892506"><ele>262.0</ele><time>2026-04-11T09:14:15.997Z</time></trkpt><trkpt lat="40.653414090600116" lon="8.80813912620259"><ele>262.0</ele><time>2026-04-11T09:14:16.997Z</time></trkpt><trkpt lat="40.653446353318884" lon="8.808267625715965"><ele>262.0</ele><time>2026-04-11T09:14:17.997Z</time></trkpt><trkpt lat="40.653456969130566" lon="8.80835607410669"><ele>262.0</ele><time>2026-04-11T09:14:18.997Z</time></trkpt><trkpt lat="40.65348330717922" lon="8.808452840946181"><ele>262.0</ele><time>2026-04-11T09:14:19.997Z</time></trkpt><trkpt lat="40.65347609863689" lon="8.808545004785483"><ele>262.0</ele><time>2026-04-11T09:14:20.997Z</time></trkpt><trkpt lat="40.65347559284634" lon="8.808633034539554"><ele>262.0</ele><time>2026-04-11T09:14:21.997Z</time></trkpt><trkpt lat="40.65346882400935" lon="8.808752210537282"><ele>262.0</ele><time>2026-04-11T09:14:22.997Z</time></trkpt><trkpt lat="40.65345813613112" lon="8.808873368199041"><ele>261.8333333333333</ele><time>2026-04-11T09:14:23.997Z</time></trkpt><trkpt lat="40.653442675118875" lon="8.809000097404132"><ele>261.66666666666663</ele><time>2026-04-11T09:14:24.997Z</time></trkpt><trkpt lat="40.653432767964134" lon="8.809130327938414"><ele>261.5</ele><time>2026-04-11T09:14:25.997Z</time></trkpt><trkpt lat="40.653409676687154" lon="8.809247902066994"><ele>261.3333333333333</ele><time>2026-04-11T09:14:26.997Z</time></trkpt><trkpt lat="40.65338073451697" lon="8.809352416987897"><ele>261.1666666666667</ele><time>2026-04-11T09:14:27.997Z</time></trkpt><trkpt lat="40.65335348172757" lon="8.809445102140852"><ele>261.0</ele><time>2026-04-11T09:14:28.997Z</time></trkpt><trkpt lat="40.65331645222195" lon="8.809531049718295"><ele>262.0</ele><time>2026-04-11T09:14:29.997Z</time></trkpt><trkpt lat="40.65329588082781" lon="8.809614244296938"><ele>263.0</ele><time>2026-04-11T09:14:30.997Z</time></trkpt><trkpt lat="40.65326283396751" lon="8.809752091850342"><ele>264.0</ele><time>2026-04-11T09:14:32.997Z</time></trkpt><trkpt lat="40.653233225124296" lon="8.809866140538931"><ele>265.0</ele><time>2026-04-11T09:14:34.997Z</time></trkpt><trkpt lat="40.65322337674309" lon="8.809955534591012"><ele>266.0</ele><time>2026-04-11T09:14:37.997Z</time></trkpt><trkpt lat="40.65322679441304" lon="8.809832440969355"><ele>267.0</ele><time>2026-04-11T09:14:56.997Z</time></trkpt><trkpt lat="40.65326101431753" lon="8.809759880908818"><ele>267.0</ele><time>2026-04-11T09:14:57.997Z</time></trkpt><trkpt lat="40.65329270444311" lon="8.809627589893951"><ele>267.0</ele><time>2026-04-11T09:14:59.997Z</time></trkpt><trkpt lat="40.65332092543916" lon="8.809512958704076"><ele>267.0</ele><time>2026-04-11T09:15:01.997Z</time></trkpt><trkpt lat="40.65334986502186" lon="8.80939970119684"><ele>267.0</ele><time>2026-04-11T09:15:03.997Z</time></trkpt><trkpt lat="40.65337744098246" lon="8.80930083472632"><ele>267.0</ele><time>2026-04-11T09:15:05.997Z</time></trkpt><trkpt lat="40.65335019495533" lon="8.8094028258756"><ele>267.0</ele><time>2026-04-11T09:16:01Z</time></trkpt><trkpt lat="40.65330748340686" lon="8.809567321390803"><ele>267.0</ele><time>2026-04-11T09:16:03Z</time></trkpt><trkpt lat="40.65328524474737" lon="8.809658682367246"><ele>267.0</ele><time>2026-04-11T09:16:04Z</time></trkpt><trkpt lat="40.653261507210146" lon="8.80975855722634"><ele>267.0</ele><time>2026-04-11T09:16:04.999Z</time></trkpt><trkpt lat="40.65324319423994" lon="8.809877203427982"><ele>267.0</ele><time>2026-04-11T09:16:05.999Z</time></trkpt><trkpt lat="40.65321079920824" lon="8.809984663257277"><ele>267.0</ele><time>2026-04-11T09:16:06.999Z</time></trkpt><trkpt lat="40.653182971070656" lon="8.810098015491354"><ele>267.0</ele><time>2026-04-11T09:16:07.999Z</time></trkpt><trkpt lat="40.65314323457171" lon="8.810216605257281"><ele>268.2</ele><time>2026-04-11T09:16:08.999Z</time></trkpt><trkpt lat="40.65309258455597" lon="8.810331026994385"><ele>269.4</ele><time>2026-04-11T09:16:09.999Z</time></trkpt><trkpt lat="40.653050575672836" lon="8.81045715176961"><ele>270.6</ele><time>2026-04-11T09:16:10.999Z</time></trkpt><trkpt lat="40.65300730850306" lon="8.810589082855222"><ele>271.8</ele><time>2026-04-11T09:16:11.999Z</time></trkpt><trkpt lat="40.65296953345662" lon="8.81071793199339"><ele>273.0</ele><time>2026-04-11T09:16:12.999Z</time></trkpt><trkpt lat="40.65293215351711" lon="8.810845434004047"><ele>273.0</ele><time>2026-04-11T09:16:13.999Z</time></trkpt><trkpt lat="40.65289597268536" lon="8.810968845394576"><ele>273.0</ele><time>2026-04-11T09:16:14.999Z</time></trkpt><trkpt lat="40.652858090015435" lon="8.811098030708406"><ele>273.0</ele><time>2026-04-11T09:16:15.999Z</time></trkpt><trkpt lat="40.65281716053711" lon="8.811237578510367"><ele>273.0</ele><time>2026-04-11T09:16:16.999Z</time></trkpt><trkpt lat="40.65277702936656" lon="8.811382015720108"><ele>273.0</ele><time>2026-04-11T09:16:17.999Z</time></trkpt><trkpt lat="40.65273986166608" lon="8.81152524690568"><ele>270.75</ele><time>2026-04-11T09:16:18.999Z</time></trkpt><trkpt lat="40.65270679768074" lon="8.811660682992656"><ele>268.5</ele><time>2026-04-11T09:16:19.999Z</time></trkpt><trkpt lat="40.65267535536714" lon="8.811802006746046"><ele>266.25</ele><time>2026-04-11T09:16:20.999Z</time></trkpt><trkpt lat="40.65264981731732" lon="8.811948674349823"><ele>264.0</ele><time>2026-04-11T09:16:21.999Z</time></trkpt><trkpt lat="40.652628272153635" lon="8.812102140625386"><ele>263.5</ele><time>2026-04-11T09:16:22.999Z</time></trkpt><trkpt lat="40.652610986692125" lon="8.812256994829855"><ele>263.0</ele><time>2026-04-11T09:16:23.999Z</time></trkpt><trkpt lat="40.652597784040594" lon="8.81240802214216"><ele>262.5</ele><time>2026-04-11T09:16:24.999Z</time></trkpt><trkpt lat="40.652587577942754" lon="8.812555075740534"><ele>262.0</ele><time>2026-04-11T09:16:25.999Z</time></trkpt><trkpt lat="40.652595477417876" lon="8.812705945099955"><ele>261.5</ele><time>2026-04-11T09:16:26.999Z</time></trkpt><trkpt lat="40.652586607199304" lon="8.812862181790344"><ele>261.0</ele><time>2026-04-11T09:16:27.999Z</time></trkpt><trkpt lat="40.65258036506506" lon="8.813020200974552"><ele>260.5</ele><time>2026-04-11T09:16:28.999Z</time></trkpt><trkpt lat="40.65260378889972" lon="8.813177418226877"><ele>260.0</ele><time>2026-04-11T09:16:29.999Z</time></trkpt><trkpt lat="40.652609700451215" lon="8.813339947550308"><ele>259.75</ele><time>2026-04-11T09:16:30.999Z</time></trkpt><trkpt lat="40.652612037043895" lon="8.81350241976026"><ele>259.5</ele><time>2026-04-11T09:16:31.999Z</time></trkpt><trkpt lat="40.65259841279607" lon="8.813660025390515"><ele>259.25</ele><time>2026-04-11T09:16:32.999Z</time></trkpt><trkpt lat="40.652584513619686" lon="8.813808782869454"><ele>259.0</ele><time>2026-04-11T09:16:33.999Z</time></trkpt><trkpt lat="40.65255929152634" lon="8.81395731847189"><ele>259.0</ele><time>2026-04-11T09:16:34.999Z</time></trkpt><trkpt lat="40.65253267898398" lon="8.814118283069371"><ele>259.0</ele><time>2026-04-11T09:16:35.999Z</time></trkpt><trkpt lat="40.65251559308227" lon="8.81427696564598"><ele>259.0</ele><time>2026-04-11T09:16:36.999Z</time></trkpt><trkpt lat="40.65250276922436" lon="8.814423282595126"><ele>259.0</ele><time>2026-04-11T09:16:37.999Z</time></trkpt><trkpt lat="40.65249172260376" lon="8.814562750200178"><ele>259.25</ele><time>2026-04-11T09:16:38.999Z</time></trkpt><trkpt lat="40.652489202771065" lon="8.814705233040481"><ele>259.5</ele><time>2026-04-11T09:16:39.999Z</time></trkpt><trkpt lat="40.65250031364171" lon="8.814853950180753"><ele>259.75</ele><time>2026-04-11T09:16:40.999Z</time></trkpt><trkpt lat="40.652521610452986" lon="8.815003772540724"><ele>260.0</ele><time>2026-04-11T09:16:41.999Z</time></trkpt><trkpt lat="40.652519867792705" lon="8.815165355448812"><ele>260.5</ele><time>2026-04-11T09:16:42.999Z</time></trkpt><trkpt lat="40.65250757214414" lon="8.81533484306323"><ele>261.0</ele><time>2026-04-11T09:16:43.999Z</time></trkpt><trkpt lat="40.65249288902879" lon="8.815497369824492"><ele>261.5</ele><time>2026-04-11T09:16:44.999Z</time></trkpt><trkpt lat="40.65247583345489" lon="8.815657726304615"><ele>262.0</ele><time>2026-04-11T09:16:45.999Z</time></trkpt><trkpt lat="40.65245676033289" lon="8.815813288804037"><ele>262.0</ele><time>2026-04-11T09:16:46.999Z</time></trkpt><trkpt lat="40.65242540027373" lon="8.815968304584196"><ele>262.0</ele><time>2026-04-11T09:16:47.999Z</time></trkpt><trkpt lat="40.65237848405497" lon="8.816128079429816"><ele>262.0</ele><time>2026-04-11T09:16:48.999Z</time></trkpt><trkpt lat="40.65232818998292" lon="8.816302733114311"><ele>262.0</ele><time>2026-04-11T09:16:49.999Z</time></trkpt><trkpt lat="40.652271751003596" lon="8.816475900771865"><ele>263.0</ele><time>2026-04-11T09:16:50.999Z</time></trkpt><trkpt lat="40.65221144901309" lon="8.816642285782256"><ele>264.0</ele><time>2026-04-11T09:16:51.999Z</time></trkpt><trkpt lat="40.65215392940767" lon="8.816803143120543"><ele>265.0</ele><time>2026-04-11T09:16:52.999Z</time></trkpt><trkpt lat="40.65210065686619" lon="8.816958891175933"><ele>266.0</ele><time>2026-04-11T09:16:53.999Z</time></trkpt><trkpt lat="40.65205369043325" lon="8.817112600516733"><ele>266.5</ele><time>2026-04-11T09:16:54.999Z</time></trkpt><trkpt lat="40.65202014950361" lon="8.817270656084267"><ele>267.0</ele><time>2026-04-11T09:16:55.999Z</time></trkpt><trkpt lat="40.65200756302357" lon="8.817433058781136"><ele>267.5</ele><time>2026-04-11T09:16:56.999Z</time></trkpt><trkpt lat="40.651943403487195" lon="8.817576376515737"><ele>268.0</ele><time>2026-04-11T09:16:57.999Z</time></trkpt><trkpt lat="40.65187794362152" lon="8.817714618859464"><ele>265.25</ele><time>2026-04-11T09:16:58.999Z</time></trkpt><trkpt lat="40.65180177594622" lon="8.817847772312966"><ele>262.5</ele><time>2026-04-11T09:16:59.999Z</time></trkpt><trkpt lat="40.651715277977075" lon="8.817979408368322"><ele>259.75</ele><time>2026-04-11T09:17:00.999Z</time></trkpt><trkpt lat="40.651623493138935" lon="8.818095341048592"><ele>257.0</ele><time>2026-04-11T09:17:01.999Z</time></trkpt><trkpt lat="40.65153922064689" lon="8.818207331399265"><ele>257.0</ele><time>2026-04-11T09:17:02.999Z</time></trkpt><trkpt lat="40.65145233863959" lon="8.818304919035336"><ele>257.0</ele><time>2026-04-11T09:17:03.999Z</time></trkpt><trkpt lat="40.6513529155591" lon="8.818413178718371"><ele>257.0</ele><time>2026-04-11T09:17:04.999Z</time></trkpt><trkpt lat="40.65123616467596" lon="8.81851115319392"><ele>257.0</ele><time>2026-04-11T09:17:05.999Z</time></trkpt><trkpt lat="40.65112366749173" lon="8.818616166393648"><ele>256.75</ele><time>2026-04-11T09:17:06.999Z</time></trkpt><trkpt lat="40.651020973055026" lon="8.818731814315184"><ele>256.5</ele><time>2026-04-11T09:17:07.999Z</time></trkpt><trkpt lat="40.6509342575911" lon="8.81884636400749"><ele>256.25</ele><time>2026-04-11T09:17:08.999Z</time></trkpt><trkpt lat="40.65086431543616" lon="8.818964942595215"><ele>256.0</ele><time>2026-04-11T09:17:09.999Z</time></trkpt><trkpt lat="40.65081484394688" lon="8.81908348261201"><ele>255.99999999999997</ele><time>2026-04-11T09:17:10.999Z</time></trkpt><trkpt lat="40.650775769697546" lon="8.819189965402249"><ele>256.0</ele><time>2026-04-11T09:17:11.999Z</time></trkpt><trkpt lat="40.6507454477555" lon="8.819289560932921"><ele>256.0</ele><time>2026-04-11T09:17:12.999Z</time></trkpt><trkpt lat="40.650699377555405" lon="8.819355208927242"><ele>256.0</ele><time>2026-04-11T09:17:13.999Z</time></trkpt><trkpt lat="40.650712276659554" lon="8.819527431103394"><ele>255.99999999999997</ele><time>2026-04-11T09:17:15.999Z</time></trkpt><trkpt lat="40.65072836523794" lon="8.819617989736207"><ele>256.0</ele><time>2026-04-11T09:17:16.999Z</time></trkpt><trkpt lat="40.65074099539042" lon="8.819737792735662"><ele>256.5</ele><time>2026-04-11T09:17:17.999Z</time></trkpt><trkpt lat="40.65077453401877" lon="8.819868941935185"><ele>257.0</ele><time>2026-04-11T09:17:18.999Z</time></trkpt><trkpt lat="40.65082216049307" lon="8.82000463596725"><ele>257.5</ele><time>2026-04-11T09:17:19.999Z</time></trkpt><trkpt lat="40.650884053169214" lon="8.820136651991113"><ele>258.0</ele><time>2026-04-11T09:17:20.999Z</time></trkpt><trkpt lat="40.65095331200895" lon="8.820264554492322"><ele>258.0</ele><time>2026-04-11T09:17:21.999Z</time></trkpt><trkpt lat="40.65102853351788" lon="8.820390648869372"><ele>258.0</ele><time>2026-04-11T09:17:22.999Z</time></trkpt><trkpt lat="40.65111530301428" lon="8.82049458807589"><ele>258.0</ele><time>2026-04-11T09:17:23.999Z</time></trkpt><trkpt lat="40.65119023834446" lon="8.820604806955908"><ele>258.0</ele><time>2026-04-11T09:17:24.999Z</time></trkpt><trkpt lat="40.65126344054824" lon="8.820713438239883"><ele>259.0</ele><time>2026-04-11T09:17:25.999Z</time></trkpt><trkpt lat="40.651303419472036" lon="8.820837243904945"><ele>260.0</ele><time>2026-04-11T09:17:26.999Z</time></trkpt><trkpt lat="40.65133538042039" lon="8.820951596492002"><ele>261.0</ele><time>2026-04-11T09:17:27.999Z</time></trkpt><trkpt lat="40.651352741619164" lon="8.821057789834914"><ele>262.0</ele><time>2026-04-11T09:17:28.999Z</time></trkpt><trkpt lat="40.651357960864345" lon="8.821156712548621"><ele>263.0</ele><time>2026-04-11T09:17:29.999Z</time></trkpt><trkpt lat="40.65135648198058" lon="8.821245859041683"><ele>264.0</ele><time>2026-04-11T09:17:30.998Z</time></trkpt><trkpt lat="40.651340065214555" lon="8.821336738439273"><ele>264.0</ele><time>2026-04-11T09:17:31.998Z</time></trkpt><trkpt lat="40.65129946485354" lon="8.821444582134015"><ele>264.0</ele><time>2026-04-11T09:17:32.998Z</time></trkpt><trkpt lat="40.65124268129047" lon="8.821562875129462"><ele>264.0</ele><time>2026-04-11T09:17:33.998Z</time></trkpt><trkpt lat="40.65117770120707" lon="8.821690223602086"><ele>264.0</ele><time>2026-04-11T09:17:34.998Z</time></trkpt><trkpt lat="40.65111438536403" lon="8.821812440157506"><ele>264.0</ele><time>2026-04-11T09:17:35.998Z</time></trkpt><trkpt lat="40.65104905088489" lon="8.821925329127668"><ele>262.8</ele><time>2026-04-11T09:17:36.998Z</time></trkpt><trkpt lat="40.65098734468359" lon="8.82204188986421"><ele>261.59999999999997</ele><time>2026-04-11T09:17:37.998Z</time></trkpt><trkpt lat="40.65094126571175" lon="8.822165663966269"><ele>260.4</ele><time>2026-04-11T09:17:38.998Z</time></trkpt><trkpt lat="40.65091294111619" lon="8.82229149948162"><ele>259.2</ele><time>2026-04-11T09:17:39.998Z</time></trkpt><trkpt lat="40.65091083241245" lon="8.822435463797119"><ele>258.0</ele><time>2026-04-11T09:17:40.998Z</time></trkpt><trkpt lat="40.65092524196343" lon="8.822595296666108"><ele>258.25</ele><time>2026-04-11T09:17:41.998Z</time></trkpt><trkpt lat="40.65094175195829" lon="8.822758939402696"><ele>258.5</ele><time>2026-04-11T09:17:42.998Z</time></trkpt><trkpt lat="40.65095495508739" lon="8.822935570793792"><ele>258.75</ele><time>2026-04-11T09:17:43.998Z</time></trkpt><trkpt lat="40.65095074848555" lon="8.823122244780954"><ele>259.0</ele><time>2026-04-11T09:17:44.998Z</time></trkpt><trkpt lat="40.65095213374325" lon="8.823315962898505"><ele>259.66666666666663</ele><time>2026-04-11T09:17:45.998Z</time></trkpt><trkpt lat="40.650951544186206" lon="8.823519744938677"><ele>260.3333333333333</ele><time>2026-04-11T09:17:46.998Z</time></trkpt><trkpt lat="40.65095525169943" lon="8.823731152954997"><ele>261.0</ele><time>2026-04-11T09:17:47.998Z</time></trkpt><trkpt lat="40.65096095682034" lon="8.823946122717157"><ele>261.0</ele><time>2026-04-11T09:17:48.998Z</time></trkpt><trkpt lat="40.65097279186782" lon="8.82417923923121"><ele>261.0</ele><time>2026-04-11T09:17:49.998Z</time></trkpt><trkpt lat="40.65098961643184" lon="8.82441933911716"><ele>261.0</ele><time>2026-04-11T09:17:50.998Z</time></trkpt><trkpt lat="40.65101115152831" lon="8.82465794184191"><ele>260.6666666666667</ele><time>2026-04-11T09:17:51.998Z</time></trkpt><trkpt lat="40.651027873369834" lon="8.824869286181396"><ele>260.33333333333337</ele><time>2026-04-11T09:17:52.998Z</time></trkpt><trkpt lat="40.65104318588445" lon="8.825069672457241"><ele>260.0</ele><time>2026-04-11T09:17:53.998Z</time></trkpt><trkpt lat="40.65105985417666" lon="8.825270772865629"><ele>260.0</ele><time>2026-04-11T09:17:54.998Z</time></trkpt><trkpt lat="40.65107483174407" lon="8.82547395391294"><ele>260.0</ele><time>2026-04-11T09:17:55.998Z</time></trkpt><trkpt lat="40.651101491946946" lon="8.825647980660325"><ele>260.0</ele><time>2026-04-11T09:17:56.998Z</time></trkpt><trkpt lat="40.651103053045894" lon="8.825772174343097"><ele>260.0</ele><time>2026-04-11T09:17:57.998Z</time></trkpt><trkpt lat="40.65108482082223" lon="8.825862388851869"><ele>261.0</ele><time>2026-04-11T09:17:58.998Z</time></trkpt><trkpt lat="40.6511180146984" lon="8.82605581015591"><ele>262.0</ele><time>2026-04-11T09:18:00.998Z</time></trkpt><trkpt lat="40.65114063607713" lon="8.826191861397032"><ele>263.0</ele><time>2026-04-11T09:18:01.998Z</time></trkpt><trkpt lat="40.65118237371832" lon="8.826308303782776"><ele>264.0</ele><time>2026-04-11T09:18:02.998Z</time></trkpt><trkpt lat="40.651179158353905" lon="8.826463291743353"><ele>265.59999999999997</ele><time>2026-04-11T09:18:03.998Z</time></trkpt><trkpt lat="40.65117608246471" lon="8.826610986899949"><ele>267.2</ele><time>2026-04-11T09:18:04.998Z</time></trkpt><trkpt lat="40.65116321832038" lon="8.826748848366632"><ele>268.79999999999995</ele><time>2026-04-11T09:18:05.998Z</time></trkpt><trkpt lat="40.65114803408912" lon="8.82687536996419"><ele>270.4</ele><time>2026-04-11T09:18:06.998Z</time></trkpt><trkpt lat="40.65113377803873" lon="8.827017769848474"><ele>272.0</ele><time>2026-04-11T09:18:07.998Z</time></trkpt><trkpt lat="40.65115281423457" lon="8.827167392506045"><ele>272.6</ele><time>2026-04-11T09:18:08.998Z</time></trkpt><trkpt lat="40.6511617740029" lon="8.827304380601769"><ele>273.2</ele><time>2026-04-11T09:18:09.998Z</time></trkpt><trkpt lat="40.65114516158784" lon="8.827422973764595"><ele>273.8</ele><time>2026-04-11T09:18:10.998Z</time></trkpt><trkpt lat="40.65112627434" lon="8.827536544190412"><ele>274.4</ele><time>2026-04-11T09:18:11.998Z</time></trkpt><trkpt lat="40.65109354115199" lon="8.827640457056813"><ele>275.0</ele><time>2026-04-11T09:18:12.998Z</time></trkpt><trkpt lat="40.65104855784642" lon="8.827776973834641"><ele>272.75</ele><time>2026-04-11T09:18:13.998Z</time></trkpt><trkpt lat="40.65099184477955" lon="8.827941817776969"><ele>270.5</ele><time>2026-04-11T09:18:14.998Z</time></trkpt><trkpt lat="40.650930974203234" lon="8.828118569559887"><ele>268.25</ele><time>2026-04-11T09:18:15.998Z</time></trkpt><trkpt lat="40.65087766188566" lon="8.828297070728818"><ele>266.0</ele><time>2026-04-11T09:18:16.998Z</time></trkpt><trkpt lat="40.65082812874218" lon="8.828483087054234"><ele>264.75</ele><time>2026-04-11T09:18:17.998Z</time></trkpt><trkpt lat="40.65078805743835" lon="8.828640127686201"><ele>263.5</ele><time>2026-04-11T09:18:18.998Z</time></trkpt><trkpt lat="40.65074291558104" lon="8.828812644713338"><ele>262.25</ele><time>2026-04-11T09:18:19.998Z</time></trkpt><trkpt lat="40.65071130641833" lon="8.828980803041187"><ele>261.0</ele><time>2026-04-11T09:18:20.998Z</time></trkpt><trkpt lat="40.65064207567769" lon="8.82913719469713"><ele>261.0</ele><time>2026-04-11T09:18:21.998Z</time></trkpt><trkpt lat="40.65058117472254" lon="8.829298300732473"><ele>261.0</ele><time>2026-04-11T09:18:22.998Z</time></trkpt><trkpt lat="40.650533564994944" lon="8.829447013490265"><ele>261.0</ele><time>2026-04-11T09:18:23.998Z</time></trkpt><trkpt lat="40.650452566671916" lon="8.829568559052186"><ele>261.0</ele><time>2026-04-11T09:18:24.998Z</time></trkpt><trkpt lat="40.65037501459614" lon="8.829688025328906"><ele>260.25</ele><time>2026-04-11T09:18:25.998Z</time></trkpt><trkpt lat="40.65029985745947" lon="8.829827113133396"><ele>259.5</ele><time>2026-04-11T09:18:26.998Z</time></trkpt><trkpt lat="40.650196388300756" lon="8.829948565601402"><ele>258.75</ele><time>2026-04-11T09:18:27.998Z</time></trkpt><trkpt lat="40.65012757159726" lon="8.830094835518633"><ele>258.0</ele><time>2026-04-11T09:18:28.998Z</time></trkpt><trkpt lat="40.65005637188578" lon="8.830263523786861"><ele>257.0</ele><time>2026-04-11T09:18:29.998Z</time></trkpt><trkpt lat="40.649977139116615" lon="8.83041290772235"><ele>256.0</ele><time>2026-04-11T09:18:30.998Z</time></trkpt><trkpt lat="40.64990560994038" lon="8.830551455026193"><ele>255.0</ele><time>2026-04-11T09:18:31.998Z</time></trkpt><trkpt lat="40.64981755937579" lon="8.830700645705702"><ele>254.0</ele><time>2026-04-11T09:18:32.998Z</time></trkpt><trkpt lat="40.64975342037907" lon="8.830836644774735"><ele>254.0</ele><time>2026-04-11T09:18:33.998Z</time></trkpt><trkpt lat="40.64968104758314" lon="8.8309388229645"><ele>253.99999999999997</ele><time>2026-04-11T09:18:34.998Z</time></trkpt><trkpt lat="40.64957735935059" lon="8.831088574513041"><ele>253.99999999999997</ele><time>2026-04-11T09:18:36.998Z</time></trkpt><trkpt lat="40.64950807199162" lon="8.831133029483535"><ele>254.0</ele><time>2026-04-11T09:18:37.998Z</time></trkpt><trkpt lat="40.64940882676404" lon="8.831200572096503"><ele>254.0</ele><time>2026-04-11T09:18:39.998Z</time></trkpt><trkpt lat="40.64934909263212" lon="8.831233977325311"><ele>254.16666666666669</ele><time>2026-04-11T09:18:40.998Z</time></trkpt><trkpt lat="40.64928629424437" lon="8.831155409903575"><ele>254.33333333333334</ele><time>2026-04-11T09:18:42.998Z</time></trkpt><trkpt lat="40.64924159068253" lon="8.83101975788323"><ele>254.5</ele><time>2026-04-11T09:18:44.998Z</time></trkpt><trkpt lat="40.64921018896565" lon="8.830934429180855"><ele>254.66666666666669</ele><time>2026-04-11T09:18:45.998Z</time></trkpt><trkpt lat="40.64916608356921" lon="8.830874055644667"><ele>254.83333333333334</ele><time>2026-04-11T09:18:46.998Z</time></trkpt><trkpt lat="40.649074454431116" lon="8.830885519532107"><ele>255.0</ele><time>2026-04-11T09:18:48.998Z</time></trkpt><trkpt lat="40.649060618562935" lon="8.831015441690353"><ele>256.6666666666667</ele><time>2026-04-11T09:18:50.998Z</time></trkpt><trkpt lat="40.649077785618545" lon="8.831110499066321"><ele>258.3333333333333</ele><time>2026-04-11T09:18:51.998Z</time></trkpt><trkpt lat="40.64908044787624" lon="8.831200852006573"><ele>260.0</ele><time>2026-04-11T09:18:52.998Z</time></trkpt><trkpt lat="40.64909793822738" lon="8.83129328908577"><ele>261.66666666666663</ele><time>2026-04-11T09:18:53.998Z</time></trkpt><trkpt lat="40.649112631903186" lon="8.831449793770222"><ele>263.3333333333333</ele><time>2026-04-11T09:18:55.998Z</time></trkpt><trkpt lat="40.64910924484502" lon="8.831549880235645"><ele>265.0</ele><time>2026-04-11T09:18:56.998Z</time></trkpt><trkpt lat="40.64908813130428" lon="8.831685406150754"><ele>266.4</ele><time>2026-04-11T09:18:57.998Z</time></trkpt><trkpt lat="40.649061813043254" lon="8.831831055888998"><ele>267.8</ele><time>2026-04-11T09:18:58.998Z</time></trkpt><trkpt lat="40.64903951551972" lon="8.831991318872161"><ele>269.2</ele><time>2026-04-11T09:18:59.998Z</time></trkpt><trkpt lat="40.649024034014545" lon="8.83213642159172"><ele>270.6</ele><time>2026-04-11T09:19:00.998Z</time></trkpt><trkpt lat="40.64901190562661" lon="8.832266497550954"><ele>272.0</ele><time>2026-04-11T09:19:01.997Z</time></trkpt><trkpt lat="40.64900064197556" lon="8.83239782375015"><ele>272.0</ele><time>2026-04-11T09:19:02.997Z</time></trkpt><trkpt lat="40.64898926268628" lon="8.832555734344071"><ele>272.0</ele><time>2026-04-11T09:19:03.997Z</time></trkpt><trkpt lat="40.64898584726051" lon="8.832700604422286"><ele>272.0</ele><time>2026-04-11T09:19:04.997Z</time></trkpt><trkpt lat="40.64898434811584" lon="8.83283753733217"><ele>272.0</ele><time>2026-04-11T09:19:05.997Z</time></trkpt><trkpt lat="40.64900029205298" lon="8.832976109102672"><ele>272.0</ele><time>2026-04-11T09:19:06.997Z</time></trkpt><trkpt lat="40.649021154385565" lon="8.833111538124307"><ele>273.6</ele><time>2026-04-11T09:19:07.997Z</time></trkpt><trkpt lat="40.64903217729457" lon="8.833265011940659"><ele>275.2</ele><time>2026-04-11T09:19:08.997Z</time></trkpt><trkpt lat="40.64902632194919" lon="8.833406912295276"><ele>276.8</ele><time>2026-04-11T09:19:09.997Z</time></trkpt><trkpt lat="40.64901351918534" lon="8.83354313494572"><ele>278.4</ele><time>2026-04-11T09:19:10.997Z</time></trkpt><trkpt lat="40.64899759643177" lon="8.83369495282967"><ele>280.0</ele><time>2026-04-11T09:19:11.997Z</time></trkpt><trkpt lat="40.64898386912932" lon="8.833849764085295"><ele>282.25</ele><time>2026-04-11T09:19:12.997Z</time></trkpt><trkpt lat="40.64897872972385" lon="8.834015945989316"><ele>284.5</ele><time>2026-04-11T09:19:13.997Z</time></trkpt><trkpt lat="40.64897447061517" lon="8.83418513980377"><ele>286.75</ele><time>2026-04-11T09:19:14.997Z</time></trkpt><trkpt lat="40.64897402424792" lon="8.834342098164191"><ele>289.0</ele><time>2026-04-11T09:19:15.997Z</time></trkpt><trkpt lat="40.648980033515244" lon="8.834488257196366"><ele>290.4</ele><time>2026-04-11T09:19:16.997Z</time></trkpt><trkpt lat="40.64899306120667" lon="8.834640255356264"><ele>291.79999999999995</ele><time>2026-04-11T09:19:17.997Z</time></trkpt><trkpt lat="40.64900977538418" lon="8.834776823802653"><ele>293.20000000000005</ele><time>2026-04-11T09:19:18.997Z</time></trkpt><trkpt lat="40.64902659094298" lon="8.834926985102944"><ele>294.6</ele><time>2026-04-11T09:19:19.997Z</time></trkpt><trkpt lat="40.6490564082721" lon="8.83506283143381"><ele>296.0</ele><time>2026-04-11T09:19:20.997Z</time></trkpt><trkpt lat="40.64907500193438" lon="8.835212956408308"><ele>297.0</ele><time>2026-04-11T09:19:21.997Z</time></trkpt><trkpt lat="40.649074879233325" lon="8.835352247486659"><ele>298.0</ele><time>2026-04-11T09:19:22.997Z</time></trkpt><trkpt lat="40.64906522797047" lon="8.835509136534863"><ele>299.0</ele><time>2026-04-11T09:19:23.997Z</time></trkpt><trkpt lat="40.649052371711754" lon="8.835664248387213"><ele>300.0</ele><time>2026-04-11T09:19:24.997Z</time></trkpt><trkpt lat="40.64904437066897" lon="8.835851856180273"><ele>302.0</ele><time>2026-04-11T09:19:25.997Z</time></trkpt><trkpt lat="40.64903998777418" lon="8.836035103677162"><ele>304.0</ele><time>2026-04-11T09:19:26.997Z</time></trkpt><trkpt lat="40.649043104725955" lon="8.836211796374508"><ele>306.0</ele><time>2026-04-11T09:19:27.997Z</time></trkpt><trkpt lat="40.649039158459665" lon="8.836374838860335"><ele>308.0</ele><time>2026-04-11T09:19:28.997Z</time></trkpt><trkpt lat="40.64906224028721" lon="8.836563777529939"><ele>308.0</ele><time>2026-04-11T09:19:29.997Z</time></trkpt><trkpt lat="40.64908531267918" lon="8.836725292566674"><ele>308.0</ele><time>2026-04-11T09:19:30.997Z</time></trkpt><trkpt lat="40.649085814773336" lon="8.836866975776255"><ele>308.0</ele><time>2026-04-11T09:19:31.997Z</time></trkpt><trkpt lat="40.64910928043261" lon="8.837007489774825"><ele>308.0</ele><time>2026-04-11T09:19:32.997Z</time></trkpt><trkpt lat="40.64909986763229" lon="8.83714515473969"><ele>308.0</ele><time>2026-04-11T09:19:33.997Z</time></trkpt><trkpt lat="40.64909232333476" lon="8.837288746316624"><ele>309.0</ele><time>2026-04-11T09:19:34.997Z</time></trkpt><trkpt lat="40.649083010229766" lon="8.837441367343846"><ele>310.0</ele><time>2026-04-11T09:19:35.997Z</time></trkpt><trkpt lat="40.6490696620576" lon="8.837639851517883"><ele>311.0</ele><time>2026-04-11T09:19:36.997Z</time></trkpt><trkpt lat="40.64905336035626" lon="8.837820494236562"><ele>312.0</ele><time>2026-04-11T09:19:37.997Z</time></trkpt><trkpt lat="40.64902982532814" lon="8.837993522250072"><ele>313.75</ele><time>2026-04-11T09:19:38.997Z</time></trkpt><trkpt lat="40.64900305117633" lon="8.838158833275571"><ele>315.5</ele><time>2026-04-11T09:19:39.997Z</time></trkpt><trkpt lat="40.648978124900395" lon="8.838315298930919"><ele>317.25</ele><time>2026-04-11T09:19:40.997Z</time></trkpt><trkpt lat="40.64895627442051" lon="8.838482030798765"><ele>319.0</ele><time>2026-04-11T09:19:41.997Z</time></trkpt><trkpt lat="40.64893459330823" lon="8.838637992485225"><ele>320.0</ele><time>2026-04-11T09:19:42.997Z</time></trkpt><trkpt lat="40.64889788665414" lon="8.838812932541716"><ele>321.0</ele><time>2026-04-11T09:19:43.997Z</time></trkpt><trkpt lat="40.6488423583276" lon="8.839000998253317"><ele>322.0</ele><time>2026-04-11T09:19:44.997Z</time></trkpt><trkpt lat="40.648786055107955" lon="8.839189542481332"><ele>323.0</ele><time>2026-04-11T09:19:45.997Z</time></trkpt><trkpt lat="40.6487134570739" lon="8.83942518523595"><ele>321.75</ele><time>2026-04-11T09:19:46.997Z</time></trkpt><trkpt lat="40.64864804062367" lon="8.839632176910861"><ele>320.5</ele><time>2026-04-11T09:19:47.997Z</time></trkpt><trkpt lat="40.64859095015837" lon="8.839808466709442"><ele>319.25</ele><time>2026-04-11T09:19:48.997Z</time></trkpt><trkpt lat="40.648542080984974" lon="8.839957298955989"><ele>318.0</ele><time>2026-04-11T09:19:49.997Z</time></trkpt><trkpt lat="40.64848161558111" lon="8.840101228597883"><ele>319.3333333333333</ele><time>2026-04-11T09:19:50.997Z</time></trkpt><trkpt lat="40.64840914229129" lon="8.840245869492488"><ele>320.66666666666663</ele><time>2026-04-11T09:19:51.997Z</time></trkpt><trkpt lat="40.64832445925255" lon="8.84041602944236"><ele>322.0</ele><time>2026-04-11T09:19:52.997Z</time></trkpt><trkpt lat="40.64823072757843" lon="8.840595995076187"><ele>322.0</ele><time>2026-04-11T09:19:53.997Z</time></trkpt><trkpt lat="40.64813150328324" lon="8.840773294369804"><ele>322.0</ele><time>2026-04-11T09:19:54.997Z</time></trkpt><trkpt lat="40.6480260762122" lon="8.840959840721002"><ele>322.0</ele><time>2026-04-11T09:19:55.997Z</time></trkpt><trkpt lat="40.647935156943504" lon="8.84112911319265"><ele>323.25</ele><time>2026-04-11T09:19:56.997Z</time></trkpt><trkpt lat="40.64786338973802" lon="8.841284780866852"><ele>324.5</ele><time>2026-04-11T09:19:57.997Z</time></trkpt><trkpt lat="40.647789490699324" lon="8.841428707757602"><ele>325.75</ele><time>2026-04-11T09:19:58.997Z</time></trkpt><trkpt lat="40.64773289912787" lon="8.841583226640841"><ele>327.0</ele><time>2026-04-11T09:19:59.997Z</time></trkpt><trkpt lat="40.647664680202986" lon="8.841705059937352"><ele>327.0</ele><time>2026-04-11T09:20:00.997Z</time></trkpt><trkpt lat="40.64757392275132" lon="8.841812754756049"><ele>327.0</ele><time>2026-04-11T09:20:01.997Z</time></trkpt><trkpt lat="40.64745816490842" lon="8.841887738937846"><ele>327.0</ele><time>2026-04-11T09:20:02.997Z</time></trkpt><trkpt lat="40.64735886382923" lon="8.841994988004481"><ele>327.0</ele><time>2026-04-11T09:20:03.997Z</time></trkpt><trkpt lat="40.647234769682576" lon="8.842068536532514"><ele>327.0</ele><time>2026-04-11T09:20:04.997Z</time></trkpt><trkpt lat="40.647119731395385" lon="8.842159659931834"><ele>327.0</ele><time>2026-04-11T09:20:05.997Z</time></trkpt><trkpt lat="40.64700160034213" lon="8.842243310927907"><ele>327.0</ele><time>2026-04-11T09:20:06.997Z</time></trkpt><trkpt lat="40.64690229412744" lon="8.84231786427205"><ele>327.0</ele><time>2026-04-11T09:20:07.997Z</time></trkpt><trkpt lat="40.6468028102082" lon="8.842348851894801"><ele>325.6</ele><time>2026-04-11T09:20:08.997Z</time></trkpt><trkpt lat="40.64671670651746" lon="8.842382358915915"><ele>324.20000000000005</ele><time>2026-04-11T09:20:09.997Z</time></trkpt><trkpt lat="40.646642342847834" lon="8.842457323151866"><ele>322.8</ele><time>2026-04-11T09:20:10.997Z</time></trkpt><trkpt lat="40.64658846221928" lon="8.842562704325275"><ele>321.4</ele><time>2026-04-11T09:20:11.997Z</time></trkpt><trkpt lat="40.64654251564552" lon="8.84268546397433"><ele>320.0</ele><time>2026-04-11T09:20:12.997Z</time></trkpt><trkpt lat="40.646485399530896" lon="8.84282491220101"><ele>320.0</ele><time>2026-04-11T09:20:13.997Z</time></trkpt><trkpt lat="40.64648605838348" lon="8.842945776436995"><ele>320.0</ele><time>2026-04-11T09:20:14.997Z</time></trkpt><trkpt lat="40.64650060410746" lon="8.843070877050815"><ele>320.0</ele><time>2026-04-11T09:20:15.997Z</time></trkpt><trkpt lat="40.646497101580294" lon="8.84318774465833"><ele>320.0</ele><time>2026-04-11T09:20:16.997Z</time></trkpt><trkpt lat="40.64652221382643" lon="8.843327028901093"><ele>320.0</ele><time>2026-04-11T09:20:17.997Z</time></trkpt><trkpt lat="40.64656604122905" lon="8.843453780445094"><ele>319.8</ele><time>2026-04-11T09:20:18.997Z</time></trkpt><trkpt lat="40.64662432005722" lon="8.843582322687078"><ele>319.6</ele><time>2026-04-11T09:20:19.997Z</time></trkpt><trkpt lat="40.64667193329817" lon="8.84370159160171"><ele>319.4</ele><time>2026-04-11T09:20:20.997Z</time></trkpt><trkpt lat="40.64670725527255" lon="8.84382142392173"><ele>319.2</ele><time>2026-04-11T09:20:21.997Z</time></trkpt><trkpt lat="40.64672629902012" lon="8.843965250506225"><ele>319.0</ele><time>2026-04-11T09:20:22.997Z</time></trkpt><trkpt lat="40.646743348223296" lon="8.844110084555842"><ele>319.0</ele><time>2026-04-11T09:20:23.998Z</time></trkpt><trkpt lat="40.646756626261705" lon="8.844241717961935"><ele>319.0</ele><time>2026-04-11T09:20:24.998Z</time></trkpt><trkpt lat="40.646771902977896" lon="8.844386548369927"><ele>319.0</ele><time>2026-04-11T09:20:25.998Z</time></trkpt><trkpt lat="40.646788592584215" lon="8.844521910352341"><ele>319.0</ele><time>2026-04-11T09:20:26.998Z</time></trkpt><trkpt lat="40.6467963869578" lon="8.844629672663602"><ele>319.0</ele><time>2026-04-11T09:20:27.998Z</time></trkpt><trkpt lat="40.646792427733075" lon="8.844714968806311"><ele>319.0</ele><time>2026-04-11T09:20:28.998Z</time></trkpt><trkpt lat="40.64674285442333" lon="8.844894941068468"><ele>319.0</ele><time>2026-04-11T09:20:30.998Z</time></trkpt><trkpt lat="40.64668839732432" lon="8.845043613068187"><ele>319.0</ele><time>2026-04-11T09:20:31.998Z</time></trkpt><trkpt lat="40.646620755662425" lon="8.845223795404705"><ele>319.0</ele><time>2026-04-11T09:20:32.998Z</time></trkpt><trkpt lat="40.64655068957503" lon="8.845410334732772"><ele>318.66666666666663</ele><time>2026-04-11T09:20:33.997Z</time></trkpt><trkpt lat="40.64648198331457" lon="8.845603979016268"><ele>318.3333333333333</ele><time>2026-04-11T09:20:34.997Z</time></trkpt><trkpt lat="40.64641862527603" lon="8.845782292787307"><ele>318.0</ele><time>2026-04-11T09:20:35.997Z</time></trkpt><trkpt lat="40.64635548442717" lon="8.845957487533735"><ele>317.5</ele><time>2026-04-11T09:20:36.997Z</time></trkpt><trkpt lat="40.646302134857585" lon="8.846105819788857"><ele>317.0</ele><time>2026-04-11T09:20:37.997Z</time></trkpt><trkpt lat="40.64624053415822" lon="8.846298420465633"><ele>316.5</ele><time>2026-04-11T09:20:38.997Z</time></trkpt><trkpt lat="40.64618056077421" lon="8.84650128909223"><ele>316.0</ele><time>2026-04-11T09:20:39.997Z</time></trkpt><trkpt lat="40.6461255637799" lon="8.846701849147452"><ele>316.66666666666663</ele><time>2026-04-11T09:20:40.997Z</time></trkpt><trkpt lat="40.646073583190486" lon="8.846906177243465"><ele>317.3333333333333</ele><time>2026-04-11T09:20:41.997Z</time></trkpt><trkpt lat="40.646017122682125" lon="8.847099545568692"><ele>318.0</ele><time>2026-04-11T09:20:42.997Z</time></trkpt><trkpt lat="40.64594794461303" lon="8.847278621794167"><ele>318.0</ele><time>2026-04-11T09:20:43.997Z</time></trkpt><trkpt lat="40.64591032050845" lon="8.847450234286244"><ele>318.0</ele><time>2026-04-11T09:20:44.997Z</time></trkpt><trkpt lat="40.64586097010192" lon="8.847645784016937"><ele>318.0</ele><time>2026-04-11T09:20:45.997Z</time></trkpt><trkpt lat="40.64583751295541" lon="8.847796129626323"><ele>318.0</ele><time>2026-04-11T09:20:46.997Z</time></trkpt><trkpt lat="40.64584514289582" lon="8.84794531900784"><ele>318.4</ele><time>2026-04-11T09:20:47.997Z</time></trkpt><trkpt lat="40.64583842974924" lon="8.848079474190937"><ele>318.8</ele><time>2026-04-11T09:20:48.997Z</time></trkpt><trkpt lat="40.64586241786497" lon="8.848218410452192"><ele>319.2</ele><time>2026-04-11T09:20:49.997Z</time></trkpt><trkpt lat="40.64582490852224" lon="8.848373837522006"><ele>319.6</ele><time>2026-04-11T09:20:50.997Z</time></trkpt><trkpt lat="40.645798465764976" lon="8.848489716975054"><ele>320.0</ele><time>2026-04-11T09:20:51.997Z</time></trkpt><trkpt lat="40.64576769297169" lon="8.848653334865434"><ele>320.5</ele><time>2026-04-11T09:20:52.997Z</time></trkpt><trkpt lat="40.645711593379225" lon="8.848800355950413"><ele>321.0</ele><time>2026-04-11T09:20:53.997Z</time></trkpt><trkpt lat="40.64568376648908" lon="8.848939786404012"><ele>321.5</ele><time>2026-04-11T09:20:54.997Z</time></trkpt><trkpt lat="40.645665064089606" lon="8.849084063300786"><ele>322.0</ele><time>2026-04-11T09:20:55.997Z</time></trkpt><trkpt lat="40.64565938640534" lon="8.849227282942284"><ele>321.75</ele><time>2026-04-11T09:20:56.997Z</time></trkpt><trkpt lat="40.645671119902126" lon="8.849353884782593"><ele>321.5</ele><time>2026-04-11T09:20:57.997Z</time></trkpt><trkpt lat="40.64569917567748" lon="8.849491735819887"><ele>321.25</ele><time>2026-04-11T09:20:58.997Z</time></trkpt><trkpt lat="40.64575241097744" lon="8.84964586688529"><ele>321.0</ele><time>2026-04-11T09:20:59.997Z</time></trkpt><trkpt lat="40.645808621956604" lon="8.84978230987744"><ele>321.0</ele><time>2026-04-11T09:21:00.997Z</time></trkpt><trkpt lat="40.64585983024152" lon="8.8499446902777"><ele>321.0</ele><time>2026-04-11T09:21:01.997Z</time></trkpt><trkpt lat="40.64591997561494" lon="8.850130800346788"><ele>321.0</ele><time>2026-04-11T09:21:02.997Z</time></trkpt><trkpt lat="40.6459718974295" lon="8.850265457849629"><ele>321.0</ele><time>2026-04-11T09:21:03.997Z</time></trkpt><trkpt lat="40.64600469174234" lon="8.850376249989965"><ele>320.40000000000003</ele><time>2026-04-11T09:21:04.997Z</time></trkpt><trkpt lat="40.64601893431294" lon="8.850483026417345"><ele>319.8</ele><time>2026-04-11T09:21:05.997Z</time></trkpt><trkpt lat="40.64603043602807" lon="8.850629294379205"><ele>319.20000000000005</ele><time>2026-04-11T09:21:06.997Z</time></trkpt><trkpt lat="40.646041573721995" lon="8.850779336387928"><ele>318.6</ele><time>2026-04-11T09:21:07.997Z</time></trkpt><trkpt lat="40.646058944757975" lon="8.850945298121724"><ele>318.0</ele><time>2026-04-11T09:21:08.997Z</time></trkpt><trkpt lat="40.64607633510214" lon="8.851097833762779"><ele>317.75</ele><time>2026-04-11T09:21:09.997Z</time></trkpt><trkpt lat="40.64609811605521" lon="8.85126784386819"><ele>317.5</ele><time>2026-04-11T09:21:10.997Z</time></trkpt><trkpt lat="40.6461125874866" lon="8.851416774538684"><ele>317.25</ele><time>2026-04-11T09:21:11.997Z</time></trkpt><trkpt lat="40.64611528473729" lon="8.85159301818082"><ele>317.0</ele><time>2026-04-11T09:21:12.997Z</time></trkpt><trkpt lat="40.64610386825699" lon="8.851764068993909"><ele>317.25</ele><time>2026-04-11T09:21:13.997Z</time></trkpt><trkpt lat="40.64608202067947" lon="8.851961623835608"><ele>317.5</ele><time>2026-04-11T09:21:14.997Z</time></trkpt><trkpt lat="40.6460600577101" lon="8.852141291276746"><ele>317.75</ele><time>2026-04-11T09:21:15.997Z</time></trkpt><trkpt lat="40.6460387349101" lon="8.852319553855258"><ele>318.0</ele><time>2026-04-11T09:21:16.997Z</time></trkpt><trkpt lat="40.6460295715623" lon="8.852463902568081"><ele>318.0</ele><time>2026-04-11T09:21:17.997Z</time></trkpt><trkpt lat="40.6460497425333" lon="8.85260216416487"><ele>318.0</ele><time>2026-04-11T09:21:18.997Z</time></trkpt><trkpt lat="40.6460932453997" lon="8.85271772279878"><ele>318.0</ele><time>2026-04-11T09:21:19.997Z</time></trkpt><trkpt lat="40.64615118860735" lon="8.85280538318595"><ele>318.0</ele><time>2026-04-11T09:21:20.997Z</time></trkpt><trkpt lat="40.64619389566664" lon="8.852908404783449"><ele>318.0</ele><time>2026-04-11T09:21:21.997Z</time></trkpt><trkpt lat="40.6462487639121" lon="8.853043413390422"><ele>318.0</ele><time>2026-04-11T09:21:22.997Z</time></trkpt><trkpt lat="40.64635478217252" lon="8.853140266126374"><ele>318.0</ele><time>2026-04-11T09:21:23.997Z</time></trkpt><trkpt lat="40.64645317737388" lon="8.853264423614252"><ele>318.0</ele><time>2026-04-11T09:21:24.997Z</time></trkpt><trkpt lat="40.64654527219486" lon="8.853378821865654"><ele>318.0</ele><time>2026-04-11T09:21:25.997Z</time></trkpt><trkpt lat="40.646642198098895" lon="8.853497162493031"><ele>318.25</ele><time>2026-04-11T09:21:26.997Z</time></trkpt><trkpt lat="40.64673563186216" lon="8.853608805609422"><ele>318.5</ele><time>2026-04-11T09:21:27.997Z</time></trkpt><trkpt lat="40.64682715371614" lon="8.853693852215809"><ele>318.75</ele><time>2026-04-11T09:21:28.997Z</time></trkpt><trkpt lat="40.64691502424585" lon="8.853790526978221"><ele>319.0</ele><time>2026-04-11T09:21:29.997Z</time></trkpt><trkpt lat="40.64703669783626" lon="8.853891685963745"><ele>317.75</ele><time>2026-04-11T09:21:30.997Z</time></trkpt><trkpt lat="40.647160188697455" lon="8.853981183279588"><ele>316.5</ele><time>2026-04-11T09:21:31.997Z</time></trkpt><trkpt lat="40.647261903118135" lon="8.854059798304954"><ele>315.25</ele><time>2026-04-11T09:21:32.997Z</time></trkpt><trkpt lat="40.64735155838239" lon="8.854153719596361"><ele>314.0</ele><time>2026-04-11T09:21:33.997Z</time></trkpt><trkpt lat="40.64748019679933" lon="8.854259319174082"><ele>314.25</ele><time>2026-04-11T09:21:34.997Z</time></trkpt><trkpt lat="40.647607692173544" lon="8.854362224477471"><ele>314.5</ele><time>2026-04-11T09:21:35.997Z</time></trkpt><trkpt lat="40.64773376956021" lon="8.85447251953992"><ele>314.75</ele><time>2026-04-11T09:21:36.997Z</time></trkpt><trkpt lat="40.64783689306299" lon="8.854597646163464"><ele>315.0</ele><time>2026-04-11T09:21:37.997Z</time></trkpt><trkpt lat="40.647951972905155" lon="8.854661415300624"><ele>314.25</ele><time>2026-04-11T09:21:38.997Z</time></trkpt><trkpt lat="40.6480397102031" lon="8.854767665695313"><ele>313.5</ele><time>2026-04-11T09:21:39.997Z</time></trkpt><trkpt lat="40.64814546815061" lon="8.854851578084224"><ele>312.75</ele><time>2026-04-11T09:21:40.997Z</time></trkpt><trkpt lat="40.648250355196275" lon="8.854920043942103"><ele>312.0</ele><time>2026-04-11T09:21:41.997Z</time></trkpt><trkpt lat="40.64834416423976" lon="8.855026236884969"><ele>312.0</ele><time>2026-04-11T09:21:42.997Z</time></trkpt><trkpt lat="40.6484624007437" lon="8.855095159961898"><ele>312.0</ele><time>2026-04-11T09:21:43.997Z</time></trkpt><trkpt lat="40.64857567468867" lon="8.855207623803416"><ele>312.0</ele><time>2026-04-11T09:21:44.997Z</time></trkpt><trkpt lat="40.64868789143681" lon="8.855305625079465"><ele>312.0</ele><time>2026-04-11T09:21:45.997Z</time></trkpt><trkpt lat="40.64880631169631" lon="8.855390551281598"><ele>313.0</ele><time>2026-04-11T09:21:46.997Z</time></trkpt><trkpt lat="40.648938292727" lon="8.855474616188816"><ele>314.0</ele><time>2026-04-11T09:21:47.997Z</time></trkpt><trkpt lat="40.64908254815906" lon="8.85554849397828"><ele>315.0</ele><time>2026-04-11T09:21:48.997Z</time></trkpt><trkpt lat="40.64919555824198" lon="8.855655982815883"><ele>316.0</ele><time>2026-04-11T09:21:49.997Z</time></trkpt><trkpt lat="40.649309201994534" lon="8.855755929103514"><ele>316.0</ele><time>2026-04-11T09:21:50.997Z</time></trkpt><trkpt lat="40.64942464659899" lon="8.85584310815665"><ele>316.0</ele><time>2026-04-11T09:21:51.997Z</time></trkpt><trkpt lat="40.64952436621119" lon="8.855909750195238"><ele>316.0</ele><time>2026-04-11T09:21:52.997Z</time></trkpt><trkpt lat="40.64961203974636" lon="8.855977129532787"><ele>316.0</ele><time>2026-04-11T09:21:53.997Z</time></trkpt><trkpt lat="40.64967948055006" lon="8.856066978329789"><ele>316.0</ele><time>2026-04-11T09:21:54.997Z</time></trkpt><trkpt lat="40.64976932708736" lon="8.856183240064386"><ele>317.25</ele><time>2026-04-11T09:21:55.997Z</time></trkpt><trkpt lat="40.649853526998825" lon="8.856278573145056"><ele>318.5</ele><time>2026-04-11T09:21:56.997Z</time></trkpt><trkpt lat="40.64995091558908" lon="8.856383899364182"><ele>319.75</ele><time>2026-04-11T09:21:57.997Z</time></trkpt><trkpt lat="40.65002352759439" lon="8.856459571784757"><ele>321.0</ele><time>2026-04-11T09:21:58.997Z</time></trkpt><trkpt lat="40.65012676610486" lon="8.856561626239385"><ele>321.0</ele><time>2026-04-11T09:21:59.997Z</time></trkpt><trkpt lat="40.65021901639372" lon="8.856660942436381"><ele>321.0</ele><time>2026-04-11T09:22:00.997Z</time></trkpt><trkpt lat="40.650292603166854" lon="8.856742756398866"><ele>321.0</ele><time>2026-04-11T09:22:01.997Z</time></trkpt><trkpt lat="40.650367060772545" lon="8.856819599697978"><ele>321.0</ele><time>2026-04-11T09:22:02.997Z</time></trkpt><trkpt lat="40.65047361029988" lon="8.856916046599345"><ele>321.0</ele><time>2026-04-11T09:22:03.997Z</time></trkpt><trkpt lat="40.65059926131795" lon="8.857007817592015"><ele>319.2</ele><time>2026-04-11T09:22:04.997Z</time></trkpt><trkpt lat="40.65071792762483" lon="8.857076556279942"><ele>317.40000000000003</ele><time>2026-04-11T09:22:05.996Z</time></trkpt><trkpt lat="40.650797237317974" lon="8.857122055910045"><ele>315.6</ele><time>2026-04-11T09:22:06.996Z</time></trkpt><trkpt lat="40.65089995464617" lon="8.85718189557119"><ele>313.8</ele><time>2026-04-11T09:22:07.996Z</time></trkpt><trkpt lat="40.65100254261908" lon="8.85724551760643"><ele>312.0</ele><time>2026-04-11T09:22:08.996Z</time></trkpt><trkpt lat="40.65110116473894" lon="8.857321897496089"><ele>311.25</ele><time>2026-04-11T09:22:09.996Z</time></trkpt><trkpt lat="40.65120957696559" lon="8.857414778716041"><ele>310.5</ele><time>2026-04-11T09:22:10.996Z</time></trkpt><trkpt lat="40.65130450743278" lon="8.857496109553459"><ele>309.75</ele><time>2026-04-11T09:22:11.996Z</time></trkpt><trkpt lat="40.65139235377929" lon="8.857572064094207"><ele>309.0</ele><time>2026-04-11T09:22:12.996Z</time></trkpt><trkpt lat="40.651481882226534" lon="8.857654936666297"><ele>308.5</ele><time>2026-04-11T09:22:13.996Z</time></trkpt><trkpt lat="40.65157810602945" lon="8.857756334707004"><ele>308.0</ele><time>2026-04-11T09:22:14.996Z</time></trkpt><trkpt lat="40.651655878152326" lon="8.857848113438882"><ele>307.5</ele><time>2026-04-11T09:22:15.996Z</time></trkpt><trkpt lat="40.651768152220704" lon="8.857967472064127"><ele>307.0</ele><time>2026-04-11T09:22:16.996Z</time></trkpt><trkpt lat="40.65188022422642" lon="8.858069266575889"><ele>306.5</ele><time>2026-04-11T09:22:17.996Z</time></trkpt><trkpt lat="40.651991655043005" lon="8.858162504039552"><ele>306.0</ele><time>2026-04-11T09:22:18.996Z</time></trkpt><trkpt lat="40.65209632152716" lon="8.858246397849607"><ele>305.5</ele><time>2026-04-11T09:22:19.996Z</time></trkpt><trkpt lat="40.652219437812825" lon="8.858339424514655"><ele>305.0</ele><time>2026-04-11T09:22:20.996Z</time></trkpt><trkpt lat="40.6523317991559" lon="8.858415452536374"><ele>304.5</ele><time>2026-04-11T09:22:21.996Z</time></trkpt><trkpt lat="40.65245670046819" lon="8.858462223359373"><ele>304.0</ele><time>2026-04-11T09:22:22.996Z</time></trkpt><trkpt lat="40.652565643803065" lon="8.858480719102298"><ele>303.5</ele><time>2026-04-11T09:22:23.996Z</time></trkpt><trkpt lat="40.65267990136535" lon="8.858488411847999"><ele>303.0</ele><time>2026-04-11T09:22:24.996Z</time></trkpt><trkpt lat="40.652784471857075" lon="8.858509219015327"><ele>303.3333333333333</ele><time>2026-04-11T09:22:25.996Z</time></trkpt><trkpt lat="40.652845248770866" lon="8.858539992843198"><ele>303.6666666666667</ele><time>2026-04-11T09:22:27Z</time></trkpt><trkpt lat="40.65292044451545" lon="8.858586860940001"><ele>304.0</ele><time>2026-04-11T09:22:28Z</time></trkpt><trkpt lat="40.65298405635248" lon="8.858653069698946"><ele>304.33333333333337</ele><time>2026-04-11T09:22:29Z</time></trkpt><trkpt lat="40.653067579165196" lon="8.858735052985361"><ele>304.6666666666667</ele><time>2026-04-11T09:22:30Z</time></trkpt><trkpt lat="40.653137813921475" lon="8.858817615074367"><ele>305.0</ele><time>2026-04-11T09:22:31Z</time></trkpt><trkpt lat="40.65319478880861" lon="8.858899298662767"><ele>305.0</ele><time>2026-04-11T09:22:32Z</time></trkpt><trkpt lat="40.653240869959994" lon="8.859001139435238"><ele>305.0</ele><time>2026-04-11T09:22:33Z</time></trkpt><trkpt lat="40.653275728595496" lon="8.859165187101445"><ele>305.0</ele><time>2026-04-11T09:22:34Z</time></trkpt><trkpt lat="40.65330343160098" lon="8.859319841228048"><ele>305.0</ele><time>2026-04-11T09:22:35Z</time></trkpt><trkpt lat="40.65334706403755" lon="8.859537925181204"><ele>303.5</ele><time>2026-04-11T09:22:36Z</time></trkpt><trkpt lat="40.65339168406903" lon="8.859724022492635"><ele>302.0</ele><time>2026-04-11T09:22:37Z</time></trkpt><trkpt lat="40.65343030265713" lon="8.859909224108609"><ele>300.5</ele><time>2026-04-11T09:22:38Z</time></trkpt><trkpt lat="40.65346318711113" lon="8.860106423343954"><ele>299.0</ele><time>2026-04-11T09:22:39Z</time></trkpt><trkpt lat="40.65348636472875" lon="8.860287346354506"><ele>298.5</ele><time>2026-04-11T09:22:40Z</time></trkpt><trkpt lat="40.65349716118186" lon="8.860456320400104"><ele>298.0</ele><time>2026-04-11T09:22:41Z</time></trkpt><trkpt lat="40.65349096908877" lon="8.860591669285007"><ele>297.5</ele><time>2026-04-11T09:22:42Z</time></trkpt><trkpt lat="40.65347992812075" lon="8.860752701654222"><ele>297.0</ele><time>2026-04-11T09:22:43Z</time></trkpt><trkpt lat="40.65345468782995" lon="8.86095950634267"><ele>296.6666666666667</ele><time>2026-04-11T09:22:44Z</time></trkpt><trkpt lat="40.65342458956229" lon="8.861169471472193"><ele>296.33333333333337</ele><time>2026-04-11T09:22:45Z</time></trkpt><trkpt lat="40.653391855548485" lon="8.861382281603941"><ele>296.0</ele><time>2026-04-11T09:22:46Z</time></trkpt><trkpt lat="40.65336135347838" lon="8.861577017412912"><ele>296.0</ele><time>2026-04-11T09:22:47Z</time></trkpt><trkpt lat="40.6533389360298" lon="8.861768509390078"><ele>296.0</ele><time>2026-04-11T09:22:48Z</time></trkpt><trkpt lat="40.65332617416489" lon="8.861961938074087"><ele>296.0</ele><time>2026-04-11T09:22:49Z</time></trkpt><trkpt lat="40.65330978014525" lon="8.862154404202233"><ele>296.0</ele><time>2026-04-11T09:22:50Z</time></trkpt><trkpt lat="40.65329040146186" lon="8.86235233352053"><ele>295.75</ele><time>2026-04-11T09:22:51Z</time></trkpt><trkpt lat="40.653272657688085" lon="8.862543335193973"><ele>295.5</ele><time>2026-04-11T09:22:52Z</time></trkpt><trkpt lat="40.65325391519807" lon="8.86272924654636"><ele>295.25</ele><time>2026-04-11T09:22:53Z</time></trkpt><trkpt lat="40.65322863113566" lon="8.862913910261824"><ele>295.0</ele><time>2026-04-11T09:22:54Z</time></trkpt><trkpt lat="40.653202263773814" lon="8.863091026469055"><ele>294.75</ele><time>2026-04-11T09:22:55Z</time></trkpt><trkpt lat="40.65317653720404" lon="8.863262979461329"><ele>294.5</ele><time>2026-04-11T09:22:56Z</time></trkpt><trkpt lat="40.6531476641525" lon="8.863442032015147"><ele>294.25</ele><time>2026-04-11T09:22:57Z</time></trkpt><trkpt lat="40.65311310405383" lon="8.863623494118347"><ele>294.0</ele><time>2026-04-11T09:22:58Z</time></trkpt><trkpt lat="40.65307517964343" lon="8.863809080555628"><ele>293.5</ele><time>2026-04-11T09:22:59Z</time></trkpt><trkpt lat="40.65304337648326" lon="8.863981173171855"><ele>293.0</ele><time>2026-04-11T09:23:00Z</time></trkpt><trkpt lat="40.653024135458814" lon="8.86416617249888"><ele>292.5</ele><time>2026-04-11T09:23:01Z</time></trkpt><trkpt lat="40.653011951970235" lon="8.864366513962642"><ele>292.0</ele><time>2026-04-11T09:23:02Z</time></trkpt><trkpt lat="40.653011512819944" lon="8.864535045233945"><ele>292.0</ele><time>2026-04-11T09:23:03Z</time></trkpt><trkpt lat="40.65302797885337" lon="8.864723023867704"><ele>292.0</ele><time>2026-04-11T09:23:04Z</time></trkpt><trkpt lat="40.65304555155931" lon="8.864920678230856"><ele>292.0</ele><time>2026-04-11T09:23:05Z</time></trkpt><trkpt lat="40.65306084521791" lon="8.865141004945642"><ele>292.5</ele><time>2026-04-11T09:23:06Z</time></trkpt><trkpt lat="40.653068146178995" lon="8.865336850434838"><ele>293.0</ele><time>2026-04-11T09:23:07Z</time></trkpt><trkpt lat="40.65308356569475" lon="8.865519769111526"><ele>293.5</ele><time>2026-04-11T09:23:08Z</time></trkpt><trkpt lat="40.65311909063204" lon="8.865726710068442"><ele>294.0</ele><time>2026-04-11T09:23:09Z</time></trkpt><trkpt lat="40.653120959283996" lon="8.865892889626274"><ele>294.0</ele><time>2026-04-11T09:23:10Z</time></trkpt><trkpt lat="40.653095128419515" lon="8.866047458614021"><ele>294.0</ele><time>2026-04-11T09:23:11Z</time></trkpt><trkpt lat="40.65307005295367" lon="8.866230352853497"><ele>294.0</ele><time>2026-04-11T09:23:12Z</time></trkpt><trkpt lat="40.653049522364064" lon="8.866412096543183"><ele>294.0</ele><time>2026-04-11T09:23:13Z</time></trkpt><trkpt lat="40.65304996179318" lon="8.866602595350585"><ele>294.0</ele><time>2026-04-11T09:23:14Z</time></trkpt><trkpt lat="40.653048444677744" lon="8.86681261801022"><ele>294.0</ele><time>2026-04-11T09:23:15Z</time></trkpt><trkpt lat="40.653037454897955" lon="8.867003707660796"><ele>294.0</ele><time>2026-04-11T09:23:16Z</time></trkpt><trkpt lat="40.65306054829636" lon="8.86721569683465"><ele>294.0</ele><time>2026-04-11T09:23:17Z</time></trkpt><trkpt lat="40.65308070075157" lon="8.867415331612388"><ele>294.0</ele><time>2026-04-11T09:23:18Z</time></trkpt><trkpt lat="40.65310140764513" lon="8.867611665906345"><ele>294.0</ele><time>2026-04-11T09:23:19Z</time></trkpt><trkpt lat="40.65310762083879" lon="8.86784611666586"><ele>293.8</ele><time>2026-04-11T09:23:20Z</time></trkpt><trkpt lat="40.65310741409055" lon="8.868019385275344"><ele>293.59999999999997</ele><time>2026-04-11T09:23:21Z</time></trkpt><trkpt lat="40.653125033943816" lon="8.868166083576355"><ele>293.4</ele><time>2026-04-11T09:23:22Z</time></trkpt><trkpt lat="40.65314095661567" lon="8.868299942095222"><ele>293.2</ele><time>2026-04-11T09:23:23Z</time></trkpt><trkpt lat="40.65314534205673" lon="8.86843416234437"><ele>293.0</ele><time>2026-04-11T09:23:24Z</time></trkpt><trkpt lat="40.653123797913" lon="8.868544034323824"><ele>293.5</ele><time>2026-04-11T09:23:25Z</time></trkpt><trkpt lat="40.653125833735395" lon="8.868688744117053"><ele>294.0</ele><time>2026-04-11T09:23:26Z</time></trkpt><trkpt lat="40.65311648832817" lon="8.868846503057"><ele>294.5</ele><time>2026-04-11T09:23:27Z</time></trkpt><trkpt lat="40.653080888906146" lon="8.869028397083742"><ele>295.0</ele><time>2026-04-11T09:23:28Z</time></trkpt><trkpt lat="40.65303216693854" lon="8.869222458087965"><ele>295.3333333333333</ele><time>2026-04-11T09:23:29Z</time></trkpt><trkpt lat="40.65298911197777" lon="8.869411815181808"><ele>295.6666666666667</ele><time>2026-04-11T09:23:30Z</time></trkpt><trkpt lat="40.65294983730374" lon="8.86961546140347"><ele>296.0</ele><time>2026-04-11T09:23:31Z</time></trkpt><trkpt lat="40.65291655997424" lon="8.869815200539545"><ele>296.0</ele><time>2026-04-11T09:23:32Z</time></trkpt><trkpt lat="40.65289313392309" lon="8.870010060277139"><ele>296.0</ele><time>2026-04-11T09:23:33Z</time></trkpt><trkpt lat="40.65289314555081" lon="8.870198044899238"><ele>296.0</ele><time>2026-04-11T09:23:34Z</time></trkpt><trkpt lat="40.65288556309107" lon="8.870384846055218"><ele>296.0</ele><time>2026-04-11T09:23:35Z</time></trkpt><trkpt lat="40.652845047193196" lon="8.870568544041419"><ele>297.0</ele><time>2026-04-11T09:23:36Z</time></trkpt><trkpt lat="40.652796195428515" lon="8.870740913216347"><ele>298.0</ele><time>2026-04-11T09:23:37Z</time></trkpt><trkpt lat="40.65273619863461" lon="8.870944786928622"><ele>299.0</ele><time>2026-04-11T09:23:38Z</time></trkpt><trkpt lat="40.65268111736892" lon="8.871140880292993"><ele>299.25</ele><time>2026-04-11T09:23:39Z</time></trkpt><trkpt lat="40.65263355837004" lon="8.871324940221218"><ele>299.5</ele><time>2026-04-11T09:23:40Z</time></trkpt><trkpt lat="40.65259557480007" lon="8.871496749779144"><ele>299.75</ele><time>2026-04-11T09:23:41Z</time></trkpt><trkpt lat="40.65253499903022" lon="8.87161435515251"><ele>300.0</ele><time>2026-04-11T09:23:42Z</time></trkpt><trkpt lat="40.65245802372866" lon="8.871729302187964"><ele>300.3333333333333</ele><time>2026-04-11T09:23:43Z</time></trkpt><trkpt lat="40.652366526618444" lon="8.871869136895722"><ele>300.66666666666663</ele><time>2026-04-11T09:23:44Z</time></trkpt><trkpt lat="40.65227744247414" lon="8.872061039451339"><ele>301.0</ele><time>2026-04-11T09:23:45Z</time></trkpt><trkpt lat="40.6522026392729" lon="8.872251268603577"><ele>301.0</ele><time>2026-04-11T09:23:46Z</time></trkpt><trkpt lat="40.65213920873908" lon="8.872408426949677"><ele>301.0</ele><time>2026-04-11T09:23:47Z</time></trkpt><trkpt lat="40.6520760402326" lon="8.872543570664856"><ele>301.0</ele><time>2026-04-11T09:23:48Z</time></trkpt><trkpt lat="40.651994270023344" lon="8.872719822622445"><ele>301.0</ele><time>2026-04-11T09:23:49Z</time></trkpt><trkpt lat="40.65192487379732" lon="8.87287927176765"><ele>299.0</ele><time>2026-04-11T09:23:50Z</time></trkpt><trkpt lat="40.651831505042324" lon="8.873039884873725"><ele>297.0</ele><time>2026-04-11T09:23:51Z</time></trkpt><trkpt lat="40.651735691942" lon="8.873204283203872"><ele>295.0</ele><time>2026-04-11T09:23:52Z</time></trkpt><trkpt lat="40.65164703663615" lon="8.873360769085593"><ele>295.25</ele><time>2026-04-11T09:23:53Z</time></trkpt><trkpt lat="40.65155754389423" lon="8.873512194410827"><ele>295.5</ele><time>2026-04-11T09:23:54Z</time></trkpt><trkpt lat="40.6514714967359" lon="8.873668973691265"><ele>295.75</ele><time>2026-04-11T09:23:55Z</time></trkpt><trkpt lat="40.65139542450799" lon="8.87382253714443"><ele>296.0</ele><time>2026-04-11T09:23:56Z</time></trkpt><trkpt lat="40.65132542756696" lon="8.87395948775979"><ele>296.0</ele><time>2026-04-11T09:23:57Z</time></trkpt><trkpt lat="40.65122958951247" lon="8.8740824165784"><ele>296.0</ele><time>2026-04-11T09:23:58Z</time></trkpt><trkpt lat="40.65113435346818" lon="8.874177854771073"><ele>296.0</ele><time>2026-04-11T09:23:59Z</time></trkpt><trkpt lat="40.65104962613959" lon="8.874266089095036"><ele>296.0</ele><time>2026-04-11T09:24:00Z</time></trkpt><trkpt lat="40.65095078665713" lon="8.874356734802936"><ele>294.5</ele><time>2026-04-11T09:24:01Z</time></trkpt><trkpt lat="40.65084451202423" lon="8.87444994044332"><ele>293.0</ele><time>2026-04-11T09:24:02Z</time></trkpt><trkpt lat="40.65075114594225" lon="8.874529382365553"><ele>291.5</ele><time>2026-04-11T09:24:03Z</time></trkpt><trkpt lat="40.65064597291667" lon="8.87458663427507"><ele>290.0</ele><time>2026-04-11T09:24:04Z</time></trkpt><trkpt lat="40.65057637403552" lon="8.87470620610316"><ele>290.0</ele><time>2026-04-11T09:24:05Z</time></trkpt><trkpt lat="40.65050964759878" lon="8.874820356393782"><ele>290.0</ele><time>2026-04-11T09:24:06Z</time></trkpt><trkpt lat="40.6504366155987" lon="8.874940442718344"><ele>290.0</ele><time>2026-04-11T09:24:07Z</time></trkpt><trkpt lat="40.65033115750732" lon="8.875102159071806"><ele>290.0</ele><time>2026-04-11T09:24:07.999Z</time></trkpt><trkpt lat="40.650230274161665" lon="8.87522299471954"><ele>289.0</ele><time>2026-04-11T09:24:08.999Z</time></trkpt><trkpt lat="40.65015703616254" lon="8.875387505646957"><ele>288.0</ele><time>2026-04-11T09:24:09.999Z</time></trkpt><trkpt lat="40.650076345869174" lon="8.875525206964253"><ele>287.0</ele><time>2026-04-11T09:24:10.999Z</time></trkpt><trkpt lat="40.650014532473904" lon="8.875689680229627"><ele>286.0</ele><time>2026-04-11T09:24:11.999Z</time></trkpt><trkpt lat="40.64994630113501" lon="8.87582423258801"><ele>286.75</ele><time>2026-04-11T09:24:12.999Z</time></trkpt><trkpt lat="40.64989464741249" lon="8.875984688235715"><ele>287.5</ele><time>2026-04-11T09:24:13.999Z</time></trkpt><trkpt lat="40.649843784546015" lon="8.876109628781851"><ele>288.25</ele><time>2026-04-11T09:24:14.999Z</time></trkpt><trkpt lat="40.64981938957148" lon="8.876286622357956"><ele>289.0</ele><time>2026-04-11T09:24:15.999Z</time></trkpt><trkpt lat="40.649766992013326" lon="8.87647163049137"><ele>289.0</ele><time>2026-04-11T09:24:16.999Z</time></trkpt><trkpt lat="40.64972477601301" lon="8.876622223566603"><ele>289.0</ele><time>2026-04-11T09:24:17.999Z</time></trkpt><trkpt lat="40.64967652316446" lon="8.87678469177773"><ele>289.0</ele><time>2026-04-11T09:24:18.999Z</time></trkpt><trkpt lat="40.64960112447321" lon="8.876906194183936"><ele>289.0</ele><time>2026-04-11T09:24:19.999Z</time></trkpt><trkpt lat="40.64952533639664" lon="8.877022275120483"><ele>287.25</ele><time>2026-04-11T09:24:20.999Z</time></trkpt><trkpt lat="40.64945221405289" lon="8.877143696415414"><ele>285.5</ele><time>2026-04-11T09:24:21.999Z</time></trkpt><trkpt lat="40.64937861963292" lon="8.877268002413375"><ele>283.75</ele><time>2026-04-11T09:24:22.999Z</time></trkpt><trkpt lat="40.64930769306085" lon="8.877382135702591"><ele>282.0</ele><time>2026-04-11T09:24:23.999Z</time></trkpt><trkpt lat="40.6492356193493" lon="8.877478503580578"><ele>282.0</ele><time>2026-04-11T09:24:24.999Z</time></trkpt><trkpt lat="40.64914184504392" lon="8.877597896527487"><ele>282.0</ele><time>2026-04-11T09:24:25.999Z</time></trkpt><trkpt lat="40.649054324175296" lon="8.87770302913398"><ele>282.0</ele><time>2026-04-11T09:24:26.999Z</time></trkpt><trkpt lat="40.64897554432804" lon="8.87783690797465"><ele>282.0</ele><time>2026-04-11T09:24:27.999Z</time></trkpt><trkpt lat="40.64889103307385" lon="8.877966986208948"><ele>282.5</ele><time>2026-04-11T09:24:28.999Z</time></trkpt><trkpt lat="40.64879376138656" lon="8.878035959926203"><ele>283.0</ele><time>2026-04-11T09:24:29.999Z</time></trkpt><trkpt lat="40.64870957758116" lon="8.878117592482077"><ele>283.5</ele><time>2026-04-11T09:24:30.999Z</time></trkpt><trkpt lat="40.64863468206281" lon="8.878209716383326"><ele>284.0</ele><time>2026-04-11T09:24:31.999Z</time></trkpt><trkpt lat="40.6485467491753" lon="8.878350777544831"><ele>281.75</ele><time>2026-04-11T09:24:32.999Z</time></trkpt><trkpt lat="40.648458043331196" lon="8.878469727952135"><ele>279.5</ele><time>2026-04-11T09:24:33.999Z</time></trkpt><trkpt lat="40.64837327428215" lon="8.878629781020663"><ele>277.25</ele><time>2026-04-11T09:24:34.999Z</time></trkpt><trkpt lat="40.64828552365324" lon="8.878781292600294"><ele>275.0</ele><time>2026-04-11T09:24:35.999Z</time></trkpt><trkpt lat="40.64819664219712" lon="8.87896102333233"><ele>275.0</ele><time>2026-04-11T09:24:36.999Z</time></trkpt><trkpt lat="40.64813901016516" lon="8.879129926171226"><ele>275.0</ele><time>2026-04-11T09:24:37.999Z</time></trkpt><trkpt lat="40.648101238195515" lon="8.879316606229"><ele>275.0</ele><time>2026-04-11T09:24:38.999Z</time></trkpt><trkpt lat="40.64807172647554" lon="8.879509800536814"><ele>275.0</ele><time>2026-04-11T09:24:39.999Z</time></trkpt><trkpt lat="40.6480089675246" lon="8.879663230576936"><ele>275.5</ele><time>2026-04-11T09:24:40.999Z</time></trkpt><trkpt lat="40.647933504410545" lon="8.879825661068129"><ele>276.0</ele><time>2026-04-11T09:24:41.999Z</time></trkpt><trkpt lat="40.647861107396345" lon="8.879982016330525"><ele>276.5</ele><time>2026-04-11T09:24:42.999Z</time></trkpt><trkpt lat="40.64778918581339" lon="8.880138830449367"><ele>277.0</ele><time>2026-04-11T09:24:43.999Z</time></trkpt><trkpt lat="40.64772186260582" lon="8.8803116495778"><ele>275.25</ele><time>2026-04-11T09:24:44.999Z</time></trkpt><trkpt lat="40.6476513196563" lon="8.880491758082995"><ele>273.5</ele><time>2026-04-11T09:24:45.999Z</time></trkpt><trkpt lat="40.647564500994" lon="8.880652231505197"><ele>271.75</ele><time>2026-04-11T09:24:46.999Z</time></trkpt><trkpt lat="40.64747170102142" lon="8.880800171444838"><ele>270.0</ele><time>2026-04-11T09:24:47.999Z</time></trkpt><trkpt lat="40.64740443054161" lon="8.880937744664463"><ele>270.0</ele><time>2026-04-11T09:24:48.999Z</time></trkpt><trkpt lat="40.64735813337576" lon="8.881084294436118"><ele>270.0</ele><time>2026-04-11T09:24:49.999Z</time></trkpt><trkpt lat="40.6473232246932" lon="8.881227416905382"><ele>270.0</ele><time>2026-04-11T09:24:50.999Z</time></trkpt><trkpt lat="40.64726155744973" lon="8.88138742655766"><ele>270.0</ele><time>2026-04-11T09:24:51.999Z</time></trkpt><trkpt lat="40.64718426427618" lon="8.881558005646541"><ele>270.0</ele><time>2026-04-11T09:24:52.999Z</time></trkpt><trkpt lat="40.64710152754889" lon="8.881713952130418"><ele>270.0</ele><time>2026-04-11T09:24:53.999Z</time></trkpt><trkpt lat="40.64704503568817" lon="8.88189529776071"><ele>270.0</ele><time>2026-04-11T09:24:54.999Z</time></trkpt><trkpt lat="40.64696966667534" lon="8.882062372897115"><ele>270.0</ele><time>2026-04-11T09:24:55.999Z</time></trkpt><trkpt lat="40.64690764241518" lon="8.88223809303874"><ele>269.0</ele><time>2026-04-11T09:24:56.999Z</time></trkpt><trkpt lat="40.6468481528257" lon="8.882380541439554"><ele>268.0</ele><time>2026-04-11T09:24:57.999Z</time></trkpt><trkpt lat="40.64676962971439" lon="8.882511041084621"><ele>267.0</ele><time>2026-04-11T09:24:58.999Z</time></trkpt><trkpt lat="40.64669602677839" lon="8.882653552550128"><ele>266.0</ele><time>2026-04-11T09:24:59.999Z</time></trkpt><trkpt lat="40.64664789863051" lon="8.882784286639753"><ele>265.75</ele><time>2026-04-11T09:25:00.999Z</time></trkpt><trkpt lat="40.64661861255205" lon="8.882921115526665"><ele>265.5</ele><time>2026-04-11T09:25:01.999Z</time></trkpt><trkpt lat="40.64659173297797" lon="8.883063045685233"><ele>265.25</ele><time>2026-04-11T09:25:02.999Z</time></trkpt><trkpt lat="40.64655889133204" lon="8.883263678966895"><ele>265.0</ele><time>2026-04-11T09:25:03.999Z</time></trkpt><trkpt lat="40.64654939809571" lon="8.883439823442984"><ele>264.25</ele><time>2026-04-11T09:25:04.999Z</time></trkpt><trkpt lat="40.64652027273208" lon="8.883639525441517"><ele>263.5</ele><time>2026-04-11T09:25:05.999Z</time></trkpt><trkpt lat="40.64652139740903" lon="8.883834057217225"><ele>262.75</ele><time>2026-04-11T09:25:06.999Z</time></trkpt><trkpt lat="40.64652020060318" lon="8.884007400460108"><ele>262.0</ele><time>2026-04-11T09:25:07.999Z</time></trkpt><trkpt lat="40.64651092626688" lon="8.88416630886759"><ele>261.75</ele><time>2026-04-11T09:25:08.999Z</time></trkpt><trkpt lat="40.64648611380049" lon="8.884306238801017"><ele>261.5</ele><time>2026-04-11T09:25:09.999Z</time></trkpt><trkpt lat="40.64645287408755" lon="8.884481869482482"><ele>261.25</ele><time>2026-04-11T09:25:10.999Z</time></trkpt><trkpt lat="40.646428298085176" lon="8.884644939292393"><ele>261.0</ele><time>2026-04-11T09:25:11.999Z</time></trkpt><trkpt lat="40.64640065440429" lon="8.88482071215432"><ele>261.0</ele><time>2026-04-11T09:25:12.999Z</time></trkpt><trkpt lat="40.646374064786215" lon="8.88498852027589"><ele>261.0</ele><time>2026-04-11T09:25:13.999Z</time></trkpt><trkpt lat="40.646344110863666" lon="8.885148633337"><ele>261.0</ele><time>2026-04-11T09:25:14.999Z</time></trkpt><trkpt lat="40.64631465908819" lon="8.88530330206416"><ele>261.0</ele><time>2026-04-11T09:25:15.999Z</time></trkpt><trkpt lat="40.64629335786567" lon="8.885447063203761"><ele>260.5</ele><time>2026-04-11T09:25:16.999Z</time></trkpt><trkpt lat="40.646273600581424" lon="8.885604113272912"><ele>260.0</ele><time>2026-04-11T09:25:17.999Z</time></trkpt><trkpt lat="40.64626426154539" lon="8.885774017516281"><ele>259.5</ele><time>2026-04-11T09:25:18.999Z</time></trkpt><trkpt lat="40.64623419075732" lon="8.88594569815971"><ele>259.0</ele><time>2026-04-11T09:25:19.999Z</time></trkpt><trkpt lat="40.64621111049637" lon="8.886113758976988"><ele>259.0</ele><time>2026-04-11T09:25:20.999Z</time></trkpt><trkpt lat="40.64615636071899" lon="8.886276725027162"><ele>259.0</ele><time>2026-04-11T09:25:21.999Z</time></trkpt><trkpt lat="40.64612461166312" lon="8.88642405120869"><ele>259.0</ele><time>2026-04-11T09:25:22.999Z</time></trkpt><trkpt lat="40.64609141705981" lon="8.886582988858667"><ele>259.0</ele><time>2026-04-11T09:25:23.999Z</time></trkpt><trkpt lat="40.64607474231978" lon="8.886744163873123"><ele>258.5</ele><time>2026-04-11T09:25:24.999Z</time></trkpt><trkpt lat="40.646067346509476" lon="8.886874373852491"><ele>258.0</ele><time>2026-04-11T09:25:25.999Z</time></trkpt><trkpt lat="40.646068037151345" lon="8.887040967143463"><ele>257.5</ele><time>2026-04-11T09:25:26.999Z</time></trkpt><trkpt lat="40.646070326665374" lon="8.887217674953812"><ele>257.0</ele><time>2026-04-11T09:25:27.999Z</time></trkpt><trkpt lat="40.64606275474197" lon="8.887386758942272"><ele>257.0</ele><time>2026-04-11T09:25:28.999Z</time></trkpt><trkpt lat="40.646053113561216" lon="8.887518903326598"><ele>257.0</ele><time>2026-04-11T09:25:29.999Z</time></trkpt><trkpt lat="40.64603326736351" lon="8.887694460944882"><ele>257.0</ele><time>2026-04-11T09:25:30.999Z</time></trkpt><trkpt lat="40.64600993539518" lon="8.887854343637798"><ele>257.0</ele><time>2026-04-11T09:25:31.999Z</time></trkpt><trkpt lat="40.64598871686497" lon="8.888021794000217"><ele>256.75</ele><time>2026-04-11T09:25:32.999Z</time></trkpt><trkpt lat="40.64596968898385" lon="8.88817974067955"><ele>256.5</ele><time>2026-04-11T09:25:33.999Z</time></trkpt><trkpt lat="40.64595055600958" lon="8.888306348335366"><ele>256.25</ele><time>2026-04-11T09:25:34.999Z</time></trkpt><trkpt lat="40.64592660407721" lon="8.888464844357204"><ele>256.0</ele><time>2026-04-11T09:25:35.999Z</time></trkpt><trkpt lat="40.64589957929983" lon="8.888604098192774"><ele>255.99999999999997</ele><time>2026-04-11T09:25:36.999Z</time></trkpt><trkpt lat="40.645880066500794" lon="8.88870180104901"><ele>256.0</ele><time>2026-04-11T09:25:37.999Z</time></trkpt><trkpt lat="40.64585167231264" lon="8.888796772453393"><ele>256.0</ele><time>2026-04-11T09:25:38.998Z</time></trkpt><trkpt lat="40.64581512190902" lon="8.888902922847768"><ele>256.0</ele><time>2026-04-11T09:25:39.998Z</time></trkpt><trkpt lat="40.64578215022622" lon="8.88899896258683"><ele>255.99999999999997</ele><time>2026-04-11T09:25:40.998Z</time></trkpt><trkpt lat="40.645755106965936" lon="8.88909504556335"><ele>256.0</ele><time>2026-04-11T09:25:41.998Z</time></trkpt><trkpt lat="40.64571530635769" lon="8.889187368300574"><ele>255.66666666666666</ele><time>2026-04-11T09:25:42.998Z</time></trkpt><trkpt lat="40.645672400915224" lon="8.88928334145985"><ele>255.33333333333331</ele><time>2026-04-11T09:25:43.998Z</time></trkpt><trkpt lat="40.64563567812309" lon="8.889386476737885"><ele>255.0</ele><time>2026-04-11T09:25:44.998Z</time></trkpt><trkpt lat="40.64557494818895" lon="8.889469922113923"><ele>254.66666666666669</ele><time>2026-04-11T09:25:45.998Z</time></trkpt><trkpt lat="40.64551090515783" lon="8.889558847603995"><ele>254.33333333333334</ele><time>2026-04-11T09:25:46.998Z</time></trkpt><trkpt lat="40.645443356399085" lon="8.889648265288647"><ele>254.0</ele><time>2026-04-11T09:25:47.998Z</time></trkpt><trkpt lat="40.64538244779554" lon="8.88974708594515"><ele>254.0</ele><time>2026-04-11T09:25:48.998Z</time></trkpt><trkpt lat="40.64532804033424" lon="8.889855444481741"><ele>253.99999999999997</ele><time>2026-04-11T09:25:49.998Z</time></trkpt><trkpt lat="40.645316277367975" lon="8.889992003910207"><ele>253.99999999999997</ele><time>2026-04-11T09:25:50.998Z</time></trkpt><trkpt lat="40.64527535653674" lon="8.890128617247008"><ele>254.0</ele><time>2026-04-11T09:25:51.998Z</time></trkpt><trkpt lat="40.64521811752988" lon="8.890250426569025"><ele>254.0</ele><time>2026-04-11T09:25:52.998Z</time></trkpt><trkpt lat="40.64518542913073" lon="8.890381899783687"><ele>254.0</ele><time>2026-04-11T09:25:53.998Z</time></trkpt><trkpt lat="40.64515155039152" lon="8.890500948191091"><ele>253.99999999999997</ele><time>2026-04-11T09:25:54.998Z</time></trkpt><trkpt lat="40.64511822304989" lon="8.89061951536146"><ele>253.99999999999997</ele><time>2026-04-11T09:25:55.998Z</time></trkpt><trkpt lat="40.645124791860695" lon="8.89075084684661"><ele>254.0</ele><time>2026-04-11T09:25:56.998Z</time></trkpt><trkpt lat="40.64514206327759" lon="8.890874440039813"><ele>254.0</ele><time>2026-04-11T09:25:57.998Z</time></trkpt><trkpt lat="40.64516046727059" lon="8.89099116953512"><ele>253.50000000000003</ele><time>2026-04-11T09:25:58.998Z</time></trkpt><trkpt lat="40.64517410848663" lon="8.891096048190432"><ele>253.0</ele><time>2026-04-11T09:25:59.998Z</time></trkpt><trkpt lat="40.645168972913865" lon="8.891202347546368"><ele>252.5</ele><time>2026-04-11T09:26:00.998Z</time></trkpt><trkpt lat="40.6451566478746" lon="8.89131182315273"><ele>252.0</ele><time>2026-04-11T09:26:01.998Z</time></trkpt><trkpt lat="40.645140428697864" lon="8.891416649196774"><ele>251.50000000000003</ele><time>2026-04-11T09:26:02.998Z</time></trkpt><trkpt lat="40.64512548383845" lon="8.891534670730746"><ele>251.0</ele><time>2026-04-11T09:26:03.998Z</time></trkpt><trkpt lat="40.64512711224221" lon="8.891650233304834"><ele>251.00000000000003</ele><time>2026-04-11T09:26:04.998Z</time></trkpt><trkpt lat="40.64513836639927" lon="8.891750765463211"><ele>251.0</ele><time>2026-04-11T09:26:05.998Z</time></trkpt><trkpt lat="40.64515607824368" lon="8.89184282175473"><ele>251.0</ele><time>2026-04-11T09:26:06.998Z</time></trkpt><trkpt lat="40.64518827300293" lon="8.89195608517018"><ele>251.0</ele><time>2026-04-11T09:26:08.998Z</time></trkpt><trkpt lat="40.645234172364276" lon="8.892049009847124"><ele>251.00000000000003</ele><time>2026-04-11T09:27:02.998Z</time></trkpt><trkpt lat="40.645283591039444" lon="8.892161100014478"><ele>251.0</ele><time>2026-04-11T09:27:05.998Z</time></trkpt><trkpt lat="40.64531087751282" lon="8.892297949424854"><ele>250.50000000000003</ele><time>2026-04-11T09:27:07.998Z</time></trkpt><trkpt lat="40.64533894890873" lon="8.892391619041371"><ele>250.0</ele><time>2026-04-11T09:27:08.998Z</time></trkpt><trkpt lat="40.64537063150455" lon="8.892478653097651"><ele>249.5</ele><time>2026-04-11T09:27:09.997Z</time></trkpt><trkpt lat="40.6454108443487" lon="8.892566694355368"><ele>249.0</ele><time>2026-04-11T09:27:10.997Z</time></trkpt><trkpt lat="40.645459086446714" lon="8.892658160443599"><ele>248.50000000000003</ele><time>2026-04-11T09:27:11.997Z</time></trkpt><trkpt lat="40.64550788080026" lon="8.8927421465571"><ele>248.0</ele><time>2026-04-11T09:27:12.997Z</time></trkpt><trkpt lat="40.645557637175294" lon="8.892815591790061"><ele>247.50000000000003</ele><time>2026-04-11T09:27:13.997Z</time></trkpt><trkpt lat="40.645612078565975" lon="8.892891695496395"><ele>247.0</ele><time>2026-04-11T09:27:14.997Z</time></trkpt><trkpt lat="40.64566188200689" lon="8.892962480119397"><ele>246.5</ele><time>2026-04-11T09:27:15.997Z</time></trkpt><trkpt lat="40.64571181721932" lon="8.893038967606406"><ele>246.0</ele><time>2026-04-11T09:27:16.997Z</time></trkpt><trkpt lat="40.645773801134375" lon="8.893104390458921"><ele>245.50000000000003</ele><time>2026-04-11T09:27:17.997Z</time></trkpt><trkpt lat="40.64584059743526" lon="8.893153460312536"><ele>245.0</ele><time>2026-04-11T09:27:18.997Z</time></trkpt><trkpt lat="40.64590236344698" lon="8.893202921653689"><ele>245.00000000000003</ele><time>2026-04-11T09:27:19.997Z</time></trkpt><trkpt lat="40.645966013097755" lon="8.893249099518474"><ele>245.0</ele><time>2026-04-11T09:27:20.997Z</time></trkpt><trkpt lat="40.64604017602492" lon="8.893276396611338"><ele>245.0</ele><time>2026-04-11T09:27:21.997Z</time></trkpt><trkpt lat="40.646108672844896" lon="8.893284408549983"><ele>245.0</ele><time>2026-04-11T09:27:22.997Z</time></trkpt><trkpt lat="40.64617529660306" lon="8.89327084503722"><ele>245.00000000000003</ele><time>2026-04-11T09:27:23.997Z</time></trkpt><trkpt lat="40.646287517901385" lon="8.893248477362055"><ele>245.0</ele><time>2026-04-11T09:27:25.997Z</time></trkpt><trkpt lat="40.64636990798429" lon="8.893350179603129"><ele>245.0</ele><time>2026-04-11T09:27:27.997Z</time></trkpt><trkpt lat="40.64631690725503" lon="8.893488017164392"><ele>245.0</ele><time>2026-04-11T09:27:29.997Z</time></trkpt><trkpt lat="40.64623576009397" lon="8.893621530574386"><ele>245.0</ele><time>2026-04-11T09:27:31.997Z</time></trkpt><trkpt lat="40.64617884418335" lon="8.893695616173513"><ele>245.0</ele><time>2026-04-11T09:27:32.997Z</time></trkpt><trkpt lat="40.646133832377934" lon="8.89379869949008"><ele>245.0</ele><time>2026-04-11T09:27:33.997Z</time></trkpt><trkpt lat="40.64609729812505" lon="8.893913900539141"><ele>244.4</ele><time>2026-04-11T09:27:34.997Z</time></trkpt><trkpt lat="40.64606457913656" lon="8.894047744791122"><ele>243.8</ele><time>2026-04-11T09:27:35.997Z</time></trkpt><trkpt lat="40.64603713766721" lon="8.894181784573183"><ele>243.2</ele><time>2026-04-11T09:27:36.997Z</time></trkpt><trkpt lat="40.646012526126455" lon="8.894308815301574"><ele>242.6</ele><time>2026-04-11T09:27:37.997Z</time></trkpt><trkpt lat="40.64598137234327" lon="8.89442803432905"><ele>242.0</ele><time>2026-04-11T09:27:38.997Z</time></trkpt><trkpt lat="40.64594546322889" lon="8.894545734996795"><ele>241.39999999999998</ele><time>2026-04-11T09:27:39.997Z</time></trkpt><trkpt lat="40.64590576479823" lon="8.894663442010915"><ele>240.79999999999998</ele><time>2026-04-11T09:27:40.997Z</time></trkpt><trkpt lat="40.64586134216018" lon="8.894786532650334"><ele>240.2</ele><time>2026-04-11T09:27:41.997Z</time></trkpt><trkpt lat="40.64581662765397" lon="8.894918544294432"><ele>239.6</ele><time>2026-04-11T09:27:42.997Z</time></trkpt><trkpt lat="40.645798866645855" lon="8.895059259779059"><ele>239.0</ele><time>2026-04-11T09:27:43.997Z</time></trkpt><trkpt lat="40.64582152929084" lon="8.895186697334417"><ele>239.0</ele><time>2026-04-11T09:27:44.997Z</time></trkpt><trkpt lat="40.645885832103374" lon="8.895283218505652"><ele>238.99999999999997</ele><time>2026-04-11T09:27:45.997Z</time></trkpt><trkpt lat="40.64594413092405" lon="8.895387870365104"><ele>238.99999999999997</ele><time>2026-04-11T09:27:46.997Z</time></trkpt><trkpt lat="40.64601130492796" lon="8.895489926495477"><ele>239.0</ele><time>2026-04-11T09:27:47.997Z</time></trkpt><trkpt lat="40.64607180648482" lon="8.895587166824859"><ele>239.0</ele><time>2026-04-11T09:27:48.997Z</time></trkpt><trkpt lat="40.646130321111364" lon="8.895674715988537"><ele>239.00000000000003</ele><time>2026-04-11T09:27:49.997Z</time></trkpt><trkpt lat="40.64615421506387" lon="8.895776475921553"><ele>239.0</ele><time>2026-04-11T09:27:50.997Z</time></trkpt><trkpt lat="40.64616614871304" lon="8.895877087507573"><ele>239.0</ele><time>2026-04-11T09:27:51.997Z</time></trkpt><trkpt lat="40.64615578162529" lon="8.895986910087013"><ele>239.0</ele><time>2026-04-11T09:27:52.997Z</time></trkpt><trkpt lat="40.646137319106764" lon="8.896102933724741"><ele>239.00000000000003</ele><time>2026-04-11T09:27:53.997Z</time></trkpt><trkpt lat="40.64610399847941" lon="8.896225230013583"><ele>239.0</ele><time>2026-04-11T09:27:54.997Z</time></trkpt><trkpt lat="40.64605722281778" lon="8.896347084594137"><ele>239.0</ele><time>2026-04-11T09:27:55.997Z</time></trkpt><trkpt lat="40.646004253483156" lon="8.896465314331362"><ele>238.99999999999997</ele><time>2026-04-11T09:27:56.997Z</time></trkpt><trkpt lat="40.64595215953894" lon="8.896582412550819"><ele>238.99999999999997</ele><time>2026-04-11T09:27:57.997Z</time></trkpt><trkpt lat="40.6459044040008" lon="8.896691320290287"><ele>239.0</ele><time>2026-04-11T09:27:58.997Z</time></trkpt><trkpt lat="40.645859970086846" lon="8.896789146289121"><ele>239.0</ele><time>2026-04-11T09:27:59.997Z</time></trkpt><trkpt lat="40.64581825009665" lon="8.896879402688938"><ele>239.0</ele><time>2026-04-11T09:28:00.997Z</time></trkpt><trkpt lat="40.64577704355185" lon="8.896955776860922"><ele>238.99999999999997</ele><time>2026-04-11T09:28:01.997Z</time></trkpt><trkpt lat="40.64570967756187" lon="8.897075732539763"><ele>238.99999999999997</ele><time>2026-04-11T09:28:03.997Z</time></trkpt><trkpt lat="40.645647732637336" lon="8.89711383918967"><ele>239.0</ele><time>2026-04-11T09:28:05.997Z</time></trkpt><trkpt lat="40.64556486899994" lon="8.896976332236225"><ele>239.0</ele><time>2026-04-11T09:28:07.997Z</time></trkpt><trkpt lat="40.6455283211175" lon="8.896867004229284"><ele>239.0</ele><time>2026-04-11T09:28:08.997Z</time></trkpt><trkpt lat="40.64549333235333" lon="8.896746990354282"><ele>238.99999999999997</ele><time>2026-04-11T09:28:09.997Z</time></trkpt><trkpt lat="40.64545346874121" lon="8.89662362886247"><ele>238.99999999999997</ele><time>2026-04-11T09:28:10.997Z</time></trkpt><trkpt lat="40.64541067357939" lon="8.896491114149844"><ele>239.0</ele><time>2026-04-11T09:28:11.997Z</time></trkpt><trkpt lat="40.64536247131957" lon="8.89635351744154"><ele>239.0</ele><time>2026-04-11T09:28:12.997Z</time></trkpt><trkpt lat="40.64531725221124" lon="8.896211699673973"><ele>238.25</ele><time>2026-04-11T09:28:13.997Z</time></trkpt><trkpt lat="40.645269955415195" lon="8.896070479228424"><ele>237.5</ele><time>2026-04-11T09:28:14.997Z</time></trkpt><trkpt lat="40.645220977132794" lon="8.895931876573824"><ele>236.75</ele><time>2026-04-11T09:28:15.997Z</time></trkpt><trkpt lat="40.64517205730355" lon="8.895794075980112"><ele>236.0</ele><time>2026-04-11T09:28:16.997Z</time></trkpt><trkpt lat="40.645118928294345" lon="8.895657308563058"><ele>236.0</ele><time>2026-04-11T09:28:17.997Z</time></trkpt><trkpt lat="40.645061324742805" lon="8.895524517411957"><ele>236.0</ele><time>2026-04-11T09:28:18.997Z</time></trkpt><trkpt lat="40.64499282252655" lon="8.895405281555906"><ele>236.0</ele><time>2026-04-11T09:28:19.997Z</time></trkpt><trkpt lat="40.64491089091941" lon="8.895302410123792"><ele>236.0</ele><time>2026-04-11T09:28:20.997Z</time></trkpt><trkpt lat="40.644819609758365" lon="8.89520912664541"><ele>236.0</ele><time>2026-04-11T09:28:21.997Z</time></trkpt><trkpt lat="40.644715859273596" lon="8.89512897950551"><ele>236.0</ele><time>2026-04-11T09:28:22.997Z</time></trkpt><trkpt lat="40.64459916647349" lon="8.895060046192238"><ele>236.0</ele><time>2026-04-11T09:28:23.997Z</time></trkpt><trkpt lat="40.64447979215415" lon="8.894990655623106"><ele>236.0</ele><time>2026-04-11T09:28:24.997Z</time></trkpt><trkpt lat="40.64435676962966" lon="8.894956841997258"><ele>236.20000000000002</ele><time>2026-04-11T09:28:25.997Z</time></trkpt><trkpt lat="40.64425490117025" lon="8.894889039878775"><ele>236.40000000000003</ele><time>2026-04-11T09:28:26.997Z</time></trkpt><trkpt lat="40.644147755780445" lon="8.894849881201711"><ele>236.6</ele><time>2026-04-11T09:28:27.997Z</time></trkpt><trkpt lat="40.64403495094097" lon="8.894852220433796"><ele>236.8</ele><time>2026-04-11T09:28:28.997Z</time></trkpt><trkpt lat="40.64392473897442" lon="8.894833262071899"><ele>237.0</ele><time>2026-04-11T09:28:29.997Z</time></trkpt><trkpt lat="40.6438101821555" lon="8.894856502645105"><ele>237.0</ele><time>2026-04-11T09:28:30.997Z</time></trkpt><trkpt lat="40.64369473176343" lon="8.894907184987453"><ele>237.0</ele><time>2026-04-11T09:28:31.997Z</time></trkpt><trkpt lat="40.64357505646037" lon="8.8949747238911"><ele>237.0</ele><time>2026-04-11T09:28:32.997Z</time></trkpt><trkpt lat="40.64344794166446" lon="8.895061291468542"><ele>237.0</ele><time>2026-04-11T09:28:33.997Z</time></trkpt><trkpt lat="40.64331157700707" lon="8.895151108533573"><ele>236.33333333333331</ele><time>2026-04-11T09:28:34.997Z</time></trkpt><trkpt lat="40.6431749770678" lon="8.895245074209667"><ele>235.66666666666666</ele><time>2026-04-11T09:28:35.997Z</time></trkpt><trkpt lat="40.64303739688892" lon="8.89534169701004"><ele>235.0</ele><time>2026-04-11T09:28:36.997Z</time></trkpt><trkpt lat="40.64289087080648" lon="8.895443360032761"><ele>234.33333333333331</ele><time>2026-04-11T09:28:37.997Z</time></trkpt><trkpt lat="40.642745774867244" lon="8.895562969276305"><ele>233.66666666666669</ele><time>2026-04-11T09:28:38.997Z</time></trkpt><trkpt lat="40.64259582311825" lon="8.895658074076596"><ele>233.0</ele><time>2026-04-11T09:28:39.997Z</time></trkpt><trkpt lat="40.64244196725029" lon="8.895761962351331"><ele>233.0</ele><time>2026-04-11T09:28:40.996Z</time></trkpt><trkpt lat="40.642299626506" lon="8.895856043415755"><ele>233.0</ele><time>2026-04-11T09:28:41.996Z</time></trkpt><trkpt lat="40.64216094031298" lon="8.895944288225515"><ele>233.0</ele><time>2026-04-11T09:28:42.996Z</time></trkpt><trkpt lat="40.64201614715926" lon="8.896036550791914"><ele>231.66666666666669</ele><time>2026-04-11T09:28:43.996Z</time></trkpt><trkpt lat="40.64187235084746" lon="8.896145151951075"><ele>230.33333333333331</ele><time>2026-04-11T09:28:44.996Z</time></trkpt><trkpt lat="40.641730867248896" lon="8.896259289624007"><ele>229.0</ele><time>2026-04-11T09:28:45.996Z</time></trkpt><trkpt lat="40.64157790919507" lon="8.896363159257195"><ele>229.0</ele><time>2026-04-11T09:28:46.996Z</time></trkpt><trkpt lat="40.64143035488813" lon="8.896450028049722"><ele>229.0</ele><time>2026-04-11T09:28:47.996Z</time></trkpt><trkpt lat="40.64127604011547" lon="8.8965229363169"><ele>229.0</ele><time>2026-04-11T09:28:48.996Z</time></trkpt><trkpt lat="40.64112923748243" lon="8.896633340963508"><ele>228.66666666666666</ele><time>2026-04-11T09:28:49.996Z</time></trkpt><trkpt lat="40.64096997457054" lon="8.896748367036757"><ele>228.33333333333331</ele><time>2026-04-11T09:28:50.996Z</time></trkpt><trkpt lat="40.64082838987002" lon="8.896848445879558"><ele>228.0</ele><time>2026-04-11T09:28:51.996Z</time></trkpt><trkpt lat="40.64068782446407" lon="8.89695418343562"><ele>228.33333333333331</ele><time>2026-04-11T09:28:52.996Z</time></trkpt><trkpt lat="40.640547458172" lon="8.897034243262567"><ele>228.66666666666666</ele><time>2026-04-11T09:28:53.996Z</time></trkpt><trkpt lat="40.640396548478215" lon="8.897137392565439"><ele>229.0</ele><time>2026-04-11T09:28:54.996Z</time></trkpt><trkpt lat="40.640251542720286" lon="8.897239063873556"><ele>229.0</ele><time>2026-04-11T09:28:55.996Z</time></trkpt><trkpt lat="40.64011363605584" lon="8.897342995168374"><ele>229.0</ele><time>2026-04-11T09:28:56.996Z</time></trkpt><trkpt lat="40.63998464721864" lon="8.897408059473735"><ele>229.0</ele><time>2026-04-11T09:28:57.996Z</time></trkpt><trkpt lat="40.639838864007935" lon="8.897501316598209"><ele>229.33333333333331</ele><time>2026-04-11T09:28:58.996Z</time></trkpt><trkpt lat="40.639699078851265" lon="8.89760371558255"><ele>229.66666666666669</ele><time>2026-04-11T09:28:59.996Z</time></trkpt><trkpt lat="40.63956551949983" lon="8.897702526770702"><ele>230.0</ele><time>2026-04-11T09:29:00.996Z</time></trkpt><trkpt lat="40.63943450645944" lon="8.897797124138128"><ele>230.25</ele><time>2026-04-11T09:29:01.996Z</time></trkpt><trkpt lat="40.639313003206595" lon="8.897884854907867"><ele>230.5</ele><time>2026-04-11T09:29:02.996Z</time></trkpt><trkpt lat="40.6391789819518" lon="8.897973641598263"><ele>230.75</ele><time>2026-04-11T09:29:03.996Z</time></trkpt><trkpt lat="40.63905420471598" lon="8.89805065839167"><ele>231.0</ele><time>2026-04-11T09:29:04.996Z</time></trkpt><trkpt lat="40.63893393390807" lon="8.89812280449938"><ele>231.0</ele><time>2026-04-11T09:29:05.996Z</time></trkpt><trkpt lat="40.63879754486629" lon="8.898196721860593"><ele>231.0</ele><time>2026-04-11T09:29:06.996Z</time></trkpt><trkpt lat="40.63866079197853" lon="8.898263349048175"><ele>231.0</ele><time>2026-04-11T09:29:07.996Z</time></trkpt><trkpt lat="40.638519361909665" lon="8.89832542562672"><ele>231.0</ele><time>2026-04-11T09:29:08.996Z</time></trkpt><trkpt lat="40.63838292864752" lon="8.898383106748962"><ele>231.5</ele><time>2026-04-11T09:29:09.996Z</time></trkpt><trkpt lat="40.63824620723255" lon="8.898440672119417"><ele>232.0</ele><time>2026-04-11T09:29:10.996Z</time></trkpt><trkpt lat="40.63810245055992" lon="8.898503578649667"><ele>232.5</ele><time>2026-04-11T09:29:11.996Z</time></trkpt><trkpt lat="40.63797540482736" lon="8.898562537632637"><ele>233.0</ele><time>2026-04-11T09:29:12.996Z</time></trkpt><trkpt lat="40.63784520699207" lon="8.898622772378898"><ele>232.8</ele><time>2026-04-11T09:29:13.996Z</time></trkpt><trkpt lat="40.63774097740884" lon="8.898667909745113"><ele>232.60000000000002</ele><time>2026-04-11T09:29:14.996Z</time></trkpt><trkpt lat="40.63763953242808" lon="8.898711841132855"><ele>232.39999999999998</ele><time>2026-04-11T09:29:15.996Z</time></trkpt><trkpt lat="40.63754679639966" lon="8.898753421724054"><ele>232.2</ele><time>2026-04-11T09:29:16.996Z</time></trkpt><trkpt lat="40.63743146035228" lon="8.898813753054954"><ele>232.0</ele><time>2026-04-11T09:29:17.996Z</time></trkpt><trkpt lat="40.637315713321456" lon="8.898874299401106"><ele>232.0</ele><time>2026-04-11T09:29:18.996Z</time></trkpt><trkpt lat="40.63719486753249" lon="8.898937521580425"><ele>232.0</ele><time>2026-04-11T09:29:19.996Z</time></trkpt><trkpt lat="40.637085692802664" lon="8.898994639498817"><ele>232.0</ele><time>2026-04-11T09:29:20.996Z</time></trkpt><trkpt lat="40.63696986294212" lon="8.899055239268364"><ele>232.0</ele><time>2026-04-11T09:29:21.996Z</time></trkpt><trkpt lat="40.63687961495463" lon="8.899102455120909"><ele>232.0</ele><time>2026-04-11T09:29:22.996Z</time></trkpt><trkpt lat="40.636805068894944" lon="8.899141456026607"><ele>232.0</ele><time>2026-04-11T09:29:23.996Z</time></trkpt><trkpt lat="40.6366879220939" lon="8.899202744762496"><ele>232.0</ele><time>2026-04-11T09:29:25.996Z</time></trkpt><trkpt lat="40.63661102894651" lon="8.899242973816621"><ele>232.0</ele><time>2026-04-11T09:29:27.996Z</time></trkpt><trkpt lat="40.636647115122464" lon="8.899414398935702"><ele>232.0</ele><time>2026-04-11T09:29:30.996Z</time></trkpt><trkpt lat="40.63669944320632" lon="8.89947229029467"><ele>231.99999999999997</ele><time>2026-04-11T09:29:31.996Z</time></trkpt><trkpt lat="40.63672072589179" lon="8.899558940965681"><ele>232.0</ele><time>2026-04-11T09:29:33Z</time></trkpt><trkpt lat="40.63674211546269" lon="8.89965061263848"><ele>232.0</ele><time>2026-04-11T09:29:34Z</time></trkpt><trkpt lat="40.636744220926595" lon="8.899822278903526"><ele>232.0</ele><time>2026-04-11T09:29:36Z</time></trkpt><trkpt lat="40.63671046234939" lon="8.899918558462502"><ele>231.99999999999997</ele><time>2026-04-11T09:29:37Z</time></trkpt><trkpt lat="40.63665961165086" lon="8.90000562885722"><ele>232.0</ele><time>2026-04-11T09:29:38Z</time></trkpt><trkpt lat="40.63659282254058" lon="8.900100353166225"><ele>232.39999999999998</ele><time>2026-04-11T09:29:39Z</time></trkpt><trkpt lat="40.63652241805413" lon="8.900185080555945"><ele>232.79999999999998</ele><time>2026-04-11T09:29:40Z</time></trkpt><trkpt lat="40.636440736535604" lon="8.900267125530274"><ele>233.2</ele><time>2026-04-11T09:29:41Z</time></trkpt><trkpt lat="40.6363619821757" lon="8.900354520000898"><ele>233.6</ele><time>2026-04-11T09:29:42Z</time></trkpt><trkpt lat="40.63629817853333" lon="8.90044271608685"><ele>234.0</ele><time>2026-04-11T09:29:43Z</time></trkpt><trkpt lat="40.63620899980902" lon="8.900546252202847"><ele>234.2</ele><time>2026-04-11T09:29:44Z</time></trkpt><trkpt lat="40.6361239251868" lon="8.900642311429923"><ele>234.39999999999998</ele><time>2026-04-11T09:29:45Z</time></trkpt><trkpt lat="40.636047157599286" lon="8.900724274491122"><ele>234.6</ele><time>2026-04-11T09:29:46Z</time></trkpt><trkpt lat="40.635975884950945" lon="8.90078232458149"><ele>234.8</ele><time>2026-04-11T09:29:47Z</time></trkpt><trkpt lat="40.63592906131021" lon="8.900914389549238"><ele>235.0</ele><time>2026-04-11T09:29:48Z</time></trkpt><trkpt lat="40.63590012526734" lon="8.901041834291838"><ele>235.0</ele><time>2026-04-11T09:29:49Z</time></trkpt><trkpt lat="40.63588126066775" lon="8.901171751814852"><ele>235.0</ele><time>2026-04-11T09:29:50Z</time></trkpt><trkpt lat="40.63588816244507" lon="8.901331218596818"><ele>235.0</ele><time>2026-04-11T09:29:51Z</time></trkpt><trkpt lat="40.635901564335605" lon="8.901480782342228"><ele>235.0</ele><time>2026-04-11T09:29:52Z</time></trkpt><trkpt lat="40.63591858766254" lon="8.901637809919437"><ele>235.5</ele><time>2026-04-11T09:29:53Z</time></trkpt><trkpt lat="40.63593281337738" lon="8.901790149292767"><ele>236.0</ele><time>2026-04-11T09:29:54Z</time></trkpt><trkpt lat="40.63594723183969" lon="8.90193825397047"><ele>236.5</ele><time>2026-04-11T09:29:55Z</time></trkpt><trkpt lat="40.635972743593584" lon="8.902081819892746"><ele>237.0</ele><time>2026-04-11T09:29:56Z</time></trkpt><trkpt lat="40.63598380734177" lon="8.902238015059517"><ele>237.0</ele><time>2026-04-11T09:29:57Z</time></trkpt><trkpt lat="40.63600795131762" lon="8.90239519990716"><ele>237.0</ele><time>2026-04-11T09:29:58Z</time></trkpt><trkpt lat="40.636042568654545" lon="8.902572750340234"><ele>237.0</ele><time>2026-04-11T09:29:59Z</time></trkpt><trkpt lat="40.636056105647235" lon="8.902723018008333"><ele>237.0</ele><time>2026-04-11T09:30:00Z</time></trkpt><trkpt lat="40.63607484801281" lon="8.90288194147079"><ele>237.25</ele><time>2026-04-11T09:30:01Z</time></trkpt><trkpt lat="40.636097716424736" lon="8.903046917726254"><ele>237.5</ele><time>2026-04-11T09:30:02Z</time></trkpt><trkpt lat="40.63612991653887" lon="8.903176330464735"><ele>237.75</ele><time>2026-04-11T09:30:03Z</time></trkpt><trkpt lat="40.636149233654166" lon="8.903327214890366"><ele>238.0</ele><time>2026-04-11T09:30:04Z</time></trkpt><trkpt lat="40.63617860985292" lon="8.903477131411726"><ele>242.75</ele><time>2026-04-11T09:30:05Z</time></trkpt><trkpt lat="40.63620959290295" lon="8.903615406256785"><ele>247.5</ele><time>2026-04-11T09:30:06Z</time></trkpt><trkpt lat="40.63623823069088" lon="8.90374830986349"><ele>252.25</ele><time>2026-04-11T09:30:07Z</time></trkpt><trkpt lat="40.636271011564546" lon="8.90391327706337"><ele>257.0</ele><time>2026-04-11T09:30:08Z</time></trkpt><trkpt lat="40.63629730871152" lon="8.904070100996138"><ele>257.0</ele><time>2026-04-11T09:30:09Z</time></trkpt><trkpt lat="40.63633020077687" lon="8.904244589206147"><ele>257.0</ele><time>2026-04-11T09:30:10Z</time></trkpt><trkpt lat="40.63636414350845" lon="8.904452389136123"><ele>257.0</ele><time>2026-04-11T09:30:11Z</time></trkpt><trkpt lat="40.63639267652043" lon="8.904633350803183"><ele>257.0</ele><time>2026-04-11T09:30:12Z</time></trkpt><trkpt lat="40.63642399706379" lon="8.904817969166366"><ele>255.25</ele><time>2026-04-11T09:30:13Z</time></trkpt><trkpt lat="40.636461332062396" lon="8.904989440589077"><ele>253.5</ele><time>2026-04-11T09:30:14Z</time></trkpt><trkpt lat="40.63650590538326" lon="8.905157395190576"><ele>251.75</ele><time>2026-04-11T09:30:15Z</time></trkpt><trkpt lat="40.63654151499483" lon="8.905332860648782"><ele>250.0</ele><time>2026-04-11T09:30:16Z</time></trkpt><trkpt lat="40.63657283025838" lon="8.905508356096878"><ele>248.75</ele><time>2026-04-11T09:30:17Z</time></trkpt><trkpt lat="40.63659216498059" lon="8.905633981988606"><ele>247.5</ele><time>2026-04-11T09:30:18Z</time></trkpt><trkpt lat="40.636621371304635" lon="8.905779374433955"><ele>246.25</ele><time>2026-04-11T09:30:18.999Z</time></trkpt><trkpt lat="40.63665181989049" lon="8.905932192354555"><ele>245.0</ele><time>2026-04-11T09:30:19.999Z</time></trkpt><trkpt lat="40.63669997122346" lon="8.906102414951425"><ele>243.75</ele><time>2026-04-11T09:30:20.999Z</time></trkpt><trkpt lat="40.63673083689465" lon="8.906274678938182"><ele>242.5</ele><time>2026-04-11T09:30:21.999Z</time></trkpt><trkpt lat="40.636798755255484" lon="8.90645188431935"><ele>241.25</ele><time>2026-04-11T09:30:22.999Z</time></trkpt><trkpt lat="40.636851200985156" lon="8.906640478526697"><ele>240.0</ele><time>2026-04-11T09:30:23.999Z</time></trkpt><trkpt lat="40.63688827231737" lon="8.90680547609566"><ele>238.66666666666669</ele><time>2026-04-11T09:30:24.999Z</time></trkpt><trkpt lat="40.63696281283479" lon="8.906993187224913"><ele>237.33333333333334</ele><time>2026-04-11T09:30:25.999Z</time></trkpt><trkpt lat="40.637018235266254" lon="8.907157804656814"><ele>236.0</ele><time>2026-04-11T09:30:26.999Z</time></trkpt><trkpt lat="40.637090719856445" lon="8.907362028877396"><ele>236.0</ele><time>2026-04-11T09:30:27.999Z</time></trkpt><trkpt lat="40.63715826663106" lon="8.9075694776462"><ele>236.0</ele><time>2026-04-11T09:30:28.999Z</time></trkpt><trkpt lat="40.63722252802251" lon="8.907746050695923"><ele>236.0</ele><time>2026-04-11T09:30:29.999Z</time></trkpt><trkpt lat="40.63728974280268" lon="8.907930738496407"><ele>235.75</ele><time>2026-04-11T09:30:30.999Z</time></trkpt><trkpt lat="40.637366136937175" lon="8.908120668533867"><ele>235.5</ele><time>2026-04-11T09:30:31.999Z</time></trkpt><trkpt lat="40.63743124383802" lon="8.90830929898205"><ele>235.25</ele><time>2026-04-11T09:30:32.999Z</time></trkpt><trkpt lat="40.637502618459415" lon="8.908448741384506"><ele>235.0</ele><time>2026-04-11T09:30:33.999Z</time></trkpt><trkpt lat="40.63759390539408" lon="8.908628928087763"><ele>234.5</ele><time>2026-04-11T09:30:34.999Z</time></trkpt><trkpt lat="40.63764071708193" lon="8.908786335410248"><ele>234.0</ele><time>2026-04-11T09:30:35.999Z</time></trkpt><trkpt lat="40.6377173374338" lon="8.908964360822202"><ele>233.5</ele><time>2026-04-11T09:30:36.999Z</time></trkpt><trkpt lat="40.637791055382536" lon="8.909141402583199"><ele>233.0</ele><time>2026-04-11T09:30:37.999Z</time></trkpt><trkpt lat="40.637873108287636" lon="8.90935187838518"><ele>232.75</ele><time>2026-04-11T09:30:38.999Z</time></trkpt><trkpt lat="40.6379425191669" lon="8.909524145248177"><ele>232.5</ele><time>2026-04-11T09:30:39.999Z</time></trkpt><trkpt lat="40.63800706787629" lon="8.90968850008211"><ele>232.25</ele><time>2026-04-11T09:30:40.999Z</time></trkpt><trkpt lat="40.63808034523535" lon="8.909875934843006"><ele>232.0</ele><time>2026-04-11T09:30:41.999Z</time></trkpt><trkpt lat="40.63815306885795" lon="8.91005543345847"><ele>231.66666666666666</ele><time>2026-04-11T09:30:42.999Z</time></trkpt><trkpt lat="40.63822566092305" lon="8.91023766073169"><ele>231.33333333333331</ele><time>2026-04-11T09:30:43.999Z</time></trkpt><trkpt lat="40.638293937365795" lon="8.91041227325592"><ele>231.0</ele><time>2026-04-11T09:30:44.999Z</time></trkpt><trkpt lat="40.638357493748984" lon="8.910583320182527"><ele>231.0</ele><time>2026-04-11T09:30:45.999Z</time></trkpt><trkpt lat="40.63842390255918" lon="8.910757736304857"><ele>231.0</ele><time>2026-04-11T09:30:46.999Z</time></trkpt><trkpt lat="40.63849147848125" lon="8.910939430494544"><ele>231.0</ele><time>2026-04-11T09:30:47.999Z</time></trkpt><trkpt lat="40.638547670947595" lon="8.911095233901273"><ele>231.0</ele><time>2026-04-11T09:30:48.999Z</time></trkpt><trkpt lat="40.638601915689264" lon="8.911246569483223"><ele>232.0</ele><time>2026-04-11T09:30:49.999Z</time></trkpt><trkpt lat="40.6386631488005" lon="8.911422609667133"><ele>233.0</ele><time>2026-04-11T09:30:50.999Z</time></trkpt><trkpt lat="40.63872134671404" lon="8.911594718256364"><ele>234.0</ele><time>2026-04-11T09:30:51.999Z</time></trkpt><trkpt lat="40.63876889946064" lon="8.911735204135582"><ele>235.0</ele><time>2026-04-11T09:30:52.999Z</time></trkpt><trkpt lat="40.63882275341111" lon="8.91190230546658"><ele>235.0</ele><time>2026-04-11T09:30:53.999Z</time></trkpt><trkpt lat="40.63887285474333" lon="8.91205776278076"><ele>235.0</ele><time>2026-04-11T09:30:54.999Z</time></trkpt><trkpt lat="40.63891875396391" lon="8.91218592176284"><ele>235.0</ele><time>2026-04-11T09:30:55.999Z</time></trkpt><trkpt lat="40.63895224157127" lon="8.912268604271741"><ele>235.0</ele><time>2026-04-11T09:30:56.999Z</time></trkpt><trkpt lat="40.63899443910486" lon="8.912375187851177"><ele>235.0</ele><time>2026-04-11T09:30:57.999Z</time></trkpt><trkpt lat="40.6390266604948" lon="8.91245965241849"><ele>234.99999999999997</ele><time>2026-04-11T09:30:58.999Z</time></trkpt><trkpt lat="40.63905740502551" lon="8.912544497815334"><ele>235.0</ele><time>2026-04-11T09:30:59.999Z</time></trkpt><trkpt lat="40.639089116956384" lon="8.912632012603558"><ele>235.0</ele><time>2026-04-11T09:31:01.999Z</time></trkpt><trkpt lat="40.63906133454323" lon="8.912555341959639"><ele>235.0</ele><time>2026-04-11T09:31:09.999Z</time></trkpt><trkpt lat="40.63911181117887" lon="8.912691076951727"><ele>234.99999999999997</ele><time>2026-04-11T09:31:20.999Z</time></trkpt><trkpt lat="40.6391600611701" lon="8.912809612033714"><ele>235.0</ele><time>2026-04-11T09:31:21.999Z</time></trkpt><trkpt lat="40.639207649899134" lon="8.91292988863736"><ele>235.0</ele><time>2026-04-11T09:31:22.999Z</time></trkpt><trkpt lat="40.63925544606522" lon="8.913052658539977"><ele>235.0</ele><time>2026-04-11T09:31:23.999Z</time></trkpt><trkpt lat="40.639291060460366" lon="8.913142514581253"><ele>235.0</ele><time>2026-04-11T09:31:24.999Z</time></trkpt><trkpt lat="40.63934510215017" lon="8.913278863048255"><ele>235.0</ele><time>2026-04-11T09:31:25.999Z</time></trkpt><trkpt lat="40.639393747899206" lon="8.913404066045311"><ele>235.0</ele><time>2026-04-11T09:31:26.999Z</time></trkpt><trkpt lat="40.6394359588882" lon="8.913521009823535"><ele>236.0</ele><time>2026-04-11T09:31:27.999Z</time></trkpt><trkpt lat="40.6394688630241" lon="8.913623822232024"><ele>237.0</ele><time>2026-04-11T09:31:28.999Z</time></trkpt><trkpt lat="40.63951386620121" lon="8.913768080796501"><ele>238.0</ele><time>2026-04-11T09:31:29.999Z</time></trkpt><trkpt lat="40.6395580054223" lon="8.913901557997935"><ele>239.0</ele><time>2026-04-11T09:31:30.999Z</time></trkpt><trkpt lat="40.639605356413526" lon="8.914043377915053"><ele>240.0</ele><time>2026-04-11T09:31:31.999Z</time></trkpt><trkpt lat="40.63963187797098" lon="8.914124043631215"><ele>239.0</ele><time>2026-04-11T09:31:32.999Z</time></trkpt><trkpt lat="40.63968119564159" lon="8.914277199836507"><ele>238.0</ele><time>2026-04-11T09:31:33.999Z</time></trkpt><trkpt lat="40.639734128430284" lon="8.914441582765223"><ele>237.0</ele><time>2026-04-11T09:31:34.999Z</time></trkpt><trkpt lat="40.6397828472078" lon="8.914603717156869"><ele>236.0</ele><time>2026-04-11T09:31:35.999Z</time></trkpt><trkpt lat="40.63982558803844" lon="8.914750703724284"><ele>236.0</ele><time>2026-04-11T09:31:36.999Z</time></trkpt><trkpt lat="40.63986712613303" lon="8.914896078600357"><ele>236.0</ele><time>2026-04-11T09:31:37.999Z</time></trkpt><trkpt lat="40.639915412714515" lon="8.915068982793956"><ele>236.0</ele><time>2026-04-11T09:31:38.999Z</time></trkpt><trkpt lat="40.63996540173388" lon="8.915251676306472"><ele>236.0</ele><time>2026-04-11T09:31:39.999Z</time></trkpt><trkpt lat="40.64001342890051" lon="8.915429352903102"><ele>235.75</ele><time>2026-04-11T09:31:40.999Z</time></trkpt><trkpt lat="40.64005154327811" lon="8.915574092342439"><ele>235.5</ele><time>2026-04-11T09:31:41.998Z</time></trkpt><trkpt lat="40.64009777996888" lon="8.915753216734135"><ele>235.25</ele><time>2026-04-11T09:31:42.998Z</time></trkpt><trkpt lat="40.64013922280511" lon="8.915917101139993"><ele>235.0</ele><time>2026-04-11T09:31:43.998Z</time></trkpt><trkpt lat="40.64018574952494" lon="8.916112837664944"><ele>235.0</ele><time>2026-04-11T09:31:44.998Z</time></trkpt><trkpt lat="40.640229247671535" lon="8.916305394818089"><ele>235.0</ele><time>2026-04-11T09:31:45.998Z</time></trkpt><trkpt lat="40.64026904020908" lon="8.91648596829511"><ele>235.0</ele><time>2026-04-11T09:31:46.998Z</time></trkpt><trkpt lat="40.640305667299685" lon="8.916656193528409"><ele>235.0</ele><time>2026-04-11T09:31:47.998Z</time></trkpt><trkpt lat="40.64034726539579" lon="8.91685519642847"><ele>235.33333333333331</ele><time>2026-04-11T09:31:48.998Z</time></trkpt><trkpt lat="40.640389804838954" lon="8.917064749195113"><ele>235.66666666666669</ele><time>2026-04-11T09:31:49.998Z</time></trkpt><trkpt lat="40.640428461753665" lon="8.917259487102989"><ele>236.0</ele><time>2026-04-11T09:31:50.998Z</time></trkpt><trkpt lat="40.64046802260429" lon="8.9174587788326"><ele>236.0</ele><time>2026-04-11T09:31:51.998Z</time></trkpt><trkpt lat="40.64050586214265" lon="8.917649399146667"><ele>236.0</ele><time>2026-04-11T09:31:52.998Z</time></trkpt><trkpt lat="40.640540737999906" lon="8.917825089627945"><ele>236.0</ele><time>2026-04-11T09:31:53.998Z</time></trkpt><trkpt lat="40.64058052223785" lon="8.918024062708747"><ele>236.0</ele><time>2026-04-11T09:31:54.998Z</time></trkpt><trkpt lat="40.64061693831609" lon="8.918205431406847"><ele>236.0</ele><time>2026-04-11T09:31:55.998Z</time></trkpt><trkpt lat="40.640651736088" lon="8.918383519858072"><ele>236.0</ele><time>2026-04-11T09:31:56.998Z</time></trkpt><trkpt lat="40.64068605282456" lon="8.918564133559098"><ele>236.0</ele><time>2026-04-11T09:31:57.998Z</time></trkpt><trkpt lat="40.64072096999251" lon="8.91875354677151"><ele>236.0</ele><time>2026-04-11T09:31:58.998Z</time></trkpt><trkpt lat="40.6407514906826" lon="8.91893292672733"><ele>236.5</ele><time>2026-04-11T09:31:59.998Z</time></trkpt><trkpt lat="40.64077819797994" lon="8.91911467337811"><ele>237.0</ele><time>2026-04-11T09:32:00.998Z</time></trkpt><trkpt lat="40.64080105457884" lon="8.919305094111117"><ele>237.5</ele><time>2026-04-11T09:32:01.998Z</time></trkpt><trkpt lat="40.64082188511349" lon="8.919499934294809"><ele>238.0</ele><time>2026-04-11T09:32:02.998Z</time></trkpt><trkpt lat="40.64084373084501" lon="8.919695633095593"><ele>238.0</ele><time>2026-04-11T09:32:03.998Z</time></trkpt><trkpt lat="40.64086813067566" lon="8.919883041460482"><ele>238.0</ele><time>2026-04-11T09:32:04.998Z</time></trkpt><trkpt lat="40.6408958853296" lon="8.920081652982502"><ele>238.0</ele><time>2026-04-11T09:32:05.998Z</time></trkpt><trkpt lat="40.64092273754451" lon="8.920273807031574"><ele>238.0</ele><time>2026-04-11T09:32:06.998Z</time></trkpt><trkpt lat="40.640948840791346" lon="8.920460601362329"><ele>237.75</ele><time>2026-04-11T09:32:07.998Z</time></trkpt><trkpt lat="40.64096821030196" lon="8.920605569077216"><ele>237.5</ele><time>2026-04-11T09:32:08.998Z</time></trkpt><trkpt lat="40.64099089438571" lon="8.920804049314357"><ele>237.25</ele><time>2026-04-11T09:32:09.998Z</time></trkpt><trkpt lat="40.641008784174296" lon="8.921000011536101"><ele>237.0</ele><time>2026-04-11T09:32:10.998Z</time></trkpt><trkpt lat="40.64102191533103" lon="8.921190373701377"><ele>237.0</ele><time>2026-04-11T09:32:11.998Z</time></trkpt><trkpt lat="40.64103465349821" lon="8.921401291851987"><ele>237.0</ele><time>2026-04-11T09:32:12.998Z</time></trkpt><trkpt lat="40.64104606775408" lon="8.921600604004029"><ele>237.0</ele><time>2026-04-11T09:32:13.998Z</time></trkpt><trkpt lat="40.6410608664675" lon="8.921795446278454"><ele>236.5</ele><time>2026-04-11T09:32:14.998Z</time></trkpt><trkpt lat="40.64107568525987" lon="8.921984418029453"><ele>236.0</ele><time>2026-04-11T09:32:15.998Z</time></trkpt><trkpt lat="40.64108760105932" lon="8.922160520365159"><ele>235.5</ele><time>2026-04-11T09:32:16.998Z</time></trkpt><trkpt lat="40.641098709999845" lon="8.9223538121971"><ele>235.0</ele><time>2026-04-11T09:32:17.998Z</time></trkpt><trkpt lat="40.64110856316743" lon="8.92254782678515"><ele>235.0</ele><time>2026-04-11T09:32:18.998Z</time></trkpt><trkpt lat="40.64111611404918" lon="8.922714494374311"><ele>235.0</ele><time>2026-04-11T09:32:19.998Z</time></trkpt><trkpt lat="40.64112187413613" lon="8.922892128196954"><ele>235.0</ele><time>2026-04-11T09:32:20.998Z</time></trkpt><trkpt lat="40.64112562535654" lon="8.923041085248377"><ele>235.0</ele><time>2026-04-11T09:32:21.998Z</time></trkpt><trkpt lat="40.64112799071736" lon="8.923195688750617"><ele>235.0</ele><time>2026-04-11T09:32:22.998Z</time></trkpt><trkpt lat="40.64112998517675" lon="8.923361850896537"><ele>235.0</ele><time>2026-04-11T09:32:23.998Z</time></trkpt><trkpt lat="40.641130749081945" lon="8.923525463559436"><ele>235.0</ele><time>2026-04-11T09:32:24.998Z</time></trkpt><trkpt lat="40.641131465389016" lon="8.923678881555526"><ele>235.0</ele><time>2026-04-11T09:32:25.998Z</time></trkpt><trkpt lat="40.64113156275773" lon="8.923851726762608"><ele>234.75</ele><time>2026-04-11T09:32:26.998Z</time></trkpt><trkpt lat="40.64113122781637" lon="8.92401572962113"><ele>234.5</ele><time>2026-04-11T09:32:27.998Z</time></trkpt><trkpt lat="40.64113088887037" lon="8.924181693331176"><ele>234.25</ele><time>2026-04-11T09:32:28.998Z</time></trkpt><trkpt lat="40.64113052975409" lon="8.924357521554706"><ele>234.0</ele><time>2026-04-11T09:32:29.998Z</time></trkpt><trkpt lat="40.64113016758975" lon="8.924534844709491"><ele>234.0</ele><time>2026-04-11T09:32:30.998Z</time></trkpt><trkpt lat="40.641129786799134" lon="8.924721290456384"><ele>234.0</ele><time>2026-04-11T09:32:31.998Z</time></trkpt><trkpt lat="40.6411300057333" lon="8.924890463028754"><ele>234.0</ele><time>2026-04-11T09:32:32.998Z</time></trkpt><trkpt lat="40.641130287166035" lon="8.925049190457715"><ele>234.0</ele><time>2026-04-11T09:32:33.998Z</time></trkpt><trkpt lat="40.64113054422148" lon="8.925194195811176"><ele>234.0</ele><time>2026-04-11T09:32:34.998Z</time></trkpt><trkpt lat="40.641130722494545" lon="8.925325750162976"><ele>233.99999999999997</ele><time>2026-04-11T09:32:35.998Z</time></trkpt><trkpt lat="40.64113019483434" lon="8.9254516301534"><ele>233.99999999999997</ele><time>2026-04-11T09:32:36.998Z</time></trkpt><trkpt lat="40.64112964894452" lon="8.925567406994363"><ele>234.0</ele><time>2026-04-11T09:32:37.998Z</time></trkpt><trkpt lat="40.64112724899257" lon="8.925689787507002"><ele>234.0</ele><time>2026-04-11T09:32:38.998Z</time></trkpt><trkpt lat="40.64112358303365" lon="8.925795110741968"><ele>233.79999999999998</ele><time>2026-04-11T09:32:39.998Z</time></trkpt><trkpt lat="40.641115062680115" lon="8.925901080980722"><ele>233.59999999999997</ele><time>2026-04-11T09:32:40.998Z</time></trkpt><trkpt lat="40.6410961939667" lon="8.926015655720072"><ele>233.4</ele><time>2026-04-11T09:32:41.998Z</time></trkpt><trkpt lat="40.64107293418373" lon="8.92611767736301"><ele>233.2</ele><time>2026-04-11T09:32:42.998Z</time></trkpt><trkpt lat="40.64104772325859" lon="8.926271826460715"><ele>233.0</ele><time>2026-04-11T09:32:43.998Z</time></trkpt><trkpt lat="40.64107537347777" lon="8.926433137470022"><ele>232.5</ele><time>2026-04-11T09:32:44.998Z</time></trkpt><trkpt lat="40.64115713792375" lon="8.926571678289227"><ele>232.0</ele><time>2026-04-11T09:32:45.998Z</time></trkpt><trkpt lat="40.641231458326885" lon="8.926726549318325"><ele>231.5</ele><time>2026-04-11T09:32:46.998Z</time></trkpt><trkpt lat="40.641299822793194" lon="8.92687253120724"><ele>231.0</ele><time>2026-04-11T09:32:47.998Z</time></trkpt><trkpt lat="40.64137199931707" lon="8.927026652490413"><ele>230.33333333333331</ele><time>2026-04-11T09:32:48.998Z</time></trkpt><trkpt lat="40.64144191293769" lon="8.92717594249915"><ele>229.66666666666666</ele><time>2026-04-11T09:32:49.998Z</time></trkpt><trkpt lat="40.64152767148132" lon="8.927356535836843"><ele>229.0</ele><time>2026-04-11T09:32:50.998Z</time></trkpt><trkpt lat="40.641616520305746" lon="8.927542418264856"><ele>228.33333333333331</ele><time>2026-04-11T09:32:51.998Z</time></trkpt><trkpt lat="40.64170343622848" lon="8.927720167834908"><ele>227.66666666666669</ele><time>2026-04-11T09:32:52.998Z</time></trkpt><trkpt lat="40.64179717683649" lon="8.927910913770747"><ele>227.0</ele><time>2026-04-11T09:32:53.998Z</time></trkpt><trkpt lat="40.64188572491096" lon="8.928091093605188"><ele>227.0</ele><time>2026-04-11T09:32:54.998Z</time></trkpt><trkpt lat="40.64196176045483" lon="8.92824581269241"><ele>227.0</ele><time>2026-04-11T09:32:55.998Z</time></trkpt><trkpt lat="40.642028865296844" lon="8.928382359612216"><ele>227.0</ele><time>2026-04-11T09:32:56.998Z</time></trkpt><trkpt lat="40.64208476013948" lon="8.928496095647306"><ele>227.0</ele><time>2026-04-11T09:32:57.998Z</time></trkpt><trkpt lat="40.64212769734626" lon="8.928582217967929"><ele>227.0</ele><time>2026-04-11T09:32:58.998Z</time></trkpt><trkpt lat="40.64216621497601" lon="8.928659519293326"><ele>226.8</ele><time>2026-04-11T09:32:59.998Z</time></trkpt><trkpt lat="40.6422162741989" lon="8.928759983416587"><ele>226.6</ele><time>2026-04-11T09:33:00.998Z</time></trkpt><trkpt lat="40.64226604197813" lon="8.928859862639165"><ele>226.40000000000003</ele><time>2026-04-11T09:33:01.998Z</time></trkpt><trkpt lat="40.64231802482195" lon="8.928964187328464"><ele>226.20000000000002</ele><time>2026-04-11T09:33:02.998Z</time></trkpt><trkpt lat="40.642366739048505" lon="8.929063566137277"><ele>226.0</ele><time>2026-04-11T09:33:03.998Z</time></trkpt><trkpt lat="40.64242132812465" lon="8.929175411659095"><ele>226.0</ele><time>2026-04-11T09:33:04.998Z</time></trkpt><trkpt lat="40.642480227606725" lon="8.929296088743708"><ele>226.0</ele><time>2026-04-11T09:33:05.998Z</time></trkpt><trkpt lat="40.64253738740598" lon="8.929413201327637"><ele>226.0</ele><time>2026-04-11T09:33:06.998Z</time></trkpt><trkpt lat="40.64259393724402" lon="8.929530447602023"><ele>226.0</ele><time>2026-04-11T09:33:07.997Z</time></trkpt><trkpt lat="40.64266225162313" lon="8.929685253188891"><ele>225.99999999999997</ele><time>2026-04-11T09:33:08.997Z</time></trkpt><trkpt lat="40.64269841568519" lon="8.92978463339959"><ele>226.0</ele><time>2026-04-11T09:33:09.997Z</time></trkpt><trkpt lat="40.64273310267898" lon="8.929913708265758"><ele>226.0</ele><time>2026-04-11T09:33:10.997Z</time></trkpt><trkpt lat="40.642753945393174" lon="8.930023756127408"><ele>226.0</ele><time>2026-04-11T09:33:11.997Z</time></trkpt><trkpt lat="40.64276613208971" lon="8.930116402045366"><ele>225.99999999999997</ele><time>2026-04-11T09:33:12.997Z</time></trkpt><trkpt lat="40.64277519806007" lon="8.930214547596744"><ele>226.0</ele><time>2026-04-11T09:33:13.997Z</time></trkpt><trkpt lat="40.64278261900395" lon="8.930308694365436"><ele>225.66666666666666</ele><time>2026-04-11T09:33:14.997Z</time></trkpt><trkpt lat="40.64279667823168" lon="8.93042648745547"><ele>225.33333333333331</ele><time>2026-04-11T09:33:16.997Z</time></trkpt><trkpt lat="40.64278445985245" lon="8.930510098943753"><ele>225.0</ele><time>2026-04-11T09:33:17.997Z</time></trkpt><trkpt lat="40.642754985552656" lon="8.930585901823356"><ele>224.66666666666669</ele><time>2026-04-11T09:33:18.997Z</time></trkpt><trkpt lat="40.64270069533083" lon="8.930642821503357"><ele>224.33333333333334</ele><time>2026-04-11T09:33:19.997Z</time></trkpt><trkpt lat="40.64262848890379" lon="8.930731497668264"><ele>224.0</ele><time>2026-04-11T09:33:20.997Z</time></trkpt><trkpt lat="40.64251558220742" lon="8.930807048381668"><ele>224.0</ele><time>2026-04-11T09:33:22.997Z</time></trkpt><trkpt lat="40.642439312535885" lon="8.93084945295541"><ele>223.99999999999997</ele><time>2026-04-11T09:33:28.997Z</time></trkpt><trkpt lat="40.64238363866709" lon="8.930903081947422"><ele>223.99999999999997</ele><time>2026-04-11T09:33:29.997Z</time></trkpt><trkpt lat="40.64238399445895" lon="8.931008752456856"><ele>224.0</ele><time>2026-04-11T09:33:30.997Z</time></trkpt><trkpt lat="40.642384459697105" lon="8.931146928518158"><ele>224.0</ele><time>2026-04-11T09:33:31.997Z</time></trkpt><trkpt lat="40.64238496875527" lon="8.93129811890028"><ele>223.25</ele><time>2026-04-11T09:33:32.997Z</time></trkpt><trkpt lat="40.64238550073813" lon="8.931456118976238"><ele>222.5</ele><time>2026-04-11T09:33:33.997Z</time></trkpt><trkpt lat="40.642386031711595" lon="8.931613818335201"><ele>221.75</ele><time>2026-04-11T09:33:34.997Z</time></trkpt><trkpt lat="40.642386593032136" lon="8.93178053106947"><ele>221.0</ele><time>2026-04-11T09:33:35.997Z</time></trkpt><trkpt lat="40.64238690218179" lon="8.931951005739679"><ele>221.0</ele><time>2026-04-11T09:33:36.997Z</time></trkpt><trkpt lat="40.64238756504192" lon="8.932135330585323"><ele>221.0</ele><time>2026-04-11T09:33:37.997Z</time></trkpt><trkpt lat="40.642388161447194" lon="8.932301175701367"><ele>221.0</ele><time>2026-04-11T09:33:38.997Z</time></trkpt><trkpt lat="40.6423888112738" lon="8.932481876341031"><ele>221.0</ele><time>2026-04-11T09:33:39.997Z</time></trkpt><trkpt lat="40.64238952307772" lon="8.932679811062885"><ele>221.0</ele><time>2026-04-11T09:33:40.997Z</time></trkpt><trkpt lat="40.64239014710806" lon="8.93285333832952"><ele>221.0</ele><time>2026-04-11T09:33:41.997Z</time></trkpt><trkpt lat="40.64239074881284" lon="8.933020657117325"><ele>221.0</ele><time>2026-04-11T09:33:42.997Z</time></trkpt><trkpt lat="40.64239132911979" lon="8.93318196537983"><ele>221.0</ele><time>2026-04-11T09:33:43.997Z</time></trkpt><trkpt lat="40.64239192144118" lon="8.933370639541915"><ele>220.75</ele><time>2026-04-11T09:33:44.997Z</time></trkpt><trkpt lat="40.64239238947921" lon="8.93356763544515"><ele>220.5</ele><time>2026-04-11T09:33:45.997Z</time></trkpt><trkpt lat="40.64239282583744" lon="8.93375129778614"><ele>220.25</ele><time>2026-04-11T09:33:46.997Z</time></trkpt><trkpt lat="40.6423932916319" lon="8.933947349100603"><ele>220.0</ele><time>2026-04-11T09:33:47.997Z</time></trkpt><trkpt lat="40.642393698304296" lon="8.934118516041966"><ele>219.66666666666666</ele><time>2026-04-11T09:33:48.997Z</time></trkpt><trkpt lat="40.64239896453951" lon="8.934347191396748"><ele>219.33333333333331</ele><time>2026-04-11T09:33:49.997Z</time></trkpt><trkpt lat="40.642394673612166" lon="8.934529020407261"><ele>219.0</ele><time>2026-04-11T09:33:50.997Z</time></trkpt><trkpt lat="40.642398426521694" lon="8.934717133224032"><ele>219.0</ele><time>2026-04-11T09:33:51.997Z</time></trkpt><trkpt lat="40.642409579561445" lon="8.93490926586416"><ele>219.0</ele><time>2026-04-11T09:33:52.997Z</time></trkpt><trkpt lat="40.64244283501768" lon="8.935088943358455"><ele>219.0</ele><time>2026-04-11T09:33:53.997Z</time></trkpt><trkpt lat="40.64245244540159" lon="8.935289062896977"><ele>219.0</ele><time>2026-04-11T09:33:54.997Z</time></trkpt><trkpt lat="40.64249116314847" lon="8.935477822411565"><ele>218.66666666666669</ele><time>2026-04-11T09:33:55.997Z</time></trkpt><trkpt lat="40.64254336412727" lon="8.935693980859067"><ele>218.33333333333334</ele><time>2026-04-11T09:33:56.997Z</time></trkpt><trkpt lat="40.64256939208961" lon="8.935917466405659"><ele>218.0</ele><time>2026-04-11T09:33:57.997Z</time></trkpt><trkpt lat="40.64261032882346" lon="8.936147231071011"><ele>218.0</ele><time>2026-04-11T09:33:58.997Z</time></trkpt><trkpt lat="40.642649129993366" lon="8.936358864530005"><ele>218.0</ele><time>2026-04-11T09:33:59.997Z</time></trkpt><trkpt lat="40.642689618315366" lon="8.936579700353747"><ele>218.0</ele><time>2026-04-11T09:34:00.997Z</time></trkpt><trkpt lat="40.64273355180665" lon="8.936819326986766"><ele>217.33333333333334</ele><time>2026-04-11T09:34:01.997Z</time></trkpt><trkpt lat="40.642777269064766" lon="8.937057774588762"><ele>216.66666666666669</ele><time>2026-04-11T09:34:02.997Z</time></trkpt><trkpt lat="40.64281645196059" lon="8.937271490434076"><ele>216.0</ele><time>2026-04-11T09:34:03.997Z</time></trkpt><trkpt lat="40.642857994576104" lon="8.937498076472249"><ele>217.0</ele><time>2026-04-11T09:34:04.997Z</time></trkpt><trkpt lat="40.642897030692964" lon="8.937710991562277"><ele>218.0</ele><time>2026-04-11T09:34:05.997Z</time></trkpt><trkpt lat="40.6429393020198" lon="8.937941552261988"><ele>219.0</ele><time>2026-04-11T09:34:06.997Z</time></trkpt><trkpt lat="40.64298116035199" lon="8.938161319533918"><ele>217.66666666666669</ele><time>2026-04-11T09:34:07.997Z</time></trkpt><trkpt lat="40.643039057815166" lon="8.9383946601753"><ele>216.33333333333334</ele><time>2026-04-11T09:34:08.997Z</time></trkpt><trkpt lat="40.64308773607074" lon="8.938626915091138"><ele>215.0</ele><time>2026-04-11T09:34:09.997Z</time></trkpt><trkpt lat="40.643131347578745" lon="8.938852679466073"><ele>215.0</ele><time>2026-04-11T09:34:10.997Z</time></trkpt><trkpt lat="40.64319086079992" lon="8.939062904291012"><ele>215.0</ele><time>2026-04-11T09:34:11.997Z</time></trkpt><trkpt lat="40.6432646031157" lon="8.939269395433564"><ele>215.0</ele><time>2026-04-11T09:34:12.997Z</time></trkpt><trkpt lat="40.64335415625189" lon="8.939481133386371"><ele>214.33333333333334</ele><time>2026-04-11T09:34:13.997Z</time></trkpt><trkpt lat="40.64345977533507" lon="8.93968661099801"><ele>213.66666666666669</ele><time>2026-04-11T09:34:14.997Z</time></trkpt><trkpt lat="40.64353368409135" lon="8.93988797078587"><ele>213.0</ele><time>2026-04-11T09:34:15.997Z</time></trkpt><trkpt lat="40.6436437391084" lon="8.940077673149698"><ele>212.66666666666669</ele><time>2026-04-11T09:34:16.997Z</time></trkpt><trkpt lat="40.64374291286473" lon="8.940268070275337"><ele>212.33333333333334</ele><time>2026-04-11T09:34:17.997Z</time></trkpt><trkpt lat="40.643846643388976" lon="8.940491927123938"><ele>212.0</ele><time>2026-04-11T09:34:18.997Z</time></trkpt><trkpt lat="40.64395688886311" lon="8.940697625876684"><ele>211.66666666666669</ele><time>2026-04-11T09:34:19.997Z</time></trkpt><trkpt lat="40.64406207382108" lon="8.940893882706485"><ele>211.33333333333331</ele><time>2026-04-11T09:34:20.997Z</time></trkpt><trkpt lat="40.64416719639876" lon="8.941090023299742"><ele>211.0</ele><time>2026-04-11T09:34:21.997Z</time></trkpt><trkpt lat="40.644271151436214" lon="8.941283985143523"><ele>211.0</ele><time>2026-04-11T09:34:22.997Z</time></trkpt><trkpt lat="40.64436573114318" lon="8.941460454349528"><ele>211.0</ele><time>2026-04-11T09:34:23.997Z</time></trkpt><trkpt lat="40.64446604496358" lon="8.941647622355507"><ele>211.0</ele><time>2026-04-11T09:34:24.997Z</time></trkpt><trkpt lat="40.6445593841615" lon="8.941821777034766"><ele>211.33333333333331</ele><time>2026-04-11T09:34:25.997Z</time></trkpt><trkpt lat="40.64465268993769" lon="8.941996090580766"><ele>211.66666666666669</ele><time>2026-04-11T09:34:26.997Z</time></trkpt><trkpt lat="40.64475070238427" lon="8.942179229451822"><ele>212.0</ele><time>2026-04-11T09:34:27.997Z</time></trkpt><trkpt lat="40.6448494543498" lon="8.942363749431642"><ele>212.0</ele><time>2026-04-11T09:34:28.997Z</time></trkpt><trkpt lat="40.64494392016105" lon="8.942542941485298"><ele>212.0</ele><time>2026-04-11T09:34:29.997Z</time></trkpt><trkpt lat="40.64503643328813" lon="8.94271968399875"><ele>212.0</ele><time>2026-04-11T09:34:30.997Z</time></trkpt><trkpt lat="40.64512781007674" lon="8.94289425622918"><ele>211.6</ele><time>2026-04-11T09:34:31.997Z</time></trkpt><trkpt lat="40.6451912322818" lon="8.943036434144474"><ele>211.2</ele><time>2026-04-11T09:34:32.997Z</time></trkpt><trkpt lat="40.645250369806696" lon="8.943167325595084"><ele>210.8</ele><time>2026-04-11T09:34:33.997Z</time></trkpt><trkpt lat="40.645298831213225" lon="8.943280054709694"><ele>210.4</ele><time>2026-04-11T09:34:34.996Z</time></trkpt><trkpt lat="40.645330476892745" lon="8.94335402603674"><ele>210.0</ele><time>2026-04-11T09:34:35.996Z</time></trkpt><trkpt lat="40.64532761846796" lon="8.943500945201938"><ele>209.83333333333334</ele><time>2026-04-11T09:34:39.996Z</time></trkpt><trkpt lat="40.645320851530805" lon="8.943589327944869"><ele>209.66666666666669</ele><time>2026-04-11T09:34:40.996Z</time></trkpt><trkpt lat="40.64529476330251" lon="8.943671274692672"><ele>209.5</ele><time>2026-04-11T09:34:41.996Z</time></trkpt><trkpt lat="40.64527133921769" lon="8.943762496512901"><ele>209.33333333333334</ele><time>2026-04-11T09:34:42.996Z</time></trkpt><trkpt lat="40.64524170348137" lon="8.94388072016253"><ele>209.16666666666669</ele><time>2026-04-11T09:34:43.996Z</time></trkpt><trkpt lat="40.64521628481226" lon="8.943999685575092"><ele>209.0</ele><time>2026-04-11T09:34:44.996Z</time></trkpt><trkpt lat="40.645186241785744" lon="8.944124064219345"><ele>208.39999999999998</ele><time>2026-04-11T09:34:45.996Z</time></trkpt><trkpt lat="40.645154007012664" lon="8.944256546036616"><ele>207.8</ele><time>2026-04-11T09:34:46.996Z</time></trkpt><trkpt lat="40.64512254274644" lon="8.944379977856112"><ele>207.2</ele><time>2026-04-11T09:34:47.996Z</time></trkpt><trkpt lat="40.645086949734" lon="8.944509432591866"><ele>206.60000000000002</ele><time>2026-04-11T09:34:48.996Z</time></trkpt><trkpt lat="40.64504449776149" lon="8.944652716091708"><ele>206.0</ele><time>2026-04-11T09:34:49.996Z</time></trkpt><trkpt lat="40.645007616895455" lon="8.944774160743503"><ele>206.0</ele><time>2026-04-11T09:34:50.996Z</time></trkpt><trkpt lat="40.64497991882851" lon="8.944976578848783"><ele>206.0</ele><time>2026-04-11T09:34:52.996Z</time></trkpt><trkpt lat="40.644930911315534" lon="8.945116252921114"><ele>206.0</ele><time>2026-04-11T09:34:53.996Z</time></trkpt><trkpt lat="40.644894946182085" lon="8.945262487578109"><ele>206.0</ele><time>2026-04-11T09:34:54.996Z</time></trkpt><trkpt lat="40.644882367685625" lon="8.945368208775772"><ele>205.8</ele><time>2026-04-11T09:34:55.996Z</time></trkpt><trkpt lat="40.644883171958" lon="8.945475534113802"><ele>205.60000000000002</ele><time>2026-04-11T09:34:56.996Z</time></trkpt><trkpt lat="40.6448432649675" lon="8.94558958938703"><ele>205.4</ele><time>2026-04-11T09:34:57.996Z</time></trkpt><trkpt lat="40.644800814120714" lon="8.94571441886944"><ele>205.2</ele><time>2026-04-11T09:34:58.996Z</time></trkpt><trkpt lat="40.644754141846136" lon="8.945840391886266"><ele>205.0</ele><time>2026-04-11T09:34:59.996Z</time></trkpt><trkpt lat="40.64471360520596" lon="8.945949754850508"><ele>205.0</ele><time>2026-04-11T09:35:00.996Z</time></trkpt><trkpt lat="40.64467057811777" lon="8.946086670773358"><ele>205.0</ele><time>2026-04-11T09:35:01.996Z</time></trkpt><trkpt lat="40.644633532018815" lon="8.946221255881488"><ele>205.0</ele><time>2026-04-11T09:35:02.996Z</time></trkpt><trkpt lat="40.64459526819938" lon="8.946371249689687"><ele>205.0</ele><time>2026-04-11T09:35:03.996Z</time></trkpt><trkpt lat="40.644570038419204" lon="8.946525164601264"><ele>205.0</ele><time>2026-04-11T09:35:04.996Z</time></trkpt><trkpt lat="40.6445367587734" lon="8.946656652578998"><ele>205.0</ele><time>2026-04-11T09:35:05.996Z</time></trkpt><trkpt lat="40.64449383313362" lon="8.946746136696998"><ele>205.0</ele><time>2026-04-11T09:35:06.996Z</time></trkpt><trkpt lat="40.644470323690705" lon="8.946866594404336"><ele>205.0</ele><time>2026-04-11T09:35:07.996Z</time></trkpt><trkpt lat="40.64441395411714" lon="8.946952570180278"><ele>205.0</ele><time>2026-04-11T09:35:08.996Z</time></trkpt><trkpt lat="40.644365006838306" lon="8.94704287767126"><ele>205.4</ele><time>2026-04-11T09:35:09.996Z</time></trkpt><trkpt lat="40.644306174023185" lon="8.947138893489184"><ele>205.8</ele><time>2026-04-11T09:35:10.996Z</time></trkpt><trkpt lat="40.64425192812852" lon="8.947225634616688"><ele>206.2</ele><time>2026-04-11T09:35:11.996Z</time></trkpt><trkpt lat="40.64419441524342" lon="8.947338590154658"><ele>206.6</ele><time>2026-04-11T09:35:12.996Z</time></trkpt><trkpt lat="40.64413445937791" lon="8.947481948291372"><ele>207.0</ele><time>2026-04-11T09:35:13.996Z</time></trkpt><trkpt lat="40.64408689219255" lon="8.947620975998229"><ele>207.0</ele><time>2026-04-11T09:35:14.996Z</time></trkpt><trkpt lat="40.644051850428106" lon="8.947731043540777"><ele>207.0</ele><time>2026-04-11T09:35:15.996Z</time></trkpt><trkpt lat="40.644016552315755" lon="8.94784033433346"><ele>207.0</ele><time>2026-04-11T09:35:16.996Z</time></trkpt><trkpt lat="40.64398268716384" lon="8.94794374847099"><ele>207.0</ele><time>2026-04-11T09:35:17.996Z</time></trkpt><trkpt lat="40.64395643239389" lon="8.948023923030206"><ele>207.0</ele><time>2026-04-11T09:35:18.997Z</time></trkpt><trkpt lat="40.643921659263846" lon="8.948131924920808"><ele>207.0</ele><time>2026-04-11T09:35:19.997Z</time></trkpt><trkpt lat="40.64388915574621" lon="8.948233176417737"><ele>207.0</ele><time>2026-04-11T09:35:20.997Z</time></trkpt><trkpt lat="40.64385387095815" lon="8.948351017240817"><ele>207.0</ele><time>2026-04-11T09:35:21.997Z</time></trkpt><trkpt lat="40.64381865445065" lon="8.948466709251035"><ele>207.0</ele><time>2026-04-11T09:35:22.997Z</time></trkpt><trkpt lat="40.64377326418169" lon="8.948594108093786"><ele>207.0</ele><time>2026-04-11T09:35:23.997Z</time></trkpt><trkpt lat="40.643727689060455" lon="8.948713383939388"><ele>207.0</ele><time>2026-04-11T09:35:24.997Z</time></trkpt><trkpt lat="40.64368361555624" lon="8.948827230522742"><ele>207.0</ele><time>2026-04-11T09:35:25.997Z</time></trkpt><trkpt lat="40.643634192692964" lon="8.948957297338698"><ele>207.0</ele><time>2026-04-11T09:35:26.997Z</time></trkpt><trkpt lat="40.643588722327245" lon="8.949082825862215"><ele>207.0</ele><time>2026-04-11T09:35:27.997Z</time></trkpt><trkpt lat="40.64355382313824" lon="8.949183312710147"><ele>207.0</ele><time>2026-04-11T09:35:28.997Z</time></trkpt><trkpt lat="40.64351454163529" lon="8.949296417810231"><ele>207.0</ele><time>2026-04-11T09:35:29.997Z</time></trkpt><trkpt lat="40.643472879738766" lon="8.94942375685656"><ele>207.0</ele><time>2026-04-11T09:35:30.997Z</time></trkpt><trkpt lat="40.64343566809125" lon="8.949540983273776"><ele>207.0</ele><time>2026-04-11T09:35:31.997Z</time></trkpt><trkpt lat="40.64340270759618" lon="8.949646684732087"><ele>207.0</ele><time>2026-04-11T09:35:32.997Z</time></trkpt><trkpt lat="40.64336730429632" lon="8.94976022006082"><ele>207.0</ele><time>2026-04-11T09:35:33.997Z</time></trkpt><trkpt lat="40.643328432749" lon="8.949874081489057"><ele>207.0</ele><time>2026-04-11T09:35:34.997Z</time></trkpt><trkpt lat="40.64328814250289" lon="8.949983598254429"><ele>206.39999999999998</ele><time>2026-04-11T09:35:35.997Z</time></trkpt><trkpt lat="40.64324783626556" lon="8.950077442516706"><ele>205.79999999999998</ele><time>2026-04-11T09:35:36.997Z</time></trkpt><trkpt lat="40.64319492572899" lon="8.950190072135838"><ele>205.2</ele><time>2026-04-11T09:35:37.997Z</time></trkpt><trkpt lat="40.64313480024897" lon="8.950314246759804"><ele>204.6</ele><time>2026-04-11T09:35:38.997Z</time></trkpt><trkpt lat="40.64307508228328" lon="8.950431848342706"><ele>204.0</ele><time>2026-04-11T09:35:39.997Z</time></trkpt><trkpt lat="40.643027206289815" lon="8.950528947725406"><ele>204.0</ele><time>2026-04-11T09:35:40.997Z</time></trkpt><trkpt lat="40.64297100853714" lon="8.950655021124662"><ele>204.0</ele><time>2026-04-11T09:35:41.997Z</time></trkpt><trkpt lat="40.64292987097584" lon="8.9507476042287"><ele>204.0</ele><time>2026-04-11T09:35:42.997Z</time></trkpt><trkpt lat="40.64288759488209" lon="8.950841928454352"><ele>204.0</ele><time>2026-04-11T09:35:43.997Z</time></trkpt><trkpt lat="40.64282683558289" lon="8.950969170309977"><ele>204.0</ele><time>2026-04-11T09:35:44.997Z</time></trkpt><trkpt lat="40.64277162039157" lon="8.951073434131153"><ele>204.2</ele><time>2026-04-11T09:35:45.997Z</time></trkpt><trkpt lat="40.64270738988004" lon="8.95116467613995"><ele>204.39999999999998</ele><time>2026-04-11T09:35:46.997Z</time></trkpt><trkpt lat="40.64264391339092" lon="8.951242077150015"><ele>204.6</ele><time>2026-04-11T09:35:47.997Z</time></trkpt><trkpt lat="40.64256158110523" lon="8.95133641842003"><ele>204.8</ele><time>2026-04-11T09:35:48.997Z</time></trkpt><trkpt lat="40.64247120548878" lon="8.951433035412418"><ele>205.0</ele><time>2026-04-11T09:35:49.997Z</time></trkpt><trkpt lat="40.642411380772515" lon="8.951496973753027"><ele>205.0</ele><time>2026-04-11T09:35:50.997Z</time></trkpt><trkpt lat="40.64233452299859" lon="8.95156788919375"><ele>205.0</ele><time>2026-04-11T09:35:51.997Z</time></trkpt><trkpt lat="40.64223955518059" lon="8.951644587097851"><ele>205.0</ele><time>2026-04-11T09:35:52.997Z</time></trkpt><trkpt lat="40.64212848275596" lon="8.951732096948762"><ele>205.0</ele><time>2026-04-11T09:35:53.997Z</time></trkpt><trkpt lat="40.642026423989094" lon="8.951826384030673"><ele>204.8</ele><time>2026-04-11T09:35:54.997Z</time></trkpt><trkpt lat="40.641933419567714" lon="8.951883607913013"><ele>204.6</ele><time>2026-04-11T09:35:55.997Z</time></trkpt><trkpt lat="40.64184163526998" lon="8.951939840558316"><ele>204.39999999999998</ele><time>2026-04-11T09:35:56.997Z</time></trkpt><trkpt lat="40.64177041496934" lon="8.951970521941078"><ele>204.2</ele><time>2026-04-11T09:35:57.997Z</time></trkpt><trkpt lat="40.6416876259666" lon="8.952013037797592"><ele>204.0</ele><time>2026-04-11T09:35:58.997Z</time></trkpt><trkpt lat="40.64160983412449" lon="8.952055959701486"><ele>204.0</ele><time>2026-04-11T09:35:59.997Z</time></trkpt><trkpt lat="40.64154154022239" lon="8.952115645418374"><ele>204.0</ele><time>2026-04-11T09:36:00.996Z</time></trkpt><trkpt lat="40.64146074526537" lon="8.952167196888622"><ele>204.0</ele><time>2026-04-11T09:36:01.996Z</time></trkpt><trkpt lat="40.64139069609584" lon="8.95223808049974"><ele>204.0</ele><time>2026-04-11T09:36:02.996Z</time></trkpt><trkpt lat="40.641330408575534" lon="8.952318392299482"><ele>204.0</ele><time>2026-04-11T09:36:03.996Z</time></trkpt><trkpt lat="40.64127332001091" lon="8.952399025249008"><ele>204.0</ele><time>2026-04-11T09:36:04.996Z</time></trkpt><trkpt lat="40.64121544245398" lon="8.952454027673328"><ele>204.0</ele><time>2026-04-11T09:36:05.996Z</time></trkpt><trkpt lat="40.641103566049615" lon="8.952541694417388"><ele>204.0</ele><time>2026-04-11T09:36:07.996Z</time></trkpt><trkpt lat="40.64104290531209" lon="8.952605268021381"><ele>204.0</ele><time>2026-04-11T09:36:08.996Z</time></trkpt><trkpt lat="40.64098798958495" lon="8.952693278870914"><ele>204.0</ele><time>2026-04-11T09:36:09.996Z</time></trkpt><trkpt lat="40.64091088604349" lon="8.95272198245921"><ele>204.0</ele><time>2026-04-11T09:36:10.996Z</time></trkpt><trkpt lat="40.64085583805981" lon="8.952778638645476"><ele>204.0</ele><time>2026-04-11T09:36:11.996Z</time></trkpt><trkpt lat="40.64078404867189" lon="8.952784783974904"><ele>204.0</ele><time>2026-04-11T09:36:12.996Z</time></trkpt><trkpt lat="40.64070499684503" lon="8.952812714197169"><ele>204.0</ele><time>2026-04-11T09:36:13.996Z</time></trkpt><trkpt lat="40.640595819271425" lon="8.952852006677126"><ele>204.0</ele><time>2026-04-11T09:36:14.996Z</time></trkpt><trkpt lat="40.64049292350148" lon="8.952869790949942"><ele>204.0</ele><time>2026-04-11T09:36:15.996Z</time></trkpt><trkpt lat="40.64037968492568" lon="8.952900023821735"><ele>204.0</ele><time>2026-04-11T09:36:16.996Z</time></trkpt><trkpt lat="40.64026693491315" lon="8.95294228765212"><ele>203.75</ele><time>2026-04-11T09:36:17.996Z</time></trkpt><trkpt lat="40.64016801175765" lon="8.95295511503459"><ele>203.5</ele><time>2026-04-11T09:36:18.996Z</time></trkpt><trkpt lat="40.64006549466317" lon="8.95299601424781"><ele>203.25</ele><time>2026-04-11T09:36:19.996Z</time></trkpt><trkpt lat="40.63994467262557" lon="8.953046512432028"><ele>203.0</ele><time>2026-04-11T09:36:20.996Z</time></trkpt><trkpt lat="40.63981003204153" lon="8.953093150410643"><ele>203.0</ele><time>2026-04-11T09:36:21.996Z</time></trkpt><trkpt lat="40.63970189296927" lon="8.953144596942282"><ele>203.0</ele><time>2026-04-11T09:36:22.996Z</time></trkpt><trkpt lat="40.63958602068923" lon="8.953185973536147"><ele>203.0</ele><time>2026-04-11T09:36:23.996Z</time></trkpt><trkpt lat="40.6395005301932" lon="8.953227135079565"><ele>203.0</ele><time>2026-04-11T09:36:24.996Z</time></trkpt><trkpt lat="40.63942786259001" lon="8.953268477751807"><ele>203.0</ele><time>2026-04-11T09:36:25.996Z</time></trkpt><trkpt lat="40.63936005052455" lon="8.953306571372941"><ele>202.60000000000002</ele><time>2026-04-11T09:36:26.996Z</time></trkpt><trkpt lat="40.639298486584416" lon="8.95332844343435"><ele>202.20000000000002</ele><time>2026-04-11T09:36:27.996Z</time></trkpt><trkpt lat="40.639239341763684" lon="8.9533891423789"><ele>201.8</ele><time>2026-04-11T09:36:28.996Z</time></trkpt><trkpt lat="40.639160839199256" lon="8.953536588353334"><ele>201.4</ele><time>2026-04-11T09:36:30.996Z</time></trkpt><trkpt lat="40.63909888199432" lon="8.953622371306373"><ele>201.0</ele><time>2026-04-11T09:36:31.996Z</time></trkpt><trkpt lat="40.63906227865701" lon="8.953731001922037"><ele>201.0</ele><time>2026-04-11T09:36:32.996Z</time></trkpt><trkpt lat="40.63904067443825" lon="8.953845949248091"><ele>201.0</ele><time>2026-04-11T09:36:33.996Z</time></trkpt><trkpt lat="40.63903208593658" lon="8.953945232896864"><ele>201.0</ele><time>2026-04-11T09:36:34.996Z</time></trkpt><trkpt lat="40.63902892112879" lon="8.954049978318347"><ele>201.0</ele><time>2026-04-11T09:36:36.996Z</time></trkpt><trkpt lat="40.63909749196409" lon="8.954029323759977"><ele>201.0</ele><time>2026-04-11T09:36:41.001Z</time></trkpt><trkpt lat="40.63917491247002" lon="8.953980937633439"><ele>201.0</ele><time>2026-04-11T09:36:42.001Z</time></trkpt><trkpt lat="40.6392681846284" lon="8.9539225658506"><ele>201.0</ele><time>2026-04-11T09:36:43.001Z</time></trkpt><trkpt lat="40.63936952442945" lon="8.953844012901152"><ele>201.0</ele><time>2026-04-11T09:36:44.001Z</time></trkpt><trkpt lat="40.639489562351315" lon="8.953780281959078"><ele>201.0</ele><time>2026-04-11T09:36:45.001Z</time></trkpt><trkpt lat="40.63961457372587" lon="8.953706389407449"><ele>201.0</ele><time>2026-04-11T09:36:46.001Z</time></trkpt><trkpt lat="40.639742115223235" lon="8.95363100133665"><ele>201.0</ele><time>2026-04-11T09:36:47.001Z</time></trkpt><trkpt lat="40.63987232154194" lon="8.953556392132175"><ele>201.0</ele><time>2026-04-11T09:36:48.001Z</time></trkpt><trkpt lat="40.64000405439131" lon="8.953480878927907"><ele>201.0</ele><time>2026-04-11T09:36:49.001Z</time></trkpt><trkpt lat="40.64013755342722" lon="8.953404353250244"><ele>201.0</ele><time>2026-04-11T09:36:50.001Z</time></trkpt><trkpt lat="40.64026983839781" lon="8.953327266553055"><ele>201.75</ele><time>2026-04-11T09:36:51.001Z</time></trkpt><trkpt lat="40.640393964455455" lon="8.953254045180557"><ele>202.5</ele><time>2026-04-11T09:36:52.001Z</time></trkpt><trkpt lat="40.64051104009884" lon="8.953184982834019"><ele>203.25</ele><time>2026-04-11T09:36:53.001Z</time></trkpt><trkpt lat="40.64062624970866" lon="8.953117021218244"><ele>204.0</ele><time>2026-04-11T09:36:54Z</time></trkpt><trkpt lat="40.640733578700065" lon="8.953053771800715"><ele>204.0</ele><time>2026-04-11T09:36:55Z</time></trkpt><trkpt lat="40.640831350308176" lon="8.952997382042808"><ele>204.0</ele><time>2026-04-11T09:36:56Z</time></trkpt><trkpt lat="40.640909702385436" lon="8.952952192497193"><ele>204.0</ele><time>2026-04-11T09:36:57Z</time></trkpt><trkpt lat="40.64096941838247" lon="8.952917751220113"><ele>204.0</ele><time>2026-04-11T09:36:58Z</time></trkpt><trkpt lat="40.641082342618255" lon="8.95285262224645"><ele>204.0</ele><time>2026-04-11T09:37:00Z</time></trkpt><trkpt lat="40.64114425371806" lon="8.952816914970578"><ele>204.0</ele><time>2026-04-11T09:37:01Z</time></trkpt><trkpt lat="40.641215565921144" lon="8.952775787299572"><ele>203.83333333333334</ele><time>2026-04-11T09:37:02Z</time></trkpt><trkpt lat="40.64129282368618" lon="8.952730193587048"><ele>203.66666666666669</ele><time>2026-04-11T09:37:03Z</time></trkpt><trkpt lat="40.641366132597696" lon="8.952687255117032"><ele>203.5</ele><time>2026-04-11T09:37:04Z</time></trkpt><trkpt lat="40.64142867468626" lon="8.9526506229918"><ele>203.33333333333334</ele><time>2026-04-11T09:37:05Z</time></trkpt><trkpt lat="40.64153449982859" lon="8.952604281189219"><ele>203.16666666666669</ele><time>2026-04-11T09:37:07Z</time></trkpt><trkpt lat="40.64156033431352" lon="8.952697254235884"><ele>203.0</ele><time>2026-04-11T09:37:08Z</time></trkpt><trkpt lat="40.64159156127266" lon="8.952809852394596"><ele>203.0</ele><time>2026-04-11T09:37:09Z</time></trkpt><trkpt lat="40.641624543568746" lon="8.952929049451123"><ele>203.0</ele><time>2026-04-11T09:37:10Z</time></trkpt><trkpt lat="40.64166080529346" lon="8.953060098337925"><ele>203.0</ele><time>2026-04-11T09:37:11Z</time></trkpt><trkpt lat="40.64170456458828" lon="8.95320512935077"><ele>203.0</ele><time>2026-04-11T09:37:12Z</time></trkpt><trkpt lat="40.64175315802514" lon="8.953358332632517"><ele>203.0</ele><time>2026-04-11T09:37:13Z</time></trkpt><trkpt lat="40.64180179796455" lon="8.953511682473252"><ele>202.25</ele><time>2026-04-11T09:37:14Z</time></trkpt><trkpt lat="40.64188195483056" lon="8.95365383110782"><ele>201.5</ele><time>2026-04-11T09:37:15Z</time></trkpt><trkpt lat="40.64193603482793" lon="8.953814891021793"><ele>200.75</ele><time>2026-04-11T09:37:16Z</time></trkpt><trkpt lat="40.641991030090004" lon="8.953983349216319"><ele>200.0</ele><time>2026-04-11T09:37:17Z</time></trkpt><trkpt lat="40.64204745002976" lon="8.954155042577181"><ele>199.5</ele><time>2026-04-11T09:37:18Z</time></trkpt><trkpt lat="40.642105016130245" lon="8.954329711745322"><ele>199.0</ele><time>2026-04-11T09:37:19Z</time></trkpt><trkpt lat="40.642147841212825" lon="8.95451163309935"><ele>198.5</ele><time>2026-04-11T09:37:20Z</time></trkpt><trkpt lat="40.642203223502726" lon="8.954679711398484"><ele>198.0</ele><time>2026-04-11T09:37:21Z</time></trkpt><trkpt lat="40.64225768957823" lon="8.954845009082906"><ele>198.0</ele><time>2026-04-11T09:37:22Z</time></trkpt><trkpt lat="40.64232125733529" lon="8.955006968253938"><ele>198.0</ele><time>2026-04-11T09:37:23Z</time></trkpt><trkpt lat="40.64236547129766" lon="8.955186828869905"><ele>198.0</ele><time>2026-04-11T09:37:24Z</time></trkpt><trkpt lat="40.642412184003184" lon="8.95536327436332"><ele>198.0</ele><time>2026-04-11T09:37:25Z</time></trkpt><trkpt lat="40.64246934291584" lon="8.955535886032266"><ele>197.75</ele><time>2026-04-11T09:37:26Z</time></trkpt><trkpt lat="40.64252513249663" lon="8.95569774503027"><ele>197.5</ele><time>2026-04-11T09:37:27Z</time></trkpt><trkpt lat="40.64257579745678" lon="8.955839048055045"><ele>197.25</ele><time>2026-04-11T09:37:28Z</time></trkpt><trkpt lat="40.64260602074487" lon="8.95597468405414"><ele>197.0</ele><time>2026-04-11T09:37:29Z</time></trkpt><trkpt lat="40.64264976268708" lon="8.956110015782789"><ele>197.5</ele><time>2026-04-11T09:37:30Z</time></trkpt><trkpt lat="40.6426953711875" lon="8.956251122607387"><ele>198.0</ele><time>2026-04-11T09:37:31Z</time></trkpt><trkpt lat="40.64274240373603" lon="8.956397298475839"><ele>198.5</ele><time>2026-04-11T09:37:32Z</time></trkpt><trkpt lat="40.642790143281694" lon="8.95654703868481"><ele>199.0</ele><time>2026-04-11T09:37:33Z</time></trkpt><trkpt lat="40.64283873899256" lon="8.956699464166856"><ele>198.25</ele><time>2026-04-11T09:37:34Z</time></trkpt><trkpt lat="40.64288818217207" lon="8.956854547851192"><ele>197.5</ele><time>2026-04-11T09:37:35Z</time></trkpt><trkpt lat="40.642938677125294" lon="8.957012930490247"><ele>196.75</ele><time>2026-04-11T09:37:36Z</time></trkpt><trkpt lat="40.64298904684944" lon="8.957170920470944"><ele>196.0</ele><time>2026-04-11T09:37:37Z</time></trkpt><trkpt lat="40.64303966419489" lon="8.957329687075113"><ele>196.0</ele><time>2026-04-11T09:37:38Z</time></trkpt><trkpt lat="40.64309054731986" lon="8.9574892873307"><ele>196.0</ele><time>2026-04-11T09:37:39Z</time></trkpt><trkpt lat="40.64314204430026" lon="8.957650183533453"><ele>196.0</ele><time>2026-04-11T09:37:40Z</time></trkpt><trkpt lat="40.64319373066305" lon="8.957808362749587"><ele>196.0</ele><time>2026-04-11T09:37:41Z</time></trkpt><trkpt lat="40.64324251893462" lon="8.957962599324448"><ele>196.0</ele><time>2026-04-11T09:37:42Z</time></trkpt><trkpt lat="40.643282798115735" lon="8.958110412429559"><ele>196.0</ele><time>2026-04-11T09:37:43Z</time></trkpt><trkpt lat="40.6433062384721" lon="8.958250952791326"><ele>196.0</ele><time>2026-04-11T09:37:44Z</time></trkpt><trkpt lat="40.64331889193912" lon="8.958396056112493"><ele>196.0</ele><time>2026-04-11T09:37:45Z</time></trkpt><trkpt lat="40.64332250055174" lon="8.958535847490245"><ele>196.0</ele><time>2026-04-11T09:37:46Z</time></trkpt><trkpt lat="40.64332442949987" lon="8.958662146870221"><ele>195.83333333333331</ele><time>2026-04-11T09:37:47Z</time></trkpt><trkpt lat="40.643325122724065" lon="8.958780529619128"><ele>195.66666666666666</ele><time>2026-04-11T09:37:48Z</time></trkpt><trkpt lat="40.64332541905945" lon="8.958895753725212"><ele>195.5</ele><time>2026-04-11T09:37:49Z</time></trkpt><trkpt lat="40.64332570102466" lon="8.959005390237284"><ele>195.33333333333331</ele><time>2026-04-11T09:37:50Z</time></trkpt><trkpt lat="40.64332597540688" lon="8.959112078277327"><ele>195.16666666666666</ele><time>2026-04-11T09:37:51Z</time></trkpt><trkpt lat="40.64332673573119" lon="8.959211259541247"><ele>195.0</ele><time>2026-04-11T09:37:52Z</time></trkpt><trkpt lat="40.64332756211225" lon="8.959301839449433"><ele>194.6</ele><time>2026-04-11T09:37:53Z</time></trkpt><trkpt lat="40.64332898750046" lon="8.959458076789668"><ele>194.2</ele><time>2026-04-11T09:37:55Z</time></trkpt><trkpt lat="40.643330335030264" lon="8.959605780052618"><ele>193.8</ele><time>2026-04-11T09:37:57Z</time></trkpt><trkpt lat="40.643331766192766" lon="8.959762650310893"><ele>193.4</ele><time>2026-04-11T09:37:59Z</time></trkpt><trkpt lat="40.643332347444236" lon="8.95984654986392"><ele>193.0</ele><time>2026-04-11T09:38:00Z</time></trkpt><trkpt lat="40.64333279573471" lon="8.959939010823465"><ele>193.0</ele><time>2026-04-11T09:38:01Z</time></trkpt><trkpt lat="40.64333328827264" lon="8.960040598024799"><ele>193.0</ele><time>2026-04-11T09:38:02Z</time></trkpt><trkpt lat="40.6433338399079" lon="8.960154374141363"><ele>193.0</ele><time>2026-04-11T09:38:03Z</time></trkpt><trkpt lat="40.64333441836226" lon="8.960273681885282"><ele>193.0</ele><time>2026-04-11T09:38:04Z</time></trkpt><trkpt lat="40.64333507085572" lon="8.960408260262355"><ele>193.0</ele><time>2026-04-11T09:38:05Z</time></trkpt><trkpt lat="40.64333575007752" lon="8.96054835173366"><ele>193.0</ele><time>2026-04-11T09:38:06Z</time></trkpt><trkpt lat="40.64333628144293" lon="8.960686552390506"><ele>193.0</ele><time>2026-04-11T09:38:06.999Z</time></trkpt><trkpt lat="40.643336514138035" lon="8.960826342863053"><ele>193.0</ele><time>2026-04-11T09:38:07.999Z</time></trkpt><trkpt lat="40.64333675437237" lon="8.960970662657386"><ele>193.0</ele><time>2026-04-11T09:38:08.999Z</time></trkpt><trkpt lat="40.64333700023653" lon="8.961118364546666"><ele>193.0</ele><time>2026-04-11T09:38:09.999Z</time></trkpt><trkpt lat="40.643337363678214" lon="8.961268597420053"><ele>193.0</ele><time>2026-04-11T09:38:10.999Z</time></trkpt><trkpt lat="40.64333881144823" lon="8.961416169625295"><ele>193.0</ele><time>2026-04-11T09:38:11.999Z</time></trkpt><trkpt lat="40.64334028034899" lon="8.961565895580257"><ele>193.0</ele><time>2026-04-11T09:38:12.999Z</time></trkpt><trkpt lat="40.643341536691025" lon="8.961719310816896"><ele>193.0</ele><time>2026-04-11T09:38:13.999Z</time></trkpt><trkpt lat="40.64334276431605" lon="8.961869229617278"><ele>192.4</ele><time>2026-04-11T09:38:14.999Z</time></trkpt><trkpt lat="40.64334249097212" lon="8.962018322447227"><ele>191.8</ele><time>2026-04-11T09:38:15.999Z</time></trkpt><trkpt lat="40.64333534789179" lon="8.96216309547628"><ele>191.2</ele><time>2026-04-11T09:38:16.999Z</time></trkpt><trkpt lat="40.643315147202415" lon="8.962290778103931"><ele>190.6</ele><time>2026-04-11T09:38:17.999Z</time></trkpt><trkpt lat="40.64328569858552" lon="8.962399640594798"><ele>190.0</ele><time>2026-04-11T09:38:18.999Z</time></trkpt><trkpt lat="40.643249836857194" lon="8.96249773734944"><ele>190.2</ele><time>2026-04-11T09:38:19.999Z</time></trkpt><trkpt lat="40.64320690605512" lon="8.962595426283555"><ele>190.4</ele><time>2026-04-11T09:38:20.999Z</time></trkpt><trkpt lat="40.64317670580244" lon="8.962702678996752"><ele>190.60000000000002</ele><time>2026-04-11T09:38:21.999Z</time></trkpt><trkpt lat="40.64318274543794" lon="8.962851082703674"><ele>190.8</ele><time>2026-04-11T09:38:22.999Z</time></trkpt><trkpt lat="40.64322702536444" lon="8.96296780927147"><ele>191.0</ele><time>2026-04-11T09:38:23.999Z</time></trkpt><trkpt lat="40.64327370711299" lon="8.96306592774818"><ele>191.0</ele><time>2026-04-11T09:38:24.999Z</time></trkpt><trkpt lat="40.643325939801905" lon="8.963169954561915"><ele>191.0</ele><time>2026-04-11T09:38:25.999Z</time></trkpt><trkpt lat="40.64338595365851" lon="8.963275419123503"><ele>191.0</ele><time>2026-04-11T09:38:26.999Z</time></trkpt><trkpt lat="40.643453407505284" lon="8.963378000222695"><ele>191.0</ele><time>2026-04-11T09:38:27.999Z</time></trkpt><trkpt lat="40.643521655940475" lon="8.963475171618946"><ele>191.0</ele><time>2026-04-11T09:38:28.999Z</time></trkpt><trkpt lat="40.64358946948084" lon="8.963574119404425"><ele>190.8</ele><time>2026-04-11T09:38:29.999Z</time></trkpt><trkpt lat="40.64364743205101" lon="8.963673017752395"><ele>190.60000000000002</ele><time>2026-04-11T09:38:30.999Z</time></trkpt><trkpt lat="40.64369960541361" lon="8.963786470731518"><ele>190.4</ele><time>2026-04-11T09:38:31.999Z</time></trkpt><trkpt lat="40.64374902625914" lon="8.963895948591015"><ele>190.2</ele><time>2026-04-11T09:38:32.999Z</time></trkpt><trkpt lat="40.64379809304779" lon="8.964000363113659"><ele>190.0</ele><time>2026-04-11T09:38:33.999Z</time></trkpt><trkpt lat="40.64384514680902" lon="8.964100227870635"><ele>190.0</ele><time>2026-04-11T09:38:34.999Z</time></trkpt><trkpt lat="40.643890162744064" lon="8.96418159032048"><ele>190.0</ele><time>2026-04-11T09:38:35.999Z</time></trkpt><trkpt lat="40.64393427351434" lon="8.964242079352104"><ele>190.0</ele><time>2026-04-11T09:38:36.999Z</time></trkpt><trkpt lat="40.64398544004624" lon="8.964348655103894"><ele>190.0</ele><time>2026-04-11T09:38:38.999Z</time></trkpt><trkpt lat="40.64394680018885" lon="8.964477978339445"><ele>190.0</ele><time>2026-04-11T09:38:41.999Z</time></trkpt><trkpt lat="40.643860193440325" lon="8.964531246308805"><ele>190.0</ele><time>2026-04-11T09:38:42.999Z</time></trkpt><trkpt lat="40.6437733235917" lon="8.964601331917196"><ele>189.5</ele><time>2026-04-11T09:38:43.999Z</time></trkpt><trkpt lat="40.64368114571588" lon="8.96468032111612"><ele>189.0</ele><time>2026-04-11T09:38:44.999Z</time></trkpt><trkpt lat="40.643586709213636" lon="8.96476489941895"><ele>188.5</ele><time>2026-04-11T09:38:45.999Z</time></trkpt><trkpt lat="40.64348496738653" lon="8.964839914137704"><ele>188.0</ele><time>2026-04-11T09:38:46.999Z</time></trkpt><trkpt lat="40.643393452736646" lon="8.964932674970973"><ele>187.75</ele><time>2026-04-11T09:38:47.999Z</time></trkpt><trkpt lat="40.64329992763416" lon="8.965028825142042"><ele>187.5</ele><time>2026-04-11T09:38:48.999Z</time></trkpt><trkpt lat="40.643200623763356" lon="8.965131577687153"><ele>187.25</ele><time>2026-04-11T09:38:49.999Z</time></trkpt><trkpt lat="40.64309374713041" lon="8.9652267838904"><ele>187.0</ele><time>2026-04-11T09:38:50.999Z</time></trkpt><trkpt lat="40.64299551893129" lon="8.965337073574313"><ele>187.0</ele><time>2026-04-11T09:38:51.999Z</time></trkpt><trkpt lat="40.642891648594244" lon="8.965435313209642"><ele>187.0</ele><time>2026-04-11T09:38:52.999Z</time></trkpt><trkpt lat="40.64279215434331" lon="8.965538456045321"><ele>187.0</ele><time>2026-04-11T09:38:53.999Z</time></trkpt><trkpt lat="40.64268070673705" lon="8.965615557134774"><ele>187.0</ele><time>2026-04-11T09:38:54.999Z</time></trkpt><trkpt lat="40.64258034569008" lon="8.965706708625019"><ele>187.0</ele><time>2026-04-11T09:38:55.999Z</time></trkpt><trkpt lat="40.642482976498044" lon="8.965798278175152"><ele>187.0</ele><time>2026-04-11T09:38:56.999Z</time></trkpt><trkpt lat="40.642384421246206" lon="8.965889397947794"><ele>187.0</ele><time>2026-04-11T09:38:57.999Z</time></trkpt><trkpt lat="40.64227851728371" lon="8.965979020709511"><ele>187.0</ele><time>2026-04-11T09:38:58.999Z</time></trkpt><trkpt lat="40.6421677825804" lon="8.966072210083269"><ele>187.0</ele><time>2026-04-11T09:38:59.999Z</time></trkpt><trkpt lat="40.64205636248335" lon="8.966172398819678"><ele>187.0</ele><time>2026-04-11T09:39:00.999Z</time></trkpt><trkpt lat="40.64194360878487" lon="8.966280163383153"><ele>187.0</ele><time>2026-04-11T09:39:01.999Z</time></trkpt><trkpt lat="40.641832890117364" lon="8.966395265759719"><ele>187.0</ele><time>2026-04-11T09:39:02.999Z</time></trkpt><trkpt lat="40.641734873595965" lon="8.966522434611022"><ele>187.75</ele><time>2026-04-11T09:39:03.999Z</time></trkpt><trkpt lat="40.64161965581193" lon="8.966603781605109"><ele>188.5</ele><time>2026-04-11T09:39:04.999Z</time></trkpt><trkpt lat="40.64151958129767" lon="8.966691893221586"><ele>189.25</ele><time>2026-04-11T09:39:05.999Z</time></trkpt><trkpt lat="40.64142403274192" lon="8.966770185800062"><ele>190.0</ele><time>2026-04-11T09:39:06.999Z</time></trkpt><trkpt lat="40.64132453069742" lon="8.966853100822563"><ele>191.0</ele><time>2026-04-11T09:39:07.999Z</time></trkpt><trkpt lat="40.64122804389918" lon="8.966941558195234"><ele>192.0</ele><time>2026-04-11T09:39:08.999Z</time></trkpt><trkpt lat="40.641133813404" lon="8.967051413681105"><ele>193.0</ele><time>2026-04-11T09:39:09.999Z</time></trkpt><trkpt lat="40.64105063407858" lon="8.967181918607999"><ele>194.0</ele><time>2026-04-11T09:39:10.999Z</time></trkpt><trkpt lat="40.64096915469897" lon="8.967318431048724"><ele>194.2</ele><time>2026-04-11T09:39:11.999Z</time></trkpt><trkpt lat="40.64089225266004" lon="8.967452573928949"><ele>194.39999999999998</ele><time>2026-04-11T09:39:12.999Z</time></trkpt><trkpt lat="40.640826177854265" lon="8.96756867684141"><ele>194.6</ele><time>2026-04-11T09:39:13.999Z</time></trkpt><trkpt lat="40.6407731642552" lon="8.967664110479234"><ele>194.8</ele><time>2026-04-11T09:39:14.999Z</time></trkpt><trkpt lat="40.640735698376886" lon="8.967742529948392"><ele>195.0</ele><time>2026-04-11T09:39:15.999Z</time></trkpt><trkpt lat="40.64069035776783" lon="8.96786278181352"><ele>195.16666666666666</ele><time>2026-04-11T09:39:17.999Z</time></trkpt><trkpt lat="40.64064994380185" lon="8.967954866546103"><ele>195.33333333333331</ele><time>2026-04-11T09:39:19.999Z</time></trkpt><trkpt lat="40.640607184656034" lon="8.9680406069933"><ele>195.5</ele><time>2026-04-11T09:39:30.998Z</time></trkpt><trkpt lat="40.64053373150709" lon="8.96812144491855"><ele>195.66666666666666</ele><time>2026-04-11T09:39:32.998Z</time></trkpt><trkpt lat="40.64046828662909" lon="8.968171078085373"><ele>195.83333333333331</ele><time>2026-04-11T09:39:33.998Z</time></trkpt><trkpt lat="40.64040930863665" lon="8.968234077342808"><ele>196.0</ele><time>2026-04-11T09:39:34.998Z</time></trkpt><trkpt lat="40.640341493709826" lon="8.968279281122248"><ele>195.83333333333331</ele><time>2026-04-11T09:39:35.998Z</time></trkpt><trkpt lat="40.640274079564655" lon="8.968313543005237"><ele>195.66666666666666</ele><time>2026-04-11T09:39:36.998Z</time></trkpt><trkpt lat="40.64020490172698" lon="8.96833972353349"><ele>195.5</ele><time>2026-04-11T09:39:37.998Z</time></trkpt><trkpt lat="40.64013975041182" lon="8.968380703731484"><ele>195.33333333333331</ele><time>2026-04-11T09:39:38.998Z</time></trkpt><trkpt lat="40.640027596657845" lon="8.96838950843049"><ele>195.16666666666666</ele><time>2026-04-11T09:39:40.998Z</time></trkpt><trkpt lat="40.63993812383612" lon="8.968411316704767"><ele>195.0</ele><time>2026-04-11T09:39:42.998Z</time></trkpt><trkpt lat="40.639842995841995" lon="8.968424428897263"><ele>195.0</ele><time>2026-04-11T09:40:20.998Z</time></trkpt><trkpt lat="40.63977088657254" lon="8.96845077022333"><ele>195.0</ele><time>2026-04-11T09:40:22.998Z</time></trkpt><trkpt lat="40.639640495366415" lon="8.968461984314015"><ele>195.0</ele><time>2026-04-11T09:40:24.998Z</time></trkpt><trkpt lat="40.63956745928677" lon="8.968466622515226"><ele>195.0</ele><time>2026-04-11T09:40:25.998Z</time></trkpt><trkpt lat="40.63949170641839" lon="8.968478772403378"><ele>195.0</ele><time>2026-04-11T09:40:26.998Z</time></trkpt><trkpt lat="40.63940979709671" lon="8.96848267548812"><ele>195.0</ele><time>2026-04-11T09:40:27.998Z</time></trkpt><trkpt lat="40.639325193909436" lon="8.968488194495917"><ele>195.0</ele><time>2026-04-11T09:40:28.998Z</time></trkpt><trkpt lat="40.63923727619658" lon="8.968495732913683"><ele>195.0</ele><time>2026-04-11T09:40:29.998Z</time></trkpt><trkpt lat="40.63914906143822" lon="8.968504488119102"><ele>195.0</ele><time>2026-04-11T09:40:30.998Z</time></trkpt><trkpt lat="40.63906129538863" lon="8.968516518406734"><ele>195.0</ele><time>2026-04-11T09:40:31.998Z</time></trkpt><trkpt lat="40.63896847841856" lon="8.9685048277582"><ele>195.0</ele><time>2026-04-11T09:40:32.998Z</time></trkpt><trkpt lat="40.63887723244095" lon="8.968533125717846"><ele>195.0</ele><time>2026-04-11T09:40:33.998Z</time></trkpt><trkpt lat="40.63878561281174" lon="8.96853753670524"><ele>195.0</ele><time>2026-04-11T09:40:34.998Z</time></trkpt><trkpt lat="40.63869225190945" lon="8.968541947420167"><ele>195.0</ele><time>2026-04-11T09:40:35.998Z</time></trkpt><trkpt lat="40.63860043487363" lon="8.96854217368364"><ele>195.0</ele><time>2026-04-11T09:40:36.998Z</time></trkpt><trkpt lat="40.638512561663795" lon="8.968544278964451"><ele>195.0</ele><time>2026-04-11T09:40:37.998Z</time></trkpt><trkpt lat="40.6384295525112" lon="8.968541529656166"><ele>195.0</ele><time>2026-04-11T09:40:38.998Z</time></trkpt><trkpt lat="40.638351567999564" lon="8.968540840685918"><ele>195.33333333333334</ele><time>2026-04-11T09:40:39.998Z</time></trkpt><trkpt lat="40.63827578971676" lon="8.968551667049882"><ele>195.66666666666669</ele><time>2026-04-11T09:40:40.998Z</time></trkpt><trkpt lat="40.63820207056789" lon="8.968590206864887"><ele>196.0</ele><time>2026-04-11T09:40:41.998Z</time></trkpt><trkpt lat="40.638128825002624" lon="8.968651168470014"><ele>196.33333333333334</ele><time>2026-04-11T09:40:42.998Z</time></trkpt><trkpt lat="40.6380656121397" lon="8.96873193009583"><ele>196.66666666666669</ele><time>2026-04-11T09:40:43.998Z</time></trkpt><trkpt lat="40.638000553430565" lon="8.968812633530108"><ele>197.0</ele><time>2026-04-11T09:40:44.998Z</time></trkpt><trkpt lat="40.63793578521269" lon="8.96888617235316"><ele>197.00000000000003</ele><time>2026-04-11T09:40:45.998Z</time></trkpt><trkpt lat="40.63786376430987" lon="8.968940855623687"><ele>197.0</ele><time>2026-04-11T09:40:46.998Z</time></trkpt><trkpt lat="40.63778796565625" lon="8.968963118164169"><ele>197.0</ele><time>2026-04-11T09:40:47.998Z</time></trkpt><trkpt lat="40.63770278646486" lon="8.968982736481099"><ele>197.0</ele><time>2026-04-11T09:40:48.998Z</time></trkpt><trkpt lat="40.637621541341645" lon="8.969015089453043"><ele>197.00000000000003</ele><time>2026-04-11T09:40:49.998Z</time></trkpt><trkpt lat="40.63754368223588" lon="8.969029747814647"><ele>197.0</ele><time>2026-04-11T09:40:50.998Z</time></trkpt><trkpt lat="40.63747164835321" lon="8.969028558780815"><ele>197.00000000000003</ele><time>2026-04-11T09:40:51.998Z</time></trkpt><trkpt lat="40.63740345817378" lon="8.96901742229816"><ele>197.0</ele><time>2026-04-11T09:40:52.998Z</time></trkpt><trkpt lat="40.637334550683754" lon="8.969003364305177"><ele>197.0</ele><time>2026-04-11T09:40:53.997Z</time></trkpt><trkpt lat="40.63725994429591" lon="8.968990413463072"><ele>197.0</ele><time>2026-04-11T09:40:54.997Z</time></trkpt><trkpt lat="40.63718241006843" lon="8.968991136404608"><ele>197.00000000000003</ele><time>2026-04-11T09:40:55.997Z</time></trkpt><trkpt lat="40.637103509072574" lon="8.968978535471717"><ele>197.0</ele><time>2026-04-11T09:40:56.997Z</time></trkpt><trkpt lat="40.637021189778494" lon="8.968974197863751"><ele>196.57142857142858</ele><time>2026-04-11T09:40:57.997Z</time></trkpt><trkpt lat="40.63694697307811" lon="8.968977134132889"><ele>196.14285714285717</ele><time>2026-04-11T09:40:58.997Z</time></trkpt><trkpt lat="40.63687639239499" lon="8.968981811377853"><ele>195.71428571428572</ele><time>2026-04-11T09:40:59.997Z</time></trkpt><trkpt lat="40.63680095071388" lon="8.968974799969184"><ele>195.28571428571428</ele><time>2026-04-11T09:41:00.997Z</time></trkpt><trkpt lat="40.636726976654096" lon="8.968972357032827"><ele>194.85714285714286</ele><time>2026-04-11T09:41:01.997Z</time></trkpt><trkpt lat="40.63665469701016" lon="8.968975989946296"><ele>194.42857142857142</ele><time>2026-04-11T09:41:02.997Z</time></trkpt><trkpt lat="40.63657765769378" lon="8.96899150412854"><ele>194.0</ele><time>2026-04-11T09:41:03.997Z</time></trkpt><trkpt lat="40.636494462710594" lon="8.969018828382165"><ele>194.00000000000003</ele><time>2026-04-11T09:41:04.997Z</time></trkpt><trkpt lat="40.63641166239435" lon="8.969050792858855"><ele>194.0</ele><time>2026-04-11T09:41:05.997Z</time></trkpt><trkpt lat="40.63632962299462" lon="8.969081506319391"><ele>194.0</ele><time>2026-04-11T09:41:06.997Z</time></trkpt><trkpt lat="40.63624518260622" lon="8.969116447407085"><ele>194.0</ele><time>2026-04-11T09:41:07.997Z</time></trkpt><trkpt lat="40.63616037515065" lon="8.969151179928604"><ele>194.00000000000003</ele><time>2026-04-11T09:41:08.997Z</time></trkpt><trkpt lat="40.636075929521525" lon="8.969168510008389"><ele>194.0</ele><time>2026-04-11T09:41:09.997Z</time></trkpt><trkpt lat="40.635988512617416" lon="8.969189589074922"><ele>193.33333333333334</ele><time>2026-04-11T09:41:10.997Z</time></trkpt><trkpt lat="40.635902421776805" lon="8.969212413505545"><ele>192.66666666666669</ele><time>2026-04-11T09:41:11.997Z</time></trkpt><trkpt lat="40.63581825549165" lon="8.969237510628986"><ele>192.0</ele><time>2026-04-11T09:41:12.997Z</time></trkpt><trkpt lat="40.635733587706916" lon="8.969273498612875"><ele>191.33333333333334</ele><time>2026-04-11T09:41:13.997Z</time></trkpt><trkpt lat="40.635652154614185" lon="8.9693126751776"><ele>190.66666666666669</ele><time>2026-04-11T09:41:14.997Z</time></trkpt><trkpt lat="40.63557506171" lon="8.969357182644556"><ele>190.0</ele><time>2026-04-11T09:41:15.997Z</time></trkpt><trkpt lat="40.635497534025184" lon="8.969405326686141"><ele>190.0</ele><time>2026-04-11T09:41:16.997Z</time></trkpt><trkpt lat="40.63541928713419" lon="8.969459396468105"><ele>190.0</ele><time>2026-04-11T09:41:17.997Z</time></trkpt><trkpt lat="40.63534005778068" lon="8.969516639341505"><ele>190.0</ele><time>2026-04-11T09:41:18.997Z</time></trkpt><trkpt lat="40.635260184447525" lon="8.969568635527674"><ele>190.0</ele><time>2026-04-11T09:41:19.997Z</time></trkpt><trkpt lat="40.63517755444558" lon="8.969619610732927"><ele>190.0</ele><time>2026-04-11T09:41:20.997Z</time></trkpt><trkpt lat="40.63508557422775" lon="8.969659823431247"><ele>190.5</ele><time>2026-04-11T09:41:21.997Z</time></trkpt><trkpt lat="40.634993233737745" lon="8.969701989090773"><ele>191.0</ele><time>2026-04-11T09:41:22.997Z</time></trkpt><trkpt lat="40.63490156004085" lon="8.969733267852014"><ele>191.5</ele><time>2026-04-11T09:41:23.997Z</time></trkpt><trkpt lat="40.63482054077513" lon="8.969758873644405"><ele>192.0</ele><time>2026-04-11T09:41:24.997Z</time></trkpt><trkpt lat="40.634743288523026" lon="8.969786084217256"><ele>192.49999999999997</ele><time>2026-04-11T09:41:25.997Z</time></trkpt><trkpt lat="40.634661700918244" lon="8.969821813899037"><ele>193.0</ele><time>2026-04-11T09:41:26.997Z</time></trkpt><trkpt lat="40.63456717823749" lon="8.969872326414924"><ele>192.60000000000002</ele><time>2026-04-11T09:41:27.997Z</time></trkpt><trkpt lat="40.63446316729033" lon="8.969930211673482"><ele>192.20000000000002</ele><time>2026-04-11T09:41:28.997Z</time></trkpt><trkpt lat="40.63436149489065" lon="8.969986343181974"><ele>191.8</ele><time>2026-04-11T09:41:29.997Z</time></trkpt><trkpt lat="40.6342629641523" lon="8.97001724493601"><ele>191.4</ele><time>2026-04-11T09:41:30.997Z</time></trkpt><trkpt lat="40.6341627692235" lon="8.97004151666545"><ele>191.0</ele><time>2026-04-11T09:41:31.997Z</time></trkpt><trkpt lat="40.634058817952585" lon="8.970071944384673"><ele>190.75</ele><time>2026-04-11T09:41:32.997Z</time></trkpt><trkpt lat="40.63395410183126" lon="8.970109486224183"><ele>190.5</ele><time>2026-04-11T09:41:33.997Z</time></trkpt><trkpt lat="40.63384261883151" lon="8.970142257823309"><ele>190.25</ele><time>2026-04-11T09:41:34.997Z</time></trkpt><trkpt lat="40.63373056856807" lon="8.970188960709969"><ele>190.0</ele><time>2026-04-11T09:41:35.997Z</time></trkpt><trkpt lat="40.63361532252669" lon="8.970246144990579"><ele>189.75</ele><time>2026-04-11T09:41:36.997Z</time></trkpt><trkpt lat="40.63350932266946" lon="8.970318751010787"><ele>189.5</ele><time>2026-04-11T09:41:37.997Z</time></trkpt><trkpt lat="40.6334034582732" lon="8.970380861632185"><ele>189.25</ele><time>2026-04-11T09:41:38.997Z</time></trkpt><trkpt lat="40.63329256176542" lon="8.970430481614661"><ele>189.0</ele><time>2026-04-11T09:41:39.997Z</time></trkpt><trkpt lat="40.63317985671813" lon="8.970480772836996"><ele>189.0</ele><time>2026-04-11T09:41:40.997Z</time></trkpt><trkpt lat="40.63306054481542" lon="8.970509703452958"><ele>189.0</ele><time>2026-04-11T09:41:41.997Z</time></trkpt><trkpt lat="40.63295119616809" lon="8.970573955534615"><ele>189.0</ele><time>2026-04-11T09:41:42.997Z</time></trkpt><trkpt lat="40.632836493269835" lon="8.970619116848972"><ele>189.0</ele><time>2026-04-11T09:41:43.997Z</time></trkpt><trkpt lat="40.63271992183039" lon="8.970661538622949"><ele>189.25</ele><time>2026-04-11T09:41:44.997Z</time></trkpt><trkpt lat="40.63260293160105" lon="8.970698701128411"><ele>189.5</ele><time>2026-04-11T09:41:45.997Z</time></trkpt><trkpt lat="40.63248627868273" lon="8.9707337791617"><ele>189.75</ele><time>2026-04-11T09:41:46.997Z</time></trkpt><trkpt lat="40.63236902501784" lon="8.970771936611001"><ele>190.0</ele><time>2026-04-11T09:41:47.997Z</time></trkpt><trkpt lat="40.63224898663308" lon="8.970806441606669"><ele>190.0</ele><time>2026-04-11T09:41:48.997Z</time></trkpt><trkpt lat="40.63212806641448" lon="8.970843819389124"><ele>190.0</ele><time>2026-04-11T09:41:49.997Z</time></trkpt><trkpt lat="40.63200192268326" lon="8.970856349908109"><ele>190.0</ele><time>2026-04-11T09:41:50.997Z</time></trkpt><trkpt lat="40.6318828362595" lon="8.970883763580755"><ele>190.0</ele><time>2026-04-11T09:41:51.997Z</time></trkpt><trkpt lat="40.631765502566346" lon="8.970907844705273"><ele>190.5</ele><time>2026-04-11T09:41:52.997Z</time></trkpt><trkpt lat="40.63164899500178" lon="8.970930621144062"><ele>191.0</ele><time>2026-04-11T09:41:53.997Z</time></trkpt><trkpt lat="40.63153457502092" lon="8.970972896616768"><ele>191.5</ele><time>2026-04-11T09:41:54.997Z</time></trkpt><trkpt lat="40.6314165214313" lon="8.970992354547427"><ele>192.0</ele><time>2026-04-11T09:41:55.997Z</time></trkpt><trkpt lat="40.63129960009149" lon="8.971018175592187"><ele>192.0</ele><time>2026-04-11T09:41:56.997Z</time></trkpt><trkpt lat="40.631181687258795" lon="8.971050819910317"><ele>192.0</ele><time>2026-04-11T09:41:57.997Z</time></trkpt><trkpt lat="40.63106043623823" lon="8.971077297108064"><ele>192.0</ele><time>2026-04-11T09:41:58.997Z</time></trkpt><trkpt lat="40.63093923791978" lon="8.9710995272471"><ele>192.0</ele><time>2026-04-11T09:41:59.997Z</time></trkpt><trkpt lat="40.63081680835627" lon="8.971124326075358"><ele>192.0</ele><time>2026-04-11T09:42:00.997Z</time></trkpt><trkpt lat="40.63069984646606" lon="8.971152943637163"><ele>192.0</ele><time>2026-04-11T09:42:01.997Z</time></trkpt><trkpt lat="40.63059153421363" lon="8.971177951912377"><ele>192.0</ele><time>2026-04-11T09:42:02.997Z</time></trkpt><trkpt lat="40.630493928459664" lon="8.971203000096946"><ele>192.0</ele><time>2026-04-11T09:42:03.997Z</time></trkpt><trkpt lat="40.63039974420607" lon="8.97122620715126"><ele>192.0</ele><time>2026-04-11T09:42:04.997Z</time></trkpt><trkpt lat="40.63029796705725" lon="8.97124724804091"><ele>192.25</ele><time>2026-04-11T09:42:05.997Z</time></trkpt><trkpt lat="40.63018938774924" lon="8.971267414297294"><ele>192.5</ele><time>2026-04-11T09:42:06.997Z</time></trkpt><trkpt lat="40.63007456999621" lon="8.971282309897008"><ele>192.75</ele><time>2026-04-11T09:42:07.997Z</time></trkpt><trkpt lat="40.629953931956834" lon="8.971301900201178"><ele>193.0</ele><time>2026-04-11T09:42:08.997Z</time></trkpt><trkpt lat="40.62983069701172" lon="8.971329224620598"><ele>193.0</ele><time>2026-04-11T09:42:09.997Z</time></trkpt><trkpt lat="40.62970488413902" lon="8.971362078269028"><ele>193.0</ele><time>2026-04-11T09:42:10.997Z</time></trkpt><trkpt lat="40.62958067045546" lon="8.971407435245908"><ele>193.0</ele><time>2026-04-11T09:42:11.997Z</time></trkpt><trkpt lat="40.629452921859084" lon="8.971458840819077"><ele>193.0</ele><time>2026-04-11T09:42:12.997Z</time></trkpt><trkpt lat="40.62932228675007" lon="8.97151538038898"><ele>193.0</ele><time>2026-04-11T09:42:13.997Z</time></trkpt><trkpt lat="40.62919107972209" lon="8.971581339061558"><ele>193.0</ele><time>2026-04-11T09:42:14.997Z</time></trkpt><trkpt lat="40.62906212195103" lon="8.971655888969583"><ele>193.0</ele><time>2026-04-11T09:42:15.997Z</time></trkpt><trkpt lat="40.628931944060646" lon="8.971729053539674"><ele>193.0</ele><time>2026-04-11T09:42:16.996Z</time></trkpt><trkpt lat="40.62880577462012" lon="8.97181005712829"><ele>193.0</ele><time>2026-04-11T09:42:17.996Z</time></trkpt><trkpt lat="40.6286766015793" lon="8.97187898990049"><ele>193.0</ele><time>2026-04-11T09:42:18.996Z</time></trkpt><trkpt lat="40.62854489900948" lon="8.97195373616744"><ele>193.0</ele><time>2026-04-11T09:42:19.996Z</time></trkpt><trkpt lat="40.62840844266148" lon="8.972023025001413"><ele>193.0</ele><time>2026-04-11T09:42:20.996Z</time></trkpt><trkpt lat="40.628268235069804" lon="8.972085050703315"><ele>192.75</ele><time>2026-04-11T09:42:21.996Z</time></trkpt><trkpt lat="40.62813443552762" lon="8.97215525644848"><ele>192.5</ele><time>2026-04-11T09:42:22.996Z</time></trkpt><trkpt lat="40.628007693769824" lon="8.972216229743125"><ele>192.25</ele><time>2026-04-11T09:42:23.996Z</time></trkpt><trkpt lat="40.62787523027879" lon="8.972257040755213"><ele>192.0</ele><time>2026-04-11T09:42:24.996Z</time></trkpt><trkpt lat="40.62775290817968" lon="8.972335232133863"><ele>191.75</ele><time>2026-04-11T09:42:25.996Z</time></trkpt><trkpt lat="40.62762630704219" lon="8.972391013634653"><ele>191.5</ele><time>2026-04-11T09:42:26.996Z</time></trkpt><trkpt lat="40.627504762886325" lon="8.972450510165041"><ele>191.25</ele><time>2026-04-11T09:42:27.996Z</time></trkpt><trkpt lat="40.62739061200604" lon="8.972513909776136"><ele>191.0</ele><time>2026-04-11T09:42:28.996Z</time></trkpt><trkpt lat="40.62727660164106" lon="8.97257122002619"><ele>191.0</ele><time>2026-04-11T09:42:29.996Z</time></trkpt><trkpt lat="40.62716546935218" lon="8.972640616179602"><ele>191.0</ele><time>2026-04-11T09:42:30.996Z</time></trkpt><trkpt lat="40.62705150695218" lon="8.972707372217796"><ele>191.0</ele><time>2026-04-11T09:42:31.996Z</time></trkpt><trkpt lat="40.626963096098955" lon="8.972823049142557"><ele>191.0</ele><time>2026-04-11T09:42:32.996Z</time></trkpt><trkpt lat="40.62685607286845" lon="8.972908808812857"><ele>191.0</ele><time>2026-04-11T09:42:33.996Z</time></trkpt><trkpt lat="40.62673838382751" lon="8.972970361593324"><ele>191.0</ele><time>2026-04-11T09:42:34.996Z</time></trkpt><trkpt lat="40.6266182014187" lon="8.973042863955918"><ele>191.0</ele><time>2026-04-11T09:42:35.996Z</time></trkpt><trkpt lat="40.62648783666831" lon="8.973113620390878"><ele>191.0</ele><time>2026-04-11T09:42:36.996Z</time></trkpt><trkpt lat="40.626351094596124" lon="8.973186395457114"><ele>191.0</ele><time>2026-04-11T09:42:37.996Z</time></trkpt><trkpt lat="40.62621657184192" lon="8.973257989416835"><ele>191.0</ele><time>2026-04-11T09:42:38.996Z</time></trkpt><trkpt lat="40.62608181142184" lon="8.973329806974126"><ele>191.0</ele><time>2026-04-11T09:42:39.996Z</time></trkpt><trkpt lat="40.62594676589318" lon="8.973399389275029"><ele>191.0</ele><time>2026-04-11T09:42:40.996Z</time></trkpt><trkpt lat="40.62580862958687" lon="8.973466925765605"><ele>191.25</ele><time>2026-04-11T09:42:41.996Z</time></trkpt><trkpt lat="40.62566800317663" lon="8.973533213930997"><ele>191.5</ele><time>2026-04-11T09:42:42.996Z</time></trkpt><trkpt lat="40.625530568851936" lon="8.973617487069598"><ele>191.75</ele><time>2026-04-11T09:42:43.996Z</time></trkpt><trkpt lat="40.62538568442275" lon="8.973659500562423"><ele>192.0</ele><time>2026-04-11T09:42:44.996Z</time></trkpt><trkpt lat="40.62525542271214" lon="8.973715401019053"><ele>192.0</ele><time>2026-04-11T09:42:45.996Z</time></trkpt><trkpt lat="40.62513533027154" lon="8.973788305272244"><ele>192.0</ele><time>2026-04-11T09:42:46.996Z</time></trkpt><trkpt lat="40.62501270616643" lon="8.973828836877761"><ele>192.0</ele><time>2026-04-11T09:42:47.996Z</time></trkpt><trkpt lat="40.62488997258504" lon="8.973877359386883"><ele>192.0</ele><time>2026-04-11T09:42:48.996Z</time></trkpt><trkpt lat="40.62476156229375" lon="8.97391099688145"><ele>192.0</ele><time>2026-04-11T09:42:49.996Z</time></trkpt><trkpt lat="40.62464092999743" lon="8.973992198510183"><ele>192.0</ele><time>2026-04-11T09:42:50.996Z</time></trkpt><trkpt lat="40.62451661987349" lon="8.974048749922071"><ele>192.0</ele><time>2026-04-11T09:42:51.996Z</time></trkpt><trkpt lat="40.62440155241837" lon="8.9741100927779"><ele>192.0</ele><time>2026-04-11T09:42:52.996Z</time></trkpt><trkpt lat="40.62429621373594" lon="8.974177634132236"><ele>192.75</ele><time>2026-04-11T09:42:53.996Z</time></trkpt><trkpt lat="40.624199970533034" lon="8.974249980715419"><ele>193.5</ele><time>2026-04-11T09:42:54.996Z</time></trkpt><trkpt lat="40.6241039306086" lon="8.974320863020571"><ele>194.25</ele><time>2026-04-11T09:42:55.996Z</time></trkpt><trkpt lat="40.624007374423016" lon="8.97439631170718"><ele>195.0</ele><time>2026-04-11T09:42:56.996Z</time></trkpt><trkpt lat="40.623903685374735" lon="8.974467268858536"><ele>195.0</ele><time>2026-04-11T09:42:57.996Z</time></trkpt><trkpt lat="40.6237966345934" lon="8.974541828503673"><ele>195.0</ele><time>2026-04-11T09:42:58.996Z</time></trkpt><trkpt lat="40.62368605441196" lon="8.974610417307142"><ele>195.0</ele><time>2026-04-11T09:42:59.996Z</time></trkpt><trkpt lat="40.623572843563664" lon="8.974651944267018"><ele>195.0</ele><time>2026-04-11T09:43:00.996Z</time></trkpt><trkpt lat="40.62346129929852" lon="8.974693313419824"><ele>195.75</ele><time>2026-04-11T09:43:01.996Z</time></trkpt><trkpt lat="40.62334726322325" lon="8.97472158949619"><ele>196.5</ele><time>2026-04-11T09:43:02.996Z</time></trkpt><trkpt lat="40.62323034317441" lon="8.974740252066399"><ele>197.25</ele><time>2026-04-11T09:43:03.996Z</time></trkpt><trkpt lat="40.62311218478412" lon="8.974748611823175"><ele>198.0</ele><time>2026-04-11T09:43:04.996Z</time></trkpt><trkpt lat="40.62299316918342" lon="8.974748611824626"><ele>198.0</ele><time>2026-04-11T09:43:05.996Z</time></trkpt><trkpt lat="40.6228775049175" lon="8.974734282905558"><ele>198.0</ele><time>2026-04-11T09:43:06.996Z</time></trkpt><trkpt lat="40.6227672189418" lon="8.974719830688082"><ele>198.0</ele><time>2026-04-11T09:43:07.996Z</time></trkpt><trkpt lat="40.62267123386325" lon="8.974703271609027"><ele>198.0</ele><time>2026-04-11T09:43:08.996Z</time></trkpt><trkpt lat="40.62258759160614" lon="8.974693872701696"><ele>198.0</ele><time>2026-04-11T09:43:09.996Z</time></trkpt><trkpt lat="40.62252012423122" lon="8.974665940759982"><ele>198.60000000000002</ele><time>2026-04-11T09:43:10.996Z</time></trkpt><trkpt lat="40.622426437938515" lon="8.974638348853206"><ele>199.20000000000002</ele><time>2026-04-11T09:43:12.996Z</time></trkpt><trkpt lat="40.622378100654934" lon="8.97474380122453"><ele>199.8</ele><time>2026-04-11T09:43:29.996Z</time></trkpt><trkpt lat="40.62243003567237" lon="8.974890804157582"><ele>200.4</ele><time>2026-04-11T09:43:31.996Z</time></trkpt><trkpt lat="40.6224526940053" lon="8.974974251590428"><ele>201.0</ele><time>2026-04-11T09:43:32.996Z</time></trkpt><trkpt lat="40.6224605776312" lon="8.975068076305915"><ele>201.16666666666666</ele><time>2026-04-11T09:43:33.996Z</time></trkpt><trkpt lat="40.6224863284039" lon="8.975159230334045"><ele>201.33333333333331</ele><time>2026-04-11T09:43:34.996Z</time></trkpt><trkpt lat="40.62251874136858" lon="8.975259969892912"><ele>201.5</ele><time>2026-04-11T09:43:35.996Z</time></trkpt><trkpt lat="40.62256041911762" lon="8.975352236146035"><ele>201.66666666666666</ele><time>2026-04-11T09:43:36.996Z</time></trkpt><trkpt lat="40.62261461050603" lon="8.975447717347771"><ele>201.83333333333331</ele><time>2026-04-11T09:43:37.996Z</time></trkpt><trkpt lat="40.6226767989052" lon="8.97553188346673"><ele>202.0</ele><time>2026-04-11T09:43:38.996Z</time></trkpt><trkpt lat="40.62274179597416" lon="8.975609429700205"><ele>202.0</ele><time>2026-04-11T09:43:39.995Z</time></trkpt><trkpt lat="40.62281435530135" lon="8.975689355104558"><ele>202.0</ele><time>2026-04-11T09:43:40.995Z</time></trkpt><trkpt lat="40.62289441178863" lon="8.975777539864803"><ele>202.0</ele><time>2026-04-11T09:43:41.995Z</time></trkpt><trkpt lat="40.62298028021935" lon="8.975872719940158"><ele>202.0</ele><time>2026-04-11T09:43:42.995Z</time></trkpt><trkpt lat="40.623073739035334" lon="8.975976909130594"><ele>202.0</ele><time>2026-04-11T09:43:44Z</time></trkpt><trkpt lat="40.62317628207661" lon="8.976086740704279"><ele>201.75</ele><time>2026-04-11T09:43:45Z</time></trkpt><trkpt lat="40.62328291904695" lon="8.9762008417687"><ele>201.5</ele><time>2026-04-11T09:43:46Z</time></trkpt><trkpt lat="40.62339082135342" lon="8.976316296741528"><ele>201.25</ele><time>2026-04-11T09:43:47Z</time></trkpt><trkpt lat="40.62350140893736" lon="8.976434624906686"><ele>201.0</ele><time>2026-04-11T09:43:48Z</time></trkpt><trkpt lat="40.62361534807923" lon="8.976556682315467"><ele>201.0</ele><time>2026-04-11T09:43:49Z</time></trkpt><trkpt lat="40.62372917836723" lon="8.976679345849286"><ele>201.0</ele><time>2026-04-11T09:43:50Z</time></trkpt><trkpt lat="40.62384352009195" lon="8.976802560440179"><ele>201.0</ele><time>2026-04-11T09:43:51Z</time></trkpt><trkpt lat="40.62395897948098" lon="8.976926979467649"><ele>201.0</ele><time>2026-04-11T09:43:52Z</time></trkpt><trkpt lat="40.624073350557076" lon="8.977050225743225"><ele>201.0</ele><time>2026-04-11T09:43:53Z</time></trkpt><trkpt lat="40.62418419059469" lon="8.977169666943638"><ele>201.0</ele><time>2026-04-11T09:43:54Z</time></trkpt><trkpt lat="40.62429704120963" lon="8.977278070503969"><ele>201.0</ele><time>2026-04-11T09:43:55Z</time></trkpt><trkpt lat="40.62440585691093" lon="8.977387199253759"><ele>201.0</ele><time>2026-04-11T09:43:56Z</time></trkpt><trkpt lat="40.6245118986402" lon="8.97750126896361"><ele>201.0</ele><time>2026-04-11T09:43:57Z</time></trkpt><trkpt lat="40.62461900482391" lon="8.97761104586212"><ele>201.0</ele><time>2026-04-11T09:43:58Z</time></trkpt><trkpt lat="40.624712895486816" lon="8.977739399300864"><ele>201.0</ele><time>2026-04-11T09:43:59Z</time></trkpt><trkpt lat="40.6248252492799" lon="8.977841133065166"><ele>201.0</ele><time>2026-04-11T09:44:00Z</time></trkpt><trkpt lat="40.62493127901475" lon="8.977957941661252"><ele>201.0</ele><time>2026-04-11T09:44:01Z</time></trkpt><trkpt lat="40.62503607657785" lon="8.978068868505751"><ele>201.0</ele><time>2026-04-11T09:44:02Z</time></trkpt><trkpt lat="40.62514160967261" lon="8.978178115823477"><ele>201.0</ele><time>2026-04-11T09:44:03Z</time></trkpt><trkpt lat="40.625244248678975" lon="8.978289144381545"><ele>201.0</ele><time>2026-04-11T09:44:04Z</time></trkpt><trkpt lat="40.62534414277633" lon="8.97839320214224"><ele>201.5</ele><time>2026-04-11T09:44:05Z</time></trkpt><trkpt lat="40.625431883996626" lon="8.978513546315222"><ele>202.0</ele><time>2026-04-11T09:44:06Z</time></trkpt><trkpt lat="40.62552964777223" lon="8.97861794570732"><ele>202.5</ele><time>2026-04-11T09:44:07Z</time></trkpt><trkpt lat="40.62562739069953" lon="8.978722312837908"><ele>203.0</ele><time>2026-04-11T09:44:08Z</time></trkpt><trkpt lat="40.6257256142483" lon="8.978827193138155"><ele>203.0</ele><time>2026-04-11T09:44:09Z</time></trkpt><trkpt lat="40.625825436385746" lon="8.978933780389537"><ele>203.0</ele><time>2026-04-11T09:44:10Z</time></trkpt><trkpt lat="40.62593506726955" lon="8.979031767508099"><ele>203.0</ele><time>2026-04-11T09:44:11Z</time></trkpt><trkpt lat="40.62603689318617" lon="8.979144179984974"><ele>203.0</ele><time>2026-04-11T09:44:12Z</time></trkpt><trkpt lat="40.62613863642191" lon="8.979260176172302"><ele>202.5</ele><time>2026-04-11T09:44:13Z</time></trkpt><trkpt lat="40.62624049277721" lon="8.97938111829279"><ele>202.0</ele><time>2026-04-11T09:44:14Z</time></trkpt><trkpt lat="40.62632962114955" lon="8.979521969121862"><ele>201.5</ele><time>2026-04-11T09:44:15Z</time></trkpt><trkpt lat="40.62643284193825" lon="8.979654440758821"><ele>201.0</ele><time>2026-04-11T09:44:16Z</time></trkpt><trkpt lat="40.62653746309092" lon="8.979788975823627"><ele>201.0</ele><time>2026-04-11T09:44:17Z</time></trkpt><trkpt lat="40.62665437031641" lon="8.979914600155196"><ele>201.0</ele><time>2026-04-11T09:44:18Z</time></trkpt><trkpt lat="40.62675141520918" lon="8.980069127777556"><ele>201.0</ele><time>2026-04-11T09:44:19Z</time></trkpt><trkpt lat="40.626869589210244" lon="8.980191202492419"><ele>200.5</ele><time>2026-04-11T09:44:20Z</time></trkpt><trkpt lat="40.62697479958798" lon="8.980327136870498"><ele>200.0</ele><time>2026-04-11T09:44:21Z</time></trkpt><trkpt lat="40.62707973117734" lon="8.980463091284667"><ele>199.5</ele><time>2026-04-11T09:44:22Z</time></trkpt><trkpt lat="40.62718465504708" lon="8.980600299321353"><ele>199.0</ele><time>2026-04-11T09:44:23Z</time></trkpt><trkpt lat="40.62728045926163" lon="8.980751487707867"><ele>199.5</ele><time>2026-04-11T09:44:24Z</time></trkpt><trkpt lat="40.627385849882245" lon="8.980887784381862"><ele>200.0</ele><time>2026-04-11T09:44:25Z</time></trkpt><trkpt lat="40.62749192957819" lon="8.981025144528843"><ele>200.5</ele><time>2026-04-11T09:44:26Z</time></trkpt><trkpt lat="40.62759741714985" lon="8.981161737931405"><ele>201.0</ele><time>2026-04-11T09:44:27Z</time></trkpt><trkpt lat="40.62769859297763" lon="8.981291035270235"><ele>201.0</ele><time>2026-04-11T09:44:28Z</time></trkpt><trkpt lat="40.6277919761009" lon="8.981410161546533"><ele>201.0</ele><time>2026-04-11T09:44:29Z</time></trkpt><trkpt lat="40.62787703497229" lon="8.981520503265243"><ele>201.0</ele><time>2026-04-11T09:44:30Z</time></trkpt><trkpt lat="40.62794028078344" lon="8.981639204470431"><ele>201.0</ele><time>2026-04-11T09:44:31Z</time></trkpt><trkpt lat="40.62797827254847" lon="8.981754170932831"><ele>199.75</ele><time>2026-04-11T09:44:32Z</time></trkpt><trkpt lat="40.62799844062504" lon="8.981892844643845"><ele>198.5</ele><time>2026-04-11T09:44:33Z</time></trkpt><trkpt lat="40.62801488579643" lon="8.982055395143709"><ele>197.25</ele><time>2026-04-11T09:44:34Z</time></trkpt><trkpt lat="40.62802999946611" lon="8.982226872401267"><ele>196.0</ele><time>2026-04-11T09:44:35Z</time></trkpt><trkpt lat="40.62804734895139" lon="8.982399167392613"><ele>196.0</ele><time>2026-04-11T09:44:36Z</time></trkpt><trkpt lat="40.62806469582751" lon="8.982569870027104"><ele>196.0</ele><time>2026-04-11T09:44:37Z</time></trkpt><trkpt lat="40.62808179276403" lon="8.982738113139114"><ele>196.0</ele><time>2026-04-11T09:44:38Z</time></trkpt><trkpt lat="40.62809873378546" lon="8.982904821768761"><ele>196.0</ele><time>2026-04-11T09:44:38.999Z</time></trkpt><trkpt lat="40.628115215750334" lon="8.983067013240746"><ele>196.0</ele><time>2026-04-11T09:44:39.999Z</time></trkpt><trkpt lat="40.62813192865504" lon="8.983231477046656"><ele>196.0</ele><time>2026-04-11T09:44:40.999Z</time></trkpt><trkpt lat="40.628148535687146" lon="8.98339438887406"><ele>196.0</ele><time>2026-04-11T09:44:41.999Z</time></trkpt><trkpt lat="40.62816486652077" lon="8.983553234227562"><ele>196.0</ele><time>2026-04-11T09:44:42.999Z</time></trkpt><trkpt lat="40.62818068057524" lon="8.983707053519499"><ele>196.5</ele><time>2026-04-11T09:44:43.999Z</time></trkpt><trkpt lat="40.62819654502154" lon="8.983861362563886"><ele>197.0</ele><time>2026-04-11T09:44:44.999Z</time></trkpt><trkpt lat="40.62821285353196" lon="8.984019991148653"><ele>197.5</ele><time>2026-04-11T09:44:45.999Z</time></trkpt><trkpt lat="40.6282294784999" lon="8.98418169773437"><ele>198.0</ele><time>2026-04-11T09:44:46.999Z</time></trkpt><trkpt lat="40.62824622466504" lon="8.984344582592348"><ele>198.75</ele><time>2026-04-11T09:44:47.999Z</time></trkpt><trkpt lat="40.62826295773626" lon="8.98450734101479"><ele>199.5</ele><time>2026-04-11T09:44:48.999Z</time></trkpt><trkpt lat="40.62827972613582" lon="8.984670436693957"><ele>200.25</ele><time>2026-04-11T09:44:49.999Z</time></trkpt><trkpt lat="40.62829613155783" lon="8.984832009270892"><ele>201.0</ele><time>2026-04-11T09:44:50.999Z</time></trkpt><trkpt lat="40.62831290371512" lon="8.984996392502515"><ele>201.0</ele><time>2026-04-11T09:44:51.999Z</time></trkpt><trkpt lat="40.62832963662723" lon="8.985160391515112"><ele>201.0</ele><time>2026-04-11T09:44:52.999Z</time></trkpt><trkpt lat="40.62834618439625" lon="8.985322575907738"><ele>201.0</ele><time>2026-04-11T09:44:53.999Z</time></trkpt><trkpt lat="40.62836223512197" lon="8.985479888929707"><ele>201.0</ele><time>2026-04-11T09:44:54.999Z</time></trkpt><trkpt lat="40.62837815685339" lon="8.985635937500573"><ele>201.0</ele><time>2026-04-11T09:44:55.999Z</time></trkpt><trkpt lat="40.62839422070775" lon="8.985793378981738"><ele>201.0</ele><time>2026-04-11T09:44:56.999Z</time></trkpt><trkpt lat="40.62841026526052" lon="8.985952223653632"><ele>201.0</ele><time>2026-04-11T09:44:57.999Z</time></trkpt><trkpt lat="40.62842595296581" lon="8.98610885905959"><ele>201.0</ele><time>2026-04-11T09:44:58.999Z</time></trkpt><trkpt lat="40.62844088502014" lon="8.986257949640011"><ele>201.0</ele><time>2026-04-11T09:44:59.999Z</time></trkpt><trkpt lat="40.628457320983095" lon="8.986398267426157"><ele>201.0</ele><time>2026-04-11T09:45:00.999Z</time></trkpt><trkpt lat="40.62847786067739" lon="8.986535469147492"><ele>201.0</ele><time>2026-04-11T09:45:01.999Z</time></trkpt><trkpt lat="40.62850718493775" lon="8.98667055425583"><ele>201.0</ele><time>2026-04-11T09:45:02.999Z</time></trkpt><trkpt lat="40.628559407131824" lon="8.986788987612496"><ele>201.0</ele><time>2026-04-11T09:45:03.999Z</time></trkpt><trkpt lat="40.62858402929855" lon="8.986904831886816"><ele>201.0</ele><time>2026-04-11T09:45:04.999Z</time></trkpt><trkpt lat="40.628617349448334" lon="8.986995220050153"><ele>201.0</ele><time>2026-04-11T09:45:05.999Z</time></trkpt><trkpt lat="40.62866556784995" lon="8.987093065118959"><ele>201.0</ele><time>2026-04-11T09:45:07.999Z</time></trkpt><trkpt lat="40.62869987342817" lon="8.987163098725299"><ele>201.0</ele><time>2026-04-11T09:45:10.999Z</time></trkpt><trkpt lat="40.628781002424354" lon="8.98709431227454"><ele>201.0</ele><time>2026-04-11T09:45:12.999Z</time></trkpt><trkpt lat="40.628848328504034" lon="8.987044256093535"><ele>201.0</ele><time>2026-04-11T09:45:13.999Z</time></trkpt><trkpt lat="40.628931913701415" lon="8.987013424425427"><ele>201.0</ele><time>2026-04-11T09:45:14.999Z</time></trkpt><trkpt lat="40.62902304484609" lon="8.98698263774799"><ele>201.0</ele><time>2026-04-11T09:45:15.999Z</time></trkpt><trkpt lat="40.62912241753672" lon="8.986957268942717"><ele>201.0</ele><time>2026-04-11T09:45:16.999Z</time></trkpt><trkpt lat="40.62922452721133" lon="8.986940320711732"><ele>201.0</ele><time>2026-04-11T09:45:17.999Z</time></trkpt><trkpt lat="40.62933668242226" lon="8.986932162943619"><ele>201.0</ele><time>2026-04-11T09:45:18.999Z</time></trkpt><trkpt lat="40.629460775062086" lon="8.98692737517675"><ele>199.75</ele><time>2026-04-11T09:45:19.999Z</time></trkpt><trkpt lat="40.62958882994398" lon="8.986917393013565"><ele>198.5</ele><time>2026-04-11T09:45:20.999Z</time></trkpt><trkpt lat="40.62972035251781" lon="8.98690737054071"><ele>197.25</ele><time>2026-04-11T09:45:21.999Z</time></trkpt><trkpt lat="40.62985630788912" lon="8.986894109258067"><ele>196.0</ele><time>2026-04-11T09:45:22.999Z</time></trkpt><trkpt lat="40.6300007845314" lon="8.986886782934931"><ele>196.0</ele><time>2026-04-11T09:45:23.999Z</time></trkpt><trkpt lat="40.630148612672194" lon="8.98688125399253"><ele>196.0</ele><time>2026-04-11T09:45:24.999Z</time></trkpt><trkpt lat="40.63029846891631" lon="8.986875951573431"><ele>196.0</ele><time>2026-04-11T09:45:25.999Z</time></trkpt><trkpt lat="40.63044952371111" lon="8.986871068701321"><ele>196.0</ele><time>2026-04-11T09:45:26.999Z</time></trkpt><trkpt lat="40.630603852299394" lon="8.986863450713638"><ele>195.33333333333331</ele><time>2026-04-11T09:45:27.999Z</time></trkpt><trkpt lat="40.63075806182524" lon="8.986856635474775"><ele>194.66666666666669</ele><time>2026-04-11T09:45:28.999Z</time></trkpt><trkpt lat="40.63093214055502" lon="8.986837703395036"><ele>194.0</ele><time>2026-04-11T09:45:29.999Z</time></trkpt><trkpt lat="40.631112012510876" lon="8.98681173144691"><ele>193.33333333333334</ele><time>2026-04-11T09:45:30.999Z</time></trkpt><trkpt lat="40.6312962607966" lon="8.986794094864031"><ele>192.66666666666669</ele><time>2026-04-11T09:45:31.999Z</time></trkpt><trkpt lat="40.631474940025676" lon="8.986799764961713"><ele>192.0</ele><time>2026-04-11T09:45:32.999Z</time></trkpt><trkpt lat="40.6316403774873" lon="8.986775981606257"><ele>192.0</ele><time>2026-04-11T09:45:33.999Z</time></trkpt><trkpt lat="40.631813619507355" lon="8.986780345398003"><ele>192.0</ele><time>2026-04-11T09:45:34.999Z</time></trkpt><trkpt lat="40.6319992391228" lon="8.986769602187726"><ele>192.0</ele><time>2026-04-11T09:45:35.999Z</time></trkpt><trkpt lat="40.632169089073344" lon="8.986759838308897"><ele>190.66666666666666</ele><time>2026-04-11T09:45:36.999Z</time></trkpt><trkpt lat="40.63234023693815" lon="8.986758453110925"><ele>189.33333333333331</ele><time>2026-04-11T09:45:37.999Z</time></trkpt><trkpt lat="40.632515507672856" lon="8.986750489422782"><ele>188.0</ele><time>2026-04-11T09:45:38.999Z</time></trkpt><trkpt lat="40.63269040843985" lon="8.986742542697582"><ele>188.0</ele><time>2026-04-11T09:45:39.999Z</time></trkpt><trkpt lat="40.632863961336824" lon="8.986733977385342"><ele>188.0</ele><time>2026-04-11T09:45:40.999Z</time></trkpt><trkpt lat="40.63302766917303" lon="8.98672608179922"><ele>188.0</ele><time>2026-04-11T09:45:41.999Z</time></trkpt><trkpt lat="40.63319835744846" lon="8.986717849564556"><ele>188.0</ele><time>2026-04-11T09:45:42.999Z</time></trkpt><trkpt lat="40.63337262666517" lon="8.986688905336855"><ele>188.0</ele><time>2026-04-11T09:45:43.999Z</time></trkpt><trkpt lat="40.63354992252689" lon="8.986688195053627"><ele>188.0</ele><time>2026-04-11T09:45:44.999Z</time></trkpt><trkpt lat="40.63373510088715" lon="8.986692598713972"><ele>188.33333333333331</ele><time>2026-04-11T09:45:45.999Z</time></trkpt><trkpt lat="40.63391664701984" lon="8.986667028128505"><ele>188.66666666666666</ele><time>2026-04-11T09:45:46.999Z</time></trkpt><trkpt lat="40.63410190373709" lon="8.986675601219737"><ele>189.0</ele><time>2026-04-11T09:45:47.999Z</time></trkpt><trkpt lat="40.63428355237076" lon="8.986667183698547"><ele>189.0</ele><time>2026-04-11T09:45:48.999Z</time></trkpt><trkpt lat="40.634467481187876" lon="8.98665866051324"><ele>189.0</ele><time>2026-04-11T09:45:49.999Z</time></trkpt><trkpt lat="40.63465633364898" lon="8.986649909167395"><ele>189.0</ele><time>2026-04-11T09:45:50.999Z</time></trkpt><trkpt lat="40.63485729328314" lon="8.986640596787296"><ele>188.66666666666666</ele><time>2026-04-11T09:45:51.999Z</time></trkpt><trkpt lat="40.635035092439274" lon="8.986632319690486"><ele>188.33333333333331</ele><time>2026-04-11T09:45:52.999Z</time></trkpt><trkpt lat="40.63523213561892" lon="8.98662301801212"><ele>188.0</ele><time>2026-04-11T09:45:53.999Z</time></trkpt><trkpt lat="40.63541280830351" lon="8.986614489127392"><ele>187.33333333333331</ele><time>2026-04-11T09:45:54.999Z</time></trkpt><trkpt lat="40.6355998492943" lon="8.986605659615174"><ele>186.66666666666666</ele><time>2026-04-11T09:45:55.999Z</time></trkpt><trkpt lat="40.635778619281375" lon="8.986597220546749"><ele>186.0</ele><time>2026-04-11T09:45:56.998Z</time></trkpt><trkpt lat="40.63596266007537" lon="8.98658853266071"><ele>186.0</ele><time>2026-04-11T09:45:57.998Z</time></trkpt><trkpt lat="40.636140484791596" lon="8.98658013821579"><ele>186.0</ele><time>2026-04-11T09:45:58.998Z</time></trkpt><trkpt lat="40.63630524213047" lon="8.986572360633092"><ele>186.0</ele><time>2026-04-11T09:45:59.998Z</time></trkpt><trkpt lat="40.63645374753382" lon="8.98656513607609"><ele>186.0</ele><time>2026-04-11T09:46:00.998Z</time></trkpt><trkpt lat="40.636595486080004" lon="8.98655820614154"><ele>186.0</ele><time>2026-04-11T09:46:01.998Z</time></trkpt><trkpt lat="40.636731858152324" lon="8.98655153858463"><ele>186.0</ele><time>2026-04-11T09:46:02.998Z</time></trkpt><trkpt lat="40.63686925550703" lon="8.986544820917103"><ele>186.0</ele><time>2026-04-11T09:46:03.998Z</time></trkpt><trkpt lat="40.63700715486022" lon="8.98653577360166"><ele>186.25</ele><time>2026-04-11T09:46:04.998Z</time></trkpt><trkpt lat="40.6371533787667" lon="8.986522854986788"><ele>186.5</ele><time>2026-04-11T09:46:05.998Z</time></trkpt><trkpt lat="40.6372869761018" lon="8.986497054244682"><ele>186.75</ele><time>2026-04-11T09:46:06.998Z</time></trkpt><trkpt lat="40.63742343619932" lon="8.986464098802882"><ele>187.0</ele><time>2026-04-11T09:46:07.998Z</time></trkpt><trkpt lat="40.637554423333576" lon="8.986421875592454"><ele>187.0</ele><time>2026-04-11T09:46:08.998Z</time></trkpt><trkpt lat="40.63768206755117" lon="8.98638941190214"><ele>187.0</ele><time>2026-04-11T09:46:09.998Z</time></trkpt><trkpt lat="40.637788985153165" lon="8.986290614213797"><ele>187.0</ele><time>2026-04-11T09:46:10.998Z</time></trkpt><trkpt lat="40.63787971876438" lon="8.986192302837528"><ele>187.0</ele><time>2026-04-11T09:46:11.998Z</time></trkpt><trkpt lat="40.63794442677032" lon="8.986099480207953"><ele>187.0</ele><time>2026-04-11T09:46:12.998Z</time></trkpt><trkpt lat="40.63801369920061" lon="8.98600121985266"><ele>187.0</ele><time>2026-04-11T09:46:13.998Z</time></trkpt><trkpt lat="40.63809608408607" lon="8.98591904033243"><ele>187.0</ele><time>2026-04-11T09:46:14.998Z</time></trkpt><trkpt lat="40.63816883437484" lon="8.985823480994654"><ele>187.0</ele><time>2026-04-11T09:46:15.998Z</time></trkpt><trkpt lat="40.63824450380288" lon="8.985730873130919"><ele>187.0</ele><time>2026-04-11T09:46:16.998Z</time></trkpt><trkpt lat="40.6383091457115" lon="8.985649972386382"><ele>187.0</ele><time>2026-04-11T09:46:17.998Z</time></trkpt><trkpt lat="40.638381241291704" lon="8.985568806209356"><ele>187.0</ele><time>2026-04-11T09:46:18.998Z</time></trkpt><trkpt lat="40.63844050630626" lon="8.985471735361305"><ele>187.0</ele><time>2026-04-11T09:46:19.998Z</time></trkpt><trkpt lat="40.638521207414655" lon="8.98537204308859"><ele>187.0</ele><time>2026-04-11T09:46:20.998Z</time></trkpt><trkpt lat="40.638597870766255" lon="8.985280252452242"><ele>187.0</ele><time>2026-04-11T09:46:21.998Z</time></trkpt><trkpt lat="40.638666671329105" lon="8.985200085734416"><ele>186.5</ele><time>2026-04-11T09:46:22.998Z</time></trkpt><trkpt lat="40.63871415892172" lon="8.985119382602202"><ele>186.0</ele><time>2026-04-11T09:46:23.998Z</time></trkpt><trkpt lat="40.63876323397571" lon="8.98504419916495"><ele>185.5</ele><time>2026-04-11T09:46:24.998Z</time></trkpt><trkpt lat="40.638852187254024" lon="8.984933239554978"><ele>185.0</ele><time>2026-04-11T09:46:26.998Z</time></trkpt><trkpt lat="40.638914401915265" lon="8.984868736721115"><ele>184.5</ele><time>2026-04-11T09:46:28.998Z</time></trkpt><trkpt lat="40.63896609646187" lon="8.984811023476333"><ele>184.0</ele><time>2026-04-11T09:46:30.998Z</time></trkpt><trkpt lat="40.638897649558345" lon="8.984857112332877"><ele>184.0</ele><time>2026-04-11T09:46:41.998Z</time></trkpt><trkpt lat="40.63883173023446" lon="8.984957049268214"><ele>184.0</ele><time>2026-04-11T09:46:42.998Z</time></trkpt><trkpt lat="40.63876108195642" lon="8.985051653216821"><ele>184.0</ele><time>2026-04-11T09:46:43.998Z</time></trkpt><trkpt lat="40.638666317919245" lon="8.985107157367457"><ele>184.0</ele><time>2026-04-11T09:46:44.998Z</time></trkpt><trkpt lat="40.6385721703391" lon="8.985226289194152"><ele>184.0</ele><time>2026-04-11T09:46:45.998Z</time></trkpt><trkpt lat="40.63847039067027" lon="8.985356141781775"><ele>184.6</ele><time>2026-04-11T09:46:46.998Z</time></trkpt><trkpt lat="40.63837119822598" lon="8.985482693626084"><ele>185.2</ele><time>2026-04-11T09:46:47.998Z</time></trkpt><trkpt lat="40.63828429533836" lon="8.985593566119391"><ele>185.79999999999998</ele><time>2026-04-11T09:46:48.998Z</time></trkpt><trkpt lat="40.63821707801115" lon="8.985679323377855"><ele>186.39999999999998</ele><time>2026-04-11T09:46:49.998Z</time></trkpt><trkpt lat="40.6381691105187" lon="8.985740521475417"><ele>187.0</ele><time>2026-04-11T09:46:50.998Z</time></trkpt><trkpt lat="40.63825540413327" lon="8.98586812662258"><ele>187.0</ele><time>2026-04-11T09:46:53.998Z</time></trkpt><trkpt lat="40.638350728249385" lon="8.985882756575567"><ele>187.0</ele><time>2026-04-11T09:46:54.998Z</time></trkpt><trkpt lat="40.63846508589593" lon="8.98588570270734"><ele>187.0</ele><time>2026-04-11T09:46:55.998Z</time></trkpt><trkpt lat="40.638572898862" lon="8.985902503665182"><ele>187.0</ele><time>2026-04-11T09:46:56.998Z</time></trkpt><trkpt lat="40.63869122629215" lon="8.985919879279725"><ele>187.0</ele><time>2026-04-11T09:46:57.998Z</time></trkpt><trkpt lat="40.63879566474773" lon="8.985934685047436"><ele>186.75</ele><time>2026-04-11T09:46:58.998Z</time></trkpt><trkpt lat="40.638944273220496" lon="8.985939811019204"><ele>186.5</ele><time>2026-04-11T09:46:59.998Z</time></trkpt><trkpt lat="40.63908051133347" lon="8.985961971083956"><ele>186.25</ele><time>2026-04-11T09:47:00.998Z</time></trkpt><trkpt lat="40.63919978239609" lon="8.98598275613538"><ele>186.0</ele><time>2026-04-11T09:47:01.998Z</time></trkpt><trkpt lat="40.63934698837521" lon="8.986022914739168"><ele>185.5</ele><time>2026-04-11T09:47:02.998Z</time></trkpt><trkpt lat="40.63947501878075" lon="8.986036245078921"><ele>185.0</ele><time>2026-04-11T09:47:03.998Z</time></trkpt><trkpt lat="40.639609226591794" lon="8.986051161023692"><ele>184.5</ele><time>2026-04-11T09:47:04.998Z</time></trkpt><trkpt lat="40.63973679789179" lon="8.986089643416692"><ele>184.0</ele><time>2026-04-11T09:47:05.998Z</time></trkpt><trkpt lat="40.63987081646805" lon="8.98611214640397"><ele>184.0</ele><time>2026-04-11T09:47:06.998Z</time></trkpt><trkpt lat="40.64000031778054" lon="8.986132979655332"><ele>184.0</ele><time>2026-04-11T09:47:07.998Z</time></trkpt><trkpt lat="40.64013183973868" lon="8.986152033205515"><ele>184.0</ele><time>2026-04-11T09:47:08.998Z</time></trkpt><trkpt lat="40.64025766844245" lon="8.98617045451967"><ele>184.0</ele><time>2026-04-11T09:47:09.998Z</time></trkpt><trkpt lat="40.64039109568279" lon="8.98619238775057"><ele>183.5</ele><time>2026-04-11T09:47:10.998Z</time></trkpt><trkpt lat="40.640522687866024" lon="8.986214019371179"><ele>183.0</ele><time>2026-04-11T09:47:11.998Z</time></trkpt><trkpt lat="40.64065545493969" lon="8.986235844035287"><ele>182.5</ele><time>2026-04-11T09:47:12.998Z</time></trkpt><trkpt lat="40.64079450527805" lon="8.986257528913754"><ele>182.0</ele><time>2026-04-11T09:47:13.998Z</time></trkpt><trkpt lat="40.64094947201881" lon="8.98628022031838"><ele>182.0</ele><time>2026-04-11T09:47:14.998Z</time></trkpt><trkpt lat="40.64109879244702" lon="8.986302963951957"><ele>182.0</ele><time>2026-04-11T09:47:15.997Z</time></trkpt><trkpt lat="40.641247704426185" lon="8.986327020196542"><ele>182.0</ele><time>2026-04-11T09:47:16.997Z</time></trkpt><trkpt lat="40.6413814690849" lon="8.986348629287225"><ele>182.0</ele><time>2026-04-11T09:47:17.997Z</time></trkpt><trkpt lat="40.64152896204399" lon="8.986372596522576"><ele>182.0</ele><time>2026-04-11T09:47:18.997Z</time></trkpt><trkpt lat="40.64168192949335" lon="8.986398719680592"><ele>182.0</ele><time>2026-04-11T09:47:19.997Z</time></trkpt><trkpt lat="40.64182299842234" lon="8.98642281076992"><ele>182.0</ele><time>2026-04-11T09:47:20.997Z</time></trkpt><trkpt lat="40.641962603746045" lon="8.986446516693663"><ele>182.0</ele><time>2026-04-11T09:47:21.997Z</time></trkpt><trkpt lat="40.6420912976128" lon="8.98646796071656"><ele>182.0</ele><time>2026-04-11T09:47:22.997Z</time></trkpt><trkpt lat="40.64221323064918" lon="8.986487882731641"><ele>182.0</ele><time>2026-04-11T09:47:23.997Z</time></trkpt><trkpt lat="40.64231172208083" lon="8.986502062766629"><ele>182.0</ele><time>2026-04-11T09:47:24.997Z</time></trkpt><trkpt lat="40.64239487284438" lon="8.986514034197176"><ele>182.0</ele><time>2026-04-11T09:47:25.997Z</time></trkpt><trkpt lat="40.64247733790854" lon="8.986525906809526"><ele>182.0</ele><time>2026-04-11T09:47:26.997Z</time></trkpt><trkpt lat="40.64255458398208" lon="8.986537028082356"><ele>182.0</ele><time>2026-04-11T09:47:27.997Z</time></trkpt><trkpt lat="40.64262726446727" lon="8.986547492029398"><ele>182.0</ele><time>2026-04-11T09:47:28.997Z</time></trkpt><trkpt lat="40.642701093937895" lon="8.986558121375957"><ele>182.0</ele><time>2026-04-11T09:47:29.997Z</time></trkpt><trkpt lat="40.64280592572608" lon="8.986573214209598"><ele>182.0</ele><time>2026-04-11T09:47:31.997Z</time></trkpt><trkpt lat="40.642954715976856" lon="8.98658835828199"><ele>182.0</ele><time>2026-04-11T09:48:51.996Z</time></trkpt><trkpt lat="40.643069411816974" lon="8.986612880514745"><ele>182.0</ele><time>2026-04-11T09:48:52.996Z</time></trkpt><trkpt lat="40.64319525932482" lon="8.986611611099159"><ele>182.0</ele><time>2026-04-11T09:48:53.996Z</time></trkpt><trkpt lat="40.643326588763664" lon="8.986633549895975"><ele>182.0</ele><time>2026-04-11T09:48:54.996Z</time></trkpt><trkpt lat="40.64346103092433" lon="8.98665716969915"><ele>182.0</ele><time>2026-04-11T09:48:55.996Z</time></trkpt><trkpt lat="40.64360001841562" lon="8.986678390594442"><ele>182.0</ele><time>2026-04-11T09:48:56.996Z</time></trkpt><trkpt lat="40.64374191348438" lon="8.986697947519026"><ele>182.0</ele><time>2026-04-11T09:48:57.996Z</time></trkpt><trkpt lat="40.643886818943884" lon="8.986727452004356"><ele>182.0</ele><time>2026-04-11T09:48:58.996Z</time></trkpt><trkpt lat="40.64403093587997" lon="8.98675470919988"><ele>182.0</ele><time>2026-04-11T09:48:59.996Z</time></trkpt><trkpt lat="40.644171268069876" lon="8.98678189267064"><ele>182.0</ele><time>2026-04-11T09:49:00.996Z</time></trkpt><trkpt lat="40.644308947918795" lon="8.986804127183698"><ele>182.0</ele><time>2026-04-11T09:49:01.996Z</time></trkpt><trkpt lat="40.64444881662515" lon="8.986818296945849"><ele>182.0</ele><time>2026-04-11T09:49:02.996Z</time></trkpt><trkpt lat="40.64459024792887" lon="8.986839258738874"><ele>182.0</ele><time>2026-04-11T09:49:03.996Z</time></trkpt><trkpt lat="40.64473160185299" lon="8.986859276350879"><ele>183.0</ele><time>2026-04-11T09:49:04.996Z</time></trkpt><trkpt lat="40.64487402215023" lon="8.986894610850905"><ele>184.0</ele><time>2026-04-11T09:49:05.996Z</time></trkpt><trkpt lat="40.645016703231896" lon="8.986918873724425"><ele>185.0</ele><time>2026-04-11T09:49:06.996Z</time></trkpt><trkpt lat="40.64515761328078" lon="8.986938646924028"><ele>186.0</ele><time>2026-04-11T09:49:07.996Z</time></trkpt><trkpt lat="40.64529839331228" lon="8.986957678353745"><ele>186.75</ele><time>2026-04-11T09:49:08.996Z</time></trkpt><trkpt lat="40.645440062811936" lon="8.986975648393354"><ele>187.5</ele><time>2026-04-11T09:49:09.996Z</time></trkpt><trkpt lat="40.645581374208945" lon="8.98700164754071"><ele>188.25</ele><time>2026-04-11T09:49:10.996Z</time></trkpt><trkpt lat="40.645726935326145" lon="8.987028711292975"><ele>189.0</ele><time>2026-04-11T09:49:11.996Z</time></trkpt><trkpt lat="40.64587255148884" lon="8.987056086577597"><ele>189.0</ele><time>2026-04-11T09:49:12.996Z</time></trkpt><trkpt lat="40.64601805544859" lon="8.987075902235754"><ele>189.0</ele><time>2026-04-11T09:49:13.996Z</time></trkpt><trkpt lat="40.64616560731318" lon="8.98709707385529"><ele>189.0</ele><time>2026-04-11T09:49:14.996Z</time></trkpt><trkpt lat="40.64631237970064" lon="8.987119396932956"><ele>189.0</ele><time>2026-04-11T09:49:15.996Z</time></trkpt><trkpt lat="40.646455719961274" lon="8.987143428042002"><ele>189.5</ele><time>2026-04-11T09:49:16.996Z</time></trkpt><trkpt lat="40.64659488289445" lon="8.987165834029065"><ele>190.0</ele><time>2026-04-11T09:49:17.996Z</time></trkpt><trkpt lat="40.64672976367891" lon="8.987186906166169"><ele>190.5</ele><time>2026-04-11T09:49:18.996Z</time></trkpt><trkpt lat="40.64685688663508" lon="8.98720581156858"><ele>191.0</ele><time>2026-04-11T09:49:19.996Z</time></trkpt><trkpt lat="40.646980832507026" lon="8.987212863787757"><ele>191.5</ele><time>2026-04-11T09:49:20.996Z</time></trkpt><trkpt lat="40.64710145246073" lon="8.98723161479475"><ele>192.0</ele><time>2026-04-11T09:49:21.996Z</time></trkpt><trkpt lat="40.647225372506554" lon="8.987271073185232"><ele>192.5</ele><time>2026-04-11T09:49:22.996Z</time></trkpt><trkpt lat="40.64736048928758" lon="8.987274520191512"><ele>193.0</ele><time>2026-04-11T09:49:23.996Z</time></trkpt><trkpt lat="40.64750020767266" lon="8.987300345670661"><ele>193.0</ele><time>2026-04-11T09:49:24.996Z</time></trkpt><trkpt lat="40.64764745240683" lon="8.987326093966384"><ele>193.0</ele><time>2026-04-11T09:49:25.996Z</time></trkpt><trkpt lat="40.64779802234828" lon="8.987353048709736"><ele>193.0</ele><time>2026-04-11T09:49:26.996Z</time></trkpt><trkpt lat="40.64795092785856" lon="8.987374707791727"><ele>192.33333333333331</ele><time>2026-04-11T09:49:27.996Z</time></trkpt><trkpt lat="40.6481032761568" lon="8.987395890545034"><ele>191.66666666666666</ele><time>2026-04-11T09:49:28.996Z</time></trkpt><trkpt lat="40.64827487439782" lon="8.987438286443403"><ele>191.0</ele><time>2026-04-11T09:49:29.996Z</time></trkpt><trkpt lat="40.64845903686717" lon="8.98746392067587"><ele>191.0</ele><time>2026-04-11T09:49:30.996Z</time></trkpt><trkpt lat="40.64864880258829" lon="8.98747516658767"><ele>191.0</ele><time>2026-04-11T09:49:31.996Z</time></trkpt><trkpt lat="40.64881828299134" lon="8.987517825309704"><ele>191.0</ele><time>2026-04-11T09:49:32.996Z</time></trkpt><trkpt lat="40.64898933645345" lon="8.98753897294609"><ele>191.0</ele><time>2026-04-11T09:49:33.996Z</time></trkpt><trkpt lat="40.64913511371781" lon="8.987576841536022"><ele>191.0</ele><time>2026-04-11T09:49:34.996Z</time></trkpt><trkpt lat="40.64929185815218" lon="8.98760885576346"><ele>191.0</ele><time>2026-04-11T09:49:35.996Z</time></trkpt><trkpt lat="40.649461253841025" lon="8.987620181526754"><ele>190.33333333333331</ele><time>2026-04-11T09:49:36.996Z</time></trkpt><trkpt lat="40.64961385514075" lon="8.987645379730834"><ele>189.66666666666666</ele><time>2026-04-11T09:49:37.996Z</time></trkpt><trkpt lat="40.649780073722816" lon="8.987663496824716"><ele>189.0</ele><time>2026-04-11T09:49:38.996Z</time></trkpt><trkpt lat="40.64995924029462" lon="8.98769219883338"><ele>189.0</ele><time>2026-04-11T09:49:39.996Z</time></trkpt><trkpt lat="40.65014927591539" lon="8.98771624837936"><ele>189.0</ele><time>2026-04-11T09:49:40.996Z</time></trkpt><trkpt lat="40.65033211378178" lon="8.987751898883461"><ele>189.0</ele><time>2026-04-11T09:49:41.996Z</time></trkpt><trkpt lat="40.650513501561726" lon="8.98776824006967"><ele>188.33333333333334</ele><time>2026-04-11T09:49:42.996Z</time></trkpt><trkpt lat="40.65066362395748" lon="8.987800398065215"><ele>187.66666666666669</ele><time>2026-04-11T09:49:43.996Z</time></trkpt><trkpt lat="40.650840263780715" lon="8.987828041745537"><ele>187.0</ele><time>2026-04-11T09:49:44.996Z</time></trkpt><trkpt lat="40.65099805315335" lon="8.987853798502817"><ele>186.5</ele><time>2026-04-11T09:49:45.996Z</time></trkpt><trkpt lat="40.65114499808662" lon="8.98787778499906"><ele>186.0</ele><time>2026-04-11T09:49:46.996Z</time></trkpt><trkpt lat="40.65129339265721" lon="8.987901857908037"><ele>185.5</ele><time>2026-04-11T09:49:47.996Z</time></trkpt><trkpt lat="40.651444334258386" lon="8.98792417924545"><ele>185.0</ele><time>2026-04-11T09:49:48.996Z</time></trkpt><trkpt lat="40.6515794778165" lon="8.987944164358405"><ele>185.0</ele><time>2026-04-11T09:49:49.996Z</time></trkpt><trkpt lat="40.651724011454874" lon="8.987965168581658"><ele>185.0</ele><time>2026-04-11T09:49:50.996Z</time></trkpt><trkpt lat="40.65186163505809" lon="8.987976385330835"><ele>185.0</ele><time>2026-04-11T09:49:51.996Z</time></trkpt><trkpt lat="40.652004603963604" lon="8.98797250975177"><ele>185.0</ele><time>2026-04-11T09:49:52.995Z</time></trkpt><trkpt lat="40.65215169840851" lon="8.987964999428458"><ele>184.75</ele><time>2026-04-11T09:49:53.995Z</time></trkpt><trkpt lat="40.652292802595305" lon="8.98795823626"><ele>184.5</ele><time>2026-04-11T09:49:54.995Z</time></trkpt><trkpt lat="40.652439265900234" lon="8.987950166802833"><ele>184.25</ele><time>2026-04-11T09:49:55.995Z</time></trkpt><trkpt lat="40.652575429415805" lon="8.987941340125138"><ele>184.0</ele><time>2026-04-11T09:49:56.995Z</time></trkpt><trkpt lat="40.652713035185265" lon="8.987932420612397"><ele>183.75</ele><time>2026-04-11T09:49:57.995Z</time></trkpt><trkpt lat="40.65286500970548" lon="8.987922569002071"><ele>183.5</ele><time>2026-04-11T09:49:58.995Z</time></trkpt><trkpt lat="40.65299766436899" lon="8.987916729442578"><ele>183.25</ele><time>2026-04-11T09:49:59.995Z</time></trkpt><trkpt lat="40.65312199940177" lon="8.987914200339993"><ele>183.0</ele><time>2026-04-11T09:50:00.995Z</time></trkpt><trkpt lat="40.653259968266696" lon="8.987911511958295"><ele>183.0</ele><time>2026-04-11T09:50:01.995Z</time></trkpt><trkpt lat="40.653417781570745" lon="8.987903348011812"><ele>183.0</ele><time>2026-04-11T09:50:02.995Z</time></trkpt><trkpt lat="40.65356477904876" lon="8.98789357119618"><ele>183.0</ele><time>2026-04-11T09:50:03.995Z</time></trkpt><trkpt lat="40.653721073408185" lon="8.987881690850493"><ele>182.75</ele><time>2026-04-11T09:50:04.996Z</time></trkpt><trkpt lat="40.6538652742166" lon="8.987872523560808"><ele>182.5</ele><time>2026-04-11T09:50:05.996Z</time></trkpt><trkpt lat="40.65401491495271" lon="8.98786413018828"><ele>182.25</ele><time>2026-04-11T09:50:06.996Z</time></trkpt><trkpt lat="40.65415422175731" lon="8.987856316450683"><ele>182.0</ele><time>2026-04-11T09:50:07.996Z</time></trkpt><trkpt lat="40.65429455479948" lon="8.987848445151952"><ele>182.0</ele><time>2026-04-11T09:50:08.996Z</time></trkpt><trkpt lat="40.65442061802494" lon="8.987848951329717"><ele>182.0</ele><time>2026-04-11T09:50:09.996Z</time></trkpt><trkpt lat="40.65457025725449" lon="8.9878451201773"><ele>182.0</ele><time>2026-04-11T09:50:10.996Z</time></trkpt><trkpt lat="40.654719960207885" lon="8.987836047626118"><ele>182.0</ele><time>2026-04-11T09:50:11.996Z</time></trkpt><trkpt lat="40.65486830580076" lon="8.987832233382628"><ele>180.66666666666666</ele><time>2026-04-11T09:50:12.996Z</time></trkpt><trkpt lat="40.65502427518665" lon="8.98782453750976"><ele>179.33333333333334</ele><time>2026-04-11T09:50:13.996Z</time></trkpt><trkpt lat="40.655185751517784" lon="8.987816569926787"><ele>178.0</ele><time>2026-04-11T09:50:14.996Z</time></trkpt><trkpt lat="40.65534990133601" lon="8.98780742185853"><ele>178.0</ele><time>2026-04-11T09:50:15.996Z</time></trkpt><trkpt lat="40.65552758008739" lon="8.987798594454956"><ele>178.0</ele><time>2026-04-11T09:50:16.996Z</time></trkpt><trkpt lat="40.65570289278698" lon="8.987795841498404"><ele>178.0</ele><time>2026-04-11T09:50:17.996Z</time></trkpt><trkpt lat="40.65588376916163" lon="8.987793978393448"><ele>178.0</ele><time>2026-04-11T09:50:18.996Z</time></trkpt><trkpt lat="40.656045361325354" lon="8.987785044883559"><ele>178.0</ele><time>2026-04-11T09:50:19.996Z</time></trkpt><trkpt lat="40.6562013780937" lon="8.987775795846348"><ele>178.0</ele><time>2026-04-11T09:50:20.996Z</time></trkpt><trkpt lat="40.65637203922583" lon="8.987764791166821"><ele>178.0</ele><time>2026-04-11T09:50:21.996Z</time></trkpt><trkpt lat="40.656527514904234" lon="8.987753854524279"><ele>178.0</ele><time>2026-04-11T09:50:22.996Z</time></trkpt><trkpt lat="40.65670750052372" lon="8.98774119380992"><ele>178.0</ele><time>2026-04-11T09:50:23.996Z</time></trkpt><trkpt lat="40.65688768591285" lon="8.987730040962466"><ele>178.0</ele><time>2026-04-11T09:50:24.996Z</time></trkpt><trkpt lat="40.65706152610101" lon="8.987724086369083"><ele>178.0</ele><time>2026-04-11T09:50:25.996Z</time></trkpt><trkpt lat="40.657227171551106" lon="8.987713463608962"><ele>178.0</ele><time>2026-04-11T09:50:26.996Z</time></trkpt><trkpt lat="40.657390744326236" lon="8.987690774001125"><ele>178.0</ele><time>2026-04-11T09:50:27.996Z</time></trkpt><trkpt lat="40.65756043738122" lon="8.98766463428006"><ele>178.0</ele><time>2026-04-11T09:50:28.996Z</time></trkpt><trkpt lat="40.657735013740414" lon="8.987637742336362"><ele>178.0</ele><time>2026-04-11T09:50:29.996Z</time></trkpt><trkpt lat="40.6579032273967" lon="8.987613356968948"><ele>177.66666666666669</ele><time>2026-04-11T09:50:30.996Z</time></trkpt><trkpt lat="40.65807000917293" lon="8.987604530938368"><ele>177.33333333333334</ele><time>2026-04-11T09:50:31.996Z</time></trkpt><trkpt lat="40.65822999302041" lon="8.987606678172693"><ele>177.0</ele><time>2026-04-11T09:50:32.996Z</time></trkpt><trkpt lat="40.65838600264321" lon="8.987625347290912"><ele>177.0</ele><time>2026-04-11T09:50:33.996Z</time></trkpt><trkpt lat="40.65853347748308" lon="8.987639016071295"><ele>177.0</ele><time>2026-04-11T09:50:34.996Z</time></trkpt><trkpt lat="40.658673016583585" lon="8.9876508743674"><ele>177.0</ele><time>2026-04-11T09:50:35.996Z</time></trkpt><trkpt lat="40.65881091719606" lon="8.987658746375224"><ele>177.0</ele><time>2026-04-11T09:50:36.996Z</time></trkpt><trkpt lat="40.658944683503385" lon="8.987661819109004"><ele>176.66666666666666</ele><time>2026-04-11T09:50:37.996Z</time></trkpt><trkpt lat="40.659089237603524" lon="8.987653205656903"><ele>176.33333333333331</ele><time>2026-04-11T09:50:38.996Z</time></trkpt><trkpt lat="40.659249683032655" lon="8.987593986068498"><ele>176.0</ele><time>2026-04-11T09:50:39.996Z</time></trkpt><trkpt lat="40.65939569394466" lon="8.9875642738103"><ele>176.66666666666666</ele><time>2026-04-11T09:50:40.996Z</time></trkpt><trkpt lat="40.65953776171482" lon="8.987506037772862"><ele>177.33333333333334</ele><time>2026-04-11T09:50:41.996Z</time></trkpt><trkpt lat="40.659704231891425" lon="8.98748848094288"><ele>178.0</ele><time>2026-04-11T09:50:42.996Z</time></trkpt><trkpt lat="40.65986414435912" lon="8.987472487196792"><ele>178.0</ele><time>2026-04-11T09:50:43.996Z</time></trkpt><trkpt lat="40.660032624497944" lon="8.987458159899015"><ele>178.0</ele><time>2026-04-11T09:50:44.996Z</time></trkpt><trkpt lat="40.660210495272445" lon="8.987439508870297"><ele>178.0</ele><time>2026-04-11T09:50:45.996Z</time></trkpt><trkpt lat="40.66039509188248" lon="8.987417799826076"><ele>178.66666666666669</ele><time>2026-04-11T09:50:46.996Z</time></trkpt><trkpt lat="40.66057150743918" lon="8.987397052862768"><ele>179.33333333333334</ele><time>2026-04-11T09:50:47.996Z</time></trkpt><trkpt lat="40.660726481866774" lon="8.9873800775422"><ele>180.0</ele><time>2026-04-11T09:50:48.996Z</time></trkpt><trkpt lat="40.660889261710174" lon="8.987373811509904"><ele>180.0</ele><time>2026-04-11T09:50:50Z</time></trkpt><trkpt lat="40.66104917079018" lon="8.987360513952156"><ele>180.0</ele><time>2026-04-11T09:50:51Z</time></trkpt><trkpt lat="40.66120996460528" lon="8.9873445280557"><ele>180.0</ele><time>2026-04-11T09:50:52Z</time></trkpt><trkpt lat="40.66138653417826" lon="8.987323932555013"><ele>179.66666666666666</ele><time>2026-04-11T09:50:53Z</time></trkpt><trkpt lat="40.661552694426696" lon="8.987293234976311"><ele>179.33333333333331</ele><time>2026-04-11T09:50:54Z</time></trkpt><trkpt lat="40.66171651938544" lon="8.987260489338054"><ele>179.0</ele><time>2026-04-11T09:50:55Z</time></trkpt><trkpt lat="40.661872072620355" lon="8.987228724241625"><ele>179.25</ele><time>2026-04-11T09:50:56Z</time></trkpt><trkpt lat="40.66200952642975" lon="8.987198045347407"><ele>179.5</ele><time>2026-04-11T09:50:57Z</time></trkpt><trkpt lat="40.66214504440098" lon="8.987166498187563"><ele>179.75</ele><time>2026-04-11T09:50:58Z</time></trkpt><trkpt lat="40.662285425878174" lon="8.987131343030175"><ele>180.0</ele><time>2026-04-11T09:50:59Z</time></trkpt><trkpt lat="40.66242846509569" lon="8.98709291052503"><ele>180.0</ele><time>2026-04-11T09:51:00Z</time></trkpt><trkpt lat="40.662557322047654" lon="8.987049691506593"><ele>180.0</ele><time>2026-04-11T09:51:01Z</time></trkpt><trkpt lat="40.66268559183519" lon="8.987005149261746"><ele>180.0</ele><time>2026-04-11T09:51:02Z</time></trkpt><trkpt lat="40.66280815268532" lon="8.986953637920259"><ele>180.0</ele><time>2026-04-11T09:51:03Z</time></trkpt><trkpt lat="40.66291791442204" lon="8.986889943931835"><ele>179.25</ele><time>2026-04-11T09:51:04Z</time></trkpt><trkpt lat="40.66304921560177" lon="8.98683263788294"><ele>178.5</ele><time>2026-04-11T09:51:05Z</time></trkpt><trkpt lat="40.663155424633146" lon="8.986790971008132"><ele>177.75</ele><time>2026-04-11T09:51:06Z</time></trkpt><trkpt lat="40.66325922319527" lon="8.986761730360577"><ele>177.0</ele><time>2026-04-11T09:51:07Z</time></trkpt><trkpt lat="40.66336606824715" lon="8.986717595239082"><ele>177.0</ele><time>2026-04-11T09:51:08Z</time></trkpt><trkpt lat="40.66347765098695" lon="8.986671596636297"><ele>177.0</ele><time>2026-04-11T09:51:09Z</time></trkpt><trkpt lat="40.66358532345199" lon="8.986627255094321"><ele>177.0</ele><time>2026-04-11T09:51:10Z</time></trkpt><trkpt lat="40.663695968833" lon="8.9865825841573"><ele>177.0</ele><time>2026-04-11T09:51:11Z</time></trkpt><trkpt lat="40.66380052507865" lon="8.986539299614703"><ele>176.6</ele><time>2026-04-11T09:51:12Z</time></trkpt><trkpt lat="40.663894842482094" lon="8.986499467664451"><ele>176.2</ele><time>2026-04-11T09:51:13Z</time></trkpt><trkpt lat="40.66399444652878" lon="8.986456909022968"><ele>175.8</ele><time>2026-04-11T09:51:14Z</time></trkpt><trkpt lat="40.66407833893082" lon="8.986418939043922"><ele>175.4</ele><time>2026-04-11T09:51:15Z</time></trkpt><trkpt lat="40.664153072043646" lon="8.986385113248753"><ele>175.0</ele><time>2026-04-11T09:51:16Z</time></trkpt><trkpt lat="40.66424084778872" lon="8.986345384136987"><ele>175.0</ele><time>2026-04-11T09:51:17Z</time></trkpt><trkpt lat="40.66430627006797" lon="8.986314937429897"><ele>175.0</ele><time>2026-04-11T09:51:18Z</time></trkpt><trkpt lat="40.66438091559344" lon="8.98627589608585"><ele>175.0</ele><time>2026-04-11T09:51:19Z</time></trkpt><trkpt lat="40.664460554860014" lon="8.986226523993354"><ele>175.0</ele><time>2026-04-11T09:51:21Z</time></trkpt><trkpt lat="40.664533614478856" lon="8.986178684582772"><ele>175.0</ele><time>2026-04-11T09:51:39Z</time></trkpt><trkpt lat="40.66461529441415" lon="8.98612797635617"><ele>175.0</ele><time>2026-04-11T09:51:40Z</time></trkpt><trkpt lat="40.66470149532414" lon="8.986081575505208"><ele>174.6</ele><time>2026-04-11T09:51:41Z</time></trkpt><trkpt lat="40.664791564614795" lon="8.986035444492337"><ele>174.2</ele><time>2026-04-11T09:51:42Z</time></trkpt><trkpt lat="40.66488427154403" lon="8.985987962317632"><ele>173.8</ele><time>2026-04-11T09:51:43Z</time></trkpt><trkpt lat="40.6649787270355" lon="8.985939584712932"><ele>173.4</ele><time>2026-04-11T09:51:44Z</time></trkpt><trkpt lat="40.66506788868868" lon="8.98589391841631"><ele>173.0</ele><time>2026-04-11T09:51:45Z</time></trkpt><trkpt lat="40.66515483774869" lon="8.985849385365826"><ele>173.2</ele><time>2026-04-11T09:51:46Z</time></trkpt><trkpt lat="40.66524136484445" lon="8.985805435570233"><ele>173.4</ele><time>2026-04-11T09:51:47Z</time></trkpt><trkpt lat="40.665334028022556" lon="8.985761012977642"><ele>173.6</ele><time>2026-04-11T09:51:48Z</time></trkpt><trkpt lat="40.66542172849793" lon="8.985718969660711"><ele>173.79999999999998</ele><time>2026-04-11T09:51:49Z</time></trkpt><trkpt lat="40.66550718363902" lon="8.985678002591747"><ele>174.0</ele><time>2026-04-11T09:51:50Z</time></trkpt><trkpt lat="40.66559364037122" lon="8.985635271963561"><ele>174.0</ele><time>2026-04-11T09:51:51Z</time></trkpt><trkpt lat="40.665685839701794" lon="8.985585279498162"><ele>174.0</ele><time>2026-04-11T09:51:52Z</time></trkpt><trkpt lat="40.665764119982796" lon="8.98553261012419"><ele>174.0</ele><time>2026-04-11T09:51:53Z</time></trkpt><trkpt lat="40.665828472021126" lon="8.985486645289315"><ele>174.0</ele><time>2026-04-11T09:51:54Z</time></trkpt><trkpt lat="40.66589722155561" lon="8.985440579980766"><ele>174.0</ele><time>2026-04-11T09:51:55Z</time></trkpt><trkpt lat="40.665966003683025" lon="8.985409215521523"><ele>174.0</ele><time>2026-04-11T09:51:56Z</time></trkpt><trkpt lat="40.66608323690464" lon="8.98539648557619"><ele>173.79999999999998</ele><time>2026-04-11T09:51:58Z</time></trkpt><trkpt lat="40.66617310401193" lon="8.985473226929908"><ele>173.6</ele><time>2026-04-11T09:52:00Z</time></trkpt><trkpt lat="40.66623054150891" lon="8.985545931689611"><ele>173.4</ele><time>2026-04-11T09:52:01Z</time></trkpt><trkpt lat="40.66630852783475" lon="8.985640841768003"><ele>173.2</ele><time>2026-04-11T09:52:02Z</time></trkpt><trkpt lat="40.6663887470761" lon="8.985742080821844"><ele>173.0</ele><time>2026-04-11T09:52:03Z</time></trkpt><trkpt lat="40.66645779154887" lon="8.98582634147296"><ele>173.0</ele><time>2026-04-11T09:52:04Z</time></trkpt><trkpt lat="40.666540285306084" lon="8.985934790176385"><ele>173.0</ele><time>2026-04-11T09:52:05Z</time></trkpt><trkpt lat="40.66661210557141" lon="8.986037649750232"><ele>173.0</ele><time>2026-04-11T09:52:06Z</time></trkpt><trkpt lat="40.66669412131717" lon="8.986151588326603"><ele>173.0</ele><time>2026-04-11T09:52:07Z</time></trkpt><trkpt lat="40.66679296294336" lon="8.986262551093215"><ele>173.0</ele><time>2026-04-11T09:52:08Z</time></trkpt><trkpt lat="40.6668690517159" lon="8.986331730501073"><ele>173.0</ele><time>2026-04-11T09:52:09Z</time></trkpt><trkpt lat="40.666931707260616" lon="8.986386165970229"><ele>173.0</ele><time>2026-04-11T09:52:10Z</time></trkpt><trkpt lat="40.66699469706294" lon="8.986439706495005"><ele>173.0</ele><time>2026-04-11T09:52:11Z</time></trkpt><trkpt lat="40.6670760776236" lon="8.986490769992384"><ele>173.0</ele><time>2026-04-11T09:52:12Z</time></trkpt><trkpt lat="40.66716929195778" lon="8.986559530595104"><ele>173.0</ele><time>2026-04-11T09:52:13Z</time></trkpt><trkpt lat="40.66727165624731" lon="8.98663911945657"><ele>173.0</ele><time>2026-04-11T09:52:14Z</time></trkpt><trkpt lat="40.66737911496116" lon="8.986727537100945"><ele>173.0</ele><time>2026-04-11T09:52:15Z</time></trkpt><trkpt lat="40.667499788224845" lon="8.986825469420445"><ele>173.0</ele><time>2026-04-11T09:52:16Z</time></trkpt><trkpt lat="40.66762176357007" lon="8.98690805741558"><ele>173.0</ele><time>2026-04-11T09:52:17Z</time></trkpt><trkpt lat="40.66774119631881" lon="8.9869719282316"><ele>172.83333333333331</ele><time>2026-04-11T09:52:17.999Z</time></trkpt><trkpt lat="40.66783897154553" lon="8.987014612259562"><ele>172.66666666666666</ele><time>2026-04-11T09:52:18.999Z</time></trkpt><trkpt lat="40.66791769234678" lon="8.987048711529921"><ele>172.5</ele><time>2026-04-11T09:52:19.999Z</time></trkpt><trkpt lat="40.66801085845137" lon="8.987043436372053"><ele>172.33333333333334</ele><time>2026-04-11T09:52:20.999Z</time></trkpt><trkpt lat="40.668075456993876" lon="8.987054140327606"><ele>172.16666666666669</ele><time>2026-04-11T09:52:21.999Z</time></trkpt><trkpt lat="40.668159006324224" lon="8.987070999282352"><ele>172.0</ele><time>2026-04-11T09:52:22.999Z</time></trkpt><trkpt lat="40.66825505048514" lon="8.987090772494778"><ele>172.0</ele><time>2026-04-11T09:52:23.999Z</time></trkpt><trkpt lat="40.66835098713225" lon="8.987112544135709"><ele>172.0</ele><time>2026-04-11T09:52:24.999Z</time></trkpt><trkpt lat="40.66846902430834" lon="8.987140707852335"><ele>172.0</ele><time>2026-04-11T09:52:25.999Z</time></trkpt><trkpt lat="40.66858946404083" lon="8.987169826664196"><ele>172.0</ele><time>2026-04-11T09:52:26.999Z</time></trkpt><trkpt lat="40.668722410285625" lon="8.987201969167304"><ele>172.0</ele><time>2026-04-11T09:52:27.999Z</time></trkpt><trkpt lat="40.668861605650825" lon="8.987228672985824"><ele>172.0</ele><time>2026-04-11T09:52:28.999Z</time></trkpt><trkpt lat="40.66899478595805" lon="8.987253756770864"><ele>172.0</ele><time>2026-04-11T09:52:29.999Z</time></trkpt><trkpt lat="40.66912225194336" lon="8.987277764324146"><ele>172.0</ele><time>2026-04-11T09:52:30.999Z</time></trkpt><trkpt lat="40.66920953307436" lon="8.98729259162323"><ele>172.0</ele><time>2026-04-11T09:52:31.999Z</time></trkpt><trkpt lat="40.66927651905213" lon="8.987303837786415"><ele>172.0</ele><time>2026-04-11T09:52:32.999Z</time></trkpt><trkpt lat="40.6693483534256" lon="8.987315897961524"><ele>172.0</ele><time>2026-04-11T09:52:34.999Z</time></trkpt><trkpt lat="40.669310612686154" lon="8.987493522549647"><ele>172.0</ele><time>2026-04-11T09:52:37.999Z</time></trkpt><trkpt lat="40.6693157942881" lon="8.987650954057901"><ele>172.0</ele><time>2026-04-11T09:52:38.999Z</time></trkpt><trkpt lat="40.6693501393723" lon="8.9878303879124"><ele>172.0</ele><time>2026-04-11T09:52:40.999Z</time></trkpt><trkpt lat="40.66937284242249" lon="8.987912958690226"><ele>172.0</ele><time>2026-04-11T09:52:41.999Z</time></trkpt><trkpt lat="40.66940836393264" lon="8.988037064553035"><ele>172.0</ele><time>2026-04-11T09:52:42.999Z</time></trkpt><trkpt lat="40.669450109621074" lon="8.988182916606442"><ele>172.0</ele><time>2026-04-11T09:52:43.999Z</time></trkpt><trkpt lat="40.66948890897332" lon="8.988318474498437"><ele>172.0</ele><time>2026-04-11T09:52:44.999Z</time></trkpt><trkpt lat="40.66952981343746" lon="8.98846138776309"><ele>171.6</ele><time>2026-04-11T09:52:45.999Z</time></trkpt><trkpt lat="40.66957504415145" lon="8.988597509393763"><ele>171.2</ele><time>2026-04-11T09:52:46.999Z</time></trkpt><trkpt lat="40.66962571236846" lon="8.988734148673688"><ele>170.8</ele><time>2026-04-11T09:52:47.999Z</time></trkpt><trkpt lat="40.66965864257307" lon="8.988837117670982"><ele>170.4</ele><time>2026-04-11T09:52:48.999Z</time></trkpt><trkpt lat="40.66968796196498" lon="8.988928796511756"><ele>170.0</ele><time>2026-04-11T09:52:49.999Z</time></trkpt><trkpt lat="40.669716637047294" lon="8.989018460520413"><ele>170.0</ele><time>2026-04-11T09:52:50.999Z</time></trkpt><trkpt lat="40.66990358269517" lon="8.989004042462762"><ele>170.0</ele><time>2026-04-11T09:52:51.999Z</time></trkpt><trkpt lat="40.67001325373144" lon="8.988928354030023"><ele>170.0</ele><time>2026-04-11T09:52:53.999Z</time></trkpt><trkpt lat="40.670096499057124" lon="8.98886621424238"><ele>170.0</ele><time>2026-04-11T09:52:54.999Z</time></trkpt><trkpt lat="40.67020094927361" lon="8.988792340553866"><ele>170.75</ele><time>2026-04-11T09:52:55.999Z</time></trkpt><trkpt lat="40.670311759070565" lon="8.988706489857957"><ele>171.5</ele><time>2026-04-11T09:52:56.999Z</time></trkpt><trkpt lat="40.67042042089948" lon="8.988619247252814"><ele>172.25</ele><time>2026-04-11T09:52:57.999Z</time></trkpt><trkpt lat="40.67053750510884" lon="8.988551558018786"><ele>173.0</ele><time>2026-04-11T09:52:58.999Z</time></trkpt><trkpt lat="40.67065397331995" lon="8.988471757072102"><ele>173.0</ele><time>2026-04-11T09:52:59.999Z</time></trkpt><trkpt lat="40.670769145628114" lon="8.98841632734888"><ele>173.0</ele><time>2026-04-11T09:53:00.999Z</time></trkpt><trkpt lat="40.67087869736455" lon="8.988352629932287"><ele>173.0</ele><time>2026-04-11T09:53:01.999Z</time></trkpt><trkpt lat="40.67099338457626" lon="8.988274214608797"><ele>173.0</ele><time>2026-04-11T09:53:02.999Z</time></trkpt><trkpt lat="40.67110643103479" lon="8.988178236767892"><ele>172.0</ele><time>2026-04-11T09:53:03.999Z</time></trkpt><trkpt lat="40.67123372128004" lon="8.98809574543262"><ele>171.0</ele><time>2026-04-11T09:53:04.999Z</time></trkpt><trkpt lat="40.67136752396005" lon="8.988009286498146"><ele>170.0</ele><time>2026-04-11T09:53:05.999Z</time></trkpt><trkpt lat="40.67149863082426" lon="8.987915799631583"><ele>169.0</ele><time>2026-04-11T09:53:06.999Z</time></trkpt><trkpt lat="40.67163812861132" lon="8.987849708466618"><ele>169.0</ele><time>2026-04-11T09:53:07.999Z</time></trkpt><trkpt lat="40.6717627622829" lon="8.987749187536616"><ele>169.0</ele><time>2026-04-11T09:53:08.999Z</time></trkpt><trkpt lat="40.671892113199995" lon="8.987670147714727"><ele>169.0</ele><time>2026-04-11T09:53:09.999Z</time></trkpt><trkpt lat="40.67201989012427" lon="8.98758921877862"><ele>169.0</ele><time>2026-04-11T09:53:10.999Z</time></trkpt><trkpt lat="40.67214764146076" lon="8.987509391020698"><ele>169.0</ele><time>2026-04-11T09:53:11.999Z</time></trkpt><trkpt lat="40.67227488575052" lon="8.987425810882465"><ele>169.0</ele><time>2026-04-11T09:53:12.999Z</time></trkpt><trkpt lat="40.672412630387065" lon="8.987360383680356"><ele>169.0</ele><time>2026-04-11T09:53:13.999Z</time></trkpt><trkpt lat="40.672549731773415" lon="8.987271374339326"><ele>169.0</ele><time>2026-04-11T09:53:14.999Z</time></trkpt><trkpt lat="40.67269330204227" lon="8.9871780325488"><ele>168.66666666666669</ele><time>2026-04-11T09:53:15.999Z</time></trkpt><trkpt lat="40.67284072366871" lon="8.98708189077044"><ele>168.33333333333334</ele><time>2026-04-11T09:53:16.999Z</time></trkpt><trkpt lat="40.67298021787285" lon="8.98696963926323"><ele>168.0</ele><time>2026-04-11T09:53:17.999Z</time></trkpt><trkpt lat="40.673142809577705" lon="8.986913154468867"><ele>168.0</ele><time>2026-04-11T09:53:18.999Z</time></trkpt><trkpt lat="40.673288593022264" lon="8.98681826007717"><ele>168.0</ele><time>2026-04-11T09:53:19.999Z</time></trkpt><trkpt lat="40.67341545754928" lon="8.98672286632884"><ele>168.0</ele><time>2026-04-11T09:53:20.999Z</time></trkpt><trkpt lat="40.67354290451228" lon="8.986637223339192"><ele>168.0</ele><time>2026-04-11T09:53:21.999Z</time></trkpt><trkpt lat="40.67366608225225" lon="8.986557648867443"><ele>168.0</ele><time>2026-04-11T09:53:22.999Z</time></trkpt><trkpt lat="40.67378067707223" lon="8.986466764914004"><ele>168.0</ele><time>2026-04-11T09:53:23.999Z</time></trkpt><trkpt lat="40.673895812627194" lon="8.986391982765108"><ele>168.0</ele><time>2026-04-11T09:53:24.999Z</time></trkpt><trkpt lat="40.67399239244288" lon="8.986336688789018"><ele>168.0</ele><time>2026-04-11T09:53:25.999Z</time></trkpt><trkpt lat="40.67408090875864" lon="8.986293616980564"><ele>168.0</ele><time>2026-04-11T09:53:26.999Z</time></trkpt><trkpt lat="40.67414543496994" lon="8.986285998792798"><ele>168.0</ele><time>2026-04-11T09:53:27.999Z</time></trkpt><trkpt lat="40.67427471081869" lon="8.986292753643914"><ele>168.0</ele><time>2026-04-11T09:53:29.999Z</time></trkpt><trkpt lat="40.674351159194714" lon="8.986280573449712"><ele>168.0</ele><time>2026-04-11T09:53:30.999Z</time></trkpt><trkpt lat="40.67444144095658" lon="8.986250268617662"><ele>168.25</ele><time>2026-04-11T09:53:31.999Z</time></trkpt><trkpt lat="40.674533317441586" lon="8.98619931779233"><ele>168.5</ele><time>2026-04-11T09:53:32.999Z</time></trkpt><trkpt lat="40.67465789719379" lon="8.986156175134573"><ele>168.75</ele><time>2026-04-11T09:53:33.999Z</time></trkpt><trkpt lat="40.674762566907106" lon="8.986237219970032"><ele>169.0</ele><time>2026-04-11T09:53:34.999Z</time></trkpt><trkpt lat="40.67488769104736" lon="8.986260788442788"><ele>169.0</ele><time>2026-04-11T09:53:35.998Z</time></trkpt><trkpt lat="40.67505613958053" lon="8.986293602712182"><ele>169.0</ele><time>2026-04-11T09:53:36.998Z</time></trkpt><trkpt lat="40.675206321448606" lon="8.986325407142433"><ele>169.0</ele><time>2026-04-11T09:53:37.998Z</time></trkpt><trkpt lat="40.67532716830248" lon="8.986370667557352"><ele>169.0</ele><time>2026-04-11T09:53:38.998Z</time></trkpt><trkpt lat="40.67545752618509" lon="8.98644186267566"><ele>168.66666666666669</ele><time>2026-04-11T09:53:39.998Z</time></trkpt><trkpt lat="40.67557972517766" lon="8.986534289346912"><ele>168.33333333333334</ele><time>2026-04-11T09:53:40.998Z</time></trkpt><trkpt lat="40.67570012130071" lon="8.986658216589444"><ele>168.0</ele><time>2026-04-11T09:53:41.998Z</time></trkpt><trkpt lat="40.675813143756734" lon="8.986816242866366"><ele>168.0</ele><time>2026-04-11T09:53:42.998Z</time></trkpt><trkpt lat="40.67592130159195" lon="8.986968385109707"><ele>168.0</ele><time>2026-04-11T09:53:43.998Z</time></trkpt><trkpt lat="40.6760179049391" lon="8.987106514503353"><ele>168.0</ele><time>2026-04-11T09:53:44.998Z</time></trkpt><trkpt lat="40.676136265331635" lon="8.98726180962186"><ele>167.66666666666666</ele><time>2026-04-11T09:53:45.998Z</time></trkpt><trkpt lat="40.67625691691213" lon="8.987382938487457"><ele>167.33333333333331</ele><time>2026-04-11T09:53:46.998Z</time></trkpt><trkpt lat="40.67638877233412" lon="8.987468130923316"><ele>167.0</ele><time>2026-04-11T09:53:47.998Z</time></trkpt><trkpt lat="40.67653048625474" lon="8.987558193875568"><ele>167.0</ele><time>2026-04-11T09:53:48.998Z</time></trkpt><trkpt lat="40.676685755091924" lon="8.987613896995677"><ele>167.0</ele><time>2026-04-11T09:53:49.998Z</time></trkpt><trkpt lat="40.67683670582733" lon="8.987668140029365"><ele>167.0</ele><time>2026-04-11T09:53:50.998Z</time></trkpt><trkpt lat="40.67700530514689" lon="8.987699288299114"><ele>167.0</ele><time>2026-04-11T09:53:51.998Z</time></trkpt><trkpt lat="40.67716904326632" lon="8.987723116865064"><ele>167.0</ele><time>2026-04-11T09:53:52.998Z</time></trkpt><trkpt lat="40.677342572016315" lon="8.987747068311746"><ele>167.0</ele><time>2026-04-11T09:53:53.998Z</time></trkpt><trkpt lat="40.677517980413" lon="8.987768846471644"><ele>167.0</ele><time>2026-04-11T09:53:54.998Z</time></trkpt><trkpt lat="40.67770473218909" lon="8.987792032936376"><ele>167.0</ele><time>2026-04-11T09:53:55.998Z</time></trkpt><trkpt lat="40.677894189687784" lon="8.987815555337054"><ele>167.0</ele><time>2026-04-11T09:53:56.998Z</time></trkpt><trkpt lat="40.67808221207041" lon="8.98783889955289"><ele>166.66666666666666</ele><time>2026-04-11T09:53:57.998Z</time></trkpt><trkpt lat="40.67826435801406" lon="8.987861514208506"><ele>166.33333333333334</ele><time>2026-04-11T09:53:58.998Z</time></trkpt><trkpt lat="40.678464608496114" lon="8.987886394199261"><ele>166.0</ele><time>2026-04-11T09:53:59.998Z</time></trkpt><trkpt lat="40.678663708102064" lon="8.987911325653542"><ele>165.66666666666669</ele><time>2026-04-11T09:54:00.998Z</time></trkpt><trkpt lat="40.67886581587649" lon="8.987936633759256"><ele>165.33333333333334</ele><time>2026-04-11T09:54:01.998Z</time></trkpt><trkpt lat="40.67905761539905" lon="8.987960651113365"><ele>165.0</ele><time>2026-04-11T09:54:02.998Z</time></trkpt><trkpt lat="40.67925463744164" lon="8.98798532240302"><ele>165.33333333333334</ele><time>2026-04-11T09:54:03.998Z</time></trkpt><trkpt lat="40.67944592909481" lon="8.988009276133612"><ele>165.66666666666669</ele><time>2026-04-11T09:54:04.998Z</time></trkpt><trkpt lat="40.679630944539525" lon="8.988032443957522"><ele>166.0</ele><time>2026-04-11T09:54:05.998Z</time></trkpt><trkpt lat="40.679817712740835" lon="8.988055832841887"><ele>166.0</ele><time>2026-04-11T09:54:06.998Z</time></trkpt><trkpt lat="40.6800021652956" lon="8.988078639446044"><ele>166.0</ele><time>2026-04-11T09:54:07.998Z</time></trkpt><trkpt lat="40.68020339511602" lon="8.988103419087272"><ele>166.0</ele><time>2026-04-11T09:54:08.998Z</time></trkpt><trkpt lat="40.680404836540674" lon="8.98812853340731"><ele>166.0</ele><time>2026-04-11T09:54:09.998Z</time></trkpt><trkpt lat="40.680591497180345" lon="8.98815444268599"><ele>166.0</ele><time>2026-04-11T09:54:10.998Z</time></trkpt><trkpt lat="40.68079886775819" lon="8.98818059281304"><ele>166.0</ele><time>2026-04-11T09:54:11.998Z</time></trkpt><trkpt lat="40.68100692565911" lon="8.988206099817155"><ele>166.0</ele><time>2026-04-11T09:54:12.998Z</time></trkpt><trkpt lat="40.68120949507018" lon="8.988231209665514"><ele>166.0</ele><time>2026-04-11T09:54:13.998Z</time></trkpt><trkpt lat="40.68140888456584" lon="8.988256095715013"><ele>166.0</ele><time>2026-04-11T09:54:14.998Z</time></trkpt><trkpt lat="40.68160481318884" lon="8.988280680635656"><ele>166.0</ele><time>2026-04-11T09:54:15.998Z</time></trkpt><trkpt lat="40.681785763242075" lon="8.98830419368725"><ele>166.0</ele><time>2026-04-11T09:54:16.998Z</time></trkpt><trkpt lat="40.681990227770626" lon="8.988330762169385"><ele>166.0</ele><time>2026-04-11T09:54:17.998Z</time></trkpt><trkpt lat="40.68219206278542" lon="8.98835698904534"><ele>165.66666666666669</ele><time>2026-04-11T09:54:18.998Z</time></trkpt><trkpt lat="40.68238278379511" lon="8.988381771737304"><ele>165.33333333333334</ele><time>2026-04-11T09:54:19.998Z</time></trkpt><trkpt lat="40.682575293649705" lon="8.988404026876863"><ele>165.0</ele><time>2026-04-11T09:54:20.998Z</time></trkpt><trkpt lat="40.68276880637285" lon="8.98842553680909"><ele>165.0</ele><time>2026-04-11T09:54:21.998Z</time></trkpt><trkpt lat="40.68296016181473" lon="8.988439179646646"><ele>165.0</ele><time>2026-04-11T09:54:22.998Z</time></trkpt><trkpt lat="40.68313686032363" lon="8.988432802183342"><ele>165.0</ele><time>2026-04-11T09:54:23.998Z</time></trkpt><trkpt lat="40.68330937755034" lon="8.98840235992563"><ele>165.0</ele><time>2026-04-11T09:54:24.998Z</time></trkpt><trkpt lat="40.683472724151365" lon="8.988357881518963"><ele>165.0</ele><time>2026-04-11T09:54:25.998Z</time></trkpt><trkpt lat="40.683647257274785" lon="8.988325649603757"><ele>165.0</ele><time>2026-04-11T09:54:26.998Z</time></trkpt><trkpt lat="40.683816840305376" lon="8.988206727574571"><ele>164.33333333333334</ele><time>2026-04-11T09:54:27.998Z</time></trkpt><trkpt lat="40.683979912276264" lon="8.988137927687214"><ele>163.66666666666669</ele><time>2026-04-11T09:54:28.998Z</time></trkpt><trkpt lat="40.684134179630426" lon="8.988073074684271"><ele>163.0</ele><time>2026-04-11T09:54:29.998Z</time></trkpt><trkpt lat="40.684286470728416" lon="8.988016359741605"><ele>163.0</ele><time>2026-04-11T09:54:30.998Z</time></trkpt><trkpt lat="40.68444842868409" lon="8.98797660455745"><ele>163.0</ele><time>2026-04-11T09:54:31.998Z</time></trkpt><trkpt lat="40.68461088847877" lon="8.987957470760717"><ele>163.0</ele><time>2026-04-11T09:54:32.998Z</time></trkpt><trkpt lat="40.68477767799216" lon="8.987955662663653"><ele>163.0</ele><time>2026-04-11T09:54:33.998Z</time></trkpt><trkpt lat="40.68494975856182" lon="8.987975232615565"><ele>163.0</ele><time>2026-04-11T09:54:34.998Z</time></trkpt><trkpt lat="40.68514827330552" lon="8.988016372287936"><ele>163.0</ele><time>2026-04-11T09:54:35.998Z</time></trkpt><trkpt lat="40.68535571046386" lon="8.988065920188653"><ele>163.33333333333334</ele><time>2026-04-11T09:54:36.998Z</time></trkpt><trkpt lat="40.685559816780945" lon="8.988115007660662"><ele>163.66666666666666</ele><time>2026-04-11T09:54:37.998Z</time></trkpt><trkpt lat="40.685764237004015" lon="8.988162862355672"><ele>164.0</ele><time>2026-04-11T09:54:38.998Z</time></trkpt><trkpt lat="40.685958440456815" lon="8.98820731738413"><ele>163.66666666666666</ele><time>2026-04-11T09:54:39.998Z</time></trkpt><trkpt lat="40.68616289947052" lon="8.988253855101894"><ele>163.33333333333334</ele><time>2026-04-11T09:54:40.998Z</time></trkpt><trkpt lat="40.686368105456175" lon="8.988300562854844"><ele>163.0</ele><time>2026-04-11T09:54:41.998Z</time></trkpt><trkpt lat="40.68655768364935" lon="8.988345378155161"><ele>163.0</ele><time>2026-04-11T09:54:42.998Z</time></trkpt><trkpt lat="40.686763933174795" lon="8.988394357945124"><ele>163.0</ele><time>2026-04-11T09:54:43.998Z</time></trkpt><trkpt lat="40.68696426690724" lon="8.988441339974587"><ele>163.0</ele><time>2026-04-11T09:54:44.998Z</time></trkpt><trkpt lat="40.687160668332595" lon="8.988485358855778"><ele>163.0</ele><time>2026-04-11T09:54:45.998Z</time></trkpt><trkpt lat="40.68735872085055" lon="8.98852974777075"><ele>163.0</ele><time>2026-04-11T09:54:46.998Z</time></trkpt><trkpt lat="40.68758163459134" lon="8.988579708793738"><ele>163.0</ele><time>2026-04-11T09:54:47.998Z</time></trkpt><trkpt lat="40.687803110427176" lon="8.98862979277161"><ele>163.0</ele><time>2026-04-11T09:54:48.998Z</time></trkpt><trkpt lat="40.688028044954386" lon="8.988681952510825"><ele>163.0</ele><time>2026-04-11T09:54:49.998Z</time></trkpt><trkpt lat="40.68824784627268" lon="8.98873292187885"><ele>163.0</ele><time>2026-04-11T09:54:50.998Z</time></trkpt><trkpt lat="40.68847454173653" lon="8.988785490023353"><ele>163.0</ele><time>2026-04-11T09:54:51.998Z</time></trkpt><trkpt lat="40.688678033825305" lon="8.988832677543858"><ele>163.0</ele><time>2026-04-11T09:54:52.998Z</time></trkpt><trkpt lat="40.68887512572533" lon="8.988878380820127"><ele>163.0</ele><time>2026-04-11T09:54:53.998Z</time></trkpt><trkpt lat="40.689073279291755" lon="8.988925750336694"><ele>163.0</ele><time>2026-04-11T09:54:54.997Z</time></trkpt><trkpt lat="40.68926508330761" lon="8.988971903919467"><ele>163.0</ele><time>2026-04-11T09:54:55.997Z</time></trkpt><trkpt lat="40.68943991185472" lon="8.98900879458179"><ele>163.0</ele><time>2026-04-11T09:54:56.997Z</time></trkpt><trkpt lat="40.68961370632535" lon="8.989039371928232"><ele>163.0</ele><time>2026-04-11T09:54:57.997Z</time></trkpt><trkpt lat="40.689788738796004" lon="8.989030478538472"><ele>163.0</ele><time>2026-04-11T09:54:58.997Z</time></trkpt><trkpt lat="40.68995960665648" lon="8.988982800165335"><ele>163.0</ele><time>2026-04-11T09:54:59.997Z</time></trkpt><trkpt lat="40.690118198240484" lon="8.988914715481348"><ele>163.0</ele><time>2026-04-11T09:55:00.997Z</time></trkpt><trkpt lat="40.69028807127298" lon="8.988860248958439"><ele>163.0</ele><time>2026-04-11T09:55:01.997Z</time></trkpt><trkpt lat="40.690459920629664" lon="8.988796406665635"><ele>163.33333333333334</ele><time>2026-04-11T09:55:02.997Z</time></trkpt><trkpt lat="40.69063478618545" lon="8.988731370991989"><ele>163.66666666666666</ele><time>2026-04-11T09:55:03.997Z</time></trkpt><trkpt lat="40.69080956985745" lon="8.988666367276764"><ele>164.0</ele><time>2026-04-11T09:55:04.997Z</time></trkpt><trkpt lat="40.6909925593823" lon="8.988598471658959"><ele>165.0</ele><time>2026-04-11T09:55:05.997Z</time></trkpt><trkpt lat="40.69116034638957" lon="8.988536235125851"><ele>166.0</ele><time>2026-04-11T09:55:06.997Z</time></trkpt><trkpt lat="40.691331853805366" lon="8.988472619381698"><ele>167.0</ele><time>2026-04-11T09:55:07.997Z</time></trkpt><trkpt lat="40.691501532996995" lon="8.98841083020537"><ele>167.0</ele><time>2026-04-11T09:55:08.997Z</time></trkpt><trkpt lat="40.6916655097609" lon="8.98837756960048"><ele>167.0</ele><time>2026-04-11T09:55:09.997Z</time></trkpt><trkpt lat="40.69183969617486" lon="8.988366042417677"><ele>167.0</ele><time>2026-04-11T09:55:10.997Z</time></trkpt><trkpt lat="40.692013201337865" lon="8.988375010720201"><ele>167.66666666666666</ele><time>2026-04-11T09:55:11.997Z</time></trkpt><trkpt lat="40.692193429664094" lon="8.988387754420836"><ele>168.33333333333334</ele><time>2026-04-11T09:55:12.997Z</time></trkpt><trkpt lat="40.6924071594768" lon="8.988403153538739"><ele>169.0</ele><time>2026-04-11T09:55:13.997Z</time></trkpt><trkpt lat="40.692606095964116" lon="8.98841807525841"><ele>170.0</ele><time>2026-04-11T09:55:14.997Z</time></trkpt><trkpt lat="40.69280067665358" lon="8.988432670264679"><ele>171.0</ele><time>2026-04-11T09:55:15.997Z</time></trkpt><trkpt lat="40.692988885810806" lon="8.988446647001169"><ele>172.0</ele><time>2026-04-11T09:55:16.997Z</time></trkpt><trkpt lat="40.6931831967902" lon="8.988454091005464"><ele>172.0</ele><time>2026-04-11T09:55:17.997Z</time></trkpt><trkpt lat="40.6933892900932" lon="8.988456552401841"><ele>172.0</ele><time>2026-04-11T09:55:18.997Z</time></trkpt><trkpt lat="40.69360028270992" lon="8.988444041366067"><ele>172.0</ele><time>2026-04-11T09:55:19.997Z</time></trkpt><trkpt lat="40.69382012887935" lon="8.988415950836243"><ele>171.66666666666669</ele><time>2026-04-11T09:55:20.997Z</time></trkpt><trkpt lat="40.69403939432829" lon="8.988367550638795"><ele>171.33333333333334</ele><time>2026-04-11T09:55:21.997Z</time></trkpt><trkpt lat="40.69425369264647" lon="8.988361685158116"><ele>171.0</ele><time>2026-04-11T09:55:22.997Z</time></trkpt><trkpt lat="40.694485719367755" lon="8.988332644258751"><ele>171.0</ele><time>2026-04-11T09:55:23.997Z</time></trkpt><trkpt lat="40.69469637551868" lon="8.988305942101572"><ele>171.0</ele><time>2026-04-11T09:55:24.997Z</time></trkpt><trkpt lat="40.69489730754038" lon="8.988281573010296"><ele>171.0</ele><time>2026-04-11T09:55:25.997Z</time></trkpt><trkpt lat="40.69509211290838" lon="8.988262333352667"><ele>171.0</ele><time>2026-04-11T09:55:26.997Z</time></trkpt><trkpt lat="40.69525337122944" lon="8.988263830977802"><ele>171.0</ele><time>2026-04-11T09:55:27.997Z</time></trkpt><trkpt lat="40.6954586467482" lon="8.988285136265866"><ele>171.0</ele><time>2026-04-11T09:55:28.997Z</time></trkpt><trkpt lat="40.695633740064146" lon="8.988318478241355"><ele>171.66666666666666</ele><time>2026-04-11T09:55:29.997Z</time></trkpt><trkpt lat="40.69580946798133" lon="8.988369565771523"><ele>172.33333333333331</ele><time>2026-04-11T09:55:30.997Z</time></trkpt><trkpt lat="40.69599297877647" lon="8.988423405405516"><ele>173.0</ele><time>2026-04-11T09:55:31.997Z</time></trkpt><trkpt lat="40.696187448416595" lon="8.988478324238319"><ele>173.0</ele><time>2026-04-11T09:55:32.997Z</time></trkpt><trkpt lat="40.69637386975471" lon="8.988530983450675"><ele>173.0</ele><time>2026-04-11T09:55:33.997Z</time></trkpt><trkpt lat="40.69657560585681" lon="8.988589470078399"><ele>173.0</ele><time>2026-04-11T09:55:34.997Z</time></trkpt><trkpt lat="40.69677049123316" lon="8.988645970576762"><ele>172.66666666666666</ele><time>2026-04-11T09:55:35.997Z</time></trkpt><trkpt lat="40.69696290378823" lon="8.988697864774856"><ele>172.33333333333334</ele><time>2026-04-11T09:55:36.997Z</time></trkpt><trkpt lat="40.697164016595174" lon="8.988751561403749"><ele>172.0</ele><time>2026-04-11T09:55:37.997Z</time></trkpt><trkpt lat="40.69736698436444" lon="8.9888036917861"><ele>172.0</ele><time>2026-04-11T09:55:38.997Z</time></trkpt><trkpt lat="40.69757982266241" lon="8.988845103678324"><ele>172.0</ele><time>2026-04-11T09:55:39.997Z</time></trkpt><trkpt lat="40.69777816304816" lon="8.988843506991815"><ele>172.0</ele><time>2026-04-11T09:55:40.997Z</time></trkpt><trkpt lat="40.69798628450518" lon="8.988876400096537"><ele>172.33333333333334</ele><time>2026-04-11T09:55:41.997Z</time></trkpt><trkpt lat="40.69821211194284" lon="8.988891699924132"><ele>172.66666666666666</ele><time>2026-04-11T09:55:42.997Z</time></trkpt><trkpt lat="40.698431410101726" lon="8.988905772340022"><ele>173.0</ele><time>2026-04-11T09:55:43.997Z</time></trkpt><trkpt lat="40.69865882220148" lon="8.98889632668486"><ele>174.5</ele><time>2026-04-11T09:55:44.997Z</time></trkpt><trkpt lat="40.69888825165981" lon="8.988893144232607"><ele>176.0</ele><time>2026-04-11T09:55:45.997Z</time></trkpt><trkpt lat="40.69913021446428" lon="8.988884182547883"><ele>176.0</ele><time>2026-04-11T09:55:46.997Z</time></trkpt><trkpt lat="40.699359865749464" lon="8.988852234118557"><ele>176.0</ele><time>2026-04-11T09:55:47.997Z</time></trkpt><trkpt lat="40.69956606311756" lon="8.988879353726427"><ele>176.0</ele><time>2026-04-11T09:55:48.997Z</time></trkpt><trkpt lat="40.699758320555006" lon="8.988896529097392"><ele>175.66666666666666</ele><time>2026-04-11T09:55:49.997Z</time></trkpt><trkpt lat="40.699938894025884" lon="8.98893269666333"><ele>175.33333333333334</ele><time>2026-04-11T09:55:50.997Z</time></trkpt><trkpt lat="40.700122406776444" lon="8.988981279206254"><ele>175.0</ele><time>2026-04-11T09:55:51.997Z</time></trkpt><trkpt lat="40.700309834891804" lon="8.989033198874347"><ele>174.0</ele><time>2026-04-11T09:55:52.997Z</time></trkpt><trkpt lat="40.70050350918011" lon="8.989086848756171"><ele>173.0</ele><time>2026-04-11T09:55:53.997Z</time></trkpt><trkpt lat="40.70069454082547" lon="8.989139766549382"><ele>172.0</ele><time>2026-04-11T09:55:54.997Z</time></trkpt><trkpt lat="40.70088937332444" lon="8.989193738911522"><ele>171.66666666666669</ele><time>2026-04-11T09:55:55.997Z</time></trkpt><trkpt lat="40.701089485795045" lon="8.989248974747648"><ele>171.33333333333334</ele><time>2026-04-11T09:55:56.997Z</time></trkpt><trkpt lat="40.70128845746071" lon="8.989303170301325"><ele>171.0</ele><time>2026-04-11T09:55:57.997Z</time></trkpt><trkpt lat="40.70150282849638" lon="8.989361560295594"><ele>171.0</ele><time>2026-04-11T09:55:58.997Z</time></trkpt><trkpt lat="40.701696705882895" lon="8.989414368261407"><ele>171.0</ele><time>2026-04-11T09:55:59.997Z</time></trkpt><trkpt lat="40.70190004903298" lon="8.989469754524347"><ele>171.0</ele><time>2026-04-11T09:56:00.997Z</time></trkpt><trkpt lat="40.70210374885505" lon="8.989525237910337"><ele>170.0</ele><time>2026-04-11T09:56:01.997Z</time></trkpt><trkpt lat="40.70231792483475" lon="8.989583574779482"><ele>169.0</ele><time>2026-04-11T09:56:02.997Z</time></trkpt><trkpt lat="40.702518014939926" lon="8.989638074963002"><ele>168.0</ele><time>2026-04-11T09:56:03.997Z</time></trkpt><trkpt lat="40.70271051829662" lon="8.989691234732065"><ele>168.0</ele><time>2026-04-11T09:56:04.997Z</time></trkpt><trkpt lat="40.70290361628749" lon="8.989745165412417"><ele>168.0</ele><time>2026-04-11T09:56:05.997Z</time></trkpt><trkpt lat="40.70310586428487" lon="8.989801627466376"><ele>168.0</ele><time>2026-04-11T09:56:06.997Z</time></trkpt><trkpt lat="40.703310397589775" lon="8.98985872751408"><ele>168.0</ele><time>2026-04-11T09:56:07.997Z</time></trkpt><trkpt lat="40.70350546154312" lon="8.989913183987397"><ele>168.0</ele><time>2026-04-11T09:56:08.997Z</time></trkpt><trkpt lat="40.70370566725741" lon="8.989968722197887"><ele>168.0</ele><time>2026-04-11T09:56:09.997Z</time></trkpt><trkpt lat="40.703901507714974" lon="8.990023066840113"><ele>168.66666666666666</ele><time>2026-04-11T09:56:10.997Z</time></trkpt><trkpt lat="40.70409230540961" lon="8.990076222575969"><ele>169.33333333333331</ele><time>2026-04-11T09:56:11.997Z</time></trkpt><trkpt lat="40.704288974554" lon="8.990131014097917"><ele>170.0</ele><time>2026-04-11T09:56:12.997Z</time></trkpt><trkpt lat="40.70448002347023" lon="8.990184239838525"><ele>170.33333333333331</ele><time>2026-04-11T09:56:13.996Z</time></trkpt><trkpt lat="40.70467434580567" lon="8.990238377525753"><ele>170.66666666666666</ele><time>2026-04-11T09:56:14.996Z</time></trkpt><trkpt lat="40.70487133239235" lon="8.990293257490217"><ele>171.0</ele><time>2026-04-11T09:56:15.996Z</time></trkpt><trkpt lat="40.70507249065914" lon="8.990280291051933"><ele>171.66666666666666</ele><time>2026-04-11T09:56:16.996Z</time></trkpt><trkpt lat="40.705259155520835" lon="8.990336142490627"><ele>172.33333333333331</ele><time>2026-04-11T09:56:17.996Z</time></trkpt><trkpt lat="40.70545119527391" lon="8.99038130933244"><ele>173.0</ele><time>2026-04-11T09:56:18.996Z</time></trkpt><trkpt lat="40.705636481727694" lon="8.990406234921123"><ele>173.0</ele><time>2026-04-11T09:56:19.996Z</time></trkpt><trkpt lat="40.7058204197436" lon="8.990456227608878"><ele>173.0</ele><time>2026-04-11T09:56:20.996Z</time></trkpt><trkpt lat="40.705991122438526" lon="8.990604987245693"><ele>173.0</ele><time>2026-04-11T09:56:21.996Z</time></trkpt><trkpt lat="40.7061778736177" lon="8.990657322135904"><ele>174.0</ele><time>2026-04-11T09:56:22.996Z</time></trkpt><trkpt lat="40.70636913797721" lon="8.990706858914145"><ele>175.0</ele><time>2026-04-11T09:56:23.996Z</time></trkpt><trkpt lat="40.7065655800851" lon="8.990727583194449"><ele>176.0</ele><time>2026-04-11T09:56:24.996Z</time></trkpt><trkpt lat="40.706733670115305" lon="8.99069982150673"><ele>176.33333333333331</ele><time>2026-04-11T09:56:25.996Z</time></trkpt><trkpt lat="40.70691737123618" lon="8.990723828015613"><ele>176.66666666666666</ele><time>2026-04-11T09:56:26.996Z</time></trkpt><trkpt lat="40.70711938107955" lon="8.990703654613617"><ele>177.0</ele><time>2026-04-11T09:56:27.996Z</time></trkpt><trkpt lat="40.70731417757136" lon="8.990666092253257"><ele>177.0</ele><time>2026-04-11T09:56:28.996Z</time></trkpt><trkpt lat="40.707504673539376" lon="8.990631043527364"><ele>177.0</ele><time>2026-04-11T09:56:29.996Z</time></trkpt><trkpt lat="40.707683789406936" lon="8.990580521684642"><ele>177.0</ele><time>2026-04-11T09:56:30.996Z</time></trkpt><trkpt lat="40.70786075281219" lon="8.99053061190112"><ele>177.33333333333334</ele><time>2026-04-11T09:56:31.996Z</time></trkpt><trkpt lat="40.70804338919765" lon="8.990513972660787"><ele>177.66666666666669</ele><time>2026-04-11T09:56:32.996Z</time></trkpt><trkpt lat="40.70821936600079" lon="8.990486474026438"><ele>178.0</ele><time>2026-04-11T09:56:33.996Z</time></trkpt><trkpt lat="40.70838626278579" lon="8.99046039429111"><ele>178.0</ele><time>2026-04-11T09:56:34.996Z</time></trkpt><trkpt lat="40.70856811450613" lon="8.990429608679946"><ele>178.0</ele><time>2026-04-11T09:56:35.996Z</time></trkpt><trkpt lat="40.70874541530476" lon="8.990390218469411"><ele>178.0</ele><time>2026-04-11T09:56:36.996Z</time></trkpt><trkpt lat="40.70891979264524" lon="8.990345300159202"><ele>178.0</ele><time>2026-04-11T09:56:37.996Z</time></trkpt><trkpt lat="40.70909377557831" lon="8.990281764513544"><ele>178.0</ele><time>2026-04-11T09:56:38.996Z</time></trkpt><trkpt lat="40.70927098524598" lon="8.990243586990738"><ele>178.0</ele><time>2026-04-11T09:56:39.996Z</time></trkpt><trkpt lat="40.70944373684988" lon="8.990177321418239"><ele>178.0</ele><time>2026-04-11T09:56:40.996Z</time></trkpt><trkpt lat="40.70962460728774" lon="8.99013423634896"><ele>178.0</ele><time>2026-04-11T09:56:41.996Z</time></trkpt><trkpt lat="40.70978980236212" lon="8.990083153038283"><ele>178.0</ele><time>2026-04-11T09:56:42.996Z</time></trkpt><trkpt lat="40.709961638669554" lon="8.990030079165555"><ele>178.33333333333334</ele><time>2026-04-11T09:56:43.996Z</time></trkpt><trkpt lat="40.71013408552264" lon="8.989976821349503"><ele>178.66666666666666</ele><time>2026-04-11T09:56:44.996Z</time></trkpt><trkpt lat="40.71030142757582" lon="8.989927555731235"><ele>179.0</ele><time>2026-04-11T09:56:45.996Z</time></trkpt><trkpt lat="40.71047389401084" lon="8.98987710228947"><ele>180.0</ele><time>2026-04-11T09:56:46.996Z</time></trkpt><trkpt lat="40.71064105295179" lon="8.98982819993716"><ele>181.0</ele><time>2026-04-11T09:56:47.996Z</time></trkpt><trkpt lat="40.71082177741675" lon="8.989772309037361"><ele>182.0</ele><time>2026-04-11T09:56:48.996Z</time></trkpt><trkpt lat="40.7109792429298" lon="8.989723639472738"><ele>183.33333333333331</ele><time>2026-04-11T09:56:49.996Z</time></trkpt><trkpt lat="40.711150094655494" lon="8.989670832514683"><ele>184.66666666666666</ele><time>2026-04-11T09:56:50.996Z</time></trkpt><trkpt lat="40.71131674057497" lon="8.989619325502645"><ele>186.0</ele><time>2026-04-11T09:56:51.996Z</time></trkpt><trkpt lat="40.71148174403822" lon="8.989568326092826"><ele>186.0</ele><time>2026-04-11T09:56:52.996Z</time></trkpt><trkpt lat="40.711643108076345" lon="8.989519628933254"><ele>186.0</ele><time>2026-04-11T09:56:53.996Z</time></trkpt><trkpt lat="40.71180965578835" lon="8.98946986657974"><ele>186.0</ele><time>2026-04-11T09:56:54.996Z</time></trkpt><trkpt lat="40.71197604113105" lon="8.989420152742314"><ele>187.0</ele><time>2026-04-11T09:56:55.996Z</time></trkpt><trkpt lat="40.712127089738026" lon="8.989374882587159"><ele>188.0</ele><time>2026-04-11T09:56:56.996Z</time></trkpt><trkpt lat="40.712290020008695" lon="8.989324672343725"><ele>189.0</ele><time>2026-04-11T09:56:57.996Z</time></trkpt><trkpt lat="40.71242765387911" lon="8.989282257697898"><ele>189.0</ele><time>2026-04-11T09:56:58.996Z</time></trkpt><trkpt lat="40.712554356312474" lon="8.989243211798907"><ele>189.0</ele><time>2026-04-11T09:56:59.996Z</time></trkpt><trkpt lat="40.71268441143494" lon="8.989203256918003"><ele>189.0</ele><time>2026-04-11T09:57:00.996Z</time></trkpt><trkpt lat="40.71280066512968" lon="8.98916774873769"><ele>189.0</ele><time>2026-04-11T09:57:01.996Z</time></trkpt><trkpt lat="40.712899412374185" lon="8.98913758766454"><ele>189.14285714285714</ele><time>2026-04-11T09:57:02.996Z</time></trkpt><trkpt lat="40.712990608252696" lon="8.989109733099824"><ele>189.28571428571428</ele><time>2026-04-11T09:57:03.996Z</time></trkpt><trkpt lat="40.713062413478156" lon="8.989087801121919"><ele>189.42857142857144</ele><time>2026-04-11T09:57:04.996Z</time></trkpt><trkpt lat="40.71312992369199" lon="8.989067181003442"><ele>189.57142857142856</ele><time>2026-04-11T09:57:05.996Z</time></trkpt><trkpt lat="40.71319648967093" lon="8.989046732806969"><ele>189.71428571428572</ele><time>2026-04-11T09:57:07.996Z</time></trkpt><trkpt lat="40.71313142421744" lon="8.989092164273798"><ele>189.85714285714286</ele><time>2026-04-11T09:57:09.996Z</time></trkpt><trkpt lat="40.71311302872822" lon="8.989178271126384"><ele>190.0</ele><time>2026-04-11T09:57:10.996Z</time></trkpt><trkpt lat="40.71306380745637" lon="8.989314017040424"><ele>190.0</ele><time>2026-04-11T09:57:11.996Z</time></trkpt><trkpt lat="40.71301640618638" lon="8.989442032049093"><ele>190.0</ele><time>2026-04-11T09:57:12.996Z</time></trkpt><trkpt lat="40.71296979609181" lon="8.989576749706387"><ele>190.0</ele><time>2026-04-11T09:57:13.996Z</time></trkpt><trkpt lat="40.71292444358898" lon="8.989713842252993"><ele>190.0</ele><time>2026-04-11T09:57:14.996Z</time></trkpt><trkpt lat="40.71289106402368" lon="8.989814742383281"><ele>190.0</ele><time>2026-04-11T09:57:15.996Z</time></trkpt><trkpt lat="40.712841239731965" lon="8.989960594376718"><ele>189.75</ele><time>2026-04-11T09:57:16.996Z</time></trkpt><trkpt lat="40.71279095641141" lon="8.990101114099845"><ele>189.5</ele><time>2026-04-11T09:57:17.996Z</time></trkpt><trkpt lat="40.712742849383574" lon="8.990224065965176"><ele>189.25</ele><time>2026-04-11T09:57:18.996Z</time></trkpt><trkpt lat="40.712685128977576" lon="8.990359730139025"><ele>189.0</ele><time>2026-04-11T09:57:19.996Z</time></trkpt><trkpt lat="40.71262916662607" lon="8.990489491761826"><ele>189.0</ele><time>2026-04-11T09:57:20.996Z</time></trkpt><trkpt lat="40.712573051238444" lon="8.990625937536684"><ele>189.0</ele><time>2026-04-11T09:57:21.996Z</time></trkpt><trkpt lat="40.712525852093506" lon="8.990741656721376"><ele>189.0</ele><time>2026-04-11T09:57:22.996Z</time></trkpt><trkpt lat="40.71247057648323" lon="8.990856671280895"><ele>189.0</ele><time>2026-04-11T09:57:23.996Z</time></trkpt><trkpt lat="40.71239382287909" lon="8.990992492873898"><ele>189.0</ele><time>2026-04-11T09:57:24.996Z</time></trkpt><trkpt lat="40.71231323268327" lon="8.991133109938922"><ele>188.25</ele><time>2026-04-11T09:57:25.996Z</time></trkpt><trkpt lat="40.71224828024061" lon="8.991254236521945"><ele>187.5</ele><time>2026-04-11T09:57:26.996Z</time></trkpt><trkpt lat="40.712172766233316" lon="8.99139628054946"><ele>186.75</ele><time>2026-04-11T09:57:27.996Z</time></trkpt><trkpt lat="40.71210867878385" lon="8.991512777490156"><ele>186.0</ele><time>2026-04-11T09:57:28.996Z</time></trkpt><trkpt lat="40.712050434673216" lon="8.991616315173982"><ele>185.5</ele><time>2026-04-11T09:57:29.996Z</time></trkpt><trkpt lat="40.71199336109552" lon="8.991725430770344"><ele>185.0</ele><time>2026-04-11T09:57:30.996Z</time></trkpt><trkpt lat="40.711956354068526" lon="8.991804404568732"><ele>184.5</ele><time>2026-04-11T09:57:31.996Z</time></trkpt><trkpt lat="40.711926047565875" lon="8.991914178593541"><ele>184.0</ele><time>2026-04-11T09:57:32.995Z</time></trkpt><trkpt lat="40.711974785756944" lon="8.99204228980942"><ele>183.5</ele><time>2026-04-11T09:57:33.995Z</time></trkpt><trkpt lat="40.71204528378777" lon="8.992084302134245"><ele>183.0</ele><time>2026-04-11T09:57:34.995Z</time></trkpt><trkpt lat="40.71214015629288" lon="8.992101131394014"><ele>183.0</ele><time>2026-04-11T09:57:35.995Z</time></trkpt><trkpt lat="40.71223394104584" lon="8.992126840830583"><ele>183.0</ele><time>2026-04-11T09:57:36.995Z</time></trkpt><trkpt lat="40.71232584396871" lon="8.992154924846549"><ele>183.0</ele><time>2026-04-11T09:57:37.995Z</time></trkpt><trkpt lat="40.71242245552221" lon="8.992204470415375"><ele>183.0</ele><time>2026-04-11T09:57:38.995Z</time></trkpt><trkpt lat="40.712492458739014" lon="8.992268713852097"><ele>183.0</ele><time>2026-04-11T09:57:39.995Z</time></trkpt><trkpt lat="40.71253551465352" lon="8.992335823974537"><ele>183.0</ele><time>2026-04-11T09:57:40.995Z</time></trkpt><trkpt lat="40.71260200877056" lon="8.992454313007057"><ele>183.0</ele><time>2026-04-11T09:57:41.995Z</time></trkpt><trkpt lat="40.71266430440311" lon="8.992555321162271"><ele>183.0</ele><time>2026-04-11T09:57:42.995Z</time></trkpt><trkpt lat="40.71274625819363" lon="8.992644823147765"><ele>183.0</ele><time>2026-04-11T09:57:43.995Z</time></trkpt><trkpt lat="40.71282300079834" lon="8.992716889740759"><ele>183.0</ele><time>2026-04-11T09:57:44.995Z</time></trkpt><trkpt lat="40.7129051177233" lon="8.992780972532012"><ele>183.0</ele><time>2026-04-11T09:57:45.995Z</time></trkpt><trkpt lat="40.7130007928466" lon="8.99284136590003"><ele>183.0</ele><time>2026-04-11T09:57:46.995Z</time></trkpt><trkpt lat="40.713113445813676" lon="8.99290347600337"><ele>183.0</ele><time>2026-04-11T09:57:47.995Z</time></trkpt><trkpt lat="40.713234299424926" lon="8.992967190957598"><ele>183.0</ele><time>2026-04-11T09:57:48.995Z</time></trkpt><trkpt lat="40.71335267115187" lon="8.993026864685952"><ele>183.0</ele><time>2026-04-11T09:57:49.995Z</time></trkpt><trkpt lat="40.71347204772301" lon="8.993087045011546"><ele>183.75</ele><time>2026-04-11T09:57:50.995Z</time></trkpt><trkpt lat="40.71360105086946" lon="8.993158201868521"><ele>184.5</ele><time>2026-04-11T09:57:51.995Z</time></trkpt><trkpt lat="40.71373229489313" lon="8.99323280974216"><ele>185.25</ele><time>2026-04-11T09:57:52.995Z</time></trkpt><trkpt lat="40.71387812498447" lon="8.993328464894585"><ele>186.0</ele><time>2026-04-11T09:57:53.995Z</time></trkpt><trkpt lat="40.71401663048405" lon="8.993426833299168"><ele>186.25</ele><time>2026-04-11T09:57:55.001Z</time></trkpt><trkpt lat="40.71414719487192" lon="8.99352044995753"><ele>186.5</ele><time>2026-04-11T09:57:56.001Z</time></trkpt><trkpt lat="40.714269643497936" lon="8.993608247462415"><ele>186.75</ele><time>2026-04-11T09:57:57.001Z</time></trkpt><trkpt lat="40.714398022633056" lon="8.99370107871531"><ele>187.0</ele><time>2026-04-11T09:57:58.001Z</time></trkpt><trkpt lat="40.71452503951489" lon="8.993793756077899"><ele>187.5</ele><time>2026-04-11T09:57:59.001Z</time></trkpt><trkpt lat="40.71466110500382" lon="8.993893035732782"><ele>188.0</ele><time>2026-04-11T09:58:00.001Z</time></trkpt><trkpt lat="40.71479385462505" lon="8.993989752882387"><ele>188.5</ele><time>2026-04-11T09:58:01Z</time></trkpt><trkpt lat="40.7149180645442" lon="8.994077948225122"><ele>189.0</ele><time>2026-04-11T09:58:02Z</time></trkpt><trkpt lat="40.71504289125259" lon="8.994166581546589"><ele>189.0</ele><time>2026-04-11T09:58:03Z</time></trkpt><trkpt lat="40.71514711018197" lon="8.994244545971679"><ele>189.0</ele><time>2026-04-11T09:58:04Z</time></trkpt><trkpt lat="40.71523811848106" lon="8.994314476797376"><ele>189.0</ele><time>2026-04-11T09:58:05Z</time></trkpt><trkpt lat="40.71532409901569" lon="8.9943840761076"><ele>189.0</ele><time>2026-04-11T09:58:06Z</time></trkpt><trkpt lat="40.715411643201186" lon="8.994456466899853"><ele>189.0</ele><time>2026-04-11T09:58:07Z</time></trkpt><trkpt lat="40.71548831325552" lon="8.994524112141137"><ele>189.0</ele><time>2026-04-11T09:58:08Z</time></trkpt><trkpt lat="40.71556473336231" lon="8.994591327987479"><ele>189.0</ele><time>2026-04-11T09:58:09Z</time></trkpt><trkpt lat="40.715666174907845" lon="8.99468420741635"><ele>189.0</ele><time>2026-04-11T09:58:10Z</time></trkpt><trkpt lat="40.71576313794842" lon="8.994775903690993"><ele>189.0</ele><time>2026-04-11T09:58:11Z</time></trkpt><trkpt lat="40.71585702836732" lon="8.994869703411212"><ele>189.0</ele><time>2026-04-11T09:58:12Z</time></trkpt><trkpt lat="40.71593584038563" lon="8.994948438720236"><ele>189.0</ele><time>2026-04-11T09:58:13Z</time></trkpt><trkpt lat="40.71604226584967" lon="8.995058500743124"><ele>189.0</ele><time>2026-04-11T09:58:14Z</time></trkpt><trkpt lat="40.716130667121426" lon="8.995149737145839"><ele>189.0</ele><time>2026-04-11T09:58:15Z</time></trkpt><trkpt lat="40.716255145731026" lon="8.99527596397347"><ele>189.25</ele><time>2026-04-11T09:58:16Z</time></trkpt><trkpt lat="40.71636963742576" lon="8.995386713241599"><ele>189.5</ele><time>2026-04-11T09:58:17Z</time></trkpt><trkpt lat="40.71647956623616" lon="8.995485729471417"><ele>189.75</ele><time>2026-04-11T09:58:18Z</time></trkpt><trkpt lat="40.71659437085311" lon="8.995579792209567"><ele>190.0</ele><time>2026-04-11T09:58:19Z</time></trkpt><trkpt lat="40.71672798128744" lon="8.995675284346529"><ele>190.0</ele><time>2026-04-11T09:58:20Z</time></trkpt><trkpt lat="40.71684517710916" lon="8.995762128630652"><ele>190.0</ele><time>2026-04-11T09:58:21Z</time></trkpt><trkpt lat="40.716939152267464" lon="8.99584236316054"><ele>190.0</ele><time>2026-04-11T09:58:22Z</time></trkpt><trkpt lat="40.7170276828294" lon="8.99593739810709"><ele>190.0</ele><time>2026-04-11T09:58:23Z</time></trkpt><trkpt lat="40.71713549277212" lon="8.996063862847908"><ele>190.0</ele><time>2026-04-11T09:58:24Z</time></trkpt><trkpt lat="40.71725068506202" lon="8.996167231958127"><ele>190.0</ele><time>2026-04-11T09:58:25Z</time></trkpt><trkpt lat="40.71735686885513" lon="8.996249492637084"><ele>190.0</ele><time>2026-04-11T09:58:26Z</time></trkpt><trkpt lat="40.71748401837558" lon="8.996340958873805"><ele>190.0</ele><time>2026-04-11T09:58:27Z</time></trkpt><trkpt lat="40.71759418349223" lon="8.996418250590336"><ele>190.0</ele><time>2026-04-11T09:58:28Z</time></trkpt><trkpt lat="40.717708418228334" lon="8.996498397429992"><ele>190.0</ele><time>2026-04-11T09:58:29Z</time></trkpt><trkpt lat="40.717823451994484" lon="8.996579105085146"><ele>190.0</ele><time>2026-04-11T09:58:30Z</time></trkpt><trkpt lat="40.717942273140636" lon="8.996658081881414"><ele>190.0</ele><time>2026-04-11T09:58:31Z</time></trkpt><trkpt lat="40.71807649930285" lon="8.99671578655575"><ele>189.75</ele><time>2026-04-11T09:58:32Z</time></trkpt><trkpt lat="40.71817910064474" lon="8.99676036628169"><ele>189.5</ele><time>2026-04-11T09:58:33Z</time></trkpt><trkpt lat="40.718269458399426" lon="8.996831097649265"><ele>189.25</ele><time>2026-04-11T09:58:34Z</time></trkpt><trkpt lat="40.71836093293658" lon="8.996929072667337"><ele>189.0</ele><time>2026-04-11T09:58:35Z</time></trkpt><trkpt lat="40.71847640619149" lon="8.997059692057906"><ele>189.25</ele><time>2026-04-11T09:58:36Z</time></trkpt><trkpt lat="40.71859670681096" lon="8.997201122127953"><ele>189.5</ele><time>2026-04-11T09:58:37Z</time></trkpt><trkpt lat="40.71870577427925" lon="8.997329663451405"><ele>189.75</ele><time>2026-04-11T09:58:38Z</time></trkpt><trkpt lat="40.718789247794405" lon="8.997428040102273"><ele>190.0</ele><time>2026-04-11T09:58:39Z</time></trkpt><trkpt lat="40.71889484258876" lon="8.997554425292302"><ele>190.33333333333334</ele><time>2026-04-11T09:58:40Z</time></trkpt><trkpt lat="40.71901313927444" lon="8.997695528203758"><ele>190.66666666666666</ele><time>2026-04-11T09:58:41Z</time></trkpt><trkpt lat="40.71913756065476" lon="8.997841357013908"><ele>191.0</ele><time>2026-04-11T09:58:42Z</time></trkpt><trkpt lat="40.71924239139113" lon="8.997962335429278"><ele>191.0</ele><time>2026-04-11T09:58:43Z</time></trkpt><trkpt lat="40.719378286060056" lon="8.998113283187768"><ele>191.0</ele><time>2026-04-11T09:58:44Z</time></trkpt><trkpt lat="40.719497132287955" lon="8.998240963341326"><ele>191.0</ele><time>2026-04-11T09:58:45Z</time></trkpt><trkpt lat="40.71963797541041" lon="8.998379376711027"><ele>191.5</ele><time>2026-04-11T09:58:46Z</time></trkpt><trkpt lat="40.719766356064795" lon="8.998491317198944"><ele>192.0</ele><time>2026-04-11T09:58:47Z</time></trkpt><trkpt lat="40.71988865295107" lon="8.998595902968413"><ele>192.5</ele><time>2026-04-11T09:58:48Z</time></trkpt><trkpt lat="40.72000859365646" lon="8.998699665564544"><ele>193.0</ele><time>2026-04-11T09:58:49Z</time></trkpt><trkpt lat="40.72013726920442" lon="8.99881104248678"><ele>193.0</ele><time>2026-04-11T09:58:49.999Z</time></trkpt><trkpt lat="40.72027541547673" lon="8.998930616931176"><ele>193.0</ele><time>2026-04-11T09:58:50.999Z</time></trkpt><trkpt lat="40.720414148178364" lon="8.999050698967466"><ele>193.0</ele><time>2026-04-11T09:58:51.999Z</time></trkpt><trkpt lat="40.72056296074477" lon="8.999177407570768"><ele>192.66666666666666</ele><time>2026-04-11T09:58:52.999Z</time></trkpt><trkpt lat="40.72068618073995" lon="8.999279274770995"><ele>192.33333333333331</ele><time>2026-04-11T09:58:53.999Z</time></trkpt><trkpt lat="40.72081687297653" lon="8.99938032572031"><ele>192.0</ele><time>2026-04-11T09:58:54.999Z</time></trkpt><trkpt lat="40.72095206182698" lon="8.999494347053773"><ele>192.0</ele><time>2026-04-11T09:58:55.999Z</time></trkpt><trkpt lat="40.72104905211122" lon="8.999599773569816"><ele>192.0</ele><time>2026-04-11T09:58:56.999Z</time></trkpt><trkpt lat="40.72117347432108" lon="8.999731337023299"><ele>192.0</ele><time>2026-04-11T09:58:57.999Z</time></trkpt><trkpt lat="40.721292128049186" lon="8.999855260723258"><ele>192.0</ele><time>2026-04-11T09:58:58.999Z</time></trkpt><trkpt lat="40.721413504498194" lon="8.999967673006534"><ele>192.25</ele><time>2026-04-11T09:58:59.999Z</time></trkpt><trkpt lat="40.721518282749834" lon="9.000048574766947"><ele>192.5</ele><time>2026-04-11T09:59:00.999Z</time></trkpt><trkpt lat="40.72162269667595" lon="9.000125287322405"><ele>192.75</ele><time>2026-04-11T09:59:01.999Z</time></trkpt><trkpt lat="40.72173422164373" lon="9.000209640235946"><ele>193.0</ele><time>2026-04-11T09:59:02.999Z</time></trkpt><trkpt lat="40.72184765951628" lon="9.000298249153754"><ele>192.5</ele><time>2026-04-11T09:59:03.999Z</time></trkpt><trkpt lat="40.72194579499698" lon="9.00037516784043"><ele>192.0</ele><time>2026-04-11T09:59:04.999Z</time></trkpt><trkpt lat="40.722083456203436" lon="9.000483066469727"><ele>191.5</ele><time>2026-04-11T09:59:05.999Z</time></trkpt><trkpt lat="40.722198811662594" lon="9.000568266465281"><ele>191.0</ele><time>2026-04-11T09:59:06.999Z</time></trkpt><trkpt lat="40.72231423180325" lon="9.000644170220896"><ele>191.0</ele><time>2026-04-11T09:59:07.999Z</time></trkpt><trkpt lat="40.72243568896727" lon="9.000696796608239"><ele>191.0</ele><time>2026-04-11T09:59:08.999Z</time></trkpt><trkpt lat="40.72257181799872" lon="9.000725972591649"><ele>191.0</ele><time>2026-04-11T09:59:09.999Z</time></trkpt><trkpt lat="40.722667001690084" lon="9.000745001740748"><ele>191.0</ele><time>2026-04-11T09:59:10.999Z</time></trkpt><trkpt lat="40.72277940502106" lon="9.000767805944562"><ele>191.0</ele><time>2026-04-11T09:59:11.999Z</time></trkpt><trkpt lat="40.72291447622053" lon="9.000776833583428"><ele>191.0</ele><time>2026-04-11T09:59:12.999Z</time></trkpt><trkpt lat="40.72304526289232" lon="9.00082871901209"><ele>191.0</ele><time>2026-04-11T09:59:13.999Z</time></trkpt><trkpt lat="40.723176939334934" lon="9.000864093204909"><ele>191.0</ele><time>2026-04-11T09:59:14.999Z</time></trkpt><trkpt lat="40.72332008491622" lon="9.000917018807886"><ele>191.0</ele><time>2026-04-11T09:59:15.999Z</time></trkpt><trkpt lat="40.72347158003438" lon="9.000994746313813"><ele>191.0</ele><time>2026-04-11T09:59:16.999Z</time></trkpt><trkpt lat="40.723609856187366" lon="9.00107889349498"><ele>191.0</ele><time>2026-04-11T09:59:17.999Z</time></trkpt><trkpt lat="40.72372558588098" lon="9.00115343581113"><ele>191.0</ele><time>2026-04-11T09:59:18.999Z</time></trkpt><trkpt lat="40.723834132019036" lon="9.001228655528088"><ele>191.25</ele><time>2026-04-11T09:59:19.999Z</time></trkpt><trkpt lat="40.72396771635957" lon="9.001298316204545"><ele>191.5</ele><time>2026-04-11T09:59:20.999Z</time></trkpt><trkpt lat="40.72409823879784" lon="9.001342853874847"><ele>191.75</ele><time>2026-04-11T09:59:21.999Z</time></trkpt><trkpt lat="40.72422747336441" lon="9.001378091584266"><ele>192.0</ele><time>2026-04-11T09:59:22.999Z</time></trkpt><trkpt lat="40.72437278167229" lon="9.001405042665771"><ele>192.25</ele><time>2026-04-11T09:59:23.999Z</time></trkpt><trkpt lat="40.72450484985719" lon="9.001419487073955"><ele>192.5</ele><time>2026-04-11T09:59:24.999Z</time></trkpt><trkpt lat="40.72467746510051" lon="9.001427104045005"><ele>192.75</ele><time>2026-04-11T09:59:25.999Z</time></trkpt><trkpt lat="40.724814000855865" lon="9.001427277450546"><ele>193.0</ele><time>2026-04-11T09:59:26.999Z</time></trkpt><trkpt lat="40.72498020093692" lon="9.001421369208613"><ele>193.0</ele><time>2026-04-11T09:59:27.999Z</time></trkpt><trkpt lat="40.725142243361795" lon="9.001419991020065"><ele>193.0</ele><time>2026-04-11T09:59:28.999Z</time></trkpt><trkpt lat="40.725286293467754" lon="9.00142105692098"><ele>193.0</ele><time>2026-04-11T09:59:29.999Z</time></trkpt><trkpt lat="40.72541965493923" lon="9.001422043730528"><ele>193.0</ele><time>2026-04-11T09:59:30.999Z</time></trkpt><trkpt lat="40.725550237499164" lon="9.001423009978097"><ele>193.5</ele><time>2026-04-11T09:59:31.999Z</time></trkpt><trkpt lat="40.72567148725419" lon="9.001423253800935"><ele>194.0</ele><time>2026-04-11T09:59:32.999Z</time></trkpt><trkpt lat="40.72579220917481" lon="9.001419364954046"><ele>194.5</ele><time>2026-04-11T09:59:33.999Z</time></trkpt><trkpt lat="40.72589763547988" lon="9.001397662184784"><ele>195.0</ele><time>2026-04-11T09:59:34.999Z</time></trkpt><trkpt lat="40.726004688240906" lon="9.001369608534485"><ele>195.16666666666666</ele><time>2026-04-11T09:59:35.999Z</time></trkpt><trkpt lat="40.72610487297469" lon="9.001339417848882"><ele>195.33333333333331</ele><time>2026-04-11T09:59:36.999Z</time></trkpt><trkpt lat="40.726187261953136" lon="9.00131458997874"><ele>195.5</ele><time>2026-04-11T09:59:37.999Z</time></trkpt><trkpt lat="40.72627386179711" lon="9.001286884646335"><ele>195.66666666666666</ele><time>2026-04-11T09:59:38.999Z</time></trkpt><trkpt lat="40.726338827787515" lon="9.001259338009449"><ele>195.83333333333331</ele><time>2026-04-11T09:59:39.999Z</time></trkpt><trkpt lat="40.726411818814334" lon="9.001218683530782"><ele>196.0</ele><time>2026-04-11T09:59:40.999Z</time></trkpt><trkpt lat="40.726480651739465" lon="9.001168487237823"><ele>195.99999999999997</ele><time>2026-04-11T09:59:42.999Z</time></trkpt><trkpt lat="40.726537657271734" lon="9.001118061148945"><ele>196.0</ele><time>2026-04-11T09:59:44.999Z</time></trkpt><trkpt lat="40.726605151538315" lon="9.00107352984241"><ele>196.0</ele><time>2026-04-11T09:59:46.999Z</time></trkpt><trkpt lat="40.72666744703173" lon="9.001028821443656"><ele>196.0</ele><time>2026-04-11T09:59:47.999Z</time></trkpt><trkpt lat="40.726727733702546" lon="9.000983245087754"><ele>195.99999999999997</ele><time>2026-04-11T09:59:48.999Z</time></trkpt><trkpt lat="40.72679936772893" lon="9.00092190534582"><ele>196.0</ele><time>2026-04-11T09:59:49.999Z</time></trkpt><trkpt lat="40.72686519639607" lon="9.000856292743633"><ele>196.60000000000002</ele><time>2026-04-11T09:59:50.999Z</time></trkpt><trkpt lat="40.72692440937827" lon="9.000774296861547"><ele>197.2</ele><time>2026-04-11T09:59:51.999Z</time></trkpt><trkpt lat="40.72698107441765" lon="9.000724610335876"><ele>197.8</ele><time>2026-04-11T09:59:52.999Z</time></trkpt><trkpt lat="40.727068650658225" lon="9.000651725021298"><ele>198.39999999999998</ele><time>2026-04-11T09:59:53.999Z</time></trkpt><trkpt lat="40.727144855586396" lon="9.000554925730356"><ele>199.0</ele><time>2026-04-11T09:59:54.999Z</time></trkpt><trkpt lat="40.72721659639471" lon="9.00045858032088"><ele>199.0</ele><time>2026-04-11T09:59:55.999Z</time></trkpt><trkpt lat="40.72728577718733" lon="9.000335409055952"><ele>199.0</ele><time>2026-04-11T09:59:56.999Z</time></trkpt><trkpt lat="40.72734438413639" lon="9.00022599651332"><ele>199.0</ele><time>2026-04-11T09:59:57.999Z</time></trkpt><trkpt lat="40.72740784265901" lon="9.000120210851803"><ele>199.0</ele><time>2026-04-11T09:59:58.999Z</time></trkpt><trkpt lat="40.72748494743552" lon="9.000010985074674"><ele>199.0</ele><time>2026-04-11T09:59:59.999Z</time></trkpt><trkpt lat="40.72753564969708" lon="8.999935683638874"><ele>199.0</ele><time>2026-04-11T10:00:00.998Z</time></trkpt><trkpt lat="40.72761570056551" lon="8.999846824508497"><ele>199.0</ele><time>2026-04-11T10:00:01.998Z</time></trkpt><trkpt lat="40.72769418941942" lon="8.999728345288235"><ele>199.0</ele><time>2026-04-11T10:00:02.998Z</time></trkpt><trkpt lat="40.72777340856302" lon="8.999614780570278"><ele>199.0</ele><time>2026-04-11T10:00:03.998Z</time></trkpt><trkpt lat="40.72785323151718" lon="8.999504631543102"><ele>199.6</ele><time>2026-04-11T10:00:04.998Z</time></trkpt><trkpt lat="40.72792992224872" lon="8.999413799537386"><ele>200.2</ele><time>2026-04-11T10:00:05.998Z</time></trkpt><trkpt lat="40.728007389966706" lon="8.999310596229407"><ele>200.79999999999998</ele><time>2026-04-11T10:00:06.998Z</time></trkpt><trkpt lat="40.728076924996" lon="8.999251140279656"><ele>201.39999999999998</ele><time>2026-04-11T10:00:07.998Z</time></trkpt><trkpt lat="40.728158717488476" lon="8.999189254036528"><ele>202.0</ele><time>2026-04-11T10:00:08.998Z</time></trkpt><trkpt lat="40.728238243457" lon="8.99914257041615"><ele>202.0</ele><time>2026-04-11T10:00:09.998Z</time></trkpt><trkpt lat="40.72833315142698" lon="8.99910084250112"><ele>202.0</ele><time>2026-04-11T10:00:10.998Z</time></trkpt><trkpt lat="40.72841917189684" lon="8.99906413904959"><ele>202.0</ele><time>2026-04-11T10:00:11.998Z</time></trkpt><trkpt lat="40.72852598884897" lon="8.999020981764952"><ele>202.0</ele><time>2026-04-11T10:00:12.998Z</time></trkpt><trkpt lat="40.72864624231338" lon="8.998973068266864"><ele>202.0</ele><time>2026-04-11T10:00:13.998Z</time></trkpt><trkpt lat="40.72876045247742" lon="8.998927562672568"><ele>203.75</ele><time>2026-04-11T10:00:14.998Z</time></trkpt><trkpt lat="40.72887132398413" lon="8.998882272780966"><ele>205.5</ele><time>2026-04-11T10:00:15.998Z</time></trkpt><trkpt lat="40.72897967191921" lon="8.99883702413777"><ele>207.25</ele><time>2026-04-11T10:00:16.998Z</time></trkpt><trkpt lat="40.72909190353059" lon="8.998772947585762"><ele>209.0</ele><time>2026-04-11T10:00:17.998Z</time></trkpt><trkpt lat="40.72920935478902" lon="8.998749541162148"><ele>209.0</ele><time>2026-04-11T10:00:18.998Z</time></trkpt><trkpt lat="40.72931632070377" lon="8.998713715530718"><ele>209.0</ele><time>2026-04-11T10:00:19.998Z</time></trkpt><trkpt lat="40.72943541360404" lon="8.99865113160537"><ele>209.0</ele><time>2026-04-11T10:00:20.998Z</time></trkpt><trkpt lat="40.72955044008905" lon="8.998624036456922"><ele>209.0</ele><time>2026-04-11T10:00:21.998Z</time></trkpt><trkpt lat="40.72967013154809" lon="8.998590559906326"><ele>209.0</ele><time>2026-04-11T10:00:22.998Z</time></trkpt><trkpt lat="40.72978371333059" lon="8.998572400369564"><ele>209.0</ele><time>2026-04-11T10:00:23.998Z</time></trkpt><trkpt lat="40.72990160457465" lon="8.998571005013389"><ele>209.0</ele><time>2026-04-11T10:00:24.998Z</time></trkpt><trkpt lat="40.73002570882123" lon="8.998556376042364"><ele>209.0</ele><time>2026-04-11T10:00:25.998Z</time></trkpt><trkpt lat="40.73011837888822" lon="8.998547096125288"><ele>209.0</ele><time>2026-04-11T10:00:26.998Z</time></trkpt><trkpt lat="40.73021153153203" lon="8.998542211016183"><ele>209.0</ele><time>2026-04-11T10:00:27.998Z</time></trkpt><trkpt lat="40.73030224823021" lon="8.998558957967582"><ele>209.0</ele><time>2026-04-11T10:00:28.998Z</time></trkpt><trkpt lat="40.730381442224775" lon="8.998599775449941"><ele>209.0</ele><time>2026-04-11T10:00:29.998Z</time></trkpt><trkpt lat="40.73046073127498" lon="8.998650153956373"><ele>209.0</ele><time>2026-04-11T10:00:30.998Z</time></trkpt><trkpt lat="40.730554528933894" lon="8.998713524845913"><ele>208.39999999999998</ele><time>2026-04-11T10:00:31.998Z</time></trkpt><trkpt lat="40.730646256561094" lon="8.998778019630537"><ele>207.8</ele><time>2026-04-11T10:00:32.998Z</time></trkpt><trkpt lat="40.730743066431685" lon="8.998842847401823"><ele>207.2</ele><time>2026-04-11T10:00:33.998Z</time></trkpt><trkpt lat="40.730821408928016" lon="8.99889354472886"><ele>206.60000000000002</ele><time>2026-04-11T10:00:34.998Z</time></trkpt><trkpt lat="40.73089498540376" lon="8.998939135894597"><ele>206.0</ele><time>2026-04-11T10:00:35.998Z</time></trkpt><trkpt lat="40.730975678114504" lon="8.998989715648355"><ele>206.0</ele><time>2026-04-11T10:00:36.998Z</time></trkpt><trkpt lat="40.731055172235166" lon="8.999036441673157"><ele>206.0</ele><time>2026-04-11T10:00:37.998Z</time></trkpt><trkpt lat="40.73113696581463" lon="8.99908586799955"><ele>206.0</ele><time>2026-04-11T10:00:38.998Z</time></trkpt><trkpt lat="40.73122988279318" lon="8.999142464741116"><ele>206.0</ele><time>2026-04-11T10:00:39.998Z</time></trkpt><trkpt lat="40.73133396463886" lon="8.999209766954671"><ele>206.0</ele><time>2026-04-11T10:00:40.998Z</time></trkpt><trkpt lat="40.73144020224261" lon="8.999278882102288"><ele>205.75</ele><time>2026-04-11T10:00:41.998Z</time></trkpt><trkpt lat="40.731556856704735" lon="8.999363048552924"><ele>205.5</ele><time>2026-04-11T10:00:42.998Z</time></trkpt><trkpt lat="40.73165995607688" lon="8.999450565658442"><ele>205.25</ele><time>2026-04-11T10:00:43.998Z</time></trkpt><trkpt lat="40.731768001513956" lon="8.999532011269077"><ele>205.0</ele><time>2026-04-11T10:00:44.998Z</time></trkpt><trkpt lat="40.73187055822419" lon="8.999606344899814"><ele>205.4</ele><time>2026-04-11T10:00:45.998Z</time></trkpt><trkpt lat="40.73195275928506" lon="8.999664571683773"><ele>205.8</ele><time>2026-04-11T10:00:46.998Z</time></trkpt><trkpt lat="40.7320293374195" lon="8.999714202584217"><ele>206.2</ele><time>2026-04-11T10:00:47.998Z</time></trkpt><trkpt lat="40.7321458759483" lon="8.999759186006084"><ele>206.6</ele><time>2026-04-11T10:00:48.998Z</time></trkpt><trkpt lat="40.73224390335513" lon="8.999789557218485"><ele>207.0</ele><time>2026-04-11T10:00:49.998Z</time></trkpt><trkpt lat="40.73234974684511" lon="8.999811617104248"><ele>207.0</ele><time>2026-04-11T10:00:50.998Z</time></trkpt><trkpt lat="40.73245489044016" lon="8.999819608313736"><ele>207.0</ele><time>2026-04-11T10:00:51.998Z</time></trkpt><trkpt lat="40.732557706020806" lon="8.999820287517707"><ele>207.0</ele><time>2026-04-11T10:00:52.998Z</time></trkpt><trkpt lat="40.732675180859175" lon="8.999805329051275"><ele>207.0</ele><time>2026-04-11T10:00:53.998Z</time></trkpt><trkpt lat="40.732806624827575" lon="8.999774995834441"><ele>206.0</ele><time>2026-04-11T10:00:54.998Z</time></trkpt><trkpt lat="40.73292082740957" lon="8.999746193328805"><ele>205.0</ele><time>2026-04-11T10:00:55.998Z</time></trkpt><trkpt lat="40.73302942930892" lon="8.999697796775735"><ele>204.0</ele><time>2026-04-11T10:00:56.998Z</time></trkpt><trkpt lat="40.73315652264652" lon="8.999689498880509"><ele>203.0</ele><time>2026-04-11T10:00:57.998Z</time></trkpt><trkpt lat="40.73329439058105" lon="8.99966213297035"><ele>203.0</ele><time>2026-04-11T10:00:58.998Z</time></trkpt><trkpt lat="40.73343163276035" lon="8.999644042998598"><ele>203.0</ele><time>2026-04-11T10:00:59.998Z</time></trkpt><trkpt lat="40.73356924060983" lon="8.999615726235595"><ele>203.0</ele><time>2026-04-11T10:01:00.998Z</time></trkpt><trkpt lat="40.733696285534116" lon="8.999592187796488"><ele>203.0</ele><time>2026-04-11T10:01:01.998Z</time></trkpt><trkpt lat="40.73381258768512" lon="8.99957652111322"><ele>203.60000000000002</ele><time>2026-04-11T10:01:02.998Z</time></trkpt><trkpt lat="40.733932318426085" lon="8.999563646590348"><ele>204.20000000000002</ele><time>2026-04-11T10:01:03.998Z</time></trkpt><trkpt lat="40.73405069446899" lon="8.999529969103554"><ele>204.8</ele><time>2026-04-11T10:01:04.998Z</time></trkpt><trkpt lat="40.73414777830335" lon="8.999472049615369"><ele>205.4</ele><time>2026-04-11T10:01:05.998Z</time></trkpt><trkpt lat="40.734230604511886" lon="8.99942299086135"><ele>206.0</ele><time>2026-04-11T10:01:06.998Z</time></trkpt><trkpt lat="40.734311249409515" lon="8.999368064107067"><ele>205.99999999999997</ele><time>2026-04-11T10:01:07.998Z</time></trkpt><trkpt lat="40.73437865307661" lon="8.999314553078566"><ele>206.0</ele><time>2026-04-11T10:01:08.998Z</time></trkpt><trkpt lat="40.73443626092285" lon="8.999255438895702"><ele>206.0</ele><time>2026-04-11T10:01:09.998Z</time></trkpt><trkpt lat="40.734501240464745" lon="8.999196444221623"><ele>206.0</ele><time>2026-04-11T10:01:10.998Z</time></trkpt><trkpt lat="40.73455406306034" lon="8.99913286371516"><ele>206.0</ele><time>2026-04-11T10:01:11.998Z</time></trkpt><trkpt lat="40.73461358321669" lon="8.999081242290892"><ele>205.99999999999997</ele><time>2026-04-11T10:01:12.998Z</time></trkpt><trkpt lat="40.73467388449434" lon="8.999030821535248"><ele>206.0</ele><time>2026-04-11T10:01:13.997Z</time></trkpt><trkpt lat="40.73475004880454" lon="8.999011045330157"><ele>205.20000000000002</ele><time>2026-04-11T10:01:14.997Z</time></trkpt><trkpt lat="40.73484239797701" lon="8.998995148655144"><ele>204.4</ele><time>2026-04-11T10:01:15.997Z</time></trkpt><trkpt lat="40.734942203279125" lon="8.998981462136353"><ele>203.6</ele><time>2026-04-11T10:01:16.997Z</time></trkpt><trkpt lat="40.735049295806604" lon="8.998964530603143"><ele>202.8</ele><time>2026-04-11T10:01:17.997Z</time></trkpt><trkpt lat="40.735158114652535" lon="8.998973236296989"><ele>202.0</ele><time>2026-04-11T10:01:18.997Z</time></trkpt><trkpt lat="40.735266480809145" lon="8.99895088253756"><ele>201.39999999999998</ele><time>2026-04-11T10:01:19.997Z</time></trkpt><trkpt lat="40.73537788710082" lon="8.99896025732263"><ele>200.79999999999998</ele><time>2026-04-11T10:01:20.997Z</time></trkpt><trkpt lat="40.73548542291661" lon="8.99895811254494"><ele>200.2</ele><time>2026-04-11T10:01:21.997Z</time></trkpt><trkpt lat="40.73559067100234" lon="8.998961317598585"><ele>199.6</ele><time>2026-04-11T10:01:22.997Z</time></trkpt><trkpt lat="40.73569200078821" lon="8.99896866344073"><ele>199.0</ele><time>2026-04-11T10:01:23.997Z</time></trkpt><trkpt lat="40.7358000924264" lon="8.99897371088728"><ele>199.0</ele><time>2026-04-11T10:01:24.997Z</time></trkpt><trkpt lat="40.73590828840959" lon="8.998988664457876"><ele>199.0</ele><time>2026-04-11T10:01:25.997Z</time></trkpt><trkpt lat="40.73600947271316" lon="8.99903386357861"><ele>199.0</ele><time>2026-04-11T10:01:26.997Z</time></trkpt><trkpt lat="40.73610716959177" lon="8.999066029057694"><ele>199.0</ele><time>2026-04-11T10:01:27.997Z</time></trkpt><trkpt lat="40.73620855337973" lon="8.999055302644043"><ele>199.0</ele><time>2026-04-11T10:01:28.997Z</time></trkpt><trkpt lat="40.73630465861447" lon="8.999074840428824"><ele>199.6</ele><time>2026-04-11T10:01:29.997Z</time></trkpt><trkpt lat="40.73639485169028" lon="8.999129989886228"><ele>200.2</ele><time>2026-04-11T10:01:30.997Z</time></trkpt><trkpt lat="40.73648754507073" lon="8.999177383008231"><ele>200.79999999999998</ele><time>2026-04-11T10:01:31.997Z</time></trkpt><trkpt lat="40.736579533906244" lon="8.999234029870106"><ele>201.39999999999998</ele><time>2026-04-11T10:01:32.997Z</time></trkpt><trkpt lat="40.73667638940575" lon="8.999299276304411"><ele>202.0</ele><time>2026-04-11T10:01:33.997Z</time></trkpt><trkpt lat="40.73678045269277" lon="8.999375548058168"><ele>202.0</ele><time>2026-04-11T10:01:34.997Z</time></trkpt><trkpt lat="40.7368843134042" lon="8.999462365210785"><ele>202.0</ele><time>2026-04-11T10:01:35.997Z</time></trkpt><trkpt lat="40.73698519086418" lon="8.999551937425444"><ele>202.0</ele><time>2026-04-11T10:01:36.997Z</time></trkpt><trkpt lat="40.737079996605175" lon="8.999649690571937"><ele>202.0</ele><time>2026-04-11T10:01:37.997Z</time></trkpt><trkpt lat="40.737191064072086" lon="8.999734026408982"><ele>199.75</ele><time>2026-04-11T10:01:38.997Z</time></trkpt><trkpt lat="40.73730004231402" lon="8.999799099550623"><ele>197.5</ele><time>2026-04-11T10:01:39.997Z</time></trkpt><trkpt lat="40.73740445296913" lon="8.999853587431422"><ele>195.25</ele><time>2026-04-11T10:01:40.997Z</time></trkpt><trkpt lat="40.73751099106036" lon="8.999900931174256"><ele>193.0</ele><time>2026-04-11T10:01:41.997Z</time></trkpt><trkpt lat="40.737624870836385" lon="8.999924452033717"><ele>192.8</ele><time>2026-04-11T10:01:42.997Z</time></trkpt><trkpt lat="40.737728266016866" lon="8.999988002712564"><ele>192.60000000000002</ele><time>2026-04-11T10:01:43.997Z</time></trkpt><trkpt lat="40.73783531815387" lon="9.000034269617991"><ele>192.39999999999998</ele><time>2026-04-11T10:01:44.997Z</time></trkpt><trkpt lat="40.73794780423328" lon="9.000042131701582"><ele>192.2</ele><time>2026-04-11T10:01:45.997Z</time></trkpt><trkpt lat="40.73805616502076" lon="9.000047288892386"><ele>192.0</ele><time>2026-04-11T10:01:46.997Z</time></trkpt><trkpt lat="40.73815818506137" lon="9.000065894917004"><ele>192.0</ele><time>2026-04-11T10:01:47.997Z</time></trkpt><trkpt lat="40.73825076509307" lon="9.000071588155844"><ele>192.0</ele><time>2026-04-11T10:01:48.997Z</time></trkpt><trkpt lat="40.73832724639206" lon="9.000088631126024"><ele>192.0</ele><time>2026-04-11T10:01:49.997Z</time></trkpt><trkpt lat="40.73838742781379" lon="9.000128422158046"><ele>192.0</ele><time>2026-04-11T10:01:50.997Z</time></trkpt><trkpt lat="40.738457162277584" lon="9.000197771150821"><ele>192.0</ele><time>2026-04-11T10:01:51.997Z</time></trkpt><trkpt lat="40.73853230879787" lon="9.00028165605326"><ele>192.0</ele><time>2026-04-11T10:01:52.997Z</time></trkpt><trkpt lat="40.73860446282238" lon="9.000373103431913"><ele>192.2</ele><time>2026-04-11T10:01:53.997Z</time></trkpt><trkpt lat="40.73867008593197" lon="9.00047976248251"><ele>192.39999999999998</ele><time>2026-04-11T10:01:54.997Z</time></trkpt><trkpt lat="40.738742870172594" lon="9.000599315911938"><ele>192.60000000000002</ele><time>2026-04-11T10:01:55.997Z</time></trkpt><trkpt lat="40.738814961083484" lon="9.00071773099942"><ele>192.8</ele><time>2026-04-11T10:01:56.997Z</time></trkpt><trkpt lat="40.738884537553005" lon="9.000837079469674"><ele>193.0</ele><time>2026-04-11T10:01:57.997Z</time></trkpt><trkpt lat="40.73897424426565" lon="9.000962085701808"><ele>193.0</ele><time>2026-04-11T10:01:58.997Z</time></trkpt><trkpt lat="40.73908918696766" lon="9.001050436326926"><ele>193.0</ele><time>2026-04-11T10:01:59.997Z</time></trkpt><trkpt lat="40.739212587197294" lon="9.001132538363809"><ele>193.0</ele><time>2026-04-11T10:02:00.997Z</time></trkpt><trkpt lat="40.739343277233964" lon="9.001210136728398"><ele>193.0</ele><time>2026-04-11T10:02:01.997Z</time></trkpt><trkpt lat="40.73947263728833" lon="9.001275222302892"><ele>193.25</ele><time>2026-04-11T10:02:02.997Z</time></trkpt><trkpt lat="40.73959722207506" lon="9.001329599520288"><ele>193.5</ele><time>2026-04-11T10:02:03.997Z</time></trkpt><trkpt lat="40.73971157200671" lon="9.001375615350906"><ele>193.75</ele><time>2026-04-11T10:02:04.997Z</time></trkpt><trkpt lat="40.73982053463781" lon="9.001414621583498"><ele>194.0</ele><time>2026-04-11T10:02:05.997Z</time></trkpt><trkpt lat="40.739933325484394" lon="9.001446934331314"><ele>194.0</ele><time>2026-04-11T10:02:06.997Z</time></trkpt><trkpt lat="40.740054993486716" lon="9.0014629433697"><ele>194.0</ele><time>2026-04-11T10:02:07.997Z</time></trkpt><trkpt lat="40.74018244202994" lon="9.001449321056965"><ele>194.0</ele><time>2026-04-11T10:02:08.997Z</time></trkpt><trkpt lat="40.74031156203389" lon="9.001480251880766"><ele>194.0</ele><time>2026-04-11T10:02:09.997Z</time></trkpt><trkpt lat="40.740441768039496" lon="9.001505360527904"><ele>193.25</ele><time>2026-04-11T10:02:10.997Z</time></trkpt><trkpt lat="40.74057075205509" lon="9.001543797241847"><ele>192.5</ele><time>2026-04-11T10:02:11.997Z</time></trkpt><trkpt lat="40.740702617197805" lon="9.00157920109913"><ele>191.75</ele><time>2026-04-11T10:02:12.997Z</time></trkpt><trkpt lat="40.740832392399476" lon="9.001641888642279"><ele>191.0</ele><time>2026-04-11T10:02:13.997Z</time></trkpt><trkpt lat="40.740958298487655" lon="9.001686853674748"><ele>190.0</ele><time>2026-04-11T10:02:14.997Z</time></trkpt><trkpt lat="40.741077443334994" lon="9.001727060664066"><ele>189.0</ele><time>2026-04-11T10:02:15.997Z</time></trkpt><trkpt lat="40.74119110744571" lon="9.00176508621786"><ele>188.0</ele><time>2026-04-11T10:02:16.997Z</time></trkpt><trkpt lat="40.74130341077135" lon="9.001801426525612"><ele>187.0</ele><time>2026-04-11T10:02:17.997Z</time></trkpt><trkpt lat="40.741414966896464" lon="9.001846950793334"><ele>187.0</ele><time>2026-04-11T10:02:18.997Z</time></trkpt><trkpt lat="40.741524017370814" lon="9.001907260089215"><ele>187.0</ele><time>2026-04-11T10:02:19.997Z</time></trkpt><trkpt lat="40.741627712966626" lon="9.00197083889606"><ele>187.0</ele><time>2026-04-11T10:02:20.997Z</time></trkpt><trkpt lat="40.74172800389525" lon="9.002033551834106"><ele>187.0</ele><time>2026-04-11T10:02:21.997Z</time></trkpt><trkpt lat="40.74182711635899" lon="9.002093950252341"><ele>187.0</ele><time>2026-04-11T10:02:22.997Z</time></trkpt><trkpt lat="40.74192976157204" lon="9.002154107915105"><ele>187.0</ele><time>2026-04-11T10:02:23.997Z</time></trkpt><trkpt lat="40.7420323493037" lon="9.002214231789502"><ele>187.0</ele><time>2026-04-11T10:02:24.997Z</time></trkpt><trkpt lat="40.74213717990862" lon="9.002276900844413"><ele>187.0</ele><time>2026-04-11T10:02:25.997Z</time></trkpt><trkpt lat="40.74224226443683" lon="9.00234162638014"><ele>187.0</ele><time>2026-04-11T10:02:26.996Z</time></trkpt><trkpt lat="40.742343039097236" lon="9.002404185101144"><ele>187.0</ele><time>2026-04-11T10:02:27.996Z</time></trkpt><trkpt lat="40.74243847987146" lon="9.002463918594124"><ele>187.0</ele><time>2026-04-11T10:02:28.996Z</time></trkpt><trkpt lat="40.74252924633575" lon="9.002520726964867"><ele>187.0</ele><time>2026-04-11T10:02:29.996Z</time></trkpt><trkpt lat="40.74262389037475" lon="9.002579320358887"><ele>187.0</ele><time>2026-04-11T10:02:30.996Z</time></trkpt><trkpt lat="40.742722705166315" lon="9.002633454047938"><ele>185.8</ele><time>2026-04-11T10:02:31.996Z</time></trkpt><trkpt lat="40.74282435097798" lon="9.002667840398987"><ele>184.6</ele><time>2026-04-11T10:02:32.996Z</time></trkpt><trkpt lat="40.74292150910688" lon="9.002676090822682"><ele>183.4</ele><time>2026-04-11T10:02:33.996Z</time></trkpt><trkpt lat="40.74300380236687" lon="9.002695901031101"><ele>182.20000000000002</ele><time>2026-04-11T10:02:34.996Z</time></trkpt><trkpt lat="40.743072786590886" lon="9.002712524702632"><ele>181.0</ele><time>2026-04-11T10:02:35.996Z</time></trkpt><trkpt lat="40.743186594339384" lon="9.0027846450709"><ele>181.0</ele><time>2026-04-11T10:02:37.996Z</time></trkpt><trkpt lat="40.74322481624967" lon="9.002861433734521"><ele>181.0</ele><time>2026-04-11T10:02:38.996Z</time></trkpt><trkpt lat="40.74327262263956" lon="9.002942903223813"><ele>181.0</ele><time>2026-04-11T10:02:39.996Z</time></trkpt><trkpt lat="40.74333266723698" lon="9.003011754706389"><ele>181.0</ele><time>2026-04-11T10:02:40.996Z</time></trkpt><trkpt lat="40.743384909515186" lon="9.003083963139716"><ele>181.0</ele><time>2026-04-11T10:02:41.996Z</time></trkpt><trkpt lat="40.743414006294394" lon="9.003163321831634"><ele>181.0</ele><time>2026-04-11T10:02:42.996Z</time></trkpt><trkpt lat="40.743475267399724" lon="9.003247609377814"><ele>181.0</ele><time>2026-04-11T10:02:44.996Z</time></trkpt><trkpt lat="40.74354476619194" lon="9.003270739082954"><ele>181.0</ele><time>2026-04-11T10:02:46.996Z</time></trkpt><trkpt lat="40.7436683416075" lon="9.00323933486756"><ele>181.0</ele><time>2026-04-11T10:02:49.996Z</time></trkpt><trkpt lat="40.743750460292034" lon="9.003224437545157"><ele>181.0</ele><time>2026-04-11T10:02:50.996Z</time></trkpt><trkpt lat="40.74384018129947" lon="9.003228133414662"><ele>181.0</ele><time>2026-04-11T10:02:51.996Z</time></trkpt><trkpt lat="40.743933972854286" lon="9.003235780741717"><ele>181.0</ele><time>2026-04-11T10:02:52.996Z</time></trkpt><trkpt lat="40.74402795221415" lon="9.003256525066417"><ele>181.0</ele><time>2026-04-11T10:02:53.996Z</time></trkpt><trkpt lat="40.7441217506353" lon="9.003286380660088"><ele>181.0</ele><time>2026-04-11T10:02:54.996Z</time></trkpt><trkpt lat="40.74421855302326" lon="9.00331352744534"><ele>181.0</ele><time>2026-04-11T10:02:55.996Z</time></trkpt><trkpt lat="40.74431368792033" lon="9.00334149533231"><ele>181.0</ele><time>2026-04-11T10:02:56.996Z</time></trkpt><trkpt lat="40.744404635435814" lon="9.003371657183049"><ele>181.66666666666669</ele><time>2026-04-11T10:02:57.996Z</time></trkpt><trkpt lat="40.74449172060358" lon="9.00340362486303"><ele>182.33333333333334</ele><time>2026-04-11T10:02:58.996Z</time></trkpt><trkpt lat="40.744579872011364" lon="9.003419948224902"><ele>183.0</ele><time>2026-04-11T10:02:59.996Z</time></trkpt><trkpt lat="40.744666682110385" lon="9.003436186437156"><ele>183.66666666666666</ele><time>2026-04-11T10:03:00.996Z</time></trkpt><trkpt lat="40.7447536821587" lon="9.003432624407079"><ele>184.33333333333331</ele><time>2026-04-11T10:03:01.996Z</time></trkpt><trkpt lat="40.74483323764835" lon="9.003436141853772"><ele>185.0</ele><time>2026-04-11T10:03:02.996Z</time></trkpt><trkpt lat="40.74491034533226" lon="9.003458485369093"><ele>185.0</ele><time>2026-04-11T10:03:03.996Z</time></trkpt><trkpt lat="40.744990571875086" lon="9.003498397435106"><ele>185.0</ele><time>2026-04-11T10:03:04.996Z</time></trkpt><trkpt lat="40.74506451295298" lon="9.003557922973899"><ele>185.0</ele><time>2026-04-11T10:03:05.996Z</time></trkpt><trkpt lat="40.74513873711428" lon="9.003633103179375"><ele>185.0</ele><time>2026-04-11T10:03:06.996Z</time></trkpt><trkpt lat="40.74521088086776" lon="9.003720641329707"><ele>185.0</ele><time>2026-04-11T10:03:07.996Z</time></trkpt><trkpt lat="40.74527565870829" lon="9.003831570222385"><ele>185.2</ele><time>2026-04-11T10:03:08.996Z</time></trkpt><trkpt lat="40.74535119883465" lon="9.003928998648474"><ele>185.4</ele><time>2026-04-11T10:03:09.996Z</time></trkpt><trkpt lat="40.74542888928907" lon="9.004024866517419"><ele>185.60000000000002</ele><time>2026-04-11T10:03:10.996Z</time></trkpt><trkpt lat="40.74550784779176" lon="9.004105676125238"><ele>185.8</ele><time>2026-04-11T10:03:11.996Z</time></trkpt><trkpt lat="40.74559140123561" lon="9.004156834379446"><ele>186.0</ele><time>2026-04-11T10:03:12.996Z</time></trkpt><trkpt lat="40.745668854554616" lon="9.004220086059043"><ele>186.0</ele><time>2026-04-11T10:03:13.996Z</time></trkpt><trkpt lat="40.74575156521133" lon="9.004272474830762"><ele>186.0</ele><time>2026-04-11T10:03:14.996Z</time></trkpt><trkpt lat="40.745836063824115" lon="9.00430805474464"><ele>186.0</ele><time>2026-04-11T10:03:15.996Z</time></trkpt><trkpt lat="40.74592459980804" lon="9.00434288222186"><ele>186.0</ele><time>2026-04-11T10:03:16.996Z</time></trkpt><trkpt lat="40.74601650146154" lon="9.004392704835276"><ele>186.0</ele><time>2026-04-11T10:03:17.996Z</time></trkpt><trkpt lat="40.74611152635782" lon="9.004454807975502"><ele>185.20000000000002</ele><time>2026-04-11T10:03:18.996Z</time></trkpt><trkpt lat="40.74620681235859" lon="9.004510281878094"><ele>184.4</ele><time>2026-04-11T10:03:19.996Z</time></trkpt><trkpt lat="40.74630341993701" lon="9.004561350226407"><ele>183.6</ele><time>2026-04-11T10:03:20.996Z</time></trkpt><trkpt lat="40.74639951919949" lon="9.00461288096784"><ele>182.8</ele><time>2026-04-11T10:03:21.996Z</time></trkpt><trkpt lat="40.746496314842894" lon="9.004658492301834"><ele>182.0</ele><time>2026-04-11T10:03:22.996Z</time></trkpt><trkpt lat="40.746596124751434" lon="9.004711545770425"><ele>182.0</ele><time>2026-04-11T10:03:23.996Z</time></trkpt><trkpt lat="40.746694230148705" lon="9.004777792929792"><ele>182.0</ele><time>2026-04-11T10:03:24.996Z</time></trkpt><trkpt lat="40.74679530330441" lon="9.00484160332238"><ele>182.0</ele><time>2026-04-11T10:03:25.996Z</time></trkpt><trkpt lat="40.746892599938306" lon="9.004910603628803"><ele>182.0</ele><time>2026-04-11T10:03:26.996Z</time></trkpt><trkpt lat="40.74699003057976" lon="9.004977114529236"><ele>182.0</ele><time>2026-04-11T10:03:27.996Z</time></trkpt><trkpt lat="40.74708469797044" lon="9.005051277117662"><ele>181.6</ele><time>2026-04-11T10:03:28.996Z</time></trkpt><trkpt lat="40.747181029526125" lon="9.005118021212715"><ele>181.2</ele><time>2026-04-11T10:03:29.996Z</time></trkpt><trkpt lat="40.74727202483098" lon="9.005189235777872"><ele>180.8</ele><time>2026-04-11T10:03:30.996Z</time></trkpt><trkpt lat="40.747353714632496" lon="9.005259363466145"><ele>180.4</ele><time>2026-04-11T10:03:31.996Z</time></trkpt><trkpt lat="40.747432434333106" lon="9.005321852781336"><ele>180.0</ele><time>2026-04-11T10:03:32.996Z</time></trkpt><trkpt lat="40.7475110647307" lon="9.005373330536994"><ele>180.0</ele><time>2026-04-11T10:03:33.996Z</time></trkpt><trkpt lat="40.74757737722864" lon="9.00544636333897"><ele>180.0</ele><time>2026-04-11T10:03:34.996Z</time></trkpt><trkpt lat="40.747647451585806" lon="9.005508439977259"><ele>180.0</ele><time>2026-04-11T10:03:35.996Z</time></trkpt><trkpt lat="40.74771930611673" lon="9.00557209226455"><ele>180.0</ele><time>2026-04-11T10:03:36.996Z</time></trkpt><trkpt lat="40.747792282487644" lon="9.005640894521889"><ele>180.0</ele><time>2026-04-11T10:03:37.996Z</time></trkpt><trkpt lat="40.747870438286505" lon="9.005729686515231"><ele>180.2</ele><time>2026-04-11T10:03:38.996Z</time></trkpt><trkpt lat="40.747961480540354" lon="9.005812453060042"><ele>180.4</ele><time>2026-04-11T10:03:39.995Z</time></trkpt><trkpt lat="40.74803936158988" lon="9.005904343177894"><ele>180.60000000000002</ele><time>2026-04-11T10:03:40.995Z</time></trkpt><trkpt lat="40.74811691511993" lon="9.005984862485173"><ele>180.8</ele><time>2026-04-11T10:03:41.995Z</time></trkpt><trkpt lat="40.74819109013499" lon="9.006047575127882"><ele>181.0</ele><time>2026-04-11T10:03:42.995Z</time></trkpt><trkpt lat="40.7482641566922" lon="9.006106862266163"><ele>180.0</ele><time>2026-04-11T10:03:43.995Z</time></trkpt><trkpt lat="40.74834777593043" lon="9.00615270189027"><ele>179.0</ele><time>2026-04-11T10:03:44.995Z</time></trkpt><trkpt lat="40.74843046379798" lon="9.006194028751803"><ele>178.0</ele><time>2026-04-11T10:03:45.995Z</time></trkpt><trkpt lat="40.74851449877635" lon="9.006224957100478"><ele>177.0</ele><time>2026-04-11T10:03:46.995Z</time></trkpt><trkpt lat="40.74858775488933" lon="9.006271026004574"><ele>176.0</ele><time>2026-04-11T10:03:47.995Z</time></trkpt><trkpt lat="40.748650610811204" lon="9.006328793173417"><ele>175.0</ele><time>2026-04-11T10:03:48.995Z</time></trkpt><trkpt lat="40.748720572880764" lon="9.006383413371454"><ele>175.0</ele><time>2026-04-11T10:03:49.995Z</time></trkpt><trkpt lat="40.74880009283022" lon="9.006434763017156"><ele>175.0</ele><time>2026-04-11T10:03:50.995Z</time></trkpt><trkpt lat="40.748886515069685" lon="9.006484663154689"><ele>175.0</ele><time>2026-04-11T10:03:51.995Z</time></trkpt><trkpt lat="40.74897463291239" lon="9.006527161335569"><ele>175.0</ele><time>2026-04-11T10:03:52.995Z</time></trkpt><trkpt lat="40.74906028689175" lon="9.006546934994617"><ele>175.0</ele><time>2026-04-11T10:03:53.995Z</time></trkpt><trkpt lat="40.74912739587021" lon="9.00658783071236"><ele>175.0</ele><time>2026-04-11T10:03:54.995Z</time></trkpt><trkpt lat="40.749236874846915" lon="9.006639306589552"><ele>175.0</ele><time>2026-04-11T10:03:56.995Z</time></trkpt><trkpt lat="40.749319542904175" lon="9.006640261582133"><ele>175.0</ele><time>2026-04-11T10:03:58.995Z</time></trkpt><trkpt lat="40.74940631387212" lon="9.006563994298686"><ele>175.0</ele><time>2026-04-11T10:04:00.995Z</time></trkpt><trkpt lat="40.74946200472217" lon="9.006519846127272"><ele>175.0</ele><time>2026-04-11T10:04:01.995Z</time></trkpt><trkpt lat="40.74951328231575" lon="9.006461728958458"><ele>175.0</ele><time>2026-04-11T10:04:02.995Z</time></trkpt><trkpt lat="40.74955483911674" lon="9.006392734610241"><ele>175.0</ele><time>2026-04-11T10:04:03.995Z</time></trkpt><trkpt lat="40.74958652287961" lon="9.006311754011985"><ele>175.0</ele><time>2026-04-11T10:04:04.995Z</time></trkpt><trkpt lat="40.74959894401221" lon="9.006214249802069"><ele>175.0</ele><time>2026-04-11T10:04:05.995Z</time></trkpt><trkpt lat="40.74961888018176" lon="9.006114070031366"><ele>175.0</ele><time>2026-04-11T10:04:06.995Z</time></trkpt><trkpt lat="40.74960396039914" lon="9.006011766149067"><ele>175.0</ele><time>2026-04-11T10:04:07.995Z</time></trkpt><trkpt lat="40.7495780973234" lon="9.00591581443134"><ele>175.0</ele><time>2026-04-11T10:04:08.995Z</time></trkpt><trkpt lat="40.74955090691961" lon="9.00582112719476"><ele>175.0</ele><time>2026-04-11T10:04:09.995Z</time></trkpt><trkpt lat="40.74953103813366" lon="9.00573280128503"><ele>175.0</ele><time>2026-04-11T10:04:10.995Z</time></trkpt><trkpt lat="40.749525609382815" lon="9.005642737137087"><ele>175.0</ele><time>2026-04-11T10:04:11.995Z</time></trkpt><trkpt lat="40.74953384023513" lon="9.005546671027519"><ele>175.0</ele><time>2026-04-11T10:04:12.995Z</time></trkpt><trkpt lat="40.74954885181551" lon="9.005439028646387"><ele>175.0</ele><time>2026-04-11T10:04:13.995Z</time></trkpt><trkpt lat="40.74954803038785" lon="9.005318487869241"><ele>175.0</ele><time>2026-04-11T10:04:14.995Z</time></trkpt><trkpt lat="40.749553773116276" lon="9.005192609601497"><ele>175.0</ele><time>2026-04-11T10:04:15.995Z</time></trkpt><trkpt lat="40.74956487563375" lon="9.005072083200576"><ele>175.33333333333334</ele><time>2026-04-11T10:04:16.995Z</time></trkpt><trkpt lat="40.7495720213217" lon="9.004963792692587"><ele>175.66666666666669</ele><time>2026-04-11T10:04:17.995Z</time></trkpt><trkpt lat="40.749595502866605" lon="9.004882569263128"><ele>176.0</ele><time>2026-04-11T10:04:18.995Z</time></trkpt><trkpt lat="40.74960528031865" lon="9.00477802809843"><ele>176.33333333333334</ele><time>2026-04-11T10:04:20.995Z</time></trkpt><trkpt lat="40.74961338149127" lon="9.004691409549325"><ele>176.66666666666666</ele><time>2026-04-11T10:04:27.995Z</time></trkpt><trkpt lat="40.74964149399247" lon="9.004594712732244"><ele>177.0</ele><time>2026-04-11T10:04:51.994Z</time></trkpt><trkpt lat="40.74965999933895" lon="9.004443782353812"><ele>177.0</ele><time>2026-04-11T10:04:53.994Z</time></trkpt><trkpt lat="40.74967976262594" lon="9.00430404937676"><ele>177.0</ele><time>2026-04-11T10:04:55.994Z</time></trkpt><trkpt lat="40.74967889737119" lon="9.00418149839472"><ele>177.0</ele><time>2026-04-11T10:04:57.995Z</time></trkpt><trkpt lat="40.749688508658394" lon="9.004086765890387"><ele>177.0</ele><time>2026-04-11T10:05:01.001Z</time></trkpt><trkpt lat="40.74983705096632" lon="9.004125568700859"><ele>177.0</ele><time>2026-04-11T10:05:07.001Z</time></trkpt><trkpt lat="40.74992679874685" lon="9.004222887332768"><ele>177.0</ele><time>2026-04-11T10:05:08.001Z</time></trkpt><trkpt lat="40.75001998885892" lon="9.004323961714093"><ele>177.0</ele><time>2026-04-11T10:05:09.001Z</time></trkpt><trkpt lat="40.75012194754034" lon="9.00442197535286"><ele>177.0</ele><time>2026-04-11T10:05:10.001Z</time></trkpt><trkpt lat="40.75022908844649" lon="9.004519625611046"><ele>177.0</ele><time>2026-04-11T10:05:11.001Z</time></trkpt><trkpt lat="40.75033828818274" lon="9.004635656229647"><ele>177.66666666666666</ele><time>2026-04-11T10:05:12.001Z</time></trkpt><trkpt lat="40.750463522671296" lon="9.004766299262245"><ele>178.33333333333331</ele><time>2026-04-11T10:05:13.001Z</time></trkpt><trkpt lat="40.750605091183445" lon="9.004920331957711"><ele>179.0</ele><time>2026-04-11T10:05:14.001Z</time></trkpt><trkpt lat="40.75076249226443" lon="9.005092868316247"><ele>179.0</ele><time>2026-04-11T10:05:15.001Z</time></trkpt><trkpt lat="40.750920792567015" lon="9.005328839082036"><ele>179.0</ele><time>2026-04-11T10:05:16.001Z</time></trkpt><trkpt lat="40.75114612522477" lon="9.005551374418902"><ele>181.5</ele><time>2026-04-11T10:05:17.001Z</time></trkpt><trkpt lat="40.75141283446501" lon="9.00583721408431"><ele>184.0</ele><time>2026-04-11T10:05:18.001Z</time></trkpt><trkpt lat="40.75162977239407" lon="9.006074524048374"><ele>184.0</ele><time>2026-04-11T10:05:19.001Z</time></trkpt><trkpt lat="40.75184113328339" lon="9.00630175746199"><ele>184.0</ele><time>2026-04-11T10:05:20.001Z</time></trkpt><trkpt lat="40.752046672472154" lon="9.006502284011152"><ele>185.5</ele><time>2026-04-11T10:05:21.001Z</time></trkpt><trkpt lat="40.75223230979111" lon="9.006701661071252"><ele>187.0</ele><time>2026-04-11T10:05:22.001Z</time></trkpt><trkpt lat="40.75241382376968" lon="9.006900214920085"><ele>187.0</ele><time>2026-04-11T10:05:23.001Z</time></trkpt><trkpt lat="40.75258509453992" lon="9.007086028610011"><ele>187.0</ele><time>2026-04-11T10:05:24.001Z</time></trkpt><trkpt lat="40.75277025701388" lon="9.007259002361243"><ele>187.0</ele><time>2026-04-11T10:05:25.001Z</time></trkpt><trkpt lat="40.75292177696372" lon="9.007435082619098"><ele>188.0</ele><time>2026-04-11T10:05:26.001Z</time></trkpt><trkpt lat="40.753067035131295" lon="9.00760754893794"><ele>189.0</ele><time>2026-04-11T10:05:27.001Z</time></trkpt><trkpt lat="40.753223317922135" lon="9.00777655682398"><ele>190.0</ele><time>2026-04-11T10:05:28.001Z</time></trkpt><trkpt lat="40.75336616047756" lon="9.007933315271915"><ele>190.0</ele><time>2026-04-11T10:05:29Z</time></trkpt><trkpt lat="40.75352421439461" lon="9.008105535026045"><ele>190.0</ele><time>2026-04-11T10:05:30Z</time></trkpt><trkpt lat="40.753688628367605" lon="9.00828332444922"><ele>190.0</ele><time>2026-04-11T10:05:31Z</time></trkpt><trkpt lat="40.75384661375919" lon="9.008454162316577"><ele>190.33333333333334</ele><time>2026-04-11T10:05:32Z</time></trkpt><trkpt lat="40.75400481230555" lon="9.008625564073169"><ele>190.66666666666666</ele><time>2026-04-11T10:05:33Z</time></trkpt><trkpt lat="40.75416604765714" lon="9.008800590666135"><ele>191.0</ele><time>2026-04-11T10:05:34Z</time></trkpt><trkpt lat="40.754323888371104" lon="9.008976035559119"><ele>191.66666666666666</ele><time>2026-04-11T10:05:35Z</time></trkpt><trkpt lat="40.75448279911377" lon="9.009146319326701"><ele>192.33333333333331</ele><time>2026-04-11T10:05:36Z</time></trkpt><trkpt lat="40.7546314897121" lon="9.00930602288391"><ele>193.0</ele><time>2026-04-11T10:05:37Z</time></trkpt><trkpt lat="40.754789002014974" lon="9.009478841085576"><ele>193.0</ele><time>2026-04-11T10:05:38Z</time></trkpt><trkpt lat="40.75493464309708" lon="9.009638634510617"><ele>193.0</ele><time>2026-04-11T10:05:39Z</time></trkpt><trkpt lat="40.755086146870255" lon="9.00980486031149"><ele>193.0</ele><time>2026-04-11T10:05:40Z</time></trkpt><trkpt lat="40.75523119574688" lon="9.009964003986227"><ele>193.66666666666666</ele><time>2026-04-11T10:05:41Z</time></trkpt><trkpt lat="40.75539785045963" lon="9.010146852948637"><ele>194.33333333333331</ele><time>2026-04-11T10:05:42Z</time></trkpt><trkpt lat="40.75555077400244" lon="9.010312510395469"><ele>195.0</ele><time>2026-04-11T10:05:43Z</time></trkpt><trkpt lat="40.75568887668113" lon="9.01046220310098"><ele>195.0</ele><time>2026-04-11T10:05:44Z</time></trkpt><trkpt lat="40.75583906650618" lon="9.010614524964906"><ele>195.0</ele><time>2026-04-11T10:05:45Z</time></trkpt><trkpt lat="40.75598176063705" lon="9.010735391435967"><ele>195.0</ele><time>2026-04-11T10:05:46Z</time></trkpt><trkpt lat="40.7561559341543" lon="9.010840317744192"><ele>193.66666666666666</ele><time>2026-04-11T10:05:47Z</time></trkpt><trkpt lat="40.75628952660292" lon="9.010893209560095"><ele>192.33333333333331</ele><time>2026-04-11T10:05:48Z</time></trkpt><trkpt lat="40.756447649262675" lon="9.010926882980886"><ele>191.0</ele><time>2026-04-11T10:05:49Z</time></trkpt><trkpt lat="40.75661552980171" lon="9.010967888881217"><ele>191.0</ele><time>2026-04-11T10:05:50Z</time></trkpt><trkpt lat="40.75676647305483" lon="9.010962457495824"><ele>191.0</ele><time>2026-04-11T10:05:51Z</time></trkpt><trkpt lat="40.75691551901095" lon="9.01094782372589"><ele>191.0</ele><time>2026-04-11T10:05:52Z</time></trkpt><trkpt lat="40.75705036041647" lon="9.010979688598262"><ele>191.0</ele><time>2026-04-11T10:05:53Z</time></trkpt><trkpt lat="40.75720162600135" lon="9.010985357752643"><ele>190.66666666666666</ele><time>2026-04-11T10:05:54Z</time></trkpt><trkpt lat="40.75736724095196" lon="9.010988369057017"><ele>190.33333333333334</ele><time>2026-04-11T10:05:55Z</time></trkpt><trkpt lat="40.757531164233534" lon="9.011015900397515"><ele>190.0</ele><time>2026-04-11T10:05:56Z</time></trkpt><trkpt lat="40.75768686147693" lon="9.011028257932141"><ele>190.66666666666669</ele><time>2026-04-11T10:05:57Z</time></trkpt><trkpt lat="40.757848131804565" lon="9.01104105778041"><ele>191.33333333333334</ele><time>2026-04-11T10:05:58Z</time></trkpt><trkpt lat="40.75800630840794" lon="9.011052942172336"><ele>192.0</ele><time>2026-04-11T10:05:59Z</time></trkpt><trkpt lat="40.75815629308449" lon="9.011064004028944"><ele>192.0</ele><time>2026-04-11T10:06:00Z</time></trkpt><trkpt lat="40.75829200771686" lon="9.011074013399492"><ele>192.0</ele><time>2026-04-11T10:06:01Z</time></trkpt><trkpt lat="40.75841613250607" lon="9.01108316798169"><ele>192.0</ele><time>2026-04-11T10:06:02Z</time></trkpt><trkpt lat="40.758542136246255" lon="9.011092725324975"><ele>192.0</ele><time>2026-04-11T10:06:03Z</time></trkpt><trkpt lat="40.758682061410944" lon="9.01110338271164"><ele>192.0</ele><time>2026-04-11T10:06:04Z</time></trkpt><trkpt lat="40.75881102771311" lon="9.011113205428519"><ele>192.0</ele><time>2026-04-11T10:06:05Z</time></trkpt><trkpt lat="40.7589343915027" lon="9.011110016884269"><ele>192.0</ele><time>2026-04-11T10:06:06Z</time></trkpt><trkpt lat="40.75905040609405" lon="9.011129592516733"><ele>192.0</ele><time>2026-04-11T10:06:07Z</time></trkpt><trkpt lat="40.759186819986674" lon="9.01112647844078"><ele>192.0</ele><time>2026-04-11T10:06:08Z</time></trkpt><trkpt lat="40.75932322953697" lon="9.011151188257989"><ele>192.0</ele><time>2026-04-11T10:06:09Z</time></trkpt><trkpt lat="40.75946068838293" lon="9.011142659525106"><ele>192.0</ele><time>2026-04-11T10:06:10Z</time></trkpt><trkpt lat="40.759571837134935" lon="9.011168426326359"><ele>192.0</ele><time>2026-04-11T10:06:11Z</time></trkpt><trkpt lat="40.75966810336416" lon="9.011175101263738"><ele>193.8</ele><time>2026-04-11T10:06:12Z</time></trkpt><trkpt lat="40.759738185167" lon="9.011176356407772"><ele>195.6</ele><time>2026-04-11T10:06:13Z</time></trkpt><trkpt lat="40.759830531361835" lon="9.011176022875786"><ele>197.4</ele><time>2026-04-11T10:06:15Z</time></trkpt><trkpt lat="40.759927027788876" lon="9.011166031580172"><ele>199.20000000000002</ele><time>2026-04-11T10:06:25.999Z</time></trkpt><trkpt lat="40.76007927614645" lon="9.011162614239177"><ele>201.0</ele><time>2026-04-11T10:06:27.999Z</time></trkpt><trkpt lat="40.7601994979572" lon="9.011137817732289"><ele>200.0</ele><time>2026-04-11T10:06:28.999Z</time></trkpt><trkpt lat="40.76030230881367" lon="9.011134001159501"><ele>199.0</ele><time>2026-04-11T10:06:29.999Z</time></trkpt><trkpt lat="40.76040681098936" lon="9.011125814529995"><ele>198.0</ele><time>2026-04-11T10:06:30.999Z</time></trkpt><trkpt lat="40.76051474647522" lon="9.01112767603842"><ele>197.0</ele><time>2026-04-11T10:06:31.999Z</time></trkpt><trkpt lat="40.76062288680775" lon="9.011078598132183"><ele>196.0</ele><time>2026-04-11T10:06:32.999Z</time></trkpt><trkpt lat="40.760731525273144" lon="9.01103965273264"><ele>196.0</ele><time>2026-04-11T10:06:33.999Z</time></trkpt><trkpt lat="40.76084783938291" lon="9.010959334674899"><ele>196.0</ele><time>2026-04-11T10:06:34.999Z</time></trkpt><trkpt lat="40.76096847152942" lon="9.01084175950173"><ele>196.0</ele><time>2026-04-11T10:06:35.999Z</time></trkpt><trkpt lat="40.76108116088725" lon="9.010703616010472"><ele>196.0</ele><time>2026-04-11T10:06:36.999Z</time></trkpt><trkpt lat="40.76119877904125" lon="9.010559270924693"><ele>196.0</ele><time>2026-04-11T10:06:37.999Z</time></trkpt><trkpt lat="40.76134074812624" lon="9.01037448126966"><ele>196.0</ele><time>2026-04-11T10:06:38.999Z</time></trkpt><trkpt lat="40.76147842694253" lon="9.01018340303011"><ele>196.0</ele><time>2026-04-11T10:06:39.999Z</time></trkpt><trkpt lat="40.761620789856586" lon="9.009962056980896"><ele>194.33333333333331</ele><time>2026-04-11T10:06:40.999Z</time></trkpt><trkpt lat="40.761739339607175" lon="9.00974917149288"><ele>192.66666666666666</ele><time>2026-04-11T10:06:41.999Z</time></trkpt><trkpt lat="40.76184117713382" lon="9.009547286664539"><ele>191.0</ele><time>2026-04-11T10:06:42.999Z</time></trkpt><trkpt lat="40.76191322344357" lon="9.009380805620559"><ele>191.0</ele><time>2026-04-11T10:06:43.999Z</time></trkpt><trkpt lat="40.76195183281468" lon="9.009230484427345"><ele>191.0</ele><time>2026-04-11T10:06:44.999Z</time></trkpt><trkpt lat="40.76196401332944" lon="9.009095654354853"><ele>191.0</ele><time>2026-04-11T10:06:45.999Z</time></trkpt><trkpt lat="40.76197134829085" lon="9.00896794266494"><ele>191.0</ele><time>2026-04-11T10:06:46.999Z</time></trkpt><trkpt lat="40.76196180785962" lon="9.008822468516584"><ele>191.0</ele><time>2026-04-11T10:06:47.999Z</time></trkpt><trkpt lat="40.761951735671445" lon="9.00862601338973"><ele>194.20000000000002</ele><time>2026-04-11T10:06:48.999Z</time></trkpt><trkpt lat="40.76197975662095" lon="9.008479648418886"><ele>197.4</ele><time>2026-04-11T10:06:49.999Z</time></trkpt><trkpt lat="40.76199239060238" lon="9.008357644895227"><ele>200.6</ele><time>2026-04-11T10:06:50.999Z</time></trkpt><trkpt lat="40.762044549503116" lon="9.008246500185452"><ele>203.8</ele><time>2026-04-11T10:06:51.999Z</time></trkpt><trkpt lat="40.762135089452464" lon="9.008148892885693"><ele>207.0</ele><time>2026-04-11T10:06:52.999Z</time></trkpt><trkpt lat="40.762233996370774" lon="9.008087939101555"><ele>211.0</ele><time>2026-04-11T10:06:53.999Z</time></trkpt><trkpt lat="40.762325230924816" lon="9.008066937871927"><ele>215.0</ele><time>2026-04-11T10:06:54.999Z</time></trkpt><trkpt lat="40.762424080546026" lon="9.008073218061428"><ele>219.0</ele><time>2026-04-11T10:06:55.999Z</time></trkpt><trkpt lat="40.76252282615668" lon="9.008112938742169"><ele>223.0</ele><time>2026-04-11T10:06:56.999Z</time></trkpt><trkpt lat="40.762646300233364" lon="9.00819479276809"><ele>227.0</ele><time>2026-04-11T10:06:57.999Z</time></trkpt><trkpt lat="40.762769024021495" lon="9.008284019606588"><ele>222.25</ele><time>2026-04-11T10:06:58.999Z</time></trkpt><trkpt lat="40.76289973294215" lon="9.008374391548447"><ele>217.5</ele><time>2026-04-11T10:06:59.999Z</time></trkpt><trkpt lat="40.76302410397777" lon="9.008447086263565"><ele>212.75</ele><time>2026-04-11T10:07:00.999Z</time></trkpt><trkpt lat="40.763147873803995" lon="9.008496054132994"><ele>208.0</ele><time>2026-04-11T10:07:01.999Z</time></trkpt><trkpt lat="40.76326445592984" lon="9.008514687974625"><ele>208.0</ele><time>2026-04-11T10:07:02.999Z</time></trkpt><trkpt lat="40.763369650842094" lon="9.008473288048211"><ele>208.0</ele><time>2026-04-11T10:07:03.999Z</time></trkpt><trkpt lat="40.76347020470413" lon="9.008410330477885"><ele>208.0</ele><time>2026-04-11T10:07:04.999Z</time></trkpt><trkpt lat="40.76355092656292" lon="9.008329684737888"><ele>208.0</ele><time>2026-04-11T10:07:05.999Z</time></trkpt><trkpt lat="40.76360713140918" lon="9.008223517400188"><ele>208.0</ele><time>2026-04-11T10:07:06.999Z</time></trkpt><trkpt lat="40.76366714974671" lon="9.008050591867622"><ele>208.66666666666666</ele><time>2026-04-11T10:07:07.999Z</time></trkpt><trkpt lat="40.76372150484909" lon="9.007842914825389"><ele>209.33333333333331</ele><time>2026-04-11T10:07:08.999Z</time></trkpt><trkpt lat="40.76376763832917" lon="9.007648308070635"><ele>210.0</ele><time>2026-04-11T10:07:09.999Z</time></trkpt><trkpt lat="40.763829862632946" lon="9.007430767080466"><ele>214.5</ele><time>2026-04-11T10:07:10.999Z</time></trkpt><trkpt lat="40.76385997253019" lon="9.007242235324345"><ele>219.0</ele><time>2026-04-11T10:07:11.999Z</time></trkpt><trkpt lat="40.763930438672055" lon="9.00712373573958"><ele>223.5</ele><time>2026-04-11T10:07:12.999Z</time></trkpt><trkpt lat="40.764010178925304" lon="9.007040155973588"><ele>228.0</ele><time>2026-04-11T10:07:13.999Z</time></trkpt><trkpt lat="40.76410285008469" lon="9.00702553974132"><ele>228.0</ele><time>2026-04-11T10:07:14.999Z</time></trkpt><trkpt lat="40.76420299787491" lon="9.00702525772529"><ele>228.0</ele><time>2026-04-11T10:07:15.999Z</time></trkpt><trkpt lat="40.76434158736812" lon="9.007040948169065"><ele>228.0</ele><time>2026-04-11T10:07:16.999Z</time></trkpt><trkpt lat="40.76448113797463" lon="9.00706737676581"><ele>228.0</ele><time>2026-04-11T10:07:17.999Z</time></trkpt><trkpt lat="40.764626436094716" lon="9.007095352993732"><ele>226.66666666666669</ele><time>2026-04-11T10:07:18.999Z</time></trkpt><trkpt lat="40.764795534414795" lon="9.007116482154302"><ele>225.33333333333334</ele><time>2026-04-11T10:07:19.999Z</time></trkpt><trkpt lat="40.76494537220138" lon="9.00711174097502"><ele>224.0</ele><time>2026-04-11T10:07:20.999Z</time></trkpt><trkpt lat="40.7650761097666" lon="9.007105908725382"><ele>217.66666666666669</ele><time>2026-04-11T10:07:21.999Z</time></trkpt><trkpt lat="40.76520273024174" lon="9.00703257819093"><ele>211.33333333333331</ele><time>2026-04-11T10:07:22.999Z</time></trkpt><trkpt lat="40.76532976533977" lon="9.006926932247662"><ele>205.0</ele><time>2026-04-11T10:07:23.999Z</time></trkpt><trkpt lat="40.76545786519837" lon="9.006794988679482"><ele>205.0</ele><time>2026-04-11T10:07:24.999Z</time></trkpt><trkpt lat="40.76557694055721" lon="9.006661210449218"><ele>205.0</ele><time>2026-04-11T10:07:25.999Z</time></trkpt><trkpt lat="40.765678200551434" lon="9.00654109024634"><ele>205.0</ele><time>2026-04-11T10:07:26.999Z</time></trkpt><trkpt lat="40.7657836193072" lon="9.006430777694089"><ele>205.0</ele><time>2026-04-11T10:07:27.998Z</time></trkpt><trkpt lat="40.765900678061136" lon="9.006331338880006"><ele>207.25</ele><time>2026-04-11T10:07:28.998Z</time></trkpt><trkpt lat="40.7660129678802" lon="9.006311736418986"><ele>209.5</ele><time>2026-04-11T10:07:29.998Z</time></trkpt><trkpt lat="40.76612212910026" lon="9.006296150686513"><ele>211.75</ele><time>2026-04-11T10:07:30.998Z</time></trkpt><trkpt lat="40.76624419655261" lon="9.006291236803834"><ele>214.0</ele><time>2026-04-11T10:07:31.998Z</time></trkpt><trkpt lat="40.76638305146461" lon="9.006285974268872"><ele>214.0</ele><time>2026-04-11T10:07:32.998Z</time></trkpt><trkpt lat="40.766526611318895" lon="9.006279339959567"><ele>214.0</ele><time>2026-04-11T10:07:33.998Z</time></trkpt><trkpt lat="40.76665572787385" lon="9.006244450292476"><ele>214.0</ele><time>2026-04-11T10:07:34.998Z</time></trkpt><trkpt lat="40.76677387443124" lon="9.006219326428587"><ele>214.0</ele><time>2026-04-11T10:07:35.998Z</time></trkpt><trkpt lat="40.766886904111956" lon="9.006177462118421"><ele>210.2</ele><time>2026-04-11T10:07:36.998Z</time></trkpt><trkpt lat="40.76698758116185" lon="9.006139123465223"><ele>206.39999999999998</ele><time>2026-04-11T10:07:37.998Z</time></trkpt><trkpt lat="40.76704524713948" lon="9.006029619444346"><ele>202.6</ele><time>2026-04-11T10:07:38.998Z</time></trkpt><trkpt lat="40.767094156317796" lon="9.00591444240268"><ele>198.8</ele><time>2026-04-11T10:07:39.998Z</time></trkpt><trkpt lat="40.76714215536962" lon="9.005758949904148"><ele>195.0</ele><time>2026-04-11T10:07:40.998Z</time></trkpt><trkpt lat="40.76719338275494" lon="9.005584932633935"><ele>195.0</ele><time>2026-04-11T10:07:41.998Z</time></trkpt><trkpt lat="40.76724667264935" lon="9.005396993492475"><ele>195.0</ele><time>2026-04-11T10:07:42.998Z</time></trkpt><trkpt lat="40.76729791339902" lon="9.005219608456114"><ele>195.0</ele><time>2026-04-11T10:07:43.998Z</time></trkpt><trkpt lat="40.767349745537295" lon="9.005041671492675"><ele>195.0</ele><time>2026-04-11T10:07:44.998Z</time></trkpt><trkpt lat="40.76741545324978" lon="9.004881922083849"><ele>198.0</ele><time>2026-04-11T10:07:45.998Z</time></trkpt><trkpt lat="40.767459861249726" lon="9.00471514175953"><ele>201.0</ele><time>2026-04-11T10:07:46.998Z</time></trkpt><trkpt lat="40.767534150138815" lon="9.004567062338356"><ele>204.0</ele><time>2026-04-11T10:07:47.998Z</time></trkpt><trkpt lat="40.76760104685188" lon="9.004433792724873"><ele>207.0</ele><time>2026-04-11T10:07:48.998Z</time></trkpt><trkpt lat="40.76767703445564" lon="9.004295946206417"><ele>208.0</ele><time>2026-04-11T10:07:49.998Z</time></trkpt><trkpt lat="40.76776268844848" lon="9.00418542905821"><ele>209.0</ele><time>2026-04-11T10:07:50.998Z</time></trkpt><trkpt lat="40.76785153558485" lon="9.004092441772972"><ele>210.0</ele><time>2026-04-11T10:07:51.998Z</time></trkpt><trkpt lat="40.767968710132536" lon="9.004018578582084"><ele>211.0</ele><time>2026-04-11T10:07:52.998Z</time></trkpt><trkpt lat="40.768100600620194" lon="9.004012647743076"><ele>211.0</ele><time>2026-04-11T10:07:54.998Z</time></trkpt><trkpt lat="40.76818255657579" lon="9.004026157531758"><ele>211.0</ele><time>2026-04-11T10:07:55.998Z</time></trkpt><trkpt lat="40.7682700155814" lon="9.004062081730625"><ele>211.0</ele><time>2026-04-11T10:07:56.998Z</time></trkpt><trkpt lat="40.76835494468341" lon="9.00413098847631"><ele>211.0</ele><time>2026-04-11T10:07:57.998Z</time></trkpt><trkpt lat="40.768459813023135" lon="9.004223718973728"><ele>211.0</ele><time>2026-04-11T10:07:58.998Z</time></trkpt><trkpt lat="40.76857334382895" lon="9.004308553712223"><ele>204.75</ele><time>2026-04-11T10:07:59.998Z</time></trkpt><trkpt lat="40.76867149602234" lon="9.004361465284829"><ele>198.5</ele><time>2026-04-11T10:08:00.998Z</time></trkpt><trkpt lat="40.768782870311824" lon="9.004395794302809"><ele>192.25</ele><time>2026-04-11T10:08:01.998Z</time></trkpt><trkpt lat="40.76891050012084" lon="9.004425282447745"><ele>186.0</ele><time>2026-04-11T10:08:02.998Z</time></trkpt><trkpt lat="40.76903960414887" lon="9.00443411258676"><ele>186.0</ele><time>2026-04-11T10:08:03.998Z</time></trkpt><trkpt lat="40.76915862117851" lon="9.004421826971779"><ele>186.0</ele><time>2026-04-11T10:08:04.998Z</time></trkpt><trkpt lat="40.76928396877487" lon="9.004370770879024"><ele>186.0</ele><time>2026-04-11T10:08:05.998Z</time></trkpt><trkpt lat="40.76940675936064" lon="9.00429800889467"><ele>186.0</ele><time>2026-04-11T10:08:06.998Z</time></trkpt><trkpt lat="40.76952565544948" lon="9.004176385279106"><ele>189.20000000000002</ele><time>2026-04-11T10:08:07.998Z</time></trkpt><trkpt lat="40.76962573793337" lon="9.004092785291151"><ele>192.4</ele><time>2026-04-11T10:08:08.998Z</time></trkpt><trkpt lat="40.769726907054086" lon="9.004035705676111"><ele>195.6</ele><time>2026-04-11T10:08:09.998Z</time></trkpt><trkpt lat="40.76980880141207" lon="9.003961194732408"><ele>198.8</ele><time>2026-04-11T10:08:10.998Z</time></trkpt><trkpt lat="40.76987175221353" lon="9.003937831343595"><ele>202.0</ele><time>2026-04-11T10:08:11.998Z</time></trkpt><trkpt lat="40.769971656283204" lon="9.003959786279776"><ele>201.99999999999997</ele><time>2026-04-11T10:08:14.998Z</time></trkpt><trkpt lat="40.77000995507003" lon="9.004065543959827"><ele>202.0</ele><time>2026-04-11T10:08:15.998Z</time></trkpt><trkpt lat="40.77005571983851" lon="9.004135712006034"><ele>202.0</ele><time>2026-04-11T10:08:16.998Z</time></trkpt><trkpt lat="40.77008547671264" lon="9.004210536669007"><ele>202.0</ele><time>2026-04-11T10:08:17.998Z</time></trkpt><trkpt lat="40.7701307514472" lon="9.004270790199982"><ele>201.99999999999997</ele><time>2026-04-11T10:08:18.998Z</time></trkpt><trkpt lat="40.77025413602191" lon="9.004303588638006"><ele>202.0</ele><time>2026-04-11T10:08:19.998Z</time></trkpt><trkpt lat="40.770257844728434" lon="9.004426488305638"><ele>200.0</ele><time>2026-04-11T10:08:20.998Z</time></trkpt><trkpt lat="40.7702456413504" lon="9.004517777727898"><ele>198.0</ele><time>2026-04-11T10:08:21.998Z</time></trkpt><trkpt lat="40.7702255747445" lon="9.004637316367853"><ele>196.0</ele><time>2026-04-11T10:08:22.998Z</time></trkpt><trkpt lat="40.769967339502486" lon="9.004553521816787"><ele>194.0</ele><time>2026-04-11T10:08:23.998Z</time></trkpt><trkpt lat="40.76989901743617" lon="9.004614362064508"><ele>194.0</ele><time>2026-04-11T10:08:24.998Z</time></trkpt><trkpt lat="40.76982031122945" lon="9.00467401764864"><ele>194.0</ele><time>2026-04-11T10:08:25.998Z</time></trkpt><trkpt lat="40.76973138221922" lon="9.004733255529079"><ele>194.0</ele><time>2026-04-11T10:08:26.998Z</time></trkpt><trkpt lat="40.76964509462657" lon="9.00479041855895"><ele>194.0</ele><time>2026-04-11T10:08:27.998Z</time></trkpt><trkpt lat="40.76955091703167" lon="9.004852808531663"><ele>194.0</ele><time>2026-04-11T10:08:28.998Z</time></trkpt><trkpt lat="40.76946042652232" lon="9.00491275592685"><ele>192.0</ele><time>2026-04-11T10:08:29.998Z</time></trkpt><trkpt lat="40.7693588494129" lon="9.004975379836866"><ele>190.0</ele><time>2026-04-11T10:08:30.998Z</time></trkpt><trkpt lat="40.76922906777169" lon="9.005042824215217"><ele>188.0</ele><time>2026-04-11T10:08:31.998Z</time></trkpt><trkpt lat="40.769107977585165" lon="9.00511616880743"><ele>186.0</ele><time>2026-04-11T10:08:32.997Z</time></trkpt><trkpt lat="40.76899282281389" lon="9.005169760027734"><ele>185.0</ele><time>2026-04-11T10:08:33.997Z</time></trkpt><trkpt lat="40.76890193454841" lon="9.005221720958616"><ele>184.0</ele><time>2026-04-11T10:08:34.997Z</time></trkpt><trkpt lat="40.76881948478935" lon="9.005282897548689"><ele>183.0</ele><time>2026-04-11T10:08:35.997Z</time></trkpt><trkpt lat="40.768722666167186" lon="9.005363853357851"><ele>182.0</ele><time>2026-04-11T10:08:36.997Z</time></trkpt><trkpt lat="40.768646743918765" lon="9.005428982852765"><ele>181.0</ele><time>2026-04-11T10:08:37.997Z</time></trkpt><trkpt lat="40.768592851692624" lon="9.005485018450688"><ele>181.0</ele><time>2026-04-11T10:08:38.997Z</time></trkpt><trkpt lat="40.76853746997736" lon="9.005567164007184"><ele>181.0</ele><time>2026-04-11T10:08:39.997Z</time></trkpt><trkpt lat="40.7685105987515" lon="9.00564372018229"><ele>181.0</ele><time>2026-04-11T10:08:40.997Z</time></trkpt><trkpt lat="40.76849112167161" lon="9.00574651068257"><ele>181.0</ele><time>2026-04-11T10:08:41.997Z</time></trkpt><trkpt lat="40.768485768909805" lon="9.005868625509422"><ele>181.0</ele><time>2026-04-11T10:08:42.997Z</time></trkpt><trkpt lat="40.76849393119481" lon="9.005989747845188"><ele>181.0</ele><time>2026-04-11T10:08:43.997Z</time></trkpt><trkpt lat="40.76851249772539" lon="9.006108515283376"><ele>182.5</ele><time>2026-04-11T10:08:44.997Z</time></trkpt><trkpt lat="40.76854320808315" lon="9.006226922306759"><ele>184.0</ele><time>2026-04-11T10:08:45.997Z</time></trkpt><trkpt lat="40.76857685850601" lon="9.00632017383987"><ele>185.5</ele><time>2026-04-11T10:08:46.997Z</time></trkpt><trkpt lat="40.76861026883122" lon="9.006395071887612"><ele>187.0</ele><time>2026-04-11T10:08:47.997Z</time></trkpt><trkpt lat="40.76866854374793" lon="9.006491598044178"><ele>188.5</ele><time>2026-04-11T10:08:49.997Z</time></trkpt><trkpt lat="40.768745484530314" lon="9.006577947438691"><ele>190.0</ele><time>2026-04-11T10:08:51.997Z</time></trkpt><trkpt lat="40.768818618313226" lon="9.006647442211023"><ele>190.0</ele><time>2026-04-11T10:08:53.997Z</time></trkpt><trkpt lat="40.76887109147157" lon="9.006704129310435"><ele>190.0</ele><time>2026-04-11T10:08:55.997Z</time></trkpt><trkpt lat="40.768842666310796" lon="9.006870213151492"><ele>190.0</ele><time>2026-04-11T10:09:23.997Z</time></trkpt><trkpt lat="40.768839626687885" lon="9.00698927430276"><ele>190.0</ele><time>2026-04-11T10:09:24.997Z</time></trkpt><trkpt lat="40.768860138009096" lon="9.007104950162354"><ele>190.0</ele><time>2026-04-11T10:09:25.997Z</time></trkpt><trkpt lat="40.768899692653925" lon="9.007201520723887"><ele>190.0</ele><time>2026-04-11T10:09:26.997Z</time></trkpt><trkpt lat="40.768918732547476" lon="9.007296670817873"><ele>190.0</ele><time>2026-04-11T10:09:27.997Z</time></trkpt><trkpt lat="40.76894091537264" lon="9.007392440125479"><ele>190.0</ele><time>2026-04-11T10:09:28.997Z</time></trkpt><trkpt lat="40.768962595034495" lon="9.007482207296302"><ele>190.0</ele><time>2026-04-11T10:09:29.997Z</time></trkpt><trkpt lat="40.768979695918006" lon="9.007581471247459"><ele>190.0</ele><time>2026-04-11T10:09:30.997Z</time></trkpt><trkpt lat="40.768991293390336" lon="9.007681833964911"><ele>190.0</ele><time>2026-04-11T10:09:31.997Z</time></trkpt><trkpt lat="40.768995836908275" lon="9.007790284598176"><ele>190.0</ele><time>2026-04-11T10:09:32.997Z</time></trkpt><trkpt lat="40.769029778808445" lon="9.007902161303319"><ele>190.0</ele><time>2026-04-11T10:09:33.997Z</time></trkpt><trkpt lat="40.769014031970876" lon="9.00800667374098"><ele>190.0</ele><time>2026-04-11T10:09:34.997Z</time></trkpt><trkpt lat="40.76899874215285" lon="9.008095689655772"><ele>190.0</ele><time>2026-04-11T10:09:35.997Z</time></trkpt><trkpt lat="40.76898164888478" lon="9.008178527039876"><ele>190.0</ele><time>2026-04-11T10:09:36.997Z</time></trkpt><trkpt lat="40.76895924543655" lon="9.008264405581908"><ele>190.0</ele><time>2026-04-11T10:09:37.996Z</time></trkpt><trkpt lat="40.76892878564323" lon="9.008348058269721"><ele>190.0</ele><time>2026-04-11T10:09:38.996Z</time></trkpt><trkpt lat="40.768845234439546" lon="9.008475240823147"><ele>190.0</ele><time>2026-04-11T10:09:40.996Z</time></trkpt><trkpt lat="40.76879042615015" lon="9.008539884223543"><ele>190.0</ele><time>2026-04-11T10:09:41.996Z</time></trkpt><trkpt lat="40.7687307084632" lon="9.008608393798145"><ele>190.0</ele><time>2026-04-11T10:09:42.996Z</time></trkpt><trkpt lat="40.76867091273361" lon="9.008670785695307"><ele>190.0</ele><time>2026-04-11T10:09:43.996Z</time></trkpt><trkpt lat="40.76860341552421" lon="9.008736917885447"><ele>190.0</ele><time>2026-04-11T10:09:44.996Z</time></trkpt><trkpt lat="40.76853998531899" lon="9.008818542353167"><ele>190.0</ele><time>2026-04-11T10:09:45.996Z</time></trkpt><trkpt lat="40.768489573143924" lon="9.00889754340407"><ele>186.66666666666669</ele><time>2026-04-11T10:09:46.996Z</time></trkpt><trkpt lat="40.76844714394695" lon="9.008980671129539"><ele>183.33333333333334</ele><time>2026-04-11T10:09:47.996Z</time></trkpt><trkpt lat="40.76841209348891" lon="9.009066037948736"><ele>180.0</ele><time>2026-04-11T10:09:48.996Z</time></trkpt><trkpt lat="40.76838978158459" lon="9.009160519663187"><ele>176.66666666666666</ele><time>2026-04-11T10:09:49.996Z</time></trkpt><trkpt lat="40.768378928031126" lon="9.009255147862"><ele>173.33333333333331</ele><time>2026-04-11T10:09:50.996Z</time></trkpt><trkpt lat="40.768380010148704" lon="9.009359188046417"><ele>170.0</ele><time>2026-04-11T10:09:51.996Z</time></trkpt><trkpt lat="40.768403245876506" lon="9.00945711795109"><ele>170.0</ele><time>2026-04-11T10:09:52.996Z</time></trkpt><trkpt lat="40.768456315662206" lon="9.009524362223816"><ele>170.0</ele><time>2026-04-11T10:09:53.996Z</time></trkpt><trkpt lat="40.76848907409143" lon="9.00960984613362"><ele>170.0</ele><time>2026-04-11T10:09:54.996Z</time></trkpt><trkpt lat="40.768537557231504" lon="9.009680763305411"><ele>170.0</ele><time>2026-04-11T10:09:55.996Z</time></trkpt><trkpt lat="40.76859724894773" lon="9.009731311348773"><ele>170.0</ele><time>2026-04-11T10:09:56.996Z</time></trkpt><trkpt lat="40.76868440108815" lon="9.009837804933595"><ele>170.0</ele><time>2026-04-11T10:09:58.996Z</time></trkpt><trkpt lat="40.76881400552648" lon="9.009854876723708"><ele>174.0</ele><time>2026-04-11T10:10:00.996Z</time></trkpt><trkpt lat="40.76889752035103" lon="9.009840711920083"><ele>178.0</ele><time>2026-04-11T10:10:01.996Z</time></trkpt><trkpt lat="40.76898588964165" lon="9.009821652731128"><ele>182.0</ele><time>2026-04-11T10:10:02.996Z</time></trkpt><trkpt lat="40.76907491974526" lon="9.009810880434205"><ele>186.0</ele><time>2026-04-11T10:10:03.996Z</time></trkpt><trkpt lat="40.769163765538956" lon="9.009832111449768"><ele>190.00000000000003</ele><time>2026-04-11T10:10:04.996Z</time></trkpt><trkpt lat="40.76925384141968" lon="9.009849018734998"><ele>194.0</ele><time>2026-04-11T10:10:05.996Z</time></trkpt><trkpt lat="40.76934026359756" lon="9.009878043791222"><ele>194.00000000000003</ele><time>2026-04-11T10:10:06.996Z</time></trkpt><trkpt lat="40.76941909406758" lon="9.009902355254713"><ele>194.0</ele><time>2026-04-11T10:10:07.996Z</time></trkpt><trkpt lat="40.76948485621672" lon="9.009931586772302"><ele>194.0</ele><time>2026-04-11T10:10:08.996Z</time></trkpt><trkpt lat="40.769553728590694" lon="9.010030486441927"><ele>194.0</ele><time>2026-04-11T10:10:10.996Z</time></trkpt><trkpt lat="40.769571768422225" lon="9.010111460265536"><ele>194.00000000000003</ele><time>2026-04-11T10:10:12.996Z</time></trkpt><trkpt lat="40.769513703714566" lon="9.010190678119338"><ele>194.0</ele><time>2026-04-11T10:10:14.996Z</time></trkpt><trkpt lat="40.76944359810188" lon="9.010201196835805"><ele>192.7142857142857</ele><time>2026-04-11T10:10:15.996Z</time></trkpt><trkpt lat="40.76936388417232" lon="9.010207758449841"><ele>191.42857142857144</ele><time>2026-04-11T10:10:16.996Z</time></trkpt><trkpt lat="40.76928444927943" lon="9.010222791808326"><ele>190.14285714285714</ele><time>2026-04-11T10:10:17.996Z</time></trkpt><trkpt lat="40.76921299626269" lon="9.010251545517196"><ele>188.85714285714283</ele><time>2026-04-11T10:10:18.996Z</time></trkpt><trkpt lat="40.76913717923116" lon="9.010269156880783"><ele>187.57142857142856</ele><time>2026-04-11T10:10:19.996Z</time></trkpt><trkpt lat="40.76908987386577" lon="9.010338466232259"><ele>186.28571428571428</ele><time>2026-04-11T10:10:20.996Z</time></trkpt><trkpt lat="40.76904630379892" lon="9.010400159822039"><ele>185.0</ele><time>2026-04-11T10:10:21.996Z</time></trkpt><trkpt lat="40.76901499496448" lon="9.010477802323487"><ele>183.99999999999997</ele><time>2026-04-11T10:10:22.996Z</time></trkpt><trkpt lat="40.768973001737265" lon="9.010561528701942"><ele>183.0</ele><time>2026-04-11T10:10:23.996Z</time></trkpt><trkpt lat="40.768946122716" lon="9.01065829593586"><ele>182.0</ele><time>2026-04-11T10:10:24.996Z</time></trkpt><trkpt lat="40.76892169742229" lon="9.010757581395122"><ele>181.0</ele><time>2026-04-11T10:10:25.996Z</time></trkpt><trkpt lat="40.76889442277632" lon="9.01084772121267"><ele>180.0</ele><time>2026-04-11T10:10:26.996Z</time></trkpt><trkpt lat="40.768855467879156" lon="9.01092947619357"><ele>178.99999999999997</ele><time>2026-04-11T10:10:27.996Z</time></trkpt><trkpt lat="40.76881152798573" lon="9.010999657139193"><ele>178.0</ele><time>2026-04-11T10:10:28.996Z</time></trkpt><trkpt lat="40.76876580843596" lon="9.011066825328589"><ele>177.8</ele><time>2026-04-11T10:10:29.996Z</time></trkpt><trkpt lat="40.76871735329958" lon="9.01112510982135"><ele>177.60000000000002</ele><time>2026-04-11T10:10:30.996Z</time></trkpt><trkpt lat="40.76862769592742" lon="9.011232650804564"><ele>177.39999999999998</ele><time>2026-04-11T10:10:32.996Z</time></trkpt><trkpt lat="40.76854725821684" lon="9.011342872314405"><ele>177.2</ele><time>2026-04-11T10:10:34.996Z</time></trkpt><trkpt lat="40.768485166674374" lon="9.011482574402915"><ele>177.0</ele><time>2026-04-11T10:10:36.996Z</time></trkpt><trkpt lat="40.768464074504905" lon="9.011636524636302"><ele>178.33333333333334</ele><time>2026-04-11T10:10:38.996Z</time></trkpt><trkpt lat="40.768468629471265" lon="9.011733674895808"><ele>179.66666666666666</ele><time>2026-04-11T10:10:39.996Z</time></trkpt><trkpt lat="40.76849106280027" lon="9.011835024615644"><ele>181.0</ele><time>2026-04-11T10:10:40.996Z</time></trkpt><trkpt lat="40.768527212862416" lon="9.011937660111363"><ele>182.33333333333331</ele><time>2026-04-11T10:10:41.996Z</time></trkpt><trkpt lat="40.76854813524749" lon="9.012054643346934"><ele>183.66666666666666</ele><time>2026-04-11T10:10:42.996Z</time></trkpt><trkpt lat="40.76857874419032" lon="9.012168574776322"><ele>185.0</ele><time>2026-04-11T10:10:43.996Z</time></trkpt><trkpt lat="40.768609199993655" lon="9.012273838678729"><ele>184.99999999999997</ele><time>2026-04-11T10:10:44.996Z</time></trkpt><trkpt lat="40.76863940169654" lon="9.012367275835066"><ele>185.0</ele><time>2026-04-11T10:10:45.996Z</time></trkpt><trkpt lat="40.768670974222665" lon="9.01245469026628"><ele>185.0</ele><time>2026-04-11T10:10:46.995Z</time></trkpt><trkpt lat="40.7687193489417" lon="9.012527522121882"><ele>185.0</ele><time>2026-04-11T10:10:47.995Z</time></trkpt><trkpt lat="40.76877861417336" lon="9.012573226132146"><ele>185.0</ele><time>2026-04-11T10:10:48.995Z</time></trkpt><trkpt lat="40.7688410838353" lon="9.012616371733579"><ele>184.99999999999997</ele><time>2026-04-11T10:10:49.995Z</time></trkpt><trkpt lat="40.76890652198036" lon="9.012650191090364"><ele>185.0</ele><time>2026-04-11T10:10:50.995Z</time></trkpt><trkpt lat="40.7689714832701" lon="9.012750218802907"><ele>184.2</ele><time>2026-04-11T10:10:52.995Z</time></trkpt><trkpt lat="40.76897422037158" lon="9.012889898679424"><ele>183.4</ele><time>2026-04-11T10:10:54.995Z</time></trkpt><trkpt lat="40.76895932852819" lon="9.012982067911384"><ele>182.60000000000002</ele><time>2026-04-11T10:10:55.995Z</time></trkpt><trkpt lat="40.76894045565485" lon="9.013092132209495"><ele>181.8</ele><time>2026-04-11T10:10:56.995Z</time></trkpt><trkpt lat="40.76892935227776" lon="9.013216314778672"><ele>181.0</ele><time>2026-04-11T10:10:57.995Z</time></trkpt><trkpt lat="40.76892613188668" lon="9.013338917357329"><ele>179.5</ele><time>2026-04-11T10:10:58.995Z</time></trkpt><trkpt lat="40.76892538636048" lon="9.013457762574193"><ele>178.0</ele><time>2026-04-11T10:10:59.995Z</time></trkpt><trkpt lat="40.76892605209227" lon="9.01357117102531"><ele>176.5</ele><time>2026-04-11T10:11:00.995Z</time></trkpt><trkpt lat="40.7689302404316" lon="9.013684135605532"><ele>175.0</ele><time>2026-04-11T10:11:01.995Z</time></trkpt><trkpt lat="40.7689460887838" lon="9.013789680397425"><ele>173.5</ele><time>2026-04-11T10:11:02.995Z</time></trkpt><trkpt lat="40.769001247592854" lon="9.013870512512144"><ele>172.0</ele><time>2026-04-11T10:11:03.995Z</time></trkpt><trkpt lat="40.76903875487234" lon="9.013951446369088"><ele>172.0</ele><time>2026-04-11T10:11:04.995Z</time></trkpt><trkpt lat="40.769069512497964" lon="9.014041677639266"><ele>172.0</ele><time>2026-04-11T10:11:05.995Z</time></trkpt><trkpt lat="40.7691141652121" lon="9.014108769423935"><ele>172.0</ele><time>2026-04-11T10:11:06.995Z</time></trkpt><trkpt lat="40.769205840641135" lon="9.01418101079356"><ele>172.0</ele><time>2026-04-11T10:11:08.995Z</time></trkpt><trkpt lat="40.769311796002796" lon="9.014163718438768"><ele>172.0</ele><time>2026-04-11T10:11:10.995Z</time></trkpt><trkpt lat="40.769369985004616" lon="9.014122841567437"><ele>172.0</ele><time>2026-04-11T10:11:11.995Z</time></trkpt><trkpt lat="40.769434760680916" lon="9.014074022240885"><ele>172.66666666666669</ele><time>2026-04-11T10:11:12.995Z</time></trkpt><trkpt lat="40.769497156137376" lon="9.01400254542182"><ele>173.33333333333334</ele><time>2026-04-11T10:11:13.995Z</time></trkpt><trkpt lat="40.76954694944136" lon="9.01390748853993"><ele>174.0</ele><time>2026-04-11T10:11:14.995Z</time></trkpt><trkpt lat="40.76958016369822" lon="9.013797663253905"><ele>174.66666666666666</ele><time>2026-04-11T10:11:15.995Z</time></trkpt><trkpt lat="40.76961997437154" lon="9.013697646590142"><ele>175.33333333333331</ele><time>2026-04-11T10:11:16.995Z</time></trkpt><trkpt lat="40.76965030084796" lon="9.013596124377843"><ele>176.0</ele><time>2026-04-11T10:11:17.995Z</time></trkpt><trkpt lat="40.76968744724918" lon="9.013508141434944"><ele>176.0</ele><time>2026-04-11T10:11:18.995Z</time></trkpt><trkpt lat="40.76973235967143" lon="9.01342970665103"><ele>176.0</ele><time>2026-04-11T10:11:19.995Z</time></trkpt><trkpt lat="40.76977431971441" lon="9.013352216994889"><ele>176.0</ele><time>2026-04-11T10:11:20.995Z</time></trkpt><trkpt lat="40.76982177651221" lon="9.013288834508588"><ele>176.0</ele><time>2026-04-11T10:11:21.995Z</time></trkpt><trkpt lat="40.76987371639989" lon="9.013234388656763"><ele>176.0</ele><time>2026-04-11T10:11:22.995Z</time></trkpt><trkpt lat="40.769931207566806" lon="9.013186492906735"><ele>176.0</ele><time>2026-04-11T10:11:23.995Z</time></trkpt><trkpt lat="40.7699814080805" lon="9.01312580854192"><ele>176.0</ele><time>2026-04-11T10:11:24.995Z</time></trkpt><trkpt lat="40.77007896489632" lon="9.013076225606337"><ele>176.0</ele><time>2026-04-11T10:11:26.995Z</time></trkpt><trkpt lat="40.77015016231406" lon="9.013055554974093"><ele>176.0</ele><time>2026-04-11T10:11:29.995Z</time></trkpt><trkpt lat="40.77020327951016" lon="9.013214019048009"><ele>176.0</ele><time>2026-04-11T10:11:33.995Z</time></trkpt><trkpt lat="40.770195694524176" lon="9.013310548956095"><ele>176.0</ele><time>2026-04-11T10:11:34.995Z</time></trkpt><trkpt lat="40.77018876898497" lon="9.013421081964005"><ele>176.0</ele><time>2026-04-11T10:11:35.995Z</time></trkpt><trkpt lat="40.770168267956045" lon="9.013549616639038"><ele>176.0</ele><time>2026-04-11T10:11:36.995Z</time></trkpt><trkpt lat="40.77017159340616" lon="9.013697435460937"><ele>176.0</ele><time>2026-04-11T10:11:37.995Z</time></trkpt><trkpt lat="40.77016391263318" lon="9.013842867029304"><ele>176.0</ele><time>2026-04-11T10:11:38.995Z</time></trkpt><trkpt lat="40.77015274359553" lon="9.013997059879747"><ele>176.0</ele><time>2026-04-11T10:11:39.995Z</time></trkpt><trkpt lat="40.77013198955737" lon="9.014161648392475"><ele>175.0</ele><time>2026-04-11T10:11:40.995Z</time></trkpt><trkpt lat="40.77009929865677" lon="9.014318702372162"><ele>174.0</ele><time>2026-04-11T10:11:41.995Z</time></trkpt><trkpt lat="40.77007345781036" lon="9.014470559386035"><ele>173.0</ele><time>2026-04-11T10:11:42.995Z</time></trkpt><trkpt lat="40.77004026334742" lon="9.014613824662238"><ele>172.0</ele><time>2026-04-11T10:11:43.995Z</time></trkpt><trkpt lat="40.76998126850524" lon="9.014728057787973"><ele>172.0</ele><time>2026-04-11T10:11:44.995Z</time></trkpt><trkpt lat="40.76994704436746" lon="9.014840659061123"><ele>172.0</ele><time>2026-04-11T10:11:45.995Z</time></trkpt><trkpt lat="40.769925084644754" lon="9.014962198371103"><ele>172.0</ele><time>2026-04-11T10:11:46.995Z</time></trkpt><trkpt lat="40.76993929153487" lon="9.01507474339155"><ele>172.0</ele><time>2026-04-11T10:11:47.995Z</time></trkpt><trkpt lat="40.76998477889636" lon="9.015158324763876"><ele>172.0</ele><time>2026-04-11T10:11:48.995Z</time></trkpt><trkpt lat="40.77005764614959" lon="9.015166562954379"><ele>172.0</ele><time>2026-04-11T10:11:49.995Z</time></trkpt><trkpt lat="40.77013993716942" lon="9.015181133337515"><ele>174.6</ele><time>2026-04-11T10:11:50.995Z</time></trkpt><trkpt lat="40.77023436656164" lon="9.015195077931049"><ele>177.2</ele><time>2026-04-11T10:11:51.995Z</time></trkpt><trkpt lat="40.77033806254329" lon="9.015207975767913"><ele>179.8</ele><time>2026-04-11T10:11:52.994Z</time></trkpt><trkpt lat="40.77043646159604" lon="9.015269637002719"><ele>182.4</ele><time>2026-04-11T10:11:53.994Z</time></trkpt><trkpt lat="40.77053928570787" lon="9.015285699838408"><ele>185.0</ele><time>2026-04-11T10:11:54.994Z</time></trkpt><trkpt lat="40.77062791140506" lon="9.015308683767431"><ele>185.0</ele><time>2026-04-11T10:11:55.994Z</time></trkpt><trkpt lat="40.77070496243769" lon="9.015340142195777"><ele>185.0</ele><time>2026-04-11T10:11:56.994Z</time></trkpt><trkpt lat="40.770770402153346" lon="9.015371774367154"><ele>185.0</ele><time>2026-04-11T10:11:57.994Z</time></trkpt><trkpt lat="40.770861925687825" lon="9.015426168085765"><ele>185.0</ele><time>2026-04-11T10:11:59.994Z</time></trkpt><trkpt lat="40.77090454839253" lon="9.015558940929672"><ele>185.0</ele><time>2026-04-11T10:12:01.994Z</time></trkpt><trkpt lat="40.77091715616826" lon="9.015652732392281"><ele>185.0</ele><time>2026-04-11T10:12:02.994Z</time></trkpt><trkpt lat="40.77092440207516" lon="9.015740881028398"><ele>182.83333333333331</ele><time>2026-04-11T10:12:03.994Z</time></trkpt><trkpt lat="40.77092627721527" lon="9.015855319753474"><ele>180.66666666666666</ele><time>2026-04-11T10:12:06Z</time></trkpt><trkpt lat="40.770839682660295" lon="9.015936283549228"><ele>178.5</ele><time>2026-04-11T10:12:08Z</time></trkpt><trkpt lat="40.77077231455421" lon="9.01595159453622"><ele>176.33333333333334</ele><time>2026-04-11T10:12:09Z</time></trkpt><trkpt lat="40.77069851244282" lon="9.015945728678771"><ele>174.16666666666669</ele><time>2026-04-11T10:12:10Z</time></trkpt><trkpt lat="40.77062403942297" lon="9.015987395621531"><ele>172.0</ele><time>2026-04-11T10:12:11Z</time></trkpt><trkpt lat="40.77056654415604" lon="9.016063714536362"><ele>172.0</ele><time>2026-04-11T10:12:12Z</time></trkpt><trkpt lat="40.77052614914833" lon="9.016178232659493"><ele>172.0</ele><time>2026-04-11T10:12:13Z</time></trkpt><trkpt lat="40.77053323032418" lon="9.016306872938296"><ele>172.0</ele><time>2026-04-11T10:12:14Z</time></trkpt><trkpt lat="40.77056606795967" lon="9.016420060545071"><ele>172.0</ele><time>2026-04-11T10:12:15Z</time></trkpt><trkpt lat="40.77063494097111" lon="9.01651615248288"><ele>172.0</ele><time>2026-04-11T10:12:16Z</time></trkpt><trkpt lat="40.77071908976852" lon="9.016593873948574"><ele>172.2</ele><time>2026-04-11T10:12:17Z</time></trkpt><trkpt lat="40.770810769766804" lon="9.01666555890707"><ele>172.39999999999998</ele><time>2026-04-11T10:12:18Z</time></trkpt><trkpt lat="40.770903265076" lon="9.016731712038926"><ele>172.60000000000002</ele><time>2026-04-11T10:12:19Z</time></trkpt><trkpt lat="40.77100069730513" lon="9.016794718350537"><ele>172.8</ele><time>2026-04-11T10:12:20Z</time></trkpt><trkpt lat="40.77109732622519" lon="9.016850059542763"><ele>173.0</ele><time>2026-04-11T10:12:21Z</time></trkpt><trkpt lat="40.7711833092373" lon="9.016899868180634"><ele>177.60000000000002</ele><time>2026-04-11T10:12:22Z</time></trkpt><trkpt lat="40.771237650316806" lon="9.01695605296861"><ele>182.20000000000002</ele><time>2026-04-11T10:12:23Z</time></trkpt><trkpt lat="40.7712847234797" lon="9.017107704763465"><ele>186.8</ele><time>2026-04-11T10:12:25Z</time></trkpt><trkpt lat="40.771320064145996" lon="9.01721661173817"><ele>191.4</ele><time>2026-04-11T10:12:26Z</time></trkpt><trkpt lat="40.77137114805253" lon="9.017332887699407"><ele>196.0</ele><time>2026-04-11T10:12:27Z</time></trkpt><trkpt lat="40.77143685044687" lon="9.017432603227224"><ele>195.16666666666666</ele><time>2026-04-11T10:12:28Z</time></trkpt><trkpt lat="40.77150966415264" lon="9.017512515669768"><ele>194.33333333333331</ele><time>2026-04-11T10:12:29Z</time></trkpt><trkpt lat="40.77159223508549" lon="9.017567722627758"><ele>193.5</ele><time>2026-04-11T10:12:30Z</time></trkpt><trkpt lat="40.77167812241973" lon="9.01760028372001"><ele>192.66666666666666</ele><time>2026-04-11T10:12:31Z</time></trkpt><trkpt lat="40.77175707597465" lon="9.017637265530599"><ele>191.83333333333331</ele><time>2026-04-11T10:12:32Z</time></trkpt><trkpt lat="40.77181747641177" lon="9.01768662630301"><ele>191.0</ele><time>2026-04-11T10:12:33Z</time></trkpt><trkpt lat="40.77186269542735" lon="9.017799727304666"><ele>191.0</ele><time>2026-04-11T10:12:35Z</time></trkpt><trkpt lat="40.771846481626696" lon="9.017928678491822"><ele>191.0</ele><time>2026-04-11T10:12:37Z</time></trkpt><trkpt lat="40.771823919793256" lon="9.018039321036241"><ele>191.0</ele><time>2026-04-11T10:12:38Z</time></trkpt><trkpt lat="40.77180407428354" lon="9.01819111788834"><ele>191.0</ele><time>2026-04-11T10:12:39Z</time></trkpt><trkpt lat="40.77180745448927" lon="9.018336309565592"><ele>191.0</ele><time>2026-04-11T10:12:40Z</time></trkpt><trkpt lat="40.77183338594283" lon="9.018487838097231"><ele>195.8</ele><time>2026-04-11T10:12:41Z</time></trkpt><trkpt lat="40.77188837362052" lon="9.018611424441122"><ele>200.60000000000002</ele><time>2026-04-11T10:12:42Z</time></trkpt><trkpt lat="40.771963623184845" lon="9.018717290839165"><ele>205.4</ele><time>2026-04-11T10:12:43Z</time></trkpt><trkpt lat="40.77204103635745" lon="9.018808153472873"><ele>210.2</ele><time>2026-04-11T10:12:44Z</time></trkpt><trkpt lat="40.772107988326404" lon="9.018897005743176"><ele>215.0</ele><time>2026-04-11T10:12:45Z</time></trkpt><trkpt lat="40.772152231901316" lon="9.01896928839378"><ele>215.0</ele><time>2026-04-11T10:12:46Z</time></trkpt><trkpt lat="40.77216717372153" lon="9.019083657598486"><ele>215.0</ele><time>2026-04-11T10:12:48Z</time></trkpt><trkpt lat="40.772162344882936" lon="9.019183547985575"><ele>215.0</ele><time>2026-04-11T10:12:49Z</time></trkpt><trkpt lat="40.77215234538265" lon="9.019287962110699"><ele>215.0</ele><time>2026-04-11T10:12:50Z</time></trkpt><trkpt lat="40.772203845777" lon="9.019448546987288"><ele>215.0</ele><time>2026-04-11T10:12:51Z</time></trkpt><trkpt lat="40.772279733999355" lon="9.019489472054989"><ele>211.2</ele><time>2026-04-11T10:12:52Z</time></trkpt><trkpt lat="40.7723409161791" lon="9.019524771064116"><ele>207.4</ele><time>2026-04-11T10:12:53Z</time></trkpt><trkpt lat="40.772397354234656" lon="9.019568904535326"><ele>203.60000000000002</ele><time>2026-04-11T10:12:54Z</time></trkpt><trkpt lat="40.77245323873535" lon="9.01968642471482"><ele>199.8</ele><time>2026-04-11T10:12:56Z</time></trkpt><trkpt lat="40.77247275822473" lon="9.019841587796678"><ele>196.0</ele><time>2026-04-11T10:12:57.999Z</time></trkpt><trkpt lat="40.77248871749019" lon="9.01998687049173"><ele>196.49999999999997</ele><time>2026-04-11T10:12:59.999Z</time></trkpt><trkpt lat="40.77251564657188" lon="9.020128133380554"><ele>197.0</ele><time>2026-04-11T10:13:01.999Z</time></trkpt><trkpt lat="40.77257921694308" lon="9.020247706944206"><ele>197.5</ele><time>2026-04-11T10:13:03.999Z</time></trkpt><trkpt lat="40.772638881464474" lon="9.020282298701272"><ele>198.0</ele><time>2026-04-11T10:13:05.999Z</time></trkpt><trkpt lat="40.77270283427161" lon="9.020304294267094"><ele>198.49999999999997</ele><time>2026-04-11T10:13:08.999Z</time></trkpt><trkpt lat="40.77277334949503" lon="9.020346072860493"><ele>199.0</ele><time>2026-04-11T10:13:10.999Z</time></trkpt><trkpt lat="40.772854727638595" lon="9.020383997820936"><ele>198.99999999999997</ele><time>2026-04-11T10:13:13.999Z</time></trkpt><trkpt lat="40.772944576575064" lon="9.020251350626413"><ele>199.0</ele><time>2026-04-11T10:14:46.998Z</time></trkpt><trkpt lat="40.77286982811626" lon="9.020233591762507"><ele>199.0</ele><time>2026-04-11T10:14:51.998Z</time></trkpt><trkpt lat="40.772802353956344" lon="9.02021445420308"><ele>199.0</ele><time>2026-04-11T10:14:57.998Z</time></trkpt><trkpt lat="40.77273451883804" lon="9.020222871781945"><ele>198.99999999999997</ele><time>2026-04-11T10:15:03.998Z</time></trkpt><trkpt lat="40.772675330234804" lon="9.020279079545558"><ele>199.0</ele><time>2026-04-11T10:15:09.997Z</time></trkpt><trkpt lat="40.77261730668167" lon="9.020313644490999"><ele>178.0</ele><time>2026-04-11T10:15:16.997Z</time></trkpt></trkseg><trkseg><trkpt lat="40.830939539284316" lon="8.8863463848877"><ele>81.0</ele><time>2026-04-11T11:46:43.999Z</time></trkpt><trkpt lat="40.83092680228751" lon="8.886437025514377"><ele>81.0</ele><time>2026-04-11T11:46:55.999Z</time></trkpt><trkpt lat="40.83088909324006" lon="8.8865060245598"><ele>81.0</ele><time>2026-04-11T11:46:59.998Z</time></trkpt><trkpt lat="40.83079046717102" lon="8.886506811137789"><ele>81.0</ele><time>2026-04-11T11:47:14.998Z</time></trkpt><trkpt lat="40.8307170004719" lon="8.886533582315455"><ele>81.0</ele><time>2026-04-11T11:47:22.998Z</time></trkpt><trkpt lat="40.83073065704431" lon="8.886419019167342"><ele>81.0</ele><time>2026-04-11T11:48:04.998Z</time></trkpt><trkpt lat="40.830744916786124" lon="8.886319646715823"><ele>81.0</ele><time>2026-04-11T11:48:23.999Z</time></trkpt><trkpt lat="40.83077376734995" lon="8.886239689107963"><ele>81.0</ele><time>2026-04-11T11:48:31.999Z</time></trkpt><trkpt lat="40.830710394371515" lon="8.886215939240548"><ele>81.0</ele><time>2026-04-11T11:48:57.999Z</time></trkpt><trkpt lat="40.83067581612004" lon="8.886092468618642"><ele>81.0</ele><time>2026-04-11T11:49:14.998Z</time></trkpt><trkpt lat="40.830809378658294" lon="8.885706395238577"><ele>81.4</ele><time>2026-04-11T11:49:17.998Z</time></trkpt><trkpt lat="40.83071578197671" lon="8.885612147866079"><ele>81.8</ele><time>2026-04-11T11:49:19.998Z</time></trkpt><trkpt lat="40.83063015356603" lon="8.885525924238124"><ele>82.2</ele><time>2026-04-11T11:49:21.998Z</time></trkpt><trkpt lat="40.83054803081781" lon="8.88544228020178"><ele>82.60000000000001</ele><time>2026-04-11T11:49:23.998Z</time></trkpt><trkpt lat="40.83046223342231" lon="8.885353225584772"><ele>83.0</ele><time>2026-04-11T11:49:25.998Z</time></trkpt><trkpt lat="40.83041219358547" lon="8.885300234140953"><ele>83.0</ele><time>2026-04-11T11:49:26.998Z</time></trkpt><trkpt lat="40.83035989228608" lon="8.885244389496073"><ele>83.0</ele><time>2026-04-11T11:49:27.998Z</time></trkpt><trkpt lat="40.83030975200186" lon="8.885190852274105"><ele>83.0</ele><time>2026-04-11T11:49:28.998Z</time></trkpt><trkpt lat="40.830260349738644" lon="8.88513810308302"><ele>83.0</ele><time>2026-04-11T11:49:29.998Z</time></trkpt><trkpt lat="40.83020677841846" lon="8.885086134634214"><ele>83.0</ele><time>2026-04-11T11:49:30.998Z</time></trkpt><trkpt lat="40.83015561050935" lon="8.885035910965229"><ele>83.0</ele><time>2026-04-11T11:49:31.998Z</time></trkpt><trkpt lat="40.83006620710796" lon="8.884948157520245"><ele>83.0</ele><time>2026-04-11T11:49:33.998Z</time></trkpt><trkpt lat="40.8299916010026" lon="8.884887534986548"><ele>83.80000000000001</ele><time>2026-04-11T11:49:35.998Z</time></trkpt><trkpt lat="40.829933066973965" lon="8.884808991845112"><ele>84.6</ele><time>2026-04-11T11:49:38.998Z</time></trkpt><trkpt lat="40.83000797526929" lon="8.885013741561616"><ele>85.4</ele><time>2026-04-11T11:49:39.998Z</time></trkpt><trkpt lat="40.82994858518681" lon="8.88491501675778"><ele>86.19999999999999</ele><time>2026-04-11T11:49:52.998Z</time></trkpt><trkpt lat="40.83002345591358" lon="8.884959980009114"><ele>87.0</ele><time>2026-04-11T11:49:54.998Z</time></trkpt><trkpt lat="40.83007691342611" lon="8.885019754891855"><ele>87.0</ele><time>2026-04-11T11:49:55.998Z</time></trkpt><trkpt lat="40.830134968562184" lon="8.885093205514421"><ele>87.0</ele><time>2026-04-11T11:49:56.998Z</time></trkpt><trkpt lat="40.830196807749005" lon="8.88516865427324"><ele>87.0</ele><time>2026-04-11T11:49:57.998Z</time></trkpt><trkpt lat="40.83026299866433" lon="8.885249721086389"><ele>87.0</ele><time>2026-04-11T11:49:58.998Z</time></trkpt><trkpt lat="40.83033748884379" lon="8.885335586247063"><ele>87.0</ele><time>2026-04-11T11:49:59.998Z</time></trkpt><trkpt lat="40.8304169737262" lon="8.885423882493644"><ele>86.19999999999999</ele><time>2026-04-11T11:50:00.998Z</time></trkpt><trkpt lat="40.830499033875675" lon="8.885517719505847"><ele>85.4</ele><time>2026-04-11T11:50:01.998Z</time></trkpt><trkpt lat="40.83058084977961" lon="8.88561735367795"><ele>84.6</ele><time>2026-04-11T11:50:02.998Z</time></trkpt><trkpt lat="40.830663838344776" lon="8.885716548542892"><ele>83.80000000000001</ele><time>2026-04-11T11:50:03.998Z</time></trkpt><trkpt lat="40.83074784381835" lon="8.88581364792923"><ele>83.0</ele><time>2026-04-11T11:50:04.998Z</time></trkpt><trkpt lat="40.830833635936386" lon="8.885911730817899"><ele>82.5</ele><time>2026-04-11T11:50:05.998Z</time></trkpt><trkpt lat="40.83092105194109" lon="8.88601030668095"><ele>82.0</ele><time>2026-04-11T11:50:06.998Z</time></trkpt><trkpt lat="40.83101249924722" lon="8.886104679762704"><ele>81.5</ele><time>2026-04-11T11:50:07.998Z</time></trkpt><trkpt lat="40.831127484249926" lon="8.886162130210964"><ele>81.0</ele><time>2026-04-11T11:50:08.998Z</time></trkpt><trkpt lat="40.831220855179176" lon="8.886259865655571"><ele>82.0</ele><time>2026-04-11T11:50:09.998Z</time></trkpt><trkpt lat="40.83131977687958" lon="8.886347068384937"><ele>83.0</ele><time>2026-04-11T11:50:10.998Z</time></trkpt><trkpt lat="40.8314224745214" lon="8.886438424962074"><ele>84.0</ele><time>2026-04-11T11:50:11.998Z</time></trkpt><trkpt lat="40.83152029247833" lon="8.886534553754528"><ele>85.0</ele><time>2026-04-11T11:50:12.998Z</time></trkpt><trkpt lat="40.83161357104653" lon="8.886633674281244"><ele>85.0</ele><time>2026-04-11T11:50:13.998Z</time></trkpt><trkpt lat="40.831708768866065" lon="8.886734289715719"><ele>85.0</ele><time>2026-04-11T11:50:14.998Z</time></trkpt><trkpt lat="40.831815801707975" lon="8.886830559579495"><ele>85.0</ele><time>2026-04-11T11:50:15.998Z</time></trkpt><trkpt lat="40.83192471500613" lon="8.886911823176893"><ele>85.0</ele><time>2026-04-11T11:50:16.998Z</time></trkpt><trkpt lat="40.832029619613316" lon="8.887007183561296"><ele>84.0</ele><time>2026-04-11T11:50:17.998Z</time></trkpt><trkpt lat="40.83212880868277" lon="8.887102737684327"><ele>83.0</ele><time>2026-04-11T11:50:18.998Z</time></trkpt><trkpt lat="40.83222831190168" lon="8.887198165874123"><ele>82.0</ele><time>2026-04-11T11:50:19.998Z</time></trkpt><trkpt lat="40.832324415523516" lon="8.887290599614207"><ele>81.0</ele><time>2026-04-11T11:50:20.998Z</time></trkpt><trkpt lat="40.832415822644144" lon="8.887381810949629"><ele>81.0</ele><time>2026-04-11T11:50:21.998Z</time></trkpt><trkpt lat="40.83250221192919" lon="8.887469734067022"><ele>81.0</ele><time>2026-04-11T11:50:22.998Z</time></trkpt><trkpt lat="40.83258274870003" lon="8.887557801997824"><ele>81.0</ele><time>2026-04-11T11:50:23.998Z</time></trkpt><trkpt lat="40.83265619492691" lon="8.887639362288871"><ele>81.0</ele><time>2026-04-11T11:50:24.998Z</time></trkpt><trkpt lat="40.83271551972656" lon="8.887708687857174"><ele>81.0</ele><time>2026-04-11T11:50:25.998Z</time></trkpt><trkpt lat="40.83278026068344" lon="8.887796950890692"><ele>80.75</ele><time>2026-04-11T11:50:27.998Z</time></trkpt><trkpt lat="40.83301346042611" lon="8.88768799065698"><ele>80.5</ele><time>2026-04-11T11:51:18.001Z</time></trkpt><trkpt lat="40.83295886651515" lon="8.887579174725454"><ele>80.25</ele><time>2026-04-11T11:51:21Z</time></trkpt><trkpt lat="40.832892840110055" lon="8.887504604921522"><ele>80.0</ele><time>2026-04-11T11:51:23Z</time></trkpt><trkpt lat="40.832807227869914" lon="8.887437454359892"><ele>80.0</ele><time>2026-04-11T11:51:25Z</time></trkpt><trkpt lat="40.83270658052616" lon="8.887370448372252"><ele>80.0</ele><time>2026-04-11T11:51:27Z</time></trkpt><trkpt lat="40.83264245204765" lon="8.887339864614505"><ele>80.0</ele><time>2026-04-11T11:51:28Z</time></trkpt><trkpt lat="40.832576206785205" lon="8.887289040339432"><ele>80.0</ele><time>2026-04-11T11:51:29Z</time></trkpt><trkpt lat="40.83250601228542" lon="8.887232170977779"><ele>80.0</ele><time>2026-04-11T11:51:30Z</time></trkpt><trkpt lat="40.832431051811476" lon="8.887164070670073"><ele>80.0</ele><time>2026-04-11T11:51:31Z</time></trkpt><trkpt lat="40.83235172958661" lon="8.88709434963969"><ele>80.2</ele><time>2026-04-11T11:51:32Z</time></trkpt><trkpt lat="40.83227246499419" lon="8.887022099242762"><ele>80.4</ele><time>2026-04-11T11:51:33Z</time></trkpt><trkpt lat="40.83218948727482" lon="8.886953732606553"><ele>80.6</ele><time>2026-04-11T11:51:34Z</time></trkpt><trkpt lat="40.832110480756576" lon="8.886884207737852"><ele>80.8</ele><time>2026-04-11T11:51:35Z</time></trkpt><trkpt lat="40.832039331385644" lon="8.886810497710659"><ele>81.0</ele><time>2026-04-11T11:51:36Z</time></trkpt><trkpt lat="40.831965215900006" lon="8.88673181146928"><ele>81.8</ele><time>2026-04-11T11:51:37Z</time></trkpt><trkpt lat="40.83186057842808" lon="8.886695471634004"><ele>82.6</ele><time>2026-04-11T11:51:38Z</time></trkpt><trkpt lat="40.831780546887146" lon="8.886613294093186"><ele>83.4</ele><time>2026-04-11T11:51:39Z</time></trkpt><trkpt lat="40.8316937537665" lon="8.886549402396694"><ele>84.2</ele><time>2026-04-11T11:51:40Z</time></trkpt><trkpt lat="40.83160482270443" lon="8.886476610477937"><ele>85.0</ele><time>2026-04-11T11:51:41Z</time></trkpt><trkpt lat="40.831517122167206" lon="8.886408160785356"><ele>85.0</ele><time>2026-04-11T11:51:42Z</time></trkpt><trkpt lat="40.83143930596853" lon="8.886330549002993"><ele>85.0</ele><time>2026-04-11T11:51:43Z</time></trkpt><trkpt lat="40.83136325111751" lon="8.886253955885824"><ele>85.0</ele><time>2026-04-11T11:51:44Z</time></trkpt><trkpt lat="40.831286929040616" lon="8.88617650038675"><ele>85.0</ele><time>2026-04-11T11:51:45Z</time></trkpt><trkpt lat="40.831208591092626" lon="8.886095812622345"><ele>85.0</ele><time>2026-04-11T11:51:46Z</time></trkpt><trkpt lat="40.83112595405076" lon="8.88601647822862"><ele>85.0</ele><time>2026-04-11T11:51:47Z</time></trkpt><trkpt lat="40.83104386865192" lon="8.885936640770145"><ele>85.0</ele><time>2026-04-11T11:51:48Z</time></trkpt><trkpt lat="40.83096775551459" lon="8.885854117723351"><ele>85.0</ele><time>2026-04-11T11:51:49Z</time></trkpt><trkpt lat="40.83089697163286" lon="8.885780331070793"><ele>85.0</ele><time>2026-04-11T11:51:50Z</time></trkpt><trkpt lat="40.83082804942496" lon="8.88571192423879"><ele>85.0</ele><time>2026-04-11T11:51:51Z</time></trkpt><trkpt lat="40.830755986749914" lon="8.885646802214412"><ele>84.6</ele><time>2026-04-11T11:51:52Z</time></trkpt><trkpt lat="40.83068403651384" lon="8.885573686973064"><ele>84.2</ele><time>2026-04-11T11:51:53Z</time></trkpt><trkpt lat="40.83061223977805" lon="8.885488193276862"><ele>83.80000000000001</ele><time>2026-04-11T11:51:54Z</time></trkpt><trkpt lat="40.83053421168577" lon="8.885399048126216"><ele>83.4</ele><time>2026-04-11T11:51:55Z</time></trkpt><trkpt lat="40.83045191160513" lon="8.885310446617066"><ele>83.0</ele><time>2026-04-11T11:51:56Z</time></trkpt><trkpt lat="40.83036924700389" lon="8.885220195425239"><ele>83.0</ele><time>2026-04-11T11:51:57Z</time></trkpt><trkpt lat="40.830288259894814" lon="8.885132856194032"><ele>83.0</ele><time>2026-04-11T11:51:58Z</time></trkpt><trkpt lat="40.83021309454601" lon="8.885047966083347"><ele>83.0</ele><time>2026-04-11T11:51:59Z</time></trkpt><trkpt lat="40.83014105426422" lon="8.884970782121066"><ele>83.0</ele><time>2026-04-11T11:52:00Z</time></trkpt><trkpt lat="40.83007003734636" lon="8.884893455688273"><ele>83.0</ele><time>2026-04-11T11:52:01Z</time></trkpt><trkpt lat="40.83000149171369" lon="8.884812768875742"><ele>83.66666666666667</ele><time>2026-04-11T11:52:02Z</time></trkpt><trkpt lat="40.82993726756022" lon="8.88472686766485"><ele>84.33333333333334</ele><time>2026-04-11T11:52:03Z</time></trkpt><trkpt lat="40.829878503176495" lon="8.88462954463526"><ele>85.0</ele><time>2026-04-11T11:52:04Z</time></trkpt><trkpt lat="40.82982683939566" lon="8.884531294728161"><ele>85.66666666666667</ele><time>2026-04-11T11:52:05Z</time></trkpt><trkpt lat="40.82978575673855" lon="8.884432546124872"><ele>86.33333333333333</ele><time>2026-04-11T11:52:06Z</time></trkpt><trkpt lat="40.82975430572353" lon="8.88433364557589"><ele>87.0</ele><time>2026-04-11T11:52:07Z</time></trkpt><trkpt lat="40.829734390861105" lon="8.884229999392097"><ele>87.0</ele><time>2026-04-11T11:52:08Z</time></trkpt><trkpt lat="40.82972205770796" lon="8.884113838701786"><ele>87.0</ele><time>2026-04-11T11:52:09Z</time></trkpt><trkpt lat="40.82970956340594" lon="8.883989573302548"><ele>87.0</ele><time>2026-04-11T11:52:09.999Z</time></trkpt><trkpt lat="40.82970200625008" lon="8.88386451505273"><ele>87.0</ele><time>2026-04-11T11:52:10.999Z</time></trkpt><trkpt lat="40.82971294284595" lon="8.883741201420978"><ele>87.0</ele><time>2026-04-11T11:52:11.999Z</time></trkpt><trkpt lat="40.82971088963369" lon="8.88361864405482"><ele>87.0</ele><time>2026-04-11T11:52:12.999Z</time></trkpt><trkpt lat="40.829707239418894" lon="8.883488995210953"><ele>87.0</ele><time>2026-04-11T11:52:13.999Z</time></trkpt><trkpt lat="40.82968793772152" lon="8.883352222206907"><ele>87.0</ele><time>2026-04-11T11:52:14.999Z</time></trkpt><trkpt lat="40.82968659147031" lon="8.883202101934446"><ele>87.0</ele><time>2026-04-11T11:52:15.999Z</time></trkpt><trkpt lat="40.82968409240054" lon="8.883041235241466"><ele>87.0</ele><time>2026-04-11T11:52:16.999Z</time></trkpt><trkpt lat="40.82968074890667" lon="8.882878204794187"><ele>86.5</ele><time>2026-04-11T11:52:17.999Z</time></trkpt><trkpt lat="40.829677175536034" lon="8.882716610289561"><ele>86.0</ele><time>2026-04-11T11:52:18.999Z</time></trkpt><trkpt lat="40.829671370290406" lon="8.882559470300013"><ele>85.5</ele><time>2026-04-11T11:52:19.999Z</time></trkpt><trkpt lat="40.8296701423601" lon="8.882408717093664"><ele>85.0</ele><time>2026-04-11T11:52:20.999Z</time></trkpt><trkpt lat="40.82967078548805" lon="8.882260709811447"><ele>84.6</ele><time>2026-04-11T11:52:21.999Z</time></trkpt><trkpt lat="40.82966692827512" lon="8.88212272077259"><ele>84.2</ele><time>2026-04-11T11:52:22.999Z</time></trkpt><trkpt lat="40.82966381210285" lon="8.881997633204424"><ele>83.80000000000001</ele><time>2026-04-11T11:52:23.999Z</time></trkpt><trkpt lat="40.829663098937644" lon="8.88188790800519"><ele>83.4</ele><time>2026-04-11T11:52:24.999Z</time></trkpt><trkpt lat="40.829659757781684" lon="8.881793342788376"><ele>83.0</ele><time>2026-04-11T11:52:25.999Z</time></trkpt><trkpt lat="40.829629604530346" lon="8.881653642860703"><ele>83.0</ele><time>2026-04-11T11:52:27.999Z</time></trkpt><trkpt lat="40.82958865655817" lon="8.881575768291173"><ele>83.0</ele><time>2026-04-11T11:52:29.999Z</time></trkpt><trkpt lat="40.82944465965185" lon="8.88158262656303"><ele>83.0</ele><time>2026-04-11T11:53:08.999Z</time></trkpt><trkpt lat="40.82938065740189" lon="8.881605348981742"><ele>83.0</ele><time>2026-04-11T11:53:09.999Z</time></trkpt><trkpt lat="40.82934811872967" lon="8.881690211521867"><ele>83.0</ele><time>2026-04-11T11:53:10.999Z</time></trkpt><trkpt lat="40.82933895786503" lon="8.881794256943257"><ele>83.0</ele><time>2026-04-11T11:53:11.999Z</time></trkpt><trkpt lat="40.82933225915783" lon="8.881907930376052"><ele>82.80000000000001</ele><time>2026-04-11T11:53:12.999Z</time></trkpt><trkpt lat="40.82932710683088" lon="8.882025533385416"><ele>82.6</ele><time>2026-04-11T11:53:13.999Z</time></trkpt><trkpt lat="40.82929532905382" lon="8.88213268586412"><ele>82.4</ele><time>2026-04-11T11:53:14.999Z</time></trkpt><trkpt lat="40.82926256742963" lon="8.882252005409057"><ele>82.19999999999999</ele><time>2026-04-11T11:53:15.999Z</time></trkpt><trkpt lat="40.8292113517415" lon="8.882362433623316"><ele>82.0</ele><time>2026-04-11T11:53:16.999Z</time></trkpt><trkpt lat="40.829144238775385" lon="8.882463293903848"><ele>81.0</ele><time>2026-04-11T11:53:17.999Z</time></trkpt><trkpt lat="40.82906465014106" lon="8.882561329411658"><ele>80.0</ele><time>2026-04-11T11:53:18.999Z</time></trkpt><trkpt lat="40.828975370347024" lon="8.882658315388824"><ele>79.0</ele><time>2026-04-11T11:53:19.999Z</time></trkpt><trkpt lat="40.82888175165286" lon="8.882760356352303"><ele>78.0</ele><time>2026-04-11T11:53:20.999Z</time></trkpt><trkpt lat="40.82878199600363" lon="8.882863181952562"><ele>78.0</ele><time>2026-04-11T11:53:21.999Z</time></trkpt><trkpt lat="40.82868241719774" lon="8.882969287565567"><ele>78.0</ele><time>2026-04-11T11:53:22.998Z</time></trkpt><trkpt lat="40.82858157987292" lon="8.883078087163401"><ele>78.0</ele><time>2026-04-11T11:53:23.998Z</time></trkpt><trkpt lat="40.82847871962301" lon="8.883185376447171"><ele>78.0</ele><time>2026-04-11T11:53:24.998Z</time></trkpt><trkpt lat="40.82837898739248" lon="8.883300753415508"><ele>76.25</ele><time>2026-04-11T11:53:25.998Z</time></trkpt><trkpt lat="40.82828073009244" lon="8.883418510451627"><ele>74.5</ele><time>2026-04-11T11:53:26.998Z</time></trkpt><trkpt lat="40.82818537518568" lon="8.883538058653233"><ele>72.75</ele><time>2026-04-11T11:53:27.998Z</time></trkpt><trkpt lat="40.828088235767524" lon="8.88365237487871"><ele>71.0</ele><time>2026-04-11T11:53:28.998Z</time></trkpt><trkpt lat="40.82799425507207" lon="8.883766785109938"><ele>71.0</ele><time>2026-04-11T11:53:29.998Z</time></trkpt><trkpt lat="40.82790667974108" lon="8.883882859516495"><ele>71.0</ele><time>2026-04-11T11:53:30.998Z</time></trkpt><trkpt lat="40.827825703194414" lon="8.884000239223028"><ele>71.0</ele><time>2026-04-11T11:53:31.998Z</time></trkpt><trkpt lat="40.82774698324139" lon="8.884115828896736"><ele>71.0</ele><time>2026-04-11T11:53:32.998Z</time></trkpt><trkpt lat="40.82766711191091" lon="8.884221180131535"><ele>69.6</ele><time>2026-04-11T11:53:33.998Z</time></trkpt><trkpt lat="40.8275929914297" lon="8.884323928246793"><ele>68.19999999999999</ele><time>2026-04-11T11:53:34.998Z</time></trkpt><trkpt lat="40.82752429244127" lon="8.884420318505127"><ele>66.80000000000001</ele><time>2026-04-11T11:53:35.998Z</time></trkpt><trkpt lat="40.82745958084546" lon="8.884518119667957"><ele>65.4</ele><time>2026-04-11T11:53:36.998Z</time></trkpt><trkpt lat="40.82740013662228" lon="8.884618527269367"><ele>64.0</ele><time>2026-04-11T11:53:37.998Z</time></trkpt><trkpt lat="40.82734718523654" lon="8.884722804725516"><ele>64.0</ele><time>2026-04-11T11:53:38.998Z</time></trkpt><trkpt lat="40.82730091210759" lon="8.884834810933208"><ele>64.0</ele><time>2026-04-11T11:53:39.998Z</time></trkpt><trkpt lat="40.82725696426846" lon="8.8849448035306"><ele>64.0</ele><time>2026-04-11T11:53:40.998Z</time></trkpt><trkpt lat="40.82721313802755" lon="8.885053299200537"><ele>64.0</ele><time>2026-04-11T11:53:41.998Z</time></trkpt><trkpt lat="40.82716903403152" lon="8.885156072584813"><ele>64.0</ele><time>2026-04-11T11:53:42.998Z</time></trkpt><trkpt lat="40.82711729448163" lon="8.885240900767684"><ele>65.33333333333333</ele><time>2026-04-11T11:53:43.998Z</time></trkpt><trkpt lat="40.82706065574749" lon="8.885322292646178"><ele>66.66666666666666</ele><time>2026-04-11T11:53:44.998Z</time></trkpt><trkpt lat="40.82699327650597" lon="8.885384773011777"><ele>68.0</ele><time>2026-04-11T11:53:45.998Z</time></trkpt><trkpt lat="40.82692335642819" lon="8.885428926433649"><ele>69.33333333333333</ele><time>2026-04-11T11:53:46.998Z</time></trkpt><trkpt lat="40.8268563982573" lon="8.885471633871944"><ele>70.66666666666667</ele><time>2026-04-11T11:53:47.998Z</time></trkpt><trkpt lat="40.826757816951464" lon="8.885506062482207"><ele>72.0</ele><time>2026-04-11T11:53:48.998Z</time></trkpt><trkpt lat="40.82672327349157" lon="8.88560000079793"><ele>69.4</ele><time>2026-04-11T11:53:49.998Z</time></trkpt><trkpt lat="40.82669585647767" lon="8.885715561049844"><ele>66.80000000000001</ele><time>2026-04-11T11:53:50.998Z</time></trkpt><trkpt lat="40.82664650185105" lon="8.885830010777124"><ele>64.2</ele><time>2026-04-11T11:53:51.998Z</time></trkpt><trkpt lat="40.82659504147735" lon="8.885952911616792"><ele>61.6</ele><time>2026-04-11T11:53:52.998Z</time></trkpt><trkpt lat="40.826542799992275" lon="8.886083067551294"><ele>59.0</ele><time>2026-04-11T11:53:53.998Z</time></trkpt><trkpt lat="40.82648860046105" lon="8.886220981393826"><ele>59.0</ele><time>2026-04-11T11:53:54.998Z</time></trkpt><trkpt lat="40.82643092507269" lon="8.886363689766544"><ele>59.0</ele><time>2026-04-11T11:53:55.998Z</time></trkpt><trkpt lat="40.826371896432576" lon="8.886510920645286"><ele>59.0</ele><time>2026-04-11T11:53:56.998Z</time></trkpt><trkpt lat="40.82631390753293" lon="8.886660924032194"><ele>59.0</ele><time>2026-04-11T11:53:57.998Z</time></trkpt><trkpt lat="40.82625419156047" lon="8.886812648703422"><ele>61.0</ele><time>2026-04-11T11:53:58.998Z</time></trkpt><trkpt lat="40.82619416874544" lon="8.8869656813893"><ele>63.0</ele><time>2026-04-11T11:53:59.998Z</time></trkpt><trkpt lat="40.82613185357326" lon="8.887111102198482"><ele>65.0</ele><time>2026-04-11T11:54:00.998Z</time></trkpt><trkpt lat="40.82607220641331" lon="8.887254087388314"><ele>67.0</ele><time>2026-04-11T11:54:01.998Z</time></trkpt><trkpt lat="40.826017428138584" lon="8.887393639225214"><ele>64.6</ele><time>2026-04-11T11:54:02.998Z</time></trkpt><trkpt lat="40.825967604877064" lon="8.887525993569433"><ele>62.2</ele><time>2026-04-11T11:54:03.998Z</time></trkpt><trkpt lat="40.82592743244432" lon="8.887649830986982"><ele>59.8</ele><time>2026-04-11T11:54:04.998Z</time></trkpt><trkpt lat="40.82587661912558" lon="8.887760428925683"><ele>57.4</ele><time>2026-04-11T11:54:05.998Z</time></trkpt><trkpt lat="40.82586674015938" lon="8.88788132037205"><ele>55.0</ele><time>2026-04-11T11:54:06.998Z</time></trkpt><trkpt lat="40.82587021446427" lon="8.88797811214391"><ele>54.99999999999999</ele><time>2026-04-11T11:54:07.998Z</time></trkpt><trkpt lat="40.82587792924758" lon="8.888061419742462"><ele>55.0</ele><time>2026-04-11T11:54:08.998Z</time></trkpt><trkpt lat="40.825902981590325" lon="8.888193449795969"><ele>55.0</ele><time>2026-04-11T11:54:10.998Z</time></trkpt><trkpt lat="40.8258786256015" lon="8.888293140500647"><ele>55.0</ele><time>2026-04-11T11:54:12.998Z</time></trkpt><trkpt lat="40.825797541861135" lon="8.888365982584606"><ele>54.99999999999999</ele><time>2026-04-11T11:54:14.998Z</time></trkpt><trkpt lat="40.82571952216028" lon="8.888421109465753"><ele>55.0</ele><time>2026-04-11T11:54:16.998Z</time></trkpt><trkpt lat="40.825635128047885" lon="8.88838519951826"><ele>55.0</ele><time>2026-04-11T11:54:19.998Z</time></trkpt><trkpt lat="40.8255666293958" lon="8.888294999169792"><ele>55.0</ele><time>2026-04-11T11:54:21.998Z</time></trkpt><trkpt lat="40.82547722583723" lon="8.888191450792943"><ele>55.0</ele><time>2026-04-11T11:54:23.998Z</time></trkpt><trkpt lat="40.825388168558995" lon="8.888127835644928"><ele>55.0</ele><time>2026-04-11T11:54:25.998Z</time></trkpt><trkpt lat="40.82531856439054" lon="8.88812022054359"><ele>55.0</ele><time>2026-04-11T11:54:26.998Z</time></trkpt><trkpt lat="40.82521115988824" lon="8.88821307472493"><ele>55.0</ele><time>2026-04-11T11:54:28.998Z</time></trkpt><trkpt lat="40.825178353534554" lon="8.888359459207466"><ele>55.0</ele><time>2026-04-11T11:54:29.998Z</time></trkpt><trkpt lat="40.82515193300075" lon="8.888467945431811"><ele>55.0</ele><time>2026-04-11T11:54:30.998Z</time></trkpt><trkpt lat="40.82512660590388" lon="8.888583533497444"><ele>55.0</ele><time>2026-04-11T11:54:31.998Z</time></trkpt><trkpt lat="40.82509371502094" lon="8.888702319928115"><ele>55.0</ele><time>2026-04-11T11:54:32.998Z</time></trkpt><trkpt lat="40.82505417436009" lon="8.888825302086843"><ele>55.2</ele><time>2026-04-11T11:54:33.998Z</time></trkpt><trkpt lat="40.82501410647257" lon="8.888949299152854"><ele>55.4</ele><time>2026-04-11T11:54:34.998Z</time></trkpt><trkpt lat="40.82497172432418" lon="8.889074804404444"><ele>55.599999999999994</ele><time>2026-04-11T11:54:35.997Z</time></trkpt><trkpt lat="40.8249243941465" lon="8.889207577423697"><ele>55.8</ele><time>2026-04-11T11:54:36.997Z</time></trkpt><trkpt lat="40.82487391211606" lon="8.889347951523767"><ele>56.0</ele><time>2026-04-11T11:54:37.997Z</time></trkpt><trkpt lat="40.82482240036305" lon="8.889491188913954"><ele>56.0</ele><time>2026-04-11T11:54:38.997Z</time></trkpt><trkpt lat="40.82477239090652" lon="8.889637886205978"><ele>56.0</ele><time>2026-04-11T11:54:39.997Z</time></trkpt><trkpt lat="40.82472217979132" lon="8.88978093828335"><ele>56.0</ele><time>2026-04-11T11:54:40.997Z</time></trkpt><trkpt lat="40.824672346008064" lon="8.889925088770964"><ele>56.0</ele><time>2026-04-11T11:54:41.997Z</time></trkpt><trkpt lat="40.82463388154834" lon="8.89007093321464"><ele>56.75</ele><time>2026-04-11T11:54:42.997Z</time></trkpt><trkpt lat="40.82461631223564" lon="8.890223181871297"><ele>57.5</ele><time>2026-04-11T11:54:43.997Z</time></trkpt><trkpt lat="40.8246230653516" lon="8.890382850466093"><ele>58.25</ele><time>2026-04-11T11:54:44.997Z</time></trkpt><trkpt lat="40.82459850018635" lon="8.890545025620211"><ele>59.0</ele><time>2026-04-11T11:54:45.997Z</time></trkpt><trkpt lat="40.82459153669935" lon="8.89071380153528"><ele>59.0</ele><time>2026-04-11T11:54:46.997Z</time></trkpt><trkpt lat="40.82460211427391" lon="8.890880613922958"><ele>59.0</ele><time>2026-04-11T11:54:47.997Z</time></trkpt><trkpt lat="40.82459680041675" lon="8.891038042246468"><ele>59.0</ele><time>2026-04-11T11:54:48.997Z</time></trkpt><trkpt lat="40.82459757257189" lon="8.891191526952833"><ele>59.0</ele><time>2026-04-11T11:54:49.997Z</time></trkpt><trkpt lat="40.82460888429634" lon="8.891339534232255"><ele>57.5</ele><time>2026-04-11T11:54:50.997Z</time></trkpt><trkpt lat="40.824628570445505" lon="8.89148819169433"><ele>56.0</ele><time>2026-04-11T11:54:51.997Z</time></trkpt><trkpt lat="40.82465844758636" lon="8.891634602887711"><ele>54.5</ele><time>2026-04-11T11:54:52.997Z</time></trkpt><trkpt lat="40.824702771236716" lon="8.891776476555219"><ele>53.0</ele><time>2026-04-11T11:54:53.997Z</time></trkpt><trkpt lat="40.82475676395947" lon="8.891914918496301"><ele>51.25</ele><time>2026-04-11T11:54:54.997Z</time></trkpt><trkpt lat="40.82481628306782" lon="8.892054297025846"><ele>49.5</ele><time>2026-04-11T11:54:55.997Z</time></trkpt><trkpt lat="40.824888967083766" lon="8.892185919146238"><ele>47.75</ele><time>2026-04-11T11:54:56.997Z</time></trkpt><trkpt lat="40.82496639078434" lon="8.892321436894086"><ele>46.0</ele><time>2026-04-11T11:54:57.997Z</time></trkpt><trkpt lat="40.82506037757931" lon="8.892437754877264"><ele>46.75</ele><time>2026-04-11T11:54:58.997Z</time></trkpt><trkpt lat="40.8251595956514" lon="8.892551040074284"><ele>47.5</ele><time>2026-04-11T11:54:59.997Z</time></trkpt><trkpt lat="40.82525821562057" lon="8.892665869219488"><ele>48.25</ele><time>2026-04-11T11:55:00.997Z</time></trkpt><trkpt lat="40.825354671638124" lon="8.892784844156068"><ele>49.0</ele><time>2026-04-11T11:55:01.997Z</time></trkpt><trkpt lat="40.82545483265502" lon="8.892907032379705"><ele>49.0</ele><time>2026-04-11T11:55:02.997Z</time></trkpt><trkpt lat="40.82555922925156" lon="8.893032421200902"><ele>49.0</ele><time>2026-04-11T11:55:03.997Z</time></trkpt><trkpt lat="40.8256642149959" lon="8.893163394050486"><ele>49.0</ele><time>2026-04-11T11:55:04.997Z</time></trkpt><trkpt lat="40.82576633544233" lon="8.89329462188872"><ele>49.0</ele><time>2026-04-11T11:55:05.997Z</time></trkpt><trkpt lat="40.825862811988614" lon="8.89342321886506"><ele>48.5</ele><time>2026-04-11T11:55:06.997Z</time></trkpt><trkpt lat="40.82595303251262" lon="8.89354421910667"><ele>48.0</ele><time>2026-04-11T11:55:07.997Z</time></trkpt><trkpt lat="40.82603689116658" lon="8.893656069029864"><ele>47.5</ele><time>2026-04-11T11:55:08.997Z</time></trkpt><trkpt lat="40.82610939299885" lon="8.893763557671255"><ele>47.0</ele><time>2026-04-11T11:55:09.997Z</time></trkpt><trkpt lat="40.826171697046505" lon="8.893857708366438"><ele>47.0</ele><time>2026-04-11T11:55:10.997Z</time></trkpt><trkpt lat="40.82620958536937" lon="8.893950527209583"><ele>47.0</ele><time>2026-04-11T11:55:11.997Z</time></trkpt><trkpt lat="40.826182747892574" lon="8.894026306002875"><ele>47.0</ele><time>2026-04-11T11:55:12.997Z</time></trkpt><trkpt lat="40.82609986829104" lon="8.894151116078055"><ele>47.0</ele><time>2026-04-11T11:55:14.997Z</time></trkpt><trkpt lat="40.826024759571126" lon="8.894222176973116"><ele>47.0</ele><time>2026-04-11T11:55:15.997Z</time></trkpt><trkpt lat="40.82593797525877" lon="8.894300250948518"><ele>45.25</ele><time>2026-04-11T11:55:16.997Z</time></trkpt><trkpt lat="40.82584380161227" lon="8.894384972604556"><ele>43.5</ele><time>2026-04-11T11:55:17.997Z</time></trkpt><trkpt lat="40.82574601045417" lon="8.89447803465953"><ele>41.75</ele><time>2026-04-11T11:55:18.997Z</time></trkpt><trkpt lat="40.825650812996024" lon="8.894578255349483"><ele>40.0</ele><time>2026-04-11T11:55:19.997Z</time></trkpt><trkpt lat="40.82556758781485" lon="8.894681658523544"><ele>40.0</ele><time>2026-04-11T11:55:20.997Z</time></trkpt><trkpt lat="40.82548821108637" lon="8.89478579730843"><ele>40.0</ele><time>2026-04-11T11:55:21.997Z</time></trkpt><trkpt lat="40.82541031048468" lon="8.894898839825105"><ele>40.0</ele><time>2026-04-11T11:55:22.997Z</time></trkpt><trkpt lat="40.82534256831537" lon="8.895027130373528"><ele>40.0</ele><time>2026-04-11T11:55:23.997Z</time></trkpt><trkpt lat="40.825289870932096" lon="8.895165617698991"><ele>39.75</ele><time>2026-04-11T11:55:24.997Z</time></trkpt><trkpt lat="40.8252100275247" lon="8.895278962120914"><ele>39.5</ele><time>2026-04-11T11:55:25.997Z</time></trkpt><trkpt lat="40.825142326927946" lon="8.895407595421403"><ele>39.25</ele><time>2026-04-11T11:55:26.997Z</time></trkpt><trkpt lat="40.82507176296232" lon="8.895539897801642"><ele>39.0</ele><time>2026-04-11T11:55:27.997Z</time></trkpt><trkpt lat="40.8249996956758" lon="8.895676008316387"><ele>39.5</ele><time>2026-04-11T11:55:28.997Z</time></trkpt><trkpt lat="40.82492781343367" lon="8.89581538378602"><ele>40.0</ele><time>2026-04-11T11:55:29.997Z</time></trkpt><trkpt lat="40.824855879580255" lon="8.895957802302366"><ele>40.5</ele><time>2026-04-11T11:55:30.997Z</time></trkpt><trkpt lat="40.82478509520358" lon="8.896102049166178"><ele>41.0</ele><time>2026-04-11T11:55:31.997Z</time></trkpt><trkpt lat="40.82472965811272" lon="8.896262410913119"><ele>41.25</ele><time>2026-04-11T11:55:32.997Z</time></trkpt><trkpt lat="40.82465829576465" lon="8.896407256593049"><ele>41.5</ele><time>2026-04-11T11:55:33.997Z</time></trkpt><trkpt lat="40.82459306494641" lon="8.896547328281867"><ele>41.75</ele><time>2026-04-11T11:55:34.997Z</time></trkpt><trkpt lat="40.82453471878729" lon="8.896676794673356"><ele>42.0</ele><time>2026-04-11T11:55:35.997Z</time></trkpt><trkpt lat="40.82448311569611" lon="8.89679089948026"><ele>42.0</ele><time>2026-04-11T11:55:36.997Z</time></trkpt><trkpt lat="40.82443901628651" lon="8.89688908627867"><ele>42.0</ele><time>2026-04-11T11:55:37.997Z</time></trkpt><trkpt lat="40.82440273698678" lon="8.896969108101882"><ele>42.0</ele><time>2026-04-11T11:55:38.997Z</time></trkpt><trkpt lat="40.82434403813759" lon="8.89707048338861"><ele>42.0</ele><time>2026-04-11T11:55:40.997Z</time></trkpt><trkpt lat="40.82429699557085" lon="8.897141882366341"><ele>42.0</ele><time>2026-04-11T11:55:42.997Z</time></trkpt><trkpt lat="40.824259773633635" lon="8.89721111430231"><ele>42.0</ele><time>2026-04-11T11:55:44.997Z</time></trkpt><trkpt lat="40.82420439511865" lon="8.89731521980767"><ele>42.5</ele><time>2026-04-11T11:55:54.996Z</time></trkpt><trkpt lat="40.82416114429027" lon="8.897396012310807"><ele>43.0</ele><time>2026-04-11T11:55:55.996Z</time></trkpt><trkpt lat="40.82411639142805" lon="8.89748602073731"><ele>43.5</ele><time>2026-04-11T11:55:56.996Z</time></trkpt><trkpt lat="40.82407548803684" lon="8.897617567984712"><ele>44.0</ele><time>2026-04-11T11:55:58.996Z</time></trkpt><trkpt lat="40.82413862168027" lon="8.897665502121436"><ele>44.5</ele><time>2026-04-11T11:56:00.996Z</time></trkpt><trkpt lat="40.824190793294264" lon="8.897713763282553"><ele>45.0</ele><time>2026-04-11T11:56:01.996Z</time></trkpt><trkpt lat="40.82425750802942" lon="8.897775761779123"><ele>44.8</ele><time>2026-04-11T11:56:02.996Z</time></trkpt><trkpt lat="40.82432854028105" lon="8.897848230789497"><ele>44.6</ele><time>2026-04-11T11:56:03.996Z</time></trkpt><trkpt lat="40.824406704998786" lon="8.89792797652115"><ele>44.400000000000006</ele><time>2026-04-11T11:56:04.996Z</time></trkpt><trkpt lat="40.82449082941973" lon="8.898013802521437"><ele>44.2</ele><time>2026-04-11T11:56:05.996Z</time></trkpt><trkpt lat="40.82457977356347" lon="8.898104545720964"><ele>44.0</ele><time>2026-04-11T11:56:06.996Z</time></trkpt><trkpt lat="40.82466978193668" lon="8.898198077736529"><ele>44.0</ele><time>2026-04-11T11:56:07.996Z</time></trkpt><trkpt lat="40.82474319994746" lon="8.898308218854886"><ele>44.0</ele><time>2026-04-11T11:56:08.996Z</time></trkpt><trkpt lat="40.824823972104255" lon="8.898409542153358"><ele>44.0</ele><time>2026-04-11T11:56:09.996Z</time></trkpt><trkpt lat="40.82490177639611" lon="8.898524551800964"><ele>44.0</ele><time>2026-04-11T11:56:10.996Z</time></trkpt><trkpt lat="40.82498396853591" lon="8.898647524287355"><ele>43.75</ele><time>2026-04-11T11:56:11.996Z</time></trkpt><trkpt lat="40.82506167804073" lon="8.898776986630986"><ele>43.5</ele><time>2026-04-11T11:56:12.996Z</time></trkpt><trkpt lat="40.825139969818785" lon="8.89890585332959"><ele>43.25</ele><time>2026-04-11T11:56:13.996Z</time></trkpt><trkpt lat="40.8252141668545" lon="8.899037976519502"><ele>43.0</ele><time>2026-04-11T11:56:14.996Z</time></trkpt><trkpt lat="40.82528661679525" lon="8.89917319284172"><ele>42.0</ele><time>2026-04-11T11:56:15.996Z</time></trkpt><trkpt lat="40.82535938355806" lon="8.899309262588556"><ele>41.0</ele><time>2026-04-11T11:56:16.996Z</time></trkpt><trkpt lat="40.825431294472395" lon="8.8994483130029"><ele>40.0</ele><time>2026-04-11T11:56:17.996Z</time></trkpt><trkpt lat="40.82550157761316" lon="8.899588619133398"><ele>39.0</ele><time>2026-04-11T11:56:18.996Z</time></trkpt><trkpt lat="40.82556845692665" lon="8.899733100536135"><ele>39.0</ele><time>2026-04-11T11:56:19.996Z</time></trkpt><trkpt lat="40.825634304724026" lon="8.89988139456195"><ele>39.0</ele><time>2026-04-11T11:56:20.996Z</time></trkpt><trkpt lat="40.82570029761029" lon="8.900027801146633"><ele>39.0</ele><time>2026-04-11T11:56:21.996Z</time></trkpt><trkpt lat="40.82576264988202" lon="8.900176743159337"><ele>39.0</ele><time>2026-04-11T11:56:22.996Z</time></trkpt><trkpt lat="40.82581809695946" lon="8.900332323710286"><ele>39.0</ele><time>2026-04-11T11:56:23.996Z</time></trkpt><trkpt lat="40.825855178588334" lon="8.900498604893182"><ele>39.0</ele><time>2026-04-11T11:56:24.996Z</time></trkpt><trkpt lat="40.825903999457246" lon="8.90066048774267"><ele>39.0</ele><time>2026-04-11T11:56:25.996Z</time></trkpt><trkpt lat="40.82595223270712" lon="8.900824882065132"><ele>39.0</ele><time>2026-04-11T11:56:26.996Z</time></trkpt><trkpt lat="40.825997212344774" lon="8.900993312208389"><ele>38.75</ele><time>2026-04-11T11:56:27.996Z</time></trkpt><trkpt lat="40.826037472193256" lon="8.901161542048774"><ele>38.5</ele><time>2026-04-11T11:56:28.996Z</time></trkpt><trkpt lat="40.82607354351666" lon="8.901325866447321"><ele>38.25</ele><time>2026-04-11T11:56:29.996Z</time></trkpt><trkpt lat="40.826107478518836" lon="8.90148748233009"><ele>38.0</ele><time>2026-04-11T11:56:30.996Z</time></trkpt><trkpt lat="40.826132733675145" lon="8.901646817956713"><ele>38.0</ele><time>2026-04-11T11:56:31.996Z</time></trkpt><trkpt lat="40.826152332547785" lon="8.901806846592237"><ele>38.0</ele><time>2026-04-11T11:56:32.996Z</time></trkpt><trkpt lat="40.82616775346621" lon="8.901964421746323"><ele>38.0</ele><time>2026-04-11T11:56:33.996Z</time></trkpt><trkpt lat="40.82617867602883" lon="8.902121384537244"><ele>38.0</ele><time>2026-04-11T11:56:34.996Z</time></trkpt><trkpt lat="40.82618199574608" lon="8.902277856381557"><ele>38.0</ele><time>2026-04-11T11:56:35.996Z</time></trkpt><trkpt lat="40.82616911061116" lon="8.902428484822595"><ele>38.0</ele><time>2026-04-11T11:56:36.996Z</time></trkpt><trkpt lat="40.82614902293459" lon="8.902578783957123"><ele>38.0</ele><time>2026-04-11T11:56:37.996Z</time></trkpt><trkpt lat="40.82612143312366" lon="8.902724763726182"><ele>38.0</ele><time>2026-04-11T11:56:38.996Z</time></trkpt><trkpt lat="40.826081826618434" lon="8.902862328688153"><ele>38.0</ele><time>2026-04-11T11:56:39.996Z</time></trkpt><trkpt lat="40.82602695936611" lon="8.902982589229127"><ele>38.0</ele><time>2026-04-11T11:56:40.996Z</time></trkpt><trkpt lat="40.82595994268825" lon="8.903102202221493"><ele>38.0</ele><time>2026-04-11T11:56:41.996Z</time></trkpt><trkpt lat="40.825893691539676" lon="8.903221057100172"><ele>38.0</ele><time>2026-04-11T11:56:42.996Z</time></trkpt><trkpt lat="40.82584163831121" lon="8.90334286480515"><ele>38.0</ele><time>2026-04-11T11:56:43.996Z</time></trkpt><trkpt lat="40.82583419024939" lon="8.90346655428508"><ele>38.0</ele><time>2026-04-11T11:56:44.996Z</time></trkpt><trkpt lat="40.82582440781993" lon="8.903566081783651"><ele>38.0</ele><time>2026-04-11T11:56:45.996Z</time></trkpt><trkpt lat="40.82584310107068" lon="8.903674908483493"><ele>38.0</ele><time>2026-04-11T11:56:46.996Z</time></trkpt><trkpt lat="40.825872974103284" lon="8.903791013447787"><ele>38.0</ele><time>2026-04-11T11:56:47.996Z</time></trkpt><trkpt lat="40.82588238280433" lon="8.90391315053702"><ele>38.0</ele><time>2026-04-11T11:56:48.996Z</time></trkpt><trkpt lat="40.82590324708274" lon="8.904025792384104"><ele>38.0</ele><time>2026-04-11T11:56:49.996Z</time></trkpt><trkpt lat="40.82592336489388" lon="8.904120583291293"><ele>38.33333333333333</ele><time>2026-04-11T11:56:50.996Z</time></trkpt><trkpt lat="40.82591705720539" lon="8.904275603602336"><ele>38.666666666666664</ele><time>2026-04-11T11:56:52.996Z</time></trkpt><trkpt lat="40.82588046710677" lon="8.904345393584753"><ele>39.0</ele><time>2026-04-11T11:56:53.996Z</time></trkpt><trkpt lat="40.82581009319982" lon="8.90439314499896"><ele>39.333333333333336</ele><time>2026-04-11T11:56:54.996Z</time></trkpt><trkpt lat="40.82572284025389" lon="8.904428323736827"><ele>39.66666666666667</ele><time>2026-04-11T11:56:55.996Z</time></trkpt><trkpt lat="40.825645355850206" lon="8.904493058755913"><ele>40.0</ele><time>2026-04-11T11:56:56.996Z</time></trkpt><trkpt lat="40.82559890075363" lon="8.904601473293651"><ele>40.0</ele><time>2026-04-11T11:56:57.996Z</time></trkpt><trkpt lat="40.82555194947695" lon="8.90471726533609"><ele>40.0</ele><time>2026-04-11T11:56:58.996Z</time></trkpt><trkpt lat="40.82552588621079" lon="8.904855486706406"><ele>40.0</ele><time>2026-04-11T11:56:59.996Z</time></trkpt><trkpt lat="40.82550598365816" lon="8.905004236549292"><ele>40.0</ele><time>2026-04-11T11:57:00.996Z</time></trkpt><trkpt lat="40.82548165607759" lon="8.905155286271304"><ele>40.0</ele><time>2026-04-11T11:57:01.996Z</time></trkpt><trkpt lat="40.825443121481854" lon="8.905300973906657"><ele>40.25</ele><time>2026-04-11T11:57:02.995Z</time></trkpt><trkpt lat="40.825414853840655" lon="8.905453570935181"><ele>40.5</ele><time>2026-04-11T11:57:03.995Z</time></trkpt><trkpt lat="40.82538628936676" lon="8.905607770347691"><ele>40.75</ele><time>2026-04-11T11:57:04.995Z</time></trkpt><trkpt lat="40.825359991850384" lon="8.905766788864064"><ele>41.0</ele><time>2026-04-11T11:57:05.995Z</time></trkpt><trkpt lat="40.82533360527013" lon="8.905927464084597"><ele>42.0</ele><time>2026-04-11T11:57:06.995Z</time></trkpt><trkpt lat="40.82530959855202" lon="8.90609107329616"><ele>42.0</ele><time>2026-04-11T11:57:07.995Z</time></trkpt><trkpt lat="40.82528601547229" lon="8.906252368528612"><ele>42.0</ele><time>2026-04-11T11:57:08.995Z</time></trkpt></trkseg><trkseg><trkpt lat="40.91825632921273" lon="8.894586200722681"><ele>36.0</ele><time>2026-04-11T12:22:18.999Z</time></trkpt><trkpt lat="40.91820167877594" lon="8.894649634498736"><ele>36.0</ele><time>2026-04-11T12:22:37.999Z</time></trkpt><trkpt lat="40.918132942092605" lon="8.89460140562635"><ele>36.0</ele><time>2026-04-11T12:23:01.999Z</time></trkpt><trkpt lat="40.91804916637703" lon="8.894577992065935"><ele>36.0</ele><time>2026-04-11T12:23:03.999Z</time></trkpt><trkpt lat="40.9179697235573" lon="8.894585203094886"><ele>36.0</ele><time>2026-04-11T12:23:05.999Z</time></trkpt><trkpt lat="40.91789628187359" lon="8.894524073043632"><ele>36.0</ele><time>2026-04-11T12:23:07.999Z</time></trkpt><trkpt lat="40.91788186867656" lon="8.894441369917596"><ele>36.0</ele><time>2026-04-11T12:23:08.999Z</time></trkpt><trkpt lat="40.91784884794212" lon="8.894359971066534"><ele>36.0</ele><time>2026-04-11T12:23:09.999Z</time></trkpt><trkpt lat="40.91782318527258" lon="8.894281486816725"><ele>36.0</ele><time>2026-04-11T12:23:10.999Z</time></trkpt><trkpt lat="40.91781743934666" lon="8.89419502902332"><ele>36.0</ele><time>2026-04-11T12:23:11.999Z</time></trkpt><trkpt lat="40.9178394574565" lon="8.894096021681298"><ele>36.0</ele><time>2026-04-11T12:23:12.999Z</time></trkpt><trkpt lat="40.91785948540899" lon="8.893971096619795"><ele>36.0</ele><time>2026-04-11T12:23:13.999Z</time></trkpt><trkpt lat="40.917871988271656" lon="8.893840623629488"><ele>36.0</ele><time>2026-04-11T12:23:14.998Z</time></trkpt><trkpt lat="40.91786155776609" lon="8.893733491597567"><ele>36.0</ele><time>2026-04-11T12:23:15.998Z</time></trkpt><trkpt lat="40.917835707214785" lon="8.893643910669216"><ele>36.0</ele><time>2026-04-11T12:23:16.998Z</time></trkpt><trkpt lat="40.917736389392665" lon="8.893574302494045"><ele>36.0</ele><time>2026-04-11T12:23:18.998Z</time></trkpt><trkpt lat="40.91766071316044" lon="8.893591187810667"><ele>36.0</ele><time>2026-04-11T12:23:19.998Z</time></trkpt><trkpt lat="40.91757731536055" lon="8.89360901351685"><ele>36.0</ele><time>2026-04-11T12:23:20.998Z</time></trkpt><trkpt lat="40.91749757220819" lon="8.893616077122644"><ele>35.0</ele><time>2026-04-11T12:23:21.998Z</time></trkpt><trkpt lat="40.917391278446466" lon="8.89360004716821"><ele>34.0</ele><time>2026-04-11T12:23:22.998Z</time></trkpt><trkpt lat="40.91728061238354" lon="8.893572807057902"><ele>33.0</ele><time>2026-04-11T12:23:23.998Z</time></trkpt><trkpt lat="40.917153520400824" lon="8.893543046025806"><ele>32.0</ele><time>2026-04-11T12:23:24.998Z</time></trkpt><trkpt lat="40.917028291996026" lon="8.893515625846671"><ele>32.0</ele><time>2026-04-11T12:23:25.998Z</time></trkpt><trkpt lat="40.91689843333597" lon="8.893491410411995"><ele>32.0</ele><time>2026-04-11T12:23:26.998Z</time></trkpt><trkpt lat="40.91676663625153" lon="8.89345893846987"><ele>32.0</ele><time>2026-04-11T12:23:27.998Z</time></trkpt><trkpt lat="40.91663147677958" lon="8.89342151287177"><ele>32.0</ele><time>2026-04-11T12:23:28.998Z</time></trkpt><trkpt lat="40.916490583973534" lon="8.893387132604648"><ele>31.75</ele><time>2026-04-11T12:23:29.998Z</time></trkpt><trkpt lat="40.91636369174562" lon="8.893291542576511"><ele>31.5</ele><time>2026-04-11T12:23:30.998Z</time></trkpt><trkpt lat="40.9162273721474" lon="8.893259410643212"><ele>31.25</ele><time>2026-04-11T12:23:31.998Z</time></trkpt><trkpt lat="40.91609168005024" lon="8.893224827636649"><ele>31.0</ele><time>2026-04-11T12:23:32.998Z</time></trkpt><trkpt lat="40.91595769375923" lon="8.89319135920285"><ele>30.75</ele><time>2026-04-11T12:23:33.998Z</time></trkpt><trkpt lat="40.915826742489834" lon="8.893163083440685"><ele>30.5</ele><time>2026-04-11T12:23:34.998Z</time></trkpt><trkpt lat="40.915694848268046" lon="8.89313248418035"><ele>30.25</ele><time>2026-04-11T12:23:35.998Z</time></trkpt><trkpt lat="40.915564158647896" lon="8.893093452984667"><ele>30.0</ele><time>2026-04-11T12:23:36.998Z</time></trkpt><trkpt lat="40.91543628015756" lon="8.89304194259962"><ele>30.0</ele><time>2026-04-11T12:23:37.998Z</time></trkpt><trkpt lat="40.91530957018757" lon="8.892983197895813"><ele>30.0</ele><time>2026-04-11T12:23:38.998Z</time></trkpt><trkpt lat="40.91517997670916" lon="8.892920609194379"><ele>30.0</ele><time>2026-04-11T12:23:39.998Z</time></trkpt><trkpt lat="40.91505274518244" lon="8.892847930348433"><ele>30.0</ele><time>2026-04-11T12:23:40.998Z</time></trkpt><trkpt lat="40.91491889722025" lon="8.892776633882086"><ele>29.0</ele><time>2026-04-11T12:23:41.998Z</time></trkpt><trkpt lat="40.914783501050785" lon="8.892705712275255"><ele>28.0</ele><time>2026-04-11T12:23:42.998Z</time></trkpt><trkpt lat="40.91465281598869" lon="8.892637258387577"><ele>27.0</ele><time>2026-04-11T12:23:43.998Z</time></trkpt><trkpt lat="40.91452634234711" lon="8.892572004560813"><ele>26.0</ele><time>2026-04-11T12:23:44.998Z</time></trkpt><trkpt lat="40.91440224791734" lon="8.892506671856482"><ele>25.75</ele><time>2026-04-11T12:23:45.998Z</time></trkpt><trkpt lat="40.91427831308956" lon="8.892445026380086"><ele>25.5</ele><time>2026-04-11T12:23:46.998Z</time></trkpt><trkpt lat="40.9141608797931" lon="8.892384216540597"><ele>25.25</ele><time>2026-04-11T12:23:47.998Z</time></trkpt><trkpt lat="40.914050585148665" lon="8.892325980263964"><ele>25.0</ele><time>2026-04-11T12:23:48.998Z</time></trkpt><trkpt lat="40.91394547665343" lon="8.892268104343637"><ele>25.0</ele><time>2026-04-11T12:23:49.998Z</time></trkpt><trkpt lat="40.913848851747225" lon="8.892211510505549"><ele>25.0</ele><time>2026-04-11T12:23:50.998Z</time></trkpt><trkpt lat="40.91376560778582" lon="8.89215531070395"><ele>25.0</ele><time>2026-04-11T12:23:51.998Z</time></trkpt><trkpt lat="40.91370538564406" lon="8.892085207346197"><ele>25.0</ele><time>2026-04-11T12:23:52.998Z</time></trkpt><trkpt lat="40.91365386330041" lon="8.891987662191442"><ele>25.0</ele><time>2026-04-11T12:23:53.998Z</time></trkpt><trkpt lat="40.913598576765715" lon="8.891868750342859"><ele>25.0</ele><time>2026-04-11T12:23:54.998Z</time></trkpt><trkpt lat="40.91351978574426" lon="8.89177350904073"><ele>25.0</ele><time>2026-04-11T12:23:55.998Z</time></trkpt><trkpt lat="40.91342245891407" lon="8.891714024425896"><ele>25.0</ele><time>2026-04-11T12:23:56.998Z</time></trkpt><trkpt lat="40.91333780352494" lon="8.891635970500184"><ele>25.0</ele><time>2026-04-11T12:23:57.998Z</time></trkpt><trkpt lat="40.91325874538257" lon="8.891555857525674"><ele>25.0</ele><time>2026-04-11T12:23:58.998Z</time></trkpt><trkpt lat="40.91321132434377" lon="8.891451694845259"><ele>24.8</ele><time>2026-04-11T12:23:59.998Z</time></trkpt><trkpt lat="40.91316356193849" lon="8.8913538035602"><ele>24.6</ele><time>2026-04-11T12:24:00.998Z</time></trkpt><trkpt lat="40.91311875089518" lon="8.891230010094"><ele>24.4</ele><time>2026-04-11T12:24:01.998Z</time></trkpt><trkpt lat="40.913070633916874" lon="8.89109345214983"><ele>24.2</ele><time>2026-04-11T12:24:02.998Z</time></trkpt><trkpt lat="40.91301962145401" lon="8.890948189940598"><ele>24.0</ele><time>2026-04-11T12:24:03.998Z</time></trkpt><trkpt lat="40.91297017525932" lon="8.890798097543898"><ele>23.75</ele><time>2026-04-11T12:24:04.998Z</time></trkpt><trkpt lat="40.912916375144505" lon="8.890650508138284"><ele>23.5</ele><time>2026-04-11T12:24:05.998Z</time></trkpt><trkpt lat="40.912859935253486" lon="8.890505917550447"><ele>23.25</ele><time>2026-04-11T12:24:06.998Z</time></trkpt><trkpt lat="40.912789995505285" lon="8.890369313296437"><ele>23.0</ele><time>2026-04-11T12:24:07.998Z</time></trkpt><trkpt lat="40.91270184491215" lon="8.890240166396099"><ele>23.0</ele><time>2026-04-11T12:24:08.998Z</time></trkpt><trkpt lat="40.91261536072412" lon="8.890109704629188"><ele>23.0</ele><time>2026-04-11T12:24:09.998Z</time></trkpt><trkpt lat="40.912529962056105" lon="8.889980879421334"><ele>23.0</ele><time>2026-04-11T12:24:10.998Z</time></trkpt><trkpt lat="40.91244642811554" lon="8.889854867183349"><ele>23.0</ele><time>2026-04-11T12:24:11.998Z</time></trkpt><trkpt lat="40.912368038274884" lon="8.88973283181097"><ele>22.75</ele><time>2026-04-11T12:24:12.998Z</time></trkpt><trkpt lat="40.91229548231331" lon="8.889609982273406"><ele>22.5</ele><time>2026-04-11T12:24:13.998Z</time></trkpt><trkpt lat="40.912228264660804" lon="8.889488360482783"><ele>22.25</ele><time>2026-04-11T12:24:14.998Z</time></trkpt><trkpt lat="40.9121593360832" lon="8.889363521477648"><ele>22.0</ele><time>2026-04-11T12:24:15.998Z</time></trkpt><trkpt lat="40.91208138379749" lon="8.889244283973945"><ele>21.25</ele><time>2026-04-11T12:24:16.998Z</time></trkpt><trkpt lat="40.911984218668835" lon="8.889139936321994"><ele>20.5</ele><time>2026-04-11T12:24:17.998Z</time></trkpt><trkpt lat="40.91188214008874" lon="8.889054009417368"><ele>19.75</ele><time>2026-04-11T12:24:18.998Z</time></trkpt><trkpt lat="40.91177385198048" lon="8.888988592690579"><ele>19.0</ele><time>2026-04-11T12:24:19.998Z</time></trkpt><trkpt lat="40.91166395889903" lon="8.888918842356587"><ele>18.4</ele><time>2026-04-11T12:24:20.998Z</time></trkpt><trkpt lat="40.91155836414544" lon="8.888850528807739"><ele>17.799999999999997</ele><time>2026-04-11T12:24:21.998Z</time></trkpt><trkpt lat="40.91145996492252" lon="8.888787347658498"><ele>17.200000000000003</ele><time>2026-04-11T12:24:22.998Z</time></trkpt><trkpt lat="40.9113642321758" lon="8.8887292842555"><ele>16.6</ele><time>2026-04-11T12:24:23.998Z</time></trkpt><trkpt lat="40.91127156024926" lon="8.88867446609786"><ele>16.0</ele><time>2026-04-11T12:24:24.998Z</time></trkpt><trkpt lat="40.9111893883478" lon="8.88861757774328"><ele>16.0</ele><time>2026-04-11T12:24:25.998Z</time></trkpt><trkpt lat="40.911115039579535" lon="8.888565083768947"><ele>16.0</ele><time>2026-04-11T12:24:26.998Z</time></trkpt><trkpt lat="40.91105563080074" lon="8.888521573587246"><ele>16.0</ele><time>2026-04-11T12:24:27.998Z</time></trkpt><trkpt lat="40.91098867956011" lon="8.888423620824026"><ele>16.0</ele><time>2026-04-11T12:24:29.998Z</time></trkpt><trkpt lat="40.91095034215635" lon="8.888287443503994"><ele>16.0</ele><time>2026-04-11T12:24:31.998Z</time></trkpt><trkpt lat="40.91086993124423" lon="8.88819129360446"><ele>14.8</ele><time>2026-04-11T12:24:33.998Z</time></trkpt><trkpt lat="40.91080909511251" lon="8.888156954140499"><ele>13.600000000000001</ele><time>2026-04-11T12:24:35.998Z</time></trkpt><trkpt lat="40.910739321743655" lon="8.888204523780052"><ele>12.4</ele><time>2026-04-11T12:24:38.998Z</time></trkpt><trkpt lat="40.91069734279956" lon="8.888345872295455"><ele>11.2</ele><time>2026-04-11T12:24:41.998Z</time></trkpt><trkpt lat="40.91063306117958" lon="8.8885115502275"><ele>10.0</ele><time>2026-04-11T12:24:43.998Z</time></trkpt><trkpt lat="40.91055938015463" lon="8.88857527144151"><ele>9.8</ele><time>2026-04-11T12:24:44.998Z</time></trkpt><trkpt lat="40.91048089212276" lon="8.888629008848973"><ele>9.6</ele><time>2026-04-11T12:24:45.998Z</time></trkpt><trkpt lat="40.91040688927823" lon="8.888680270158456"><ele>9.4</ele><time>2026-04-11T12:24:46.998Z</time></trkpt><trkpt lat="40.910337970793016" lon="8.888785197357173"><ele>9.2</ele><time>2026-04-11T12:24:47.998Z</time></trkpt><trkpt lat="40.910280456944584" lon="8.888906108803276"><ele>9.0</ele><time>2026-04-11T12:24:48.998Z</time></trkpt><trkpt lat="40.91021516111094" lon="8.88885958591529"><ele>9.0</ele><time>2026-04-11T12:24:49.998Z</time></trkpt><trkpt lat="40.910149361222324" lon="8.888812128276774"><ele>9.0</ele><time>2026-04-11T12:24:50.998Z</time></trkpt><trkpt lat="40.91007183134009" lon="8.888759860309635"><ele>9.0</ele><time>2026-04-11T12:24:51.998Z</time></trkpt><trkpt lat="40.910024364950864" lon="8.88865185740128"><ele>9.0</ele><time>2026-04-11T12:24:52.998Z</time></trkpt><trkpt lat="40.90999176928148" lon="8.888514665380379"><ele>9.0</ele><time>2026-04-11T12:24:53.998Z</time></trkpt><trkpt lat="40.9099548679036" lon="8.888369522352765"><ele>8.25</ele><time>2026-04-11T12:24:54.998Z</time></trkpt><trkpt lat="40.90988431814277" lon="8.888226988646762"><ele>7.5</ele><time>2026-04-11T12:24:55.998Z</time></trkpt><trkpt lat="40.90984664261954" lon="8.888063658935991"><ele>6.75</ele><time>2026-04-11T12:24:56.998Z</time></trkpt><trkpt lat="40.90980923225708" lon="8.887891453133175"><ele>6.0</ele><time>2026-04-11T12:24:57.998Z</time></trkpt><trkpt lat="40.90976975417437" lon="8.887714327736555"><ele>6.25</ele><time>2026-04-11T12:24:58.998Z</time></trkpt><trkpt lat="40.90972999144779" lon="8.887531188299334"><ele>6.5</ele><time>2026-04-11T12:24:59.998Z</time></trkpt><trkpt lat="40.90968921857731" lon="8.887343214300923"><ele>6.75</ele><time>2026-04-11T12:25:00.998Z</time></trkpt><trkpt lat="40.90965012347927" lon="8.8871468313588"><ele>7.0</ele><time>2026-04-11T12:25:01.998Z</time></trkpt><trkpt lat="40.909608628880875" lon="8.886949022685364"><ele>7.0</ele><time>2026-04-11T12:25:02.998Z</time></trkpt><trkpt lat="40.90956825567796" lon="8.886750733461088"><ele>7.0</ele><time>2026-04-11T12:25:03.998Z</time></trkpt><trkpt lat="40.90952654618721" lon="8.886546452208574"><ele>7.0</ele><time>2026-04-11T12:25:04.998Z</time></trkpt><trkpt lat="40.90950272965681" lon="8.88632386372995"><ele>7.0</ele><time>2026-04-11T12:25:05.998Z</time></trkpt><trkpt lat="40.90945311297719" lon="8.886125384166238"><ele>7.0</ele><time>2026-04-11T12:25:06.998Z</time></trkpt><trkpt lat="40.90941004603866" lon="8.885909340665973"><ele>7.0</ele><time>2026-04-11T12:25:07.998Z</time></trkpt><trkpt lat="40.909350994506504" lon="8.885711754602854"><ele>7.0</ele><time>2026-04-11T12:25:08.998Z</time></trkpt><trkpt lat="40.90932959875247" lon="8.885521005633459"><ele>7.0</ele><time>2026-04-11T12:25:09.998Z</time></trkpt><trkpt lat="40.909290935595315" lon="8.885334301133874"><ele>7.0</ele><time>2026-04-11T12:25:10.998Z</time></trkpt><trkpt lat="40.90929529821892" lon="8.885120975058385"><ele>7.333333333333334</ele><time>2026-04-11T12:25:11.998Z</time></trkpt><trkpt lat="40.90931128711011" lon="8.88491893042215"><ele>7.666666666666666</ele><time>2026-04-11T12:25:12.998Z</time></trkpt><trkpt lat="40.9093647822482" lon="8.884719586262364"><ele>8.0</ele><time>2026-04-11T12:25:13.998Z</time></trkpt><trkpt lat="40.90941926661943" lon="8.884524758692006"><ele>8.0</ele><time>2026-04-11T12:25:14.998Z</time></trkpt><trkpt lat="40.90943853491764" lon="8.884323643405683"><ele>8.0</ele><time>2026-04-11T12:25:15.998Z</time></trkpt><trkpt lat="40.909484136478994" lon="8.884124141939296"><ele>8.0</ele><time>2026-04-11T12:25:16.998Z</time></trkpt><trkpt lat="40.9095255320662" lon="8.883922086270179"><ele>9.333333333333332</ele><time>2026-04-11T12:25:17.998Z</time></trkpt><trkpt lat="40.909553898752414" lon="8.88371040547552"><ele>10.666666666666666</ele><time>2026-04-11T12:25:18.998Z</time></trkpt><trkpt lat="40.90958741110546" lon="8.883516150179553"><ele>12.0</ele><time>2026-04-11T12:25:19.998Z</time></trkpt><trkpt lat="40.90962242867466" lon="8.883313244739888"><ele>12.0</ele><time>2026-04-11T12:25:20.998Z</time></trkpt><trkpt lat="40.909636492884566" lon="8.883090598300917"><ele>12.0</ele><time>2026-04-11T12:25:21.998Z</time></trkpt><trkpt lat="40.9096082840471" lon="8.882893676633072"><ele>12.0</ele><time>2026-04-11T12:25:22.998Z</time></trkpt><trkpt lat="40.909591676381034" lon="8.882682464253323"><ele>11.333333333333334</ele><time>2026-04-11T12:25:23.998Z</time></trkpt><trkpt lat="40.90957391402125" lon="8.88245551208304"><ele>10.666666666666668</ele><time>2026-04-11T12:25:24.998Z</time></trkpt><trkpt lat="40.90956392129059" lon="8.882213131869985"><ele>10.0</ele><time>2026-04-11T12:25:25.997Z</time></trkpt><trkpt lat="40.909524984056006" lon="8.881966342297327"><ele>9.333333333333334</ele><time>2026-04-11T12:25:26.997Z</time></trkpt><trkpt lat="40.909505876281465" lon="8.881730366683923"><ele>8.666666666666666</ele><time>2026-04-11T12:25:27.997Z</time></trkpt><trkpt lat="40.9094802163204" lon="8.881481335191872"><ele>8.0</ele><time>2026-04-11T12:25:28.997Z</time></trkpt><trkpt lat="40.909462401011226" lon="8.881252649559535"><ele>8.0</ele><time>2026-04-11T12:25:29.997Z</time></trkpt><trkpt lat="40.90942742223692" lon="8.881030072415424"><ele>8.0</ele><time>2026-04-11T12:25:30.997Z</time></trkpt><trkpt lat="40.909362114967536" lon="8.880855646661447"><ele>8.0</ele><time>2026-04-11T12:25:31.997Z</time></trkpt><trkpt lat="40.909278301824756" lon="8.880702614896297"><ele>9.333333333333332</ele><time>2026-04-11T12:25:32.997Z</time></trkpt><trkpt lat="40.90919226926277" lon="8.880550394461538"><ele>10.666666666666666</ele><time>2026-04-11T12:25:33.997Z</time></trkpt><trkpt lat="40.909087686626386" lon="8.880374239874422"><ele>12.0</ele><time>2026-04-11T12:25:34.997Z</time></trkpt><trkpt lat="40.9089845374204" lon="8.880189323162933"><ele>10.333333333333334</ele><time>2026-04-11T12:25:35.997Z</time></trkpt><trkpt lat="40.908859636586556" lon="8.88005240927822"><ele>8.666666666666668</ele><time>2026-04-11T12:25:36.997Z</time></trkpt><trkpt lat="40.90877225123156" lon="8.87987203743391"><ele>7.0</ele><time>2026-04-11T12:25:37.997Z</time></trkpt><trkpt lat="40.90866917819992" lon="8.879708557870932"><ele>7.0</ele><time>2026-04-11T12:25:38.997Z</time></trkpt><trkpt lat="40.90858198478346" lon="8.879551171523868"><ele>7.0</ele><time>2026-04-11T12:25:39.997Z</time></trkpt><trkpt lat="40.90850971151338" lon="8.879375371889449"><ele>7.0</ele><time>2026-04-11T12:25:40.997Z</time></trkpt><trkpt lat="40.90846176510901" lon="8.879188901703595"><ele>7.0</ele><time>2026-04-11T12:25:41.997Z</time></trkpt><trkpt lat="40.90840438882508" lon="8.879024410234939"><ele>7.25</ele><time>2026-04-11T12:25:42.997Z</time></trkpt><trkpt lat="40.908339998601015" lon="8.87886653165882"><ele>7.5</ele><time>2026-04-11T12:25:43.997Z</time></trkpt><trkpt lat="40.908295992056125" lon="8.878716113051658"><ele>7.75</ele><time>2026-04-11T12:25:44.997Z</time></trkpt><trkpt lat="40.908240991579646" lon="8.878593355143087"><ele>8.0</ele><time>2026-04-11T12:25:45.997Z</time></trkpt><trkpt lat="40.90818973186598" lon="8.878482287533876"><ele>7.800000000000001</ele><time>2026-04-11T12:25:46.997Z</time></trkpt><trkpt lat="40.908171084306176" lon="8.878360468678324"><ele>7.6000000000000005</ele><time>2026-04-11T12:25:47.997Z</time></trkpt><trkpt lat="40.90817354917615" lon="8.878216422662161"><ele>7.3999999999999995</ele><time>2026-04-11T12:25:48.997Z</time></trkpt><trkpt lat="40.90816374994808" lon="8.878049659266557"><ele>7.199999999999999</ele><time>2026-04-11T12:25:49.997Z</time></trkpt><trkpt lat="40.90813457070985" lon="8.877914473613702"><ele>7.0</ele><time>2026-04-11T12:25:50.997Z</time></trkpt><trkpt lat="40.908118806915134" lon="8.87778923880316"><ele>7.0</ele><time>2026-04-11T12:25:51.997Z</time></trkpt><trkpt lat="40.908103523493" lon="8.877670576510837"><ele>7.0</ele><time>2026-04-11T12:25:52.997Z</time></trkpt><trkpt lat="40.90813932472148" lon="8.877519261823824"><ele>7.0</ele><time>2026-04-11T12:25:53.997Z</time></trkpt><trkpt lat="40.908180275972136" lon="8.87739877635682"><ele>7.0</ele><time>2026-04-11T12:25:54.997Z</time></trkpt><trkpt lat="40.90824373893517" lon="8.877224673966644"><ele>7.0</ele><time>2026-04-11T12:25:55.997Z</time></trkpt><trkpt lat="40.90824488640177" lon="8.87703440925299"><ele>7.0</ele><time>2026-04-11T12:25:56.997Z</time></trkpt><trkpt lat="40.908251510061966" lon="8.876826500982355"><ele>7.0</ele><time>2026-04-11T12:25:57.997Z</time></trkpt><trkpt lat="40.908237797585514" lon="8.876578022997366"><ele>7.333333333333334</ele><time>2026-04-11T12:25:58.997Z</time></trkpt><trkpt lat="40.90822659445445" lon="8.876321795963026"><ele>7.666666666666666</ele><time>2026-04-11T12:25:59.997Z</time></trkpt><trkpt lat="40.90824912042194" lon="8.87605652178359"><ele>8.0</ele><time>2026-04-11T12:26:00.997Z</time></trkpt><trkpt lat="40.908278465484734" lon="8.875798689125824"><ele>7.333333333333333</ele><time>2026-04-11T12:26:01.997Z</time></trkpt><trkpt lat="40.90830860582631" lon="8.875553301506713"><ele>6.666666666666666</ele><time>2026-04-11T12:26:02.997Z</time></trkpt><trkpt lat="40.90834626217848" lon="8.875305548324194"><ele>6.0</ele><time>2026-04-11T12:26:03.997Z</time></trkpt><trkpt lat="40.90838460095723" lon="8.875066039365866"><ele>5.666666666666667</ele><time>2026-04-11T12:26:04.997Z</time></trkpt><trkpt lat="40.90842959979054" lon="8.874814395289487"><ele>5.333333333333334</ele><time>2026-04-11T12:26:05.997Z</time></trkpt><trkpt lat="40.9084781704239" lon="8.874559662159182"><ele>5.0</ele><time>2026-04-11T12:26:07.001Z</time></trkpt><trkpt lat="40.908531981353384" lon="8.87430431059942"><ele>5.0</ele><time>2026-04-11T12:26:08.001Z</time></trkpt><trkpt lat="40.90857936141597" lon="8.87404984606127"><ele>5.0</ele><time>2026-04-11T12:26:09.001Z</time></trkpt><trkpt lat="40.90865357955409" lon="8.873803543944568"><ele>5.0</ele><time>2026-04-11T12:26:10.001Z</time></trkpt><trkpt lat="40.90872208111916" lon="8.873543505131044"><ele>5.0</ele><time>2026-04-11T12:26:11.001Z</time></trkpt><trkpt lat="40.908793975177886" lon="8.873285057645267"><ele>5.0</ele><time>2026-04-11T12:26:12.001Z</time></trkpt><trkpt lat="40.90887103866347" lon="8.87302855825605"><ele>5.0</ele><time>2026-04-11T12:26:13.001Z</time></trkpt><trkpt lat="40.90894506553466" lon="8.872784612468037"><ele>5.0</ele><time>2026-04-11T12:26:14.001Z</time></trkpt><trkpt lat="40.909016588501615" lon="8.872533493514398"><ele>5.0</ele><time>2026-04-11T12:26:15.001Z</time></trkpt><trkpt lat="40.90911429890555" lon="8.872293248578165"><ele>5.0</ele><time>2026-04-11T12:26:16.001Z</time></trkpt><trkpt lat="40.90921267931723" lon="8.87205556226845"><ele>4.666666666666667</ele><time>2026-04-11T12:26:17.001Z</time></trkpt><trkpt lat="40.90929261926609" lon="8.871832611047"><ele>4.333333333333333</ele><time>2026-04-11T12:26:18.001Z</time></trkpt><trkpt lat="40.90938840715819" lon="8.871592830334869"><ele>4.0</ele><time>2026-04-11T12:26:19.001Z</time></trkpt><trkpt lat="40.909502644161186" lon="8.871375186946361"><ele>3.6666666666666665</ele><time>2026-04-11T12:26:20.001Z</time></trkpt><trkpt lat="40.90960110594132" lon="8.871125453893116"><ele>3.333333333333333</ele><time>2026-04-11T12:26:21.001Z</time></trkpt><trkpt lat="40.90971530580457" lon="8.87090901822467"><ele>3.0</ele><time>2026-04-11T12:26:22.001Z</time></trkpt><trkpt lat="40.90982619120577" lon="8.87068536186995"><ele>3.666666666666667</ele><time>2026-04-11T12:26:23.001Z</time></trkpt><trkpt lat="40.90993008610553" lon="8.870477434165235"><ele>4.333333333333334</ele><time>2026-04-11T12:26:24Z</time></trkpt><trkpt lat="40.91004628594575" lon="8.87029381935855"><ele>5.0</ele><time>2026-04-11T12:26:25Z</time></trkpt><trkpt lat="40.91016423011188" lon="8.870105041145534"><ele>5.0</ele><time>2026-04-11T12:26:26Z</time></trkpt><trkpt lat="40.91028186751264" lon="8.869910989715953"><ele>5.0</ele><time>2026-04-11T12:26:27Z</time></trkpt><trkpt lat="40.910394002206566" lon="8.869727569302363"><ele>5.0</ele><time>2026-04-11T12:26:28Z</time></trkpt><trkpt lat="40.91048532767757" lon="8.869564456242513"><ele>5.0</ele><time>2026-04-11T12:26:29Z</time></trkpt><trkpt lat="40.910562712243426" lon="8.869386266613564"><ele>5.0</ele><time>2026-04-11T12:26:30Z</time></trkpt><trkpt lat="40.910614011764466" lon="8.869202624721444"><ele>5.0</ele><time>2026-04-11T12:26:31Z</time></trkpt><trkpt lat="40.91065433488895" lon="8.869021916703321"><ele>5.0</ele><time>2026-04-11T12:26:32Z</time></trkpt><trkpt lat="40.910685359141816" lon="8.868838921369134"><ele>5.333333333333334</ele><time>2026-04-11T12:26:33Z</time></trkpt><trkpt lat="40.91066502117311" lon="8.868614565496777"><ele>5.666666666666667</ele><time>2026-04-11T12:26:34Z</time></trkpt><trkpt lat="40.91064831341984" lon="8.868387075167902"><ele>6.0</ele><time>2026-04-11T12:26:35Z</time></trkpt><trkpt lat="40.910636661104675" lon="8.868156848043004"><ele>6.0</ele><time>2026-04-11T12:26:36Z</time></trkpt><trkpt lat="40.91062358275087" lon="8.8679351745331"><ele>6.0</ele><time>2026-04-11T12:26:37Z</time></trkpt><trkpt lat="40.91060062356124" lon="8.867713156510785"><ele>6.0</ele><time>2026-04-11T12:26:38Z</time></trkpt><trkpt lat="40.91059169995999" lon="8.867461096531336"><ele>5.666666666666667</ele><time>2026-04-11T12:26:39Z</time></trkpt><trkpt lat="40.91058737244976" lon="8.867199330097375"><ele>5.333333333333334</ele><time>2026-04-11T12:26:40Z</time></trkpt><trkpt lat="40.91058047759025" lon="8.866962407875262"><ele>5.0</ele><time>2026-04-11T12:26:41Z</time></trkpt><trkpt lat="40.9105685775003" lon="8.866707157473813"><ele>4.666666666666667</ele><time>2026-04-11T12:26:42Z</time></trkpt><trkpt lat="40.91053659100399" lon="8.866484745677102"><ele>4.333333333333333</ele><time>2026-04-11T12:26:43Z</time></trkpt><trkpt lat="40.91051441921669" lon="8.86623300643864"><ele>4.0</ele><time>2026-04-11T12:26:44Z</time></trkpt><trkpt lat="40.91051975352143" lon="8.865984485760993"><ele>3.6666666666666665</ele><time>2026-04-11T12:26:45Z</time></trkpt><trkpt lat="40.91051361442492" lon="8.865719281773476"><ele>3.333333333333333</ele><time>2026-04-11T12:26:46Z</time></trkpt><trkpt lat="40.91050213391154" lon="8.86548274752987"><ele>3.0</ele><time>2026-04-11T12:26:47Z</time></trkpt><trkpt lat="40.91049075381301" lon="8.865250116974694"><ele>3.333333333333333</ele><time>2026-04-11T12:26:48Z</time></trkpt><trkpt lat="40.910455963026834" lon="8.865021274194937"><ele>3.6666666666666665</ele><time>2026-04-11T12:26:49Z</time></trkpt><trkpt lat="40.91042028317944" lon="8.86478155275856"><ele>4.0</ele><time>2026-04-11T12:26:50Z</time></trkpt><trkpt lat="40.91036559846205" lon="8.864535882697536"><ele>4.0</ele><time>2026-04-11T12:26:51Z</time></trkpt><trkpt lat="40.910312046378856" lon="8.864328465680915"><ele>4.0</ele><time>2026-04-11T12:26:52Z</time></trkpt><trkpt lat="40.91024561533102" lon="8.864119667065316"><ele>4.0</ele><time>2026-04-11T12:26:53Z</time></trkpt><trkpt lat="40.91017172947747" lon="8.863923474787637"><ele>4.0</ele><time>2026-04-11T12:26:54Z</time></trkpt><trkpt lat="40.910069472199574" lon="8.863695671631017"><ele>4.0</ele><time>2026-04-11T12:26:55Z</time></trkpt><trkpt lat="40.9099647395367" lon="8.863488063521084"><ele>4.0</ele><time>2026-04-11T12:26:56Z</time></trkpt><trkpt lat="40.909859393223535" lon="8.86328317221962"><ele>4.0</ele><time>2026-04-11T12:26:57Z</time></trkpt><trkpt lat="40.90975433491873" lon="8.863072177276957"><ele>4.0</ele><time>2026-04-11T12:26:58Z</time></trkpt><trkpt lat="40.90966118654518" lon="8.862846914246118"><ele>4.0</ele><time>2026-04-11T12:26:59Z</time></trkpt><trkpt lat="40.90958624338506" lon="8.862610656787615"><ele>3.6666666666666665</ele><time>2026-04-11T12:27:00Z</time></trkpt><trkpt lat="40.909498383068446" lon="8.862392350168296"><ele>3.333333333333333</ele><time>2026-04-11T12:27:01Z</time></trkpt><trkpt lat="40.90941342418807" lon="8.862146851459476"><ele>3.0</ele><time>2026-04-11T12:27:02Z</time></trkpt><trkpt lat="40.909329365879785" lon="8.86190395488164"><ele>3.0</ele><time>2026-04-11T12:27:03Z</time></trkpt><trkpt lat="40.909246037250355" lon="8.861663166752567"><ele>3.0</ele><time>2026-04-11T12:27:04Z</time></trkpt><trkpt lat="40.90916249303203" lon="8.861421755475865"><ele>3.0</ele><time>2026-04-11T12:27:05Z</time></trkpt><trkpt lat="40.90908052189254" lon="8.861183456338562"><ele>3.333333333333333</ele><time>2026-04-11T12:27:06Z</time></trkpt><trkpt lat="40.909006025698254" lon="8.860959185205537"><ele>3.6666666666666665</ele><time>2026-04-11T12:27:07Z</time></trkpt><trkpt lat="40.90893957067525" lon="8.860736631343302"><ele>4.0</ele><time>2026-04-11T12:27:08Z</time></trkpt><trkpt lat="40.90888708624698" lon="8.860520391633868"><ele>4.666666666666666</ele><time>2026-04-11T12:27:09Z</time></trkpt><trkpt lat="40.90883639726272" lon="8.860294321469128"><ele>5.333333333333333</ele><time>2026-04-11T12:27:10Z</time></trkpt><trkpt lat="40.90880469887309" lon="8.860072216549927"><ele>6.0</ele><time>2026-04-11T12:27:11Z</time></trkpt><trkpt lat="40.90874267909762" lon="8.8598596028255"><ele>6.0</ele><time>2026-04-11T12:27:12Z</time></trkpt><trkpt lat="40.90866531055408" lon="8.859671888157969"><ele>6.0</ele><time>2026-04-11T12:27:13Z</time></trkpt><trkpt lat="40.908587390056994" lon="8.859494455428116"><ele>6.0</ele><time>2026-04-11T12:27:14Z</time></trkpt><trkpt lat="40.90850562614182" lon="8.859313112498485"><ele>6.25</ele><time>2026-04-11T12:27:15Z</time></trkpt><trkpt lat="40.90845463560605" lon="8.859173827933473"><ele>6.5</ele><time>2026-04-11T12:27:16Z</time></trkpt><trkpt lat="40.90836352519877" lon="8.859059307113933"><ele>6.75</ele><time>2026-04-11T12:27:17Z</time></trkpt><trkpt lat="40.90829687642359" lon="8.858938541049236"><ele>7.0</ele><time>2026-04-11T12:27:18Z</time></trkpt><trkpt lat="40.90823774841382" lon="8.85881662442609"><ele>7.333333333333334</ele><time>2026-04-11T12:27:19Z</time></trkpt><trkpt lat="40.90819234522855" lon="8.858711139343319"><ele>7.666666666666667</ele><time>2026-04-11T12:27:20Z</time></trkpt><trkpt lat="40.908175076056274" lon="8.85861069795688"><ele>8.0</ele><time>2026-04-11T12:27:21Z</time></trkpt><trkpt lat="40.90813859117347" lon="8.858505520287641"><ele>8.333333333333334</ele><time>2026-04-11T12:27:22Z</time></trkpt><trkpt lat="40.90811741489409" lon="8.858418046353687"><ele>8.666666666666666</ele><time>2026-04-11T12:27:22.999Z</time></trkpt><trkpt lat="40.908018055248945" lon="8.858348840950722"><ele>9.0</ele><time>2026-04-11T12:27:25.999Z</time></trkpt><trkpt lat="40.907870007358824" lon="8.858369477752326"><ele>9.4</ele><time>2026-04-11T12:27:27.999Z</time></trkpt><trkpt lat="40.90777098747977" lon="8.858352112906417"><ele>9.8</ele><time>2026-04-11T12:27:28.999Z</time></trkpt><trkpt lat="40.90767874185216" lon="8.858330341305747"><ele>10.200000000000001</ele><time>2026-04-11T12:27:29.999Z</time></trkpt><trkpt lat="40.907574651221495" lon="8.858321346458654"><ele>10.600000000000001</ele><time>2026-04-11T12:27:30.999Z</time></trkpt><trkpt lat="40.907440913518016" lon="8.858313456696363"><ele>11.0</ele><time>2026-04-11T12:27:31.999Z</time></trkpt><trkpt lat="40.907331317788596" lon="8.858321583540132"><ele>11.25</ele><time>2026-04-11T12:27:32.999Z</time></trkpt><trkpt lat="40.90720723973267" lon="8.858306223244387"><ele>11.5</ele><time>2026-04-11T12:27:33.999Z</time></trkpt><trkpt lat="40.907084836854665" lon="8.858290389809609"><ele>11.75</ele><time>2026-04-11T12:27:34.999Z</time></trkpt><trkpt lat="40.90695607409808" lon="8.858289498425647"><ele>12.0</ele><time>2026-04-11T12:27:35.999Z</time></trkpt><trkpt lat="40.90684403172351" lon="8.858284898333547"><ele>12.166666666666666</ele><time>2026-04-11T12:27:36.999Z</time></trkpt><trkpt lat="40.906737810584715" lon="8.858263879135288"><ele>12.333333333333332</ele><time>2026-04-11T12:27:37.999Z</time></trkpt><trkpt lat="40.9066455389735" lon="8.858249301145907"><ele>12.5</ele><time>2026-04-11T12:27:38.999Z</time></trkpt><trkpt lat="40.90655289478118" lon="8.858247455189279"><ele>12.666666666666666</ele><time>2026-04-11T12:27:39.999Z</time></trkpt><trkpt lat="40.906479589669836" lon="8.858218937170962"><ele>12.833333333333332</ele><time>2026-04-11T12:27:40.999Z</time></trkpt><trkpt lat="40.90641718925655" lon="8.858204783292877"><ele>13.0</ele><time>2026-04-11T12:27:41.999Z</time></trkpt><trkpt lat="40.90635027215642" lon="8.858140733514691"><ele>13.0</ele><time>2026-04-11T12:27:43.999Z</time></trkpt><trkpt lat="40.90630279768531" lon="8.858039284118401"><ele>13.0</ele><time>2026-04-11T12:27:45.999Z</time></trkpt><trkpt lat="40.90630994251598" lon="8.85792783245839"><ele>13.0</ele><time>2026-04-11T12:27:46.999Z</time></trkpt><trkpt lat="40.90631838605465" lon="8.857796122029406"><ele>13.0</ele><time>2026-04-11T12:27:47.999Z</time></trkpt><trkpt lat="40.90632569465328" lon="8.857635673632148"><ele>13.0</ele><time>2026-04-11T12:27:48.999Z</time></trkpt><trkpt lat="40.90632704347217" lon="8.857477441426242"><ele>13.25</ele><time>2026-04-11T12:27:49.999Z</time></trkpt><trkpt lat="40.90632451300008" lon="8.857325744030117"><ele>13.5</ele><time>2026-04-11T12:27:50.999Z</time></trkpt><trkpt lat="40.90631714704854" lon="8.85716048414215"><ele>13.75</ele><time>2026-04-11T12:27:51.999Z</time></trkpt><trkpt lat="40.90630891511362" lon="8.856996161361236"><ele>14.0</ele><time>2026-04-11T12:27:52.999Z</time></trkpt><trkpt lat="40.90630285167809" lon="8.856830099631193"><ele>13.666666666666668</ele><time>2026-04-11T12:27:53.999Z</time></trkpt><trkpt lat="40.90629974412701" lon="8.856662033607895"><ele>13.333333333333332</ele><time>2026-04-11T12:27:54.999Z</time></trkpt><trkpt lat="40.90629597516055" lon="8.856458196302007"><ele>13.0</ele><time>2026-04-11T12:27:55.999Z</time></trkpt><trkpt lat="40.90629320699431" lon="8.856223476806962"><ele>13.0</ele><time>2026-04-11T12:27:56.999Z</time></trkpt><trkpt lat="40.90629101041959" lon="8.855988090275163"><ele>13.0</ele><time>2026-04-11T12:27:57.999Z</time></trkpt><trkpt lat="40.90629209862003" lon="8.855768279154084"><ele>13.0</ele><time>2026-04-11T12:27:58.999Z</time></trkpt><trkpt lat="40.9062829366569" lon="8.855522999758945"><ele>13.0</ele><time>2026-04-11T12:27:59.999Z</time></trkpt><trkpt lat="40.906302871771835" lon="8.855280702426379"><ele>13.0</ele><time>2026-04-11T12:28:00.999Z</time></trkpt><trkpt lat="40.906328882698226" lon="8.855039733816538"><ele>13.0</ele><time>2026-04-11T12:28:01.999Z</time></trkpt><trkpt lat="40.90635712735482" lon="8.854802193897363"><ele>13.333333333333332</ele><time>2026-04-11T12:28:02.999Z</time></trkpt><trkpt lat="40.906388768762135" lon="8.854570985091279"><ele>13.666666666666668</ele><time>2026-04-11T12:28:03.999Z</time></trkpt><trkpt lat="40.906419145489664" lon="8.854342597560983"><ele>14.0</ele><time>2026-04-11T12:28:04.999Z</time></trkpt><trkpt lat="40.906451286232574" lon="8.854087438776315"><ele>15.0</ele><time>2026-04-11T12:28:05.999Z</time></trkpt><trkpt lat="40.90647833698791" lon="8.853864472020375"><ele>16.0</ele><time>2026-04-11T12:28:06.999Z</time></trkpt><trkpt lat="40.90650284674772" lon="8.853636733649857"><ele>17.0</ele><time>2026-04-11T12:28:07.999Z</time></trkpt><trkpt lat="40.90652643850398" lon="8.853398270013434"><ele>18.0</ele><time>2026-04-11T12:28:08.999Z</time></trkpt><trkpt lat="40.90654997370001" lon="8.853160378070534"><ele>19.0</ele><time>2026-04-11T12:28:09.999Z</time></trkpt><trkpt lat="40.90657403229594" lon="8.852938292783747"><ele>20.0</ele><time>2026-04-11T12:28:10.999Z</time></trkpt><trkpt lat="40.90660345144775" lon="8.852695791175263"><ele>20.333333333333336</ele><time>2026-04-11T12:28:11.999Z</time></trkpt><trkpt lat="40.90662397621745" lon="8.852466221547697"><ele>20.666666666666668</ele><time>2026-04-11T12:28:12.999Z</time></trkpt><trkpt lat="40.90664701832202" lon="8.85220091253066"><ele>21.0</ele><time>2026-04-11T12:28:13.999Z</time></trkpt><trkpt lat="40.906668892195455" lon="8.851948936262225"><ele>21.666666666666668</ele><time>2026-04-11T12:28:14.999Z</time></trkpt><trkpt lat="40.906692161365285" lon="8.851705300225538"><ele>22.333333333333336</ele><time>2026-04-11T12:28:15.999Z</time></trkpt><trkpt lat="40.90671600764824" lon="8.851474473746052"><ele>23.0</ele><time>2026-04-11T12:28:16.999Z</time></trkpt><trkpt lat="40.906737659014254" lon="8.851246537316694"><ele>26.333333333333336</ele><time>2026-04-11T12:28:17.999Z</time></trkpt><trkpt lat="40.906757010269" lon="8.85101462334097"><ele>29.666666666666668</ele><time>2026-04-11T12:28:18.999Z</time></trkpt><trkpt lat="40.90676314132418" lon="8.850777571373918"><ele>33.0</ele><time>2026-04-11T12:28:19.999Z</time></trkpt><trkpt lat="40.90675867642189" lon="8.850543896201001"><ele>32.666666666666664</ele><time>2026-04-11T12:28:20.999Z</time></trkpt><trkpt lat="40.906742495031466" lon="8.850305951749618"><ele>32.33333333333333</ele><time>2026-04-11T12:28:21.999Z</time></trkpt><trkpt lat="40.90674655554123" lon="8.850068085881896"><ele>32.0</ele><time>2026-04-11T12:28:22.999Z</time></trkpt><trkpt lat="40.906759540073935" lon="8.849853055169865"><ele>32.0</ele><time>2026-04-11T12:28:23.999Z</time></trkpt><trkpt lat="40.90676984401079" lon="8.849620948286457"><ele>32.0</ele><time>2026-04-11T12:28:24.999Z</time></trkpt><trkpt lat="40.90678236603916" lon="8.849396610793578"><ele>32.0</ele><time>2026-04-11T12:28:25.999Z</time></trkpt><trkpt lat="40.90679722352266" lon="8.849165073459453"><ele>32.33333333333333</ele><time>2026-04-11T12:28:26.999Z</time></trkpt><trkpt lat="40.90681030568569" lon="8.848926453346122"><ele>32.666666666666664</ele><time>2026-04-11T12:28:27.999Z</time></trkpt><trkpt lat="40.906819251234076" lon="8.848708990426307"><ele>33.0</ele><time>2026-04-11T12:28:28.999Z</time></trkpt><trkpt lat="40.906827361393916" lon="8.84849680509475"><ele>33.5</ele><time>2026-04-11T12:28:29.999Z</time></trkpt><trkpt lat="40.90683207279818" lon="8.848323782878296"><ele>34.0</ele><time>2026-04-11T12:28:30.999Z</time></trkpt><trkpt lat="40.90681865679785" lon="8.848150231481396"><ele>34.5</ele><time>2026-04-11T12:28:31.999Z</time></trkpt><trkpt lat="40.90679723438607" lon="8.847940996083206"><ele>35.0</ele><time>2026-04-11T12:28:32.999Z</time></trkpt><trkpt lat="40.90674843034858" lon="8.847770638006818"><ele>33.666666666666664</ele><time>2026-04-11T12:28:33.999Z</time></trkpt><trkpt lat="40.90673679984084" lon="8.847589471401086"><ele>32.333333333333336</ele><time>2026-04-11T12:28:34.999Z</time></trkpt><trkpt lat="40.906694100244096" lon="8.847381350522319"><ele>31.0</ele><time>2026-04-11T12:28:35.999Z</time></trkpt><trkpt lat="40.90665471673404" lon="8.847188974810026"><ele>31.0</ele><time>2026-04-11T12:28:36.999Z</time></trkpt><trkpt lat="40.906675020985844" lon="8.847012602372788"><ele>31.0</ele><time>2026-04-11T12:28:37.999Z</time></trkpt><trkpt lat="40.906665096726016" lon="8.846817467443403"><ele>31.0</ele><time>2026-04-11T12:28:38.999Z</time></trkpt><trkpt lat="40.90666810224627" lon="8.846606932210314"><ele>31.0</ele><time>2026-04-11T12:28:39.999Z</time></trkpt><trkpt lat="40.9066709638512" lon="8.846408104381752"><ele>31.25</ele><time>2026-04-11T12:28:40.999Z</time></trkpt><trkpt lat="40.90666498088832" lon="8.846218455594858"><ele>31.5</ele><time>2026-04-11T12:28:41.999Z</time></trkpt><trkpt lat="40.90666914373537" lon="8.846011573185107"><ele>31.75</ele><time>2026-04-11T12:28:42.999Z</time></trkpt><trkpt lat="40.906652016545706" lon="8.845822916002202"><ele>32.0</ele><time>2026-04-11T12:28:43.999Z</time></trkpt><trkpt lat="40.906607532622026" lon="8.845653257921136"><ele>32.5</ele><time>2026-04-11T12:28:44.999Z</time></trkpt><trkpt lat="40.90659543252429" lon="8.845471743711757"><ele>33.0</ele><time>2026-04-11T12:28:45.999Z</time></trkpt><trkpt lat="40.90658619453334" lon="8.845276478516439"><ele>33.5</ele><time>2026-04-11T12:28:46.999Z</time></trkpt><trkpt lat="40.906585165061664" lon="8.84509310231085"><ele>34.0</ele><time>2026-04-11T12:28:47.999Z</time></trkpt><trkpt lat="40.90666287965537" lon="8.844886221008545"><ele>34.333333333333336</ele><time>2026-04-11T12:28:48.999Z</time></trkpt><trkpt lat="40.906668634746964" lon="8.844669889168461"><ele>34.666666666666664</ele><time>2026-04-11T12:28:49.999Z</time></trkpt><trkpt lat="40.90667157286683" lon="8.844442240392095"><ele>35.0</ele><time>2026-04-11T12:28:50.999Z</time></trkpt><trkpt lat="40.90666637298077" lon="8.844233010250218"><ele>35.666666666666664</ele><time>2026-04-11T12:28:51.999Z</time></trkpt><trkpt lat="40.90665966161389" lon="8.844022848276973"><ele>36.333333333333336</ele><time>2026-04-11T12:28:52.999Z</time></trkpt><trkpt lat="40.906645791933876" lon="8.843812798940261"><ele>37.0</ele><time>2026-04-11T12:28:53.999Z</time></trkpt><trkpt lat="40.906660403081936" lon="8.843593132948746"><ele>37.66666666666667</ele><time>2026-04-11T12:28:54.999Z</time></trkpt><trkpt lat="40.906675817356216" lon="8.843373677620747"><ele>38.333333333333336</ele><time>2026-04-11T12:28:55.999Z</time></trkpt><trkpt lat="40.90669539371364" lon="8.843155090633239"><ele>39.0</ele><time>2026-04-11T12:28:56.999Z</time></trkpt><trkpt lat="40.906711826855414" lon="8.84294290452832"><ele>39.0</ele><time>2026-04-11T12:28:57.999Z</time></trkpt><trkpt lat="40.906728177973804" lon="8.84273177730971"><ele>39.0</ele><time>2026-04-11T12:28:58.999Z</time></trkpt><trkpt lat="40.90674591322231" lon="8.842502778250148"><ele>39.0</ele><time>2026-04-11T12:28:59.999Z</time></trkpt><trkpt lat="40.90676494865129" lon="8.84226452321523"><ele>40.0</ele><time>2026-04-11T12:29:00.999Z</time></trkpt><trkpt lat="40.90678437141932" lon="8.842025890433705"><ele>41.0</ele><time>2026-04-11T12:29:01.999Z</time></trkpt><trkpt lat="40.90680517103614" lon="8.841774888983956"><ele>42.0</ele><time>2026-04-11T12:29:02.999Z</time></trkpt><trkpt lat="40.906829184269405" lon="8.841521762308037"><ele>42.0</ele><time>2026-04-11T12:29:03.999Z</time></trkpt><trkpt lat="40.90684584269471" lon="8.841273371172703"><ele>42.0</ele><time>2026-04-11T12:29:04.999Z</time></trkpt><trkpt lat="40.90687594374862" lon="8.84105925993803"><ele>42.0</ele><time>2026-04-11T12:29:05.999Z</time></trkpt><trkpt lat="40.90689508819178" lon="8.840843424095938"><ele>42.0</ele><time>2026-04-11T12:29:06.999Z</time></trkpt><trkpt lat="40.90692085815223" lon="8.84061077227503"><ele>42.0</ele><time>2026-04-11T12:29:07.998Z</time></trkpt><trkpt lat="40.90695288940751" lon="8.840387035043284"><ele>42.0</ele><time>2026-04-11T12:29:08.998Z</time></trkpt><trkpt lat="40.90697962838958" lon="8.84016263096697"><ele>42.0</ele><time>2026-04-11T12:29:09.998Z</time></trkpt><trkpt lat="40.906975876860734" lon="8.83995188926494"><ele>42.0</ele><time>2026-04-11T12:29:10.998Z</time></trkpt><trkpt lat="40.907015673862006" lon="8.839741440228671"><ele>42.0</ele><time>2026-04-11T12:29:11.998Z</time></trkpt><trkpt lat="40.90699824691539" lon="8.83951367411508"><ele>42.666666666666664</ele><time>2026-04-11T12:29:12.998Z</time></trkpt><trkpt lat="40.906999550895804" lon="8.839264427967072"><ele>43.33333333333333</ele><time>2026-04-11T12:29:13.998Z</time></trkpt><trkpt lat="40.9070083081804" lon="8.839015054575851"><ele>44.0</ele><time>2026-04-11T12:29:14.998Z</time></trkpt><trkpt lat="40.90702941041217" lon="8.838767365095531"><ele>44.0</ele><time>2026-04-11T12:29:15.998Z</time></trkpt><trkpt lat="40.90701358797379" lon="8.838492665221843"><ele>44.0</ele><time>2026-04-11T12:29:16.998Z</time></trkpt><trkpt lat="40.90704809692619" lon="8.838221772659118"><ele>44.0</ele><time>2026-04-11T12:29:17.998Z</time></trkpt><trkpt lat="40.90706492823783" lon="8.837965744308248"><ele>45.0</ele><time>2026-04-11T12:29:18.998Z</time></trkpt><trkpt lat="40.90708393768946" lon="8.837699584345376"><ele>46.0</ele><time>2026-04-11T12:29:19.998Z</time></trkpt><trkpt lat="40.9071063793654" lon="8.837448692587632"><ele>47.0</ele><time>2026-04-11T12:29:20.998Z</time></trkpt><trkpt lat="40.90713544584645" lon="8.837198879187802"><ele>48.0</ele><time>2026-04-11T12:29:21.998Z</time></trkpt><trkpt lat="40.9071614579293" lon="8.836975453166026"><ele>49.0</ele><time>2026-04-11T12:29:22.998Z</time></trkpt><trkpt lat="40.90718356537323" lon="8.836770447229586"><ele>50.0</ele><time>2026-04-11T12:29:23.998Z</time></trkpt><trkpt lat="40.90720015668524" lon="8.83658465613351"><ele>50.0</ele><time>2026-04-11T12:29:24.998Z</time></trkpt><trkpt lat="40.90722640394956" lon="8.836409091809921"><ele>50.0</ele><time>2026-04-11T12:29:25.998Z</time></trkpt><trkpt lat="40.90726510699086" lon="8.836237714611404"><ele>50.0</ele><time>2026-04-11T12:29:26.998Z</time></trkpt><trkpt lat="40.90731792527454" lon="8.836079460531783"><ele>50.0</ele><time>2026-04-11T12:29:27.998Z</time></trkpt><trkpt lat="40.90738302985205" lon="8.835888905416583"><ele>50.333333333333336</ele><time>2026-04-11T12:29:28.998Z</time></trkpt><trkpt lat="40.90744968385475" lon="8.835729851486676"><ele>50.66666666666667</ele><time>2026-04-11T12:29:29.998Z</time></trkpt><trkpt lat="40.907537437865635" lon="8.835542340662409"><ele>51.0</ele><time>2026-04-11T12:29:30.998Z</time></trkpt><trkpt lat="40.907624667075865" lon="8.835349283500241"><ele>51.75</ele><time>2026-04-11T12:29:31.998Z</time></trkpt><trkpt lat="40.90769253359255" lon="8.835170990978524"><ele>52.5</ele><time>2026-04-11T12:29:32.998Z</time></trkpt><trkpt lat="40.90774969967195" lon="8.834998244420104"><ele>53.25</ele><time>2026-04-11T12:29:33.998Z</time></trkpt><trkpt lat="40.90779985335613" lon="8.834850425830055"><ele>54.0</ele><time>2026-04-11T12:29:34.998Z</time></trkpt><trkpt lat="40.907839775986275" lon="8.834731859048562"><ele>54.0</ele><time>2026-04-11T12:29:35.998Z</time></trkpt><trkpt lat="40.90786730677144" lon="8.834634002029842"><ele>54.0</ele><time>2026-04-11T12:29:36.998Z</time></trkpt><trkpt lat="40.907901474436294" lon="8.834510029509653"><ele>54.0</ele><time>2026-04-11T12:29:38.998Z</time></trkpt><trkpt lat="40.907956639092305" lon="8.834338987609016"><ele>54.0</ele><time>2026-04-11T12:29:40.998Z</time></trkpt><trkpt lat="40.90801228918278" lon="8.834179564651176"><ele>53.75</ele><time>2026-04-11T12:29:41.998Z</time></trkpt><trkpt lat="40.90807245764565" lon="8.834030190749251"><ele>53.5</ele><time>2026-04-11T12:29:42.998Z</time></trkpt><trkpt lat="40.90813929660505" lon="8.833900011323342"><ele>53.25</ele><time>2026-04-11T12:29:43.998Z</time></trkpt><trkpt lat="40.90821973357652" lon="8.83376209534223"><ele>53.0</ele><time>2026-04-11T12:29:44.998Z</time></trkpt><trkpt lat="40.9083082447829" lon="8.833622172672122"><ele>53.0</ele><time>2026-04-11T12:29:45.998Z</time></trkpt><trkpt lat="40.90839410037123" lon="8.833472972137924"><ele>53.0</ele><time>2026-04-11T12:29:46.998Z</time></trkpt><trkpt lat="40.90846705929532" lon="8.833326615507785"><ele>53.0</ele><time>2026-04-11T12:29:47.998Z</time></trkpt><trkpt lat="40.908523996483886" lon="8.833193331701846"><ele>53.0</ele><time>2026-04-11T12:29:48.998Z</time></trkpt><trkpt lat="40.908575697466524" lon="8.833063715017296"><ele>53.4</ele><time>2026-04-11T12:29:49.998Z</time></trkpt><trkpt lat="40.9086153311565" lon="8.832955863559375"><ele>53.8</ele><time>2026-04-11T12:29:50.998Z</time></trkpt><trkpt lat="40.908670253534005" lon="8.83280315895404"><ele>54.2</ele><time>2026-04-11T12:29:51.998Z</time></trkpt><trkpt lat="40.908713462492294" lon="8.832677790404706"><ele>54.6</ele><time>2026-04-11T12:29:52.998Z</time></trkpt><trkpt lat="40.90875157636451" lon="8.832547863414257"><ele>55.0</ele><time>2026-04-11T12:29:53.998Z</time></trkpt><trkpt lat="40.90879976382597" lon="8.832385317513864"><ele>53.6</ele><time>2026-04-11T12:29:54.998Z</time></trkpt><trkpt lat="40.90884227387741" lon="8.83225141392687"><ele>52.2</ele><time>2026-04-11T12:29:55.998Z</time></trkpt><trkpt lat="40.90889603135286" lon="8.83213263541014"><ele>50.8</ele><time>2026-04-11T12:29:56.998Z</time></trkpt><trkpt lat="40.90895686992561" lon="8.832044707508702"><ele>49.4</ele><time>2026-04-11T12:29:57.998Z</time></trkpt><trkpt lat="40.90902261391923" lon="8.831951861154554"><ele>48.0</ele><time>2026-04-11T12:29:58.998Z</time></trkpt><trkpt lat="40.909118252350154" lon="8.831777152407133"><ele>48.4</ele><time>2026-04-11T12:30:00.998Z</time></trkpt><trkpt lat="40.90918933414311" lon="8.831612733575426"><ele>48.8</ele><time>2026-04-11T12:30:02.998Z</time></trkpt><trkpt lat="40.90922034604095" lon="8.831522140327055"><ele>49.2</ele><time>2026-04-11T12:30:03.998Z</time></trkpt><trkpt lat="40.90925613601648" lon="8.831419007697134"><ele>49.6</ele><time>2026-04-11T12:30:04.998Z</time></trkpt><trkpt lat="40.90929372580346" lon="8.831288178117859"><ele>50.0</ele><time>2026-04-11T12:30:05.998Z</time></trkpt><trkpt lat="40.90932039566099" lon="8.8311850252656"><ele>50.0</ele><time>2026-04-11T12:30:06.998Z</time></trkpt><trkpt lat="40.90935320603031" lon="8.831047097094933"><ele>50.0</ele><time>2026-04-11T12:30:07.998Z</time></trkpt><trkpt lat="40.90937975267855" lon="8.830916614493145"><ele>50.0</ele><time>2026-04-11T12:30:08.998Z</time></trkpt><trkpt lat="40.90937998864021" lon="8.830766632162701"><ele>50.0</ele><time>2026-04-11T12:30:09.998Z</time></trkpt><trkpt lat="40.90941794222849" lon="8.830645091000235"><ele>50.0</ele><time>2026-04-11T12:30:10.998Z</time></trkpt><trkpt lat="40.90938576460759" lon="8.83050994494036"><ele>49.00000000000001</ele><time>2026-04-11T12:30:11.998Z</time></trkpt><trkpt lat="40.90940491307894" lon="8.830392080915969"><ele>48.0</ele><time>2026-04-11T12:30:12.998Z</time></trkpt><trkpt lat="40.90941113579146" lon="8.83027790556771"><ele>47.0</ele><time>2026-04-11T12:30:13.998Z</time></trkpt><trkpt lat="40.90941660084401" lon="8.830177629920625"><ele>46.0</ele><time>2026-04-11T12:30:16.998Z</time></trkpt><trkpt lat="40.90941974606186" lon="8.830073611283417"><ele>45.0</ele><time>2026-04-11T12:30:21.998Z</time></trkpt><trkpt lat="40.90944200898262" lon="8.82995362539241"><ele>44.0</ele><time>2026-04-11T12:30:27.998Z</time></trkpt><trkpt lat="40.90946321624525" lon="8.829848470753161"><ele>43.166666666666664</ele><time>2026-04-11T12:30:51.998Z</time></trkpt><trkpt lat="40.909489550229054" lon="8.829748913912184"><ele>42.33333333333333</ele><time>2026-04-11T12:30:53.998Z</time></trkpt><trkpt lat="40.90952922584867" lon="8.829627488872626"><ele>41.5</ele><time>2026-04-11T12:30:55.997Z</time></trkpt><trkpt lat="40.90956253417327" lon="8.829544052138916"><ele>40.666666666666664</ele><time>2026-04-11T12:30:56.997Z</time></trkpt><trkpt lat="40.90959890517927" lon="8.8294580392401"><ele>39.833333333333336</ele><time>2026-04-11T12:30:57.997Z</time></trkpt><trkpt lat="40.90965050753154" lon="8.829358747237723"><ele>39.0</ele><time>2026-04-11T12:30:58.997Z</time></trkpt><trkpt lat="40.90969406200487" lon="8.829268310137351"><ele>38.42857142857143</ele><time>2026-04-11T12:30:59.997Z</time></trkpt><trkpt lat="40.909736349171176" lon="8.829187267534103"><ele>37.857142857142854</ele><time>2026-04-11T12:31:00.997Z</time></trkpt><trkpt lat="40.90978467997799" lon="8.829108145795777"><ele>37.285714285714285</ele><time>2026-04-11T12:31:01.997Z</time></trkpt><trkpt lat="40.90983299320715" lon="8.829033929652377"><ele>36.714285714285715</ele><time>2026-04-11T12:31:02.997Z</time></trkpt><trkpt lat="40.9098816381361" lon="8.828961542363613"><ele>36.14285714285714</ele><time>2026-04-11T12:31:03.997Z</time></trkpt><trkpt lat="40.909930602809126" lon="8.828895086858454"><ele>35.57142857142857</ele><time>2026-04-11T12:31:04.997Z</time></trkpt><trkpt lat="40.90998561092921" lon="8.828824142597504"><ele>35.0</ele><time>2026-04-11T12:31:05.997Z</time></trkpt><trkpt lat="40.910034123354436" lon="8.828764247189248"><ele>34.6</ele><time>2026-04-11T12:31:06.997Z</time></trkpt><trkpt lat="40.91011378592379" lon="8.82865935322004"><ele>34.2</ele><time>2026-04-11T12:31:08.997Z</time></trkpt><trkpt lat="40.9101866432466" lon="8.828546491979433"><ele>33.8</ele><time>2026-04-11T12:31:10.997Z</time></trkpt><trkpt lat="40.910239315781034" lon="8.828432097996547"><ele>33.4</ele><time>2026-04-11T12:31:12.997Z</time></trkpt><trkpt lat="40.910273790005895" lon="8.828348977964705"><ele>33.0</ele><time>2026-04-11T12:31:13.997Z</time></trkpt><trkpt lat="40.910297911503456" lon="8.828271022526396"><ele>31.5</ele><time>2026-04-11T12:31:14.997Z</time></trkpt><trkpt lat="40.9103488144263" lon="8.828066533270803"><ele>30.0</ele><time>2026-04-11T12:31:16.997Z</time></trkpt><trkpt lat="40.910367064133844" lon="8.827956206687727"><ele>28.5</ele><time>2026-04-11T12:31:17.997Z</time></trkpt><trkpt lat="40.910382318860826" lon="8.82776378660439"><ele>27.0</ele><time>2026-04-11T12:31:19.997Z</time></trkpt><trkpt lat="40.910378781791536" lon="8.827647900386394"><ele>26.8</ele><time>2026-04-11T12:31:20.997Z</time></trkpt><trkpt lat="40.910333802355005" lon="8.827536674722728"><ele>26.6</ele><time>2026-04-11T12:31:21.997Z</time></trkpt><trkpt lat="40.91031779468286" lon="8.827422728938412"><ele>26.400000000000002</ele><time>2026-04-11T12:31:22.997Z</time></trkpt><trkpt lat="40.91029779773881" lon="8.827273498642034"><ele>26.200000000000003</ele><time>2026-04-11T12:31:23.997Z</time></trkpt><trkpt lat="40.91028943527989" lon="8.827127828841043"><ele>26.0</ele><time>2026-04-11T12:31:24.997Z</time></trkpt><trkpt lat="40.9103094366117" lon="8.82698669844896"><ele>26.0</ele><time>2026-04-11T12:31:25.997Z</time></trkpt><trkpt lat="40.91033253101419" lon="8.82686844855055"><ele>26.0</ele><time>2026-04-11T12:31:26.997Z</time></trkpt><trkpt lat="40.910351356323204" lon="8.82671445108023"><ele>26.0</ele><time>2026-04-11T12:31:27.997Z</time></trkpt><trkpt lat="40.91040344877895" lon="8.82656832278139"><ele>26.0</ele><time>2026-04-11T12:31:28.997Z</time></trkpt><trkpt lat="40.910475984896884" lon="8.826406324674933"><ele>26.0</ele><time>2026-04-11T12:31:29.997Z</time></trkpt><trkpt lat="40.910526779710494" lon="8.826261250576836"><ele>26.0</ele><time>2026-04-11T12:31:30.997Z</time></trkpt><trkpt lat="40.91057942573514" lon="8.826096158318279"><ele>26.0</ele><time>2026-04-11T12:31:31.997Z</time></trkpt><trkpt lat="40.91063822011204" lon="8.825962930406796"><ele>26.0</ele><time>2026-04-11T12:31:32.997Z</time></trkpt><trkpt lat="40.91068645691607" lon="8.825826853995341"><ele>25.25</ele><time>2026-04-11T12:31:33.997Z</time></trkpt><trkpt lat="40.91073458878851" lon="8.8256883707203"><ele>24.5</ele><time>2026-04-11T12:31:34.997Z</time></trkpt><trkpt lat="40.91078246691324" lon="8.825524844044049"><ele>23.75</ele><time>2026-04-11T12:31:35.997Z</time></trkpt><trkpt lat="40.910791783065285" lon="8.825381436662804"><ele>23.0</ele><time>2026-04-11T12:31:36.997Z</time></trkpt><trkpt lat="40.91081090550684" lon="8.825254960978544"><ele>22.666666666666668</ele><time>2026-04-11T12:31:37.997Z</time></trkpt><trkpt lat="40.91082449832586" lon="8.825090979808895"><ele>22.333333333333336</ele><time>2026-04-11T12:31:39.997Z</time></trkpt><trkpt lat="40.9108316203673" lon="8.824993161398428"><ele>22.0</ele><time>2026-04-11T12:31:40.997Z</time></trkpt><trkpt lat="40.91083919652715" lon="8.824894847416036"><ele>21.666666666666668</ele><time>2026-04-11T12:31:41.997Z</time></trkpt><trkpt lat="40.910850111990555" lon="8.824797625859489"><ele>21.333333333333332</ele><time>2026-04-11T12:31:42.997Z</time></trkpt><trkpt lat="40.91087977425036" lon="8.824691902687832"><ele>21.0</ele><time>2026-04-11T12:31:43.997Z</time></trkpt><trkpt lat="40.910917863910235" lon="8.824572515717596"><ele>20.8</ele><time>2026-04-11T12:31:44.997Z</time></trkpt><trkpt lat="40.9109503955176" lon="8.824438669167781"><ele>20.6</ele><time>2026-04-11T12:31:45.997Z</time></trkpt><trkpt lat="40.91098261335298" lon="8.824292258974191"><ele>20.4</ele><time>2026-04-11T12:31:46.997Z</time></trkpt><trkpt lat="40.91101237555888" lon="8.824161757268588"><ele>20.2</ele><time>2026-04-11T12:31:47.997Z</time></trkpt><trkpt lat="40.91105944735092" lon="8.824070426456824"><ele>20.0</ele><time>2026-04-11T12:31:48.997Z</time></trkpt><trkpt lat="40.9111208361308" lon="8.82396202790253"><ele>20.333333333333336</ele><time>2026-04-11T12:31:50.997Z</time></trkpt><trkpt lat="40.91123464182633" lon="8.823895891456223"><ele>20.666666666666668</ele><time>2026-04-11T12:31:52.997Z</time></trkpt><trkpt lat="40.91129273348898" lon="8.823836527256974"><ele>21.0</ele><time>2026-04-11T12:31:53.997Z</time></trkpt><trkpt lat="40.91132911967114" lon="8.823752058187708"><ele>21.333333333333332</ele><time>2026-04-11T12:31:54.997Z</time></trkpt><trkpt lat="40.911388286779975" lon="8.823678293936856"><ele>21.666666666666664</ele><time>2026-04-11T12:31:55.997Z</time></trkpt><trkpt lat="40.911442123412485" lon="8.823586464210196"><ele>22.0</ele><time>2026-04-11T12:31:56.997Z</time></trkpt><trkpt lat="40.91150118853288" lon="8.823489342573914"><ele>22.400000000000002</ele><time>2026-04-11T12:31:57.997Z</time></trkpt><trkpt lat="40.9115630422537" lon="8.82338894954233"><ele>22.8</ele><time>2026-04-11T12:31:58.997Z</time></trkpt><trkpt lat="40.91163058890569" lon="8.82328518655264"><ele>23.2</ele><time>2026-04-11T12:31:59.997Z</time></trkpt><trkpt lat="40.91168044174974" lon="8.823154471624086"><ele>23.6</ele><time>2026-04-11T12:32:00.997Z</time></trkpt><trkpt lat="40.91173868764036" lon="8.823038147270017"><ele>24.0</ele><time>2026-04-11T12:32:01.997Z</time></trkpt><trkpt lat="40.91179428376183" lon="8.822922435605467"><ele>24.2</ele><time>2026-04-11T12:32:02.997Z</time></trkpt><trkpt lat="40.91185124738416" lon="8.822809769598896"><ele>24.4</ele><time>2026-04-11T12:32:03.997Z</time></trkpt><trkpt lat="40.9119113107681" lon="8.822702803992517"><ele>24.6</ele><time>2026-04-11T12:32:04.997Z</time></trkpt><trkpt lat="40.911979668396796" lon="8.822611025694462"><ele>24.8</ele><time>2026-04-11T12:32:05.997Z</time></trkpt><trkpt lat="40.912047163605486" lon="8.822523222122419"><ele>25.0</ele><time>2026-04-11T12:32:06.997Z</time></trkpt><trkpt lat="40.91209702847497" lon="8.822423045148685"><ele>26.0</ele><time>2026-04-11T12:32:07.997Z</time></trkpt><trkpt lat="40.91213520043632" lon="8.822315383923417"><ele>27.0</ele><time>2026-04-11T12:32:08.997Z</time></trkpt><trkpt lat="40.912153805131474" lon="8.82219328901582"><ele>28.0</ele><time>2026-04-11T12:32:09.997Z</time></trkpt><trkpt lat="40.91216862690919" lon="8.82206545837315"><ele>29.0</ele><time>2026-04-11T12:32:10.997Z</time></trkpt><trkpt lat="40.91218593959551" lon="8.821934484480085"><ele>30.0</ele><time>2026-04-11T12:32:11.997Z</time></trkpt><trkpt lat="40.912207951988286" lon="8.821793862046366"><ele>31.6</ele><time>2026-04-11T12:32:12.997Z</time></trkpt><trkpt lat="40.91222825290262" lon="8.821644465805498"><ele>33.2</ele><time>2026-04-11T12:32:13.997Z</time></trkpt><trkpt lat="40.91224493731234" lon="8.821497989634993"><ele>34.8</ele><time>2026-04-11T12:32:14.997Z</time></trkpt><trkpt lat="40.91227463417071" lon="8.821366584530473"><ele>36.4</ele><time>2026-04-11T12:32:15.997Z</time></trkpt><trkpt lat="40.91229425502362" lon="8.821243198570935"><ele>38.0</ele><time>2026-04-11T12:32:16.997Z</time></trkpt><trkpt lat="40.91231038145632" lon="8.821122013377565"><ele>38.0</ele><time>2026-04-11T12:32:17.997Z</time></trkpt><trkpt lat="40.91231584277987" lon="8.821004072495674"><ele>38.0</ele><time>2026-04-11T12:32:18.997Z</time></trkpt><trkpt lat="40.912312476755886" lon="8.820911398807967"><ele>38.0</ele><time>2026-04-11T12:32:19.997Z</time></trkpt><trkpt lat="40.91230408002793" lon="8.820815102452881"><ele>38.0</ele><time>2026-04-11T12:32:21.997Z</time></trkpt><trkpt lat="40.912307236257014" lon="8.820715624621364"><ele>38.0</ele><time>2026-04-11T12:32:24.997Z</time></trkpt><trkpt lat="40.912314528964544" lon="8.82059780563621"><ele>38.0</ele><time>2026-04-11T12:32:26.997Z</time></trkpt><trkpt lat="40.912345791204416" lon="8.820493427865554"><ele>39.0</ele><time>2026-04-11T12:32:27.997Z</time></trkpt><trkpt lat="40.91237331201719" lon="8.820389965078006"><ele>40.0</ele><time>2026-04-11T12:32:28.997Z</time></trkpt><trkpt lat="40.912392169533604" lon="8.820284222808517"><ele>41.0</ele><time>2026-04-11T12:32:29.997Z</time></trkpt><trkpt lat="40.9123806697357" lon="8.820168213058357"><ele>42.0</ele><time>2026-04-11T12:32:30.997Z</time></trkpt><trkpt lat="40.91235483531042" lon="8.820045913615106"><ele>43.0</ele><time>2026-04-11T12:32:31.997Z</time></trkpt><trkpt lat="40.912303589136556" lon="8.819904710084922"><ele>43.25</ele><time>2026-04-11T12:32:32.997Z</time></trkpt><trkpt lat="40.91225709147107" lon="8.819755968399637"><ele>43.5</ele><time>2026-04-11T12:32:33.997Z</time></trkpt><trkpt lat="40.912217983950406" lon="8.819604412721075"><ele>43.75</ele><time>2026-04-11T12:32:34.997Z</time></trkpt><trkpt lat="40.91217722609664" lon="8.81944806058117"><ele>44.0</ele><time>2026-04-11T12:32:35.997Z</time></trkpt><trkpt lat="40.91213884433727" lon="8.819276796211815"><ele>44.25</ele><time>2026-04-11T12:32:36.997Z</time></trkpt><trkpt lat="40.91209521227273" lon="8.819096581864422"><ele>44.5</ele><time>2026-04-11T12:32:37.997Z</time></trkpt><trkpt lat="40.91207492070715" lon="8.818913862787776"><ele>44.75</ele><time>2026-04-11T12:32:38.997Z</time></trkpt><trkpt lat="40.91205581462555" lon="8.818742674064168"><ele>45.0</ele><time>2026-04-11T12:32:39.997Z</time></trkpt><trkpt lat="40.912038068103094" lon="8.818586420029215"><ele>44.75</ele><time>2026-04-11T12:32:40.997Z</time></trkpt><trkpt lat="40.91201910425948" lon="8.818439690590509"><ele>44.5</ele><time>2026-04-11T12:32:41.996Z</time></trkpt><trkpt lat="40.91200172103493" lon="8.818284076252356"><ele>44.25</ele><time>2026-04-11T12:32:42.996Z</time></trkpt><trkpt lat="40.91194098617262" lon="8.818132285040582"><ele>44.0</ele><time>2026-04-11T12:32:43.996Z</time></trkpt><trkpt lat="40.911874647073624" lon="8.81796790287102"><ele>44.0</ele><time>2026-04-11T12:32:44.996Z</time></trkpt><trkpt lat="40.911800101417874" lon="8.81779653653629"><ele>44.0</ele><time>2026-04-11T12:32:45.996Z</time></trkpt><trkpt lat="40.91172752777101" lon="8.817617888409302"><ele>44.0</ele><time>2026-04-11T12:32:46.996Z</time></trkpt><trkpt lat="40.911665481215195" lon="8.817439084239707"><ele>45.666666666666664</ele><time>2026-04-11T12:32:47.996Z</time></trkpt><trkpt lat="40.91160245166264" lon="8.817259011798992"><ele>47.33333333333333</ele><time>2026-04-11T12:32:48.996Z</time></trkpt><trkpt lat="40.91154381422897" lon="8.817073231976384"><ele>49.0</ele><time>2026-04-11T12:32:49.996Z</time></trkpt><trkpt lat="40.911474862922425" lon="8.816893730346743"><ele>48.5</ele><time>2026-04-11T12:32:50.996Z</time></trkpt><trkpt lat="40.91140910193054" lon="8.816718682361818"><ele>48.0</ele><time>2026-04-11T12:32:51.996Z</time></trkpt><trkpt lat="40.91134515707902" lon="8.816551085335396"><ele>47.5</ele><time>2026-04-11T12:32:52.996Z</time></trkpt><trkpt lat="40.91128739474106" lon="8.816391085583382"><ele>47.0</ele><time>2026-04-11T12:32:53.996Z</time></trkpt><trkpt lat="40.91122805905176" lon="8.816234339295447"><ele>47.0</ele><time>2026-04-11T12:32:54.996Z</time></trkpt><trkpt lat="40.91117064825257" lon="8.816075282761732"><ele>47.0</ele><time>2026-04-11T12:32:55.996Z</time></trkpt><trkpt lat="40.91111572014839" lon="8.815913038282256"><ele>47.0</ele><time>2026-04-11T12:32:56.996Z</time></trkpt><trkpt lat="40.911058708605324" lon="8.815752154671182"><ele>47.0</ele><time>2026-04-11T12:32:57.996Z</time></trkpt><trkpt lat="40.91100798562392" lon="8.81558493083052"><ele>47.0</ele><time>2026-04-11T12:32:58.996Z</time></trkpt><trkpt lat="40.910958920106744" lon="8.815415662573189"><ele>47.0</ele><time>2026-04-11T12:32:59.996Z</time></trkpt><trkpt lat="40.91091491600048" lon="8.815242975800018"><ele>47.0</ele><time>2026-04-11T12:33:00.996Z</time></trkpt><trkpt lat="40.9108710634614" lon="8.815068177870634"><ele>47.0</ele><time>2026-04-11T12:33:01.996Z</time></trkpt><trkpt lat="40.910846580832086" lon="8.814886363814662"><ele>48.75</ele><time>2026-04-11T12:33:02.996Z</time></trkpt><trkpt lat="40.910831497095536" lon="8.814700275662739"><ele>50.5</ele><time>2026-04-11T12:33:03.996Z</time></trkpt><trkpt lat="40.910820947006535" lon="8.814513834136429"><ele>52.25</ele><time>2026-04-11T12:33:04.996Z</time></trkpt><trkpt lat="40.91081452789347" lon="8.814326865377375"><ele>54.0</ele><time>2026-04-11T12:33:05.996Z</time></trkpt><trkpt lat="40.91079194949366" lon="8.814145963521938"><ele>54.5</ele><time>2026-04-11T12:33:06.996Z</time></trkpt><trkpt lat="40.910783385574575" lon="8.813969236115685"><ele>55.0</ele><time>2026-04-11T12:33:07.996Z</time></trkpt><trkpt lat="40.91077582045802" lon="8.813806204728582"><ele>55.5</ele><time>2026-04-11T12:33:08.996Z</time></trkpt><trkpt lat="40.910769581088246" lon="8.813655835839787"><ele>56.0</ele><time>2026-04-11T12:33:09.996Z</time></trkpt><trkpt lat="40.9107606816083" lon="8.813510047720767"><ele>56.25</ele><time>2026-04-11T12:33:10.996Z</time></trkpt><trkpt lat="40.91075769388901" lon="8.813370232821706"><ele>56.5</ele><time>2026-04-11T12:33:12.001Z</time></trkpt><trkpt lat="40.91072297070165" lon="8.813235580711309"><ele>56.75</ele><time>2026-04-11T12:33:13.001Z</time></trkpt><trkpt lat="40.910660688703764" lon="8.813110289019006"><ele>57.0</ele><time>2026-04-11T12:33:14.001Z</time></trkpt><trkpt lat="40.91057976669775" lon="8.812987579907595"><ele>57.0</ele><time>2026-04-11T12:33:15.001Z</time></trkpt><trkpt lat="40.91050703987891" lon="8.812841190446049"><ele>57.0</ele><time>2026-04-11T12:33:16.001Z</time></trkpt><trkpt lat="40.910425524976326" lon="8.812682663085813"><ele>57.0</ele><time>2026-04-11T12:33:17.001Z</time></trkpt><trkpt lat="40.91033973489788" lon="8.812516233989747"><ele>57.0</ele><time>2026-04-11T12:33:18.001Z</time></trkpt><trkpt lat="40.91024970342222" lon="8.812345136558092"><ele>57.66666666666667</ele><time>2026-04-11T12:33:19.001Z</time></trkpt><trkpt lat="40.910166000906806" lon="8.81216989392617"><ele>58.333333333333336</ele><time>2026-04-11T12:33:20.001Z</time></trkpt><trkpt lat="40.91008830033627" lon="8.81199758736433"><ele>59.0</ele><time>2026-04-11T12:33:21.001Z</time></trkpt><trkpt lat="40.910001920965534" lon="8.81183278476568"><ele>60.75</ele><time>2026-04-11T12:33:22.001Z</time></trkpt><trkpt lat="40.90992508700854" lon="8.811668356163809"><ele>62.5</ele><time>2026-04-11T12:33:23.001Z</time></trkpt><trkpt lat="40.909853730189475" lon="8.811501008002303"><ele>64.25</ele><time>2026-04-11T12:33:24.001Z</time></trkpt><trkpt lat="40.90979089817426" lon="8.811340215976832"><ele>66.0</ele><time>2026-04-11T12:33:25.001Z</time></trkpt><trkpt lat="40.90973026860278" lon="8.811181107595528"><ele>66.0</ele><time>2026-04-11T12:33:26.001Z</time></trkpt><trkpt lat="40.90966934768505" lon="8.81102337964692"><ele>66.0</ele><time>2026-04-11T12:33:27Z</time></trkpt><trkpt lat="40.90961492305428" lon="8.810861948237907"><ele>66.0</ele><time>2026-04-11T12:33:28Z</time></trkpt><trkpt lat="40.90956842179096" lon="8.810693561024515"><ele>66.0</ele><time>2026-04-11T12:33:29.001Z</time></trkpt><trkpt lat="40.90952655517382" lon="8.810543813149831"><ele>66.25</ele><time>2026-04-11T12:33:30.001Z</time></trkpt><trkpt lat="40.90947827306428" lon="8.810399030302682"><ele>66.5</ele><time>2026-04-11T12:33:31.001Z</time></trkpt><trkpt lat="40.909437442336646" lon="8.810242059617341"><ele>66.75</ele><time>2026-04-11T12:33:32.001Z</time></trkpt><trkpt lat="40.909374524529106" lon="8.810098535858724"><ele>67.0</ele><time>2026-04-11T12:33:33.001Z</time></trkpt><trkpt lat="40.909328031615786" lon="8.809938052105222"><ele>67.25</ele><time>2026-04-11T12:33:34.001Z</time></trkpt><trkpt lat="40.90931355559554" lon="8.809790457816156"><ele>67.5</ele><time>2026-04-11T12:33:35.001Z</time></trkpt><trkpt lat="40.909276253522386" lon="8.809647193616605"><ele>67.75</ele><time>2026-04-11T12:33:36.001Z</time></trkpt><trkpt lat="40.909271549710375" lon="8.809504545191986"><ele>68.0</ele><time>2026-04-11T12:33:37.001Z</time></trkpt><trkpt lat="40.90925009876013" lon="8.809328091221312"><ele>68.5</ele><time>2026-04-11T12:33:38.001Z</time></trkpt><trkpt lat="40.90922698168313" lon="8.809141075719966"><ele>69.0</ele><time>2026-04-11T12:33:39.001Z</time></trkpt><trkpt lat="40.90919761255873" lon="8.808944429343594"><ele>69.5</ele><time>2026-04-11T12:33:40.001Z</time></trkpt><trkpt lat="40.909173608297486" lon="8.80876933362083"><ele>70.0</ele><time>2026-04-11T12:33:41.001Z</time></trkpt><trkpt lat="40.90915045199747" lon="8.808577284032602"><ele>69.66666666666666</ele><time>2026-04-11T12:33:42.001Z</time></trkpt><trkpt lat="40.90911383656917" lon="8.808355237781743"><ele>69.33333333333333</ele><time>2026-04-11T12:33:43.001Z</time></trkpt><trkpt lat="40.909085241147494" lon="8.808137900901112"><ele>69.0</ele><time>2026-04-11T12:33:44.001Z</time></trkpt><trkpt lat="40.90906075762066" lon="8.80791880052493"><ele>69.0</ele><time>2026-04-11T12:33:45.001Z</time></trkpt><trkpt lat="40.90900813387937" lon="8.80770119249062"><ele>69.0</ele><time>2026-04-11T12:33:46.001Z</time></trkpt><trkpt lat="40.908963873074576" lon="8.807483474832459"><ele>69.0</ele><time>2026-04-11T12:33:47.001Z</time></trkpt><trkpt lat="40.90892454597109" lon="8.807291373637344"><ele>69.33333333333333</ele><time>2026-04-11T12:33:48.001Z</time></trkpt><trkpt lat="40.90890355950665" lon="8.807085369968647"><ele>69.66666666666666</ele><time>2026-04-11T12:33:49.001Z</time></trkpt><trkpt lat="40.90886467309599" lon="8.806887986526343"><ele>70.0</ele><time>2026-04-11T12:33:50.001Z</time></trkpt><trkpt lat="40.90882673527197" lon="8.806697676380072"><ele>70.33333333333333</ele><time>2026-04-11T12:33:51.001Z</time></trkpt><trkpt lat="40.90878710359714" lon="8.806500138985752"><ele>70.66666666666667</ele><time>2026-04-11T12:33:52.001Z</time></trkpt><trkpt lat="40.90874389798131" lon="8.806284802256819"><ele>71.0</ele><time>2026-04-11T12:33:53.001Z</time></trkpt><trkpt lat="40.908702588677365" lon="8.806084088811259"><ele>71.25</ele><time>2026-04-11T12:33:54.001Z</time></trkpt><trkpt lat="40.908664298340966" lon="8.8058993476138"><ele>71.5</ele><time>2026-04-11T12:33:55.001Z</time></trkpt><trkpt lat="40.908626807910885" lon="8.805718472319569"><ele>71.75</ele><time>2026-04-11T12:33:56Z</time></trkpt><trkpt lat="40.908598593830256" lon="8.805563775409725"><ele>72.0</ele><time>2026-04-11T12:33:57Z</time></trkpt><trkpt lat="40.908566668379414" lon="8.805401154855792"><ele>72.0</ele><time>2026-04-11T12:33:58Z</time></trkpt><trkpt lat="40.90853345484777" lon="8.80524083965199"><ele>72.0</ele><time>2026-04-11T12:33:59Z</time></trkpt><trkpt lat="40.90849648449795" lon="8.805060987572933"><ele>72.0</ele><time>2026-04-11T12:34:00Z</time></trkpt><trkpt lat="40.908476481388526" lon="8.804860266550564"><ele>72.0</ele><time>2026-04-11T12:34:01Z</time></trkpt><trkpt lat="40.908447142428216" lon="8.804686105917533"><ele>73.0</ele><time>2026-04-11T12:34:02Z</time></trkpt><trkpt lat="40.908428032374076" lon="8.804529745480071"><ele>74.0</ele><time>2026-04-11T12:34:03Z</time></trkpt><trkpt lat="40.908436094215965" lon="8.804367722199947"><ele>75.0</ele><time>2026-04-11T12:34:04Z</time></trkpt><trkpt lat="40.90844198611115" lon="8.804190731274053"><ele>76.0</ele><time>2026-04-11T12:34:05Z</time></trkpt><trkpt lat="40.908460770525025" lon="8.804021938973133"><ele>76.0</ele><time>2026-04-11T12:34:06Z</time></trkpt><trkpt lat="40.90847764966951" lon="8.803843330258935"><ele>76.0</ele><time>2026-04-11T12:34:07Z</time></trkpt><trkpt lat="40.90849844314583" lon="8.80364796550377"><ele>76.0</ele><time>2026-04-11T12:34:08Z</time></trkpt><trkpt lat="40.90852372178247" lon="8.803436170399614"><ele>76.0</ele><time>2026-04-11T12:34:09Z</time></trkpt><trkpt lat="40.908542226867155" lon="8.803229096230679"><ele>76.0</ele><time>2026-04-11T12:34:10Z</time></trkpt><trkpt lat="40.90855558019839" lon="8.803052793222005"><ele>76.0</ele><time>2026-04-11T12:34:11Z</time></trkpt><trkpt lat="40.908538936495944" lon="8.802892917861554"><ele>76.0</ele><time>2026-04-11T12:34:12Z</time></trkpt><trkpt lat="40.90854566230068" lon="8.802737679295909"><ele>76.0</ele><time>2026-04-11T12:34:13Z</time></trkpt><trkpt lat="40.908529989241195" lon="8.802529362884668"><ele>76.25</ele><time>2026-04-11T12:34:14Z</time></trkpt><trkpt lat="40.90850410222347" lon="8.802371305824852"><ele>76.5</ele><time>2026-04-11T12:34:15Z</time></trkpt><trkpt lat="40.90850417711848" lon="8.802213410009008"><ele>76.75</ele><time>2026-04-11T12:34:16Z</time></trkpt><trkpt lat="40.908499252021215" lon="8.802040308321649"><ele>77.0</ele><time>2026-04-11T12:34:17Z</time></trkpt><trkpt lat="40.908472637075505" lon="8.801866376640946"><ele>77.2</ele><time>2026-04-11T12:34:18Z</time></trkpt><trkpt lat="40.90847040286374" lon="8.8017202456319"><ele>77.4</ele><time>2026-04-11T12:34:19Z</time></trkpt><trkpt lat="40.908546491886774" lon="8.801591953514215"><ele>77.6</ele><time>2026-04-11T12:34:20Z</time></trkpt><trkpt lat="40.90860519586742" lon="8.801487706042948"><ele>77.8</ele><time>2026-04-11T12:34:21Z</time></trkpt><trkpt lat="40.90866235426647" lon="8.801379350609745"><ele>78.0</ele><time>2026-04-11T12:34:22Z</time></trkpt><trkpt lat="40.90873917521614" lon="8.801236787363045"><ele>78.0</ele><time>2026-04-11T12:34:23Z</time></trkpt><trkpt lat="40.90882153229022" lon="8.80108395040734"><ele>78.0</ele><time>2026-04-11T12:34:24Z</time></trkpt><trkpt lat="40.908890345618644" lon="8.800956247630408"><ele>78.0</ele><time>2026-04-11T12:34:25Z</time></trkpt><trkpt lat="40.90895167382428" lon="8.800833684892336"><ele>78.0</ele><time>2026-04-11T12:34:26Z</time></trkpt><trkpt lat="40.90901350691641" lon="8.80071211444892"><ele>78.2</ele><time>2026-04-11T12:34:27Z</time></trkpt><trkpt lat="40.90907972901842" lon="8.800603771306113"><ele>78.4</ele><time>2026-04-11T12:34:28Z</time></trkpt><trkpt lat="40.9091158056843" lon="8.800522584750876"><ele>78.60000000000001</ele><time>2026-04-11T12:34:29Z</time></trkpt><trkpt lat="40.90915117597831" lon="8.800448337997402"><ele>78.8</ele><time>2026-04-11T12:34:30Z</time></trkpt><trkpt lat="40.90917624325847" lon="8.800340131917974"><ele>79.0</ele><time>2026-04-11T12:34:32Z</time></trkpt><trkpt lat="40.9090110355097" lon="8.800302692927476"><ele>79.0</ele><time>2026-04-11T12:34:41Z</time></trkpt><trkpt lat="40.909091730797634" lon="8.800410956091557"><ele>79.0</ele><time>2026-04-11T12:34:44Z</time></trkpt><trkpt lat="40.909163076135194" lon="8.800466073948945"><ele>79.0</ele><time>2026-04-11T12:34:45Z</time></trkpt><trkpt lat="40.90925858650165" lon="8.800501441072672"><ele>79.0</ele><time>2026-04-11T12:34:46Z</time></trkpt><trkpt lat="40.90936041755505" lon="8.80050037961075"><ele>79.0</ele><time>2026-04-11T12:34:47Z</time></trkpt><trkpt lat="40.90944141555956" lon="8.800559076708264"><ele>79.0</ele><time>2026-04-11T12:34:48Z</time></trkpt><trkpt lat="40.90951141364143" lon="8.800610076080828"><ele>79.0</ele><time>2026-04-11T12:34:49Z</time></trkpt><trkpt lat="40.909581308124515" lon="8.800662726204006"><ele>79.0</ele><time>2026-04-11T12:34:50Z</time></trkpt><trkpt lat="40.90965521549179" lon="8.800718399437686"><ele>79.0</ele><time>2026-04-11T12:34:51Z</time></trkpt><trkpt lat="40.909737048730136" lon="8.800780043024586"><ele>79.0</ele><time>2026-04-11T12:34:52Z</time></trkpt><trkpt lat="40.9098293249367" lon="8.800865030480084"><ele>79.0</ele><time>2026-04-11T12:34:53Z</time></trkpt><trkpt lat="40.90992805040334" lon="8.800913815938376"><ele>79.0</ele><time>2026-04-11T12:34:54Z</time></trkpt><trkpt lat="40.91001990213222" lon="8.800971750829525"><ele>79.0</ele><time>2026-04-11T12:34:55Z</time></trkpt><trkpt lat="40.910125772665324" lon="8.801037847650111"><ele>79.0</ele><time>2026-04-11T12:34:56Z</time></trkpt><trkpt lat="40.910249118565396" lon="8.801148590989085"><ele>76.0</ele><time>2026-04-11T12:34:57Z</time></trkpt><trkpt lat="40.91037385916167" lon="8.801208030837703"><ele>73.0</ele><time>2026-04-11T12:34:58Z</time></trkpt><trkpt lat="40.910520354373304" lon="8.801260260810682"><ele>70.0</ele><time>2026-04-11T12:34:59Z</time></trkpt><trkpt lat="40.910664454867955" lon="8.801320665161482"><ele>67.0</ele><time>2026-04-11T12:35:00Z</time></trkpt><trkpt lat="40.91080685066414" lon="8.801382029304527"><ele>65.75</ele><time>2026-04-11T12:35:01Z</time></trkpt><trkpt lat="40.91093473431516" lon="8.801438654009157"><ele>64.5</ele><time>2026-04-11T12:35:02Z</time></trkpt><trkpt lat="40.911075328502896" lon="8.801464675343503"><ele>63.25</ele><time>2026-04-11T12:35:03Z</time></trkpt><trkpt lat="40.91124285139112" lon="8.801513590843165"><ele>62.0</ele><time>2026-04-11T12:35:04Z</time></trkpt><trkpt lat="40.911391830302186" lon="8.801558129748514"><ele>62.0</ele><time>2026-04-11T12:35:05Z</time></trkpt><trkpt lat="40.9115405515084" lon="8.801607345213368"><ele>62.0</ele><time>2026-04-11T12:35:06Z</time></trkpt><trkpt lat="40.91170822557756" lon="8.801659236479034"><ele>62.0</ele><time>2026-04-11T12:35:07Z</time></trkpt><trkpt lat="40.911886641755984" lon="8.801724167639486"><ele>61.333333333333336</ele><time>2026-04-11T12:35:07.999Z</time></trkpt><trkpt lat="40.91207344924503" lon="8.801764756894116"><ele>60.66666666666667</ele><time>2026-04-11T12:35:08.999Z</time></trkpt><trkpt lat="40.91224168153612" lon="8.801822958093839"><ele>60.0</ele><time>2026-04-11T12:35:09.999Z</time></trkpt><trkpt lat="40.912425636765185" lon="8.801907102216397"><ele>57.66666666666667</ele><time>2026-04-11T12:35:10.999Z</time></trkpt><trkpt lat="40.912592649155634" lon="8.801964039880692"><ele>55.333333333333336</ele><time>2026-04-11T12:35:11.999Z</time></trkpt><trkpt lat="40.91272823215787" lon="8.802010262705842"><ele>53.0</ele><time>2026-04-11T12:35:12.999Z</time></trkpt><trkpt lat="40.912874877389704" lon="8.80206025694109"><ele>53.0</ele><time>2026-04-11T12:35:13.999Z</time></trkpt><trkpt lat="40.912998479030804" lon="8.802104651949056"><ele>53.0</ele><time>2026-04-11T12:35:14.999Z</time></trkpt><trkpt lat="40.913134814537344" lon="8.802153551442835"><ele>53.0</ele><time>2026-04-11T12:35:15.999Z</time></trkpt><trkpt lat="40.91328725155179" lon="8.80220416379598"><ele>53.0</ele><time>2026-04-11T12:35:16.999Z</time></trkpt><trkpt lat="40.913430867500004" lon="8.80225184743053"><ele>52.0</ele><time>2026-04-11T12:35:17.999Z</time></trkpt><trkpt lat="40.913574863404314" lon="8.802300532252309"><ele>51.0</ele><time>2026-04-11T12:35:18.999Z</time></trkpt><trkpt lat="40.91372554237486" lon="8.802352037422418"><ele>50.0</ele><time>2026-04-11T12:35:19.999Z</time></trkpt><trkpt lat="40.91386552338332" lon="8.802399885817376"><ele>49.0</ele><time>2026-04-11T12:35:20.999Z</time></trkpt><trkpt lat="40.91401033326213" lon="8.802449384816663"><ele>49.0</ele><time>2026-04-11T12:35:21.999Z</time></trkpt><trkpt lat="40.9141604290039" lon="8.802500690632247"><ele>49.0</ele><time>2026-04-11T12:35:22.999Z</time></trkpt><trkpt lat="40.91431064427859" lon="8.802552037388098"><ele>49.0</ele><time>2026-04-11T12:35:23.999Z</time></trkpt><trkpt lat="40.91446522919846" lon="8.8026052348406"><ele>47.666666666666664</ele><time>2026-04-11T12:35:24.999Z</time></trkpt><trkpt lat="40.91462635858647" lon="8.802660662681122"><ele>46.33333333333333</ele><time>2026-04-11T12:35:25.999Z</time></trkpt><trkpt lat="40.914781532116194" lon="8.802714040756953"><ele>45.0</ele><time>2026-04-11T12:35:26.999Z</time></trkpt><trkpt lat="40.91493847378619" lon="8.80276776767364"><ele>43.333333333333336</ele><time>2026-04-11T12:35:27.999Z</time></trkpt><trkpt lat="40.91515286190857" lon="8.80265514110437"><ele>41.66666666666667</ele><time>2026-04-11T12:35:28.999Z</time></trkpt><trkpt lat="40.91533538836453" lon="8.802733057366925"><ele>40.0</ele><time>2026-04-11T12:35:29.999Z</time></trkpt><trkpt lat="40.91550685307562" lon="8.802801296009843"><ele>39.66666666666667</ele><time>2026-04-11T12:35:30.999Z</time></trkpt><trkpt lat="40.91567491826341" lon="8.802847549933976"><ele>39.333333333333336</ele><time>2026-04-11T12:35:31.999Z</time></trkpt><trkpt lat="40.91581936811765" lon="8.803051878498696"><ele>39.0</ele><time>2026-04-11T12:35:32.999Z</time></trkpt><trkpt lat="40.915991812606656" lon="8.803087588748095"><ele>37.666666666666664</ele><time>2026-04-11T12:35:33.999Z</time></trkpt><trkpt lat="40.9161558273766" lon="8.803103809095806"><ele>36.33333333333333</ele><time>2026-04-11T12:35:34.999Z</time></trkpt><trkpt lat="40.916307963841284" lon="8.803112525916085"><ele>35.0</ele><time>2026-04-11T12:35:35.999Z</time></trkpt><trkpt lat="40.91647143457778" lon="8.803117639574648"><ele>35.0</ele><time>2026-04-11T12:35:36.999Z</time></trkpt><trkpt lat="40.91664337273857" lon="8.8031217640377"><ele>35.0</ele><time>2026-04-11T12:35:37.999Z</time></trkpt><trkpt lat="40.9168071728926" lon="8.803126758229187"><ele>35.0</ele><time>2026-04-11T12:35:38.999Z</time></trkpt><trkpt lat="40.91698616664226" lon="8.803133144884418"><ele>33.666666666666664</ele><time>2026-04-11T12:35:39.999Z</time></trkpt><trkpt lat="40.917159984470324" lon="8.803139346856675"><ele>32.333333333333336</ele><time>2026-04-11T12:35:40.999Z</time></trkpt><trkpt lat="40.91733204245198" lon="8.803145487662697"><ele>31.0</ele><time>2026-04-11T12:35:41.999Z</time></trkpt><trkpt lat="40.917496472598145" lon="8.80315135467238"><ele>28.333333333333336</ele><time>2026-04-11T12:35:42.999Z</time></trkpt><trkpt lat="40.91766649547164" lon="8.803157421234157"><ele>25.666666666666668</ele><time>2026-04-11T12:35:43.999Z</time></trkpt><trkpt lat="40.917835837423105" lon="8.803163463498985"><ele>23.0</ele><time>2026-04-11T12:35:44.999Z</time></trkpt><trkpt lat="40.91801961227591" lon="8.803170020745956"><ele>23.0</ele><time>2026-04-11T12:35:45.999Z</time></trkpt><trkpt lat="40.918196408112195" lon="8.803176328970526"><ele>23.0</ele><time>2026-04-11T12:35:46.999Z</time></trkpt><trkpt lat="40.91837646884941" lon="8.803182753692147"><ele>23.0</ele><time>2026-04-11T12:35:47.999Z</time></trkpt><trkpt lat="40.91855613142133" lon="8.803188884648455"><ele>22.333333333333336</ele><time>2026-04-11T12:35:48.999Z</time></trkpt><trkpt lat="40.91874326996261" lon="8.803195329284604"><ele>21.666666666666668</ele><time>2026-04-11T12:35:49.999Z</time></trkpt><trkpt lat="40.91892955805305" lon="8.803201744633599"><ele>21.0</ele><time>2026-04-11T12:35:50.999Z</time></trkpt><trkpt lat="40.91911268790729" lon="8.803208051220036"><ele>19.666666666666668</ele><time>2026-04-11T12:35:51.999Z</time></trkpt><trkpt lat="40.919296783672095" lon="8.803214391070055"><ele>18.333333333333336</ele><time>2026-04-11T12:35:52.999Z</time></trkpt><trkpt lat="40.9194767730093" lon="8.803221116380938"><ele>17.0</ele><time>2026-04-11T12:35:53.999Z</time></trkpt><trkpt lat="40.91965200504556" lon="8.80322785215476"><ele>17.0</ele><time>2026-04-11T12:35:54.999Z</time></trkpt><trkpt lat="40.9198326220869" lon="8.803234794917097"><ele>17.0</ele><time>2026-04-11T12:35:55.999Z</time></trkpt><trkpt lat="40.92001551730316" lon="8.803241825253725"><ele>17.0</ele><time>2026-04-11T12:35:56.999Z</time></trkpt><trkpt lat="40.92022249151872" lon="8.803249781164455"><ele>16.666666666666668</ele><time>2026-04-11T12:35:57.999Z</time></trkpt><trkpt lat="40.920419290575865" lon="8.803257472643747"><ele>16.333333333333332</ele><time>2026-04-11T12:35:58.999Z</time></trkpt><trkpt lat="40.92061685370712" lon="8.803265324276731"><ele>16.0</ele><time>2026-04-11T12:35:59.999Z</time></trkpt><trkpt lat="40.9207984602122" lon="8.803272541755087"><ele>14.0</ele><time>2026-04-11T12:36:00.999Z</time></trkpt><trkpt lat="40.92098195482754" lon="8.803279834273296"><ele>12.0</ele><time>2026-04-11T12:36:01.999Z</time></trkpt><trkpt lat="40.92115140261755" lon="8.803286571094604"><ele>10.0</ele><time>2026-04-11T12:36:02.999Z</time></trkpt><trkpt lat="40.92132065574744" lon="8.803293300214673"><ele>10.0</ele><time>2026-04-11T12:36:03.999Z</time></trkpt><trkpt lat="40.92147254787522" lon="8.80329853599059"><ele>10.0</ele><time>2026-04-11T12:36:04.999Z</time></trkpt><trkpt lat="40.921626535537364" lon="8.8033048913548"><ele>10.0</ele><time>2026-04-11T12:36:05.999Z</time></trkpt><trkpt lat="40.921774517648664" lon="8.803310998860011"><ele>9.0</ele><time>2026-04-11T12:36:06.999Z</time></trkpt><trkpt lat="40.92191978642771" lon="8.803318147646959"><ele>8.0</ele><time>2026-04-11T12:36:07.999Z</time></trkpt><trkpt lat="40.922036571914184" lon="8.803324409595971"><ele>7.0</ele><time>2026-04-11T12:36:08.999Z</time></trkpt><trkpt lat="40.92214056812965" lon="8.803334853490654"><ele>6.0</ele><time>2026-04-11T12:36:09.999Z</time></trkpt><trkpt lat="40.92223966536196" lon="8.803351525982306"><ele>6.0</ele><time>2026-04-11T12:36:10.999Z</time></trkpt><trkpt lat="40.922331730531326" lon="8.803376709344429"><ele>6.0</ele><time>2026-04-11T12:36:11.999Z</time></trkpt><trkpt lat="40.92239770966636" lon="8.803402672114169"><ele>6.0</ele><time>2026-04-11T12:36:12.999Z</time></trkpt><trkpt lat="40.92247655808776" lon="8.803441814830522"><ele>6.0</ele><time>2026-04-11T12:36:14.999Z</time></trkpt><trkpt lat="40.9225461960213" lon="8.803479363130377"><ele>6.0</ele><time>2026-04-11T12:36:17.999Z</time></trkpt><trkpt lat="40.92268501477953" lon="8.80338380798207"><ele>5.833333333333333</ele><time>2026-04-11T12:36:20.999Z</time></trkpt><trkpt lat="40.922734271526636" lon="8.803301140525955"><ele>5.666666666666667</ele><time>2026-04-11T12:36:21.999Z</time></trkpt><trkpt lat="40.922772269361424" lon="8.803230822151365"><ele>5.5</ele><time>2026-04-11T12:36:22.999Z</time></trkpt><trkpt lat="40.92279179915304" lon="8.803144446948291"><ele>5.333333333333334</ele><time>2026-04-11T12:36:23.999Z</time></trkpt><trkpt lat="40.92278645441783" lon="8.803024738725554"><ele>5.166666666666667</ele><time>2026-04-11T12:36:24.999Z</time></trkpt><trkpt lat="40.92278666103326" lon="8.80288513855065"><ele>5.0</ele><time>2026-04-11T12:36:25.999Z</time></trkpt><trkpt lat="40.9227710358256" lon="8.80273865877025"><ele>5.25</ele><time>2026-04-11T12:36:26.999Z</time></trkpt><trkpt lat="40.92274954985675" lon="8.802584812443413"><ele>5.5</ele><time>2026-04-11T12:36:27.998Z</time></trkpt><trkpt lat="40.92272598440392" lon="8.802418536873077"><ele>5.75</ele><time>2026-04-11T12:36:28.998Z</time></trkpt><trkpt lat="40.92271215378923" lon="8.802240489147986"><ele>6.0</ele><time>2026-04-11T12:36:29.998Z</time></trkpt><trkpt lat="40.9227094799266" lon="8.802025029256285"><ele>6.0</ele><time>2026-04-11T12:36:30.998Z</time></trkpt><trkpt lat="40.92269664741853" lon="8.801822078432886"><ele>6.0</ele><time>2026-04-11T12:36:31.998Z</time></trkpt><trkpt lat="40.922676566322046" lon="8.801584874674422"><ele>6.0</ele><time>2026-04-11T12:36:32.998Z</time></trkpt><trkpt lat="40.92264765100305" lon="8.801351451830865"><ele>6.0</ele><time>2026-04-11T12:36:33.998Z</time></trkpt><trkpt lat="40.92259865607619" lon="8.801079155087702"><ele>6.0</ele><time>2026-04-11T12:36:34.998Z</time></trkpt><trkpt lat="40.92256220447026" lon="8.800771278345698"><ele>6.0</ele><time>2026-04-11T12:36:35.998Z</time></trkpt><trkpt lat="40.92252491193325" lon="8.800454118186108"><ele>6.5</ele><time>2026-04-11T12:36:36.998Z</time></trkpt><trkpt lat="40.922461205486826" lon="8.800119971041534"><ele>7.0</ele><time>2026-04-11T12:36:37.998Z</time></trkpt><trkpt lat="40.92242577792258" lon="8.799806411425445"><ele>7.0</ele><time>2026-04-11T12:36:38.998Z</time></trkpt><trkpt lat="40.92237013579559" lon="8.799512935847995"><ele>7.0</ele><time>2026-04-11T12:36:39.998Z</time></trkpt><trkpt lat="40.92232805658617" lon="8.79922417389045"><ele>7.333333333333334</ele><time>2026-04-11T12:36:40.998Z</time></trkpt><trkpt lat="40.92227667104191" lon="8.798941005712127"><ele>7.666666666666666</ele><time>2026-04-11T12:36:41.998Z</time></trkpt><trkpt lat="40.9222240536494" lon="8.798656118311666"><ele>8.0</ele><time>2026-04-11T12:36:42.998Z</time></trkpt><trkpt lat="40.92219467806663" lon="8.7983697423294"><ele>8.0</ele><time>2026-04-11T12:36:43.998Z</time></trkpt><trkpt lat="40.922150857239494" lon="8.798081455148738"><ele>8.0</ele><time>2026-04-11T12:36:44.998Z</time></trkpt><trkpt lat="40.92210358083416" lon="8.797805057103844"><ele>8.0</ele><time>2026-04-11T12:36:45.998Z</time></trkpt><trkpt lat="40.922060637684666" lon="8.797544334449901"><ele>8.333333333333332</ele><time>2026-04-11T12:36:46.998Z</time></trkpt><trkpt lat="40.9220171612973" lon="8.797287633238998"><ele>8.666666666666666</ele><time>2026-04-11T12:36:47.998Z</time></trkpt><trkpt lat="40.92197012856977" lon="8.797041709278318"><ele>9.0</ele><time>2026-04-11T12:36:48.998Z</time></trkpt><trkpt lat="40.92190912600225" lon="8.796817231484967"><ele>9.666666666666666</ele><time>2026-04-11T12:36:49.998Z</time></trkpt><trkpt lat="40.92185028630656" lon="8.796617522223421"><ele>10.333333333333332</ele><time>2026-04-11T12:36:50.998Z</time></trkpt><trkpt lat="40.92177626334659" lon="8.796408422933508"><ele>11.0</ele><time>2026-04-11T12:36:51.998Z</time></trkpt><trkpt lat="40.921691027502874" lon="8.79620310340696"><ele>11.5</ele><time>2026-04-11T12:36:52.998Z</time></trkpt><trkpt lat="40.92160739924272" lon="8.796035012836866"><ele>12.0</ele><time>2026-04-11T12:36:53.998Z</time></trkpt><trkpt lat="40.92152360249579" lon="8.795875934796923"><ele>12.5</ele><time>2026-04-11T12:36:54.998Z</time></trkpt><trkpt lat="40.92144827707162" lon="8.795731575871311"><ele>13.0</ele><time>2026-04-11T12:36:55.998Z</time></trkpt><trkpt lat="40.92137766118341" lon="8.79559989526341"><ele>13.75</ele><time>2026-04-11T12:36:56.998Z</time></trkpt><trkpt lat="40.921294175687116" lon="8.795446014505066"><ele>14.5</ele><time>2026-04-11T12:36:57.998Z</time></trkpt><trkpt lat="40.921213260094085" lon="8.795289503767496"><ele>15.25</ele><time>2026-04-11T12:36:58.998Z</time></trkpt><trkpt lat="40.921140755602124" lon="8.795146912443592"><ele>16.0</ele><time>2026-04-11T12:36:59.998Z</time></trkpt><trkpt lat="40.9210606520675" lon="8.794979359585238"><ele>16.0</ele><time>2026-04-11T12:37:00.998Z</time></trkpt><trkpt lat="40.920993845495225" lon="8.794812334289698"><ele>16.0</ele><time>2026-04-11T12:37:01.998Z</time></trkpt><trkpt lat="40.920937510255236" lon="8.794649092940293"><ele>16.0</ele><time>2026-04-11T12:37:02.998Z</time></trkpt><trkpt lat="40.92088237631951" lon="8.794465615181977"><ele>16.0</ele><time>2026-04-11T12:37:03.998Z</time></trkpt><trkpt lat="40.92083805833091" lon="8.794271499274712"><ele>16.333333333333332</ele><time>2026-04-11T12:37:04.998Z</time></trkpt><trkpt lat="40.92075824268142" lon="8.794057458374578"><ele>16.666666666666668</ele><time>2026-04-11T12:37:05.998Z</time></trkpt><trkpt lat="40.920662427529685" lon="8.793825238655206"><ele>17.0</ele><time>2026-04-11T12:37:06.998Z</time></trkpt><trkpt lat="40.920612880468525" lon="8.793593052092808"><ele>16.5</ele><time>2026-04-11T12:37:07.998Z</time></trkpt><trkpt lat="40.92055245227185" lon="8.793311906677905"><ele>16.0</ele><time>2026-04-11T12:37:08.998Z</time></trkpt><trkpt lat="40.92045854061066" lon="8.793035824984168"><ele>16.0</ele><time>2026-04-11T12:37:09.998Z</time></trkpt><trkpt lat="40.92038700995954" lon="8.792740936978888"><ele>16.0</ele><time>2026-04-11T12:37:10.998Z</time></trkpt><trkpt lat="40.9203044719255" lon="8.792470852967206"><ele>16.333333333333332</ele><time>2026-04-11T12:37:11.998Z</time></trkpt><trkpt lat="40.920211351775535" lon="8.792218129026374"><ele>16.666666666666668</ele><time>2026-04-11T12:37:12.998Z</time></trkpt><trkpt lat="40.920134274902566" lon="8.791954641606965"><ele>17.0</ele><time>2026-04-11T12:37:13.998Z</time></trkpt><trkpt lat="40.920057247801836" lon="8.791697104048469"><ele>17.666666666666668</ele><time>2026-04-11T12:37:14.998Z</time></trkpt><trkpt lat="40.91998275144342" lon="8.791447748376411"><ele>18.333333333333332</ele><time>2026-04-11T12:37:15.998Z</time></trkpt><trkpt lat="40.91990532209198" lon="8.791188575168741"><ele>19.0</ele><time>2026-04-11T12:37:16.998Z</time></trkpt><trkpt lat="40.919784419167534" lon="8.790963210169148"><ele>19.0</ele><time>2026-04-11T12:37:17.998Z</time></trkpt><trkpt lat="40.919724508963014" lon="8.790683421313211"><ele>19.0</ele><time>2026-04-11T12:37:18.998Z</time></trkpt><trkpt lat="40.91965528669113" lon="8.790433742280912"><ele>19.0</ele><time>2026-04-11T12:37:19.998Z</time></trkpt><trkpt lat="40.919571169825744" lon="8.790186843415224"><ele>19.0</ele><time>2026-04-11T12:37:20.998Z</time></trkpt><trkpt lat="40.91949308904712" lon="8.789920695736546"><ele>19.0</ele><time>2026-04-11T12:37:21.998Z</time></trkpt><trkpt lat="40.91942034006484" lon="8.789651052030397"><ele>19.0</ele><time>2026-04-11T12:37:22.998Z</time></trkpt><trkpt lat="40.91934149665711" lon="8.789379562641289"><ele>20.0</ele><time>2026-04-11T12:37:23.998Z</time></trkpt><trkpt lat="40.91928482726795" lon="8.789073342138245"><ele>21.0</ele><time>2026-04-11T12:37:24.998Z</time></trkpt><trkpt lat="40.919192519147586" lon="8.788795543260168"><ele>21.333333333333332</ele><time>2026-04-11T12:37:25.998Z</time></trkpt><trkpt lat="40.91911359491771" lon="8.78852809381733"><ele>21.666666666666664</ele><time>2026-04-11T12:37:26.998Z</time></trkpt><trkpt lat="40.91903665605376" lon="8.788268830020796"><ele>22.0</ele><time>2026-04-11T12:37:27.998Z</time></trkpt><trkpt lat="40.91895785691072" lon="8.788006277233892"><ele>22.0</ele><time>2026-04-11T12:37:28.998Z</time></trkpt><trkpt lat="40.9188825208432" lon="8.787754167495645"><ele>22.0</ele><time>2026-04-11T12:37:29.998Z</time></trkpt><trkpt lat="40.91880597973225" lon="8.78749686486651"><ele>22.0</ele><time>2026-04-11T12:37:30.998Z</time></trkpt><trkpt lat="40.9187327979603" lon="8.787250854982393"><ele>22.0</ele><time>2026-04-11T12:37:31.998Z</time></trkpt><trkpt lat="40.918662240830834" lon="8.787013991733374"><ele>22.0</ele><time>2026-04-11T12:37:32.998Z</time></trkpt><trkpt lat="40.91859429987951" lon="8.786786328772289"><ele>22.0</ele><time>2026-04-11T12:37:33.998Z</time></trkpt><trkpt lat="40.918530176867606" lon="8.786571459435843"><ele>22.333333333333332</ele><time>2026-04-11T12:37:34.998Z</time></trkpt><trkpt lat="40.9184630249711" lon="8.786346440373505"><ele>22.666666666666668</ele><time>2026-04-11T12:37:35.998Z</time></trkpt><trkpt lat="40.91836692668501" lon="8.786149301518662"><ele>23.0</ele><time>2026-04-11T12:37:36.998Z</time></trkpt><trkpt lat="40.91832076981542" lon="8.785927238856386"><ele>23.0</ele><time>2026-04-11T12:37:37.998Z</time></trkpt><trkpt lat="40.918269825051055" lon="8.785703757347775"><ele>23.0</ele><time>2026-04-11T12:37:38.998Z</time></trkpt><trkpt lat="40.91822826620735" lon="8.78548029616396"><ele>23.0</ele><time>2026-04-11T12:37:39.998Z</time></trkpt><trkpt lat="40.918153818368125" lon="8.7852761177067"><ele>22.666666666666668</ele><time>2026-04-11T12:37:40.998Z</time></trkpt><trkpt lat="40.918059039302214" lon="8.785091546706713"><ele>22.333333333333332</ele><time>2026-04-11T12:37:41.998Z</time></trkpt><trkpt lat="40.91804670119953" lon="8.78487316713745"><ele>22.0</ele><time>2026-04-11T12:37:42.998Z</time></trkpt><trkpt lat="40.91799097607011" lon="8.784648276674202"><ele>22.0</ele><time>2026-04-11T12:37:43.998Z</time></trkpt><trkpt lat="40.9179403675616" lon="8.784453140312115"><ele>22.0</ele><time>2026-04-11T12:37:44.998Z</time></trkpt><trkpt lat="40.91788879245538" lon="8.78425427670623"><ele>22.0</ele><time>2026-04-11T12:37:45.998Z</time></trkpt><trkpt lat="40.91784004035268" lon="8.784066297975043"><ele>21.5</ele><time>2026-04-11T12:37:46.998Z</time></trkpt><trkpt lat="40.9177942599604" lon="8.78389025189721"><ele>21.0</ele><time>2026-04-11T12:37:47.998Z</time></trkpt><trkpt lat="40.91770527251191" lon="8.78374974335239"><ele>20.5</ele><time>2026-04-11T12:37:48.997Z</time></trkpt><trkpt lat="40.917658689998134" lon="8.783590511957575"><ele>20.0</ele><time>2026-04-11T12:37:49.997Z</time></trkpt><trkpt lat="40.917642135446314" lon="8.78339000712768"><ele>20.333333333333336</ele><time>2026-04-11T12:37:50.997Z</time></trkpt><trkpt lat="40.917599940392584" lon="8.7832048206701"><ele>20.666666666666668</ele><time>2026-04-11T12:37:51.997Z</time></trkpt><trkpt lat="40.917552413228435" lon="8.782994931013867"><ele>21.0</ele><time>2026-04-11T12:37:52.997Z</time></trkpt><trkpt lat="40.917503123456946" lon="8.782765728738292"><ele>20.0</ele><time>2026-04-11T12:37:53.997Z</time></trkpt><trkpt lat="40.91744014548147" lon="8.782519886057953"><ele>19.0</ele><time>2026-04-11T12:37:54.997Z</time></trkpt><trkpt lat="40.91739475230612" lon="8.782343154992272"><ele>18.0</ele><time>2026-04-11T12:37:55.997Z</time></trkpt><trkpt lat="40.91734328018974" lon="8.782142756556771"><ele>18.0</ele><time>2026-04-11T12:37:56.997Z</time></trkpt><trkpt lat="40.917293585564856" lon="8.78194935617089"><ele>18.0</ele><time>2026-04-11T12:37:57.997Z</time></trkpt><trkpt lat="40.91724595377433" lon="8.781764074973056"><ele>18.0</ele><time>2026-04-11T12:37:58.997Z</time></trkpt><trkpt lat="40.9171969587637" lon="8.781573490664659"><ele>18.25</ele><time>2026-04-11T12:37:59.997Z</time></trkpt><trkpt lat="40.91714896320394" lon="8.781386794327844"><ele>18.5</ele><time>2026-04-11T12:38:00.997Z</time></trkpt><trkpt lat="40.917101331050496" lon="8.781205115788042"><ele>18.75</ele><time>2026-04-11T12:38:01.997Z</time></trkpt><trkpt lat="40.91705192659668" lon="8.781016700014343"><ele>19.0</ele><time>2026-04-11T12:38:02.997Z</time></trkpt><trkpt lat="40.91700468876949" lon="8.780836545503817"><ele>19.25</ele><time>2026-04-11T12:38:03.997Z</time></trkpt><trkpt lat="40.91695345825865" lon="8.780651500538186"><ele>19.5</ele><time>2026-04-11T12:38:04.997Z</time></trkpt><trkpt lat="40.91690152931686" lon="8.780464521724012"><ele>19.75</ele><time>2026-04-11T12:38:05.997Z</time></trkpt><trkpt lat="40.91684652940246" lon="8.78028818527732"><ele>20.0</ele><time>2026-04-11T12:38:06.997Z</time></trkpt><trkpt lat="40.91679350973932" lon="8.780123898273251"><ele>21.2</ele><time>2026-04-11T12:38:07.997Z</time></trkpt><trkpt lat="40.9167330078476" lon="8.780019074117048"><ele>22.4</ele><time>2026-04-11T12:38:08.997Z</time></trkpt><trkpt lat="40.91667649464379" lon="8.779920419754422"><ele>23.6</ele><time>2026-04-11T12:38:09.997Z</time></trkpt><trkpt lat="40.916616020337685" lon="8.779823041922642"><ele>24.8</ele><time>2026-04-11T12:38:10.997Z</time></trkpt><trkpt lat="40.916551809486414" lon="8.779728391219573"><ele>26.0</ele><time>2026-04-11T12:38:11.997Z</time></trkpt><trkpt lat="40.91647943033129" lon="8.77962723674553"><ele>26.0</ele><time>2026-04-11T12:38:12.997Z</time></trkpt><trkpt lat="40.91641297734583" lon="8.779535893345313"><ele>26.0</ele><time>2026-04-11T12:38:13.997Z</time></trkpt><trkpt lat="40.916352354004566" lon="8.779452562745139"><ele>26.0</ele><time>2026-04-11T12:38:14.997Z</time></trkpt><trkpt lat="40.916272392020616" lon="8.779465047515261"><ele>26.0</ele><time>2026-04-11T12:38:17.997Z</time></trkpt><trkpt lat="40.91614678648552" lon="8.77951787671279"><ele>26.0</ele><time>2026-04-11T12:38:18.997Z</time></trkpt><trkpt lat="40.91601460387467" lon="8.779575372813031"><ele>27.0</ele><time>2026-04-11T12:38:19.997Z</time></trkpt><trkpt lat="40.9158907055972" lon="8.779627831797017"><ele>28.0</ele><time>2026-04-11T12:38:20.997Z</time></trkpt><trkpt lat="40.915768046461174" lon="8.7796608125358"><ele>29.0</ele><time>2026-04-11T12:38:21.997Z</time></trkpt><trkpt lat="40.91565022647654" lon="8.77972818985118"><ele>30.0</ele><time>2026-04-11T12:38:22.997Z</time></trkpt><trkpt lat="40.915534901678036" lon="8.779786529136377"><ele>30.0</ele><time>2026-04-11T12:38:23.997Z</time></trkpt><trkpt lat="40.915426649974854" lon="8.77982830699777"><ele>30.0</ele><time>2026-04-11T12:38:24.997Z</time></trkpt><trkpt lat="40.9153008672721" lon="8.779887065939946"><ele>30.0</ele><time>2026-04-11T12:38:25.997Z</time></trkpt><trkpt lat="40.91517137188273" lon="8.779931786311149"><ele>30.0</ele><time>2026-04-11T12:38:26.997Z</time></trkpt><trkpt lat="40.91502749854653" lon="8.77994473761241"><ele>31.5</ele><time>2026-04-11T12:38:27.997Z</time></trkpt><trkpt lat="40.91492626375343" lon="8.779988060054142"><ele>33.0</ele><time>2026-04-11T12:38:28.997Z</time></trkpt><trkpt lat="40.91480183845589" lon="8.780019094858636"><ele>34.5</ele><time>2026-04-11T12:38:29.997Z</time></trkpt><trkpt lat="40.91469143459184" lon="8.780046670174787"><ele>36.0</ele><time>2026-04-11T12:38:30.997Z</time></trkpt><trkpt lat="40.914555737027094" lon="8.780062819540776"><ele>36.0</ele><time>2026-04-11T12:38:31.997Z</time></trkpt><trkpt lat="40.914425819954026" lon="8.780106769302794"><ele>36.0</ele><time>2026-04-11T12:38:32.997Z</time></trkpt><trkpt lat="40.91428469226788" lon="8.780148896389694"><ele>36.0</ele><time>2026-04-11T12:38:33.997Z</time></trkpt><trkpt lat="40.91413767607297" lon="8.780195867022417"><ele>36.0</ele><time>2026-04-11T12:38:34.997Z</time></trkpt><trkpt lat="40.91397605242623" lon="8.780246500007115"><ele>36.75</ele><time>2026-04-11T12:38:35.997Z</time></trkpt><trkpt lat="40.913836177155886" lon="8.780271854033511"><ele>37.5</ele><time>2026-04-11T12:38:36.997Z</time></trkpt><trkpt lat="40.913688809951935" lon="8.780292737031342"><ele>38.25</ele><time>2026-04-11T12:38:37.997Z</time></trkpt><trkpt lat="40.913552561552386" lon="8.780311754130238"><ele>39.0</ele><time>2026-04-11T12:38:38.997Z</time></trkpt><trkpt lat="40.91343386421015" lon="8.780362242518757"><ele>40.0</ele><time>2026-04-11T12:38:39.997Z</time></trkpt><trkpt lat="40.9133224961472" lon="8.780453715144759"><ele>41.0</ele><time>2026-04-11T12:38:40.997Z</time></trkpt><trkpt lat="40.91321754409374" lon="8.780532722492646"><ele>42.0</ele><time>2026-04-11T12:38:41.997Z</time></trkpt><trkpt lat="40.9131130122451" lon="8.780613659740695"><ele>43.0</ele><time>2026-04-11T12:38:42.997Z</time></trkpt><trkpt lat="40.91298235171049" lon="8.780707185173517"><ele>43.0</ele><time>2026-04-11T12:38:43.997Z</time></trkpt><trkpt lat="40.9128298121174" lon="8.78079677824501"><ele>43.0</ele><time>2026-04-11T12:38:44.997Z</time></trkpt><trkpt lat="40.91268558905153" lon="8.78085992673093"><ele>43.0</ele><time>2026-04-11T12:38:45.997Z</time></trkpt><trkpt lat="40.912527796026524" lon="8.780898420974987"><ele>45.5</ele><time>2026-04-11T12:38:46.997Z</time></trkpt><trkpt lat="40.9123800582026" lon="8.780983097392522"><ele>48.0</ele><time>2026-04-11T12:38:47.997Z</time></trkpt><trkpt lat="40.91225986588042" lon="8.78103947429817"><ele>50.5</ele><time>2026-04-11T12:38:48.997Z</time></trkpt><trkpt lat="40.912132285057375" lon="8.781058878118182"><ele>53.0</ele><time>2026-04-11T12:38:49.997Z</time></trkpt><trkpt lat="40.912023969512354" lon="8.78106667720885"><ele>53.2</ele><time>2026-04-11T12:38:50.997Z</time></trkpt><trkpt lat="40.91192140087278" lon="8.781065560660641"><ele>53.4</ele><time>2026-04-11T12:38:51.997Z</time></trkpt><trkpt lat="40.911826033352625" lon="8.781090344909902"><ele>53.60000000000001</ele><time>2026-04-11T12:38:52.997Z</time></trkpt><trkpt lat="40.91172341309071" lon="8.781069418989384"><ele>53.800000000000004</ele><time>2026-04-11T12:38:53.997Z</time></trkpt><trkpt lat="40.91162843711234" lon="8.781023816383792"><ele>54.0</ele><time>2026-04-11T12:38:54.997Z</time></trkpt><trkpt lat="40.91148595770926" lon="8.780985003212024"><ele>56.25</ele><time>2026-04-11T12:38:55.997Z</time></trkpt><trkpt lat="40.91135414723974" lon="8.780990248933673"><ele>58.5</ele><time>2026-04-11T12:38:56.997Z</time></trkpt><trkpt lat="40.911211141510826" lon="8.7809934976799"><ele>60.75</ele><time>2026-04-11T12:38:57.997Z</time></trkpt><trkpt lat="40.91106098628563" lon="8.78101559976266"><ele>63.0</ele><time>2026-04-11T12:38:58.997Z</time></trkpt><trkpt lat="40.91089800847784" lon="8.781023486357084"><ele>64.33333333333333</ele><time>2026-04-11T12:38:59.997Z</time></trkpt><trkpt lat="40.91073381088532" lon="8.781043153472943"><ele>65.66666666666666</ele><time>2026-04-11T12:39:00.997Z</time></trkpt><trkpt lat="40.91054689614954" lon="8.781088453459892"><ele>67.0</ele><time>2026-04-11T12:39:01.997Z</time></trkpt><trkpt lat="40.910356465543366" lon="8.781128006025229"><ele>67.0</ele><time>2026-04-11T12:39:02.997Z</time></trkpt><trkpt lat="40.9102107082516" lon="8.781168169205866"><ele>67.0</ele><time>2026-04-11T12:39:03.997Z</time></trkpt><trkpt lat="40.91004761151527" lon="8.781191384533187"><ele>67.0</ele><time>2026-04-11T12:39:04.997Z</time></trkpt><trkpt lat="40.909868468626186" lon="8.781208637848225"><ele>70.33333333333333</ele><time>2026-04-11T12:39:05.997Z</time></trkpt><trkpt lat="40.90970191062756" lon="8.78125799533634"><ele>73.66666666666667</ele><time>2026-04-11T12:39:06.997Z</time></trkpt><trkpt lat="40.90953539884844" lon="8.781311816092572"><ele>77.0</ele><time>2026-04-11T12:39:07.997Z</time></trkpt><trkpt lat="40.909374563226095" lon="8.781363325778175"><ele>79.25</ele><time>2026-04-11T12:39:08.996Z</time></trkpt><trkpt lat="40.909229985080415" lon="8.781405621564039"><ele>81.5</ele><time>2026-04-11T12:39:09.996Z</time></trkpt><trkpt lat="40.909102662187045" lon="8.781439169573568"><ele>83.75</ele><time>2026-04-11T12:39:10.996Z</time></trkpt><trkpt lat="40.908955761239405" lon="8.781478045083073"><ele>86.0</ele><time>2026-04-11T12:39:11.996Z</time></trkpt><trkpt lat="40.9088206848918" lon="8.781511781208877"><ele>86.0</ele><time>2026-04-11T12:39:12.996Z</time></trkpt><trkpt lat="40.90866009791654" lon="8.78155174134448"><ele>86.0</ele><time>2026-04-11T12:39:13.996Z</time></trkpt><trkpt lat="40.90851428892359" lon="8.781592261999386"><ele>86.0</ele><time>2026-04-11T12:39:14.996Z</time></trkpt><trkpt lat="40.908395279566314" lon="8.78163126841442"><ele>86.0</ele><time>2026-04-11T12:39:15.996Z</time></trkpt><trkpt lat="40.90827484666315" lon="8.78166056221904"><ele>88.5</ele><time>2026-04-11T12:39:16.996Z</time></trkpt><trkpt lat="40.908178892601015" lon="8.781675912464522"><ele>91.0</ele><time>2026-04-11T12:39:17.996Z</time></trkpt><trkpt lat="40.9080506679401" lon="8.781688066908645"><ele>93.5</ele><time>2026-04-11T12:39:18.996Z</time></trkpt><trkpt lat="40.90792993339114" lon="8.78171770718418"><ele>96.0</ele><time>2026-04-11T12:39:19.996Z</time></trkpt><trkpt lat="40.907785578586356" lon="8.781743647193055"><ele>96.0</ele><time>2026-04-11T12:39:20.996Z</time></trkpt><trkpt lat="40.90764054870276" lon="8.78172525596158"><ele>96.0</ele><time>2026-04-11T12:39:21.996Z</time></trkpt><trkpt lat="40.907524909867846" lon="8.781703454472572"><ele>96.0</ele><time>2026-04-11T12:39:22.996Z</time></trkpt><trkpt lat="40.90741887702869" lon="8.781643569808299"><ele>96.0</ele><time>2026-04-11T12:39:23.996Z</time></trkpt><trkpt lat="40.90730869150026" lon="8.78157333708485"><ele>98.19999999999999</ele><time>2026-04-11T12:39:24.996Z</time></trkpt><trkpt lat="40.9072255181186" lon="8.78150090342765"><ele>100.39999999999999</ele><time>2026-04-11T12:39:25.996Z</time></trkpt><trkpt lat="40.907161807074196" lon="8.7814016783499"><ele>102.6</ele><time>2026-04-11T12:39:26.996Z</time></trkpt><trkpt lat="40.90709468388852" lon="8.781275500309428"><ele>104.8</ele><time>2026-04-11T12:39:27.996Z</time></trkpt><trkpt lat="40.90699985077005" lon="8.781167381359802"><ele>107.0</ele><time>2026-04-11T12:39:28.996Z</time></trkpt><trkpt lat="40.90688608052441" lon="8.78108942357679"><ele>107.0</ele><time>2026-04-11T12:39:29.996Z</time></trkpt><trkpt lat="40.90681694394734" lon="8.781049087378754"><ele>106.99999999999999</ele><time>2026-04-11T12:39:30.996Z</time></trkpt><trkpt lat="40.90676271486803" lon="8.780975253773349"><ele>106.99999999999999</ele><time>2026-04-11T12:39:31.996Z</time></trkpt><trkpt lat="40.90671798551861" lon="8.780850577401907"><ele>107.0</ele><time>2026-04-11T12:39:32.996Z</time></trkpt><trkpt lat="40.90668020056875" lon="8.780679921317505"><ele>107.0</ele><time>2026-04-11T12:39:33.996Z</time></trkpt><trkpt lat="40.906602344239715" lon="8.780494684191272"><ele>110.5</ele><time>2026-04-11T12:39:34.996Z</time></trkpt><trkpt lat="40.90652822004282" lon="8.78033387483446"><ele>114.0</ele><time>2026-04-11T12:39:35.996Z</time></trkpt><trkpt lat="40.90648053775671" lon="8.780145400825724"><ele>117.5</ele><time>2026-04-11T12:39:36.996Z</time></trkpt><trkpt lat="40.906444125036636" lon="8.779956100392338"><ele>121.0</ele><time>2026-04-11T12:39:37.996Z</time></trkpt><trkpt lat="40.90645551679572" lon="8.779753728693743"><ele>122.25</ele><time>2026-04-11T12:39:38.996Z</time></trkpt><trkpt lat="40.906432606646916" lon="8.779568480872566"><ele>123.5</ele><time>2026-04-11T12:39:39.996Z</time></trkpt><trkpt lat="40.90641143040327" lon="8.779383600236606"><ele>124.75</ele><time>2026-04-11T12:39:40.996Z</time></trkpt><trkpt lat="40.90636884005067" lon="8.779203717143375"><ele>126.0</ele><time>2026-04-11T12:39:41.996Z</time></trkpt><trkpt lat="40.90636934992756" lon="8.77902779322539"><ele>128.75</ele><time>2026-04-11T12:39:42.996Z</time></trkpt><trkpt lat="40.90636674044532" lon="8.778849837385163"><ele>131.5</ele><time>2026-04-11T12:39:43.996Z</time></trkpt><trkpt lat="40.906350520766864" lon="8.778664937166347"><ele>134.25</ele><time>2026-04-11T12:39:44.996Z</time></trkpt><trkpt lat="40.90631397984643" lon="8.778509262604205"><ele>137.0</ele><time>2026-04-11T12:39:45.996Z</time></trkpt><trkpt lat="40.90628824722059" lon="8.77838646702141"><ele>138.5</ele><time>2026-04-11T12:39:46.996Z</time></trkpt><trkpt lat="40.90621823753388" lon="8.77833967330261"><ele>140.0</ele><time>2026-04-11T12:39:47.996Z</time></trkpt><trkpt lat="40.9060853107421" lon="8.778289940884347"><ele>141.5</ele><time>2026-04-11T12:39:49.996Z</time></trkpt><trkpt lat="40.90596389007644" lon="8.778272415633442"><ele>143.0</ele><time>2026-04-11T12:39:50.996Z</time></trkpt><trkpt lat="40.90584968392058" lon="8.778221533487194"><ele>140.6</ele><time>2026-04-11T12:39:51.996Z</time></trkpt><trkpt lat="40.90575612633085" lon="8.778169984530697"><ele>138.20000000000002</ele><time>2026-04-11T12:39:52.996Z</time></trkpt><trkpt lat="40.90564132905269" lon="8.778141570219764"><ele>135.8</ele><time>2026-04-11T12:39:53.996Z</time></trkpt><trkpt lat="40.905533276828656" lon="8.778137193254056"><ele>133.4</ele><time>2026-04-11T12:39:54.996Z</time></trkpt><trkpt lat="40.9054131790952" lon="8.77814247073926"><ele>131.0</ele><time>2026-04-11T12:39:55.996Z</time></trkpt><trkpt lat="40.90530246734881" lon="8.778144419401208"><ele>131.0</ele><time>2026-04-11T12:39:56.996Z</time></trkpt><trkpt lat="40.90522554439659" lon="8.778181226032059"><ele>131.0</ele><time>2026-04-11T12:39:57.996Z</time></trkpt><trkpt lat="40.90515380847032" lon="8.778197310000557"><ele>131.0</ele><time>2026-04-11T12:39:58.996Z</time></trkpt><trkpt lat="40.90504483816258" lon="8.778177360293219"><ele>131.0</ele><time>2026-04-11T12:40:00.996Z</time></trkpt><trkpt lat="40.90497505975255" lon="8.778151439958997"><ele>131.0</ele><time>2026-04-11T12:40:01.996Z</time></trkpt><trkpt lat="40.90492094597643" lon="8.778097321080836"><ele>131.0</ele><time>2026-04-11T12:40:02.996Z</time></trkpt><trkpt lat="40.90487149660844" lon="8.778032339472443"><ele>129.2</ele><time>2026-04-11T12:40:03.996Z</time></trkpt><trkpt lat="40.90481117194052" lon="8.777960738984218"><ele>127.39999999999999</ele><time>2026-04-11T12:40:04.996Z</time></trkpt><trkpt lat="40.904759392288476" lon="8.777872696968622"><ele>125.6</ele><time>2026-04-11T12:40:05.996Z</time></trkpt><trkpt lat="40.90470807260537" lon="8.777738986592702"><ele>123.8</ele><time>2026-04-11T12:40:06.996Z</time></trkpt><trkpt lat="40.90467169673703" lon="8.777607738492703"><ele>122.0</ele><time>2026-04-11T12:40:07.996Z</time></trkpt><trkpt lat="40.904626890136214" lon="8.777473936843622"><ele>121.0</ele><time>2026-04-11T12:40:08.996Z</time></trkpt><trkpt lat="40.904562669032494" lon="8.777358025416637"><ele>119.99999999999999</ele><time>2026-04-11T12:40:09.996Z</time></trkpt><trkpt lat="40.90448486111138" lon="8.777277451968109"><ele>118.99999999999999</ele><time>2026-04-11T12:40:10.996Z</time></trkpt><trkpt lat="40.904402723537714" lon="8.77720835003426"><ele>118.0</ele><time>2026-04-11T12:40:11.996Z</time></trkpt><trkpt lat="40.90432535670037" lon="8.777131777619273"><ele>117.0</ele><time>2026-04-11T12:40:12.996Z</time></trkpt><trkpt lat="40.90426322412043" lon="8.77703900858553"><ele>115.25</ele><time>2026-04-11T12:40:13.996Z</time></trkpt><trkpt lat="40.90421834765209" lon="8.776912872830046"><ele>113.5</ele><time>2026-04-11T12:40:14.996Z</time></trkpt><trkpt lat="40.90417755682442" lon="8.776789778046238"><ele>111.75</ele><time>2026-04-11T12:40:15.996Z</time></trkpt><trkpt lat="40.90413964555972" lon="8.776630722887477"><ele>110.0</ele><time>2026-04-11T12:40:16.996Z</time></trkpt><trkpt lat="40.90411438831721" lon="8.776449312662363"><ele>109.75</ele><time>2026-04-11T12:40:18Z</time></trkpt><trkpt lat="40.9040836864673" lon="8.776255915951127"><ele>109.5</ele><time>2026-04-11T12:40:19Z</time></trkpt><trkpt lat="40.904071499426664" lon="8.776065997050907"><ele>109.25</ele><time>2026-04-11T12:40:20Z</time></trkpt><trkpt lat="40.90403998645716" lon="8.775899936968681"><ele>109.0</ele><time>2026-04-11T12:40:21Z</time></trkpt><trkpt lat="40.904030781751864" lon="8.775746046926505"><ele>109.25</ele><time>2026-04-11T12:40:22Z</time></trkpt><trkpt lat="40.90404593489463" lon="8.775607951708128"><ele>109.5</ele><time>2026-04-11T12:40:23Z</time></trkpt><trkpt lat="40.904046915529996" lon="8.77543862939909"><ele>109.75</ele><time>2026-04-11T12:40:24Z</time></trkpt><trkpt lat="40.904002026947104" lon="8.77530366433022"><ele>110.0</ele><time>2026-04-11T12:40:25Z</time></trkpt><trkpt lat="40.90396644548905" lon="8.775166568460575"><ele>110.0</ele><time>2026-04-11T12:40:26Z</time></trkpt><trkpt lat="40.90390909723269" lon="8.775076670193767"><ele>110.0</ele><time>2026-04-11T12:40:27Z</time></trkpt><trkpt lat="40.90386137163618" lon="8.774977438169461"><ele>110.0</ele><time>2026-04-11T12:40:28Z</time></trkpt><trkpt lat="40.90378926145936" lon="8.774926389630654"><ele>110.0</ele><time>2026-04-11T12:40:29Z</time></trkpt><trkpt lat="40.90369519118771" lon="8.774916864168244"><ele>110.0</ele><time>2026-04-11T12:40:30Z</time></trkpt><trkpt lat="40.903591682123164" lon="8.77492012598045"><ele>109.99999999999999</ele><time>2026-04-11T12:40:31Z</time></trkpt><trkpt lat="40.90348119476716" lon="8.77493322517843"><ele>110.0</ele><time>2026-04-11T12:40:32Z</time></trkpt><trkpt lat="40.90338985001889" lon="8.774916859592619"><ele>110.0</ele><time>2026-04-11T12:40:33Z</time></trkpt><trkpt lat="40.903310953188445" lon="8.774901316983112"><ele>110.0</ele><time>2026-04-11T12:40:34Z</time></trkpt><trkpt lat="40.90323447794783" lon="8.774889826763573"><ele>109.99999999999999</ele><time>2026-04-11T12:40:35Z</time></trkpt><trkpt lat="40.90316969490269" lon="8.774867319928598"><ele>110.0</ele><time>2026-04-11T12:40:36Z</time></trkpt><trkpt lat="40.90309781158628" lon="8.774819026469988"><ele>108.8</ele><time>2026-04-11T12:40:38Z</time></trkpt><trkpt lat="40.903050496857006" lon="8.774758459495375"><ele>107.6</ele><time>2026-04-11T12:40:40Z</time></trkpt><trkpt lat="40.90300801513476" lon="8.774683460468431"><ele>106.4</ele><time>2026-04-11T12:40:41Z</time></trkpt><trkpt lat="40.902993757356455" lon="8.77456293858648"><ele>105.2</ele><time>2026-04-11T12:40:42Z</time></trkpt><trkpt lat="40.90295358508105" lon="8.774410944267078"><ele>104.0</ele><time>2026-04-11T12:40:43Z</time></trkpt><trkpt lat="40.902945550270076" lon="8.774266151193588"><ele>104.0</ele><time>2026-04-11T12:40:44Z</time></trkpt><trkpt lat="40.902927055143785" lon="8.77410214227278"><ele>104.0</ele><time>2026-04-11T12:40:45Z</time></trkpt><trkpt lat="40.90289020405563" lon="8.77394013626543"><ele>104.0</ele><time>2026-04-11T12:40:46Z</time></trkpt><trkpt lat="40.90285978265178" lon="8.77375355334596"><ele>104.0</ele><time>2026-04-11T12:40:47Z</time></trkpt><trkpt lat="40.90282485565797" lon="8.773557998099331"><ele>106.0</ele><time>2026-04-11T12:40:48Z</time></trkpt><trkpt lat="40.902788794809645" lon="8.773364386580168"><ele>108.0</ele><time>2026-04-11T12:40:49Z</time></trkpt><trkpt lat="40.902758308099465" lon="8.773166937938313"><ele>110.0</ele><time>2026-04-11T12:40:50Z</time></trkpt><trkpt lat="40.90271596974655" lon="8.772949520193459"><ele>110.0</ele><time>2026-04-11T12:40:51Z</time></trkpt><trkpt lat="40.90268521118894" lon="8.772752720823483"><ele>110.0</ele><time>2026-04-11T12:40:52Z</time></trkpt><trkpt lat="40.902666996968584" lon="8.772566179438032"><ele>110.0</ele><time>2026-04-11T12:40:53Z</time></trkpt><trkpt lat="40.90263456039545" lon="8.772392034254446"><ele>110.0</ele><time>2026-04-11T12:40:54Z</time></trkpt><trkpt lat="40.902610170207765" lon="8.77220452333207"><ele>110.0</ele><time>2026-04-11T12:40:55Z</time></trkpt><trkpt lat="40.90257490709828" lon="8.772019811495975"><ele>110.0</ele><time>2026-04-11T12:40:56Z</time></trkpt><trkpt lat="40.90253996093035" lon="8.771835596259738"><ele>110.0</ele><time>2026-04-11T12:40:57Z</time></trkpt><trkpt lat="40.902503691367826" lon="8.7716691334769"><ele>110.0</ele><time>2026-04-11T12:40:58Z</time></trkpt><trkpt lat="40.90245615266693" lon="8.771523009985566"><ele>110.0</ele><time>2026-04-11T12:40:59Z</time></trkpt><trkpt lat="40.90239358648905" lon="8.77138814717264"><ele>110.0</ele><time>2026-04-11T12:41:00Z</time></trkpt><trkpt lat="40.90231198633535" lon="8.77125332893789"><ele>110.0</ele><time>2026-04-11T12:41:01Z</time></trkpt><trkpt lat="40.90222441230136" lon="8.771116277001726"><ele>110.0</ele><time>2026-04-11T12:41:02Z</time></trkpt><trkpt lat="40.90211568385004" lon="8.771008519852277"><ele>110.5</ele><time>2026-04-11T12:41:03Z</time></trkpt><trkpt lat="40.90199900114003" lon="8.770909722511588"><ele>111.0</ele><time>2026-04-11T12:41:04Z</time></trkpt><trkpt lat="40.90189624596726" lon="8.770825332736987"><ele>111.5</ele><time>2026-04-11T12:41:05Z</time></trkpt><trkpt lat="40.90180133247481" lon="8.770764293556667"><ele>112.0</ele><time>2026-04-11T12:41:06Z</time></trkpt><trkpt lat="40.90171535680009" lon="8.770694563413324"><ele>112.0</ele><time>2026-04-11T12:41:07Z</time></trkpt><trkpt lat="40.90166364032653" lon="8.770621557783546"><ele>111.99999999999999</ele><time>2026-04-11T12:41:08Z</time></trkpt><trkpt lat="40.90156724705146" lon="8.77053872132544"><ele>111.99999999999999</ele><time>2026-04-11T12:41:10Z</time></trkpt><trkpt lat="40.90149068742242" lon="8.770488368425948"><ele>112.0</ele><time>2026-04-11T12:41:12Z</time></trkpt><trkpt lat="40.9014934834321" lon="8.770360483134366"><ele>112.0</ele><time>2026-04-11T12:41:14Z</time></trkpt><trkpt lat="40.90157625985618" lon="8.770325518429587"><ele>112.0</ele><time>2026-04-11T12:41:16Z</time></trkpt><trkpt lat="40.901693577789736" lon="8.770291543458905"><ele>111.99999999999999</ele><time>2026-04-11T12:41:18Z</time></trkpt><trkpt lat="40.901764554537856" lon="8.77027283283817"><ele>111.99999999999999</ele><time>2026-04-11T12:41:18.999Z</time></trkpt><trkpt lat="40.90183893904332" lon="8.770254703900402"><ele>112.0</ele><time>2026-04-11T12:41:19.999Z</time></trkpt><trkpt lat="40.90196529023569" lon="8.770222725042013"><ele>112.0</ele><time>2026-04-11T12:41:21.999Z</time></trkpt><trkpt lat="40.90204107157615" lon="8.770200756307247"><ele>114.16666666666667</ele><time>2026-04-11T12:41:22.999Z</time></trkpt><trkpt lat="40.90211548824524" lon="8.77017785918522"><ele>116.33333333333334</ele><time>2026-04-11T12:41:23.999Z</time></trkpt><trkpt lat="40.902198448761844" lon="8.7701459065758"><ele>118.5</ele><time>2026-04-11T12:41:24.999Z</time></trkpt><trkpt lat="40.90227965418573" lon="8.770100955740999"><ele>120.66666666666666</ele><time>2026-04-11T12:41:25.999Z</time></trkpt><trkpt lat="40.90233985998006" lon="8.770035949560002"><ele>122.83333333333333</ele><time>2026-04-11T12:41:26.999Z</time></trkpt><trkpt lat="40.90240564399746" lon="8.769957707664025"><ele>125.0</ele><time>2026-04-11T12:41:27.999Z</time></trkpt><trkpt lat="40.902480815605884" lon="8.76986458017821"><ele>124.99999999999999</ele><time>2026-04-11T12:41:28.999Z</time></trkpt><trkpt lat="40.90252883857113" lon="8.769765362848482"><ele>125.0</ele><time>2026-04-11T12:41:29.999Z</time></trkpt><trkpt lat="40.90258875529684" lon="8.769709161840153"><ele>125.0</ele><time>2026-04-11T12:41:30.999Z</time></trkpt><trkpt lat="40.90266542193877" lon="8.769678133860912"><ele>125.0</ele><time>2026-04-11T12:41:31.999Z</time></trkpt><trkpt lat="40.90274998440151" lon="8.769663621760103"><ele>124.99999999999999</ele><time>2026-04-11T12:41:32.999Z</time></trkpt><trkpt lat="40.90283599157165" lon="8.76963994235268"><ele>125.0</ele><time>2026-04-11T12:41:33.999Z</time></trkpt><trkpt lat="40.90292742829002" lon="8.769592372814094"><ele>127.2</ele><time>2026-04-11T12:41:34.999Z</time></trkpt><trkpt lat="40.90300380112665" lon="8.769581515942214"><ele>129.4</ele><time>2026-04-11T12:41:35.999Z</time></trkpt><trkpt lat="40.90309664034409" lon="8.769550407419679"><ele>131.6</ele><time>2026-04-11T12:41:36.999Z</time></trkpt><trkpt lat="40.9031921526086" lon="8.769490961837592"><ele>133.8</ele><time>2026-04-11T12:41:37.999Z</time></trkpt><trkpt lat="40.903292044525756" lon="8.769458862896823"><ele>136.0</ele><time>2026-04-11T12:41:38.999Z</time></trkpt><trkpt lat="40.90338457852005" lon="8.769452545062553"><ele>137.83333333333334</ele><time>2026-04-11T12:41:39.999Z</time></trkpt><trkpt lat="40.903469476220835" lon="8.769450685292629"><ele>139.66666666666669</ele><time>2026-04-11T12:41:40.999Z</time></trkpt><trkpt lat="40.90354333628087" lon="8.769466535524543"><ele>141.5</ele><time>2026-04-11T12:41:41.999Z</time></trkpt><trkpt lat="40.9036024417651" lon="8.769495321377287"><ele>143.33333333333334</ele><time>2026-04-11T12:41:42.999Z</time></trkpt><trkpt lat="40.90366810959435" lon="8.769552659385592"><ele>145.16666666666666</ele><time>2026-04-11T12:41:43.999Z</time></trkpt><trkpt lat="40.903753358587565" lon="8.769649504360146"><ele>147.0</ele><time>2026-04-11T12:41:44.999Z</time></trkpt><trkpt lat="40.90383430892507" lon="8.769743940348413"><ele>147.0</ele><time>2026-04-11T12:41:45.999Z</time></trkpt><trkpt lat="40.903940200215786" lon="8.769859801281765"><ele>147.0</ele><time>2026-04-11T12:41:46.999Z</time></trkpt><trkpt lat="40.90404415440022" lon="8.769967796061183"><ele>147.0</ele><time>2026-04-11T12:41:47.999Z</time></trkpt><trkpt lat="40.90414413990094" lon="8.770066219382059"><ele>147.0</ele><time>2026-04-11T12:41:48.999Z</time></trkpt><trkpt lat="40.90423823521002" lon="8.770147247456745"><ele>146.16666666666666</ele><time>2026-04-11T12:41:49.999Z</time></trkpt><trkpt lat="40.904336691963714" lon="8.770222233364706"><ele>145.33333333333334</ele><time>2026-04-11T12:41:50.999Z</time></trkpt><trkpt lat="40.904422308658816" lon="8.77027065084233"><ele>144.5</ele><time>2026-04-11T12:41:51.999Z</time></trkpt><trkpt lat="40.90449045362451" lon="8.770288941121535"><ele>143.66666666666669</ele><time>2026-04-11T12:41:52.999Z</time></trkpt><trkpt lat="40.904565750298886" lon="8.770306508034434"><ele>142.83333333333334</ele><time>2026-04-11T12:41:53.999Z</time></trkpt><trkpt lat="40.904649772490366" lon="8.770306700502633"><ele>142.0</ele><time>2026-04-11T12:41:54.999Z</time></trkpt><trkpt lat="40.90472371425744" lon="8.770285794535736"><ele>142.0</ele><time>2026-04-11T12:41:55.999Z</time></trkpt><trkpt lat="40.904797692480805" lon="8.770262110007478"><ele>142.0</ele><time>2026-04-11T12:41:56.999Z</time></trkpt><trkpt lat="40.90487224221388" lon="8.770194395652151"><ele>142.0</ele><time>2026-04-11T12:41:58.999Z</time></trkpt><trkpt lat="40.90492262247526" lon="8.770031265823354"><ele>142.0</ele><time>2026-04-11T12:42:00.999Z</time></trkpt><trkpt lat="40.9048320433467" lon="8.769921396709123"><ele>142.0</ele><time>2026-04-11T12:42:01.999Z</time></trkpt><trkpt lat="40.90480584966632" lon="8.769841982071597"><ele>145.2</ele><time>2026-04-11T12:42:02.999Z</time></trkpt><trkpt lat="40.904744902781815" lon="8.769759732382315"><ele>148.39999999999998</ele><time>2026-04-11T12:42:03.999Z</time></trkpt><trkpt lat="40.90468682271308" lon="8.76967679110864"><ele>151.60000000000002</ele><time>2026-04-11T12:42:04.999Z</time></trkpt><trkpt lat="40.90463595832606" lon="8.769587896110371"><ele>154.8</ele><time>2026-04-11T12:42:05.999Z</time></trkpt><trkpt lat="40.90459824918774" lon="8.769473874688233"><ele>158.0</ele><time>2026-04-11T12:42:06.999Z</time></trkpt><trkpt lat="40.90453145602676" lon="8.769365034200124"><ele>164.0</ele><time>2026-04-11T12:42:07.999Z</time></trkpt><trkpt lat="40.90447664415339" lon="8.769220633703942"><ele>170.0</ele><time>2026-04-11T12:42:08.999Z</time></trkpt><trkpt lat="40.90440400364891" lon="8.769065408151338"><ele>176.0</ele><time>2026-04-11T12:42:09.999Z</time></trkpt><trkpt lat="40.904339556295156" lon="8.768913487367033"><ele>182.0</ele><time>2026-04-11T12:42:10.999Z</time></trkpt><trkpt lat="40.90427786585241" lon="8.76876302791648"><ele>180.25</ele><time>2026-04-11T12:42:11.999Z</time></trkpt><trkpt lat="40.904221333121974" lon="8.768617392895958"><ele>178.5</ele><time>2026-04-11T12:42:12.999Z</time></trkpt><trkpt lat="40.904169498391994" lon="8.76847629975454"><ele>176.75</ele><time>2026-04-11T12:42:13.999Z</time></trkpt><trkpt lat="40.90412363639739" lon="8.76832281449763"><ele>175.0</ele><time>2026-04-11T12:42:14.999Z</time></trkpt><trkpt lat="40.90408116533613" lon="8.768177830115137"><ele>175.0</ele><time>2026-04-11T12:42:15.999Z</time></trkpt><trkpt lat="40.904028451528625" lon="8.768025634333464"><ele>175.0</ele><time>2026-04-11T12:42:16.999Z</time></trkpt><trkpt lat="40.90397142834287" lon="8.76788285905117"><ele>175.0</ele><time>2026-04-11T12:42:17.999Z</time></trkpt><trkpt lat="40.90391516107426" lon="8.767755258918807"><ele>175.0</ele><time>2026-04-11T12:42:18.999Z</time></trkpt><trkpt lat="40.903855664620494" lon="8.76762798068607"><ele>179.0</ele><time>2026-04-11T12:42:19.999Z</time></trkpt><trkpt lat="40.9037997448775" lon="8.767509160313086"><ele>183.0</ele><time>2026-04-11T12:42:20.999Z</time></trkpt><trkpt lat="40.90374525061861" lon="8.767393215754355"><ele>187.0</ele><time>2026-04-11T12:42:21.999Z</time></trkpt><trkpt lat="40.90370137427551" lon="8.76730530115669"><ele>191.0</ele><time>2026-04-11T12:42:22.999Z</time></trkpt><trkpt lat="40.90364516004866" lon="8.767200656127976"><ele>195.0</ele><time>2026-04-11T12:42:24.999Z</time></trkpt><trkpt lat="40.90373452920891" lon="8.767178900716095"><ele>195.0</ele><time>2026-04-11T12:42:28.999Z</time></trkpt><trkpt lat="40.90380155566089" lon="8.767200650718605"><ele>195.0</ele><time>2026-04-11T12:42:29.999Z</time></trkpt><trkpt lat="40.90388777965358" lon="8.767253224288023"><ele>195.0</ele><time>2026-04-11T12:42:30.999Z</time></trkpt><trkpt lat="40.90398182765397" lon="8.767311915134922"><ele>195.0</ele><time>2026-04-11T12:42:31.999Z</time></trkpt><trkpt lat="40.904070357297094" lon="8.767364675580666"><ele>195.0</ele><time>2026-04-11T12:42:32.999Z</time></trkpt><trkpt lat="40.904177895172175" lon="8.767408366889399"><ele>195.0</ele><time>2026-04-11T12:42:33.999Z</time></trkpt><trkpt lat="40.904245188868586" lon="8.767477088028592"><ele>195.0</ele><time>2026-04-11T12:42:34.999Z</time></trkpt><trkpt lat="40.904320461719976" lon="8.767503962328837"><ele>195.0</ele><time>2026-04-11T12:42:35.999Z</time></trkpt><trkpt lat="40.90437034816874" lon="8.767452608814585"><ele>195.0</ele><time>2026-04-11T12:42:39.998Z</time></trkpt><trkpt lat="40.904344842958835" lon="8.767341601144034"><ele>195.0</ele><time>2026-04-11T12:42:40.998Z</time></trkpt><trkpt lat="40.90430536789362" lon="8.767242808797763"><ele>195.0</ele><time>2026-04-11T12:42:41.998Z</time></trkpt><trkpt lat="40.90425794017094" lon="8.767109699493735"><ele>195.0</ele><time>2026-04-11T12:42:42.998Z</time></trkpt><trkpt lat="40.904215650708494" lon="8.766996149214325"><ele>195.0</ele><time>2026-04-11T12:42:43.998Z</time></trkpt><trkpt lat="40.90415950847562" lon="8.766865213711363"><ele>195.0</ele><time>2026-04-11T12:42:44.998Z</time></trkpt><trkpt lat="40.9040772451236" lon="8.766745779212046"><ele>195.0</ele><time>2026-04-11T12:42:45.998Z</time></trkpt><trkpt lat="40.90398196638115" lon="8.766633401965787"><ele>199.6</ele><time>2026-04-11T12:42:46.998Z</time></trkpt><trkpt lat="40.90386894741526" lon="8.766562945046621"><ele>204.2</ele><time>2026-04-11T12:42:47.998Z</time></trkpt><trkpt lat="40.90375623985845" lon="8.766502537085822"><ele>208.8</ele><time>2026-04-11T12:42:48.998Z</time></trkpt><trkpt lat="40.90366576343138" lon="8.766459558964302"><ele>213.4</ele><time>2026-04-11T12:42:49.998Z</time></trkpt><trkpt lat="40.90358981004413" lon="8.766414624818147"><ele>218.0</ele><time>2026-04-11T12:42:50.998Z</time></trkpt><trkpt lat="40.903531083664575" lon="8.76636545444442"><ele>218.0</ele><time>2026-04-11T12:42:51.998Z</time></trkpt><trkpt lat="40.90344634851679" lon="8.766238679834595"><ele>218.0</ele><time>2026-04-11T12:42:53.998Z</time></trkpt><trkpt lat="40.903467462397906" lon="8.766133289314975"><ele>218.0</ele><time>2026-04-11T12:42:54.998Z</time></trkpt><trkpt lat="40.903507595346994" lon="8.766011862036537"><ele>218.0</ele><time>2026-04-11T12:42:55.998Z</time></trkpt><trkpt lat="40.903540597154525" lon="8.765874436272656"><ele>218.0</ele><time>2026-04-11T12:42:56.998Z</time></trkpt><trkpt lat="40.90354185138758" lon="8.765743895337572"><ele>218.5</ele><time>2026-04-11T12:42:57.998Z</time></trkpt><trkpt lat="40.903527709039366" lon="8.765615079292086"><ele>219.0</ele><time>2026-04-11T12:42:58.998Z</time></trkpt><trkpt lat="40.90348237280972" lon="8.765481528054975"><ele>219.5</ele><time>2026-04-11T12:42:59.998Z</time></trkpt><trkpt lat="40.903439651202426" lon="8.765327548908639"><ele>220.0</ele><time>2026-04-11T12:43:00.998Z</time></trkpt><trkpt lat="40.9033916128626" lon="8.765164134202358"><ele>220.0</ele><time>2026-04-11T12:43:01.998Z</time></trkpt><trkpt lat="40.90333965665815" lon="8.765003736486433"><ele>220.0</ele><time>2026-04-11T12:43:02.998Z</time></trkpt><trkpt lat="40.903292916290596" lon="8.764845706854194"><ele>220.0</ele><time>2026-04-11T12:43:03.998Z</time></trkpt><trkpt lat="40.9032599630253" lon="8.764696093139545"><ele>220.0</ele><time>2026-04-11T12:43:04.998Z</time></trkpt><trkpt lat="40.90325061821594" lon="8.764562529643088"><ele>220.0</ele><time>2026-04-11T12:43:05.998Z</time></trkpt><trkpt lat="40.90323639785368" lon="8.764453206507575"><ele>220.0</ele><time>2026-04-11T12:43:06.998Z</time></trkpt><trkpt lat="40.9032407157404" lon="8.764309294676211"><ele>220.0</ele><time>2026-04-11T12:43:08.998Z</time></trkpt><trkpt lat="40.90328599986056" lon="8.764148799246126"><ele>220.0</ele><time>2026-04-11T12:43:10.998Z</time></trkpt><trkpt lat="40.90333194080544" lon="8.764045664084449"><ele>220.0</ele><time>2026-04-11T12:43:11.998Z</time></trkpt><trkpt lat="40.90338756919398" lon="8.763923262594398"><ele>225.5</ele><time>2026-04-11T12:43:12.998Z</time></trkpt><trkpt lat="40.90344347366642" lon="8.763781440031222"><ele>231.0</ele><time>2026-04-11T12:43:13.998Z</time></trkpt><trkpt lat="40.90349987716958" lon="8.763627493154427"><ele>236.5</ele><time>2026-04-11T12:43:14.998Z</time></trkpt><trkpt lat="40.90356070523968" lon="8.763468160730236"><ele>242.0</ele><time>2026-04-11T12:43:15.998Z</time></trkpt><trkpt lat="40.903644398083436" lon="8.763312765578672"><ele>242.0</ele><time>2026-04-11T12:43:16.998Z</time></trkpt><trkpt lat="40.90370952612658" lon="8.76312330837563"><ele>242.0</ele><time>2026-04-11T12:43:17.998Z</time></trkpt><trkpt lat="40.90378767418113" lon="8.76293680552715"><ele>242.0</ele><time>2026-04-11T12:43:18.998Z</time></trkpt><trkpt lat="40.90387060200158" lon="8.762753079707286"><ele>240.66666666666669</ele><time>2026-04-11T12:43:19.998Z</time></trkpt><trkpt lat="40.90394299154641" lon="8.76256707864543"><ele>239.33333333333331</ele><time>2026-04-11T12:43:20.998Z</time></trkpt><trkpt lat="40.90402186827522" lon="8.762401226839158"><ele>238.0</ele><time>2026-04-11T12:43:21.998Z</time></trkpt><trkpt lat="40.90408217139903" lon="8.762229242343546"><ele>238.0</ele><time>2026-04-11T12:43:22.998Z</time></trkpt><trkpt lat="40.90414066008218" lon="8.762084564974224"><ele>238.0</ele><time>2026-04-11T12:43:23.998Z</time></trkpt><trkpt lat="40.90418992808215" lon="8.76196116871055"><ele>238.0</ele><time>2026-04-11T12:43:24.998Z</time></trkpt><trkpt lat="40.90425512059104" lon="8.761859624218946"><ele>238.0</ele><time>2026-04-11T12:43:25.998Z</time></trkpt><trkpt lat="40.90431156462091" lon="8.761788232713492"><ele>238.0</ele><time>2026-04-11T12:43:26.998Z</time></trkpt><trkpt lat="40.90437452580089" lon="8.761724501922505"><ele>238.2</ele><time>2026-04-11T12:43:27.998Z</time></trkpt><trkpt lat="40.90444418734477" lon="8.761673337845103"><ele>238.4</ele><time>2026-04-11T12:43:28.998Z</time></trkpt><trkpt lat="40.904535515697994" lon="8.761604704974344"><ele>238.59999999999997</ele><time>2026-04-11T12:43:29.998Z</time></trkpt><trkpt lat="40.90464272838666" lon="8.761528783466881"><ele>238.79999999999998</ele><time>2026-04-11T12:43:30.998Z</time></trkpt><trkpt lat="40.90475075039963" lon="8.761458868540391"><ele>239.0</ele><time>2026-04-11T12:43:31.998Z</time></trkpt><trkpt lat="40.90487463456598" lon="8.761381188336207"><ele>239.0</ele><time>2026-04-11T12:43:32.998Z</time></trkpt><trkpt lat="40.90499457833379" lon="8.761294115935122"><ele>239.0</ele><time>2026-04-11T12:43:33.998Z</time></trkpt><trkpt lat="40.90510935718895" lon="8.76116837193859"><ele>239.0</ele><time>2026-04-11T12:43:34.998Z</time></trkpt><trkpt lat="40.90522743271019" lon="8.761072752515107"><ele>239.0</ele><time>2026-04-11T12:43:35.998Z</time></trkpt><trkpt lat="40.905332293223715" lon="8.760955339392183"><ele>241.5</ele><time>2026-04-11T12:43:36.998Z</time></trkpt><trkpt lat="40.90541545173634" lon="8.76084466279433"><ele>244.0</ele><time>2026-04-11T12:43:37.998Z</time></trkpt><trkpt lat="40.905500948448115" lon="8.76071965653179"><ele>246.5</ele><time>2026-04-11T12:43:38.998Z</time></trkpt><trkpt lat="40.90557305217061" lon="8.76059955073248"><ele>249.0</ele><time>2026-04-11T12:43:39.998Z</time></trkpt><trkpt lat="40.90564890500409" lon="8.760458873941898"><ele>249.0</ele><time>2026-04-11T12:43:40.998Z</time></trkpt><trkpt lat="40.905725802117104" lon="8.76029871084905"><ele>249.0</ele><time>2026-04-11T12:43:41.998Z</time></trkpt><trkpt lat="40.90579226435197" lon="8.760148077293145"><ele>249.0</ele><time>2026-04-11T12:43:42.998Z</time></trkpt><trkpt lat="40.90584206185493" lon="8.760030572086436"><ele>249.0</ele><time>2026-04-11T12:43:43.998Z</time></trkpt><trkpt lat="40.90589616766658" lon="8.759901536280758"><ele>248.2</ele><time>2026-04-11T12:43:44.998Z</time></trkpt><trkpt lat="40.90594527094791" lon="8.759754785982398"><ele>247.39999999999998</ele><time>2026-04-11T12:43:45.998Z</time></trkpt><trkpt lat="40.90596878058636" lon="8.759633017371575"><ele>246.6</ele><time>2026-04-11T12:43:46.998Z</time></trkpt><trkpt lat="40.90593681587023" lon="8.759529568389745"><ele>245.8</ele><time>2026-04-11T12:43:47.998Z</time></trkpt><trkpt lat="40.905895772844" lon="8.759442737518313"><ele>245.0</ele><time>2026-04-11T12:43:48.998Z</time></trkpt><trkpt lat="40.90583629828029" lon="8.75933685360468"><ele>245.0</ele><time>2026-04-11T12:43:49.998Z</time></trkpt><trkpt lat="40.90575946791207" lon="8.75922783397892"><ele>245.0</ele><time>2026-04-11T12:43:50.998Z</time></trkpt><trkpt lat="40.90568444764235" lon="8.75912912488873"><ele>245.0</ele><time>2026-04-11T12:43:51.998Z</time></trkpt><trkpt lat="40.905601146920134" lon="8.758995936167606"><ele>245.0</ele><time>2026-04-11T12:43:52.998Z</time></trkpt><trkpt lat="40.90550613461397" lon="8.758902351894267"><ele>245.0</ele><time>2026-04-11T12:43:53.998Z</time></trkpt><trkpt lat="40.90540513244024" lon="8.758766671336096"><ele>245.0</ele><time>2026-04-11T12:43:54.998Z</time></trkpt><trkpt lat="40.9052923818378" lon="8.758633490441229"><ele>245.0</ele><time>2026-04-11T12:43:55.998Z</time></trkpt><trkpt lat="40.90517803702917" lon="8.758464100863941"><ele>245.4</ele><time>2026-04-11T12:43:56.998Z</time></trkpt><trkpt lat="40.905077169728095" lon="8.758322553808814"><ele>245.8</ele><time>2026-04-11T12:43:57.998Z</time></trkpt><trkpt lat="40.90499719686445" lon="8.75820083672943"><ele>246.2</ele><time>2026-04-11T12:43:58.998Z</time></trkpt><trkpt lat="40.90493291273143" lon="8.758099507418839"><ele>246.6</ele><time>2026-04-11T12:43:59.998Z</time></trkpt><trkpt lat="40.90488088834555" lon="8.758019708473055"><ele>247.0</ele><time>2026-04-11T12:44:00.997Z</time></trkpt><trkpt lat="40.904843448975974" lon="8.757938794813123"><ele>247.0</ele><time>2026-04-11T12:44:02.997Z</time></trkpt><trkpt lat="40.90493255814445" lon="8.757920182549716"><ele>247.0</ele><time>2026-04-11T12:44:05.997Z</time></trkpt><trkpt lat="40.905071428460445" lon="8.757989117993342"><ele>247.0</ele><time>2026-04-11T12:44:07.997Z</time></trkpt><trkpt lat="40.905161237484066" lon="8.758025953113592"><ele>247.0</ele><time>2026-04-11T12:44:08.997Z</time></trkpt><trkpt lat="40.905253971678945" lon="8.758062716233493"><ele>247.0</ele><time>2026-04-11T12:44:09.997Z</time></trkpt><trkpt lat="40.90535372150755" lon="8.758099302498945"><ele>250.0</ele><time>2026-04-11T12:44:10.997Z</time></trkpt><trkpt lat="40.90545586568731" lon="8.758142907381037"><ele>253.0</ele><time>2026-04-11T12:44:11.997Z</time></trkpt><trkpt lat="40.905556227460494" lon="8.75819361632362"><ele>256.0</ele><time>2026-04-11T12:44:12.997Z</time></trkpt><trkpt lat="40.90565878182541" lon="8.75824440958434"><ele>259.0</ele><time>2026-04-11T12:44:13.997Z</time></trkpt><trkpt lat="40.90575231739684" lon="8.758284810156052"><ele>262.0</ele><time>2026-04-11T12:44:14.997Z</time></trkpt><trkpt lat="40.9058562095325" lon="8.758299093751782"><ele>265.25</ele><time>2026-04-11T12:44:15.997Z</time></trkpt><trkpt lat="40.90596505498335" lon="8.758344318883285"><ele>268.5</ele><time>2026-04-11T12:44:16.997Z</time></trkpt><trkpt lat="40.906076698079666" lon="8.758369613170187"><ele>271.75</ele><time>2026-04-11T12:44:17.997Z</time></trkpt><trkpt lat="40.90621669791314" lon="8.758396642069942"><ele>275.0</ele><time>2026-04-11T12:44:18.997Z</time></trkpt><trkpt lat="40.906372800046135" lon="8.75842260135719"><ele>275.0</ele><time>2026-04-11T12:44:19.997Z</time></trkpt><trkpt lat="40.906522698561986" lon="8.758452498893995"><ele>275.0</ele><time>2026-04-11T12:44:20.997Z</time></trkpt><trkpt lat="40.90666767377153" lon="8.758469119594823"><ele>275.0</ele><time>2026-04-11T12:44:21.997Z</time></trkpt><trkpt lat="40.90678664010519" lon="8.758494994117255"><ele>275.0</ele><time>2026-04-11T12:44:22.997Z</time></trkpt><trkpt lat="40.90688170025125" lon="8.758524181677371"><ele>276.8</ele><time>2026-04-11T12:44:23.997Z</time></trkpt><trkpt lat="40.906969158640614" lon="8.75856343367673"><ele>278.6</ele><time>2026-04-11T12:44:24.997Z</time></trkpt><trkpt lat="40.90706281072549" lon="8.758618843987815"><ele>280.4</ele><time>2026-04-11T12:44:25.997Z</time></trkpt><trkpt lat="40.90715022805547" lon="8.75869185368076"><ele>282.2</ele><time>2026-04-11T12:44:26.997Z</time></trkpt><trkpt lat="40.907243762734055" lon="8.75878803951294"><ele>284.0</ele><time>2026-04-11T12:44:27.997Z</time></trkpt><trkpt lat="40.90734102332821" lon="8.758901128220991"><ele>284.0</ele><time>2026-04-11T12:44:28.997Z</time></trkpt><trkpt lat="40.9074263698053" lon="8.758992578295599"><ele>284.0</ele><time>2026-04-11T12:44:29.997Z</time></trkpt><trkpt lat="40.907504397238796" lon="8.759077860470024"><ele>284.0</ele><time>2026-04-11T12:44:30.997Z</time></trkpt><trkpt lat="40.907569229933635" lon="8.759174086276792"><ele>284.0</ele><time>2026-04-11T12:44:31.997Z</time></trkpt><trkpt lat="40.90761635489654" lon="8.759277106361697"><ele>284.0</ele><time>2026-04-11T12:44:32.997Z</time></trkpt><trkpt lat="40.90766284290088" lon="8.759391750968001"><ele>284.83333333333337</ele><time>2026-04-11T12:44:33.997Z</time></trkpt><trkpt lat="40.90769940896709" lon="8.759495237983419"><ele>285.6666666666667</ele><time>2026-04-11T12:44:34.997Z</time></trkpt><trkpt lat="40.90773324579085" lon="8.75958623694284"><ele>286.5</ele><time>2026-04-11T12:44:35.997Z</time></trkpt><trkpt lat="40.907770916760484" lon="8.759665360075838"><ele>287.3333333333333</ele><time>2026-04-11T12:44:36.997Z</time></trkpt><trkpt lat="40.90784736125109" lon="8.759779144744277"><ele>288.16666666666663</ele><time>2026-04-11T12:44:38.997Z</time></trkpt><trkpt lat="40.90792405838011" lon="8.759724811328395"><ele>289.0</ele><time>2026-04-11T12:44:40.997Z</time></trkpt><trkpt lat="40.90798513697376" lon="8.759641069540718"><ele>289.0</ele><time>2026-04-11T12:44:42.997Z</time></trkpt><trkpt lat="40.90803203102673" lon="8.759542467832311"><ele>289.0</ele><time>2026-04-11T12:44:44.997Z</time></trkpt><trkpt lat="40.908202603008434" lon="8.759637468416324"><ele>289.0</ele><time>2026-04-11T12:45:08.997Z</time></trkpt><trkpt lat="40.90827788703465" lon="8.759738233080885"><ele>289.0</ele><time>2026-04-11T12:45:09.997Z</time></trkpt><trkpt lat="40.90833209480679" lon="8.759838505192242"><ele>289.0</ele><time>2026-04-11T12:45:10.997Z</time></trkpt><trkpt lat="40.90839297118408" lon="8.759937392113505"><ele>289.0</ele><time>2026-04-11T12:45:11.997Z</time></trkpt><trkpt lat="40.90842350950295" lon="8.760063011783684"><ele>289.0</ele><time>2026-04-11T12:45:12.997Z</time></trkpt><trkpt lat="40.908451679494824" lon="8.76021608389294"><ele>289.0</ele><time>2026-04-11T12:45:13.997Z</time></trkpt><trkpt lat="40.9084865892487" lon="8.76034835331702"><ele>289.0</ele><time>2026-04-11T12:45:14.997Z</time></trkpt><trkpt lat="40.908523456192746" lon="8.760487975385377"><ele>285.0</ele><time>2026-04-11T12:45:15.997Z</time></trkpt><trkpt lat="40.90854803503398" lon="8.76061441355046"><ele>281.0</ele><time>2026-04-11T12:45:16.997Z</time></trkpt><trkpt lat="40.90855140899813" lon="8.760728774869614"><ele>277.0</ele><time>2026-04-11T12:45:17.997Z</time></trkpt><trkpt lat="40.908569107786555" lon="8.76084686332551"><ele>273.0</ele><time>2026-04-11T12:45:18.997Z</time></trkpt><trkpt lat="40.908586502595504" lon="8.760972775697892"><ele>269.0</ele><time>2026-04-11T12:45:19.997Z</time></trkpt><trkpt lat="40.9086071105269" lon="8.761098146376089"><ele>269.0</ele><time>2026-04-11T12:45:20.997Z</time></trkpt><trkpt lat="40.908582212383585" lon="8.761216843322789"><ele>269.0</ele><time>2026-04-11T12:45:21.996Z</time></trkpt><trkpt lat="40.90855922061574" lon="8.761314574119677"><ele>269.0</ele><time>2026-04-11T12:45:22.996Z</time></trkpt><trkpt lat="40.908450975879475" lon="8.761466090379221"><ele>269.0</ele><time>2026-04-11T12:45:24.996Z</time></trkpt><trkpt lat="40.90838518478934" lon="8.76160999107114"><ele>275.33333333333337</ele><time>2026-04-11T12:45:25.996Z</time></trkpt><trkpt lat="40.90835114458793" lon="8.76171060739864"><ele>281.6666666666667</ele><time>2026-04-11T12:45:26.996Z</time></trkpt><trkpt lat="40.90831271467139" lon="8.76181519140199"><ele>288.0</ele><time>2026-04-11T12:45:27.996Z</time></trkpt><trkpt lat="40.90827478130545" lon="8.7619014888573"><ele>294.3333333333333</ele><time>2026-04-11T12:45:28.996Z</time></trkpt><trkpt lat="40.908230176268404" lon="8.76197143598301"><ele>300.66666666666663</ele><time>2026-04-11T12:45:29.996Z</time></trkpt><trkpt lat="40.90812437345394" lon="8.762030250282304"><ele>307.0</ele><time>2026-04-11T12:45:31.996Z</time></trkpt><trkpt lat="40.90803708793791" lon="8.762011305358156"><ele>308.0</ele><time>2026-04-11T12:45:32.996Z</time></trkpt><trkpt lat="40.90796729030396" lon="8.762022298372441"><ele>309.0</ele><time>2026-04-11T12:45:33.996Z</time></trkpt><trkpt lat="40.907895084501696" lon="8.762066817616233"><ele>310.0</ele><time>2026-04-11T12:45:34.996Z</time></trkpt><trkpt lat="40.90782774746956" lon="8.762182734694838"><ele>311.0</ele><time>2026-04-11T12:45:36.996Z</time></trkpt><trkpt lat="40.90790142208718" lon="8.76228243796904"><ele>312.0</ele><time>2026-04-11T12:45:37.996Z</time></trkpt><trkpt lat="40.90798483831816" lon="8.76238955240378"><ele>312.0</ele><time>2026-04-11T12:45:39.996Z</time></trkpt><trkpt lat="40.90805442486407" lon="8.762469695314149"><ele>312.0</ele><time>2026-04-11T12:45:40.996Z</time></trkpt><trkpt lat="40.908124024776676" lon="8.762578469664879"><ele>312.0</ele><time>2026-04-11T12:45:41.996Z</time></trkpt><trkpt lat="40.90815576981793" lon="8.76266133495102"><ele>312.0</ele><time>2026-04-11T12:45:42.996Z</time></trkpt><trkpt lat="40.90816535676167" lon="8.762784223446822"><ele>312.0</ele><time>2026-04-11T12:45:43.996Z</time></trkpt><trkpt lat="40.90812565617155" lon="8.762885313628356"><ele>311.8</ele><time>2026-04-11T12:45:44.996Z</time></trkpt><trkpt lat="40.90810411435433" lon="8.7629960290666"><ele>311.6</ele><time>2026-04-11T12:45:45.996Z</time></trkpt><trkpt lat="40.90807001388796" lon="8.763108971923563"><ele>311.40000000000003</ele><time>2026-04-11T12:45:46.996Z</time></trkpt><trkpt lat="40.90801906742025" lon="8.763206432163132"><ele>311.2</ele><time>2026-04-11T12:45:47.996Z</time></trkpt><trkpt lat="40.90798589983227" lon="8.76332306020514"><ele>311.0</ele><time>2026-04-11T12:45:48.996Z</time></trkpt><trkpt lat="40.907959678973135" lon="8.76344059360666"><ele>310.83333333333337</ele><time>2026-04-11T12:45:49.996Z</time></trkpt><trkpt lat="40.90795946468571" lon="8.763553835199513"><ele>310.6666666666667</ele><time>2026-04-11T12:45:50.996Z</time></trkpt><trkpt lat="40.907958150576505" lon="8.763659675430508"><ele>310.5</ele><time>2026-04-11T12:45:51.996Z</time></trkpt><trkpt lat="40.907933637015155" lon="8.763762144380484"><ele>310.3333333333333</ele><time>2026-04-11T12:45:52.996Z</time></trkpt><trkpt lat="40.90792028213072" lon="8.76385315331122"><ele>310.16666666666663</ele><time>2026-04-11T12:45:53.996Z</time></trkpt><trkpt lat="40.90788669053192" lon="8.763934520386265"><ele>310.0</ele><time>2026-04-11T12:45:54.996Z</time></trkpt><trkpt lat="40.907875639411415" lon="8.764018076527845"><ele>310.0</ele><time>2026-04-11T12:45:55.996Z</time></trkpt><trkpt lat="40.90784522532779" lon="8.764174853033213"><ele>310.0</ele><time>2026-04-11T12:45:57.996Z</time></trkpt><trkpt lat="40.90782458011659" lon="8.76428655159029"><ele>310.0</ele><time>2026-04-11T12:45:58.996Z</time></trkpt><trkpt lat="40.907763990349466" lon="8.764392102549602"><ele>310.0</ele><time>2026-04-11T12:45:59.996Z</time></trkpt><trkpt lat="40.907720910671365" lon="8.764487322153172"><ele>310.0</ele><time>2026-04-11T12:46:00.996Z</time></trkpt><trkpt lat="40.90767685524134" lon="8.764587416363556"><ele>308.3333333333333</ele><time>2026-04-11T12:46:01.996Z</time></trkpt><trkpt lat="40.90761284920918" lon="8.764680493551218"><ele>306.66666666666663</ele><time>2026-04-11T12:46:02.996Z</time></trkpt><trkpt lat="40.9075396231934" lon="8.76474301036425"><ele>305.0</ele><time>2026-04-11T12:46:03.996Z</time></trkpt><trkpt lat="40.90748633985752" lon="8.764813820820837"><ele>303.3333333333333</ele><time>2026-04-11T12:46:04.996Z</time></trkpt><trkpt lat="40.907433563743275" lon="8.764883011898881"><ele>301.6666666666667</ele><time>2026-04-11T12:46:05.996Z</time></trkpt><trkpt lat="40.90738726140775" lon="8.764951190778344"><ele>300.0</ele><time>2026-04-11T12:46:06.996Z</time></trkpt><trkpt lat="40.907308724289706" lon="8.765029085563329"><ele>303.0</ele><time>2026-04-11T12:46:08.996Z</time></trkpt><trkpt lat="40.90723877825293" lon="8.765112080387738"><ele>306.0</ele><time>2026-04-11T12:46:10.996Z</time></trkpt><trkpt lat="40.907152103671955" lon="8.765213732496198"><ele>309.0</ele><time>2026-04-11T12:46:12.996Z</time></trkpt><trkpt lat="40.907102019023014" lon="8.765273614740526"><ele>312.0</ele><time>2026-04-11T12:46:13.996Z</time></trkpt><trkpt lat="40.90704764795236" lon="8.76533476509133"><ele>315.0</ele><time>2026-04-11T12:46:15.996Z</time></trkpt><trkpt lat="40.90697768463217" lon="8.765413732417581"><ele>318.0</ele><time>2026-04-11T12:46:17.996Z</time></trkpt><trkpt lat="40.906916036834474" lon="8.765455830454512"><ele>318.0</ele><time>2026-04-11T12:46:19.996Z</time></trkpt><trkpt lat="40.90685641825224" lon="8.765569644203529"><ele>318.0</ele><time>2026-04-11T12:46:40.996Z</time></trkpt><trkpt lat="40.90680603239649" lon="8.765677424270434"><ele>318.0</ele><time>2026-04-11T12:46:42.995Z</time></trkpt><trkpt lat="40.90675853234517" lon="8.765789049393682"><ele>318.0</ele><time>2026-04-11T12:46:44.995Z</time></trkpt><trkpt lat="40.906724888469235" lon="8.765886036513084"><ele>318.0</ele><time>2026-04-11T12:46:46.995Z</time></trkpt><trkpt lat="40.906686136443064" lon="8.766018002316553"><ele>319.8</ele><time>2026-04-11T12:46:48.995Z</time></trkpt><trkpt lat="40.90664710164479" lon="8.766131077661424"><ele>321.6</ele><time>2026-04-11T12:46:50.995Z</time></trkpt><trkpt lat="40.90660539258979" lon="8.766241532851017"><ele>323.40000000000003</ele><time>2026-04-11T12:46:52.995Z</time></trkpt><trkpt lat="40.906505720805406" lon="8.76631606002241"><ele>325.20000000000005</ele><time>2026-04-11T12:46:54.995Z</time></trkpt><trkpt lat="40.90642797575875" lon="8.766418581068542"><ele>327.0</ele><time>2026-04-11T12:46:56.995Z</time></trkpt><trkpt lat="40.90637240029909" lon="8.766485724342035"><ele>327.0</ele><time>2026-04-11T12:46:58.995Z</time></trkpt><trkpt lat="40.906362874330995" lon="8.766738674284912"><ele>327.0</ele><time>2026-04-11T12:47:01.995Z</time></trkpt><trkpt lat="40.906500447212466" lon="8.766714907218194"><ele>327.0</ele><time>2026-04-11T12:47:03.995Z</time></trkpt><trkpt lat="40.906546184918" lon="8.766785557927225"><ele>327.0</ele><time>2026-04-11T12:47:08.995Z</time></trkpt><trkpt lat="40.90651453916211" lon="8.766865858070101"><ele>327.0</ele><time>2026-04-11T12:48:12.999Z</time></trkpt><trkpt lat="40.90645558360839" lon="8.76690030679828"><ele>327.0</ele><time>2026-04-11T12:48:38.998Z</time></trkpt><trkpt lat="40.90639357044382" lon="8.766883566140757"><ele>327.0</ele><time>2026-04-11T12:48:47.999Z</time></trkpt><trkpt lat="40.90638510267659" lon="8.766796022689038"><ele>327.0</ele><time>2026-04-11T12:48:53.999Z</time></trkpt><trkpt lat="40.906457745484666" lon="8.766830744802288"><ele>327.0</ele><time>2026-04-11T12:50:48.998Z</time></trkpt><trkpt lat="40.906392222686534" lon="8.766793064649677"><ele>327.0</ele><time>2026-04-11T12:50:52.998Z</time></trkpt><trkpt lat="40.90643837282323" lon="8.766730619947086"><ele>327.0</ele><time>2026-04-11T12:50:57.998Z</time></trkpt><trkpt lat="40.90644512116489" lon="8.766639970507478"><ele>327.0</ele><time>2026-04-11T12:51:30.997Z</time></trkpt><trkpt lat="40.90636945117277" lon="8.76663976694287"><ele>327.0</ele><time>2026-04-11T12:51:40.997Z</time></trkpt><trkpt lat="40.90639685093642" lon="8.766522898814502"><ele>327.0</ele><time>2026-04-11T12:51:56.997Z</time></trkpt><trkpt lat="40.90645667141549" lon="8.766443149969996"><ele>327.0</ele><time>2026-04-11T12:51:58.997Z</time></trkpt><trkpt lat="40.90654069223853" lon="8.766358579380082"><ele>327.0</ele><time>2026-04-11T12:52:00.997Z</time></trkpt><trkpt lat="40.90662710945842" lon="8.76624539098328"><ele>327.0</ele><time>2026-04-11T12:52:01.997Z</time></trkpt><trkpt lat="40.90670260587041" lon="8.766086631651703"><ele>327.0</ele><time>2026-04-11T12:52:02.997Z</time></trkpt><trkpt lat="40.906730934244784" lon="8.765984275991457"><ele>327.0</ele><time>2026-04-11T12:52:03.997Z</time></trkpt><trkpt lat="40.90675752669553" lon="8.765897188371413"><ele>327.0</ele><time>2026-04-11T12:52:04.997Z</time></trkpt><trkpt lat="40.90678539198045" lon="8.765815730822583"><ele>327.0</ele><time>2026-04-11T12:52:05.997Z</time></trkpt><trkpt lat="40.90682548447953" lon="8.765721048041737"><ele>327.0</ele><time>2026-04-11T12:52:06.997Z</time></trkpt><trkpt lat="40.9068654408688" lon="8.76563244095018"><ele>328.40000000000003</ele><time>2026-04-11T12:52:07.997Z</time></trkpt><trkpt lat="40.90695204604417" lon="8.765484816542607"><ele>329.8</ele><time>2026-04-11T12:52:09.997Z</time></trkpt><trkpt lat="40.90702744122178" lon="8.765405361956194"><ele>331.2</ele><time>2026-04-11T12:52:10.997Z</time></trkpt><trkpt lat="40.90710094051334" lon="8.76532376871912"><ele>332.6</ele><time>2026-04-11T12:52:11.997Z</time></trkpt><trkpt lat="40.90716811388876" lon="8.765243158153172"><ele>334.0</ele><time>2026-04-11T12:52:12.997Z</time></trkpt><trkpt lat="40.907232545109174" lon="8.765165161414"><ele>334.0</ele><time>2026-04-11T12:52:13.997Z</time></trkpt><trkpt lat="40.90729761212635" lon="8.765098942713648"><ele>334.0</ele><time>2026-04-11T12:52:14.997Z</time></trkpt><trkpt lat="40.90735994657851" lon="8.765026236348612"><ele>334.0</ele><time>2026-04-11T12:52:15.997Z</time></trkpt><trkpt lat="40.9074190714139" lon="8.76494956949186"><ele>334.0</ele><time>2026-04-11T12:52:16.997Z</time></trkpt><trkpt lat="40.907481161292054" lon="8.764873742090936"><ele>334.0</ele><time>2026-04-11T12:52:17.997Z</time></trkpt><trkpt lat="40.907545861307355" lon="8.764797512253859"><ele>334.0</ele><time>2026-04-11T12:52:18.997Z</time></trkpt><trkpt lat="40.90761413448151" lon="8.764720842022756"><ele>329.2</ele><time>2026-04-11T12:52:19.997Z</time></trkpt><trkpt lat="40.907674082558174" lon="8.764640013375816"><ele>324.4</ele><time>2026-04-11T12:52:20.997Z</time></trkpt><trkpt lat="40.90772869106155" lon="8.764549742772699"><ele>319.6</ele><time>2026-04-11T12:52:21.997Z</time></trkpt><trkpt lat="40.9077903572688" lon="8.764435696025563"><ele>314.8</ele><time>2026-04-11T12:52:22.997Z</time></trkpt><trkpt lat="40.90783454818949" lon="8.764317821515238"><ele>310.0</ele><time>2026-04-11T12:52:23.997Z</time></trkpt><trkpt lat="40.907876907174675" lon="8.764190549925512"><ele>310.0</ele><time>2026-04-11T12:52:24.997Z</time></trkpt><trkpt lat="40.90790844542982" lon="8.764068240763248"><ele>310.0</ele><time>2026-04-11T12:52:25.997Z</time></trkpt><trkpt lat="40.90793503572995" lon="8.763947168919795"><ele>310.0</ele><time>2026-04-11T12:52:26.997Z</time></trkpt><trkpt lat="40.90795047791585" lon="8.763795570797386"><ele>310.0</ele><time>2026-04-11T12:52:27.997Z</time></trkpt><trkpt lat="40.9079789580142" lon="8.763688613011437"><ele>310.0</ele><time>2026-04-11T12:52:28.997Z</time></trkpt><trkpt lat="40.90798844706305" lon="8.76358795573279"><ele>310.16666666666663</ele><time>2026-04-11T12:52:29.997Z</time></trkpt><trkpt lat="40.9079977607865" lon="8.763498820018235"><ele>310.3333333333333</ele><time>2026-04-11T12:52:30.997Z</time></trkpt><trkpt lat="40.90800919114107" lon="8.763415113537548"><ele>310.5</ele><time>2026-04-11T12:52:31.997Z</time></trkpt><trkpt lat="40.90803904902243" lon="8.76326897284917"><ele>310.6666666666667</ele><time>2026-04-11T12:52:33.997Z</time></trkpt><trkpt lat="40.908077899715515" lon="8.76314764433352"><ele>310.83333333333337</ele><time>2026-04-11T12:52:35.997Z</time></trkpt><trkpt lat="40.90812342862868" lon="8.763034771045618"><ele>311.0</ele><time>2026-04-11T12:52:37.997Z</time></trkpt><trkpt lat="40.90814438903018" lon="8.762938597350455"><ele>311.0</ele><time>2026-04-11T12:52:39.996Z</time></trkpt><trkpt lat="40.90817875941083" lon="8.762854800298966"><ele>311.0</ele><time>2026-04-11T12:52:41.996Z</time></trkpt><trkpt lat="40.90819863124049" lon="8.762693796480258"><ele>311.0</ele><time>2026-04-11T12:53:05.996Z</time></trkpt><trkpt lat="40.908175871302134" lon="8.762608194423672"><ele>311.0</ele><time>2026-04-11T12:53:11.996Z</time></trkpt><trkpt lat="40.908143096799705" lon="8.762502872143934"><ele>311.0</ele><time>2026-04-11T12:53:33.996Z</time></trkpt><trkpt lat="40.908069732946565" lon="8.762426384919277"><ele>311.0</ele><time>2026-04-11T12:53:34.996Z</time></trkpt><trkpt lat="40.90797330077196" lon="8.762318610937655"><ele>311.2</ele><time>2026-04-11T12:53:36.996Z</time></trkpt><trkpt lat="40.90789008389064" lon="8.762219603032117"><ele>311.40000000000003</ele><time>2026-04-11T12:53:38.996Z</time></trkpt><trkpt lat="40.907856673882144" lon="8.76210890333352"><ele>311.6</ele><time>2026-04-11T12:53:40.996Z</time></trkpt><trkpt lat="40.9077203902083" lon="8.762159385799064"><ele>311.8</ele><time>2026-04-11T12:53:56.996Z</time></trkpt><trkpt lat="40.907797785280046" lon="8.762184245485978"><ele>312.0</ele><time>2026-04-11T12:53:57.996Z</time></trkpt><trkpt lat="40.90789911191088" lon="8.762131171018552"><ele>312.0</ele><time>2026-04-11T12:54:00.996Z</time></trkpt><trkpt lat="40.90794649197598" lon="8.76207221101306"><ele>312.0</ele><time>2026-04-11T12:54:01.995Z</time></trkpt><trkpt lat="40.908021926103" lon="8.761999613561986"><ele>312.0</ele><time>2026-04-11T12:54:03.995Z</time></trkpt><trkpt lat="40.9080126440113" lon="8.761873452235195"><ele>312.0</ele><time>2026-04-11T12:54:04.995Z</time></trkpt><trkpt lat="40.90805741342341" lon="8.76178982740329"><ele>312.0</ele><time>2026-04-11T12:54:05.995Z</time></trkpt><trkpt lat="40.90809999562846" lon="8.761709638121502"><ele>312.0</ele><time>2026-04-11T12:54:06.995Z</time></trkpt><trkpt lat="40.90814807593457" lon="8.761623710221999"><ele>310.75</ele><time>2026-04-11T12:54:07.995Z</time></trkpt><trkpt lat="40.908222027374904" lon="8.761490226349377"><ele>309.5</ele><time>2026-04-11T12:54:09.995Z</time></trkpt><trkpt lat="40.9082609056469" lon="8.761415945137404"><ele>308.25</ele><time>2026-04-11T12:54:10.995Z</time></trkpt><trkpt lat="40.90851402012128" lon="8.761422946188997"><ele>307.0</ele><time>2026-04-11T12:54:12.995Z</time></trkpt><trkpt lat="40.90860565109941" lon="8.761247882745975"><ele>297.5</ele><time>2026-04-11T12:54:13.995Z</time></trkpt><trkpt lat="40.90862502423443" lon="8.761083000145506"><ele>288.0</ele><time>2026-04-11T12:54:14.995Z</time></trkpt><trkpt lat="40.908615809796274" lon="8.76093374701693"><ele>278.5</ele><time>2026-04-11T12:54:15.995Z</time></trkpt><trkpt lat="40.90859944010362" lon="8.760822691036708"><ele>269.0</ele><time>2026-04-11T12:54:16.995Z</time></trkpt><trkpt lat="40.90857389507011" lon="8.760655991741137"><ele>268.0</ele><time>2026-04-11T12:54:17.995Z</time></trkpt><trkpt lat="40.90855428403485" lon="8.760539622737364"><ele>267.0</ele><time>2026-04-11T12:54:18.995Z</time></trkpt><trkpt lat="40.90853239890444" lon="8.760423046783384"><ele>266.0</ele><time>2026-04-11T12:54:19.995Z</time></trkpt><trkpt lat="40.90850749807095" lon="8.760296020387534"><ele>265.0</ele><time>2026-04-11T12:54:20.995Z</time></trkpt><trkpt lat="40.908464506713045" lon="8.760169553813252"><ele>264.0</ele><time>2026-04-11T12:54:21.995Z</time></trkpt><trkpt lat="40.908438402378906" lon="8.760034387405698"><ele>268.1666666666667</ele><time>2026-04-11T12:54:22.995Z</time></trkpt><trkpt lat="40.908406868429715" lon="8.759907791624377"><ele>272.3333333333333</ele><time>2026-04-11T12:54:23.995Z</time></trkpt><trkpt lat="40.908367446486324" lon="8.759791522135489"><ele>276.5</ele><time>2026-04-11T12:54:24.995Z</time></trkpt><trkpt lat="40.90830312342775" lon="8.759709537402584"><ele>280.66666666666663</ele><time>2026-04-11T12:54:25.995Z</time></trkpt><trkpt lat="40.90824720061398" lon="8.759630840897842"><ele>284.8333333333333</ele><time>2026-04-11T12:54:26.995Z</time></trkpt><trkpt lat="40.908188955290875" lon="8.759570517836991"><ele>289.0</ele><time>2026-04-11T12:54:27.995Z</time></trkpt><trkpt lat="40.90813050169964" lon="8.759523903465029"><ele>289.0</ele><time>2026-04-11T12:54:29.001Z</time></trkpt><trkpt lat="40.90805353596088" lon="8.75948019521393"><ele>289.0</ele><time>2026-04-11T12:54:31.001Z</time></trkpt><trkpt lat="40.90808594875464" lon="8.75934882606311"><ele>289.0</ele><time>2026-04-11T12:54:32.001Z</time></trkpt><trkpt lat="40.908118919800664" lon="8.759201016528143"><ele>289.0</ele><time>2026-04-11T12:54:34.001Z</time></trkpt><trkpt lat="40.90813420180177" lon="8.759110225544388"><ele>289.0</ele><time>2026-04-11T12:54:35.001Z</time></trkpt><trkpt lat="40.90812933299066" lon="8.759016768542063"><ele>289.0</ele><time>2026-04-11T12:54:36.001Z</time></trkpt><trkpt lat="40.908130462548776" lon="8.75892403738059"><ele>289.16666666666663</ele><time>2026-04-11T12:54:37.001Z</time></trkpt><trkpt lat="40.90812541608751" lon="8.758831485505969"><ele>289.3333333333333</ele><time>2026-04-11T12:54:38.001Z</time></trkpt><trkpt lat="40.90811726024122" lon="8.758736953266386"><ele>289.5</ele><time>2026-04-11T12:54:39.001Z</time></trkpt><trkpt lat="40.908092413085065" lon="8.758640155410085"><ele>289.6666666666667</ele><time>2026-04-11T12:54:40.001Z</time></trkpt><trkpt lat="40.90807673845627" lon="8.758514938858205"><ele>289.83333333333337</ele><time>2026-04-11T12:54:41.001Z</time></trkpt><trkpt lat="40.90802680971525" lon="8.758395803549718"><ele>290.0</ele><time>2026-04-11T12:54:42.001Z</time></trkpt><trkpt lat="40.90796352665414" lon="8.758282453594898"><ele>291.0</ele><time>2026-04-11T12:54:43.001Z</time></trkpt><trkpt lat="40.90789723713623" lon="8.758162671469092"><ele>292.0</ele><time>2026-04-11T12:54:44.001Z</time></trkpt><trkpt lat="40.90782672717485" lon="8.758034750866543"><ele>293.0</ele><time>2026-04-11T12:54:45.001Z</time></trkpt><trkpt lat="40.90775298842291" lon="8.757911374901509"><ele>294.0</ele><time>2026-04-11T12:54:46.001Z</time></trkpt><trkpt lat="40.90768122252416" lon="8.75779519941049"><ele>293.0</ele><time>2026-04-11T12:54:47.001Z</time></trkpt><trkpt lat="40.90761428548445" lon="8.757689487912032"><ele>292.0</ele><time>2026-04-11T12:54:48.001Z</time></trkpt><trkpt lat="40.907544355066975" lon="8.75759345213456"><ele>291.0</ele><time>2026-04-11T12:54:49.001Z</time></trkpt><trkpt lat="40.907462315539156" lon="8.757502491370115"><ele>290.0</ele><time>2026-04-11T12:54:50.001Z</time></trkpt><trkpt lat="40.90735826729636" lon="8.757417884927516"><ele>289.0</ele><time>2026-04-11T12:54:51.001Z</time></trkpt><trkpt lat="40.90725730304697" lon="8.757330542181565"><ele>291.2</ele><time>2026-04-11T12:54:52.001Z</time></trkpt><trkpt lat="40.90716115564065" lon="8.757239783265687"><ele>293.4</ele><time>2026-04-11T12:54:53Z</time></trkpt><trkpt lat="40.907069913489195" lon="8.757157657578396"><ele>295.6</ele><time>2026-04-11T12:54:54Z</time></trkpt><trkpt lat="40.90698742186157" lon="8.757088143296672"><ele>297.8</ele><time>2026-04-11T12:54:55Z</time></trkpt><trkpt lat="40.906916270467754" lon="8.757031060679656"><ele>300.0</ele><time>2026-04-11T12:54:56Z</time></trkpt><trkpt lat="40.906851775139245" lon="8.757004676634562"><ele>300.0</ele><time>2026-04-11T12:54:57Z</time></trkpt><trkpt lat="40.90678698027167" lon="8.756924133545327"><ele>300.0</ele><time>2026-04-11T12:54:59Z</time></trkpt><trkpt lat="40.90673048387167" lon="8.756852651582918"><ele>300.0</ele><time>2026-04-11T12:55:01Z</time></trkpt><trkpt lat="40.90678338481235" lon="8.756742349527785"><ele>300.0</ele><time>2026-04-11T12:55:02Z</time></trkpt><trkpt lat="40.90683134312006" lon="8.756646072442628"><ele>300.0</ele><time>2026-04-11T12:55:04Z</time></trkpt><trkpt lat="40.90689764130526" lon="8.756520612338077"><ele>299.4</ele><time>2026-04-11T12:55:06Z</time></trkpt><trkpt lat="40.90694710416116" lon="8.756379444853637"><ele>298.8</ele><time>2026-04-11T12:55:08Z</time></trkpt><trkpt lat="40.90698078242592" lon="8.756239347317406"><ele>298.2</ele><time>2026-04-11T12:55:10Z</time></trkpt><trkpt lat="40.907017481710504" lon="8.756118747347028"><ele>297.6</ele><time>2026-04-11T12:55:12Z</time></trkpt><trkpt lat="40.90703809341199" lon="8.75601043093059"><ele>297.0</ele><time>2026-04-11T12:55:14Z</time></trkpt><trkpt lat="40.90702686807757" lon="8.75592743501345"><ele>297.0</ele><time>2026-04-11T12:55:20Z</time></trkpt><trkpt lat="40.9070397597122" lon="8.755808031086566"><ele>297.0</ele><time>2026-04-11T12:55:38.999Z</time></trkpt><trkpt lat="40.907037777532224" lon="8.755689800305031"><ele>297.0</ele><time>2026-04-11T12:55:40.999Z</time></trkpt><trkpt lat="40.907024576191816" lon="8.755572864298088"><ele>297.0</ele><time>2026-04-11T12:55:42.999Z</time></trkpt><trkpt lat="40.907014276868445" lon="8.755424849105973"><ele>297.0</ele><time>2026-04-11T12:55:44.999Z</time></trkpt><trkpt lat="40.90701907331356" lon="8.755336851005097"><ele>297.0</ele><time>2026-04-11T12:55:45.999Z</time></trkpt><trkpt lat="40.90702149229801" lon="8.755247328063891"><ele>295.4</ele><time>2026-04-11T12:55:46.999Z</time></trkpt><trkpt lat="40.90701241466429" lon="8.755157633661893"><ele>293.79999999999995</ele><time>2026-04-11T12:55:47.999Z</time></trkpt><trkpt lat="40.9069950786026" lon="8.755067158258523"><ele>292.2</ele><time>2026-04-11T12:55:48.999Z</time></trkpt><trkpt lat="40.90698210310611" lon="8.754921269352145"><ele>290.59999999999997</ele><time>2026-04-11T12:55:50.999Z</time></trkpt><trkpt lat="40.90696913058212" lon="8.754776420355713"><ele>289.0</ele><time>2026-04-11T12:55:52.999Z</time></trkpt><trkpt lat="40.90696859208041" lon="8.754621993274903"><ele>289.0</ele><time>2026-04-11T12:55:54.999Z</time></trkpt><trkpt lat="40.906953139794624" lon="8.754481190542181"><ele>289.0</ele><time>2026-04-11T12:55:56.999Z</time></trkpt><trkpt lat="40.906959651967426" lon="8.754369617844167"><ele>289.0</ele><time>2026-04-11T12:55:58.999Z</time></trkpt><trkpt lat="40.9069407983923" lon="8.754286690119562"><ele>289.0</ele><time>2026-04-11T12:56:01.999Z</time></trkpt><trkpt lat="40.906863556235955" lon="8.754250862184119"><ele>289.0</ele><time>2026-04-11T12:56:16.999Z</time></trkpt><trkpt lat="40.90684793869379" lon="8.754150173756976"><ele>289.0</ele><time>2026-04-11T12:56:20.999Z</time></trkpt><trkpt lat="40.906911967197544" lon="8.75415359606146"><ele>289.0</ele><time>2026-04-11T12:58:52.997Z</time></trkpt><trkpt lat="40.90694694871904" lon="8.754345938885452"><ele>289.0</ele><time>2026-04-11T13:02:12.999Z</time></trkpt><trkpt lat="40.90695336723986" lon="8.754458082658747"><ele>289.0</ele><time>2026-04-11T13:02:13.999Z</time></trkpt><trkpt lat="40.90695385458078" lon="8.754558957729143"><ele>289.0</ele><time>2026-04-11T13:02:14.999Z</time></trkpt><trkpt lat="40.906945253195964" lon="8.754661913734425"><ele>289.0</ele><time>2026-04-11T13:02:15.999Z</time></trkpt><trkpt lat="40.90694002359097" lon="8.754779779574985"><ele>289.0</ele><time>2026-04-11T13:02:16.999Z</time></trkpt><trkpt lat="40.90694375202156" lon="8.754905170877628"><ele>289.0</ele><time>2026-04-11T13:02:17.999Z</time></trkpt><trkpt lat="40.90693472534177" lon="8.75501651456826"><ele>289.0</ele><time>2026-04-11T13:02:18.999Z</time></trkpt><trkpt lat="40.90692804153456" lon="8.75511917274374"><ele>289.0</ele><time>2026-04-11T13:02:19.999Z</time></trkpt><trkpt lat="40.90691688689653" lon="8.755219581131946"><ele>289.0</ele><time>2026-04-11T13:02:20.999Z</time></trkpt><trkpt lat="40.90690071519131" lon="8.7553275370558"><ele>289.0</ele><time>2026-04-11T13:02:21.999Z</time></trkpt><trkpt lat="40.9068888505351" lon="8.755445553929954"><ele>290.59999999999997</ele><time>2026-04-11T13:02:22.999Z</time></trkpt><trkpt lat="40.9068716318816" lon="8.755560508347664"><ele>292.2</ele><time>2026-04-11T13:02:23.999Z</time></trkpt><trkpt lat="40.9068514402453" lon="8.755678630031127"><ele>293.79999999999995</ele><time>2026-04-11T13:02:24.999Z</time></trkpt><trkpt lat="40.90682243154865" lon="8.755795772507666"><ele>295.4</ele><time>2026-04-11T13:02:25.999Z</time></trkpt><trkpt lat="40.906796728386276" lon="8.75591256145404"><ele>297.0</ele><time>2026-04-11T13:02:26.999Z</time></trkpt><trkpt lat="40.90676230351224" lon="8.75601523654132"><ele>299.1666666666667</ele><time>2026-04-11T13:02:27.999Z</time></trkpt><trkpt lat="40.906723706383076" lon="8.756104596966626"><ele>301.3333333333333</ele><time>2026-04-11T13:02:28.999Z</time></trkpt><trkpt lat="40.90668386472427" lon="8.756189186412684"><ele>303.5</ele><time>2026-04-11T13:02:29.999Z</time></trkpt><trkpt lat="40.90665520647177" lon="8.756273430909786"><ele>305.66666666666663</ele><time>2026-04-11T13:02:30.999Z</time></trkpt><trkpt lat="40.906575753283946" lon="8.756342627420317"><ele>307.8333333333333</ele><time>2026-04-11T13:02:32.999Z</time></trkpt><trkpt lat="40.90648511986668" lon="8.756335164911265"><ele>310.0</ele><time>2026-04-11T13:02:34.999Z</time></trkpt><trkpt lat="40.90638349509838" lon="8.756245565022473"><ele>310.0</ele><time>2026-04-11T13:02:36.999Z</time></trkpt><trkpt lat="40.90630978374142" lon="8.756195106447285"><ele>310.0</ele><time>2026-04-11T13:02:37.999Z</time></trkpt><trkpt lat="40.90624030738065" lon="8.75613541163094"><ele>310.0</ele><time>2026-04-11T13:02:38.999Z</time></trkpt><trkpt lat="40.906127975842395" lon="8.756068797255406"><ele>310.0</ele><time>2026-04-11T13:02:40.999Z</time></trkpt><trkpt lat="40.90606202366293" lon="8.756010578239644"><ele>310.0</ele><time>2026-04-11T13:02:41.999Z</time></trkpt><trkpt lat="40.905983710475596" lon="8.7559512894554"><ele>309.4</ele><time>2026-04-11T13:02:42.999Z</time></trkpt><trkpt lat="40.90589835897016" lon="8.755905854274395"><ele>308.8</ele><time>2026-04-11T13:02:43.999Z</time></trkpt><trkpt lat="40.90579969159235" lon="8.75587696871929"><ele>308.2</ele><time>2026-04-11T13:02:44.999Z</time></trkpt><trkpt lat="40.905694075066826" lon="8.755855566184886"><ele>307.6</ele><time>2026-04-11T13:02:45.999Z</time></trkpt><trkpt lat="40.90558788359165" lon="8.755836069690547"><ele>307.0</ele><time>2026-04-11T13:02:46.999Z</time></trkpt><trkpt lat="40.905484428934244" lon="8.755823794530903"><ele>307.0</ele><time>2026-04-11T13:02:47.999Z</time></trkpt><trkpt lat="40.90539317187111" lon="8.75579949071451"><ele>307.0</ele><time>2026-04-11T13:02:48.999Z</time></trkpt><trkpt lat="40.905307062749316" lon="8.75578786644088"><ele>307.0</ele><time>2026-04-11T13:02:49.999Z</time></trkpt><trkpt lat="40.9052242795012" lon="8.755762167238377"><ele>307.0</ele><time>2026-04-11T13:02:50.999Z</time></trkpt><trkpt lat="40.905150928180696" lon="8.755711904760718"><ele>307.0</ele><time>2026-04-11T13:02:51.999Z</time></trkpt><trkpt lat="40.90507449347115" lon="8.755653392471185"><ele>307.0</ele><time>2026-04-11T13:02:52.999Z</time></trkpt><trkpt lat="40.90502528076878" lon="8.75554793662228"><ele>306.2</ele><time>2026-04-11T13:02:53.999Z</time></trkpt><trkpt lat="40.90497378472037" lon="8.755445070439524"><ele>305.4</ele><time>2026-04-11T13:02:54.999Z</time></trkpt><trkpt lat="40.90492665453848" lon="8.755330440090269"><ele>304.6</ele><time>2026-04-11T13:02:55.999Z</time></trkpt><trkpt lat="40.90488126110536" lon="8.755220397862999"><ele>303.8</ele><time>2026-04-11T13:02:56.999Z</time></trkpt><trkpt lat="40.904822654700254" lon="8.75511873345129"><ele>303.0</ele><time>2026-04-11T13:02:57.999Z</time></trkpt><trkpt lat="40.90477862097849" lon="8.755003183253363"><ele>302.6</ele><time>2026-04-11T13:02:58.999Z</time></trkpt><trkpt lat="40.904710570371996" lon="8.754908994027286"><ele>302.20000000000005</ele><time>2026-04-11T13:02:59.999Z</time></trkpt><trkpt lat="40.904635032429844" lon="8.754827182525489"><ele>301.8</ele><time>2026-04-11T13:03:00.999Z</time></trkpt><trkpt lat="40.90454735125105" lon="8.754774935044537"><ele>301.40000000000003</ele><time>2026-04-11T13:03:01.999Z</time></trkpt><trkpt lat="40.90447951854918" lon="8.75470195939402"><ele>301.0</ele><time>2026-04-11T13:03:02.999Z</time></trkpt><trkpt lat="40.90440304384454" lon="8.754651352572338"><ele>301.0</ele><time>2026-04-11T13:03:03.999Z</time></trkpt><trkpt lat="40.90432204854824" lon="8.754617426899229"><ele>301.0</ele><time>2026-04-11T13:03:04.999Z</time></trkpt><trkpt lat="40.90425331886779" lon="8.754584677401013"><ele>301.0</ele><time>2026-04-11T13:03:05.998Z</time></trkpt><trkpt lat="40.90414656396123" lon="8.754532796393875"><ele>301.0</ele><time>2026-04-11T13:03:07.998Z</time></trkpt><trkpt lat="40.904062697400164" lon="8.754499516708774"><ele>301.0</ele><time>2026-04-11T13:03:09.998Z</time></trkpt><trkpt lat="40.903999934223805" lon="8.75444319093231"><ele>301.0</ele><time>2026-04-11T13:03:18.998Z</time></trkpt><trkpt lat="40.903912274275925" lon="8.754367240811204"><ele>299.16666666666663</ele><time>2026-04-11T13:03:20.998Z</time></trkpt><trkpt lat="40.9038587893089" lon="8.754317009652855"><ele>297.3333333333333</ele><time>2026-04-11T13:03:21.998Z</time></trkpt><trkpt lat="40.903804515893256" lon="8.75426420747464"><ele>295.5</ele><time>2026-04-11T13:03:22.998Z</time></trkpt><trkpt lat="40.903766944008595" lon="8.754193702994252"><ele>293.6666666666667</ele><time>2026-04-11T13:03:23.998Z</time></trkpt><trkpt lat="40.903683836975354" lon="8.754116022486881"><ele>291.83333333333337</ele><time>2026-04-11T13:03:25.998Z</time></trkpt><trkpt lat="40.90355671159062" lon="8.754073236065148"><ele>290.0</ele><time>2026-04-11T13:04:31.998Z</time></trkpt><trkpt lat="40.90346756293644" lon="8.754094216606134"><ele>287.5</ele><time>2026-04-11T13:04:33.998Z</time></trkpt><trkpt lat="40.90336751769455" lon="8.754136133587156"><ele>285.0</ele><time>2026-04-11T13:04:35.998Z</time></trkpt><trkpt lat="40.90319086593741" lon="8.754136276474629"><ele>282.5</ele><time>2026-04-11T13:04:36.998Z</time></trkpt><trkpt lat="40.90313387550943" lon="8.753981250820733"><ele>280.0</ele><time>2026-04-11T13:04:37.998Z</time></trkpt><trkpt lat="40.90308731782525" lon="8.753863317484734"><ele>280.0</ele><time>2026-04-11T13:04:39.998Z</time></trkpt><trkpt lat="40.90305051662868" lon="8.753784653760155"><ele>280.0</ele><time>2026-04-11T13:04:40.998Z</time></trkpt><trkpt lat="40.903005419851816" lon="8.753703980536006"><ele>280.0</ele><time>2026-04-11T13:04:41.998Z</time></trkpt><trkpt lat="40.90293386468329" lon="8.753570375181411"><ele>280.0</ele><time>2026-04-11T13:04:43.998Z</time></trkpt><trkpt lat="40.90288983421375" lon="8.75350328242039"><ele>280.0</ele><time>2026-04-11T13:04:44.998Z</time></trkpt><trkpt lat="40.90288825003221" lon="8.753403169158195"><ele>280.0</ele><time>2026-04-11T13:04:45.998Z</time></trkpt><trkpt lat="40.90284829418207" lon="8.75329687237743"><ele>278.6</ele><time>2026-04-11T13:04:46.998Z</time></trkpt><trkpt lat="40.90282343389261" lon="8.753182340421503"><ele>277.2</ele><time>2026-04-11T13:04:47.998Z</time></trkpt><trkpt lat="40.902749603402505" lon="8.753115429599456"><ele>275.8</ele><time>2026-04-11T13:04:48.998Z</time></trkpt><trkpt lat="40.902673376516084" lon="8.75303515464461"><ele>274.4</ele><time>2026-04-11T13:04:49.998Z</time></trkpt><trkpt lat="40.90258140231537" lon="8.752956956934526"><ele>273.0</ele><time>2026-04-11T13:04:50.998Z</time></trkpt><trkpt lat="40.90249590689805" lon="8.752900027912037"><ele>273.0</ele><time>2026-04-11T13:04:51.998Z</time></trkpt><trkpt lat="40.90240616646866" lon="8.752866138878968"><ele>273.0</ele><time>2026-04-11T13:04:52.998Z</time></trkpt><trkpt lat="40.90232524131204" lon="8.752858342893713"><ele>273.0</ele><time>2026-04-11T13:04:53.998Z</time></trkpt><trkpt lat="40.9022350423406" lon="8.7528761380569"><ele>273.0</ele><time>2026-04-11T13:04:54.998Z</time></trkpt><trkpt lat="40.90214327418754" lon="8.752914323183749"><ele>273.0</ele><time>2026-04-11T13:04:55.998Z</time></trkpt><trkpt lat="40.9020559023723" lon="8.75296025397425"><ele>273.0</ele><time>2026-04-11T13:04:56.998Z</time></trkpt><trkpt lat="40.90196913916835" lon="8.75298664106814"><ele>273.0</ele><time>2026-04-11T13:04:57.998Z</time></trkpt><trkpt lat="40.90190218738981" lon="8.753034917429405"><ele>273.0</ele><time>2026-04-11T13:04:58.998Z</time></trkpt><trkpt lat="40.90183611327909" lon="8.753092216996594"><ele>273.0</ele><time>2026-04-11T13:04:59.998Z</time></trkpt><trkpt lat="40.901767712412735" lon="8.75305714873124"><ele>273.0</ele><time>2026-04-11T13:05:00.998Z</time></trkpt><trkpt lat="40.90169314373862" lon="8.753031544539697"><ele>273.0</ele><time>2026-04-11T13:05:01.998Z</time></trkpt><trkpt lat="40.90162392480438" lon="8.753003256006513"><ele>271.8333333333333</ele><time>2026-04-11T13:05:02.998Z</time></trkpt><trkpt lat="40.90156222280576" lon="8.75296416141342"><ele>270.6666666666667</ele><time>2026-04-11T13:05:03.998Z</time></trkpt><trkpt lat="40.901500684390214" lon="8.752905415038155"><ele>269.5</ele><time>2026-04-11T13:05:04.998Z</time></trkpt><trkpt lat="40.90146277450356" lon="8.752794344045698"><ele>268.33333333333337</ele><time>2026-04-11T13:05:05.998Z</time></trkpt><trkpt lat="40.9014161835025" lon="8.752676805219814"><ele>267.1666666666667</ele><time>2026-04-11T13:05:06.998Z</time></trkpt><trkpt lat="40.901377120703714" lon="8.752553480057326"><ele>266.0</ele><time>2026-04-11T13:05:07.998Z</time></trkpt><trkpt lat="40.9012963525553" lon="8.752470504784188"><ele>266.0</ele><time>2026-04-11T13:05:08.998Z</time></trkpt><trkpt lat="40.90122037410744" lon="8.752372068619708"><ele>266.0</ele><time>2026-04-11T13:05:09.998Z</time></trkpt><trkpt lat="40.90115578306479" lon="8.752262492260135"><ele>266.0</ele><time>2026-04-11T13:05:10.998Z</time></trkpt><trkpt lat="40.901107443480285" lon="8.75215693938314"><ele>266.0</ele><time>2026-04-11T13:05:11.998Z</time></trkpt><trkpt lat="40.90105935833506" lon="8.752047029442215"><ele>266.0</ele><time>2026-04-11T13:05:12.998Z</time></trkpt><trkpt lat="40.90101710384015" lon="8.75193388735691"><ele>265.2</ele><time>2026-04-11T13:05:13.998Z</time></trkpt><trkpt lat="40.900985068877326" lon="8.751818959092665"><ele>264.40000000000003</ele><time>2026-04-11T13:05:14.998Z</time></trkpt><trkpt lat="40.900983292704915" lon="8.751684669406304"><ele>263.6</ele><time>2026-04-11T13:05:15.998Z</time></trkpt><trkpt lat="40.900952727870276" lon="8.751546075196273"><ele>262.8</ele><time>2026-04-11T13:05:16.998Z</time></trkpt><trkpt lat="40.90093934819984" lon="8.751396196913467"><ele>262.0</ele><time>2026-04-11T13:05:17.998Z</time></trkpt><trkpt lat="40.90093028959212" lon="8.751253300050484"><ele>262.0</ele><time>2026-04-11T13:05:18.998Z</time></trkpt><trkpt lat="40.90092289611147" lon="8.751121104666796"><ele>262.0</ele><time>2026-04-11T13:05:19.998Z</time></trkpt><trkpt lat="40.9009111954865" lon="8.75100636106355"><ele>262.0</ele><time>2026-04-11T13:05:20.998Z</time></trkpt><trkpt lat="40.900917534989645" lon="8.750892389722411"><ele>262.0</ele><time>2026-04-11T13:05:21.998Z</time></trkpt><trkpt lat="40.90089471263933" lon="8.75079533241382"><ele>262.0</ele><time>2026-04-11T13:05:22.998Z</time></trkpt><trkpt lat="40.90085820936698" lon="8.750720844061009"><ele>262.0</ele><time>2026-04-11T13:05:23.998Z</time></trkpt><trkpt lat="40.900809769000894" lon="8.750652483102263"><ele>261.5</ele><time>2026-04-11T13:05:25.998Z</time></trkpt><trkpt lat="40.90074799464073" lon="8.750595573210388"><ele>261.0</ele><time>2026-04-11T13:05:36.998Z</time></trkpt><trkpt lat="40.90070184756125" lon="8.750653447504124"><ele>260.5</ele><time>2026-04-11T13:05:49.998Z</time></trkpt><trkpt lat="40.90060460215878" lon="8.750759446065768"><ele>260.0</ele><time>2026-04-11T13:05:51.997Z</time></trkpt><trkpt lat="40.90060566456419" lon="8.750859744131832"><ele>259.5</ele><time>2026-04-11T13:05:52.997Z</time></trkpt><trkpt lat="40.90056262052035" lon="8.750934848250393"><ele>259.0</ele><time>2026-04-11T13:05:53.997Z</time></trkpt><trkpt lat="40.90052196356299" lon="8.751005356589662"><ele>259.5</ele><time>2026-04-11T13:05:54.997Z</time></trkpt><trkpt lat="40.90047544830611" lon="8.75107937869322"><ele>260.0</ele><time>2026-04-11T13:05:55.997Z</time></trkpt><trkpt lat="40.90041057166633" lon="8.751156214067455"><ele>260.5</ele><time>2026-04-11T13:05:56.997Z</time></trkpt><trkpt lat="40.900337820932954" lon="8.751202421513733"><ele>261.0</ele><time>2026-04-11T13:05:57.997Z</time></trkpt><trkpt lat="40.90026604147605" lon="8.75119934383729"><ele>261.5</ele><time>2026-04-11T13:05:58.997Z</time></trkpt><trkpt lat="40.90020165520026" lon="8.751188915893321"><ele>262.0</ele><time>2026-04-11T13:05:59.997Z</time></trkpt><trkpt lat="40.90012885394034" lon="8.751163693031245"><ele>262.4</ele><time>2026-04-11T13:06:00.997Z</time></trkpt><trkpt lat="40.90004779453133" lon="8.751124714970775"><ele>262.79999999999995</ele><time>2026-04-11T13:06:01.997Z</time></trkpt><trkpt lat="40.899949226993265" lon="8.751074112412015"><ele>263.2</ele><time>2026-04-11T13:06:02.997Z</time></trkpt><trkpt lat="40.8998467572381" lon="8.751000837032565"><ele>263.59999999999997</ele><time>2026-04-11T13:06:03.997Z</time></trkpt><trkpt lat="40.8997417994113" lon="8.75092668530781"><ele>264.0</ele><time>2026-04-11T13:06:04.997Z</time></trkpt><trkpt lat="40.89963555318438" lon="8.750839663141951"><ele>264.0</ele><time>2026-04-11T13:06:05.997Z</time></trkpt><trkpt lat="40.89951796999362" lon="8.750770139558204"><ele>264.0</ele><time>2026-04-11T13:06:06.997Z</time></trkpt><trkpt lat="40.89939345731639" lon="8.750725285124453"><ele>264.0</ele><time>2026-04-11T13:06:07.997Z</time></trkpt><trkpt lat="40.89926228369789" lon="8.750720420666253"><ele>264.0</ele><time>2026-04-11T13:06:08.997Z</time></trkpt><trkpt lat="40.899117158797" lon="8.750733296190623"><ele>262.0</ele><time>2026-04-11T13:06:09.997Z</time></trkpt><trkpt lat="40.89896529818274" lon="8.750746992499007"><ele>260.0</ele><time>2026-04-11T13:06:10.997Z</time></trkpt><trkpt lat="40.89881218712338" lon="8.750749776318347"><ele>258.0</ele><time>2026-04-11T13:06:11.997Z</time></trkpt><trkpt lat="40.898659759020724" lon="8.750747635444787"><ele>258.0</ele><time>2026-04-11T13:06:12.997Z</time></trkpt><trkpt lat="40.89850407252685" lon="8.750719029985312"><ele>258.0</ele><time>2026-04-11T13:06:13.997Z</time></trkpt><trkpt lat="40.89834863864746" lon="8.750699789234652"><ele>258.0</ele><time>2026-04-11T13:06:14.997Z</time></trkpt><trkpt lat="40.89818426367573" lon="8.750700000863047"><ele>259.3333333333333</ele><time>2026-04-11T13:06:15.997Z</time></trkpt><trkpt lat="40.89801593117805" lon="8.750687109350054"><ele>260.66666666666663</ele><time>2026-04-11T13:06:16.997Z</time></trkpt><trkpt lat="40.897847746257874" lon="8.750692841557122"><ele>262.0</ele><time>2026-04-11T13:06:17.997Z</time></trkpt><trkpt lat="40.89766212905376" lon="8.750683012639385"><ele>264.0</ele><time>2026-04-11T13:06:18.997Z</time></trkpt><trkpt lat="40.897482011683785" lon="8.750683629641712"><ele>266.0</ele><time>2026-04-11T13:06:19.997Z</time></trkpt><trkpt lat="40.89730061373651" lon="8.750716601348609"><ele>268.0</ele><time>2026-04-11T13:06:20.997Z</time></trkpt><trkpt lat="40.89716542745801" lon="8.75072689611529"><ele>268.0</ele><time>2026-04-11T13:06:21.997Z</time></trkpt><trkpt lat="40.89704781233141" lon="8.750753309149703"><ele>268.0</ele><time>2026-04-11T13:06:22.997Z</time></trkpt><trkpt lat="40.896923199730885" lon="8.750793720912183"><ele>268.0</ele><time>2026-04-11T13:06:23.997Z</time></trkpt><trkpt lat="40.89680564546812" lon="8.750842973103337"><ele>268.0</ele><time>2026-04-11T13:06:24.997Z</time></trkpt><trkpt lat="40.896694460569236" lon="8.75085206313217"><ele>269.0</ele><time>2026-04-11T13:06:25.997Z</time></trkpt><trkpt lat="40.89657433764677" lon="8.750860041987869"><ele>270.0</ele><time>2026-04-11T13:06:26.997Z</time></trkpt><trkpt lat="40.89647485674238" lon="8.750834204231905"><ele>271.0</ele><time>2026-04-11T13:06:27.997Z</time></trkpt><trkpt lat="40.89639177044231" lon="8.750799596061972"><ele>272.0</ele><time>2026-04-11T13:06:28.997Z</time></trkpt><trkpt lat="40.896277135053" lon="8.750759154668657"><ele>273.0</ele><time>2026-04-11T13:06:29.997Z</time></trkpt><trkpt lat="40.896142982557556" lon="8.750710708884656"><ele>273.0</ele><time>2026-04-11T13:06:30.997Z</time></trkpt><trkpt lat="40.896015232987196" lon="8.750664389549089"><ele>273.0</ele><time>2026-04-11T13:06:31.997Z</time></trkpt><trkpt lat="40.89589608846975" lon="8.750636284062521"><ele>273.0</ele><time>2026-04-11T13:06:32.997Z</time></trkpt><trkpt lat="40.89580348238443" lon="8.750594340494464"><ele>273.0</ele><time>2026-04-11T13:06:33.997Z</time></trkpt><trkpt lat="40.89571271163137" lon="8.750531642877098"><ele>271.4</ele><time>2026-04-11T13:06:34.997Z</time></trkpt><trkpt lat="40.895625869210825" lon="8.750469103159748"><ele>269.8</ele><time>2026-04-11T13:06:35.997Z</time></trkpt><trkpt lat="40.89557265575318" lon="8.750377466137572"><ele>268.2</ele><time>2026-04-11T13:06:36.997Z</time></trkpt><trkpt lat="40.89553493598005" lon="8.750284271085258"><ele>266.6</ele><time>2026-04-11T13:06:37.997Z</time></trkpt><trkpt lat="40.89550338410587" lon="8.750181973522778"><ele>265.0</ele><time>2026-04-11T13:06:38.997Z</time></trkpt><trkpt lat="40.89546639718786" lon="8.750041259866983"><ele>268.6</ele><time>2026-04-11T13:06:39.997Z</time></trkpt><trkpt lat="40.89543954167241" lon="8.749912492950104"><ele>272.2</ele><time>2026-04-11T13:06:40.997Z</time></trkpt><trkpt lat="40.89542118974629" lon="8.74978192614038"><ele>275.8</ele><time>2026-04-11T13:06:41.997Z</time></trkpt><trkpt lat="40.89541299044159" lon="8.749638926537354"><ele>279.4</ele><time>2026-04-11T13:06:42.997Z</time></trkpt><trkpt lat="40.89541369448895" lon="8.749495252837933"><ele>283.0</ele><time>2026-04-11T13:06:43.997Z</time></trkpt><trkpt lat="40.89541828953542" lon="8.749338722921117"><ele>283.0</ele><time>2026-04-11T13:06:44.997Z</time></trkpt><trkpt lat="40.89541622631353" lon="8.749164588809032"><ele>283.0</ele><time>2026-04-11T13:06:45.997Z</time></trkpt><trkpt lat="40.89543335004626" lon="8.749011554379548"><ele>283.0</ele><time>2026-04-11T13:06:46.997Z</time></trkpt><trkpt lat="40.895452820047204" lon="8.748859356032186"><ele>283.0</ele><time>2026-04-11T13:06:47.997Z</time></trkpt><trkpt lat="40.89547070697052" lon="8.748731536544886"><ele>283.0</ele><time>2026-04-11T13:06:48.997Z</time></trkpt><trkpt lat="40.895519819702464" lon="8.748623979949732"><ele>283.0</ele><time>2026-04-11T13:06:49.997Z</time></trkpt><trkpt lat="40.895570611811586" lon="8.748488641799632"><ele>283.0</ele><time>2026-04-11T13:06:50.997Z</time></trkpt><trkpt lat="40.89563874239194" lon="8.748363330874966"><ele>283.0</ele><time>2026-04-11T13:06:51.997Z</time></trkpt><trkpt lat="40.89571513796328" lon="8.748228298828426"><ele>284.0</ele><time>2026-04-11T13:06:52.997Z</time></trkpt><trkpt lat="40.8957935195554" lon="8.74809141319703"><ele>285.0</ele><time>2026-04-11T13:06:53.997Z</time></trkpt><trkpt lat="40.89587331885139" lon="8.747953518732873"><ele>286.0</ele><time>2026-04-11T13:06:54.997Z</time></trkpt><trkpt lat="40.89594182920471" lon="8.74783491909142"><ele>287.0</ele><time>2026-04-11T13:06:55.997Z</time></trkpt><trkpt lat="40.89602080797849" lon="8.747690866994086"><ele>282.0</ele><time>2026-04-11T13:06:56.997Z</time></trkpt><trkpt lat="40.89608191843648" lon="8.747552704774103"><ele>277.0</ele><time>2026-04-11T13:06:57.997Z</time></trkpt><trkpt lat="40.896152696246865" lon="8.747405996392734"><ele>272.0</ele><time>2026-04-11T13:06:58.997Z</time></trkpt><trkpt lat="40.89622856248419" lon="8.747240221648113"><ele>267.0</ele><time>2026-04-11T13:06:59.997Z</time></trkpt><trkpt lat="40.89632040331803" lon="8.747099232356303"><ele>267.0</ele><time>2026-04-11T13:07:00.997Z</time></trkpt><trkpt lat="40.89639941863859" lon="8.74696290474788"><ele>267.0</ele><time>2026-04-11T13:07:01.997Z</time></trkpt><trkpt lat="40.896467584722245" lon="8.746834076986843"><ele>267.0</ele><time>2026-04-11T13:07:02.997Z</time></trkpt><trkpt lat="40.896525680309054" lon="8.746724281547838"><ele>267.0</ele><time>2026-04-11T13:07:03.997Z</time></trkpt><trkpt lat="40.896584670842" lon="8.74662021797885"><ele>267.0</ele><time>2026-04-11T13:07:04.997Z</time></trkpt><trkpt lat="40.89663730124047" lon="8.746530045667813"><ele>267.8</ele><time>2026-04-11T13:07:05.997Z</time></trkpt><trkpt lat="40.89669712271232" lon="8.74643045327435"><ele>268.6</ele><time>2026-04-11T13:07:06.997Z</time></trkpt><trkpt lat="40.896756024067216" lon="8.74633201026391"><ele>269.40000000000003</ele><time>2026-04-11T13:07:07.997Z</time></trkpt><trkpt lat="40.89682070701819" lon="8.74622378704919"><ele>270.2</ele><time>2026-04-11T13:07:08.997Z</time></trkpt><trkpt lat="40.89687594307153" lon="8.746131369721125"><ele>271.0</ele><time>2026-04-11T13:07:09.997Z</time></trkpt><trkpt lat="40.896930238096125" lon="8.746037071682247"><ele>266.8333333333333</ele><time>2026-04-11T13:07:10.997Z</time></trkpt><trkpt lat="40.89698501524945" lon="8.745927084763803"><ele>262.66666666666663</ele><time>2026-04-11T13:07:11.997Z</time></trkpt><trkpt lat="40.89702351607524" lon="8.745848766088704"><ele>258.5</ele><time>2026-04-11T13:07:12.997Z</time></trkpt><trkpt lat="40.89706447717962" lon="8.745773487186979"><ele>254.33333333333331</ele><time>2026-04-11T13:07:13.996Z</time></trkpt><trkpt lat="40.89710454801051" lon="8.745695611846728"><ele>250.16666666666666</ele><time>2026-04-11T13:07:14.996Z</time></trkpt><trkpt lat="40.89710132560995" lon="8.745593958409515"><ele>246.0</ele><time>2026-04-11T13:07:16.996Z</time></trkpt><trkpt lat="40.89700775285529" lon="8.74557130202453"><ele>246.0</ele><time>2026-04-11T13:07:18.996Z</time></trkpt><trkpt lat="40.896940579119146" lon="8.745643549160063"><ele>246.0</ele><time>2026-04-11T13:07:19.996Z</time></trkpt><trkpt lat="40.89685516676532" lon="8.74568540463576"><ele>246.0</ele><time>2026-04-11T13:07:20.996Z</time></trkpt><trkpt lat="40.89676731652529" lon="8.745720066617812"><ele>246.0</ele><time>2026-04-11T13:07:21.996Z</time></trkpt><trkpt lat="40.896693731682454" lon="8.74574967197154"><ele>246.0</ele><time>2026-04-11T13:07:22.996Z</time></trkpt><trkpt lat="40.89659564813233" lon="8.745780743616672"><ele>246.0</ele><time>2026-04-11T13:07:23.996Z</time></trkpt><trkpt lat="40.89649242748988" lon="8.74581563170946"><ele>241.8</ele><time>2026-04-11T13:07:24.996Z</time></trkpt><trkpt lat="40.89639416313636" lon="8.745853748306972"><ele>237.60000000000002</ele><time>2026-04-11T13:07:25.996Z</time></trkpt><trkpt lat="40.89630230995841" lon="8.74589617740486"><ele>233.4</ele><time>2026-04-11T13:07:26.996Z</time></trkpt><trkpt lat="40.896213722914304" lon="8.745941620223613"><ele>229.2</ele><time>2026-04-11T13:07:27.996Z</time></trkpt><trkpt lat="40.89611969944966" lon="8.745989851806256"><ele>225.0</ele><time>2026-04-11T13:07:28.996Z</time></trkpt><trkpt lat="40.896032775028054" lon="8.746031638459614"><ele>225.0</ele><time>2026-04-11T13:07:29.996Z</time></trkpt><trkpt lat="40.89593870804272" lon="8.746072758117357"><ele>225.0</ele><time>2026-04-11T13:07:30.996Z</time></trkpt><trkpt lat="40.89585481194221" lon="8.746108347637023"><ele>225.0</ele><time>2026-04-11T13:07:31.996Z</time></trkpt><trkpt lat="40.89578013635576" lon="8.746139458336591"><ele>225.0</ele><time>2026-04-11T13:07:32.996Z</time></trkpt><trkpt lat="40.89571371757865" lon="8.746167129077529"><ele>225.0</ele><time>2026-04-11T13:07:33.996Z</time></trkpt><trkpt lat="40.89564899094866" lon="8.746190362578867"><ele>225.0</ele><time>2026-04-11T13:07:34.996Z</time></trkpt><trkpt lat="40.89556726228575" lon="8.746216210440279"><ele>225.0</ele><time>2026-04-11T13:07:36.996Z</time></trkpt><trkpt lat="40.89557486273548" lon="8.746125274138384"><ele>225.0</ele><time>2026-04-11T13:07:40.996Z</time></trkpt><trkpt lat="40.89563378519173" lon="8.746036536983908"><ele>225.0</ele><time>2026-04-11T13:07:41.996Z</time></trkpt><trkpt lat="40.89569327495485" lon="8.745943080509186"><ele>225.0</ele><time>2026-04-11T13:07:42.996Z</time></trkpt><trkpt lat="40.89574820990261" lon="8.745837923401734"><ele>225.0</ele><time>2026-04-11T13:07:43.996Z</time></trkpt><trkpt lat="40.89580087539177" lon="8.74573366284994"><ele>225.0</ele><time>2026-04-11T13:07:44.996Z</time></trkpt><trkpt lat="40.895860381264924" lon="8.745642013517022"><ele>225.0</ele><time>2026-04-11T13:07:45.996Z</time></trkpt><trkpt lat="40.8958936488686" lon="8.745564619132296"><ele>225.0</ele><time>2026-04-11T13:07:46.996Z</time></trkpt><trkpt lat="40.8959398020265" lon="8.745473270542051"><ele>225.0</ele><time>2026-04-11T13:07:47.996Z</time></trkpt><trkpt lat="40.89600598205536" lon="8.74535466585456"><ele>225.0</ele><time>2026-04-11T13:07:48.996Z</time></trkpt><trkpt lat="40.89608854882876" lon="8.745245235388248"><ele>225.0</ele><time>2026-04-11T13:07:49.996Z</time></trkpt><trkpt lat="40.89621249666546" lon="8.745119454998994"><ele>220.0</ele><time>2026-04-11T13:07:50.996Z</time></trkpt><trkpt lat="40.89632241133903" lon="8.744983426553414"><ele>215.0</ele><time>2026-04-11T13:07:51.996Z</time></trkpt><trkpt lat="40.89641303925269" lon="8.7448726254445"><ele>210.0</ele><time>2026-04-11T13:07:52.996Z</time></trkpt><trkpt lat="40.89650804963901" lon="8.744764601397414"><ele>205.0</ele><time>2026-04-11T13:07:53.996Z</time></trkpt><trkpt lat="40.89660211765406" lon="8.744661047705295"><ele>205.0</ele><time>2026-04-11T13:07:54.996Z</time></trkpt><trkpt lat="40.89668544930598" lon="8.744566005088434"><ele>205.0</ele><time>2026-04-11T13:07:55.996Z</time></trkpt><trkpt lat="40.896766074148594" lon="8.74447168433899"><ele>205.0</ele><time>2026-04-11T13:07:56.996Z</time></trkpt><trkpt lat="40.896838892689395" lon="8.744384131523514"><ele>205.0</ele><time>2026-04-11T13:07:57.996Z</time></trkpt><trkpt lat="40.896936827288194" lon="8.744264494716388"><ele>205.0</ele><time>2026-04-11T13:07:58.996Z</time></trkpt><trkpt lat="40.89701469057155" lon="8.744166225486358"><ele>203.25</ele><time>2026-04-11T13:07:59.996Z</time></trkpt><trkpt lat="40.89709941478819" lon="8.744063971874995"><ele>201.5</ele><time>2026-04-11T13:08:00.996Z</time></trkpt><trkpt lat="40.89718931271132" lon="8.743959793221004"><ele>199.75</ele><time>2026-04-11T13:08:01.996Z</time></trkpt><trkpt lat="40.89727318045916" lon="8.743852714103244"><ele>198.0</ele><time>2026-04-11T13:08:02.996Z</time></trkpt><trkpt lat="40.897351104928674" lon="8.743755697567106"><ele>198.0</ele><time>2026-04-11T13:08:03.996Z</time></trkpt><trkpt lat="40.89741543201347" lon="8.743662838843049"><ele>198.0</ele><time>2026-04-11T13:08:04.996Z</time></trkpt><trkpt lat="40.897498407510156" lon="8.74357564713059"><ele>198.0</ele><time>2026-04-11T13:08:05.996Z</time></trkpt><trkpt lat="40.897581177615294" lon="8.74347378507274"><ele>198.0</ele><time>2026-04-11T13:08:06.996Z</time></trkpt><trkpt lat="40.897659229675455" lon="8.74337465273098"><ele>198.0</ele><time>2026-04-11T13:08:07.996Z</time></trkpt><trkpt lat="40.8977236264653" lon="8.743284732486007"><ele>197.0</ele><time>2026-04-11T13:08:08.996Z</time></trkpt><trkpt lat="40.89778387976661" lon="8.74320026989684"><ele>196.0</ele><time>2026-04-11T13:08:09.996Z</time></trkpt><trkpt lat="40.89784105784933" lon="8.743126740272087"><ele>195.0</ele><time>2026-04-11T13:08:10.996Z</time></trkpt><trkpt lat="40.89793287532924" lon="8.743037794016674"><ele>194.0</ele><time>2026-04-11T13:08:12.996Z</time></trkpt><trkpt lat="40.89799572132575" lon="8.74296910512386"><ele>193.0</ele><time>2026-04-11T13:08:16.996Z</time></trkpt><trkpt lat="40.89805315832175" lon="8.742901116931112"><ele>192.0</ele><time>2026-04-11T13:08:18.996Z</time></trkpt><trkpt lat="40.898082242615025" lon="8.742820280618405"><ele>192.0</ele><time>2026-04-11T13:08:19.996Z</time></trkpt><trkpt lat="40.89818357014338" lon="8.742740292270664"><ele>192.0</ele><time>2026-04-11T13:08:21.996Z</time></trkpt><trkpt lat="40.89827997379192" lon="8.742675205599593"><ele>192.0</ele><time>2026-04-11T13:08:22.996Z</time></trkpt><trkpt lat="40.898393162854596" lon="8.742599000199872"><ele>192.0</ele><time>2026-04-11T13:08:23.996Z</time></trkpt><trkpt lat="40.89850751876627" lon="8.742524463351288"><ele>189.0</ele><time>2026-04-11T13:08:24.996Z</time></trkpt><trkpt lat="40.89863949914523" lon="8.74244778471798"><ele>186.0</ele><time>2026-04-11T13:08:25.996Z</time></trkpt><trkpt lat="40.898778347870184" lon="8.742369058658719"><ele>183.0</ele><time>2026-04-11T13:08:26.996Z</time></trkpt><trkpt lat="40.89892191170605" lon="8.742293496709088"><ele>183.0</ele><time>2026-04-11T13:08:27.996Z</time></trkpt><trkpt lat="40.89906936575372" lon="8.74222239932999"><ele>183.0</ele><time>2026-04-11T13:08:28.996Z</time></trkpt><trkpt lat="40.899251824114145" lon="8.742144317320374"><ele>183.0</ele><time>2026-04-11T13:08:29.996Z</time></trkpt><trkpt lat="40.89943641168608" lon="8.742091463500902"><ele>181.33333333333334</ele><time>2026-04-11T13:08:30.996Z</time></trkpt><trkpt lat="40.899599967729294" lon="8.742034359627189"><ele>179.66666666666669</ele><time>2026-04-11T13:08:31.996Z</time></trkpt><trkpt lat="40.89975858118354" lon="8.741964523506057"><ele>178.0</ele><time>2026-04-11T13:08:32.996Z</time></trkpt><trkpt lat="40.89990142437941" lon="8.741873812987885"><ele>178.0</ele><time>2026-04-11T13:08:33.996Z</time></trkpt><trkpt lat="40.90003339943439" lon="8.741807647326194"><ele>178.0</ele><time>2026-04-11T13:08:34.996Z</time></trkpt><trkpt lat="40.900162370998736" lon="8.741721330975219"><ele>178.0</ele><time>2026-04-11T13:08:35.996Z</time></trkpt><trkpt lat="40.900300081352654" lon="8.7416611783646"><ele>178.0</ele><time>2026-04-11T13:08:36.995Z</time></trkpt><trkpt lat="40.9004245824336" lon="8.741622870104573"><ele>177.60000000000002</ele><time>2026-04-11T13:08:37.995Z</time></trkpt><trkpt lat="40.9005189842092" lon="8.741592916798233"><ele>177.20000000000002</ele><time>2026-04-11T13:08:38.995Z</time></trkpt><trkpt lat="40.90060687886" lon="8.74154706842002"><ele>176.8</ele><time>2026-04-11T13:08:39.995Z</time></trkpt><trkpt lat="40.90069234583699" lon="8.741450790248086"><ele>176.4</ele><time>2026-04-11T13:08:40.999Z</time></trkpt><trkpt lat="40.90077641608359" lon="8.741326704893078"><ele>176.0</ele><time>2026-04-11T13:08:41.999Z</time></trkpt><trkpt lat="40.90081331253309" lon="8.741146616596541"><ele>175.0</ele><time>2026-04-11T13:08:42.999Z</time></trkpt><trkpt lat="40.900849316547706" lon="8.740966043220887"><ele>174.0</ele><time>2026-04-11T13:08:43.999Z</time></trkpt><trkpt lat="40.90093521344284" lon="8.740842930892269"><ele>173.0</ele><time>2026-04-11T13:08:44.999Z</time></trkpt><trkpt lat="40.90104236858596" lon="8.740719189384844"><ele>172.0</ele><time>2026-04-11T13:08:45.999Z</time></trkpt><trkpt lat="40.901171658258846" lon="8.74058865693676"><ele>168.66666666666669</ele><time>2026-04-11T13:08:47Z</time></trkpt><trkpt lat="40.90131148848818" lon="8.740461622929718"><ele>165.33333333333334</ele><time>2026-04-11T13:08:48Z</time></trkpt><trkpt lat="40.90146023245733" lon="8.740337402169185"><ele>162.0</ele><time>2026-04-11T13:08:49Z</time></trkpt><trkpt lat="40.90158303703568" lon="8.740202727704656"><ele>162.0</ele><time>2026-04-11T13:08:50Z</time></trkpt><trkpt lat="40.90167191485422" lon="8.74001387095668"><ele>162.0</ele><time>2026-04-11T13:08:51Z</time></trkpt><trkpt lat="40.9017659789393" lon="8.739847242952031"><ele>162.0</ele><time>2026-04-11T13:08:52Z</time></trkpt><trkpt lat="40.90186638938344" lon="8.739751966050791"><ele>162.0</ele><time>2026-04-11T13:08:53Z</time></trkpt><trkpt lat="40.90196700818246" lon="8.73963664357387"><ele>161.0</ele><time>2026-04-11T13:08:54Z</time></trkpt><trkpt lat="40.902061424359204" lon="8.73949216283326"><ele>160.0</ele><time>2026-04-11T13:08:55Z</time></trkpt><trkpt lat="40.902118457271776" lon="8.739347460577427"><ele>159.0</ele><time>2026-04-11T13:08:56Z</time></trkpt><trkpt lat="40.902171876802605" lon="8.739190708314732"><ele>158.0</ele><time>2026-04-11T13:08:57Z</time></trkpt><trkpt lat="40.902217662248205" lon="8.73908197381503"><ele>158.0</ele><time>2026-04-11T13:08:58Z</time></trkpt><trkpt lat="40.902269337942194" lon="8.738985208899784"><ele>158.0</ele><time>2026-04-11T13:08:59Z</time></trkpt><trkpt lat="40.90234998673064" lon="8.738960340570358"><ele>158.0</ele><time>2026-04-11T13:09:00Z</time></trkpt><trkpt lat="40.902476025082855" lon="8.73895723302938"><ele>158.0</ele><time>2026-04-11T13:09:01Z</time></trkpt><trkpt lat="40.90261006108482" lon="8.739035576759854"><ele>158.0</ele><time>2026-04-11T13:09:02Z</time></trkpt><trkpt lat="40.9027427069084" lon="8.739138904878102"><ele>157.0</ele><time>2026-04-11T13:09:03Z</time></trkpt><trkpt lat="40.90286268249457" lon="8.739194208186753"><ele>156.0</ele><time>2026-04-11T13:09:04Z</time></trkpt><trkpt lat="40.90300206708001" lon="8.739206881484204"><ele>155.0</ele><time>2026-04-11T13:09:05Z</time></trkpt><trkpt lat="40.90315078521866" lon="8.73920068814386"><ele>154.0</ele><time>2026-04-11T13:09:06Z</time></trkpt><trkpt lat="40.903312031828115" lon="8.73915901564542"><ele>151.0</ele><time>2026-04-11T13:09:07Z</time></trkpt><trkpt lat="40.903478001083215" lon="8.7391059170771"><ele>148.0</ele><time>2026-04-11T13:09:08Z</time></trkpt><trkpt lat="40.903659984316434" lon="8.73903963358146"><ele>145.0</ele><time>2026-04-11T13:09:09Z</time></trkpt><trkpt lat="40.90387188796656" lon="8.739035600948789"><ele>145.0</ele><time>2026-04-11T13:09:10Z</time></trkpt><trkpt lat="40.90406852867935" lon="8.739023092877071"><ele>145.0</ele><time>2026-04-11T13:09:11Z</time></trkpt><trkpt lat="40.90426423131575" lon="8.73901824197324"><ele>145.0</ele><time>2026-04-11T13:09:12Z</time></trkpt><trkpt lat="40.90446450547353" lon="8.739003593443869"><ele>143.0</ele><time>2026-04-11T13:09:13Z</time></trkpt><trkpt lat="40.904659555969644" lon="8.738983435244048"><ele>141.0</ele><time>2026-04-11T13:09:14Z</time></trkpt><trkpt lat="40.90485430356928" lon="8.738962374732221"><ele>139.0</ele><time>2026-04-11T13:09:15Z</time></trkpt><trkpt lat="40.905036445101395" lon="8.738969483353307"><ele>136.66666666666669</ele><time>2026-04-11T13:09:16Z</time></trkpt><trkpt lat="40.90522204000805" lon="8.738927838190499"><ele>134.33333333333334</ele><time>2026-04-11T13:09:17Z</time></trkpt><trkpt lat="40.90540421228269" lon="8.738895192124705"><ele>132.0</ele><time>2026-04-11T13:09:18Z</time></trkpt><trkpt lat="40.90557066822416" lon="8.738848545249434"><ele>132.0</ele><time>2026-04-11T13:09:19Z</time></trkpt><trkpt lat="40.905750215890556" lon="8.738795054117347"><ele>132.0</ele><time>2026-04-11T13:09:20Z</time></trkpt><trkpt lat="40.90591246354579" lon="8.738738878644998"><ele>132.0</ele><time>2026-04-11T13:09:21Z</time></trkpt><trkpt lat="40.906065253557834" lon="8.738716908893348"><ele>135.66666666666666</ele><time>2026-04-11T13:09:22Z</time></trkpt><trkpt lat="40.90622948443074" lon="8.738658654565855"><ele>139.33333333333331</ele><time>2026-04-11T13:09:23Z</time></trkpt><trkpt lat="40.90638660955554" lon="8.738545106281757"><ele>143.0</ele><time>2026-04-11T13:09:24Z</time></trkpt><trkpt lat="40.90652716059139" lon="8.738403345158973"><ele>143.0</ele><time>2026-04-11T13:09:25Z</time></trkpt><trkpt lat="40.906681313308034" lon="8.738325790095203"><ele>143.0</ele><time>2026-04-11T13:09:26Z</time></trkpt><trkpt lat="40.90683695264703" lon="8.738267953874349"><ele>143.0</ele><time>2026-04-11T13:09:27Z</time></trkpt><trkpt lat="40.90697308820435" lon="8.738243106865786"><ele>139.0</ele><time>2026-04-11T13:09:28Z</time></trkpt><trkpt lat="40.9070966886437" lon="8.738240875646815"><ele>135.0</ele><time>2026-04-11T13:09:29Z</time></trkpt><trkpt lat="40.90722011373757" lon="8.738198425396442"><ele>131.0</ele><time>2026-04-11T13:09:30Z</time></trkpt><trkpt lat="40.90733993760368" lon="8.738094613488181"><ele>127.0</ele><time>2026-04-11T13:09:31Z</time></trkpt><trkpt lat="40.90744271502233" lon="8.737951707743177"><ele>127.0</ele><time>2026-04-11T13:09:32Z</time></trkpt><trkpt lat="40.90757089923307" lon="8.737838472853047"><ele>127.0</ele><time>2026-04-11T13:09:33Z</time></trkpt><trkpt lat="40.907714707255664" lon="8.737785194758446"><ele>127.0</ele><time>2026-04-11T13:09:34Z</time></trkpt><trkpt lat="40.90787077960707" lon="8.737784806141237"><ele>123.0</ele><time>2026-04-11T13:09:35Z</time></trkpt><trkpt lat="40.90803850372718" lon="8.737791916638042"><ele>119.0</ele><time>2026-04-11T13:09:36Z</time></trkpt><trkpt lat="40.9082146420252" lon="8.737825371146785"><ele>115.0</ele><time>2026-04-11T13:09:37Z</time></trkpt><trkpt lat="40.90837881805274" lon="8.73784011384204"><ele>112.33333333333334</ele><time>2026-04-11T13:09:38Z</time></trkpt><trkpt lat="40.908540992734224" lon="8.73782183467996"><ele>109.66666666666666</ele><time>2026-04-11T13:09:39Z</time></trkpt><trkpt lat="40.90870196925018" lon="8.737820017247177"><ele>107.0</ele><time>2026-04-11T13:09:40Z</time></trkpt><trkpt lat="40.90887445462335" lon="8.737803759238519"><ele>107.0</ele><time>2026-04-11T13:09:41Z</time></trkpt><trkpt lat="40.90902702690608" lon="8.737774454022961"><ele>107.0</ele><time>2026-04-11T13:09:42Z</time></trkpt><trkpt lat="40.90918988073866" lon="8.737746169268902"><ele>107.0</ele><time>2026-04-11T13:09:43Z</time></trkpt><trkpt lat="40.90933343925068" lon="8.737673717954802"><ele>109.75</ele><time>2026-04-11T13:09:44Z</time></trkpt><trkpt lat="40.90947172347416" lon="8.737614163572903"><ele>112.5</ele><time>2026-04-11T13:09:45Z</time></trkpt><trkpt lat="40.90962758147903" lon="8.737554803357003"><ele>115.25</ele><time>2026-04-11T13:09:46Z</time></trkpt><trkpt lat="40.90976253010549" lon="8.73750608622702"><ele>118.0</ele><time>2026-04-11T13:09:47Z</time></trkpt><trkpt lat="40.90989843936964" lon="8.73741788500335"><ele>118.0</ele><time>2026-04-11T13:09:48Z</time></trkpt><trkpt lat="40.9100062612048" lon="8.737303208070573"><ele>118.0</ele><time>2026-04-11T13:09:49Z</time></trkpt><trkpt lat="40.91011868451339" lon="8.737112718753396"><ele>118.0</ele><time>2026-04-11T13:09:50Z</time></trkpt><trkpt lat="40.910252227988124" lon="8.736951410204766"><ele>113.33333333333334</ele><time>2026-04-11T13:09:51Z</time></trkpt><trkpt lat="40.91039551359956" lon="8.7367540215694"><ele>108.66666666666666</ele><time>2026-04-11T13:09:51.999Z</time></trkpt><trkpt lat="40.91050948009588" lon="8.736554250313707"><ele>104.0</ele><time>2026-04-11T13:09:52.999Z</time></trkpt><trkpt lat="40.910608432351786" lon="8.736352047853902"><ele>104.0</ele><time>2026-04-11T13:09:53.999Z</time></trkpt><trkpt lat="40.910699199106965" lon="8.736162995458884"><ele>104.0</ele><time>2026-04-11T13:09:54.999Z</time></trkpt><trkpt lat="40.91080587126203" lon="8.735977212244238"><ele>104.0</ele><time>2026-04-11T13:09:55.999Z</time></trkpt><trkpt lat="40.91091436138669" lon="8.735825000755806"><ele>101.66666666666666</ele><time>2026-04-11T13:09:56.999Z</time></trkpt><trkpt lat="40.91102943722372" lon="8.735684534507426"><ele>99.33333333333334</ele><time>2026-04-11T13:09:57.999Z</time></trkpt><trkpt lat="40.91113248883638" lon="8.735530661933216"><ele>97.0</ele><time>2026-04-11T13:09:58.999Z</time></trkpt><trkpt lat="40.91121340985033" lon="8.735374996952128"><ele>97.0</ele><time>2026-04-11T13:09:59.999Z</time></trkpt><trkpt lat="40.91128980696973" lon="8.735233694142039"><ele>97.0</ele><time>2026-04-11T13:10:00.999Z</time></trkpt><trkpt lat="40.91135853121327" lon="8.735084778900578"><ele>97.0</ele><time>2026-04-11T13:10:01.999Z</time></trkpt><trkpt lat="40.91139962335992" lon="8.734937824675635"><ele>97.0</ele><time>2026-04-11T13:10:02.999Z</time></trkpt><trkpt lat="40.91144700460564" lon="8.734814348575803"><ele>100.5</ele><time>2026-04-11T13:10:03.999Z</time></trkpt><trkpt lat="40.911444463998784" lon="8.734678143551292"><ele>104.0</ele><time>2026-04-11T13:10:04.999Z</time></trkpt><trkpt lat="40.91140087868915" lon="8.734513733527773"><ele>107.5</ele><time>2026-04-11T13:10:05.999Z</time></trkpt><trkpt lat="40.91134469003939" lon="8.734355212067456"><ele>111.0</ele><time>2026-04-11T13:10:06.999Z</time></trkpt><trkpt lat="40.911256954378956" lon="8.734208952134"><ele>111.0</ele><time>2026-04-11T13:10:07.999Z</time></trkpt><trkpt lat="40.911173624846754" lon="8.734054586426145"><ele>111.0</ele><time>2026-04-11T13:10:08.999Z</time></trkpt><trkpt lat="40.91109684985552" lon="8.733896028305045"><ele>111.0</ele><time>2026-04-11T13:10:09.999Z</time></trkpt><trkpt lat="40.91099093440954" lon="8.733777821315444"><ele>111.0</ele><time>2026-04-11T13:10:10.999Z</time></trkpt><trkpt lat="40.910869001976586" lon="8.733703491938664"><ele>110.25</ele><time>2026-04-11T13:10:11.999Z</time></trkpt><trkpt lat="40.910746966923085" lon="8.733645163439023"><ele>109.5</ele><time>2026-04-11T13:10:12.999Z</time></trkpt><trkpt lat="40.91065284194015" lon="8.733584326271375"><ele>108.75</ele><time>2026-04-11T13:10:13.999Z</time></trkpt><trkpt lat="40.910600786390795" lon="8.733510921756565"><ele>108.0</ele><time>2026-04-11T13:10:14.999Z</time></trkpt><trkpt lat="40.91047772462722" lon="8.733371069301969"><ele>106.0</ele><time>2026-04-11T13:10:15.999Z</time></trkpt><trkpt lat="40.91042412255392" lon="8.733158825315574"><ele>104.0</ele><time>2026-04-11T13:10:16.999Z</time></trkpt><trkpt lat="40.91037195466117" lon="8.73292238370441"><ele>102.0</ele><time>2026-04-11T13:10:17.999Z</time></trkpt><trkpt lat="40.910303906111075" lon="8.73269825413038"><ele>100.66666666666666</ele><time>2026-04-11T13:10:18.999Z</time></trkpt><trkpt lat="40.9102506713995" lon="8.732469009145165"><ele>99.33333333333333</ele><time>2026-04-11T13:10:19.999Z</time></trkpt><trkpt lat="40.910200836505204" lon="8.73221953001473"><ele>98.0</ele><time>2026-04-11T13:10:20.999Z</time></trkpt><trkpt lat="40.91011184751171" lon="8.73202066348867"><ele>99.25</ele><time>2026-04-11T13:10:21.999Z</time></trkpt><trkpt lat="40.910168556184566" lon="8.731812314728904"><ele>100.5</ele><time>2026-04-11T13:10:22.999Z</time></trkpt><trkpt lat="40.91008050251998" lon="8.731642818756862"><ele>101.75</ele><time>2026-04-11T13:10:23.999Z</time></trkpt><trkpt lat="40.91001159730617" lon="8.731551931050333"><ele>103.0</ele><time>2026-04-11T13:10:24.999Z</time></trkpt><trkpt lat="40.90995736608309" lon="8.731445692469524"><ele>103.0</ele><time>2026-04-11T13:10:25.999Z</time></trkpt><trkpt lat="40.90992005914969" lon="8.731309607147386"><ele>103.0</ele><time>2026-04-11T13:10:26.999Z</time></trkpt><trkpt lat="40.90991262847521" lon="8.731164008076975"><ele>103.0</ele><time>2026-04-11T13:10:27.999Z</time></trkpt><trkpt lat="40.909948233749795" lon="8.73103422701598"><ele>103.0</ele><time>2026-04-11T13:10:28.999Z</time></trkpt><trkpt lat="40.91002226314327" lon="8.730895733820134"><ele>96.25</ele><time>2026-04-11T13:10:29.999Z</time></trkpt><trkpt lat="40.91013410986899" lon="8.730766354564858"><ele>89.5</ele><time>2026-04-11T13:10:30.999Z</time></trkpt><trkpt lat="40.91019548266655" lon="8.730599740401878"><ele>82.75</ele><time>2026-04-11T13:10:31.999Z</time></trkpt><trkpt lat="40.9102544694633" lon="8.730410644265932"><ele>76.0</ele><time>2026-04-11T13:10:32.999Z</time></trkpt><trkpt lat="40.910321466439335" lon="8.730234028620039"><ele>77.5</ele><time>2026-04-11T13:10:33.999Z</time></trkpt><trkpt lat="40.91040662196496" lon="8.730093319512633"><ele>79.0</ele><time>2026-04-11T13:10:34.999Z</time></trkpt><trkpt lat="40.91053558787159" lon="8.730017005033007"><ele>80.5</ele><time>2026-04-11T13:10:35.999Z</time></trkpt><trkpt lat="40.91067322466582" lon="8.729940652702767"><ele>82.0</ele><time>2026-04-11T13:10:36.999Z</time></trkpt><trkpt lat="40.910802283607595" lon="8.729823715336947"><ele>77.0</ele><time>2026-04-11T13:10:37.999Z</time></trkpt><trkpt lat="40.91091277621015" lon="8.729693396080728"><ele>72.0</ele><time>2026-04-11T13:10:38.999Z</time></trkpt><trkpt lat="40.91101609936474" lon="8.729563100548342"><ele>67.0</ele><time>2026-04-11T13:10:39.999Z</time></trkpt><trkpt lat="40.91110203907258" lon="8.729429103607398"><ele>62.0</ele><time>2026-04-11T13:10:40.999Z</time></trkpt><trkpt lat="40.911175007011245" lon="8.729291187192064"><ele>62.0</ele><time>2026-04-11T13:10:41.999Z</time></trkpt><trkpt lat="40.91122223129413" lon="8.7291601428092"><ele>62.0</ele><time>2026-04-11T13:10:42.999Z</time></trkpt><trkpt lat="40.9112637221858" lon="8.729015609269599"><ele>62.0</ele><time>2026-04-11T13:10:43.999Z</time></trkpt><trkpt lat="40.911286330260594" lon="8.728857736405832"><ele>62.0</ele><time>2026-04-11T13:10:44.999Z</time></trkpt><trkpt lat="40.91127858644367" lon="8.728654363209941"><ele>62.0</ele><time>2026-04-11T13:10:45.999Z</time></trkpt><trkpt lat="40.91123492791987" lon="8.728454611889735"><ele>62.0</ele><time>2026-04-11T13:10:46.999Z</time></trkpt><trkpt lat="40.911153430754254" lon="8.728257931938932"><ele>62.0</ele><time>2026-04-11T13:10:47.999Z</time></trkpt><trkpt lat="40.91108300816347" lon="8.728041546400672"><ele>62.0</ele><time>2026-04-11T13:10:48.999Z</time></trkpt><trkpt lat="40.91101558286122" lon="8.72786798349496"><ele>62.0</ele><time>2026-04-11T13:10:49.999Z</time></trkpt><trkpt lat="40.91094912785034" lon="8.727725526421937"><ele>62.0</ele><time>2026-04-11T13:10:50.999Z</time></trkpt><trkpt lat="40.91090913352504" lon="8.727570847117017"><ele>62.0</ele><time>2026-04-11T13:10:51.999Z</time></trkpt><trkpt lat="40.910867783518164" lon="8.727422945990297"><ele>61.75</ele><time>2026-04-11T13:10:52.999Z</time></trkpt><trkpt lat="40.91080780070499" lon="8.727268374960818"><ele>61.5</ele><time>2026-04-11T13:10:53.999Z</time></trkpt><trkpt lat="40.91083460675113" lon="8.727108878553956"><ele>61.25</ele><time>2026-04-11T13:10:54.999Z</time></trkpt><trkpt lat="40.910909388576144" lon="8.72695414919454"><ele>61.0</ele><time>2026-04-11T13:10:55.999Z</time></trkpt><trkpt lat="40.910977005794976" lon="8.726795357658501"><ele>61.0</ele><time>2026-04-11T13:10:56.999Z</time></trkpt><trkpt lat="40.91107325166347" lon="8.726669803721297"><ele>61.0</ele><time>2026-04-11T13:10:57.999Z</time></trkpt><trkpt lat="40.911179461248885" lon="8.72656184704998"><ele>61.0</ele><time>2026-04-11T13:10:58.999Z</time></trkpt><trkpt lat="40.91130029749839" lon="8.726464872889956"><ele>61.0</ele><time>2026-04-11T13:10:59.999Z</time></trkpt><trkpt lat="40.91140332607503" lon="8.72636896089882"><ele>61.0</ele><time>2026-04-11T13:11:00.999Z</time></trkpt><trkpt lat="40.911480639618226" lon="8.72624245906452"><ele>61.0</ele><time>2026-04-11T13:11:01.999Z</time></trkpt><trkpt lat="40.91156056131629" lon="8.726081966425802"><ele>61.0</ele><time>2026-04-11T13:11:02.999Z</time></trkpt><trkpt lat="40.91157557692365" lon="8.725905042957027"><ele>61.0</ele><time>2026-04-11T13:11:03.999Z</time></trkpt><trkpt lat="40.911571426090354" lon="8.725706734964831"><ele>61.0</ele><time>2026-04-11T13:11:04.999Z</time></trkpt><trkpt lat="40.91154670768343" lon="8.72550236985074"><ele>61.0</ele><time>2026-04-11T13:11:05.999Z</time></trkpt><trkpt lat="40.91152238352362" lon="8.725291210022673"><ele>61.0</ele><time>2026-04-11T13:11:06.999Z</time></trkpt><trkpt lat="40.91152121766961" lon="8.72506095748611"><ele>61.0</ele><time>2026-04-11T13:11:07.999Z</time></trkpt><trkpt lat="40.91149989563115" lon="8.724863178172042"><ele>61.0</ele><time>2026-04-11T13:11:08.999Z</time></trkpt><trkpt lat="40.91147844762164" lon="8.724664573677073"><ele>61.0</ele><time>2026-04-11T13:11:09.999Z</time></trkpt><trkpt lat="40.91145239793331" lon="8.724490366867823"><ele>61.0</ele><time>2026-04-11T13:11:10.999Z</time></trkpt><trkpt lat="40.91142070466591" lon="8.724351251593509"><ele>59.0</ele><time>2026-04-11T13:11:11.999Z</time></trkpt><trkpt lat="40.911355400989585" lon="8.724230113157931"><ele>57.0</ele><time>2026-04-11T13:11:12.999Z</time></trkpt><trkpt lat="40.91126600658692" lon="8.724131832343362"><ele>55.0</ele><time>2026-04-11T13:11:13.999Z</time></trkpt><trkpt lat="40.91115964956626" lon="8.724047928797455"><ele>53.0</ele><time>2026-04-11T13:11:14.999Z</time></trkpt><trkpt lat="40.91107408448437" lon="8.723958929259046"><ele>53.0</ele><time>2026-04-11T13:11:15.999Z</time></trkpt><trkpt lat="40.911001871943185" lon="8.723839488338156"><ele>53.0</ele><time>2026-04-11T13:11:16.999Z</time></trkpt><trkpt lat="40.9109962119972" lon="8.723732468956001"><ele>53.0</ele><time>2026-04-11T13:11:17.999Z</time></trkpt><trkpt lat="40.91100059178129" lon="8.723603999493866"><ele>53.0</ele><time>2026-04-11T13:11:18.999Z</time></trkpt><trkpt lat="40.91102751289904" lon="8.723451892197316"><ele>53.0</ele><time>2026-04-11T13:11:19.999Z</time></trkpt><trkpt lat="40.91106622345511" lon="8.723276169178794"><ele>52.333333333333336</ele><time>2026-04-11T13:11:20.999Z</time></trkpt><trkpt lat="40.911111536442604" lon="8.723062875155156"><ele>51.66666666666667</ele><time>2026-04-11T13:11:21.999Z</time></trkpt><trkpt lat="40.91114613330201" lon="8.722875930329396"><ele>51.0</ele><time>2026-04-11T13:11:22.999Z</time></trkpt><trkpt lat="40.911168620476616" lon="8.722658551344482"><ele>51.0</ele><time>2026-04-11T13:11:23.999Z</time></trkpt><trkpt lat="40.91118706069241" lon="8.722440394966283"><ele>51.0</ele><time>2026-04-11T13:11:24.999Z</time></trkpt><trkpt lat="40.91120437795533" lon="8.72222675338701"><ele>51.0</ele><time>2026-04-11T13:11:25.999Z</time></trkpt><trkpt lat="40.911221125213906" lon="8.7220104658241"><ele>51.66666666666667</ele><time>2026-04-11T13:11:26.998Z</time></trkpt><trkpt lat="40.91123927079953" lon="8.721804197495103"><ele>52.333333333333336</ele><time>2026-04-11T13:11:27.998Z</time></trkpt><trkpt lat="40.91126038527877" lon="8.721579584243578"><ele>53.0</ele><time>2026-04-11T13:11:28.998Z</time></trkpt><trkpt lat="40.91127998005631" lon="8.721370715562815"><ele>53.0</ele><time>2026-04-11T13:11:29.998Z</time></trkpt><trkpt lat="40.91125761011102" lon="8.721147124688281"><ele>53.0</ele><time>2026-04-11T13:11:30.998Z</time></trkpt><trkpt lat="40.911271319877635" lon="8.72093354798658"><ele>53.0</ele><time>2026-04-11T13:11:31.998Z</time></trkpt><trkpt lat="40.91127155311702" lon="8.720737781164962"><ele>53.333333333333336</ele><time>2026-04-11T13:11:32.998Z</time></trkpt><trkpt lat="40.91129379665855" lon="8.72051408648305"><ele>53.66666666666667</ele><time>2026-04-11T13:11:33.998Z</time></trkpt><trkpt lat="40.911379745930226" lon="8.720318486663354"><ele>54.0</ele><time>2026-04-11T13:11:34.998Z</time></trkpt><trkpt lat="40.91139957836149" lon="8.720108541766205"><ele>54.0</ele><time>2026-04-11T13:11:35.998Z</time></trkpt><trkpt lat="40.91135289530785" lon="8.719892301659206"><ele>54.0</ele><time>2026-04-11T13:11:36.998Z</time></trkpt><trkpt lat="40.91139433345581" lon="8.719715714491967"><ele>54.0</ele><time>2026-04-11T13:11:37.998Z</time></trkpt><trkpt lat="40.91138829153947" lon="8.719555104452043"><ele>54.0</ele><time>2026-04-11T13:11:38.998Z</time></trkpt><trkpt lat="40.91138390619301" lon="8.71941939274001"><ele>54.0</ele><time>2026-04-11T13:11:39.998Z</time></trkpt><trkpt lat="40.91146455578321" lon="8.719300050835038"><ele>54.0</ele><time>2026-04-11T13:11:40.998Z</time></trkpt><trkpt lat="40.911468483217135" lon="8.719211703637303"><ele>54.0</ele><time>2026-04-11T13:11:41.998Z</time></trkpt><trkpt lat="40.91147319213219" lon="8.719105777109064"><ele>54.0</ele><time>2026-04-11T13:11:42.998Z</time></trkpt><trkpt lat="40.91154081747244" lon="8.7190327262392"><ele>54.0</ele><time>2026-04-11T13:11:44.998Z</time></trkpt><trkpt lat="40.911567691042535" lon="8.718936269021345"><ele>54.0</ele><time>2026-04-11T13:11:45.998Z</time></trkpt><trkpt lat="40.91155219524302" lon="8.718836847115885"><ele>54.0</ele><time>2026-04-11T13:11:46.998Z</time></trkpt><trkpt lat="40.911555065721316" lon="8.718717962784188"><ele>54.00000000000001</ele><time>2026-04-11T13:11:47.998Z</time></trkpt><trkpt lat="40.911543420122214" lon="8.71857585182246"><ele>54.00000000000001</ele><time>2026-04-11T13:11:48.998Z</time></trkpt><trkpt lat="40.91157505304709" lon="8.718455071420866"><ele>54.0</ele><time>2026-04-11T13:11:49.998Z</time></trkpt><trkpt lat="40.911599096995566" lon="8.718330120383374"><ele>54.0</ele><time>2026-04-11T13:11:50.998Z</time></trkpt><trkpt lat="40.91162670783678" lon="8.718193054073417"><ele>54.0</ele><time>2026-04-11T13:11:51.998Z</time></trkpt><trkpt lat="40.91164248445082" lon="8.718055458158231"><ele>54.00000000000001</ele><time>2026-04-11T13:11:52.998Z</time></trkpt><trkpt lat="40.911690376745504" lon="8.71793516700273"><ele>54.00000000000001</ele><time>2026-04-11T13:11:53.998Z</time></trkpt><trkpt lat="40.91172706018546" lon="8.717785399832492"><ele>54.0</ele><time>2026-04-11T13:11:54.998Z</time></trkpt><trkpt lat="40.91177366712168" lon="8.717685983366376"><ele>54.0</ele><time>2026-04-11T13:11:55.998Z</time></trkpt><trkpt lat="40.91182617916143" lon="8.717589849830832"><ele>50.0</ele><time>2026-04-11T13:11:56.998Z</time></trkpt><trkpt lat="40.911891522653406" lon="8.717483854262463"><ele>46.00000000000001</ele><time>2026-04-11T13:11:57.998Z</time></trkpt><trkpt lat="40.911957949241106" lon="8.7173883260122"><ele>42.0</ele><time>2026-04-11T13:11:58.998Z</time></trkpt><trkpt lat="40.912028982351785" lon="8.717291471614862"><ele>38.0</ele><time>2026-04-11T13:11:59.998Z</time></trkpt><trkpt lat="40.9121008192946" lon="8.717196390641918"><ele>34.0</ele><time>2026-04-11T13:12:00.998Z</time></trkpt><trkpt lat="40.912184962017605" lon="8.717082150721117"><ele>34.0</ele><time>2026-04-11T13:12:01.998Z</time></trkpt><trkpt lat="40.91226261385132" lon="8.716964077498163"><ele>34.0</ele><time>2026-04-11T13:12:02.998Z</time></trkpt><trkpt lat="40.912333757664946" lon="8.716827856218435"><ele>34.0</ele><time>2026-04-11T13:12:03.998Z</time></trkpt><trkpt lat="40.91239751552527" lon="8.716681225764145"><ele>34.0</ele><time>2026-04-11T13:12:04.998Z</time></trkpt><trkpt lat="40.912466800237304" lon="8.71650199102328"><ele>32.0</ele><time>2026-04-11T13:12:05.998Z</time></trkpt><trkpt lat="40.912521075905914" lon="8.716348550453716"><ele>30.0</ele><time>2026-04-11T13:12:06.998Z</time></trkpt><trkpt lat="40.91257488569677" lon="8.716193025366614"><ele>28.0</ele><time>2026-04-11T13:12:07.998Z</time></trkpt><trkpt lat="40.91262076228588" lon="8.716047489529233"><ele>26.0</ele><time>2026-04-11T13:12:08.998Z</time></trkpt><trkpt lat="40.912649215733765" lon="8.715869079129668"><ele>26.0</ele><time>2026-04-11T13:12:09.998Z</time></trkpt><trkpt lat="40.912649387117106" lon="8.7157276408567"><ele>26.0</ele><time>2026-04-11T13:12:10.998Z</time></trkpt><trkpt lat="40.91263543115756" lon="8.715574812503732"><ele>26.0</ele><time>2026-04-11T13:12:11.998Z</time></trkpt><trkpt lat="40.91263129688344" lon="8.71542469072945"><ele>26.0</ele><time>2026-04-11T13:12:12.998Z</time></trkpt><trkpt lat="40.91264154279486" lon="8.715270022261956"><ele>26.75</ele><time>2026-04-11T13:12:13.998Z</time></trkpt><trkpt lat="40.91262835309942" lon="8.715105820969299"><ele>27.5</ele><time>2026-04-11T13:12:14.998Z</time></trkpt><trkpt lat="40.912647294101596" lon="8.714962900021563"><ele>28.25</ele><time>2026-04-11T13:12:15.998Z</time></trkpt><trkpt lat="40.912630138132975" lon="8.714792103044868"><ele>29.0</ele><time>2026-04-11T13:12:16.998Z</time></trkpt><trkpt lat="40.91264263820739" lon="8.714625832710198"><ele>29.0</ele><time>2026-04-11T13:12:17.998Z</time></trkpt><trkpt lat="40.912650791040036" lon="8.71447657091784"><ele>29.0</ele><time>2026-04-11T13:12:18.998Z</time></trkpt><trkpt lat="40.912663714884474" lon="8.714322120896743"><ele>29.0</ele><time>2026-04-11T13:12:19.998Z</time></trkpt><trkpt lat="40.91268046722931" lon="8.714175909632988"><ele>29.0</ele><time>2026-04-11T13:12:20.998Z</time></trkpt><trkpt lat="40.91269284451402" lon="8.714077066766308"><ele>29.0</ele><time>2026-04-11T13:12:21.998Z</time></trkpt><trkpt lat="40.912710729266784" lon="8.7139427152495"><ele>30.2</ele><time>2026-04-11T13:12:22.998Z</time></trkpt><trkpt lat="40.912725305588864" lon="8.71383321689351"><ele>31.4</ele><time>2026-04-11T13:12:23.998Z</time></trkpt><trkpt lat="40.912740365310306" lon="8.71372008721316"><ele>32.6</ele><time>2026-04-11T13:12:24.998Z</time></trkpt><trkpt lat="40.912757438373156" lon="8.713596348374944"><ele>33.8</ele><time>2026-04-11T13:12:25.998Z</time></trkpt><trkpt lat="40.91277664744386" lon="8.713466714315942"><ele>35.0</ele><time>2026-04-11T13:12:26.998Z</time></trkpt><trkpt lat="40.912796564166875" lon="8.713350820887898"><ele>36.5</ele><time>2026-04-11T13:12:27.998Z</time></trkpt><trkpt lat="40.91282091251003" lon="8.713251251732595"><ele>38.0</ele><time>2026-04-11T13:12:28.998Z</time></trkpt><trkpt lat="40.912851540569974" lon="8.713155437810821"><ele>39.5</ele><time>2026-04-11T13:12:29.998Z</time></trkpt><trkpt lat="40.912887098588655" lon="8.713082343366317"><ele>41.0</ele><time>2026-04-11T13:12:31.998Z</time></trkpt><trkpt lat="40.91293198648063" lon="8.713013443905867"><ele>42.5</ele><time>2026-04-11T13:12:33.998Z</time></trkpt><trkpt lat="40.91302595995215" lon="8.712918087963267"><ele>44.0</ele><time>2026-04-11T13:12:35.998Z</time></trkpt><trkpt lat="40.9130836354066" lon="8.712858434982564"><ele>44.0</ele><time>2026-04-11T13:12:36.998Z</time></trkpt><trkpt lat="40.91317215963781" lon="8.71283455113059"><ele>44.0</ele><time>2026-04-11T13:12:37.998Z</time></trkpt><trkpt lat="40.91323536062873" lon="8.712804029213155"><ele>44.0</ele><time>2026-04-11T13:12:38.998Z</time></trkpt><trkpt lat="40.913350638941424" lon="8.712793942373315"><ele>44.0</ele><time>2026-04-11T13:12:40.998Z</time></trkpt><trkpt lat="40.91348927352903" lon="8.712788543666173"><ele>44.0</ele><time>2026-04-11T13:12:42.998Z</time></trkpt><trkpt lat="40.91356149828711" lon="8.712702410892387"><ele>45.0</ele><time>2026-04-11T13:12:43.998Z</time></trkpt><trkpt lat="40.91358544984793" lon="8.71261202234907"><ele>46.0</ele><time>2026-04-11T13:12:44.998Z</time></trkpt><trkpt lat="40.913608741862056" lon="8.712524122850178"><ele>47.0</ele><time>2026-04-11T13:12:45.998Z</time></trkpt><trkpt lat="40.91363220770314" lon="8.712435567365482"><ele>48.0</ele><time>2026-04-11T13:12:46.998Z</time></trkpt><trkpt lat="40.91365523902714" lon="8.712348651663332"><ele>49.0</ele><time>2026-04-11T13:12:47.998Z</time></trkpt><trkpt lat="40.91368172687407" lon="8.712253804876525"><ele>50.0</ele><time>2026-04-11T13:12:48.998Z</time></trkpt><trkpt lat="40.913710479042464" lon="8.712153321806984"><ele>51.0</ele><time>2026-04-11T13:12:49.998Z</time></trkpt><trkpt lat="40.91374115494496" lon="8.712054397959811"><ele>51.0</ele><time>2026-04-11T13:12:50.998Z</time></trkpt><trkpt lat="40.9137727489146" lon="8.711952513529518"><ele>51.0</ele><time>2026-04-11T13:12:51.998Z</time></trkpt><trkpt lat="40.91380050239769" lon="8.711863013923878"><ele>51.0</ele><time>2026-04-11T13:12:52.998Z</time></trkpt><trkpt lat="40.91383258301763" lon="8.711759651082737"><ele>51.0</ele><time>2026-04-11T13:12:53.998Z</time></trkpt><trkpt lat="40.91386405388541" lon="8.71165867632246"><ele>51.0</ele><time>2026-04-11T13:12:54.998Z</time></trkpt><trkpt lat="40.913899361690284" lon="8.711545390679245"><ele>51.0</ele><time>2026-04-11T13:12:55.998Z</time></trkpt><trkpt lat="40.91393243640061" lon="8.711444996043538"><ele>50.8</ele><time>2026-04-11T13:12:56.998Z</time></trkpt><trkpt lat="40.913969688589724" lon="8.711332240180353"><ele>50.599999999999994</ele><time>2026-04-11T13:12:57.998Z</time></trkpt><trkpt lat="40.91400387589356" lon="8.71122960516719"><ele>50.4</ele><time>2026-04-11T13:12:58.998Z</time></trkpt><trkpt lat="40.91404436616397" lon="8.711109346987099"><ele>50.2</ele><time>2026-04-11T13:12:59.998Z</time></trkpt><trkpt lat="40.91408507982982" lon="8.710988425303084"><ele>50.0</ele><time>2026-04-11T13:13:00.997Z</time></trkpt><trkpt lat="40.914122676069745" lon="8.71089032334778"><ele>49.333333333333336</ele><time>2026-04-11T13:13:01.997Z</time></trkpt><trkpt lat="40.9141659892605" lon="8.710796014048722"><ele>48.66666666666667</ele><time>2026-04-11T13:13:02.997Z</time></trkpt><trkpt lat="40.9142059393177" lon="8.710718507182024"><ele>48.0</ele><time>2026-04-11T13:13:03.997Z</time></trkpt><trkpt lat="40.91425514941386" lon="8.710630640267716"><ele>47.333333333333336</ele><time>2026-04-11T13:13:04.997Z</time></trkpt><trkpt lat="40.914304719564875" lon="8.710545137666994"><ele>46.66666666666667</ele><time>2026-04-11T13:13:05.997Z</time></trkpt><trkpt lat="40.91436701044517" lon="8.710452393410593"><ele>46.0</ele><time>2026-04-11T13:13:06.997Z</time></trkpt><trkpt lat="40.91444431678475" lon="8.710347700536207"><ele>46.0</ele><time>2026-04-11T13:13:07.997Z</time></trkpt><trkpt lat="40.91450900468727" lon="8.710263313244674"><ele>46.0</ele><time>2026-04-11T13:13:08.997Z</time></trkpt><trkpt lat="40.914582143073616" lon="8.71016827836095"><ele>46.0</ele><time>2026-04-11T13:13:09.997Z</time></trkpt><trkpt lat="40.914632187758244" lon="8.710104898227149"><ele>46.0</ele><time>2026-04-11T13:13:10.997Z</time></trkpt><trkpt lat="40.91469683982431" lon="8.71002301826833"><ele>46.0</ele><time>2026-04-11T13:13:11.997Z</time></trkpt><trkpt lat="40.91474517733381" lon="8.709960779801724"><ele>46.0</ele><time>2026-04-11T13:13:12.997Z</time></trkpt><trkpt lat="40.914826947444965" lon="8.709836570742757"><ele>42.8</ele><time>2026-04-11T13:13:14.997Z</time></trkpt><trkpt lat="40.91476525772814" lon="8.709645242067428"><ele>39.599999999999994</ele><time>2026-04-11T13:13:16.997Z</time></trkpt><trkpt lat="40.91468069147824" lon="8.7096363244386"><ele>36.4</ele><time>2026-04-11T13:13:17.997Z</time></trkpt><trkpt lat="40.914594271272854" lon="8.709642927643904"><ele>33.2</ele><time>2026-04-11T13:13:18.997Z</time></trkpt><trkpt lat="40.914510593523595" lon="8.709654059478286"><ele>30.0</ele><time>2026-04-11T13:13:19.997Z</time></trkpt><trkpt lat="40.91441704385439" lon="8.70966069629416"><ele>30.0</ele><time>2026-04-11T13:13:20.997Z</time></trkpt><trkpt lat="40.914336765900046" lon="8.709651587512615"><ele>30.0</ele><time>2026-04-11T13:13:21.997Z</time></trkpt><trkpt lat="40.91427050130764" lon="8.709624688169487"><ele>30.0</ele><time>2026-04-11T13:13:22.997Z</time></trkpt><trkpt lat="40.91420159486586" lon="8.709573249148676"><ele>30.0</ele><time>2026-04-11T13:13:23.997Z</time></trkpt><trkpt lat="40.91413488324547" lon="8.709496220493584"><ele>30.0</ele><time>2026-04-11T13:13:24.997Z</time></trkpt><trkpt lat="40.914067038121274" lon="8.70939845461149"><ele>30.0</ele><time>2026-04-11T13:13:25.997Z</time></trkpt><trkpt lat="40.91399689175302" lon="8.709291366414298"><ele>26.25</ele><time>2026-04-11T13:13:26.997Z</time></trkpt><trkpt lat="40.913923901216485" lon="8.709180981057523"><ele>22.5</ele><time>2026-04-11T13:13:27.997Z</time></trkpt><trkpt lat="40.91384174331962" lon="8.709056731678274"><ele>18.75</ele><time>2026-04-11T13:13:28.997Z</time></trkpt><trkpt lat="40.91376549959061" lon="8.708936088836959"><ele>15.0</ele><time>2026-04-11T13:13:29.997Z</time></trkpt><trkpt lat="40.91369299101538" lon="8.708820816427771"><ele>15.0</ele><time>2026-04-11T13:13:30.997Z</time></trkpt><trkpt lat="40.913625672013396" lon="8.708709915654177"><ele>15.0</ele><time>2026-04-11T13:13:31.997Z</time></trkpt><trkpt lat="40.913558780904786" lon="8.708591893099426"><ele>15.0</ele><time>2026-04-11T13:13:32.997Z</time></trkpt><trkpt lat="40.91353065775123" lon="8.708489118173697"><ele>15.0</ele><time>2026-04-11T13:13:33.997Z</time></trkpt><trkpt lat="40.913508059754356" lon="8.708369300634105"><ele>15.0</ele><time>2026-04-11T13:13:34.997Z</time></trkpt><trkpt lat="40.913516301910605" lon="8.708266615282923"><ele>13.166666666666666</ele><time>2026-04-11T13:13:35.997Z</time></trkpt><trkpt lat="40.913528758305844" lon="8.708156145189157"><ele>11.333333333333334</ele><time>2026-04-11T13:13:36.997Z</time></trkpt><trkpt lat="40.913545502960325" lon="8.708068187754563"><ele>9.5</ele><time>2026-04-11T13:13:37.997Z</time></trkpt><trkpt lat="40.913567663616924" lon="8.707950048610615"><ele>7.666666666666666</ele><time>2026-04-11T13:13:39.997Z</time></trkpt><trkpt lat="40.91358777571612" lon="8.707831686417297"><ele>5.833333333333333</ele><time>2026-04-11T13:13:41.997Z</time></trkpt><trkpt lat="40.9135962437823" lon="8.707705383824683"><ele>4.0</ele><time>2026-04-11T13:13:43.997Z</time></trkpt><trkpt lat="40.913627881546894" lon="8.707584523661405"><ele>3.25</ele><time>2026-04-11T13:13:45.997Z</time></trkpt><trkpt lat="40.9136609228592" lon="8.707381413907735"><ele>2.5</ele><time>2026-04-11T13:13:47.997Z</time></trkpt><trkpt lat="40.91368545357167" lon="8.707235097148349"><ele>1.75</ele><time>2026-04-11T13:13:48.997Z</time></trkpt><trkpt lat="40.913709886788816" lon="8.70708936191441"><ele>1.0</ele><time>2026-04-11T13:13:49.997Z</time></trkpt><trkpt lat="40.91373619418404" lon="8.706936588413093"><ele>1.25</ele><time>2026-04-11T13:13:50.997Z</time></trkpt><trkpt lat="40.91376463251537" lon="8.706776189616036"><ele>1.5</ele><time>2026-04-11T13:13:51.997Z</time></trkpt><trkpt lat="40.91379462700355" lon="8.706607991676911"><ele>1.75</ele><time>2026-04-11T13:13:52.997Z</time></trkpt><trkpt lat="40.91382520767445" lon="8.70643869171586"><ele>2.0</ele><time>2026-04-11T13:13:53.997Z</time></trkpt><trkpt lat="40.91385647201229" lon="8.706265606854357"><ele>2.0</ele><time>2026-04-11T13:13:54.997Z</time></trkpt><trkpt lat="40.913888942224546" lon="8.706086282143419"><ele>2.0</ele><time>2026-04-11T13:13:55.997Z</time></trkpt><trkpt lat="40.913920102049204" lon="8.705916866060257"><ele>2.0</ele><time>2026-04-11T13:13:56.997Z</time></trkpt><trkpt lat="40.91394861457773" lon="8.705758583089452"><ele>2.0</ele><time>2026-04-11T13:13:57.997Z</time></trkpt><trkpt lat="40.913973889223456" lon="8.705608760998945"><ele>2.5</ele><time>2026-04-11T13:13:58.997Z</time></trkpt><trkpt lat="40.91398746118868" lon="8.70545741889388"><ele>3.0</ele><time>2026-04-11T13:13:59.997Z</time></trkpt><trkpt lat="40.9139723959358" lon="8.705303369896768"><ele>3.5</ele><time>2026-04-11T13:14:00.997Z</time></trkpt><trkpt lat="40.913947377590944" lon="8.705144987803257"><ele>4.0</ele><time>2026-04-11T13:14:01.997Z</time></trkpt><trkpt lat="40.91390996502526" lon="8.704981988479453"><ele>4.0</ele><time>2026-04-11T13:14:02.997Z</time></trkpt><trkpt lat="40.91386680749545" lon="8.70481665026717"><ele>4.0</ele><time>2026-04-11T13:14:03.997Z</time></trkpt><trkpt lat="40.913817817596296" lon="8.704651070068557"><ele>4.0</ele><time>2026-04-11T13:14:04.997Z</time></trkpt><trkpt lat="40.91376716971316" lon="8.704489705363"><ele>4.0</ele><time>2026-04-11T13:14:05.997Z</time></trkpt><trkpt lat="40.91371816927153" lon="8.704331986597282"><ele>3.6</ele><time>2026-04-11T13:14:06.997Z</time></trkpt><trkpt lat="40.91366908408741" lon="8.704185082824742"><ele>3.2</ele><time>2026-04-11T13:14:07.997Z</time></trkpt><trkpt lat="40.9136169931046" lon="8.70405403710305"><ele>2.8000000000000003</ele><time>2026-04-11T13:14:08.997Z</time></trkpt><trkpt lat="40.913551393218235" lon="8.703942763981173"><ele>2.4000000000000004</ele><time>2026-04-11T13:14:09.997Z</time></trkpt><trkpt lat="40.91347928678705" lon="8.703839425039986"><ele>2.0</ele><time>2026-04-11T13:14:10.997Z</time></trkpt><trkpt lat="40.913397026892675" lon="8.703755837159514"><ele>4.800000000000001</ele><time>2026-04-11T13:14:11.997Z</time></trkpt><trkpt lat="40.91331449616586" lon="8.703678714684251"><ele>7.6000000000000005</ele><time>2026-04-11T13:14:12.997Z</time></trkpt><trkpt lat="40.91321799576646" lon="8.703664500436108"><ele>10.400000000000002</ele><time>2026-04-11T13:14:13.997Z</time></trkpt><trkpt lat="40.91311953637236" lon="8.703657794683776"><ele>13.200000000000001</ele><time>2026-04-11T13:14:14.997Z</time></trkpt><trkpt lat="40.913017002524526" lon="8.703689328705332"><ele>16.0</ele><time>2026-04-11T13:14:15.997Z</time></trkpt><trkpt lat="40.91291243438778" lon="8.703747722784193"><ele>16.0</ele><time>2026-04-11T13:14:16.997Z</time></trkpt><trkpt lat="40.912809329388594" lon="8.703815050980314"><ele>16.0</ele><time>2026-04-11T13:14:17.997Z</time></trkpt><trkpt lat="40.91271055524074" lon="8.703897744398839"><ele>16.0</ele><time>2026-04-11T13:14:18.997Z</time></trkpt><trkpt lat="40.912611177462146" lon="8.703992291671454"><ele>16.0</ele><time>2026-04-11T13:14:19.997Z</time></trkpt><trkpt lat="40.9125135072566" lon="8.704101947763926"><ele>15.0</ele><time>2026-04-11T13:14:20.997Z</time></trkpt><trkpt lat="40.912433051509055" lon="8.704242949761332"><ele>14.0</ele><time>2026-04-11T13:14:21.997Z</time></trkpt><trkpt lat="40.912344626741735" lon="8.70436968133825"><ele>13.0</ele><time>2026-04-11T13:14:22.997Z</time></trkpt><trkpt lat="40.912264370093624" lon="8.70450313437956"><ele>12.0</ele><time>2026-04-11T13:14:23.997Z</time></trkpt><trkpt lat="40.91220284513241" lon="8.70465468724042"><ele>16.0</ele><time>2026-04-11T13:14:24.997Z</time></trkpt><trkpt lat="40.9121504714382" lon="8.704814310747233"><ele>20.0</ele><time>2026-04-11T13:14:25.997Z</time></trkpt><trkpt lat="40.91211589320639" lon="8.704989123506813"><ele>24.0</ele><time>2026-04-11T13:14:26.997Z</time></trkpt><trkpt lat="40.912085133659005" lon="8.705168656441668"><ele>28.0</ele><time>2026-04-11T13:14:27.997Z</time></trkpt><trkpt lat="40.91204614019528" lon="8.705336915589367"><ele>29.75</ele><time>2026-04-11T13:14:28.997Z</time></trkpt><trkpt lat="40.91200218834168" lon="8.705497708579495"><ele>31.5</ele><time>2026-04-11T13:14:29.997Z</time></trkpt><trkpt lat="40.91195451828102" lon="8.705650918392816"><ele>33.25</ele><time>2026-04-11T13:14:30.997Z</time></trkpt><trkpt lat="40.91191355226095" lon="8.705796140849976"><ele>35.0</ele><time>2026-04-11T13:14:31.997Z</time></trkpt><trkpt lat="40.911850006548875" lon="8.705915794236567"><ele>35.0</ele><time>2026-04-11T13:14:32.997Z</time></trkpt><trkpt lat="40.91177884895711" lon="8.706017930807322"><ele>35.0</ele><time>2026-04-11T13:14:33.997Z</time></trkpt><trkpt lat="40.91169659345013" lon="8.706103127369959"><ele>35.0</ele><time>2026-04-11T13:14:34.996Z</time></trkpt><trkpt lat="40.91159040493941" lon="8.706155361994867"><ele>35.0</ele><time>2026-04-11T13:14:35.996Z</time></trkpt><trkpt lat="40.91146762917047" lon="8.706172091011801"><ele>35.0</ele><time>2026-04-11T13:14:36.996Z</time></trkpt><trkpt lat="40.911336267261355" lon="8.706165807713525"><ele>33.8</ele><time>2026-04-11T13:14:37.996Z</time></trkpt><trkpt lat="40.91120625307881" lon="8.706145010642977"><ele>32.6</ele><time>2026-04-11T13:14:38.996Z</time></trkpt><trkpt lat="40.911087214859336" lon="8.706130798603875"><ele>31.4</ele><time>2026-04-11T13:14:39.996Z</time></trkpt><trkpt lat="40.910988240283054" lon="8.70611475091241"><ele>30.2</ele><time>2026-04-11T13:14:40.996Z</time></trkpt><trkpt lat="40.91091180317017" lon="8.706095399631593"><ele>29.0</ele><time>2026-04-11T13:14:41.996Z</time></trkpt><trkpt lat="40.91081680870698" lon="8.70605894938624"><ele>25.28571428571429</ele><time>2026-04-11T13:14:43.996Z</time></trkpt><trkpt lat="40.91074469510878" lon="8.706035179696798"><ele>21.571428571428573</ele><time>2026-04-11T13:14:46.996Z</time></trkpt><trkpt lat="40.91065772116614" lon="8.705995905457696"><ele>17.857142857142858</ele><time>2026-04-11T13:14:48.996Z</time></trkpt><trkpt lat="40.91059681825762" lon="8.705957120710503"><ele>14.142857142857144</ele><time>2026-04-11T13:14:49.996Z</time></trkpt><trkpt lat="40.910542743500805" lon="8.705897922045743"><ele>10.428571428571429</ele><time>2026-04-11T13:14:50.996Z</time></trkpt><trkpt lat="40.910514035803644" lon="8.705808622393922"><ele>6.714285714285714</ele><time>2026-04-11T13:14:51.996Z</time></trkpt><trkpt lat="40.91053580360934" lon="8.705719625101182"><ele>3.0</ele><time>2026-04-11T13:14:52.996Z</time></trkpt><trkpt lat="40.910551792836756" lon="8.705604295022187"><ele>3.0</ele><time>2026-04-11T13:14:53.996Z</time></trkpt><trkpt lat="40.910572681925515" lon="8.705464619525513"><ele>3.0</ele><time>2026-04-11T13:14:54.996Z</time></trkpt><trkpt lat="40.91059336192583" lon="8.70530880732639"><ele>3.0</ele><time>2026-04-11T13:14:55.996Z</time></trkpt><trkpt lat="40.91062037467527" lon="8.70514055029972"><ele>3.0</ele><time>2026-04-11T13:14:56.996Z</time></trkpt><trkpt lat="40.9106899926833" lon="8.704974336457745"><ele>3.0</ele><time>2026-04-11T13:14:57.996Z</time></trkpt><trkpt lat="40.91078136409517" lon="8.704811059041395"><ele>3.0</ele><time>2026-04-11T13:14:58.996Z</time></trkpt><trkpt lat="40.910867251812924" lon="8.704629574096023"><ele>3.0</ele><time>2026-04-11T13:14:59.996Z</time></trkpt><trkpt lat="40.91096015662894" lon="8.704442651178088"><ele>2.0</ele><time>2026-04-11T13:15:00.996Z</time></trkpt><trkpt lat="40.91106439766211" lon="8.704227180831543"><ele>1.0</ele><time>2026-04-11T13:15:01.996Z</time></trkpt><trkpt lat="40.91116669521902" lon="8.703991040275325"><ele>0.0</ele><time>2026-04-11T13:15:02.996Z</time></trkpt><trkpt lat="40.91126961131925" lon="8.703743250471046"><ele>1.0</ele><time>2026-04-11T13:15:03.996Z</time></trkpt><trkpt lat="40.9113669497521" lon="8.703503991614392"><ele>2.0</ele><time>2026-04-11T13:15:04.996Z</time></trkpt><trkpt lat="40.91146167482348" lon="8.703271962031005"><ele>3.0</ele><time>2026-04-11T13:15:05.996Z</time></trkpt><trkpt lat="40.91155779941696" lon="8.703034459656209"><ele>3.0</ele><time>2026-04-11T13:15:06.996Z</time></trkpt><trkpt lat="40.91163420810389" lon="8.702822335689206"><ele>3.0</ele><time>2026-04-11T13:15:07.996Z</time></trkpt><trkpt lat="40.91168976557589" lon="8.70261384375346"><ele>3.0</ele><time>2026-04-11T13:15:08.996Z</time></trkpt><trkpt lat="40.91171964495903" lon="8.702403892590798"><ele>5.333333333333334</ele><time>2026-04-11T13:15:09.996Z</time></trkpt><trkpt lat="40.91171887012855" lon="8.702150260755934"><ele>7.666666666666667</ele><time>2026-04-11T13:15:10.996Z</time></trkpt><trkpt lat="40.91171327622634" lon="8.701872158644294"><ele>10.0</ele><time>2026-04-11T13:15:11.996Z</time></trkpt><trkpt lat="40.91170746867634" lon="8.70158343502422"><ele>11.0</ele><time>2026-04-11T13:15:12.996Z</time></trkpt><trkpt lat="40.91170030597617" lon="8.701281542138867"><ele>12.0</ele><time>2026-04-11T13:15:13.996Z</time></trkpt><trkpt lat="40.911694694706824" lon="8.700976316955494"><ele>16.5</ele><time>2026-04-11T13:15:14.996Z</time></trkpt><trkpt lat="40.91169367101435" lon="8.70067243908888"><ele>21.0</ele><time>2026-04-11T13:15:15.996Z</time></trkpt><trkpt lat="40.911703395949665" lon="8.700369334730546"><ele>22.333333333333336</ele><time>2026-04-11T13:15:16.996Z</time></trkpt><trkpt lat="40.91171742220091" lon="8.700094416084406"><ele>23.666666666666668</ele><time>2026-04-11T13:15:17.996Z</time></trkpt><trkpt lat="40.91173383646389" lon="8.69980215025226"><ele>25.0</ele><time>2026-04-11T13:15:18.996Z</time></trkpt><trkpt lat="40.91175200830433" lon="8.699521616620187"><ele>18.0</ele><time>2026-04-11T13:15:19.996Z</time></trkpt><trkpt lat="40.91178177684209" lon="8.699257246955021"><ele>11.0</ele><time>2026-04-11T13:15:20.996Z</time></trkpt><trkpt lat="40.911830993676325" lon="8.698970106575233"><ele>4.0</ele><time>2026-04-11T13:15:21.996Z</time></trkpt><trkpt lat="40.911891781804606" lon="8.698673559855875"><ele>7.0</ele><time>2026-04-11T13:15:22.996Z</time></trkpt><trkpt lat="40.91195043223711" lon="8.698394564672727"><ele>10.0</ele><time>2026-04-11T13:15:23.996Z</time></trkpt><trkpt lat="40.91201536051586" lon="8.698085706317736"><ele>10.0</ele><time>2026-04-11T13:15:24.996Z</time></trkpt><trkpt lat="40.91207529486907" lon="8.697800603634844"><ele>10.0</ele><time>2026-04-11T13:15:25.996Z</time></trkpt><trkpt lat="40.912134651609286" lon="8.69755415325931"><ele>10.0</ele><time>2026-04-11T13:15:26.996Z</time></trkpt><trkpt lat="40.912211153740586" lon="8.697311027838792"><ele>11.333333333333334</ele><time>2026-04-11T13:15:27.996Z</time></trkpt><trkpt lat="40.912289362254135" lon="8.697080011208534"><ele>12.666666666666668</ele><time>2026-04-11T13:15:28.996Z</time></trkpt><trkpt lat="40.91235712448269" lon="8.69687023169271"><ele>14.0</ele><time>2026-04-11T13:15:29.996Z</time></trkpt><trkpt lat="40.91241399593586" lon="8.696667670685118"><ele>14.2</ele><time>2026-04-11T13:15:30.996Z</time></trkpt><trkpt lat="40.91242958508705" lon="8.696486201274695"><ele>14.399999999999999</ele><time>2026-04-11T13:15:31.996Z</time></trkpt><trkpt lat="40.91240799176703" lon="8.696359401664537"><ele>14.6</ele><time>2026-04-11T13:15:32.996Z</time></trkpt><trkpt lat="40.91239371736419" lon="8.69624567538072"><ele>14.8</ele><time>2026-04-11T13:15:33.996Z</time></trkpt><trkpt lat="40.91230278755285" lon="8.696134721967901"><ele>15.0</ele><time>2026-04-11T13:15:34.996Z</time></trkpt><trkpt lat="40.912183092175916" lon="8.696002768757465"><ele>15.0</ele><time>2026-04-11T13:15:35.996Z</time></trkpt><trkpt lat="40.91207234038095" lon="8.695815434014069"><ele>15.0</ele><time>2026-04-11T13:15:36.996Z</time></trkpt><trkpt lat="40.91195399740935" lon="8.695636016300934"><ele>15.0</ele><time>2026-04-11T13:15:37.996Z</time></trkpt><trkpt lat="40.911822075380485" lon="8.695435177081533"><ele>17.333333333333332</ele><time>2026-04-11T13:15:38.996Z</time></trkpt><trkpt lat="40.91169715565691" lon="8.695240051882866"><ele>19.666666666666664</ele><time>2026-04-11T13:15:39.996Z</time></trkpt><trkpt lat="40.91156278417344" lon="8.695069272917314"><ele>22.0</ele><time>2026-04-11T13:15:40.996Z</time></trkpt><trkpt lat="40.91145180406693" lon="8.694892396876138"><ele>22.0</ele><time>2026-04-11T13:15:41.996Z</time></trkpt><trkpt lat="40.91127247274428" lon="8.694783916699619"><ele>22.0</ele><time>2026-04-11T13:15:42.996Z</time></trkpt><trkpt lat="40.91109804261979" lon="8.694647239761183"><ele>22.0</ele><time>2026-04-11T13:15:43.996Z</time></trkpt><trkpt lat="40.91091115155697" lon="8.694580633759095"><ele>21.666666666666664</ele><time>2026-04-11T13:15:44.996Z</time></trkpt><trkpt lat="40.910729800460395" lon="8.69450619593155"><ele>21.333333333333332</ele><time>2026-04-11T13:15:45.996Z</time></trkpt><trkpt lat="40.91056845425747" lon="8.694392628337386"><ele>21.0</ele><time>2026-04-11T13:15:47Z</time></trkpt><trkpt lat="40.91040396757951" lon="8.694287162734712"><ele>21.0</ele><time>2026-04-11T13:15:48Z</time></trkpt><trkpt lat="40.910241868070116" lon="8.6941777278424"><ele>21.0</ele><time>2026-04-11T13:15:49Z</time></trkpt><trkpt lat="40.91010080952045" lon="8.69405684009245"><ele>21.0</ele><time>2026-04-11T13:15:50Z</time></trkpt><trkpt lat="40.909985837588756" lon="8.693908692303703"><ele>21.25</ele><time>2026-04-11T13:15:51Z</time></trkpt><trkpt lat="40.90992729356113" lon="8.693809193848075"><ele>21.5</ele><time>2026-04-11T13:15:52Z</time></trkpt><trkpt lat="40.90986585390306" lon="8.693629578563051"><ele>21.75</ele><time>2026-04-11T13:15:53Z</time></trkpt><trkpt lat="40.909819395241755" lon="8.693410857906443"><ele>22.0</ele><time>2026-04-11T13:15:54Z</time></trkpt><trkpt lat="40.9097794227496" lon="8.693183646922469"><ele>22.0</ele><time>2026-04-11T13:15:55Z</time></trkpt><trkpt lat="40.90974053335538" lon="8.692972924819188"><ele>22.0</ele><time>2026-04-11T13:15:56Z</time></trkpt><trkpt lat="40.90968011498061" lon="8.692764840033364"><ele>22.0</ele><time>2026-04-11T13:15:57Z</time></trkpt><trkpt lat="40.90959423784004" lon="8.692603677160616"><ele>24.75</ele><time>2026-04-11T13:15:58Z</time></trkpt><trkpt lat="40.9095467895453" lon="8.692433265141839"><ele>27.5</ele><time>2026-04-11T13:15:59Z</time></trkpt><trkpt lat="40.90945914508644" lon="8.692306524630627"><ele>30.25</ele><time>2026-04-11T13:16:00Z</time></trkpt><trkpt lat="40.90933239467408" lon="8.692185622672389"><ele>33.0</ele><time>2026-04-11T13:16:01Z</time></trkpt><trkpt lat="40.90920207545063" lon="8.692091089306507"><ele>33.0</ele><time>2026-04-11T13:16:02Z</time></trkpt><trkpt lat="40.90905827076069" lon="8.692009735363737"><ele>33.0</ele><time>2026-04-11T13:16:03Z</time></trkpt><trkpt lat="40.90891170017911" lon="8.691932869988232"><ele>33.0</ele><time>2026-04-11T13:16:04Z</time></trkpt><trkpt lat="40.90875603553651" lon="8.691872818823555"><ele>25.5</ele><time>2026-04-11T13:16:05Z</time></trkpt><trkpt lat="40.9085839207172" lon="8.691864203883082"><ele>18.0</ele><time>2026-04-11T13:16:06Z</time></trkpt><trkpt lat="40.908273433772514" lon="8.691798845822637"><ele>18.0</ele><time>2026-04-11T13:16:08Z</time></trkpt><trkpt lat="40.908110400184064" lon="8.691792695802286"><ele>18.0</ele><time>2026-04-11T13:16:09Z</time></trkpt><trkpt lat="40.907937906253714" lon="8.691779020288376"><ele>18.0</ele><time>2026-04-11T13:16:10Z</time></trkpt><trkpt lat="40.90776663820417" lon="8.691784607933542"><ele>18.0</ele><time>2026-04-11T13:16:11Z</time></trkpt><trkpt lat="40.90758738470097" lon="8.691781285299495"><ele>18.0</ele><time>2026-04-11T13:16:12Z</time></trkpt><trkpt lat="40.90742178406102" lon="8.691773056756187"><ele>18.0</ele><time>2026-04-11T13:16:13Z</time></trkpt><trkpt lat="40.90724451302578" lon="8.691719109354768"><ele>19.0</ele><time>2026-04-11T13:16:14Z</time></trkpt><trkpt lat="40.907091642131995" lon="8.691634744319858"><ele>20.0</ele><time>2026-04-11T13:16:15Z</time></trkpt><trkpt lat="40.90694081064314" lon="8.691545084081373"><ele>21.0</ele><time>2026-04-11T13:16:16Z</time></trkpt><trkpt lat="40.90678393832699" lon="8.691445023868484"><ele>22.0</ele><time>2026-04-11T13:16:16.999Z</time></trkpt><trkpt lat="40.90666284454643" lon="8.691340096149476"><ele>23.0</ele><time>2026-04-11T13:16:17.999Z</time></trkpt><trkpt lat="40.90655073078848" lon="8.691230735260799"><ele>24.0</ele><time>2026-04-11T13:16:18.999Z</time></trkpt><trkpt lat="40.90644004302441" lon="8.691101899109281"><ele>25.0</ele><time>2026-04-11T13:16:19.999Z</time></trkpt><trkpt lat="40.90635258427313" lon="8.690985387012223"><ele>17.0</ele><time>2026-04-11T13:16:20.999Z</time></trkpt><trkpt lat="40.90624689379612" lon="8.690839167966773"><ele>17.0</ele><time>2026-04-11T13:16:21.999Z</time></trkpt></trkseg></trk></gpx>